<?xml version='1.0' encoding='UTF-8'?><gpx version="1.1" creator="JPX - https://github.com/jenetics/jpx" xmlns="http://www.topografix.com/GPX/1/1"><trk><trkseg><trkpt lat="40.924316989029144" lon="9.524201513338227"><ele>6.0</ele><time>2026-04-26T06:05:19.557Z</time></trkpt><trkpt lat="40.92422931193924" lon="9.524201691422935"><ele>6.0</ele><time>2026-04-26T06:05:21.557Z</time></trkpt><trkpt lat="40.92414766856256" lon="9.524206194534564"><ele>6.0</ele><time>2026-04-26T06:05:24.558Z</time></trkpt><trkpt lat="40.92419662912245" lon="9.524123503942441"><ele>6.0</ele><time>2026-04-26T06:05:28.558Z</time></trkpt><trkpt lat="40.924232061336646" lon="9.52399689610217"><ele>6.0</ele><time>2026-04-26T06:05:32.558Z</time></trkpt><trkpt lat="40.924230696046706" lon="9.523828267357144"><ele>2.0</ele><time>2026-04-26T06:05:33.558Z</time></trkpt><trkpt lat="40.924653009676874" lon="9.521818717668076"><ele>2.333333333333333</ele><time>2026-04-26T06:05:38.558Z</time></trkpt><trkpt lat="40.9247601023314" lon="9.522141780798773"><ele>2.6666666666666665</ele><time>2026-04-26T06:05:40.558Z</time></trkpt><trkpt lat="40.92484644337488" lon="9.522195544965767"><ele>3.0</ele><time>2026-04-26T06:05:41.558Z</time></trkpt><trkpt lat="40.92489950104718" lon="9.522327116315365"><ele>3.0</ele><time>2026-04-26T06:05:42.558Z</time></trkpt><trkpt lat="40.92480817146679" lon="9.522362837089785"><ele>3.0</ele><time>2026-04-26T06:05:47.358Z</time></trkpt><trkpt lat="40.92478885543076" lon="9.522277563483197"><ele>3.0</ele><time>2026-04-26T06:05:49.258Z</time></trkpt><trkpt lat="40.924778264039986" lon="9.522149789611348"><ele>3.0</ele><time>2026-04-26T06:06:05Z</time></trkpt><trkpt lat="40.92476288059409" lon="9.521996734214685"><ele>3.0</ele><time>2026-04-26T06:06:07Z</time></trkpt><trkpt lat="40.9247526212849" lon="9.521860400125437"><ele>2.8</ele><time>2026-04-26T06:06:09Z</time></trkpt><trkpt lat="40.924725397614125" lon="9.52173516459152"><ele>2.5999999999999996</ele><time>2026-04-26T06:06:11Z</time></trkpt><trkpt lat="40.924702737966044" lon="9.521594426387827"><ele>2.4000000000000004</ele><time>2026-04-26T06:06:13Z</time></trkpt><trkpt lat="40.924688255791345" lon="9.521448283439456"><ele>2.2</ele><time>2026-04-26T06:06:15Z</time></trkpt><trkpt lat="40.92468068614778" lon="9.521330543573496"><ele>2.0</ele><time>2026-04-26T06:06:17Z</time></trkpt><trkpt lat="40.92465876103644" lon="9.521208497723881"><ele>1.7142857142857142</ele><time>2026-04-26T06:06:19Z</time></trkpt><trkpt lat="40.924656253929086" lon="9.521109967009915"><ele>1.4285714285714284</ele><time>2026-04-26T06:06:21Z</time></trkpt><trkpt lat="40.92465244598699" lon="9.521016489496482"><ele>1.1428571428571428</ele><time>2026-04-26T06:06:25Z</time></trkpt><trkpt lat="40.92464194669854" lon="9.520899314524026"><ele>0.8571428571428571</ele><time>2026-04-26T06:06:28Z</time></trkpt><trkpt lat="40.92463667757597" lon="9.520809887217679"><ele>0.5714285714285714</ele><time>2026-04-26T06:06:30Z</time></trkpt><trkpt lat="40.92462589229836" lon="9.520704028263555"><ele>0.2857142857142857</ele><time>2026-04-26T06:06:33Z</time></trkpt><trkpt lat="40.924611072320566" lon="9.520621959377136"><ele>0.0</ele><time>2026-04-26T06:06:35Z</time></trkpt><trkpt lat="40.924596150199136" lon="9.520524763647082"><ele>0.0</ele><time>2026-04-26T06:06:37Z</time></trkpt><trkpt lat="40.9245743232457" lon="9.520375615224763"><ele>0.0</ele><time>2026-04-26T06:06:39Z</time></trkpt><trkpt lat="40.92455956784457" lon="9.52028679791611"><ele>0.0</ele><time>2026-04-26T06:06:40Z</time></trkpt><trkpt lat="40.92454511658909" lon="9.520172151590277"><ele>0.0</ele><time>2026-04-26T06:06:41Z</time></trkpt><trkpt lat="40.92452370839668" lon="9.52007349090908"><ele>0.0</ele><time>2026-04-26T06:06:42Z</time></trkpt><trkpt lat="40.924525222196586" lon="9.519957240248434"><ele>0.0</ele><time>2026-04-26T06:06:43Z</time></trkpt><trkpt lat="40.92451870884387" lon="9.519840268785963"><ele>0.0</ele><time>2026-04-26T06:06:44Z</time></trkpt><trkpt lat="40.92451423943242" lon="9.519722980044177"><ele>0.0</ele><time>2026-04-26T06:06:45Z</time></trkpt><trkpt lat="40.92450549371255" lon="9.519617407872884"><ele>0.0</ele><time>2026-04-26T06:06:46Z</time></trkpt><trkpt lat="40.92450219659595" lon="9.519520944744388"><ele>0.0</ele><time>2026-04-26T06:06:47Z</time></trkpt><trkpt lat="40.924492265792736" lon="9.519358079366494"><ele>0.0</ele><time>2026-04-26T06:06:49Z</time></trkpt><trkpt lat="40.92448079461481" lon="9.51921206029691"><ele>0.0</ele><time>2026-04-26T06:06:51Z</time></trkpt><trkpt lat="40.92446802808857" lon="9.519072928238403"><ele>0.0</ele><time>2026-04-26T06:06:53Z</time></trkpt><trkpt lat="40.92445797786658" lon="9.518944987944959"><ele>0.0</ele><time>2026-04-26T06:06:55Z</time></trkpt><trkpt lat="40.92444761966926" lon="9.51883175917893"><ele>0.0</ele><time>2026-04-26T06:06:56.999Z</time></trkpt><trkpt lat="40.92443828955994" lon="9.518730873938045"><ele>0.0</ele><time>2026-04-26T06:06:58.999Z</time></trkpt><trkpt lat="40.92442866102468" lon="9.518599348684564"><ele>0.0</ele><time>2026-04-26T06:07:00.999Z</time></trkpt><trkpt lat="40.92441529501277" lon="9.518470137996765"><ele>0.0</ele><time>2026-04-26T06:07:02.999Z</time></trkpt><trkpt lat="40.924385988076175" lon="9.518351218964716"><ele>0.0</ele><time>2026-04-26T06:07:04.999Z</time></trkpt><trkpt lat="40.92437910081156" lon="9.518202284565122"><ele>0.0</ele><time>2026-04-26T06:07:06.999Z</time></trkpt><trkpt lat="40.924370417579205" lon="9.518047308483292"><ele>0.0</ele><time>2026-04-26T06:07:08.999Z</time></trkpt><trkpt lat="40.92435247901628" lon="9.517884759317848"><ele>0.0</ele><time>2026-04-26T06:07:10.999Z</time></trkpt><trkpt lat="40.92434151232738" lon="9.517800238837701"><ele>0.0</ele><time>2026-04-26T06:07:11.999Z</time></trkpt><trkpt lat="40.92433536877154" lon="9.517714948087896"><ele>0.0</ele><time>2026-04-26T06:07:12.999Z</time></trkpt><trkpt lat="40.924336729600086" lon="9.517625174611261"><ele>0.0</ele><time>2026-04-26T06:07:13.999Z</time></trkpt><trkpt lat="40.924327420830906" lon="9.51753205573741"><ele>0.0</ele><time>2026-04-26T06:07:14.999Z</time></trkpt><trkpt lat="40.92431850209266" lon="9.517446681498292"><ele>0.0</ele><time>2026-04-26T06:07:15.999Z</time></trkpt><trkpt lat="40.92431141119996" lon="9.517356880002318"><ele>0.0</ele><time>2026-04-26T06:07:16.999Z</time></trkpt><trkpt lat="40.924302630973" lon="9.51726752999976"><ele>0.0</ele><time>2026-04-26T06:07:17.999Z</time></trkpt><trkpt lat="40.92428955342268" lon="9.517173636313148"><ele>0.0</ele><time>2026-04-26T06:07:18.999Z</time></trkpt><trkpt lat="40.924284396033926" lon="9.51708410253196"><ele>0.0</ele><time>2026-04-26T06:07:19.999Z</time></trkpt><trkpt lat="40.92427929246211" lon="9.51698786512571"><ele>0.0</ele><time>2026-04-26T06:07:20.999Z</time></trkpt><trkpt lat="40.92427259144246" lon="9.516899305624005"><ele>0.0</ele><time>2026-04-26T06:07:21.999Z</time></trkpt><trkpt lat="40.92427290844829" lon="9.51681192010212"><ele>0.0</ele><time>2026-04-26T06:07:22.999Z</time></trkpt><trkpt lat="40.924267216653874" lon="9.51672300215484"><ele>0.0</ele><time>2026-04-26T06:07:23.999Z</time></trkpt><trkpt lat="40.924258832707075" lon="9.516634402968592"><ele>0.0</ele><time>2026-04-26T06:07:24.999Z</time></trkpt><trkpt lat="40.92424746056492" lon="9.516542662419614"><ele>0.0</ele><time>2026-04-26T06:07:25.999Z</time></trkpt><trkpt lat="40.92423967467475" lon="9.51644831329139"><ele>0.0</ele><time>2026-04-26T06:07:26.999Z</time></trkpt><trkpt lat="40.9242439722375" lon="9.516351388398288"><ele>0.0</ele><time>2026-04-26T06:07:28.001Z</time></trkpt><trkpt lat="40.92424069902555" lon="9.51625639528299"><ele>0.0</ele><time>2026-04-26T06:07:29Z</time></trkpt><trkpt lat="40.92422893267294" lon="9.516168797339422"><ele>0.0</ele><time>2026-04-26T06:07:30Z</time></trkpt><trkpt lat="40.92421623399641" lon="9.516081994699366"><ele>0.0</ele><time>2026-04-26T06:07:31Z</time></trkpt><trkpt lat="40.92420595964631" lon="9.51599483210039"><ele>0.16666666666666666</ele><time>2026-04-26T06:07:32.001Z</time></trkpt><trkpt lat="40.92419388783369" lon="9.515902569079053"><ele>0.3333333333333333</ele><time>2026-04-26T06:07:33Z</time></trkpt><trkpt lat="40.92418619963266" lon="9.515808719984696"><ele>0.5</ele><time>2026-04-26T06:07:34.001Z</time></trkpt><trkpt lat="40.92416875264324" lon="9.515721059320686"><ele>0.6666666666666666</ele><time>2026-04-26T06:07:35.001Z</time></trkpt><trkpt lat="40.924141944121956" lon="9.51564557841076"><ele>0.8333333333333333</ele><time>2026-04-26T06:07:36.001Z</time></trkpt><trkpt lat="40.92407950158852" lon="9.51551825897676"><ele>1.0</ele><time>2026-04-26T06:07:38Z</time></trkpt><trkpt lat="40.92407038482764" lon="9.515432561845955"><ele>0.9999999999999999</ele><time>2026-04-26T06:07:40Z</time></trkpt><trkpt lat="40.92408729863077" lon="9.515352101527833"><ele>1.0</ele><time>2026-04-26T06:09:03.999Z</time></trkpt><trkpt lat="40.92409863267716" lon="9.515240177413501"><ele>1.0</ele><time>2026-04-26T06:09:05.999Z</time></trkpt><trkpt lat="40.924106486203435" lon="9.515076460390189"><ele>1.0</ele><time>2026-04-26T06:09:07.999Z</time></trkpt><trkpt lat="40.92411601577207" lon="9.51497387703759"><ele>0.9999999999999999</ele><time>2026-04-26T06:09:08.999Z</time></trkpt><trkpt lat="40.92411553812171" lon="9.514875769223378"><ele>1.0</ele><time>2026-04-26T06:09:09.999Z</time></trkpt><trkpt lat="40.92410854274114" lon="9.514768990991408"><ele>1.0</ele><time>2026-04-26T06:09:10.999Z</time></trkpt><trkpt lat="40.924106263871316" lon="9.51465292071081"><ele>1.0</ele><time>2026-04-26T06:09:11.999Z</time></trkpt><trkpt lat="40.92411108399846" lon="9.514530931739076"><ele>1.0</ele><time>2026-04-26T06:09:12.999Z</time></trkpt><trkpt lat="40.92412708643946" lon="9.514399014252035"><ele>1.0</ele><time>2026-04-26T06:09:13.999Z</time></trkpt><trkpt lat="40.92414962323157" lon="9.514264592313712"><ele>1.0</ele><time>2026-04-26T06:09:14.999Z</time></trkpt><trkpt lat="40.92417665583336" lon="9.514115641062093"><ele>1.0</ele><time>2026-04-26T06:09:15.999Z</time></trkpt><trkpt lat="40.924203137585636" lon="9.513958533301055"><ele>1.0</ele><time>2026-04-26T06:09:16.999Z</time></trkpt><trkpt lat="40.92422843838252" lon="9.513793902865133"><ele>1.0</ele><time>2026-04-26T06:09:17.999Z</time></trkpt><trkpt lat="40.92425333830303" lon="9.513630031321522"><ele>1.0</ele><time>2026-04-26T06:09:18.999Z</time></trkpt><trkpt lat="40.92427550494018" lon="9.513472968693494"><ele>0.8</ele><time>2026-04-26T06:09:19.999Z</time></trkpt><trkpt lat="40.924295038179366" lon="9.51332977370172"><ele>0.6000000000000001</ele><time>2026-04-26T06:09:20.999Z</time></trkpt><trkpt lat="40.9243171854973" lon="9.513194141308047"><ele>0.4</ele><time>2026-04-26T06:09:21.999Z</time></trkpt><trkpt lat="40.92433499603075" lon="9.513072778261844"><ele>0.2</ele><time>2026-04-26T06:09:22.999Z</time></trkpt><trkpt lat="40.924357621247516" lon="9.512942870392665"><ele>0.0</ele><time>2026-04-26T06:09:23.999Z</time></trkpt><trkpt lat="40.92437503987189" lon="9.51280791336663"><ele>0.0</ele><time>2026-04-26T06:09:24.999Z</time></trkpt><trkpt lat="40.92439741927914" lon="9.512666729077843"><ele>0.0</ele><time>2026-04-26T06:09:25.999Z</time></trkpt><trkpt lat="40.92442185403019" lon="9.512526156150443"><ele>0.0</ele><time>2026-04-26T06:09:26.998Z</time></trkpt><trkpt lat="40.9244470730392" lon="9.512383054821122"><ele>0.0</ele><time>2026-04-26T06:09:27.998Z</time></trkpt><trkpt lat="40.92447332403559" lon="9.512236154078426"><ele>0.0</ele><time>2026-04-26T06:09:28.998Z</time></trkpt><trkpt lat="40.92449832236634" lon="9.512086130115618"><ele>0.0</ele><time>2026-04-26T06:09:29.998Z</time></trkpt><trkpt lat="40.924523463003844" lon="9.511933259910798"><ele>0.0</ele><time>2026-04-26T06:09:30.998Z</time></trkpt><trkpt lat="40.924548697982274" lon="9.51177924196286"><ele>0.0</ele><time>2026-04-26T06:09:31.998Z</time></trkpt><trkpt lat="40.92457474497471" lon="9.511628051999072"><ele>0.0</ele><time>2026-04-26T06:09:32.998Z</time></trkpt><trkpt lat="40.92460082180885" lon="9.511482028707297"><ele>0.0</ele><time>2026-04-26T06:09:34.001Z</time></trkpt><trkpt lat="40.924623622919334" lon="9.511348193311074"><ele>0.0</ele><time>2026-04-26T06:09:35.001Z</time></trkpt><trkpt lat="40.92464499527238" lon="9.51122404445537"><ele>0.0</ele><time>2026-04-26T06:09:36.001Z</time></trkpt><trkpt lat="40.92466431997832" lon="9.511109920720946"><ele>0.0</ele><time>2026-04-26T06:09:37Z</time></trkpt><trkpt lat="40.92468061587247" lon="9.511004550544154"><ele>0.0</ele><time>2026-04-26T06:09:38Z</time></trkpt><trkpt lat="40.924699891410214" lon="9.510907403956361"><ele>0.0</ele><time>2026-04-26T06:09:39Z</time></trkpt><trkpt lat="40.924718281799144" lon="9.510800267666903"><ele>0.0</ele><time>2026-04-26T06:09:40Z</time></trkpt><trkpt lat="40.92474249612712" lon="9.510691221029054"><ele>0.0</ele><time>2026-04-26T06:09:41Z</time></trkpt><trkpt lat="40.924763569960625" lon="9.510589004732582"><ele>0.0</ele><time>2026-04-26T06:09:42Z</time></trkpt><trkpt lat="40.92477944423826" lon="9.510487002203647"><ele>0.0</ele><time>2026-04-26T06:09:43Z</time></trkpt><trkpt lat="40.92479715346565" lon="9.510387575496337"><ele>0.0</ele><time>2026-04-26T06:09:44Z</time></trkpt><trkpt lat="40.92481710433361" lon="9.510287329976318"><ele>0.0</ele><time>2026-04-26T06:09:45Z</time></trkpt><trkpt lat="40.924841092035244" lon="9.510184197190538"><ele>0.0</ele><time>2026-04-26T06:09:46Z</time></trkpt><trkpt lat="40.92486905390421" lon="9.510081944331109"><ele>0.0</ele><time>2026-04-26T06:09:47Z</time></trkpt><trkpt lat="40.924903356610095" lon="9.509979973117305"><ele>0.0</ele><time>2026-04-26T06:09:48Z</time></trkpt><trkpt lat="40.92493929222219" lon="9.509881896525425"><ele>0.0</ele><time>2026-04-26T06:09:49Z</time></trkpt><trkpt lat="40.92497733250207" lon="9.509785876087836"><ele>0.0</ele><time>2026-04-26T06:09:50Z</time></trkpt><trkpt lat="40.92501593257763" lon="9.509691653877764"><ele>0.0</ele><time>2026-04-26T06:09:51Z</time></trkpt><trkpt lat="40.92505861105247" lon="9.509598459174068"><ele>0.16666666666666666</ele><time>2026-04-26T06:09:52Z</time></trkpt><trkpt lat="40.92510912132769" lon="9.509503922410977"><ele>0.3333333333333333</ele><time>2026-04-26T06:09:53Z</time></trkpt><trkpt lat="40.92515955530004" lon="9.509420219707877"><ele>0.5</ele><time>2026-04-26T06:09:54Z</time></trkpt><trkpt lat="40.92522241504697" lon="9.509326038696921"><ele>0.6666666666666666</ele><time>2026-04-26T06:09:55Z</time></trkpt><trkpt lat="40.92528713729258" lon="9.509236519951793"><ele>0.8333333333333333</ele><time>2026-04-26T06:09:56Z</time></trkpt><trkpt lat="40.925347103916145" lon="9.50915731270726"><ele>1.0</ele><time>2026-04-26T06:09:57Z</time></trkpt><trkpt lat="40.925413311981984" lon="9.509077013116647"><ele>0.9999999999999999</ele><time>2026-04-26T06:09:58Z</time></trkpt><trkpt lat="40.92547953499275" lon="9.509002131948263"><ele>1.0</ele><time>2026-04-26T06:09:59Z</time></trkpt><trkpt lat="40.92554461095175" lon="9.508936745623732"><ele>1.0</ele><time>2026-04-26T06:10:00Z</time></trkpt><trkpt lat="40.925606831652445" lon="9.50887793056811"><ele>1.0</ele><time>2026-04-26T06:10:01Z</time></trkpt><trkpt lat="40.92566158421874" lon="9.508829838322995"><ele>0.9999999999999999</ele><time>2026-04-26T06:10:02Z</time></trkpt><trkpt lat="40.92574310729485" lon="9.508752079140699"><ele>1.0</ele><time>2026-04-26T06:10:04Z</time></trkpt><trkpt lat="40.92581227230583" lon="9.508683532937383"><ele>1.0</ele><time>2026-04-26T06:10:07Z</time></trkpt><trkpt lat="40.92586747774667" lon="9.508631907004773"><ele>1.0</ele><time>2026-04-26T06:10:10Z</time></trkpt><trkpt lat="40.92594442251187" lon="9.50855237480287"><ele>1.0</ele><time>2026-04-26T06:10:13Z</time></trkpt><trkpt lat="40.92601664679271" lon="9.508482837595759"><ele>1.0</ele><time>2026-04-26T06:10:15Z</time></trkpt><trkpt lat="40.926090999051645" lon="9.508393314884449"><ele>1.0</ele><time>2026-04-26T06:10:17Z</time></trkpt><trkpt lat="40.926174671123356" lon="9.508283563080134"><ele>1.0</ele><time>2026-04-26T06:10:19Z</time></trkpt><trkpt lat="40.92621840611178" lon="9.508217683031594"><ele>0.9999999999999999</ele><time>2026-04-26T06:10:20Z</time></trkpt><trkpt lat="40.92626305802922" lon="9.508146302232023"><ele>1.0</ele><time>2026-04-26T06:10:21Z</time></trkpt><trkpt lat="40.92630852506474" lon="9.508068691831632"><ele>1.0</ele><time>2026-04-26T06:10:22Z</time></trkpt><trkpt lat="40.92635010608212" lon="9.507979285806282"><ele>0.9999999999999999</ele><time>2026-04-26T06:10:23Z</time></trkpt><trkpt lat="40.926390020802515" lon="9.507895872291074"><ele>1.0</ele><time>2026-04-26T06:10:24Z</time></trkpt><trkpt lat="40.92642730488701" lon="9.50780554566754"><ele>1.0</ele><time>2026-04-26T06:10:25Z</time></trkpt><trkpt lat="40.92646206715713" lon="9.50772117132103"><ele>1.0</ele><time>2026-04-26T06:10:26Z</time></trkpt><trkpt lat="40.92648674065135" lon="9.507634477785045"><ele>0.9999999999999999</ele><time>2026-04-26T06:10:27Z</time></trkpt><trkpt lat="40.92651228938266" lon="9.507550796872172"><ele>1.0</ele><time>2026-04-26T06:10:28Z</time></trkpt><trkpt lat="40.926534645866035" lon="9.507465655090074"><ele>1.0</ele><time>2026-04-26T06:10:29Z</time></trkpt><trkpt lat="40.92655808746737" lon="9.50737578585653"><ele>0.9999999999999999</ele><time>2026-04-26T06:10:30Z</time></trkpt><trkpt lat="40.92657720061213" lon="9.507273420676574"><ele>1.0</ele><time>2026-04-26T06:10:31Z</time></trkpt><trkpt lat="40.926597145853464" lon="9.507165278642011"><ele>1.0</ele><time>2026-04-26T06:10:32Z</time></trkpt><trkpt lat="40.92661274874744" lon="9.507053922342163"><ele>0.9999999999999999</ele><time>2026-04-26T06:10:33Z</time></trkpt><trkpt lat="40.92660795012245" lon="9.50695661041849"><ele>1.0</ele><time>2026-04-26T06:10:34Z</time></trkpt><trkpt lat="40.92657572007212" lon="9.50687455843793"><ele>1.0</ele><time>2026-04-26T06:10:35Z</time></trkpt><trkpt lat="40.9265182647188" lon="9.506788766146958"><ele>1.0</ele><time>2026-04-26T06:10:36Z</time></trkpt><trkpt lat="40.92644733551944" lon="9.50671291422834"><ele>0.9999999999999999</ele><time>2026-04-26T06:10:37Z</time></trkpt><trkpt lat="40.92635687801999" lon="9.506660355801277"><ele>1.0</ele><time>2026-04-26T06:10:38Z</time></trkpt><trkpt lat="40.92625685869102" lon="9.50663980049509"><ele>1.0</ele><time>2026-04-26T06:10:39Z</time></trkpt><trkpt lat="40.92616696024295" lon="9.506657732175137"><ele>1.0</ele><time>2026-04-26T06:10:40Z</time></trkpt><trkpt lat="40.92607773705464" lon="9.506698643429495"><ele>1.0</ele><time>2026-04-26T06:10:41Z</time></trkpt><trkpt lat="40.92598139919499" lon="9.506755701029132"><ele>1.0</ele><time>2026-04-26T06:10:42Z</time></trkpt><trkpt lat="40.92588191436239" lon="9.506807109455496"><ele>1.0</ele><time>2026-04-26T06:10:43Z</time></trkpt><trkpt lat="40.92577395314089" lon="9.506848641539314"><ele>1.6</ele><time>2026-04-26T06:10:43.999Z</time></trkpt><trkpt lat="40.92565721656789" lon="9.506869019921679"><ele>2.2</ele><time>2026-04-26T06:10:44.999Z</time></trkpt><trkpt lat="40.925537693468854" lon="9.506889710633615"><ele>2.8000000000000003</ele><time>2026-04-26T06:10:45.999Z</time></trkpt><trkpt lat="40.92542704640346" lon="9.506900904988008"><ele>3.4000000000000004</ele><time>2026-04-26T06:10:46.999Z</time></trkpt><trkpt lat="40.92532812426141" lon="9.506909331287993"><ele>4.0</ele><time>2026-04-26T06:10:47.999Z</time></trkpt><trkpt lat="40.925249139448844" lon="9.506903206083962"><ele>4.0</ele><time>2026-04-26T06:10:48.999Z</time></trkpt><trkpt lat="40.92517179613104" lon="9.506809486328445"><ele>4.0</ele><time>2026-04-26T06:10:50.999Z</time></trkpt><trkpt lat="40.925201945426956" lon="9.5066774085401"><ele>4.0</ele><time>2026-04-26T06:10:52.999Z</time></trkpt><trkpt lat="40.92528060966946" lon="9.506524772177256"><ele>4.0</ele><time>2026-04-26T06:10:54.999Z</time></trkpt><trkpt lat="40.92531897923843" lon="9.506428045083636"><ele>4.0</ele><time>2026-04-26T06:10:55.999Z</time></trkpt><trkpt lat="40.92536591584604" lon="9.50632101123401"><ele>3.8000000000000003</ele><time>2026-04-26T06:10:56.999Z</time></trkpt><trkpt lat="40.92541425657516" lon="9.506215522361599"><ele>3.6000000000000005</ele><time>2026-04-26T06:10:57.999Z</time></trkpt><trkpt lat="40.92546105666629" lon="9.506101058407827"><ele>3.4</ele><time>2026-04-26T06:10:58.999Z</time></trkpt><trkpt lat="40.92551634210302" lon="9.50599652746285"><ele>3.2</ele><time>2026-04-26T06:10:59.999Z</time></trkpt><trkpt lat="40.925578323067036" lon="9.50591067748866"><ele>3.0</ele><time>2026-04-26T06:11:00.999Z</time></trkpt><trkpt lat="40.92564172030849" lon="9.505831546460932"><ele>3.0</ele><time>2026-04-26T06:11:01.999Z</time></trkpt><trkpt lat="40.92572491595374" lon="9.505759971243846"><ele>3.0</ele><time>2026-04-26T06:11:02.999Z</time></trkpt><trkpt lat="40.925805633762856" lon="9.505679446626804"><ele>3.0</ele><time>2026-04-26T06:11:03.999Z</time></trkpt><trkpt lat="40.925888826272875" lon="9.50558718151341"><ele>3.0</ele><time>2026-04-26T06:11:04.999Z</time></trkpt><trkpt lat="40.925970799728596" lon="9.505489463034358"><ele>3.0</ele><time>2026-04-26T06:11:05.999Z</time></trkpt><trkpt lat="40.92604184877521" lon="9.505388964186185"><ele>2.6666666666666665</ele><time>2026-04-26T06:11:06.999Z</time></trkpt><trkpt lat="40.92609562929421" lon="9.505297825699344"><ele>2.3333333333333335</ele><time>2026-04-26T06:11:07.999Z</time></trkpt><trkpt lat="40.92614145121823" lon="9.505205340918335"><ele>2.0</ele><time>2026-04-26T06:11:08.999Z</time></trkpt><trkpt lat="40.92615688137794" lon="9.505120008300063"><ele>1.6666666666666665</ele><time>2026-04-26T06:11:09.999Z</time></trkpt><trkpt lat="40.92612076630318" lon="9.504963155923264"><ele>1.3333333333333333</ele><time>2026-04-26T06:11:11.999Z</time></trkpt><trkpt lat="40.92611947322816" lon="9.50487328610772"><ele>1.0</ele><time>2026-04-26T06:11:12.999Z</time></trkpt><trkpt lat="40.92612105440358" lon="9.5047842531566"><ele>1.0</ele><time>2026-04-26T06:11:13.999Z</time></trkpt><trkpt lat="40.92611775872787" lon="9.504692205625037"><ele>0.9999999999999999</ele><time>2026-04-26T06:11:14.999Z</time></trkpt><trkpt lat="40.92611963122195" lon="9.50459373258622"><ele>1.0</ele><time>2026-04-26T06:11:15.999Z</time></trkpt><trkpt lat="40.92612025654547" lon="9.504501532742868"><ele>1.0</ele><time>2026-04-26T06:11:16.999Z</time></trkpt><trkpt lat="40.92613763636854" lon="9.50439491659259"><ele>0.9999999999999999</ele><time>2026-04-26T06:11:17.999Z</time></trkpt><trkpt lat="40.92615415345918" lon="9.50429424270116"><ele>1.0</ele><time>2026-04-26T06:11:18.999Z</time></trkpt><trkpt lat="40.92615602087016" lon="9.504206327472154"><ele>1.0</ele><time>2026-04-26T06:11:19.999Z</time></trkpt><trkpt lat="40.926154969668026" lon="9.504109232546774"><ele>1.0</ele><time>2026-04-26T06:11:20.999Z</time></trkpt><trkpt lat="40.926153858364145" lon="9.504007878781906"><ele>0.9999999999999999</ele><time>2026-04-26T06:11:21.999Z</time></trkpt><trkpt lat="40.92615031392994" lon="9.503917820394316"><ele>1.0</ele><time>2026-04-26T06:11:22.999Z</time></trkpt><trkpt lat="40.92614588523187" lon="9.503828429700198"><ele>1.0</ele><time>2026-04-26T06:11:23.999Z</time></trkpt><trkpt lat="40.92615153774711" lon="9.503732384442621"><ele>0.9999999999999999</ele><time>2026-04-26T06:11:24.999Z</time></trkpt><trkpt lat="40.92616302250659" lon="9.503636079160284"><ele>1.0</ele><time>2026-04-26T06:11:25.999Z</time></trkpt><trkpt lat="40.926166571587444" lon="9.503545139484919"><ele>1.0</ele><time>2026-04-26T06:11:26.999Z</time></trkpt><trkpt lat="40.92616694205714" lon="9.503456158360413"><ele>1.1428571428571428</ele><time>2026-04-26T06:11:27.999Z</time></trkpt><trkpt lat="40.92617585287559" lon="9.503362614253524"><ele>1.2857142857142856</ele><time>2026-04-26T06:11:28.999Z</time></trkpt><trkpt lat="40.92617978665848" lon="9.50326970447107"><ele>1.4285714285714284</ele><time>2026-04-26T06:11:29.999Z</time></trkpt><trkpt lat="40.926184110566034" lon="9.50318251652443"><ele>1.5714285714285714</ele><time>2026-04-26T06:11:30.999Z</time></trkpt><trkpt lat="40.92619333409205" lon="9.503088933205518"><ele>1.714285714285714</ele><time>2026-04-26T06:11:31.999Z</time></trkpt><trkpt lat="40.92619822766931" lon="9.502990781527004"><ele>1.857142857142857</ele><time>2026-04-26T06:11:32.999Z</time></trkpt><trkpt lat="40.92621316852153" lon="9.502892858657928"><ele>2.0</ele><time>2026-04-26T06:11:33.999Z</time></trkpt><trkpt lat="40.92622911017743" lon="9.502799714112506"><ele>2.1666666666666665</ele><time>2026-04-26T06:11:34.999Z</time></trkpt><trkpt lat="40.926241738295026" lon="9.502695780943204"><ele>2.333333333333333</ele><time>2026-04-26T06:11:35.999Z</time></trkpt><trkpt lat="40.92624770197587" lon="9.502586395108702"><ele>2.5</ele><time>2026-04-26T06:11:36.999Z</time></trkpt><trkpt lat="40.9262463501776" lon="9.502485582694138"><ele>2.6666666666666665</ele><time>2026-04-26T06:11:37.999Z</time></trkpt><trkpt lat="40.926245957271874" lon="9.502380817648454"><ele>2.8333333333333335</ele><time>2026-04-26T06:11:38.999Z</time></trkpt><trkpt lat="40.92623909600825" lon="9.50227561501552"><ele>3.0</ele><time>2026-04-26T06:11:40Z</time></trkpt><trkpt lat="40.926224079613114" lon="9.50217408803702"><ele>3.1666666666666665</ele><time>2026-04-26T06:11:41Z</time></trkpt><trkpt lat="40.92619973526419" lon="9.50207188903509"><ele>3.333333333333333</ele><time>2026-04-26T06:11:42Z</time></trkpt><trkpt lat="40.926182993766886" lon="9.501970750011202"><ele>3.5</ele><time>2026-04-26T06:11:43Z</time></trkpt><trkpt lat="40.92616328722918" lon="9.501869631763599"><ele>3.6666666666666665</ele><time>2026-04-26T06:11:43.999Z</time></trkpt><trkpt lat="40.92614277472199" lon="9.5017720641636"><ele>3.833333333333333</ele><time>2026-04-26T06:11:44.999Z</time></trkpt><trkpt lat="40.92612554650596" lon="9.501675127043816"><ele>4.0</ele><time>2026-04-26T06:11:46Z</time></trkpt><trkpt lat="40.92611376272142" lon="9.50157886334371"><ele>3.9999999999999996</ele><time>2026-04-26T06:11:46.999Z</time></trkpt><trkpt lat="40.92610270702893" lon="9.501487993254804"><ele>4.0</ele><time>2026-04-26T06:11:47.999Z</time></trkpt><trkpt lat="40.92610952801449" lon="9.501360511095765"><ele>4.0</ele><time>2026-04-26T06:11:50Z</time></trkpt><trkpt lat="40.926133651816784" lon="9.50127935986935"><ele>4.0</ele><time>2026-04-26T06:11:51.999Z</time></trkpt><trkpt lat="40.92615564923293" lon="9.501178343666268"><ele>3.9999999999999996</ele><time>2026-04-26T06:11:54.999Z</time></trkpt><trkpt lat="40.92618540828688" lon="9.501076211153029"><ele>4.0</ele><time>2026-04-26T06:11:56.999Z</time></trkpt><trkpt lat="40.926252431433156" lon="9.501006853645949"><ele>4.5</ele><time>2026-04-26T06:11:58.999Z</time></trkpt><trkpt lat="40.92630338788626" lon="9.500956841187358"><ele>5.0</ele><time>2026-04-26T06:12:00.999Z</time></trkpt><trkpt lat="40.92635566927475" lon="9.500906737240982"><ele>5.5</ele><time>2026-04-26T06:12:03.999Z</time></trkpt><trkpt lat="40.92641341931971" lon="9.500847283053151"><ele>6.0</ele><time>2026-04-26T06:12:06.999Z</time></trkpt><trkpt lat="40.92649217107214" lon="9.500826059173942"><ele>6.500000000000001</ele><time>2026-04-26T06:12:09.999Z</time></trkpt><trkpt lat="40.92657065443774" lon="9.50094337977364"><ele>7.0</ele><time>2026-04-26T06:12:11.999Z</time></trkpt><trkpt lat="40.92660914900293" lon="9.50101574621393"><ele>7.000000000000001</ele><time>2026-04-26T06:12:12.999Z</time></trkpt><trkpt lat="40.926655005838676" lon="9.50109347472033"><ele>7.0</ele><time>2026-04-26T06:12:13.999Z</time></trkpt><trkpt lat="40.92670079451066" lon="9.501170387380908"><ele>7.0</ele><time>2026-04-26T06:12:14.999Z</time></trkpt><trkpt lat="40.92674871549927" lon="9.50126736267551"><ele>7.0</ele><time>2026-04-26T06:12:15.999Z</time></trkpt><trkpt lat="40.926803096296815" lon="9.501362896562247"><ele>7.000000000000001</ele><time>2026-04-26T06:12:16.999Z</time></trkpt><trkpt lat="40.926864114415" lon="9.501442363252854"><ele>7.0</ele><time>2026-04-26T06:12:17.999Z</time></trkpt><trkpt lat="40.926927598335006" lon="9.501510900164423"><ele>6.199999999999999</ele><time>2026-04-26T06:12:18.999Z</time></trkpt><trkpt lat="40.927003519110265" lon="9.501579243151127"><ele>5.3999999999999995</ele><time>2026-04-26T06:12:19.999Z</time></trkpt><trkpt lat="40.92708603430246" lon="9.501627194462285"><ele>4.6</ele><time>2026-04-26T06:12:20.999Z</time></trkpt><trkpt lat="40.92717960913736" lon="9.501666199027575"><ele>3.8</ele><time>2026-04-26T06:12:21.999Z</time></trkpt><trkpt lat="40.9272707968198" lon="9.501696615045345"><ele>3.0</ele><time>2026-04-26T06:12:22.999Z</time></trkpt><trkpt lat="40.927372928705644" lon="9.501725311791478"><ele>3.0</ele><time>2026-04-26T06:12:23.999Z</time></trkpt><trkpt lat="40.927475299119855" lon="9.501746605268597"><ele>3.0</ele><time>2026-04-26T06:12:24.999Z</time></trkpt><trkpt lat="40.927575489524266" lon="9.501772253039075"><ele>3.0</ele><time>2026-04-26T06:12:25.999Z</time></trkpt><trkpt lat="40.92766956817819" lon="9.501803870600767"><ele>3.0</ele><time>2026-04-26T06:12:26.999Z</time></trkpt><trkpt lat="40.927751932649414" lon="9.501827739735758"><ele>3.0</ele><time>2026-04-26T06:12:27.999Z</time></trkpt><trkpt lat="40.92782566393804" lon="9.50184216261909"><ele>3.3333333333333335</ele><time>2026-04-26T06:12:28.999Z</time></trkpt><trkpt lat="40.92789149790944" lon="9.501841066441902"><ele>3.666666666666667</ele><time>2026-04-26T06:12:29.999Z</time></trkpt><trkpt lat="40.92800987670518" lon="9.501832215396755"><ele>4.0</ele><time>2026-04-26T06:12:31.999Z</time></trkpt><trkpt lat="40.928081716856965" lon="9.501824842868709"><ele>4.333333333333334</ele><time>2026-04-26T06:12:32.999Z</time></trkpt><trkpt lat="40.92815733494528" lon="9.501810963036581"><ele>4.666666666666667</ele><time>2026-04-26T06:12:33.999Z</time></trkpt><trkpt lat="40.92824540818584" lon="9.50177982674291"><ele>5.0</ele><time>2026-04-26T06:12:34.999Z</time></trkpt><trkpt lat="40.92832877479263" lon="9.501737350062433"><ele>5.0</ele><time>2026-04-26T06:12:35.999Z</time></trkpt><trkpt lat="40.92841508474165" lon="9.50168366325918"><ele>5.0</ele><time>2026-04-26T06:12:36.999Z</time></trkpt><trkpt lat="40.928504984030624" lon="9.501634130398552"><ele>5.0</ele><time>2026-04-26T06:12:37.999Z</time></trkpt><trkpt lat="40.92859318125993" lon="9.501584076499507"><ele>5.0</ele><time>2026-04-26T06:12:38.999Z</time></trkpt><trkpt lat="40.92868904536522" lon="9.501537537117311"><ele>5.0</ele><time>2026-04-26T06:12:39.999Z</time></trkpt><trkpt lat="40.92878778914283" lon="9.501487254037942"><ele>5.0</ele><time>2026-04-26T06:12:40.999Z</time></trkpt><trkpt lat="40.928886515069394" lon="9.501438132386811"><ele>5.0</ele><time>2026-04-26T06:12:41.999Z</time></trkpt><trkpt lat="40.92899016621211" lon="9.50140073268181"><ele>5.0</ele><time>2026-04-26T06:12:42.999Z</time></trkpt><trkpt lat="40.929095004397816" lon="9.501379960973328"><ele>5.0</ele><time>2026-04-26T06:12:43.999Z</time></trkpt><trkpt lat="40.929198577994796" lon="9.501365709101117"><ele>5.0</ele><time>2026-04-26T06:12:44.999Z</time></trkpt><trkpt lat="40.92930529101784" lon="9.501358875308378"><ele>4.6</ele><time>2026-04-26T06:12:45.999Z</time></trkpt><trkpt lat="40.92941450778062" lon="9.501358373259457"><ele>4.2</ele><time>2026-04-26T06:12:46.999Z</time></trkpt><trkpt lat="40.92951894943649" lon="9.501365863883798"><ele>3.8</ele><time>2026-04-26T06:12:47.999Z</time></trkpt><trkpt lat="40.929624441948555" lon="9.501373698326015"><ele>3.4</ele><time>2026-04-26T06:12:48.999Z</time></trkpt><trkpt lat="40.92972892732999" lon="9.501358723270883"><ele>3.0</ele><time>2026-04-26T06:12:49.999Z</time></trkpt><trkpt lat="40.9298360835999" lon="9.501337003166826"><ele>3.0</ele><time>2026-04-26T06:12:50.999Z</time></trkpt><trkpt lat="40.92994346418608" lon="9.5012966331462"><ele>3.0</ele><time>2026-04-26T06:12:51.999Z</time></trkpt><trkpt lat="40.93004579753162" lon="9.501242545165766"><ele>3.0</ele><time>2026-04-26T06:12:52.999Z</time></trkpt><trkpt lat="40.930147390861116" lon="9.501170817109543"><ele>3.0</ele><time>2026-04-26T06:12:53.999Z</time></trkpt><trkpt lat="40.930246304253046" lon="9.501091566533317"><ele>3.25</ele><time>2026-04-26T06:12:54.999Z</time></trkpt><trkpt lat="40.93034048207638" lon="9.500996584803797"><ele>3.5</ele><time>2026-04-26T06:12:55.999Z</time></trkpt><trkpt lat="40.93042730916352" lon="9.500894156342"><ele>3.75</ele><time>2026-04-26T06:12:56.999Z</time></trkpt><trkpt lat="40.9305164699964" lon="9.500774418552423"><ele>4.0</ele><time>2026-04-26T06:12:57.999Z</time></trkpt><trkpt lat="40.93060997239094" lon="9.500668167115789"><ele>4.0</ele><time>2026-04-26T06:12:58.998Z</time></trkpt><trkpt lat="40.930704196048026" lon="9.500565222207047"><ele>4.0</ele><time>2026-04-26T06:12:59.998Z</time></trkpt><trkpt lat="40.93079908429015" lon="9.500458576219836"><ele>4.0</ele><time>2026-04-26T06:13:00.998Z</time></trkpt><trkpt lat="40.93088930245456" lon="9.500349058876353"><ele>4.0</ele><time>2026-04-26T06:13:01.998Z</time></trkpt><trkpt lat="40.930976832189984" lon="9.500239021109588"><ele>5.0</ele><time>2026-04-26T06:13:02.998Z</time></trkpt><trkpt lat="40.93106998317627" lon="9.500137606210954"><ele>6.0</ele><time>2026-04-26T06:13:03.998Z</time></trkpt><trkpt lat="40.93116475753029" lon="9.500034553635949"><ele>7.0</ele><time>2026-04-26T06:13:04.998Z</time></trkpt><trkpt lat="40.931265713624626" lon="9.499931985281098"><ele>8.0</ele><time>2026-04-26T06:13:05.998Z</time></trkpt><trkpt lat="40.93135802714436" lon="9.49983661958905"><ele>8.0</ele><time>2026-04-26T06:13:06.998Z</time></trkpt><trkpt lat="40.9314521022144" lon="9.499750973065531"><ele>8.0</ele><time>2026-04-26T06:13:07.998Z</time></trkpt><trkpt lat="40.93154211669509" lon="9.499682178255046"><ele>8.0</ele><time>2026-04-26T06:13:08.998Z</time></trkpt><trkpt lat="40.93163932394434" lon="9.499605861014917"><ele>8.0</ele><time>2026-04-26T06:13:09.998Z</time></trkpt><trkpt lat="40.93173786365294" lon="9.499545611834552"><ele>8.0</ele><time>2026-04-26T06:13:10.998Z</time></trkpt><trkpt lat="40.93184359990397" lon="9.499494297062515"><ele>7.5</ele><time>2026-04-26T06:13:11.998Z</time></trkpt><trkpt lat="40.93195324848591" lon="9.499440167591429"><ele>7.0</ele><time>2026-04-26T06:13:12.998Z</time></trkpt><trkpt lat="40.932065848231154" lon="9.499393950041156"><ele>6.5</ele><time>2026-04-26T06:13:13.998Z</time></trkpt><trkpt lat="40.93218907133651" lon="9.499365892526876"><ele>6.0</ele><time>2026-04-26T06:13:14.998Z</time></trkpt><trkpt lat="40.93231421517829" lon="9.499337847920456"><ele>6.0</ele><time>2026-04-26T06:13:15.998Z</time></trkpt><trkpt lat="40.93243667534952" lon="9.499305502920889"><ele>6.0</ele><time>2026-04-26T06:13:16.998Z</time></trkpt><trkpt lat="40.93256331063991" lon="9.499273203405355"><ele>6.0</ele><time>2026-04-26T06:13:17.998Z</time></trkpt><trkpt lat="40.932685716731804" lon="9.499244456963785"><ele>6.0</ele><time>2026-04-26T06:13:18.998Z</time></trkpt><trkpt lat="40.93280455939394" lon="9.499206603333308"><ele>5.75</ele><time>2026-04-26T06:13:19.998Z</time></trkpt><trkpt lat="40.93292704716151" lon="9.499168771477176"><ele>5.5</ele><time>2026-04-26T06:13:20.998Z</time></trkpt><trkpt lat="40.933041350457735" lon="9.499137871090142"><ele>5.25</ele><time>2026-04-26T06:13:21.998Z</time></trkpt><trkpt lat="40.933148943910155" lon="9.499118010661254"><ele>5.0</ele><time>2026-04-26T06:13:22.998Z</time></trkpt><trkpt lat="40.93325005387336" lon="9.499089186966373"><ele>5.0</ele><time>2026-04-26T06:13:23.998Z</time></trkpt><trkpt lat="40.93333633556025" lon="9.499075938222802"><ele>5.0</ele><time>2026-04-26T06:13:24.998Z</time></trkpt><trkpt lat="40.933412213285266" lon="9.499066441689695"><ele>5.0</ele><time>2026-04-26T06:13:25.998Z</time></trkpt><trkpt lat="40.933525140076256" lon="9.499101234855916"><ele>5.0</ele><time>2026-04-26T06:13:27.998Z</time></trkpt><trkpt lat="40.9335943688717" lon="9.49909988812858"><ele>5.0</ele><time>2026-04-26T06:13:29.998Z</time></trkpt><trkpt lat="40.933666667162285" lon="9.49907482036246"><ele>5.0</ele><time>2026-04-26T06:13:33.998Z</time></trkpt><trkpt lat="40.933596010884855" lon="9.498978599199418"><ele>5.0</ele><time>2026-04-26T06:16:25.999Z</time></trkpt><trkpt lat="40.933763963033265" lon="9.49897375885709"><ele>5.0</ele><time>2026-04-26T06:20:57.999Z</time></trkpt><trkpt lat="40.933831283943036" lon="9.498962278906482"><ele>5.0</ele><time>2026-04-26T06:21:07.998Z</time></trkpt><trkpt lat="40.93388736475531" lon="9.49891487575577"><ele>5.0</ele><time>2026-04-26T06:21:09.998Z</time></trkpt><trkpt lat="40.93397717346973" lon="9.498866407949052"><ele>5.0</ele><time>2026-04-26T06:21:11.998Z</time></trkpt><trkpt lat="40.93405286818518" lon="9.498848957857717"><ele>5.0</ele><time>2026-04-26T06:21:12.998Z</time></trkpt><trkpt lat="40.93413693531556" lon="9.498821690119833"><ele>5.0</ele><time>2026-04-26T06:21:13.998Z</time></trkpt><trkpt lat="40.93421925297583" lon="9.498789529049345"><ele>5.0</ele><time>2026-04-26T06:21:14.998Z</time></trkpt><trkpt lat="40.93430212133636" lon="9.498762403548719"><ele>5.0</ele><time>2026-04-26T06:21:15.998Z</time></trkpt><trkpt lat="40.93439693415028" lon="9.498735656751066"><ele>5.0</ele><time>2026-04-26T06:21:16.998Z</time></trkpt><trkpt lat="40.93448988533862" lon="9.498710833044145"><ele>5.0</ele><time>2026-04-26T06:21:17.998Z</time></trkpt><trkpt lat="40.934579148370844" lon="9.498686952382144"><ele>5.4</ele><time>2026-04-26T06:21:18.998Z</time></trkpt><trkpt lat="40.934685507263005" lon="9.498676703488856"><ele>5.8</ele><time>2026-04-26T06:21:19.998Z</time></trkpt><trkpt lat="40.93477629910965" lon="9.498637931438456"><ele>6.199999999999999</ele><time>2026-04-26T06:21:20.998Z</time></trkpt><trkpt lat="40.93486593847561" lon="9.49859798593874"><ele>6.6</ele><time>2026-04-26T06:21:21.998Z</time></trkpt><trkpt lat="40.934965608942335" lon="9.498569218973843"><ele>7.0</ele><time>2026-04-26T06:21:22.998Z</time></trkpt><trkpt lat="40.93506770102162" lon="9.498544555835108"><ele>7.199999999999999</ele><time>2026-04-26T06:21:23.998Z</time></trkpt><trkpt lat="40.93516798383853" lon="9.4985223496359"><ele>7.3999999999999995</ele><time>2026-04-26T06:21:24.998Z</time></trkpt><trkpt lat="40.93526614444104" lon="9.498494434461174"><ele>7.6000000000000005</ele><time>2026-04-26T06:21:25.998Z</time></trkpt><trkpt lat="40.93536203109996" lon="9.498463315090742"><ele>7.800000000000001</ele><time>2026-04-26T06:21:26.998Z</time></trkpt><trkpt lat="40.9354687798392" lon="9.498437728907216"><ele>8.0</ele><time>2026-04-26T06:21:27.998Z</time></trkpt><trkpt lat="40.935565292517715" lon="9.498415913485157"><ele>8.0</ele><time>2026-04-26T06:21:28.998Z</time></trkpt><trkpt lat="40.935653246583584" lon="9.498390898987036"><ele>8.0</ele><time>2026-04-26T06:21:29.998Z</time></trkpt><trkpt lat="40.935747314731735" lon="9.498368108845243"><ele>8.0</ele><time>2026-04-26T06:21:30.998Z</time></trkpt><trkpt lat="40.93585385798319" lon="9.498348799970229"><ele>8.0</ele><time>2026-04-26T06:21:31.998Z</time></trkpt><trkpt lat="40.93596278827362" lon="9.498328285630055"><ele>8.0</ele><time>2026-04-26T06:21:32.998Z</time></trkpt><trkpt lat="40.93607531730192" lon="9.498306058032165"><ele>8.5</ele><time>2026-04-26T06:21:33.998Z</time></trkpt><trkpt lat="40.93618689843276" lon="9.498281087993641"><ele>9.0</ele><time>2026-04-26T06:21:34.998Z</time></trkpt><trkpt lat="40.93629821041865" lon="9.498252315827527"><ele>9.5</ele><time>2026-04-26T06:21:35.998Z</time></trkpt><trkpt lat="40.93640914373268" lon="9.49822663771468"><ele>10.0</ele><time>2026-04-26T06:21:36.998Z</time></trkpt><trkpt lat="40.93651960158593" lon="9.498203057675806"><ele>10.0</ele><time>2026-04-26T06:21:37.998Z</time></trkpt><trkpt lat="40.93663245287191" lon="9.498178661090565"><ele>10.0</ele><time>2026-04-26T06:21:38.998Z</time></trkpt><trkpt lat="40.936751239055724" lon="9.498151535549589"><ele>10.0</ele><time>2026-04-26T06:21:39.998Z</time></trkpt><trkpt lat="40.93685815076473" lon="9.498126158259165"><ele>10.0</ele><time>2026-04-26T06:21:40.998Z</time></trkpt><trkpt lat="40.93696129406441" lon="9.498105126703333"><ele>10.0</ele><time>2026-04-26T06:21:41.998Z</time></trkpt><trkpt lat="40.93706661891236" lon="9.498085444153912"><ele>10.2</ele><time>2026-04-26T06:21:42.998Z</time></trkpt><trkpt lat="40.93717242136288" lon="9.498070030503612"><ele>10.4</ele><time>2026-04-26T06:21:43.998Z</time></trkpt><trkpt lat="40.937271212099375" lon="9.498054365918435"><ele>10.600000000000001</ele><time>2026-04-26T06:21:44.998Z</time></trkpt><trkpt lat="40.93736323701788" lon="9.498033361154059"><ele>10.8</ele><time>2026-04-26T06:21:45.998Z</time></trkpt><trkpt lat="40.93745284151861" lon="9.498017983612284"><ele>11.0</ele><time>2026-04-26T06:21:46.998Z</time></trkpt><trkpt lat="40.93754173814714" lon="9.498000113676516"><ele>11.200000000000001</ele><time>2026-04-26T06:21:47.998Z</time></trkpt><trkpt lat="40.9376348945674" lon="9.497987510218072"><ele>11.4</ele><time>2026-04-26T06:21:48.998Z</time></trkpt><trkpt lat="40.93772593668076" lon="9.497972584698887"><ele>11.6</ele><time>2026-04-26T06:21:49.998Z</time></trkpt><trkpt lat="40.93781584792809" lon="9.497954843779937"><ele>11.8</ele><time>2026-04-26T06:21:50.998Z</time></trkpt><trkpt lat="40.937909373080316" lon="9.49793524693807"><ele>12.0</ele><time>2026-04-26T06:21:51.998Z</time></trkpt><trkpt lat="40.937997929803174" lon="9.497930487327665"><ele>11.999999999999998</ele><time>2026-04-26T06:21:52.998Z</time></trkpt><trkpt lat="40.93807519335428" lon="9.497938023344174"><ele>12.0</ele><time>2026-04-26T06:21:53.998Z</time></trkpt><trkpt lat="40.938150122633274" lon="9.49793922876706"><ele>12.0</ele><time>2026-04-26T06:21:54.998Z</time></trkpt><trkpt lat="40.938221066711186" lon="9.49795511227618"><ele>12.0</ele><time>2026-04-26T06:21:55.998Z</time></trkpt><trkpt lat="40.938290415172204" lon="9.497959254994306"><ele>12.0</ele><time>2026-04-26T06:21:56.998Z</time></trkpt><trkpt lat="40.9383626813582" lon="9.497967939877777"><ele>11.999999999999998</ele><time>2026-04-26T06:21:57.998Z</time></trkpt><trkpt lat="40.93843410299262" lon="9.497974941323655"><ele>12.0</ele><time>2026-04-26T06:21:58.998Z</time></trkpt><trkpt lat="40.93850348148531" lon="9.497980086651651"><ele>12.142857142857142</ele><time>2026-04-26T06:21:59.998Z</time></trkpt><trkpt lat="40.93857548954787" lon="9.497989234206722"><ele>12.285714285714285</ele><time>2026-04-26T06:22:00.998Z</time></trkpt><trkpt lat="40.938642247963905" lon="9.497994995142816"><ele>12.428571428571427</ele><time>2026-04-26T06:22:01.998Z</time></trkpt><trkpt lat="40.93871063760367" lon="9.49800183061472"><ele>12.571428571428571</ele><time>2026-04-26T06:22:02.998Z</time></trkpt><trkpt lat="40.93878084919629" lon="9.498008393213652"><ele>12.714285714285715</ele><time>2026-04-26T06:22:03.998Z</time></trkpt><trkpt lat="40.93885715590562" lon="9.49800890823871"><ele>12.857142857142856</ele><time>2026-04-26T06:22:04.998Z</time></trkpt><trkpt lat="40.93893732757525" lon="9.498009991857042"><ele>13.0</ele><time>2026-04-26T06:22:05.998Z</time></trkpt><trkpt lat="40.939017314587495" lon="9.498015841210547"><ele>12.999999999999998</ele><time>2026-04-26T06:22:06.998Z</time></trkpt><trkpt lat="40.939098128953894" lon="9.498025211198831"><ele>13.0</ele><time>2026-04-26T06:22:07.998Z</time></trkpt><trkpt lat="40.939183350832096" lon="9.498040129997966"><ele>13.0</ele><time>2026-04-26T06:22:08.998Z</time></trkpt><trkpt lat="40.93926936934411" lon="9.498054005291518"><ele>13.0</ele><time>2026-04-26T06:22:09.999Z</time></trkpt><trkpt lat="40.93936055448653" lon="9.498074156785034"><ele>12.999999999999998</ele><time>2026-04-26T06:22:10.998Z</time></trkpt><trkpt lat="40.93944818498453" lon="9.498081940103779"><ele>13.0</ele><time>2026-04-26T06:22:11.998Z</time></trkpt><trkpt lat="40.93954794083225" lon="9.498093986862196"><ele>13.4</ele><time>2026-04-26T06:22:12.999Z</time></trkpt><trkpt lat="40.93964261303776" lon="9.498117296386352"><ele>13.8</ele><time>2026-04-26T06:22:13.999Z</time></trkpt><trkpt lat="40.93973572205972" lon="9.498129889674598"><ele>14.2</ele><time>2026-04-26T06:22:14.999Z</time></trkpt><trkpt lat="40.93982967243563" lon="9.498149001737115"><ele>14.6</ele><time>2026-04-26T06:22:15.999Z</time></trkpt><trkpt lat="40.939922501026096" lon="9.498162667557011"><ele>15.0</ele><time>2026-04-26T06:22:16.999Z</time></trkpt><trkpt lat="40.940010991767785" lon="9.498178017161608"><ele>16.5</ele><time>2026-04-26T06:22:17.999Z</time></trkpt><trkpt lat="40.940096670657745" lon="9.498201271004216"><ele>18.0</ele><time>2026-04-26T06:22:18.999Z</time></trkpt><trkpt lat="40.940180608747575" lon="9.498223661764753"><ele>19.5</ele><time>2026-04-26T06:22:19.999Z</time></trkpt><trkpt lat="40.94025438961286" lon="9.498241212155985"><ele>21.0</ele><time>2026-04-26T06:22:20.999Z</time></trkpt><trkpt lat="40.940325272635896" lon="9.498257539648005"><ele>22.5</ele><time>2026-04-26T06:22:21.999Z</time></trkpt><trkpt lat="40.94040012351169" lon="9.49826335372535"><ele>24.0</ele><time>2026-04-26T06:22:22.999Z</time></trkpt><trkpt lat="40.940482990780815" lon="9.498271433256008"><ele>24.0</ele><time>2026-04-26T06:22:23.999Z</time></trkpt><trkpt lat="40.94055913208004" lon="9.49828168583658"><ele>24.0</ele><time>2026-04-26T06:22:24.999Z</time></trkpt><trkpt lat="40.94063408596084" lon="9.498291604366429"><ele>24.0</ele><time>2026-04-26T06:22:25.999Z</time></trkpt><trkpt lat="40.94071023814467" lon="9.498307535628316"><ele>24.0</ele><time>2026-04-26T06:22:26.999Z</time></trkpt><trkpt lat="40.94078664177722" lon="9.498327245913343"><ele>24.0</ele><time>2026-04-26T06:22:27.999Z</time></trkpt><trkpt lat="40.940865643789294" lon="9.49835611073156"><ele>24.0</ele><time>2026-04-26T06:22:28.999Z</time></trkpt><trkpt lat="40.940946738677496" lon="9.498387196824059"><ele>24.5</ele><time>2026-04-26T06:22:29.998Z</time></trkpt><trkpt lat="40.94102247355514" lon="9.49840571122149"><ele>25.0</ele><time>2026-04-26T06:22:30.998Z</time></trkpt><trkpt lat="40.94109787331716" lon="9.498426188943927"><ele>25.5</ele><time>2026-04-26T06:22:31.998Z</time></trkpt><trkpt lat="40.94116206093969" lon="9.498446579204263"><ele>26.0</ele><time>2026-04-26T06:22:32.998Z</time></trkpt><trkpt lat="40.94127023692708" lon="9.498440764674283"><ele>26.5</ele><time>2026-04-26T06:22:34.998Z</time></trkpt><trkpt lat="40.94137846581637" lon="9.498440779539203"><ele>27.0</ele><time>2026-04-26T06:22:36.998Z</time></trkpt><trkpt lat="40.94144735009596" lon="9.498449446998825"><ele>27.0</ele><time>2026-04-26T06:22:37.998Z</time></trkpt><trkpt lat="40.94151119931434" lon="9.498460146074674"><ele>27.0</ele><time>2026-04-26T06:22:38.998Z</time></trkpt><trkpt lat="40.94157819225936" lon="9.498474433880117"><ele>27.0</ele><time>2026-04-26T06:22:39.998Z</time></trkpt><trkpt lat="40.9416435344987" lon="9.498490364403217"><ele>27.0</ele><time>2026-04-26T06:22:40.998Z</time></trkpt><trkpt lat="40.94171283314098" lon="9.4984972413524"><ele>27.0</ele><time>2026-04-26T06:22:41.998Z</time></trkpt><trkpt lat="40.94177776307042" lon="9.498507755292788"><ele>27.0</ele><time>2026-04-26T06:22:42.998Z</time></trkpt><trkpt lat="40.941843556443494" lon="9.498517685535397"><ele>27.0</ele><time>2026-04-26T06:22:43.998Z</time></trkpt><trkpt lat="40.94191055326475" lon="9.498519273871914"><ele>27.0</ele><time>2026-04-26T06:22:44.998Z</time></trkpt><trkpt lat="40.94197907726652" lon="9.498523685921908"><ele>27.0</ele><time>2026-04-26T06:22:45.998Z</time></trkpt><trkpt lat="40.94205051007484" lon="9.498528218285358"><ele>27.0</ele><time>2026-04-26T06:22:46.998Z</time></trkpt><trkpt lat="40.942126625631445" lon="9.498535879754726"><ele>27.0</ele><time>2026-04-26T06:22:47.998Z</time></trkpt><trkpt lat="40.942199648051464" lon="9.498533426422137"><ele>27.0</ele><time>2026-04-26T06:22:48.998Z</time></trkpt><trkpt lat="40.94228355279808" lon="9.498532989236896"><ele>27.0</ele><time>2026-04-26T06:22:49.998Z</time></trkpt><trkpt lat="40.9423640687356" lon="9.49852951979355"><ele>27.0</ele><time>2026-04-26T06:22:50.998Z</time></trkpt><trkpt lat="40.94243173924101" lon="9.498518977719854"><ele>27.0</ele><time>2026-04-26T06:22:51.998Z</time></trkpt><trkpt lat="40.942545357222336" lon="9.498511993233345"><ele>27.0</ele><time>2026-04-26T06:22:53.998Z</time></trkpt><trkpt lat="40.94263311268215" lon="9.498508540987826"><ele>27.0</ele><time>2026-04-26T06:22:55.998Z</time></trkpt><trkpt lat="40.94269720593621" lon="9.498522279187636"><ele>27.0</ele><time>2026-04-26T06:22:59.998Z</time></trkpt><trkpt lat="40.94279302330567" lon="9.49851118927496"><ele>27.0</ele><time>2026-04-26T06:23:08.998Z</time></trkpt><trkpt lat="40.94291008874226" lon="9.498485661818837"><ele>27.0</ele><time>2026-04-26T06:23:10.998Z</time></trkpt><trkpt lat="40.94297740536241" lon="9.498462529131066"><ele>27.0</ele><time>2026-04-26T06:23:11.998Z</time></trkpt><trkpt lat="40.94304730997692" lon="9.498438180845357"><ele>27.0</ele><time>2026-04-26T06:23:12.998Z</time></trkpt><trkpt lat="40.943113779696496" lon="9.498412054180001"><ele>27.0</ele><time>2026-04-26T06:23:13.998Z</time></trkpt><trkpt lat="40.94323323008575" lon="9.498374477187973"><ele>27.0</ele><time>2026-04-26T06:23:15.998Z</time></trkpt><trkpt lat="40.94332379209968" lon="9.498340942771135"><ele>27.0</ele><time>2026-04-26T06:23:17.998Z</time></trkpt><trkpt lat="40.9434156099162" lon="9.498323254425173"><ele>27.0</ele><time>2026-04-26T06:23:19.998Z</time></trkpt><trkpt lat="40.94349452060297" lon="9.498309556569353"><ele>27.0</ele><time>2026-04-26T06:23:21.998Z</time></trkpt><trkpt lat="40.94357158405196" lon="9.498344537598863"><ele>27.0</ele><time>2026-04-26T06:23:25.998Z</time></trkpt><trkpt lat="40.94363329813561" lon="9.49831958955923"><ele>27.0</ele><time>2026-04-26T06:23:29.998Z</time></trkpt><trkpt lat="40.943714842718634" lon="9.498301501836746"><ele>27.0</ele><time>2026-04-26T06:23:33.997Z</time></trkpt><trkpt lat="40.94380929082242" lon="9.498298531656303"><ele>27.0</ele><time>2026-04-26T06:24:35.999Z</time></trkpt><trkpt lat="40.943872587150764" lon="9.498287965864309"><ele>27.0</ele><time>2026-04-26T06:24:37.999Z</time></trkpt><trkpt lat="40.94399933185081" lon="9.498276168010069"><ele>27.000000000000004</ele><time>2026-04-26T06:24:39.999Z</time></trkpt><trkpt lat="40.94407528266457" lon="9.498270284191644"><ele>27.000000000000004</ele><time>2026-04-26T06:24:40.999Z</time></trkpt><trkpt lat="40.9441541245087" lon="9.49826508634223"><ele>27.0</ele><time>2026-04-26T06:24:41.999Z</time></trkpt><trkpt lat="40.94424382579652" lon="9.498262320640908"><ele>27.0</ele><time>2026-04-26T06:24:42.999Z</time></trkpt><trkpt lat="40.944337552384205" lon="9.498256441942788"><ele>27.0</ele><time>2026-04-26T06:24:43.999Z</time></trkpt><trkpt lat="40.94442970518945" lon="9.49824932496787"><ele>27.000000000000004</ele><time>2026-04-26T06:24:44.999Z</time></trkpt><trkpt lat="40.94452401239505" lon="9.498244891148163"><ele>27.000000000000004</ele><time>2026-04-26T06:24:45.999Z</time></trkpt><trkpt lat="40.94462833254626" lon="9.49823759872383"><ele>27.0</ele><time>2026-04-26T06:24:46.999Z</time></trkpt><trkpt lat="40.94473935267821" lon="9.498227474929367"><ele>27.0</ele><time>2026-04-26T06:24:47.999Z</time></trkpt><trkpt lat="40.9448560460982" lon="9.498220860575723"><ele>27.0</ele><time>2026-04-26T06:24:48.998Z</time></trkpt><trkpt lat="40.94497467709567" lon="9.498214737307688"><ele>27.0</ele><time>2026-04-26T06:24:49.998Z</time></trkpt><trkpt lat="40.945096314484395" lon="9.498207018473666"><ele>27.0</ele><time>2026-04-26T06:24:50.998Z</time></trkpt><trkpt lat="40.945216573132484" lon="9.49819582745279"><ele>27.0</ele><time>2026-04-26T06:24:51.998Z</time></trkpt><trkpt lat="40.94533976262903" lon="9.498185965552269"><ele>27.25</ele><time>2026-04-26T06:24:52.998Z</time></trkpt><trkpt lat="40.94547147068215" lon="9.498178901770775"><ele>27.5</ele><time>2026-04-26T06:24:53.998Z</time></trkpt><trkpt lat="40.945601839548324" lon="9.498175768917807"><ele>27.75</ele><time>2026-04-26T06:24:54.998Z</time></trkpt><trkpt lat="40.94573545011916" lon="9.498167306862179"><ele>28.0</ele><time>2026-04-26T06:24:55.998Z</time></trkpt><trkpt lat="40.945875351133274" lon="9.498157303780008"><ele>28.75</ele><time>2026-04-26T06:24:56.998Z</time></trkpt><trkpt lat="40.946014394637444" lon="9.49814803798305"><ele>29.5</ele><time>2026-04-26T06:24:57.998Z</time></trkpt><trkpt lat="40.94615886978218" lon="9.498135393923983"><ele>30.25</ele><time>2026-04-26T06:24:58.998Z</time></trkpt><trkpt lat="40.946290761895256" lon="9.498116214489706"><ele>31.0</ele><time>2026-04-26T06:24:59.998Z</time></trkpt><trkpt lat="40.94641713716591" lon="9.498090947295074"><ele>31.0</ele><time>2026-04-26T06:25:00.998Z</time></trkpt><trkpt lat="40.94653370313913" lon="9.49806765137949"><ele>31.0</ele><time>2026-04-26T06:25:01.998Z</time></trkpt><trkpt lat="40.94664161497449" lon="9.498042295402273"><ele>31.0</ele><time>2026-04-26T06:25:02.998Z</time></trkpt><trkpt lat="40.94674699872736" lon="9.498029885456475"><ele>31.0</ele><time>2026-04-26T06:25:03.998Z</time></trkpt><trkpt lat="40.94684262078489" lon="9.498008247204632"><ele>31.0</ele><time>2026-04-26T06:25:04.998Z</time></trkpt><trkpt lat="40.94695102955615" lon="9.497989293204263"><ele>31.75</ele><time>2026-04-26T06:25:05.998Z</time></trkpt><trkpt lat="40.947062598222644" lon="9.497976407364046"><ele>32.5</ele><time>2026-04-26T06:25:06.998Z</time></trkpt><trkpt lat="40.947173132808636" lon="9.497956377356873"><ele>33.25</ele><time>2026-04-26T06:25:07.998Z</time></trkpt><trkpt lat="40.947287400578524" lon="9.49793794874959"><ele>34.0</ele><time>2026-04-26T06:25:08.998Z</time></trkpt><trkpt lat="40.9474053942461" lon="9.497922505247049"><ele>34.0</ele><time>2026-04-26T06:25:09.998Z</time></trkpt><trkpt lat="40.94752511750727" lon="9.49791287869296"><ele>34.0</ele><time>2026-04-26T06:25:10.998Z</time></trkpt><trkpt lat="40.9476508957988" lon="9.497906430606498"><ele>34.0</ele><time>2026-04-26T06:25:11.998Z</time></trkpt><trkpt lat="40.94777835555603" lon="9.49790547830929"><ele>34.0</ele><time>2026-04-26T06:25:12.998Z</time></trkpt><trkpt lat="40.94790407919978" lon="9.497924174801053"><ele>34.0</ele><time>2026-04-26T06:25:13.998Z</time></trkpt><trkpt lat="40.948029315929574" lon="9.49795334707547"><ele>34.0</ele><time>2026-04-26T06:25:14.998Z</time></trkpt><trkpt lat="40.94815436988438" lon="9.497991419437973"><ele>34.0</ele><time>2026-04-26T06:25:15.998Z</time></trkpt><trkpt lat="40.948282059461036" lon="9.498042936847677"><ele>34.0</ele><time>2026-04-26T06:25:16.998Z</time></trkpt><trkpt lat="40.94840228102115" lon="9.498106603744091"><ele>34.5</ele><time>2026-04-26T06:25:17.998Z</time></trkpt><trkpt lat="40.948536307716566" lon="9.498170007852385"><ele>35.0</ele><time>2026-04-26T06:25:18.998Z</time></trkpt><trkpt lat="40.94866428967354" lon="9.498230048196358"><ele>35.5</ele><time>2026-04-26T06:25:19.998Z</time></trkpt><trkpt lat="40.94879537646545" lon="9.498279522749625"><ele>36.0</ele><time>2026-04-26T06:25:20.998Z</time></trkpt><trkpt lat="40.94892738521465" lon="9.49831596388484"><ele>36.0</ele><time>2026-04-26T06:25:21.998Z</time></trkpt><trkpt lat="40.94906499004382" lon="9.498330569839785"><ele>36.0</ele><time>2026-04-26T06:25:22.998Z</time></trkpt><trkpt lat="40.94920512544357" lon="9.498363946476045"><ele>36.0</ele><time>2026-04-26T06:25:23.998Z</time></trkpt><trkpt lat="40.9493489643326" lon="9.498385137557902"><ele>36.0</ele><time>2026-04-26T06:25:24.998Z</time></trkpt><trkpt lat="40.94949185678966" lon="9.498408122221552"><ele>36.5</ele><time>2026-04-26T06:25:25.998Z</time></trkpt><trkpt lat="40.949631043664425" lon="9.498438502966874"><ele>37.0</ele><time>2026-04-26T06:25:26.998Z</time></trkpt><trkpt lat="40.9497719135365" lon="9.49845866406073"><ele>37.5</ele><time>2026-04-26T06:25:27.998Z</time></trkpt><trkpt lat="40.94990941321074" lon="9.498477543365253"><ele>38.0</ele><time>2026-04-26T06:25:28.998Z</time></trkpt><trkpt lat="40.95003934083128" lon="9.498496246667568"><ele>39.0</ele><time>2026-04-26T06:25:29.998Z</time></trkpt><trkpt lat="40.95016551159836" lon="9.498510100097453"><ele>40.0</ele><time>2026-04-26T06:25:30.998Z</time></trkpt><trkpt lat="40.95029225614016" lon="9.498503274666861"><ele>41.0</ele><time>2026-04-26T06:25:31.998Z</time></trkpt><trkpt lat="40.95041036589597" lon="9.498499677561867"><ele>42.0</ele><time>2026-04-26T06:25:32.998Z</time></trkpt><trkpt lat="40.95051837501551" lon="9.498488189508038"><ele>42.0</ele><time>2026-04-26T06:25:33.998Z</time></trkpt><trkpt lat="40.950606957885725" lon="9.498481622383968"><ele>42.0</ele><time>2026-04-26T06:25:34.998Z</time></trkpt><trkpt lat="40.95068188304724" lon="9.498477488862557"><ele>42.0</ele><time>2026-04-26T06:25:35.998Z</time></trkpt><trkpt lat="40.95076696555372" lon="9.498437278895516"><ele>42.0</ele><time>2026-04-26T06:25:37.998Z</time></trkpt><trkpt lat="40.95070756551402" lon="9.49836029589348"><ele>42.0</ele><time>2026-04-26T06:25:40.998Z</time></trkpt><trkpt lat="40.950645989239405" lon="9.498384762251117"><ele>42.0</ele><time>2026-04-26T06:25:41.998Z</time></trkpt><trkpt lat="40.950573690134725" lon="9.498414417141875"><ele>42.0</ele><time>2026-04-26T06:25:42.998Z</time></trkpt><trkpt lat="40.950491703021676" lon="9.498416499981285"><ele>42.0</ele><time>2026-04-26T06:25:43.998Z</time></trkpt><trkpt lat="40.950411728112" lon="9.498426572955827"><ele>42.0</ele><time>2026-04-26T06:25:44.998Z</time></trkpt><trkpt lat="40.95034502479857" lon="9.498432938785733"><ele>42.0</ele><time>2026-04-26T06:25:45.998Z</time></trkpt><trkpt lat="40.950230025954" lon="9.498450426778112"><ele>42.0</ele><time>2026-04-26T06:25:47.998Z</time></trkpt><trkpt lat="40.950159029391244" lon="9.498456023718665"><ele>42.0</ele><time>2026-04-26T06:25:48.998Z</time></trkpt><trkpt lat="40.95008013457588" lon="9.498451736087176"><ele>41.333333333333336</ele><time>2026-04-26T06:25:49.998Z</time></trkpt><trkpt lat="40.94999821769729" lon="9.498444858934318"><ele>40.666666666666664</ele><time>2026-04-26T06:25:50.998Z</time></trkpt><trkpt lat="40.949911489589624" lon="9.49842670036213"><ele>40.0</ele><time>2026-04-26T06:25:51.998Z</time></trkpt><trkpt lat="40.949830417615374" lon="9.498412414156402"><ele>39.33333333333333</ele><time>2026-04-26T06:25:52.997Z</time></trkpt><trkpt lat="40.94975526951564" lon="9.498394168022646"><ele>38.666666666666664</ele><time>2026-04-26T06:25:53.997Z</time></trkpt><trkpt lat="40.94969144821135" lon="9.498380307865748"><ele>38.0</ele><time>2026-04-26T06:25:54.997Z</time></trkpt><trkpt lat="40.94962449281257" lon="9.498349025027416"><ele>38.0</ele><time>2026-04-26T06:25:56.997Z</time></trkpt><trkpt lat="40.949684549054666" lon="9.49825420594574"><ele>38.0</ele><time>2026-04-26T06:26:00.997Z</time></trkpt><trkpt lat="40.949760412286764" lon="9.49828494458009"><ele>38.0</ele><time>2026-04-26T06:26:03.997Z</time></trkpt><trkpt lat="40.94983598843331" lon="9.498311160200423"><ele>38.0</ele><time>2026-04-26T06:26:07.997Z</time></trkpt></trkseg><trkseg><trkpt lat="40.949933125490155" lon="9.498310136295567"><ele>38.0</ele><time>2026-04-26T06:52:11.995Z</time></trkpt><trkpt lat="40.95002977091278" lon="9.49829716431356"><ele>38.0</ele><time>2026-04-26T06:52:13.995Z</time></trkpt><trkpt lat="40.95014014602545" lon="9.498300045155394"><ele>38.0</ele><time>2026-04-26T06:52:15.995Z</time></trkpt><trkpt lat="40.950217902123505" lon="9.498324529355692"><ele>38.0</ele><time>2026-04-26T06:52:20.995Z</time></trkpt><trkpt lat="40.95026397025442" lon="9.498392212034737"><ele>38.0</ele><time>2026-04-26T06:52:24.995Z</time></trkpt><trkpt lat="40.95034226015057" lon="9.49844977686645"><ele>38.0</ele><time>2026-04-26T06:52:27.995Z</time></trkpt><trkpt lat="40.95040564467758" lon="9.498440000142505"><ele>38.57142857142857</ele><time>2026-04-26T06:52:28.995Z</time></trkpt><trkpt lat="40.95047378598286" lon="9.498434358042449"><ele>39.142857142857146</ele><time>2026-04-26T06:52:29.995Z</time></trkpt><trkpt lat="40.950548814024195" lon="9.498425846500748"><ele>39.714285714285715</ele><time>2026-04-26T06:52:30.995Z</time></trkpt><trkpt lat="40.95062115469227" lon="9.498418581705657"><ele>40.285714285714285</ele><time>2026-04-26T06:52:31.995Z</time></trkpt><trkpt lat="40.95070009094822" lon="9.498413330643196"><ele>40.85714285714286</ele><time>2026-04-26T06:52:32.995Z</time></trkpt><trkpt lat="40.95077987061738" lon="9.498407294006304"><ele>41.42857142857143</ele><time>2026-04-26T06:52:33.995Z</time></trkpt><trkpt lat="40.95085029578202" lon="9.49839898844627"><ele>42.0</ele><time>2026-04-26T06:52:34.995Z</time></trkpt><trkpt lat="40.95091414421403" lon="9.498389630653056"><ele>42.333333333333336</ele><time>2026-04-26T06:52:35.995Z</time></trkpt><trkpt lat="40.95103310062286" lon="9.498385410814164"><ele>42.666666666666664</ele><time>2026-04-26T06:52:37.995Z</time></trkpt><trkpt lat="40.95109884276091" lon="9.498381426505171"><ele>43.0</ele><time>2026-04-26T06:52:38.995Z</time></trkpt><trkpt lat="40.951167223966394" lon="9.498375901320228"><ele>43.33333333333333</ele><time>2026-04-26T06:52:39.995Z</time></trkpt><trkpt lat="40.95123598218026" lon="9.498373736695754"><ele>43.666666666666664</ele><time>2026-04-26T06:52:40.995Z</time></trkpt><trkpt lat="40.95130567286615" lon="9.498365562579222"><ele>44.0</ele><time>2026-04-26T06:52:41.995Z</time></trkpt><trkpt lat="40.95137527194139" lon="9.498359415037585"><ele>44.0</ele><time>2026-04-26T06:52:42.995Z</time></trkpt><trkpt lat="40.95144573048839" lon="9.498357168009603"><ele>44.0</ele><time>2026-04-26T06:52:43.995Z</time></trkpt><trkpt lat="40.9515098981113" lon="9.498358628130212"><ele>44.0</ele><time>2026-04-26T06:52:44.995Z</time></trkpt><trkpt lat="40.951628404538596" lon="9.498338646086154"><ele>44.0</ele><time>2026-04-26T06:52:46.994Z</time></trkpt><trkpt lat="40.95169724849996" lon="9.498326028284577"><ele>44.0</ele><time>2026-04-26T06:52:47.994Z</time></trkpt><trkpt lat="40.95179088541417" lon="9.498325576993066"><ele>44.0</ele><time>2026-04-26T06:52:48.994Z</time></trkpt><trkpt lat="40.95187538282122" lon="9.498322884350113"><ele>44.0</ele><time>2026-04-26T06:52:49.994Z</time></trkpt><trkpt lat="40.95197203652022" lon="9.498305211494946"><ele>44.0</ele><time>2026-04-26T06:52:50.994Z</time></trkpt><trkpt lat="40.952078089350984" lon="9.49829182529366"><ele>44.0</ele><time>2026-04-26T06:52:51.994Z</time></trkpt><trkpt lat="40.95219445630456" lon="9.49826939714997"><ele>44.0</ele><time>2026-04-26T06:52:52.994Z</time></trkpt><trkpt lat="40.95230851060378" lon="9.498245333277795"><ele>44.0</ele><time>2026-04-26T06:52:53.994Z</time></trkpt><trkpt lat="40.952424863764" lon="9.498210333804986"><ele>44.75</ele><time>2026-04-26T06:52:54.994Z</time></trkpt><trkpt lat="40.952540680322834" lon="9.498171032476217"><ele>45.5</ele><time>2026-04-26T06:52:55.994Z</time></trkpt><trkpt lat="40.95265866188784" lon="9.498116576764053"><ele>46.25</ele><time>2026-04-26T06:52:56.994Z</time></trkpt><trkpt lat="40.95277346314389" lon="9.498052444818383"><ele>47.0</ele><time>2026-04-26T06:52:57.994Z</time></trkpt><trkpt lat="40.95289098907747" lon="9.49798405570525"><ele>47.75</ele><time>2026-04-26T06:52:58.994Z</time></trkpt><trkpt lat="40.95300063077526" lon="9.497903287736483"><ele>48.5</ele><time>2026-04-26T06:52:59.994Z</time></trkpt><trkpt lat="40.95310704580899" lon="9.497816528679994"><ele>49.25</ele><time>2026-04-26T06:53:00.994Z</time></trkpt><trkpt lat="40.95321063787718" lon="9.497725054238476"><ele>50.0</ele><time>2026-04-26T06:53:01.994Z</time></trkpt><trkpt lat="40.95330787350907" lon="9.497627267293032"><ele>50.75</ele><time>2026-04-26T06:53:02.994Z</time></trkpt><trkpt lat="40.95340680029891" lon="9.497530560507291"><ele>51.5</ele><time>2026-04-26T06:53:03.994Z</time></trkpt><trkpt lat="40.95351116895366" lon="9.49743706945346"><ele>52.25</ele><time>2026-04-26T06:53:04.994Z</time></trkpt><trkpt lat="40.953613270758304" lon="9.497342854355232"><ele>53.0</ele><time>2026-04-26T06:53:05.994Z</time></trkpt><trkpt lat="40.95370976682956" lon="9.497250227171746"><ele>53.00000000000001</ele><time>2026-04-26T06:53:06.994Z</time></trkpt><trkpt lat="40.953795766733826" lon="9.497163785976367"><ele>53.0</ele><time>2026-04-26T06:53:07.994Z</time></trkpt><trkpt lat="40.9538680121876" lon="9.497092792085846"><ele>53.0</ele><time>2026-04-26T06:53:08.994Z</time></trkpt><trkpt lat="40.95393435206061" lon="9.497028729044933"><ele>53.0</ele><time>2026-04-26T06:53:09.994Z</time></trkpt><trkpt lat="40.95399774400291" lon="9.496960294695215"><ele>53.00000000000001</ele><time>2026-04-26T06:53:10.994Z</time></trkpt><trkpt lat="40.95406618785321" lon="9.496892763177007"><ele>53.0</ele><time>2026-04-26T06:53:11.994Z</time></trkpt><trkpt lat="40.95414025300905" lon="9.496826090918292"><ele>53.599999999999994</ele><time>2026-04-26T06:53:12.994Z</time></trkpt><trkpt lat="40.95421335738037" lon="9.496759065100868"><ele>54.199999999999996</ele><time>2026-04-26T06:53:13.994Z</time></trkpt><trkpt lat="40.95429028170208" lon="9.496693932612393"><ele>54.8</ele><time>2026-04-26T06:53:14.994Z</time></trkpt><trkpt lat="40.95437092302664" lon="9.496629930931164"><ele>55.4</ele><time>2026-04-26T06:53:15.994Z</time></trkpt><trkpt lat="40.95445918678232" lon="9.496564629555536"><ele>56.0</ele><time>2026-04-26T06:53:16.994Z</time></trkpt><trkpt lat="40.95454584366509" lon="9.496497927584763"><ele>56.00000000000001</ele><time>2026-04-26T06:53:17.994Z</time></trkpt><trkpt lat="40.954624774167605" lon="9.496434806432866"><ele>56.0</ele><time>2026-04-26T06:53:18.994Z</time></trkpt><trkpt lat="40.95469729228067" lon="9.496373448511553"><ele>56.0</ele><time>2026-04-26T06:53:19.994Z</time></trkpt><trkpt lat="40.954771924096256" lon="9.496322189209549"><ele>56.0</ele><time>2026-04-26T06:53:20.994Z</time></trkpt><trkpt lat="40.95484225009818" lon="9.496269604646324"><ele>56.00000000000001</ele><time>2026-04-26T06:53:21.994Z</time></trkpt><trkpt lat="40.954917896896625" lon="9.496211701061137"><ele>56.0</ele><time>2026-04-26T06:53:22.994Z</time></trkpt><trkpt lat="40.95500830584437" lon="9.49615192512433"><ele>54.8</ele><time>2026-04-26T06:53:23.994Z</time></trkpt><trkpt lat="40.95510289518513" lon="9.496089381775553"><ele>53.599999999999994</ele><time>2026-04-26T06:53:24.994Z</time></trkpt><trkpt lat="40.95519372370304" lon="9.496019542115775"><ele>52.4</ele><time>2026-04-26T06:53:25.994Z</time></trkpt><trkpt lat="40.95529606740594" lon="9.49594871387712"><ele>51.2</ele><time>2026-04-26T06:53:26.994Z</time></trkpt><trkpt lat="40.955397273533976" lon="9.495883084371284"><ele>50.0</ele><time>2026-04-26T06:53:27.994Z</time></trkpt><trkpt lat="40.95550740975597" lon="9.49582835552127"><ele>50.0</ele><time>2026-04-26T06:53:28.994Z</time></trkpt><trkpt lat="40.955622269970675" lon="9.495805303137727"><ele>50.0</ele><time>2026-04-26T06:53:29.994Z</time></trkpt><trkpt lat="40.95574022487113" lon="9.495819093619616"><ele>50.0</ele><time>2026-04-26T06:53:30.994Z</time></trkpt><trkpt lat="40.95585539153654" lon="9.49584604216107"><ele>50.0</ele><time>2026-04-26T06:53:31.994Z</time></trkpt><trkpt lat="40.95597156736776" lon="9.495836369647076"><ele>49.75</ele><time>2026-04-26T06:53:32.994Z</time></trkpt><trkpt lat="40.956084589939536" lon="9.495787601503624"><ele>49.5</ele><time>2026-04-26T06:53:33.994Z</time></trkpt><trkpt lat="40.95618584488339" lon="9.495703712731535"><ele>49.25</ele><time>2026-04-26T06:53:34.994Z</time></trkpt><trkpt lat="40.95627775491587" lon="9.495605328626505"><ele>49.0</ele><time>2026-04-26T06:53:35.994Z</time></trkpt><trkpt lat="40.95637640550245" lon="9.495520359186612"><ele>49.0</ele><time>2026-04-26T06:53:36.994Z</time></trkpt><trkpt lat="40.95648893244528" lon="9.49545655705506"><ele>49.0</ele><time>2026-04-26T06:53:37.994Z</time></trkpt><trkpt lat="40.95661235737305" lon="9.495410610224527"><ele>49.0</ele><time>2026-04-26T06:53:38.994Z</time></trkpt><trkpt lat="40.95673890245395" lon="9.495373087031204"><ele>49.0</ele><time>2026-04-26T06:53:39.994Z</time></trkpt><trkpt lat="40.956870666612105" lon="9.495333417914855"><ele>48.5</ele><time>2026-04-26T06:53:40.994Z</time></trkpt><trkpt lat="40.95700473429208" lon="9.495290786655612"><ele>48.0</ele><time>2026-04-26T06:53:41.994Z</time></trkpt><trkpt lat="40.95713791404448" lon="9.49524212620199"><ele>47.5</ele><time>2026-04-26T06:53:42.995Z</time></trkpt><trkpt lat="40.95727295473295" lon="9.495191704793145"><ele>47.0</ele><time>2026-04-26T06:53:43.994Z</time></trkpt><trkpt lat="40.957409467842645" lon="9.495130762838874"><ele>47.666666666666664</ele><time>2026-04-26T06:53:44.994Z</time></trkpt><trkpt lat="40.95754923888887" lon="9.495059975035405"><ele>48.33333333333333</ele><time>2026-04-26T06:53:45.994Z</time></trkpt><trkpt lat="40.95768585764938" lon="9.494974439601698"><ele>49.0</ele><time>2026-04-26T06:53:46.994Z</time></trkpt><trkpt lat="40.95782279658241" lon="9.49488079565325"><ele>49.0</ele><time>2026-04-26T06:53:47.994Z</time></trkpt><trkpt lat="40.95796087390688" lon="9.49477666548141"><ele>49.0</ele><time>2026-04-26T06:53:48.995Z</time></trkpt><trkpt lat="40.95809413324846" lon="9.494671542248557"><ele>49.0</ele><time>2026-04-26T06:53:49.994Z</time></trkpt><trkpt lat="40.9582186178945" lon="9.494567353791295"><ele>49.0</ele><time>2026-04-26T06:53:50.994Z</time></trkpt><trkpt lat="40.95833690308817" lon="9.494465206474185"><ele>49.0</ele><time>2026-04-26T06:53:51.994Z</time></trkpt><trkpt lat="40.95844367928611" lon="9.494366755689747"><ele>49.0</ele><time>2026-04-26T06:53:52.994Z</time></trkpt><trkpt lat="40.95854769573351" lon="9.494273364867531"><ele>49.0</ele><time>2026-04-26T06:53:53.994Z</time></trkpt><trkpt lat="40.95864643940316" lon="9.494187675194278"><ele>48.800000000000004</ele><time>2026-04-26T06:53:54.994Z</time></trkpt><trkpt lat="40.95874435277172" lon="9.49411645369133"><ele>48.6</ele><time>2026-04-26T06:53:55.994Z</time></trkpt><trkpt lat="40.95883023913966" lon="9.494047479143084"><ele>48.4</ele><time>2026-04-26T06:53:56.994Z</time></trkpt><trkpt lat="40.95891311803017" lon="9.493987606584819"><ele>48.2</ele><time>2026-04-26T06:53:57.994Z</time></trkpt><trkpt lat="40.95899553552261" lon="9.493932111566911"><ele>48.0</ele><time>2026-04-26T06:53:58.994Z</time></trkpt><trkpt lat="40.95907568525956" lon="9.493888027719024"><ele>48.0</ele><time>2026-04-26T06:53:59.994Z</time></trkpt><trkpt lat="40.95916153055361" lon="9.493843206310263"><ele>48.0</ele><time>2026-04-26T06:54:00.994Z</time></trkpt><trkpt lat="40.959251909736466" lon="9.493800543717143"><ele>48.0</ele><time>2026-04-26T06:54:01.994Z</time></trkpt><trkpt lat="40.95934095975849" lon="9.493756848199173"><ele>48.0</ele><time>2026-04-26T06:54:02.994Z</time></trkpt><trkpt lat="40.95942962174073" lon="9.493722461294851"><ele>48.0</ele><time>2026-04-26T06:54:03.994Z</time></trkpt><trkpt lat="40.9595196325562" lon="9.493693618813985"><ele>48.2</ele><time>2026-04-26T06:54:04.994Z</time></trkpt><trkpt lat="40.95960896707768" lon="9.493669407867438"><ele>48.4</ele><time>2026-04-26T06:54:05.994Z</time></trkpt><trkpt lat="40.95969790140934" lon="9.493645996884883"><ele>48.6</ele><time>2026-04-26T06:54:06.994Z</time></trkpt><trkpt lat="40.959786740926965" lon="9.493621458523924"><ele>48.800000000000004</ele><time>2026-04-26T06:54:07.994Z</time></trkpt><trkpt lat="40.95987507436527" lon="9.493597660282754"><ele>49.0</ele><time>2026-04-26T06:54:08.994Z</time></trkpt><trkpt lat="40.95996518207191" lon="9.493576027139893"><ele>49.6</ele><time>2026-04-26T06:54:09.994Z</time></trkpt><trkpt lat="40.9600528680112" lon="9.49355701839979"><ele>50.2</ele><time>2026-04-26T06:54:10.994Z</time></trkpt><trkpt lat="40.96014363800022" lon="9.49356969220605"><ele>50.800000000000004</ele><time>2026-04-26T06:54:11.994Z</time></trkpt><trkpt lat="40.96023059614488" lon="9.493615895340596"><ele>51.400000000000006</ele><time>2026-04-26T06:54:12.993Z</time></trkpt><trkpt lat="40.96031531017823" lon="9.49367882602797"><ele>52.0</ele><time>2026-04-26T06:54:13.993Z</time></trkpt><trkpt lat="40.9604063362872" lon="9.493715944115896"><ele>52.0</ele><time>2026-04-26T06:54:14.993Z</time></trkpt><trkpt lat="40.960501984858304" lon="9.493717108626395"><ele>52.0</ele><time>2026-04-26T06:54:15.993Z</time></trkpt><trkpt lat="40.96059712915921" lon="9.4936853323499"><ele>52.0</ele><time>2026-04-26T06:54:16.993Z</time></trkpt><trkpt lat="40.96069136356642" lon="9.493628448140857"><ele>52.0</ele><time>2026-04-26T06:54:17.993Z</time></trkpt><trkpt lat="40.960795267056156" lon="9.49356712712872"><ele>52.0</ele><time>2026-04-26T06:54:18.993Z</time></trkpt><trkpt lat="40.96089735841305" lon="9.493523060419133"><ele>52.6</ele><time>2026-04-26T06:54:19.993Z</time></trkpt><trkpt lat="40.96100445674381" lon="9.493503459076774"><ele>53.2</ele><time>2026-04-26T06:54:20.993Z</time></trkpt><trkpt lat="40.961111658998945" lon="9.493521978252035"><ele>53.8</ele><time>2026-04-26T06:54:21.993Z</time></trkpt><trkpt lat="40.96121691799837" lon="9.493574337630314"><ele>54.4</ele><time>2026-04-26T06:54:22.993Z</time></trkpt><trkpt lat="40.961308060102276" lon="9.493661818417806"><ele>55.0</ele><time>2026-04-26T06:54:23.993Z</time></trkpt><trkpt lat="40.961388621442175" lon="9.49376224214886"><ele>55.5</ele><time>2026-04-26T06:54:24.993Z</time></trkpt><trkpt lat="40.96146167394617" lon="9.493876501121626"><ele>56.0</ele><time>2026-04-26T06:54:25.993Z</time></trkpt><trkpt lat="40.961537649477535" lon="9.493989925092716"><ele>56.5</ele><time>2026-04-26T06:54:26.993Z</time></trkpt><trkpt lat="40.96161721367922" lon="9.49409479959185"><ele>57.0</ele><time>2026-04-26T06:54:27.993Z</time></trkpt><trkpt lat="40.96170582922867" lon="9.494194753516119"><ele>58.0</ele><time>2026-04-26T06:54:28.993Z</time></trkpt><trkpt lat="40.961815039338234" lon="9.494270259971234"><ele>59.0</ele><time>2026-04-26T06:54:29.993Z</time></trkpt><trkpt lat="40.96194103593755" lon="9.494305866906688"><ele>60.0</ele><time>2026-04-26T06:54:30.993Z</time></trkpt><trkpt lat="40.96207602479143" lon="9.494299031794583"><ele>61.0</ele><time>2026-04-26T06:54:31.993Z</time></trkpt><trkpt lat="40.96220639366233" lon="9.494245994514639"><ele>61.0</ele><time>2026-04-26T06:54:32.993Z</time></trkpt><trkpt lat="40.962326933438526" lon="9.494160256540797"><ele>61.0</ele><time>2026-04-26T06:54:33.993Z</time></trkpt><trkpt lat="40.96242594201228" lon="9.494052537095131"><ele>61.0</ele><time>2026-04-26T06:54:34.993Z</time></trkpt><trkpt lat="40.962517125904306" lon="9.493927012718038"><ele>61.0</ele><time>2026-04-26T06:54:35.993Z</time></trkpt><trkpt lat="40.96261248623032" lon="9.493793049937977"><ele>62.0</ele><time>2026-04-26T06:54:36.993Z</time></trkpt><trkpt lat="40.9627100768179" lon="9.49365584892195"><ele>63.0</ele><time>2026-04-26T06:54:37.993Z</time></trkpt><trkpt lat="40.962805012327145" lon="9.493511562615728"><ele>64.0</ele><time>2026-04-26T06:54:38.993Z</time></trkpt><trkpt lat="40.96289817510697" lon="9.493355644137484"><ele>65.0</ele><time>2026-04-26T06:54:39.993Z</time></trkpt><trkpt lat="40.962985845746616" lon="9.493195217805708"><ele>65.0</ele><time>2026-04-26T06:54:40.993Z</time></trkpt><trkpt lat="40.96307279149732" lon="9.493030383968167"><ele>65.0</ele><time>2026-04-26T06:54:41.993Z</time></trkpt><trkpt lat="40.963167995794166" lon="9.492870088920148"><ele>65.0</ele><time>2026-04-26T06:54:42.993Z</time></trkpt><trkpt lat="40.96326324362259" lon="9.492702037179049"><ele>66.33333333333334</ele><time>2026-04-26T06:54:43.993Z</time></trkpt><trkpt lat="40.96336800055109" lon="9.492544776775826"><ele>67.66666666666667</ele><time>2026-04-26T06:54:44.993Z</time></trkpt><trkpt lat="40.96347625808326" lon="9.492402895027762"><ele>69.0</ele><time>2026-04-26T06:54:45.993Z</time></trkpt><trkpt lat="40.96360060859151" lon="9.492281844056453"><ele>69.0</ele><time>2026-04-26T06:54:46.993Z</time></trkpt><trkpt lat="40.963726743257624" lon="9.492165832024467"><ele>69.0</ele><time>2026-04-26T06:54:47.993Z</time></trkpt><trkpt lat="40.96385538756588" lon="9.4920466054608"><ele>69.0</ele><time>2026-04-26T06:54:48.993Z</time></trkpt><trkpt lat="40.96398900971336" lon="9.491928324361279"><ele>69.0</ele><time>2026-04-26T06:54:49.993Z</time></trkpt><trkpt lat="40.96412645871984" lon="9.491812398333458"><ele>69.0</ele><time>2026-04-26T06:54:50.993Z</time></trkpt><trkpt lat="40.964270068866206" lon="9.491705490285067"><ele>69.0</ele><time>2026-04-26T06:54:51.993Z</time></trkpt><trkpt lat="40.964416786561" lon="9.491605075444486"><ele>68.33333333333333</ele><time>2026-04-26T06:54:52.993Z</time></trkpt><trkpt lat="40.96456821504149" lon="9.49151516034019"><ele>67.66666666666666</ele><time>2026-04-26T06:54:53.993Z</time></trkpt><trkpt lat="40.96472315799637" lon="9.491430509519642"><ele>67.0</ele><time>2026-04-26T06:54:54.993Z</time></trkpt><trkpt lat="40.96488267316826" lon="9.491349475991967"><ele>66.0</ele><time>2026-04-26T06:54:55.993Z</time></trkpt><trkpt lat="40.96504928935684" lon="9.491275133470253"><ele>65.0</ele><time>2026-04-26T06:54:56.993Z</time></trkpt><trkpt lat="40.96522083595086" lon="9.491206904851138"><ele>64.0</ele><time>2026-04-26T06:54:57.993Z</time></trkpt><trkpt lat="40.965397802702746" lon="9.491140318230762"><ele>63.666666666666664</ele><time>2026-04-26T06:54:58.993Z</time></trkpt><trkpt lat="40.96557827332691" lon="9.491081289078972"><ele>63.33333333333333</ele><time>2026-04-26T06:54:59.993Z</time></trkpt><trkpt lat="40.96575885282161" lon="9.49103353940508"><ele>63.0</ele><time>2026-04-26T06:55:00.993Z</time></trkpt><trkpt lat="40.965933222171515" lon="9.490998275714274"><ele>62.33333333333333</ele><time>2026-04-26T06:55:01.993Z</time></trkpt><trkpt lat="40.966113980005424" lon="9.49096712156409"><ele>61.666666666666664</ele><time>2026-04-26T06:55:02.993Z</time></trkpt><trkpt lat="40.966293831304874" lon="9.490941455716854"><ele>61.0</ele><time>2026-04-26T06:55:03.993Z</time></trkpt><trkpt lat="40.966483242501035" lon="9.490929002687302"><ele>61.0</ele><time>2026-04-26T06:55:04.993Z</time></trkpt><trkpt lat="40.966676097251266" lon="9.490926932639809"><ele>61.0</ele><time>2026-04-26T06:55:05.993Z</time></trkpt><trkpt lat="40.966875051895755" lon="9.490933288494576"><ele>61.0</ele><time>2026-04-26T06:55:06.993Z</time></trkpt><trkpt lat="40.967073972913575" lon="9.490943543258089"><ele>61.0</ele><time>2026-04-26T06:55:07.993Z</time></trkpt><trkpt lat="40.96727607217544" lon="9.490961741205302"><ele>61.0</ele><time>2026-04-26T06:55:08.993Z</time></trkpt><trkpt lat="40.96747861851766" lon="9.490990833829816"><ele>61.0</ele><time>2026-04-26T06:55:09.993Z</time></trkpt><trkpt lat="40.96768480277559" lon="9.49103191570536"><ele>59.666666666666664</ele><time>2026-04-26T06:55:10.993Z</time></trkpt><trkpt lat="40.967887434451306" lon="9.491072489131914"><ele>58.33333333333333</ele><time>2026-04-26T06:55:11.993Z</time></trkpt><trkpt lat="40.968090162808714" lon="9.491120176587005"><ele>57.0</ele><time>2026-04-26T06:55:12.993Z</time></trkpt><trkpt lat="40.96827680861028" lon="9.491168767358733"><ele>57.0</ele><time>2026-04-26T06:55:13.993Z</time></trkpt><trkpt lat="40.96845264011751" lon="9.491214620576855"><ele>57.0</ele><time>2026-04-26T06:55:14.993Z</time></trkpt><trkpt lat="40.968618575474196" lon="9.49125251166232"><ele>57.0</ele><time>2026-04-26T06:55:15.992Z</time></trkpt><trkpt lat="40.96878914980038" lon="9.491292790206423"><ele>56.66666666666667</ele><time>2026-04-26T06:55:16.992Z</time></trkpt><trkpt lat="40.968972858051885" lon="9.491332265516009"><ele>56.333333333333336</ele><time>2026-04-26T06:55:17.992Z</time></trkpt><trkpt lat="40.969165029142665" lon="9.491365805153015"><ele>56.0</ele><time>2026-04-26T06:55:18.992Z</time></trkpt><trkpt lat="40.96936657563229" lon="9.49138851497876"><ele>55.333333333333336</ele><time>2026-04-26T06:55:19.992Z</time></trkpt><trkpt lat="40.96957605724946" lon="9.491393759768147"><ele>54.66666666666667</ele><time>2026-04-26T06:55:20.992Z</time></trkpt><trkpt lat="40.96978480352033" lon="9.491369115084726"><ele>54.0</ele><time>2026-04-26T06:55:21.992Z</time></trkpt><trkpt lat="40.96999212970013" lon="9.491332261523285"><ele>54.0</ele><time>2026-04-26T06:55:22.992Z</time></trkpt><trkpt lat="40.97020278994294" lon="9.491292911330198"><ele>54.0</ele><time>2026-04-26T06:55:23.992Z</time></trkpt><trkpt lat="40.97040884967426" lon="9.491243985101164"><ele>54.0</ele><time>2026-04-26T06:55:24.992Z</time></trkpt><trkpt lat="40.97061411942983" lon="9.49118392137199"><ele>54.0</ele><time>2026-04-26T06:55:25.992Z</time></trkpt><trkpt lat="40.97081333943763" lon="9.491119087255319"><ele>54.0</ele><time>2026-04-26T06:55:26.992Z</time></trkpt><trkpt lat="40.97100526278511" lon="9.491058405459388"><ele>54.0</ele><time>2026-04-26T06:55:27.992Z</time></trkpt><trkpt lat="40.97119558079706" lon="9.491004230341035"><ele>54.0</ele><time>2026-04-26T06:55:28.992Z</time></trkpt><trkpt lat="40.971381580098544" lon="9.490957685096024"><ele>54.0</ele><time>2026-04-26T06:55:29.992Z</time></trkpt><trkpt lat="40.971563470029146" lon="9.490920043937153"><ele>54.0</ele><time>2026-04-26T06:55:30.992Z</time></trkpt><trkpt lat="40.971749713753155" lon="9.490881270360717"><ele>54.0</ele><time>2026-04-26T06:55:31.992Z</time></trkpt><trkpt lat="40.97193631008398" lon="9.490839924789421"><ele>54.0</ele><time>2026-04-26T06:55:32.992Z</time></trkpt><trkpt lat="40.97212475998422" lon="9.490799091327492"><ele>54.0</ele><time>2026-04-26T06:55:33.992Z</time></trkpt><trkpt lat="40.97231715254331" lon="9.49076012791268"><ele>54.0</ele><time>2026-04-26T06:55:34.992Z</time></trkpt><trkpt lat="40.972507112557096" lon="9.490724535032422"><ele>54.0</ele><time>2026-04-26T06:55:35.992Z</time></trkpt><trkpt lat="40.9727003783889" lon="9.49068980042919"><ele>54.0</ele><time>2026-04-26T06:55:36.992Z</time></trkpt><trkpt lat="40.972879555003935" lon="9.490660224081864"><ele>54.33333333333333</ele><time>2026-04-26T06:55:37.992Z</time></trkpt><trkpt lat="40.97304493517327" lon="9.490631683363445"><ele>54.666666666666664</ele><time>2026-04-26T06:55:38.992Z</time></trkpt><trkpt lat="40.97320430785859" lon="9.490602987301187"><ele>55.0</ele><time>2026-04-26T06:55:39.992Z</time></trkpt><trkpt lat="40.97337162724809" lon="9.490565231316564"><ele>55.0</ele><time>2026-04-26T06:55:40.992Z</time></trkpt><trkpt lat="40.97355110558906" lon="9.490530300270525"><ele>55.0</ele><time>2026-04-26T06:55:41.992Z</time></trkpt><trkpt lat="40.9737380064063" lon="9.490492912114195"><ele>55.0</ele><time>2026-04-26T06:55:42.992Z</time></trkpt><trkpt lat="40.97393299051393" lon="9.490454402366549"><ele>56.666666666666664</ele><time>2026-04-26T06:55:43.992Z</time></trkpt><trkpt lat="40.97413304057544" lon="9.490416714925018"><ele>58.33333333333333</ele><time>2026-04-26T06:55:44.992Z</time></trkpt><trkpt lat="40.974338155983354" lon="9.490393536131094"><ele>60.0</ele><time>2026-04-26T06:55:45.993Z</time></trkpt><trkpt lat="40.974539943301615" lon="9.490402836162732"><ele>59.0</ele><time>2026-04-26T06:55:46.993Z</time></trkpt><trkpt lat="40.97473618276234" lon="9.490471986942714"><ele>58.0</ele><time>2026-04-26T06:55:47.993Z</time></trkpt><trkpt lat="40.97491290572716" lon="9.490589265054899"><ele>57.0</ele><time>2026-04-26T06:55:48.993Z</time></trkpt><trkpt lat="40.97507590234152" lon="9.490728780959586"><ele>57.0</ele><time>2026-04-26T06:55:49.993Z</time></trkpt><trkpt lat="40.9752242224878" lon="9.490873946706547"><ele>57.0</ele><time>2026-04-26T06:55:50.993Z</time></trkpt><trkpt lat="40.975380629937206" lon="9.491019938950604"><ele>57.0</ele><time>2026-04-26T06:55:51.993Z</time></trkpt><trkpt lat="40.97554019426961" lon="9.49113571664951"><ele>57.0</ele><time>2026-04-26T06:55:52.992Z</time></trkpt><trkpt lat="40.97570324002193" lon="9.491220746371608"><ele>57.0</ele><time>2026-04-26T06:55:53.992Z</time></trkpt><trkpt lat="40.97587175292881" lon="9.491272976281154"><ele>57.0</ele><time>2026-04-26T06:55:54.993Z</time></trkpt><trkpt lat="40.97604801198992" lon="9.491299556306938"><ele>56.0</ele><time>2026-04-26T06:55:55.993Z</time></trkpt><trkpt lat="40.97622591455203" lon="9.491313597268558"><ele>55.0</ele><time>2026-04-26T06:55:56.993Z</time></trkpt><trkpt lat="40.976405765592126" lon="9.491321770397814"><ele>54.0</ele><time>2026-04-26T06:55:57.993Z</time></trkpt><trkpt lat="40.97658925178606" lon="9.49133436977286"><ele>54.33333333333333</ele><time>2026-04-26T06:55:58.993Z</time></trkpt><trkpt lat="40.976769177938365" lon="9.491351518228843"><ele>54.666666666666664</ele><time>2026-04-26T06:55:59.993Z</time></trkpt><trkpt lat="40.97693822503486" lon="9.4913643673537"><ele>55.0</ele><time>2026-04-26T06:56:00.993Z</time></trkpt><trkpt lat="40.97709893283327" lon="9.49137827872791"><ele>55.0</ele><time>2026-04-26T06:56:01.993Z</time></trkpt><trkpt lat="40.977256669117196" lon="9.49138642044808"><ele>55.0</ele><time>2026-04-26T06:56:02.993Z</time></trkpt><trkpt lat="40.97740284183383" lon="9.491393625081674"><ele>55.0</ele><time>2026-04-26T06:56:03.993Z</time></trkpt><trkpt lat="40.977545471865845" lon="9.491400550145677"><ele>55.0</ele><time>2026-04-26T06:56:04.993Z</time></trkpt><trkpt lat="40.97768389994057" lon="9.49141026399354"><ele>54.5</ele><time>2026-04-26T06:56:05.993Z</time></trkpt><trkpt lat="40.9778207342279" lon="9.491423927975651"><ele>54.0</ele><time>2026-04-26T06:56:06.993Z</time></trkpt><trkpt lat="40.97795667171827" lon="9.491436143411232"><ele>53.5</ele><time>2026-04-26T06:56:07.993Z</time></trkpt><trkpt lat="40.97809316294278" lon="9.491446076405921"><ele>53.0</ele><time>2026-04-26T06:56:08.993Z</time></trkpt><trkpt lat="40.97823110161571" lon="9.49145464099876"><ele>53.5</ele><time>2026-04-26T06:56:09.993Z</time></trkpt><trkpt lat="40.978367481606014" lon="9.491466256466262"><ele>54.0</ele><time>2026-04-26T06:56:10.993Z</time></trkpt><trkpt lat="40.97849479795341" lon="9.491479091529616"><ele>54.5</ele><time>2026-04-26T06:56:11.993Z</time></trkpt><trkpt lat="40.97860636702724" lon="9.491502053923192"><ele>55.0</ele><time>2026-04-26T06:56:12.993Z</time></trkpt><trkpt lat="40.97870703526096" lon="9.491538278519686"><ele>54.99999999999999</ele><time>2026-04-26T06:56:13.993Z</time></trkpt><trkpt lat="40.97879278409907" lon="9.49160279993357"><ele>55.0</ele><time>2026-04-26T06:56:14.993Z</time></trkpt><trkpt lat="40.9788476338992" lon="9.491703907867421"><ele>55.0</ele><time>2026-04-26T06:56:15.993Z</time></trkpt><trkpt lat="40.97887913355129" lon="9.491807852148558"><ele>55.0</ele><time>2026-04-26T06:56:16.993Z</time></trkpt><trkpt lat="40.97892618177986" lon="9.491896438220412"><ele>54.99999999999999</ele><time>2026-04-26T06:56:17.993Z</time></trkpt><trkpt lat="40.979001653438246" lon="9.4919454692307"><ele>55.0</ele><time>2026-04-26T06:56:18.993Z</time></trkpt><trkpt lat="40.97909379832162" lon="9.491934562059434"><ele>55.0</ele><time>2026-04-26T06:56:19.993Z</time></trkpt><trkpt lat="40.979180301455905" lon="9.491873867131424"><ele>55.0</ele><time>2026-04-26T06:56:20.993Z</time></trkpt><trkpt lat="40.97923017993504" lon="9.49175808902248"><ele>55.0</ele><time>2026-04-26T06:56:21.993Z</time></trkpt><trkpt lat="40.97928933766006" lon="9.491631122952121"><ele>55.0</ele><time>2026-04-26T06:56:22.992Z</time></trkpt><trkpt lat="40.979355771066615" lon="9.491497839128265"><ele>55.0</ele><time>2026-04-26T06:56:23.992Z</time></trkpt><trkpt lat="40.97944252473776" lon="9.491366488834611"><ele>56.25</ele><time>2026-04-26T06:56:24.992Z</time></trkpt><trkpt lat="40.979544458126234" lon="9.491240922505213"><ele>57.5</ele><time>2026-04-26T06:56:25.992Z</time></trkpt><trkpt lat="40.97965025651619" lon="9.491104759038741"><ele>58.75</ele><time>2026-04-26T06:56:26.992Z</time></trkpt><trkpt lat="40.97975709691376" lon="9.490960359879667"><ele>60.0</ele><time>2026-04-26T06:56:27.992Z</time></trkpt><trkpt lat="40.97987058612418" lon="9.49081154345052"><ele>60.0</ele><time>2026-04-26T06:56:28.992Z</time></trkpt><trkpt lat="40.97999040599448" lon="9.490656102086165"><ele>60.0</ele><time>2026-04-26T06:56:29.992Z</time></trkpt><trkpt lat="40.98011496455406" lon="9.490497143325472"><ele>60.0</ele><time>2026-04-26T06:56:30.992Z</time></trkpt><trkpt lat="40.98022509999933" lon="9.490329431361513"><ele>61.33333333333333</ele><time>2026-04-26T06:56:31.992Z</time></trkpt><trkpt lat="40.980320665563085" lon="9.490161947609643"><ele>62.666666666666664</ele><time>2026-04-26T06:56:32.992Z</time></trkpt><trkpt lat="40.980433110316234" lon="9.490033875982975"><ele>64.0</ele><time>2026-04-26T06:56:33.992Z</time></trkpt><trkpt lat="40.980565644411854" lon="9.48995749585002"><ele>64.0</ele><time>2026-04-26T06:56:34.992Z</time></trkpt><trkpt lat="40.980715126923286" lon="9.48992767076292"><ele>64.0</ele><time>2026-04-26T06:56:35.992Z</time></trkpt><trkpt lat="40.98088833023654" lon="9.489924209750502"><ele>64.0</ele><time>2026-04-26T06:56:36.992Z</time></trkpt><trkpt lat="40.98107194399085" lon="9.489894356174748"><ele>62.666666666666664</ele><time>2026-04-26T06:56:37.992Z</time></trkpt><trkpt lat="40.98125669954635" lon="9.489812158612681"><ele>61.33333333333333</ele><time>2026-04-26T06:56:38.992Z</time></trkpt><trkpt lat="40.98144284122782" lon="9.489700392784162"><ele>60.0</ele><time>2026-04-26T06:56:39.992Z</time></trkpt><trkpt lat="40.98163404442169" lon="9.489573718465614"><ele>62.5</ele><time>2026-04-26T06:56:40.992Z</time></trkpt><trkpt lat="40.981831722495706" lon="9.489437895497433"><ele>65.0</ele><time>2026-04-26T06:56:41.992Z</time></trkpt><trkpt lat="40.98204224996098" lon="9.489261637538037"><ele>65.0</ele><time>2026-04-26T06:56:42.992Z</time></trkpt><trkpt lat="40.98223704438356" lon="9.48902748345408"><ele>65.0</ele><time>2026-04-26T06:56:43.992Z</time></trkpt><trkpt lat="40.98241146674093" lon="9.488777964764937"><ele>66.0</ele><time>2026-04-26T06:56:44.992Z</time></trkpt><trkpt lat="40.98254353022728" lon="9.488536751129804"><ele>67.0</ele><time>2026-04-26T06:56:45.992Z</time></trkpt><trkpt lat="40.98264513102169" lon="9.488296140854152"><ele>68.0</ele><time>2026-04-26T06:56:46.992Z</time></trkpt><trkpt lat="40.98272794833336" lon="9.488063650419674"><ele>69.33333333333334</ele><time>2026-04-26T06:56:47.992Z</time></trkpt><trkpt lat="40.98279382061457" lon="9.487837314334017"><ele>70.66666666666667</ele><time>2026-04-26T06:56:48.992Z</time></trkpt><trkpt lat="40.98281391375678" lon="9.487605492944219"><ele>72.0</ele><time>2026-04-26T06:56:49.992Z</time></trkpt><trkpt lat="40.982794247506234" lon="9.487366790336006"><ele>72.0</ele><time>2026-04-26T06:56:50.992Z</time></trkpt><trkpt lat="40.982728771986345" lon="9.487110132405478"><ele>72.0</ele><time>2026-04-26T06:56:51.992Z</time></trkpt><trkpt lat="40.98267540594143" lon="9.486867976198495"><ele>72.0</ele><time>2026-04-26T06:56:52.992Z</time></trkpt><trkpt lat="40.98263097381602" lon="9.48662771539608"><ele>75.33333333333333</ele><time>2026-04-26T06:56:53.992Z</time></trkpt><trkpt lat="40.982584446352604" lon="9.486397203301854"><ele>78.66666666666666</ele><time>2026-04-26T06:56:54.992Z</time></trkpt><trkpt lat="40.9825397913797" lon="9.486210894583909"><ele>82.0</ele><time>2026-04-26T06:56:55.992Z</time></trkpt><trkpt lat="40.982485049663744" lon="9.486028939089891"><ele>82.75</ele><time>2026-04-26T06:56:56.992Z</time></trkpt><trkpt lat="40.98243040891752" lon="9.485868198403526"><ele>83.5</ele><time>2026-04-26T06:56:57.992Z</time></trkpt><trkpt lat="40.98241074889857" lon="9.485716560524425"><ele>84.25</ele><time>2026-04-26T06:56:58.992Z</time></trkpt><trkpt lat="40.98240377669718" lon="9.485560968755546"><ele>85.0</ele><time>2026-04-26T06:56:59.992Z</time></trkpt><trkpt lat="40.98238853963435" lon="9.485398343418716"><ele>85.25</ele><time>2026-04-26T06:57:00.992Z</time></trkpt><trkpt lat="40.98235668344232" lon="9.485230981759587"><ele>85.5</ele><time>2026-04-26T06:57:01.992Z</time></trkpt><trkpt lat="40.98230352019029" lon="9.485059149014319"><ele>85.75</ele><time>2026-04-26T06:57:02.992Z</time></trkpt><trkpt lat="40.98224859284299" lon="9.48488518651423"><ele>86.0</ele><time>2026-04-26T06:57:03.992Z</time></trkpt><trkpt lat="40.98219790101148" lon="9.48472453917232"><ele>86.19999999999999</ele><time>2026-04-26T06:57:04.992Z</time></trkpt><trkpt lat="40.98216018603531" lon="9.484575032644202"><ele>86.39999999999999</ele><time>2026-04-26T06:57:05.992Z</time></trkpt><trkpt lat="40.98213808057972" lon="9.484432087193643"><ele>86.6</ele><time>2026-04-26T06:57:06.992Z</time></trkpt><trkpt lat="40.98214046241878" lon="9.484295148964986"><ele>86.8</ele><time>2026-04-26T06:57:07.992Z</time></trkpt><trkpt lat="40.98217137667795" lon="9.484152091695885"><ele>87.0</ele><time>2026-04-26T06:57:08.992Z</time></trkpt><trkpt lat="40.982224877347036" lon="9.483999880953366"><ele>87.0</ele><time>2026-04-26T06:57:09.992Z</time></trkpt><trkpt lat="40.982280405015956" lon="9.483837684717201"><ele>87.0</ele><time>2026-04-26T06:57:10.992Z</time></trkpt><trkpt lat="40.98233279136721" lon="9.483682365933902"><ele>87.0</ele><time>2026-04-26T06:57:11.992Z</time></trkpt><trkpt lat="40.9823887418425" lon="9.483541325352205"><ele>87.0</ele><time>2026-04-26T06:57:12.992Z</time></trkpt><trkpt lat="40.98243935350341" lon="9.483421733055952"><ele>88.19999999999999</ele><time>2026-04-26T06:57:13.992Z</time></trkpt><trkpt lat="40.98248594834934" lon="9.483316706100613"><ele>89.4</ele><time>2026-04-26T06:57:14.992Z</time></trkpt><trkpt lat="40.98253756543595" lon="9.483223472323438"><ele>90.6</ele><time>2026-04-26T06:57:15.992Z</time></trkpt><trkpt lat="40.98260791673776" lon="9.483150490577563"><ele>91.80000000000001</ele><time>2026-04-26T06:57:16.992Z</time></trkpt><trkpt lat="40.98269038561229" lon="9.483110853818394"><ele>93.0</ele><time>2026-04-26T06:57:17.992Z</time></trkpt><trkpt lat="40.98278511325434" lon="9.483106561581035"><ele>95.5</ele><time>2026-04-26T06:57:18.992Z</time></trkpt><trkpt lat="40.98288860956928" lon="9.48314663767759"><ele>98.0</ele><time>2026-04-26T06:57:19.992Z</time></trkpt><trkpt lat="40.98299261751288" lon="9.483217069428033"><ele>100.5</ele><time>2026-04-26T06:57:20.992Z</time></trkpt><trkpt lat="40.98310408516099" lon="9.483289508363246"><ele>103.0</ele><time>2026-04-26T06:57:21.992Z</time></trkpt><trkpt lat="40.983223394360365" lon="9.483364663077673"><ele>103.0</ele><time>2026-04-26T06:57:22.992Z</time></trkpt><trkpt lat="40.98333055282524" lon="9.48344454991184"><ele>103.0</ele><time>2026-04-26T06:57:23.992Z</time></trkpt><trkpt lat="40.98342836264564" lon="9.483516895655548"><ele>103.0</ele><time>2026-04-26T06:57:24.992Z</time></trkpt><trkpt lat="40.98349198319182" lon="9.48360278862323"><ele>103.0</ele><time>2026-04-26T06:57:25.992Z</time></trkpt><trkpt lat="40.98353293948106" lon="9.483713487009616"><ele>103.0</ele><time>2026-04-26T06:57:26.991Z</time></trkpt><trkpt lat="40.983549604946695" lon="9.483849997073058"><ele>109.0</ele><time>2026-04-26T06:57:27.991Z</time></trkpt><trkpt lat="40.98354236667905" lon="9.484001933225578"><ele>115.0</ele><time>2026-04-26T06:57:28.991Z</time></trkpt><trkpt lat="40.983525750522034" lon="9.484179111760332"><ele>121.0</ele><time>2026-04-26T06:57:29.991Z</time></trkpt><trkpt lat="40.98351249630042" lon="9.484390340345593"><ele>127.0</ele><time>2026-04-26T06:57:30.991Z</time></trkpt><trkpt lat="40.98350304224003" lon="9.484609363757137"><ele>127.0</ele><time>2026-04-26T06:57:31.991Z</time></trkpt><trkpt lat="40.983514916897285" lon="9.484811735598418"><ele>127.0</ele><time>2026-04-26T06:57:32.991Z</time></trkpt><trkpt lat="40.9835433574605" lon="9.484999060185187"><ele>127.0</ele><time>2026-04-26T06:57:33.991Z</time></trkpt><trkpt lat="40.983577861585125" lon="9.4851751452231"><ele>127.0</ele><time>2026-04-26T06:57:34.991Z</time></trkpt><trkpt lat="40.983609943629716" lon="9.485325962026579"><ele>125.16666666666667</ele><time>2026-04-26T06:57:35.991Z</time></trkpt><trkpt lat="40.98362991392343" lon="9.485436084391702"><ele>123.33333333333334</ele><time>2026-04-26T06:57:36.991Z</time></trkpt><trkpt lat="40.9836568884182" lon="9.485590119821701"><ele>121.5</ele><time>2026-04-26T06:57:38.991Z</time></trkpt><trkpt lat="40.98367360224116" lon="9.485672699610188"><ele>119.66666666666666</ele><time>2026-04-26T06:57:39.991Z</time></trkpt><trkpt lat="40.983699380808446" lon="9.485774561766046"><ele>117.83333333333333</ele><time>2026-04-26T06:57:40.991Z</time></trkpt><trkpt lat="40.983736085982315" lon="9.485875225702008"><ele>116.0</ele><time>2026-04-26T06:57:41.991Z</time></trkpt><trkpt lat="40.98378750890607" lon="9.485963426224144"><ele>116.0</ele><time>2026-04-26T06:57:42.991Z</time></trkpt><trkpt lat="40.98385331919879" lon="9.486026151412604"><ele>116.0</ele><time>2026-04-26T06:57:43.991Z</time></trkpt><trkpt lat="40.983939169122536" lon="9.486061148047591"><ele>116.0</ele><time>2026-04-26T06:57:44.991Z</time></trkpt><trkpt lat="40.984036954363326" lon="9.486055080015833"><ele>116.0</ele><time>2026-04-26T06:57:45.991Z</time></trkpt><trkpt lat="40.98414989635224" lon="9.486021049303126"><ele>116.0</ele><time>2026-04-26T06:57:46.991Z</time></trkpt><trkpt lat="40.984271341336374" lon="9.485979625172385"><ele>115.75</ele><time>2026-04-26T06:57:47.991Z</time></trkpt><trkpt lat="40.98438739003959" lon="9.485939989289193"><ele>115.5</ele><time>2026-04-26T06:57:48.991Z</time></trkpt><trkpt lat="40.984505043283214" lon="9.485906428764526"><ele>115.25</ele><time>2026-04-26T06:57:49.991Z</time></trkpt><trkpt lat="40.984622621839925" lon="9.485865133649435"><ele>115.0</ele><time>2026-04-26T06:57:50.991Z</time></trkpt><trkpt lat="40.98474389275352" lon="9.485823243796517"><ele>115.0</ele><time>2026-04-26T06:57:51.992Z</time></trkpt><trkpt lat="40.9848604599149" lon="9.485754223529762"><ele>115.0</ele><time>2026-04-26T06:57:52.992Z</time></trkpt><trkpt lat="40.98496122741492" lon="9.485645513278843"><ele>115.0</ele><time>2026-04-26T06:57:53.992Z</time></trkpt><trkpt lat="40.98503132459671" lon="9.485489876974107"><ele>115.0</ele><time>2026-04-26T06:57:54.992Z</time></trkpt><trkpt lat="40.98508141869409" lon="9.485275358746252"><ele>120.33333333333334</ele><time>2026-04-26T06:57:55.992Z</time></trkpt><trkpt lat="40.985170009788106" lon="9.485044837726624"><ele>125.66666666666666</ele><time>2026-04-26T06:57:56.992Z</time></trkpt><trkpt lat="40.98529552537888" lon="9.48479893185837"><ele>131.0</ele><time>2026-04-26T06:57:57.992Z</time></trkpt><trkpt lat="40.98541237618293" lon="9.484593990844392"><ele>132.0</ele><time>2026-04-26T06:57:58.992Z</time></trkpt><trkpt lat="40.98551823331957" lon="9.484435717542242"><ele>133.0</ele><time>2026-04-26T06:57:59.992Z</time></trkpt><trkpt lat="40.98562757789844" lon="9.484330766001362"><ele>134.0</ele><time>2026-04-26T06:58:00.992Z</time></trkpt><trkpt lat="40.98574724856627" lon="9.484265373336482"><ele>135.0</ele><time>2026-04-26T06:58:01.992Z</time></trkpt><trkpt lat="40.985861727482735" lon="9.484225556682578"><ele>132.5</ele><time>2026-04-26T06:58:02.992Z</time></trkpt><trkpt lat="40.985973611584356" lon="9.484192739292114"><ele>130.0</ele><time>2026-04-26T06:58:03.992Z</time></trkpt><trkpt lat="40.98609940506285" lon="9.484108721115529"><ele>127.5</ele><time>2026-04-26T06:58:04.992Z</time></trkpt><trkpt lat="40.98624882147226" lon="9.483974562077053"><ele>125.0</ele><time>2026-04-26T06:58:05.992Z</time></trkpt><trkpt lat="40.986411716678596" lon="9.483826009858047"><ele>125.33333333333333</ele><time>2026-04-26T06:58:06.992Z</time></trkpt><trkpt lat="40.98657150042893" lon="9.483704947000756"><ele>125.66666666666666</ele><time>2026-04-26T06:58:07.992Z</time></trkpt><trkpt lat="40.98673745861814" lon="9.483618582528125"><ele>126.0</ele><time>2026-04-26T06:58:08.992Z</time></trkpt><trkpt lat="40.98689650387127" lon="9.483547996519203"><ele>126.0</ele><time>2026-04-26T06:58:09.992Z</time></trkpt><trkpt lat="40.98704782514147" lon="9.483481173060051"><ele>126.0</ele><time>2026-04-26T06:58:10.992Z</time></trkpt><trkpt lat="40.98719574518725" lon="9.483414972330428"><ele>126.0</ele><time>2026-04-26T06:58:11.992Z</time></trkpt><trkpt lat="40.98734288514701" lon="9.483352076835711"><ele>126.0</ele><time>2026-04-26T06:58:12.992Z</time></trkpt><trkpt lat="40.98749042551392" lon="9.483297550741563"><ele>126.0</ele><time>2026-04-26T06:58:13.992Z</time></trkpt><trkpt lat="40.9876287558075" lon="9.483237783846473"><ele>126.0</ele><time>2026-04-26T06:58:14.992Z</time></trkpt><trkpt lat="40.98775995644305" lon="9.483170867575266"><ele>126.0</ele><time>2026-04-26T06:58:15.992Z</time></trkpt><trkpt lat="40.98788711909941" lon="9.483089425898479"><ele>126.5</ele><time>2026-04-26T06:58:16.992Z</time></trkpt><trkpt lat="40.987999843805966" lon="9.482992022174303"><ele>127.0</ele><time>2026-04-26T06:58:17.992Z</time></trkpt><trkpt lat="40.98812120075217" lon="9.482883812243346"><ele>127.5</ele><time>2026-04-26T06:58:18.992Z</time></trkpt><trkpt lat="40.98823195235051" lon="9.482765370546064"><ele>128.0</ele><time>2026-04-26T06:58:19.992Z</time></trkpt><trkpt lat="40.98833806890293" lon="9.482650595149833"><ele>128.25</ele><time>2026-04-26T06:58:20.992Z</time></trkpt><trkpt lat="40.988446180474895" lon="9.482540248902323"><ele>128.5</ele><time>2026-04-26T06:58:21.992Z</time></trkpt><trkpt lat="40.98855136614317" lon="9.482422155693731"><ele>128.75</ele><time>2026-04-26T06:58:22.992Z</time></trkpt><trkpt lat="40.98865606903104" lon="9.482304733214718"><ele>129.0</ele><time>2026-04-26T06:58:23.992Z</time></trkpt><trkpt lat="40.98876035593187" lon="9.482186047614691"><ele>127.0</ele><time>2026-04-26T06:58:24.992Z</time></trkpt><trkpt lat="40.988857551699724" lon="9.482065600893922"><ele>125.0</ele><time>2026-04-26T06:58:25.992Z</time></trkpt><trkpt lat="40.988946592870526" lon="9.481944568146533"><ele>123.0</ele><time>2026-04-26T06:58:26.992Z</time></trkpt><trkpt lat="40.989024620798176" lon="9.481800636634482"><ele>121.0</ele><time>2026-04-26T06:58:27.992Z</time></trkpt><trkpt lat="40.98910399243827" lon="9.481641001535591"><ele>121.0</ele><time>2026-04-26T06:58:28.992Z</time></trkpt><trkpt lat="40.98918456505077" lon="9.481467180809494"><ele>121.0</ele><time>2026-04-26T06:58:29.992Z</time></trkpt><trkpt lat="40.989272965379826" lon="9.48123967031158"><ele>121.0</ele><time>2026-04-26T06:58:30.992Z</time></trkpt><trkpt lat="40.98941341271889" lon="9.480970535699788"><ele>121.0</ele><time>2026-04-26T06:58:31.992Z</time></trkpt><trkpt lat="40.98957678910979" lon="9.480704675881617"><ele>121.0</ele><time>2026-04-26T06:58:32.992Z</time></trkpt><trkpt lat="40.98972185485798" lon="9.480445953856318"><ele>118.5</ele><time>2026-04-26T06:58:33.992Z</time></trkpt><trkpt lat="40.98982800251285" lon="9.480132594323127"><ele>116.0</ele><time>2026-04-26T06:58:34.992Z</time></trkpt><trkpt lat="40.98990148114" lon="9.479740750585695"><ele>116.0</ele><time>2026-04-26T06:58:35.992Z</time></trkpt><trkpt lat="40.98995144661129" lon="9.479320147182737"><ele>116.0</ele><time>2026-04-26T06:58:36.992Z</time></trkpt><trkpt lat="40.99001815936316" lon="9.478888247846875"><ele>113.5</ele><time>2026-04-26T06:58:37.992Z</time></trkpt><trkpt lat="40.99011708231588" lon="9.478474495360778"><ele>111.0</ele><time>2026-04-26T06:58:38.992Z</time></trkpt><trkpt lat="40.99020995657617" lon="9.478071129644768"><ele>109.0</ele><time>2026-04-26T06:58:39.992Z</time></trkpt><trkpt lat="40.99029666140335" lon="9.477662554446539"><ele>107.0</ele><time>2026-04-26T06:58:40.992Z</time></trkpt><trkpt lat="40.990369811779445" lon="9.477260455222979"><ele>105.5</ele><time>2026-04-26T06:58:41.992Z</time></trkpt><trkpt lat="40.99043113717167" lon="9.47687719100979"><ele>104.0</ele><time>2026-04-26T06:58:42.992Z</time></trkpt><trkpt lat="40.99051279430262" lon="9.476523590524637"><ele>102.0</ele><time>2026-04-26T06:58:43.992Z</time></trkpt><trkpt lat="40.99062236787097" lon="9.476199533828487"><ele>100.0</ele><time>2026-04-26T06:58:44.992Z</time></trkpt><trkpt lat="40.99076291131497" lon="9.475881523784755"><ele>97.0</ele><time>2026-04-26T06:58:45.992Z</time></trkpt><trkpt lat="40.9908777633993" lon="9.475561083744962"><ele>94.0</ele><time>2026-04-26T06:58:46.992Z</time></trkpt><trkpt lat="40.99100154677467" lon="9.475263002483834"><ele>93.5</ele><time>2026-04-26T06:58:47.992Z</time></trkpt><trkpt lat="40.99105666373677" lon="9.47497032722368"><ele>93.0</ele><time>2026-04-26T06:58:48.992Z</time></trkpt><trkpt lat="40.991089129099215" lon="9.4746552424532"><ele>93.5</ele><time>2026-04-26T06:58:49.992Z</time></trkpt><trkpt lat="40.991080577591724" lon="9.47430628063198"><ele>94.0</ele><time>2026-04-26T06:58:50.992Z</time></trkpt><trkpt lat="40.991079970452965" lon="9.47394786015212"><ele>96.0</ele><time>2026-04-26T06:58:51.992Z</time></trkpt><trkpt lat="40.991102882138" lon="9.473622027899465"><ele>98.0</ele><time>2026-04-26T06:58:52.992Z</time></trkpt><trkpt lat="40.99119163966289" lon="9.473322268090886"><ele>98.0</ele><time>2026-04-26T06:58:53.992Z</time></trkpt><trkpt lat="40.9913275337477" lon="9.473029156622866"><ele>98.0</ele><time>2026-04-26T06:58:54.992Z</time></trkpt><trkpt lat="40.99147073281209" lon="9.472724236380879"><ele>99.0</ele><time>2026-04-26T06:58:55.992Z</time></trkpt><trkpt lat="40.9916134697231" lon="9.472415127241021"><ele>100.0</ele><time>2026-04-26T06:58:56.992Z</time></trkpt><trkpt lat="40.99169626341268" lon="9.472071060518507"><ele>101.5</ele><time>2026-04-26T06:58:57.992Z</time></trkpt><trkpt lat="40.99176160502348" lon="9.471717445798426"><ele>103.0</ele><time>2026-04-26T06:58:58.992Z</time></trkpt><trkpt lat="40.99182427837432" lon="9.471369802545594"><ele>106.5</ele><time>2026-04-26T06:58:59.992Z</time></trkpt><trkpt lat="40.99188479948151" lon="9.471052564816086"><ele>110.0</ele><time>2026-04-26T06:59:00.992Z</time></trkpt><trkpt lat="40.99194747825914" lon="9.470743225698591"><ele>110.0</ele><time>2026-04-26T06:59:01.992Z</time></trkpt><trkpt lat="40.99200689839546" lon="9.470445457630506"><ele>110.0</ele><time>2026-04-26T06:59:02.992Z</time></trkpt><trkpt lat="40.99203583146876" lon="9.470180346310991"><ele>110.0</ele><time>2026-04-26T06:59:03.992Z</time></trkpt><trkpt lat="40.991997841520366" lon="9.469939637998635"><ele>111.33333333333333</ele><time>2026-04-26T06:59:04.992Z</time></trkpt><trkpt lat="40.99190001267633" lon="9.469702275201131"><ele>112.66666666666666</ele><time>2026-04-26T06:59:05.992Z</time></trkpt><trkpt lat="40.991780630287145" lon="9.469456134200398"><ele>114.0</ele><time>2026-04-26T06:59:06.992Z</time></trkpt><trkpt lat="40.9917053655283" lon="9.469179370585376"><ele>114.0</ele><time>2026-04-26T06:59:07.992Z</time></trkpt><trkpt lat="40.9917015946727" lon="9.468888308480475"><ele>114.0</ele><time>2026-04-26T06:59:08.991Z</time></trkpt><trkpt lat="40.99173652061753" lon="9.468614382224187"><ele>114.0</ele><time>2026-04-26T06:59:09.991Z</time></trkpt><trkpt lat="40.99183228502877" lon="9.46835670801306"><ele>110.5</ele><time>2026-04-26T06:59:10.991Z</time></trkpt><trkpt lat="40.9919100132905" lon="9.468065878267689"><ele>107.0</ele><time>2026-04-26T06:59:11.991Z</time></trkpt><trkpt lat="40.991911535689866" lon="9.467753949425255"><ele>105.0</ele><time>2026-04-26T06:59:12.991Z</time></trkpt><trkpt lat="40.99188181636281" lon="9.467472186748786"><ele>103.0</ele><time>2026-04-26T06:59:13.991Z</time></trkpt><trkpt lat="40.99192659852048" lon="9.467265033849893"><ele>101.0</ele><time>2026-04-26T06:59:14.991Z</time></trkpt><trkpt lat="40.992033153772674" lon="9.467071516144722"><ele>99.33333333333333</ele><time>2026-04-26T06:59:15.991Z</time></trkpt><trkpt lat="40.99211647162961" lon="9.466804230079056"><ele>97.66666666666666</ele><time>2026-04-26T06:59:16.991Z</time></trkpt><trkpt lat="40.992167837784294" lon="9.466512088053452"><ele>96.0</ele><time>2026-04-26T06:59:17.991Z</time></trkpt><trkpt lat="40.99227969735753" lon="9.466284822437403"><ele>98.0</ele><time>2026-04-26T06:59:18.991Z</time></trkpt><trkpt lat="40.99244776407375" lon="9.466076806983274"><ele>100.0</ele><time>2026-04-26T06:59:19.991Z</time></trkpt><trkpt lat="40.992643670590816" lon="9.465869581203451"><ele>93.0</ele><time>2026-04-26T06:59:20.991Z</time></trkpt><trkpt lat="40.99282521339242" lon="9.465662913230283"><ele>86.0</ele><time>2026-04-26T06:59:21.991Z</time></trkpt><trkpt lat="40.99301004437379" lon="9.46544776416862"><ele>87.5</ele><time>2026-04-26T06:59:22.991Z</time></trkpt><trkpt lat="40.99317264455658" lon="9.465222265035177"><ele>89.0</ele><time>2026-04-26T06:59:23.991Z</time></trkpt><trkpt lat="40.993319465245996" lon="9.464974744576343"><ele>84.0</ele><time>2026-04-26T06:59:24.991Z</time></trkpt><trkpt lat="40.993432888508266" lon="9.464690902573153"><ele>79.0</ele><time>2026-04-26T06:59:25.991Z</time></trkpt><trkpt lat="40.99350980279901" lon="9.464387474864333"><ele>78.5</ele><time>2026-04-26T06:59:26.991Z</time></trkpt><trkpt lat="40.99358132376706" lon="9.464088322575588"><ele>78.0</ele><time>2026-04-26T06:59:27.991Z</time></trkpt><trkpt lat="40.993687040707165" lon="9.463814143439288"><ele>79.0</ele><time>2026-04-26T06:59:28.991Z</time></trkpt><trkpt lat="40.993812935634764" lon="9.463553353279348"><ele>80.0</ele><time>2026-04-26T06:59:29.991Z</time></trkpt><trkpt lat="40.993900405001504" lon="9.463269213289532"><ele>80.0</ele><time>2026-04-26T06:59:30.991Z</time></trkpt><trkpt lat="40.993947412908604" lon="9.462978338513228"><ele>80.0</ele><time>2026-04-26T06:59:31.991Z</time></trkpt><trkpt lat="40.993992094751825" lon="9.462718023801942"><ele>80.0</ele><time>2026-04-26T06:59:32.991Z</time></trkpt><trkpt lat="40.9940348652789" lon="9.462486335933438"><ele>80.33333333333334</ele><time>2026-04-26T06:59:33.991Z</time></trkpt><trkpt lat="40.994115218348135" lon="9.462304584095081"><ele>80.66666666666667</ele><time>2026-04-26T06:59:34.991Z</time></trkpt><trkpt lat="40.99425131039397" lon="9.462225047686356"><ele>81.0</ele><time>2026-04-26T06:59:35.991Z</time></trkpt><trkpt lat="40.99442784796824" lon="9.46220865676893"><ele>83.33333333333333</ele><time>2026-04-26T06:59:36.991Z</time></trkpt><trkpt lat="40.994582430317585" lon="9.462097036588156"><ele>85.66666666666666</ele><time>2026-04-26T06:59:37.991Z</time></trkpt><trkpt lat="40.994695463780275" lon="9.46191847547243"><ele>88.0</ele><time>2026-04-26T06:59:38.991Z</time></trkpt><trkpt lat="40.99477877430416" lon="9.461668609330706"><ele>88.0</ele><time>2026-04-26T06:59:39.991Z</time></trkpt><trkpt lat="40.99487371834154" lon="9.46139680955811"><ele>88.0</ele><time>2026-04-26T06:59:40.991Z</time></trkpt><trkpt lat="40.99492339414491" lon="9.461106497843705"><ele>89.66666666666666</ele><time>2026-04-26T06:59:41.991Z</time></trkpt><trkpt lat="40.99497182021083" lon="9.460850358016401"><ele>91.33333333333333</ele><time>2026-04-26T06:59:42.991Z</time></trkpt><trkpt lat="40.995054137015565" lon="9.46063393533448"><ele>93.0</ele><time>2026-04-26T06:59:43.991Z</time></trkpt><trkpt lat="40.995141785748565" lon="9.460455949011402"><ele>93.66666666666667</ele><time>2026-04-26T06:59:44.991Z</time></trkpt><trkpt lat="40.99520638784493" lon="9.460248011154455"><ele>94.33333333333334</ele><time>2026-04-26T06:59:45.991Z</time></trkpt><trkpt lat="40.995264700067075" lon="9.460011467366824"><ele>95.0</ele><time>2026-04-26T06:59:46.991Z</time></trkpt><trkpt lat="40.995319604063326" lon="9.459757052924536"><ele>98.0</ele><time>2026-04-26T06:59:47.991Z</time></trkpt><trkpt lat="40.99537879639711" lon="9.459484057675837"><ele>101.0</ele><time>2026-04-26T06:59:48.991Z</time></trkpt><trkpt lat="40.99543867102532" lon="9.459204789619623"><ele>104.0</ele><time>2026-04-26T06:59:49.991Z</time></trkpt><trkpt lat="40.99550301542257" lon="9.458929064954956"><ele>106.0</ele><time>2026-04-26T06:59:50.991Z</time></trkpt><trkpt lat="40.99556826533506" lon="9.458649074064585"><ele>108.0</ele><time>2026-04-26T06:59:51.991Z</time></trkpt><trkpt lat="40.9956270456929" lon="9.458384155989169"><ele>110.0</ele><time>2026-04-26T06:59:52.991Z</time></trkpt><trkpt lat="40.99567558210684" lon="9.45815131250765"><ele>114.0</ele><time>2026-04-26T06:59:53.991Z</time></trkpt><trkpt lat="40.99572339011492" lon="9.45794905933421"><ele>118.0</ele><time>2026-04-26T06:59:54.991Z</time></trkpt><trkpt lat="40.995784501787156" lon="9.457790510845483"><ele>122.0</ele><time>2026-04-26T06:59:55.991Z</time></trkpt><trkpt lat="40.99589810013787" lon="9.457706019928679"><ele>126.0</ele><time>2026-04-26T06:59:56.991Z</time></trkpt><trkpt lat="40.99603216195582" lon="9.457704300648654"><ele>126.0</ele><time>2026-04-26T06:59:57.991Z</time></trkpt><trkpt lat="40.99615663495477" lon="9.457791857814088"><ele>126.0</ele><time>2026-04-26T06:59:58.991Z</time></trkpt><trkpt lat="40.99627940036759" lon="9.457924720914619"><ele>126.0</ele><time>2026-04-26T06:59:59.991Z</time></trkpt><trkpt lat="40.99642405502176" lon="9.458006829434236"><ele>127.66666666666666</ele><time>2026-04-26T07:00:00.992Z</time></trkpt><trkpt lat="40.996583469738304" lon="9.458006285741414"><ele>129.33333333333331</ele><time>2026-04-26T07:00:01.991Z</time></trkpt><trkpt lat="40.9967166421617" lon="9.45791615171188"><ele>131.0</ele><time>2026-04-26T07:00:02.991Z</time></trkpt><trkpt lat="40.99683458865159" lon="9.457750134983135"><ele>131.0</ele><time>2026-04-26T07:00:03.991Z</time></trkpt><trkpt lat="40.99693356747558" lon="9.457518662602535"><ele>131.0</ele><time>2026-04-26T07:00:04.991Z</time></trkpt><trkpt lat="40.99699842138972" lon="9.457243022880244"><ele>131.0</ele><time>2026-04-26T07:00:05.991Z</time></trkpt><trkpt lat="40.99703662066722" lon="9.45695352828225"><ele>131.66666666666666</ele><time>2026-04-26T07:00:06.991Z</time></trkpt><trkpt lat="40.99709399065122" lon="9.456678762845424"><ele>132.33333333333334</ele><time>2026-04-26T07:00:07.991Z</time></trkpt><trkpt lat="40.997209558437255" lon="9.456430295707397"><ele>133.0</ele><time>2026-04-26T07:00:08.991Z</time></trkpt><trkpt lat="40.99734973384199" lon="9.456198339349635"><ele>135.0</ele><time>2026-04-26T07:00:09.991Z</time></trkpt><trkpt lat="40.9974871423883" lon="9.455967755621172"><ele>137.0</ele><time>2026-04-26T07:00:10.99Z</time></trkpt><trkpt lat="40.99758198479027" lon="9.455710793231608"><ele>139.0</ele><time>2026-04-26T07:00:11.99Z</time></trkpt><trkpt lat="40.99764878392029" lon="9.455458693708838"><ele>136.66666666666669</ele><time>2026-04-26T07:00:12.99Z</time></trkpt><trkpt lat="40.99773323541011" lon="9.455231119926461"><ele>134.33333333333334</ele><time>2026-04-26T07:00:13.99Z</time></trkpt><trkpt lat="40.997878258253856" lon="9.45502945912956"><ele>132.0</ele><time>2026-04-26T07:00:14.99Z</time></trkpt><trkpt lat="40.99805818983284" lon="9.454834195383917"><ele>132.0</ele><time>2026-04-26T07:00:15.99Z</time></trkpt><trkpt lat="40.998239903987525" lon="9.454639277466569"><ele>132.0</ele><time>2026-04-26T07:00:16.99Z</time></trkpt><trkpt lat="40.99838632777001" lon="9.454419677675578"><ele>136.5</ele><time>2026-04-26T07:00:17.99Z</time></trkpt><trkpt lat="40.9984890639108" lon="9.454140002786348"><ele>141.0</ele><time>2026-04-26T07:00:18.99Z</time></trkpt><trkpt lat="40.998589946025106" lon="9.453832876913363"><ele>138.5</ele><time>2026-04-26T07:00:19.99Z</time></trkpt><trkpt lat="40.99869798254196" lon="9.453518832423926"><ele>136.0</ele><time>2026-04-26T07:00:20.99Z</time></trkpt><trkpt lat="40.998780314040964" lon="9.453192481809173"><ele>133.0</ele><time>2026-04-26T07:00:21.99Z</time></trkpt><trkpt lat="40.99883756844031" lon="9.452860634950108"><ele>130.0</ele><time>2026-04-26T07:00:22.99Z</time></trkpt><trkpt lat="40.99888414799832" lon="9.452537051483663"><ele>130.0</ele><time>2026-04-26T07:00:23.99Z</time></trkpt><trkpt lat="40.99891121940206" lon="9.452228921760483"><ele>130.0</ele><time>2026-04-26T07:00:24.99Z</time></trkpt><trkpt lat="40.99889571171149" lon="9.451932919774627"><ele>129.0</ele><time>2026-04-26T07:00:25.99Z</time></trkpt><trkpt lat="40.99886829722274" lon="9.451662575081958"><ele>128.0</ele><time>2026-04-26T07:00:26.99Z</time></trkpt><trkpt lat="40.998876245271916" lon="9.451395583058092"><ele>127.0</ele><time>2026-04-26T07:00:27.99Z</time></trkpt><trkpt lat="40.99894181624262" lon="9.451124911764918"><ele>127.0</ele><time>2026-04-26T07:00:28.99Z</time></trkpt><trkpt lat="40.99900081099341" lon="9.450851826413595"><ele>127.0</ele><time>2026-04-26T07:00:29.99Z</time></trkpt><trkpt lat="40.999008596235626" lon="9.450570956934897"><ele>127.0</ele><time>2026-04-26T07:00:30.99Z</time></trkpt><trkpt lat="40.999018291891005" lon="9.450303530792958"><ele>125.0</ele><time>2026-04-26T07:00:31.99Z</time></trkpt><trkpt lat="40.99907725644842" lon="9.45006503308686"><ele>123.0</ele><time>2026-04-26T07:00:32.99Z</time></trkpt><trkpt lat="40.99919445466998" lon="9.449851685952027"><ele>121.0</ele><time>2026-04-26T07:00:33.99Z</time></trkpt><trkpt lat="40.99933977283137" lon="9.449642454639093"><ele>124.0</ele><time>2026-04-26T07:00:34.99Z</time></trkpt><trkpt lat="40.99947369434927" lon="9.449423054644095"><ele>127.0</ele><time>2026-04-26T07:00:35.99Z</time></trkpt><trkpt lat="40.99956150818233" lon="9.449170624466747"><ele>130.0</ele><time>2026-04-26T07:00:36.99Z</time></trkpt><trkpt lat="40.999607149080695" lon="9.44889331838348"><ele>128.0</ele><time>2026-04-26T07:00:37.99Z</time></trkpt><trkpt lat="40.99962062713699" lon="9.448609324859152"><ele>126.0</ele><time>2026-04-26T07:00:38.99Z</time></trkpt><trkpt lat="40.9996101446726" lon="9.448324038171881"><ele>124.0</ele><time>2026-04-26T07:00:39.99Z</time></trkpt><trkpt lat="40.99960570881434" lon="9.448039866557297"><ele>123.66666666666667</ele><time>2026-04-26T07:00:40.99Z</time></trkpt><trkpt lat="40.99962811589097" lon="9.447762716284121"><ele>123.33333333333334</ele><time>2026-04-26T07:00:41.99Z</time></trkpt><trkpt lat="40.999666740012906" lon="9.447486481856451"><ele>123.0</ele><time>2026-04-26T07:00:42.99Z</time></trkpt><trkpt lat="40.99971536489752" lon="9.447221598244553"><ele>119.33333333333334</ele><time>2026-04-26T07:00:43.99Z</time></trkpt><trkpt lat="40.99980274543146" lon="9.446964493580609"><ele>115.66666666666667</ele><time>2026-04-26T07:00:44.99Z</time></trkpt><trkpt lat="40.99990026290056" lon="9.446709426461316"><ele>112.0</ele><time>2026-04-26T07:00:45.99Z</time></trkpt><trkpt lat="40.99999001437941" lon="9.446447982301423"><ele>108.33333333333334</ele><time>2026-04-26T07:00:46.99Z</time></trkpt><trkpt lat="41.00007486695193" lon="9.446179635378966"><ele>104.66666666666666</ele><time>2026-04-26T07:00:47.99Z</time></trkpt><trkpt lat="41.000153089908466" lon="9.445902866923147"><ele>101.0</ele><time>2026-04-26T07:00:48.99Z</time></trkpt><trkpt lat="41.000212994966" lon="9.445633341820276"><ele>100.33333333333333</ele><time>2026-04-26T07:00:49.99Z</time></trkpt><trkpt lat="41.000248700872085" lon="9.445348244963666"><ele>99.66666666666666</ele><time>2026-04-26T07:00:50.99Z</time></trkpt><trkpt lat="41.0002538830003" lon="9.445053962812208"><ele>99.0</ele><time>2026-04-26T07:00:51.99Z</time></trkpt><trkpt lat="41.000246528223656" lon="9.44476207619497"><ele>97.0</ele><time>2026-04-26T07:00:52.99Z</time></trkpt><trkpt lat="41.00025668220479" lon="9.44446182418934"><ele>95.0</ele><time>2026-04-26T07:00:53.99Z</time></trkpt><trkpt lat="41.00029871742456" lon="9.444169612037157"><ele>95.0</ele><time>2026-04-26T07:00:54.99Z</time></trkpt><trkpt lat="41.00035740308849" lon="9.44388462528871"><ele>95.0</ele><time>2026-04-26T07:00:55.99Z</time></trkpt><trkpt lat="41.00041850668522" lon="9.443598290743518"><ele>95.0</ele><time>2026-04-26T07:00:56.99Z</time></trkpt><trkpt lat="41.00048492396544" lon="9.443312989474355"><ele>95.0</ele><time>2026-04-26T07:00:57.99Z</time></trkpt><trkpt lat="41.000547863559056" lon="9.443026883458762"><ele>95.0</ele><time>2026-04-26T07:00:58.99Z</time></trkpt><trkpt lat="41.00060852226728" lon="9.442743846616294"><ele>95.0</ele><time>2026-04-26T07:00:59.99Z</time></trkpt><trkpt lat="41.00067047063001" lon="9.442467638991605"><ele>95.0</ele><time>2026-04-26T07:01:00.99Z</time></trkpt><trkpt lat="41.000725867413735" lon="9.442202237623851"><ele>95.0</ele><time>2026-04-26T07:01:01.99Z</time></trkpt><trkpt lat="41.00081113523427" lon="9.441973659194376"><ele>95.0</ele><time>2026-04-26T07:01:02.99Z</time></trkpt><trkpt lat="41.00094503224155" lon="9.441778945632327"><ele>94.0</ele><time>2026-04-26T07:01:03.99Z</time></trkpt><trkpt lat="41.00110872899274" lon="9.44159937959532"><ele>93.0</ele><time>2026-04-26T07:01:04.99Z</time></trkpt><trkpt lat="41.00127917004239" lon="9.441411773418402"><ele>92.0</ele><time>2026-04-26T07:01:05.989Z</time></trkpt><trkpt lat="41.00145342005184" lon="9.441225909117543"><ele>91.66666666666667</ele><time>2026-04-26T07:01:06.989Z</time></trkpt><trkpt lat="41.00159738762047" lon="9.441000451644644"><ele>91.33333333333333</ele><time>2026-04-26T07:01:07.989Z</time></trkpt><trkpt lat="41.00170893384511" lon="9.440739203479582"><ele>91.0</ele><time>2026-04-26T07:01:08.989Z</time></trkpt><trkpt lat="41.001786835723074" lon="9.440453576104877"><ele>87.33333333333333</ele><time>2026-04-26T07:01:09.989Z</time></trkpt><trkpt lat="41.001862298221575" lon="9.440200353973147"><ele>83.66666666666667</ele><time>2026-04-26T07:01:10.989Z</time></trkpt><trkpt lat="41.00200525975022" lon="9.439998870716682"><ele>80.0</ele><time>2026-04-26T07:01:11.989Z</time></trkpt><trkpt lat="41.00218426903168" lon="9.439820752721577"><ele>80.0</ele><time>2026-04-26T07:01:12.989Z</time></trkpt><trkpt lat="41.00236267933437" lon="9.43964138202594"><ele>80.0</ele><time>2026-04-26T07:01:13.989Z</time></trkpt><trkpt lat="41.002547902520206" lon="9.43945463988969"><ele>79.5</ele><time>2026-04-26T07:01:14.989Z</time></trkpt><trkpt lat="41.00274437840429" lon="9.43927928976964"><ele>79.0</ele><time>2026-04-26T07:01:15.989Z</time></trkpt><trkpt lat="41.002957024783704" lon="9.43915839029249"><ele>79.0</ele><time>2026-04-26T07:01:16.989Z</time></trkpt><trkpt lat="41.00316419738087" lon="9.439041143093283"><ele>79.0</ele><time>2026-04-26T07:01:17.989Z</time></trkpt><trkpt lat="41.003362036270076" lon="9.438881408006342"><ele>78.33333333333333</ele><time>2026-04-26T07:01:18.989Z</time></trkpt><trkpt lat="41.003541266378576" lon="9.438704422592739"><ele>77.66666666666667</ele><time>2026-04-26T07:01:19.989Z</time></trkpt><trkpt lat="41.00368260354134" lon="9.438504579552301"><ele>77.0</ele><time>2026-04-26T07:01:20.989Z</time></trkpt><trkpt lat="41.00377880919759" lon="9.438256454912842"><ele>77.0</ele><time>2026-04-26T07:01:21.989Z</time></trkpt><trkpt lat="41.003861643294826" lon="9.43798837485527"><ele>77.0</ele><time>2026-04-26T07:01:22.989Z</time></trkpt><trkpt lat="41.0039987928829" lon="9.437756549618856"><ele>77.0</ele><time>2026-04-26T07:01:23.989Z</time></trkpt><trkpt lat="41.004170484760806" lon="9.43755121400387"><ele>78.0</ele><time>2026-04-26T07:01:24.989Z</time></trkpt><trkpt lat="41.004352406331684" lon="9.43734644698388"><ele>79.0</ele><time>2026-04-26T07:01:25.989Z</time></trkpt><trkpt lat="41.004542369330245" lon="9.43713055229923"><ele>75.0</ele><time>2026-04-26T07:01:26.989Z</time></trkpt><trkpt lat="41.00473635649573" lon="9.436907130541686"><ele>71.0</ele><time>2026-04-26T07:01:27.989Z</time></trkpt><trkpt lat="41.00492615806237" lon="9.436687828961157"><ele>68.5</ele><time>2026-04-26T07:01:28.989Z</time></trkpt><trkpt lat="41.00511544590288" lon="9.436481081556614"><ele>66.0</ele><time>2026-04-26T07:01:29.989Z</time></trkpt><trkpt lat="41.00530146084276" lon="9.43628504211317"><ele>66.0</ele><time>2026-04-26T07:01:30.989Z</time></trkpt><trkpt lat="41.005490100326774" lon="9.436120897760494"><ele>66.0</ele><time>2026-04-26T07:01:31.989Z</time></trkpt><trkpt lat="41.005672645552" lon="9.436007812154136"><ele>66.0</ele><time>2026-04-26T07:01:32.989Z</time></trkpt><trkpt lat="41.00585009669438" lon="9.435982551588241"><ele>69.33333333333333</ele><time>2026-04-26T07:01:33.989Z</time></trkpt><trkpt lat="41.00603195305279" lon="9.43604502175394"><ele>72.66666666666666</ele><time>2026-04-26T07:01:34.989Z</time></trkpt><trkpt lat="41.00618264568794" lon="9.436124313979382"><ele>76.0</ele><time>2026-04-26T07:01:35.989Z</time></trkpt><trkpt lat="41.006299657452296" lon="9.436139439146839"><ele>76.0</ele><time>2026-04-26T07:01:36.989Z</time></trkpt><trkpt lat="41.00639270468812" lon="9.43609424823619"><ele>76.0</ele><time>2026-04-26T07:01:37.989Z</time></trkpt><trkpt lat="41.00646550185753" lon="9.436002247510341"><ele>76.0</ele><time>2026-04-26T07:01:38.989Z</time></trkpt><trkpt lat="41.00653772758313" lon="9.435843739281173"><ele>76.0</ele><time>2026-04-26T07:01:39.989Z</time></trkpt><trkpt lat="41.0065966515693" lon="9.43564766808356"><ele>76.33333333333333</ele><time>2026-04-26T07:01:40.989Z</time></trkpt><trkpt lat="41.0066707698784" lon="9.435432575023713"><ele>76.66666666666667</ele><time>2026-04-26T07:01:41.989Z</time></trkpt><trkpt lat="41.00675857921336" lon="9.435201545997648"><ele>77.0</ele><time>2026-04-26T07:01:42.989Z</time></trkpt><trkpt lat="41.006845347815364" lon="9.434949502103665"><ele>77.0</ele><time>2026-04-26T07:01:43.989Z</time></trkpt><trkpt lat="41.00693404812777" lon="9.43468522920074"><ele>77.0</ele><time>2026-04-26T07:01:44.989Z</time></trkpt><trkpt lat="41.00702578474645" lon="9.434414570495033"><ele>77.0</ele><time>2026-04-26T07:01:45.989Z</time></trkpt><trkpt lat="41.007117091743154" lon="9.434135334992298"><ele>73.0</ele><time>2026-04-26T07:01:46.989Z</time></trkpt><trkpt lat="41.00720829981978" lon="9.433857042002673"><ele>69.0</ele><time>2026-04-26T07:01:47.989Z</time></trkpt><trkpt lat="41.00729624482866" lon="9.433587870195064"><ele>68.66666666666667</ele><time>2026-04-26T07:01:48.989Z</time></trkpt><trkpt lat="41.007383394775935" lon="9.433350579007424"><ele>68.33333333333334</ele><time>2026-04-26T07:01:49.989Z</time></trkpt><trkpt lat="41.007518503364004" lon="9.433171925988857"><ele>68.0</ele><time>2026-04-26T07:01:50.989Z</time></trkpt><trkpt lat="41.00770249031263" lon="9.433019138723884"><ele>69.66666666666667</ele><time>2026-04-26T07:01:51.989Z</time></trkpt><trkpt lat="41.00790024821689" lon="9.432878612077806"><ele>71.33333333333333</ele><time>2026-04-26T07:01:52.989Z</time></trkpt><trkpt lat="41.00811273888805" lon="9.43278317261997"><ele>73.0</ele><time>2026-04-26T07:01:53.989Z</time></trkpt><trkpt lat="41.00834023073369" lon="9.432708157341283"><ele>73.0</ele><time>2026-04-26T07:01:54.989Z</time></trkpt><trkpt lat="41.00855909509652" lon="9.432610443697872"><ele>73.0</ele><time>2026-04-26T07:01:55.989Z</time></trkpt><trkpt lat="41.00875947586834" lon="9.432510242036734"><ele>73.0</ele><time>2026-04-26T07:01:56.989Z</time></trkpt><trkpt lat="41.00893123452796" lon="9.432399068769584"><ele>73.0</ele><time>2026-04-26T07:01:57.989Z</time></trkpt><trkpt lat="41.009065538174355" lon="9.432217867067626"><ele>73.0</ele><time>2026-04-26T07:01:58.989Z</time></trkpt><trkpt lat="41.00917870848618" lon="9.43198234278151"><ele>73.0</ele><time>2026-04-26T07:01:59.989Z</time></trkpt><trkpt lat="41.00932462638156" lon="9.431754014100514"><ele>68.0</ele><time>2026-04-26T07:02:00.989Z</time></trkpt><trkpt lat="41.00949957835222" lon="9.431560346365844"><ele>63.0</ele><time>2026-04-26T07:02:01.989Z</time></trkpt><trkpt lat="41.00968396201626" lon="9.431375499531981"><ele>62.5</ele><time>2026-04-26T07:02:02.989Z</time></trkpt><trkpt lat="41.00988021675707" lon="9.43119626448384"><ele>62.0</ele><time>2026-04-26T07:02:03.99Z</time></trkpt><trkpt lat="41.01008332900222" lon="9.431019905421042"><ele>62.0</ele><time>2026-04-26T07:02:04.99Z</time></trkpt><trkpt lat="41.01028763573893" lon="9.43084594990611"><ele>62.0</ele><time>2026-04-26T07:02:05.99Z</time></trkpt><trkpt lat="41.01049366582513" lon="9.430679872612124"><ele>62.0</ele><time>2026-04-26T07:02:06.99Z</time></trkpt><trkpt lat="41.01070308572419" lon="9.430543690171339"><ele>62.0</ele><time>2026-04-26T07:02:07.99Z</time></trkpt><trkpt lat="41.01091388409759" lon="9.43043265305881"><ele>62.0</ele><time>2026-04-26T07:02:08.99Z</time></trkpt><trkpt lat="41.0111151801113" lon="9.430302892758041"><ele>62.0</ele><time>2026-04-26T07:02:09.991Z</time></trkpt><trkpt lat="41.01128115041074" lon="9.430129696725773"><ele>62.0</ele><time>2026-04-26T07:02:10.99Z</time></trkpt><trkpt lat="41.01144037526135" lon="9.429940170942633"><ele>62.0</ele><time>2026-04-26T07:02:11.99Z</time></trkpt><trkpt lat="41.01161564219027" lon="9.429783656328027"><ele>62.0</ele><time>2026-04-26T07:02:12.991Z</time></trkpt><trkpt lat="41.01181420771508" lon="9.429663339983232"><ele>62.0</ele><time>2026-04-26T07:02:13.99Z</time></trkpt><trkpt lat="41.01202483051409" lon="9.429570175971158"><ele>59.0</ele><time>2026-04-26T07:02:14.99Z</time></trkpt><trkpt lat="41.01223757835044" lon="9.42948712526762"><ele>56.0</ele><time>2026-04-26T07:02:15.99Z</time></trkpt><trkpt lat="41.012455518813944" lon="9.429406655749172"><ele>53.0</ele><time>2026-04-26T07:02:16.99Z</time></trkpt><trkpt lat="41.01267736800455" lon="9.429329510558585"><ele>51.333333333333336</ele><time>2026-04-26T07:02:17.99Z</time></trkpt><trkpt lat="41.01289807679898" lon="9.429252014058056"><ele>49.66666666666667</ele><time>2026-04-26T07:02:18.99Z</time></trkpt><trkpt lat="41.0131100366234" lon="9.429184070470791"><ele>48.0</ele><time>2026-04-26T07:02:19.99Z</time></trkpt><trkpt lat="41.01330348591108" lon="9.429094835257402"><ele>48.33333333333333</ele><time>2026-04-26T07:02:20.99Z</time></trkpt><trkpt lat="41.01347696866463" lon="9.42898079957706"><ele>48.666666666666664</ele><time>2026-04-26T07:02:21.99Z</time></trkpt><trkpt lat="41.013648381538154" lon="9.42887937666684"><ele>49.0</ele><time>2026-04-26T07:02:22.99Z</time></trkpt><trkpt lat="41.01382995259499" lon="9.428855122816394"><ele>49.0</ele><time>2026-04-26T07:02:23.99Z</time></trkpt><trkpt lat="41.01401458281676" lon="9.4288910775731"><ele>49.0</ele><time>2026-04-26T07:02:24.99Z</time></trkpt><trkpt lat="41.01419762393451" lon="9.428946028297442"><ele>49.0</ele><time>2026-04-26T07:02:25.99Z</time></trkpt><trkpt lat="41.01436981863947" lon="9.42900205800568"><ele>46.666666666666664</ele><time>2026-04-26T07:02:26.99Z</time></trkpt><trkpt lat="41.01453288265785" lon="9.429054640538565"><ele>44.33333333333333</ele><time>2026-04-26T07:02:27.99Z</time></trkpt><trkpt lat="41.0146889960057" lon="9.429112499543836"><ele>42.0</ele><time>2026-04-26T07:02:28.99Z</time></trkpt><trkpt lat="41.014843981764955" lon="9.429157945863917"><ele>40.666666666666664</ele><time>2026-04-26T07:02:29.99Z</time></trkpt><trkpt lat="41.01501502591765" lon="9.429196677044825"><ele>39.33333333333333</ele><time>2026-04-26T07:02:30.99Z</time></trkpt><trkpt lat="41.015196306183334" lon="9.42920744304996"><ele>38.0</ele><time>2026-04-26T07:02:31.99Z</time></trkpt><trkpt lat="41.01537514586497" lon="9.429193249646929"><ele>38.0</ele><time>2026-04-26T07:02:32.99Z</time></trkpt><trkpt lat="41.01553923765654" lon="9.429173164441865"><ele>38.0</ele><time>2026-04-26T07:02:33.99Z</time></trkpt><trkpt lat="41.015695890074134" lon="9.429142073131164"><ele>38.0</ele><time>2026-04-26T07:02:34.99Z</time></trkpt><trkpt lat="41.015868209012744" lon="9.429129513651423"><ele>39.0</ele><time>2026-04-26T07:02:35.99Z</time></trkpt><trkpt lat="41.01603043393566" lon="9.429122066303448"><ele>40.0</ele><time>2026-04-26T07:02:36.99Z</time></trkpt><trkpt lat="41.01618492789959" lon="9.429109072613208"><ele>41.0</ele><time>2026-04-26T07:02:37.99Z</time></trkpt><trkpt lat="41.016356583376975" lon="9.429065398364788"><ele>41.0</ele><time>2026-04-26T07:02:38.99Z</time></trkpt><trkpt lat="41.016488461656365" lon="9.429014772531593"><ele>41.0</ele><time>2026-04-26T07:02:39.99Z</time></trkpt><trkpt lat="41.01660255130936" lon="9.428940780115942"><ele>41.0</ele><time>2026-04-26T07:02:40.99Z</time></trkpt><trkpt lat="41.01671621958259" lon="9.428887026803647"><ele>41.0</ele><time>2026-04-26T07:02:41.99Z</time></trkpt><trkpt lat="41.01682105762744" lon="9.428812672037363"><ele>39.5</ele><time>2026-04-26T07:02:42.99Z</time></trkpt><trkpt lat="41.01692271621247" lon="9.428760526069762"><ele>38.0</ele><time>2026-04-26T07:02:43.99Z</time></trkpt><trkpt lat="41.017047998257816" lon="9.42870645377682"><ele>36.5</ele><time>2026-04-26T07:02:44.99Z</time></trkpt><trkpt lat="41.01716716039804" lon="9.42866276028223"><ele>35.0</ele><time>2026-04-26T07:02:45.99Z</time></trkpt><trkpt lat="41.01728633089427" lon="9.428639157046083"><ele>35.0</ele><time>2026-04-26T07:02:46.99Z</time></trkpt><trkpt lat="41.01741753201584" lon="9.428664423601477"><ele>35.0</ele><time>2026-04-26T07:02:47.99Z</time></trkpt><trkpt lat="41.01754778069296" lon="9.428702788159677"><ele>35.0</ele><time>2026-04-26T07:02:48.99Z</time></trkpt><trkpt lat="41.01766640251025" lon="9.428732245082681"><ele>35.0</ele><time>2026-04-26T07:02:49.99Z</time></trkpt><trkpt lat="41.017781961828234" lon="9.42875585632795"><ele>35.0</ele><time>2026-04-26T07:02:50.99Z</time></trkpt><trkpt lat="41.01789520962359" lon="9.428766577447316"><ele>35.0</ele><time>2026-04-26T07:02:51.99Z</time></trkpt><trkpt lat="41.01801197349702" lon="9.42875433447462"><ele>35.0</ele><time>2026-04-26T07:02:52.99Z</time></trkpt><trkpt lat="41.018134865606044" lon="9.428735511495136"><ele>35.0</ele><time>2026-04-26T07:02:53.99Z</time></trkpt><trkpt lat="41.01826147228199" lon="9.428717836762646"><ele>35.25</ele><time>2026-04-26T07:02:54.99Z</time></trkpt><trkpt lat="41.018387632564284" lon="9.428724987285891"><ele>35.5</ele><time>2026-04-26T07:02:55.99Z</time></trkpt><trkpt lat="41.01853440253887" lon="9.428761285695074"><ele>35.75</ele><time>2026-04-26T07:02:56.99Z</time></trkpt><trkpt lat="41.018697106714946" lon="9.42882322540157"><ele>36.0</ele><time>2026-04-26T07:02:57.99Z</time></trkpt><trkpt lat="41.018866656880846" lon="9.428883993213095"><ele>38.333333333333336</ele><time>2026-04-26T07:02:58.99Z</time></trkpt><trkpt lat="41.01902843180056" lon="9.428933054729818"><ele>40.66666666666667</ele><time>2026-04-26T07:02:59.99Z</time></trkpt><trkpt lat="41.01918456011988" lon="9.428974278674296"><ele>43.0</ele><time>2026-04-26T07:03:00.99Z</time></trkpt><trkpt lat="41.01934409018997" lon="9.42899890856259"><ele>43.0</ele><time>2026-04-26T07:03:01.99Z</time></trkpt><trkpt lat="41.01950803264187" lon="9.4289993841175"><ele>43.0</ele><time>2026-04-26T07:03:02.99Z</time></trkpt><trkpt lat="41.01966717424078" lon="9.42897279678429"><ele>43.0</ele><time>2026-04-26T07:03:03.99Z</time></trkpt><trkpt lat="41.01982941884226" lon="9.428906485345623"><ele>41.0</ele><time>2026-04-26T07:03:04.99Z</time></trkpt><trkpt lat="41.01998859149687" lon="9.428794216433824"><ele>39.0</ele><time>2026-04-26T07:03:05.99Z</time></trkpt><trkpt lat="41.02014312739964" lon="9.428656290942053"><ele>37.0</ele><time>2026-04-26T07:03:06.989Z</time></trkpt><trkpt lat="41.020294334229646" lon="9.428519780942505"><ele>37.0</ele><time>2026-04-26T07:03:07.989Z</time></trkpt><trkpt lat="41.0204407951976" lon="9.428391013574805"><ele>37.0</ele><time>2026-04-26T07:03:08.989Z</time></trkpt><trkpt lat="41.02057600771997" lon="9.428275157920194"><ele>37.0</ele><time>2026-04-26T07:03:09.989Z</time></trkpt><trkpt lat="41.02070702858304" lon="9.428160957355503"><ele>38.0</ele><time>2026-04-26T07:03:10.989Z</time></trkpt><trkpt lat="41.02083151601046" lon="9.42805446616331"><ele>39.0</ele><time>2026-04-26T07:03:11.989Z</time></trkpt><trkpt lat="41.02097142502318" lon="9.427974133632398"><ele>40.0</ele><time>2026-04-26T07:03:12.989Z</time></trkpt><trkpt lat="41.021149800170996" lon="9.427913577992786"><ele>37.0</ele><time>2026-04-26T07:03:13.989Z</time></trkpt><trkpt lat="41.02137344316615" lon="9.4278675611899"><ele>34.0</ele><time>2026-04-26T07:03:14.989Z</time></trkpt><trkpt lat="41.021602998173904" lon="9.427835412158444"><ele>34.0</ele><time>2026-04-26T07:03:15.989Z</time></trkpt><trkpt lat="41.021808066570884" lon="9.4278025668894"><ele>34.0</ele><time>2026-04-26T07:03:16.989Z</time></trkpt><trkpt lat="41.02199358636541" lon="9.427769058083626"><ele>34.0</ele><time>2026-04-26T07:03:17.989Z</time></trkpt><trkpt lat="41.022157082234635" lon="9.427740443106453"><ele>34.0</ele><time>2026-04-26T07:03:18.989Z</time></trkpt><trkpt lat="41.02231004154139" lon="9.427731866931218"><ele>34.0</ele><time>2026-04-26T07:03:19.989Z</time></trkpt><trkpt lat="41.02247451997006" lon="9.427735441565025"><ele>34.0</ele><time>2026-04-26T07:03:20.989Z</time></trkpt><trkpt lat="41.02267444297776" lon="9.427782521335688"><ele>33.66666666666667</ele><time>2026-04-26T07:03:21.989Z</time></trkpt><trkpt lat="41.02287883274334" lon="9.427872614825652"><ele>33.333333333333336</ele><time>2026-04-26T07:03:22.989Z</time></trkpt><trkpt lat="41.02309327805619" lon="9.427978613034059"><ele>33.0</ele><time>2026-04-26T07:03:23.989Z</time></trkpt><trkpt lat="41.02330843320634" lon="9.42808585648083"><ele>35.0</ele><time>2026-04-26T07:03:24.989Z</time></trkpt><trkpt lat="41.02351612970797" lon="9.428202705933654"><ele>37.0</ele><time>2026-04-26T07:03:25.989Z</time></trkpt><trkpt lat="41.023738291085586" lon="9.428331516749571"><ele>37.0</ele><time>2026-04-26T07:03:26.989Z</time></trkpt><trkpt lat="41.02397071783648" lon="9.428470583535995"><ele>37.0</ele><time>2026-04-26T07:03:27.989Z</time></trkpt><trkpt lat="41.024209198301875" lon="9.428628861330129"><ele>37.5</ele><time>2026-04-26T07:03:28.989Z</time></trkpt><trkpt lat="41.02445902911605" lon="9.428792116143287"><ele>38.0</ele><time>2026-04-26T07:03:29.989Z</time></trkpt><trkpt lat="41.024717139798085" lon="9.428946518169994"><ele>34.5</ele><time>2026-04-26T07:03:30.989Z</time></trkpt><trkpt lat="41.024982445944616" lon="9.429098327287466"><ele>31.0</ele><time>2026-04-26T07:03:31.989Z</time></trkpt><trkpt lat="41.02524868150838" lon="9.429248477653344"><ele>31.0</ele><time>2026-04-26T07:03:32.989Z</time></trkpt><trkpt lat="41.025515654441406" lon="9.429394876177309"><ele>31.0</ele><time>2026-04-26T07:03:33.989Z</time></trkpt><trkpt lat="41.025784952033916" lon="9.429537270054867"><ele>33.5</ele><time>2026-04-26T07:03:34.989Z</time></trkpt><trkpt lat="41.0260527999823" lon="9.429668264844096"><ele>36.0</ele><time>2026-04-26T07:03:35.989Z</time></trkpt><trkpt lat="41.02631908124988" lon="9.429790107324829"><ele>36.0</ele><time>2026-04-26T07:03:36.989Z</time></trkpt><trkpt lat="41.02657506502926" lon="9.429899218095246"><ele>36.0</ele><time>2026-04-26T07:03:37.989Z</time></trkpt><trkpt lat="41.02682399205362" lon="9.430014340033237"><ele>34.5</ele><time>2026-04-26T07:03:38.989Z</time></trkpt><trkpt lat="41.02705248864943" lon="9.430136171540608"><ele>33.0</ele><time>2026-04-26T07:03:39.989Z</time></trkpt><trkpt lat="41.027253593324154" lon="9.430298395175175"><ele>33.0</ele><time>2026-04-26T07:03:40.989Z</time></trkpt><trkpt lat="41.02743525876702" lon="9.430485515998546"><ele>33.0</ele><time>2026-04-26T07:03:41.989Z</time></trkpt><trkpt lat="41.027617978035195" lon="9.430641161956043"><ele>33.0</ele><time>2026-04-26T07:03:42.989Z</time></trkpt><trkpt lat="41.02782628192843" lon="9.430722017703161"><ele>33.0</ele><time>2026-04-26T07:03:43.989Z</time></trkpt><trkpt lat="41.0280566608823" lon="9.430734214838285"><ele>33.0</ele><time>2026-04-26T07:03:44.989Z</time></trkpt><trkpt lat="41.02828811808719" lon="9.430777353727036"><ele>33.0</ele><time>2026-04-26T07:03:45.989Z</time></trkpt><trkpt lat="41.02850374197018" lon="9.430883569333888"><ele>33.0</ele><time>2026-04-26T07:03:46.989Z</time></trkpt><trkpt lat="41.02872434231865" lon="9.43098998640641"><ele>33.0</ele><time>2026-04-26T07:03:47.989Z</time></trkpt><trkpt lat="41.02894778466922" lon="9.431031749927927"><ele>33.0</ele><time>2026-04-26T07:03:48.989Z</time></trkpt><trkpt lat="41.02919195310509" lon="9.431049742852654"><ele>32.0</ele><time>2026-04-26T07:03:49.989Z</time></trkpt><trkpt lat="41.02943780425496" lon="9.431062166156885"><ele>31.0</ele><time>2026-04-26T07:03:50.989Z</time></trkpt><trkpt lat="41.029685666970124" lon="9.431074351982302"><ele>31.0</ele><time>2026-04-26T07:03:51.989Z</time></trkpt><trkpt lat="41.02994948642334" lon="9.431126018039038"><ele>31.0</ele><time>2026-04-26T07:03:52.989Z</time></trkpt><trkpt lat="41.03021383032991" lon="9.431200709817999"><ele>30.5</ele><time>2026-04-26T07:03:53.989Z</time></trkpt><trkpt lat="41.03046360264243" lon="9.431295836258606"><ele>30.0</ele><time>2026-04-26T07:03:54.989Z</time></trkpt><trkpt lat="41.030705528103525" lon="9.431405351101361"><ele>32.0</ele><time>2026-04-26T07:03:55.989Z</time></trkpt><trkpt lat="41.03093930786886" lon="9.431540875501467"><ele>34.0</ele><time>2026-04-26T07:03:56.989Z</time></trkpt><trkpt lat="41.031170356373096" lon="9.431713130957409"><ele>34.0</ele><time>2026-04-26T07:03:57.989Z</time></trkpt><trkpt lat="41.031391808960386" lon="9.431903743847842"><ele>34.0</ele><time>2026-04-26T07:03:58.989Z</time></trkpt><trkpt lat="41.031623229453935" lon="9.432050509359877"><ele>34.5</ele><time>2026-04-26T07:03:59.989Z</time></trkpt><trkpt lat="41.03187840146279" lon="9.432151592862251"><ele>35.0</ele><time>2026-04-26T07:04:00.989Z</time></trkpt><trkpt lat="41.03214198735923" lon="9.43222889049707"><ele>35.0</ele><time>2026-04-26T07:04:01.989Z</time></trkpt><trkpt lat="41.03240515179364" lon="9.43230706983607"><ele>35.0</ele><time>2026-04-26T07:04:02.989Z</time></trkpt><trkpt lat="41.03266575433681" lon="9.432420301841939"><ele>33.0</ele><time>2026-04-26T07:04:03.989Z</time></trkpt><trkpt lat="41.032921813745965" lon="9.432553761768357"><ele>31.0</ele><time>2026-04-26T07:04:04.989Z</time></trkpt><trkpt lat="41.033175383388674" lon="9.432688549949265"><ele>28.5</ele><time>2026-04-26T07:04:05.989Z</time></trkpt><trkpt lat="41.033428244111825" lon="9.432821255521619"><ele>26.0</ele><time>2026-04-26T07:04:06.989Z</time></trkpt><trkpt lat="41.03366646396633" lon="9.43295135532152"><ele>29.666666666666664</ele><time>2026-04-26T07:04:07.989Z</time></trkpt><trkpt lat="41.03385990294259" lon="9.433089423754716"><ele>33.333333333333336</ele><time>2026-04-26T07:04:08.989Z</time></trkpt><trkpt lat="41.03399893363941" lon="9.433260114020502"><ele>37.0</ele><time>2026-04-26T07:04:09.991Z</time></trkpt><trkpt lat="41.03413420905626" lon="9.433461817625485"><ele>34.333333333333336</ele><time>2026-04-26T07:04:10.99Z</time></trkpt><trkpt lat="41.03427563152085" lon="9.433615034597787"><ele>31.666666666666664</ele><time>2026-04-26T07:04:11.989Z</time></trkpt><trkpt lat="41.03445396338876" lon="9.433693311089185"><ele>29.0</ele><time>2026-04-26T07:04:12.991Z</time></trkpt><trkpt lat="41.0346689035528" lon="9.43372120052058"><ele>29.0</ele><time>2026-04-26T07:04:13.99Z</time></trkpt><trkpt lat="41.03487117236602" lon="9.433722826818682"><ele>29.0</ele><time>2026-04-26T07:04:14.99Z</time></trkpt><trkpt lat="41.03504505064746" lon="9.433657978893207"><ele>29.0</ele><time>2026-04-26T07:04:15.99Z</time></trkpt><trkpt lat="41.03521275177485" lon="9.433527510048116"><ele>27.666666666666664</ele><time>2026-04-26T07:04:16.99Z</time></trkpt><trkpt lat="41.035375057282195" lon="9.433420427860389"><ele>26.333333333333336</ele><time>2026-04-26T07:04:17.99Z</time></trkpt><trkpt lat="41.035557210216275" lon="9.433412019823034"><ele>25.0</ele><time>2026-04-26T07:04:18.99Z</time></trkpt><trkpt lat="41.0357596147273" lon="9.43347192709553"><ele>25.5</ele><time>2026-04-26T07:04:19.99Z</time></trkpt><trkpt lat="41.03597311748032" lon="9.433548526006666"><ele>26.0</ele><time>2026-04-26T07:04:20.99Z</time></trkpt><trkpt lat="41.03620446733523" lon="9.433622377633668"><ele>26.0</ele><time>2026-04-26T07:04:21.99Z</time></trkpt><trkpt lat="41.036443880602455" lon="9.43369744253486"><ele>26.0</ele><time>2026-04-26T07:04:22.99Z</time></trkpt><trkpt lat="41.03669407596915" lon="9.433769365491484"><ele>26.5</ele><time>2026-04-26T07:04:23.99Z</time></trkpt><trkpt lat="41.036950317251765" lon="9.433849975690604"><ele>27.0</ele><time>2026-04-26T07:04:24.99Z</time></trkpt><trkpt lat="41.037211488201955" lon="9.43393389478079"><ele>26.5</ele><time>2026-04-26T07:04:25.99Z</time></trkpt><trkpt lat="41.037472390544494" lon="9.43401984810122"><ele>26.0</ele><time>2026-04-26T07:04:26.99Z</time></trkpt><trkpt lat="41.03773196125516" lon="9.434105390621102"><ele>26.0</ele><time>2026-04-26T07:04:27.99Z</time></trkpt><trkpt lat="41.037990974381295" lon="9.434188184408056"><ele>26.0</ele><time>2026-04-26T07:04:28.99Z</time></trkpt><trkpt lat="41.03824881063087" lon="9.434259969903364"><ele>26.0</ele><time>2026-04-26T07:04:29.99Z</time></trkpt><trkpt lat="41.038513860237245" lon="9.434312957561177"><ele>26.0</ele><time>2026-04-26T07:04:30.99Z</time></trkpt><trkpt lat="41.03878484663382" lon="9.434342489497729"><ele>26.0</ele><time>2026-04-26T07:04:31.99Z</time></trkpt><trkpt lat="41.03905653725939" lon="9.43436560680912"><ele>26.0</ele><time>2026-04-26T07:04:32.99Z</time></trkpt><trkpt lat="41.03932172381224" lon="9.434394216620653"><ele>25.0</ele><time>2026-04-26T07:04:33.99Z</time></trkpt><trkpt lat="41.03958228058301" lon="9.434413676152996"><ele>24.0</ele><time>2026-04-26T07:04:34.99Z</time></trkpt><trkpt lat="41.03983599549594" lon="9.434446999805415"><ele>23.5</ele><time>2026-04-26T07:04:35.99Z</time></trkpt><trkpt lat="41.04008663645493" lon="9.434504338986807"><ele>23.0</ele><time>2026-04-26T07:04:36.99Z</time></trkpt><trkpt lat="41.04033541595873" lon="9.434583485764657"><ele>25.0</ele><time>2026-04-26T07:04:37.99Z</time></trkpt><trkpt lat="41.04058614224338" lon="9.434679149500848"><ele>27.0</ele><time>2026-04-26T07:04:38.99Z</time></trkpt><trkpt lat="41.040834759856025" lon="9.434775086566068"><ele>27.0</ele><time>2026-04-26T07:04:39.99Z</time></trkpt><trkpt lat="41.04108667827122" lon="9.434868801008834"><ele>27.0</ele><time>2026-04-26T07:04:40.99Z</time></trkpt><trkpt lat="41.04133865416838" lon="9.43496581915172"><ele>27.0</ele><time>2026-04-26T07:04:41.99Z</time></trkpt><trkpt lat="41.041581185507376" lon="9.43505592127844"><ele>27.0</ele><time>2026-04-26T07:04:42.99Z</time></trkpt><trkpt lat="41.0418240836126" lon="9.435148150725832"><ele>25.5</ele><time>2026-04-26T07:04:43.99Z</time></trkpt><trkpt lat="41.04207383809127" lon="9.435231491314193"><ele>24.0</ele><time>2026-04-26T07:04:44.99Z</time></trkpt><trkpt lat="41.04232502167508" lon="9.435282086708241"><ele>23.0</ele><time>2026-04-26T07:04:45.99Z</time></trkpt><trkpt lat="41.04258220866401" lon="9.435313800423188"><ele>22.0</ele><time>2026-04-26T07:04:46.99Z</time></trkpt><trkpt lat="41.04284302052108" lon="9.435331659395185"><ele>22.0</ele><time>2026-04-26T07:04:47.99Z</time></trkpt><trkpt lat="41.0431061286061" lon="9.43535306529689"><ele>22.0</ele><time>2026-04-26T07:04:48.99Z</time></trkpt><trkpt lat="41.043370783821224" lon="9.435377512585646"><ele>20.5</ele><time>2026-04-26T07:04:49.99Z</time></trkpt><trkpt lat="41.04363827342541" lon="9.435405733258683"><ele>19.0</ele><time>2026-04-26T07:04:50.99Z</time></trkpt><trkpt lat="41.04389946493494" lon="9.435424164532803"><ele>19.5</ele><time>2026-04-26T07:04:51.99Z</time></trkpt><trkpt lat="41.04415718836163" lon="9.435449417505321"><ele>20.0</ele><time>2026-04-26T07:04:52.99Z</time></trkpt><trkpt lat="41.044405406478276" lon="9.435454380862554"><ele>20.0</ele><time>2026-04-26T07:04:53.99Z</time></trkpt><trkpt lat="41.04464349273536" lon="9.435440729852676"><ele>20.0</ele><time>2026-04-26T07:04:54.99Z</time></trkpt><trkpt lat="41.04487724655725" lon="9.43540511790296"><ele>19.666666666666668</ele><time>2026-04-26T07:04:55.99Z</time></trkpt><trkpt lat="41.04510082877341" lon="9.435374922416578"><ele>19.333333333333332</ele><time>2026-04-26T07:04:56.99Z</time></trkpt><trkpt lat="41.0453120868396" lon="9.43536413034619"><ele>19.0</ele><time>2026-04-26T07:04:57.99Z</time></trkpt><trkpt lat="41.04551288315904" lon="9.435380518502074"><ele>19.0</ele><time>2026-04-26T07:04:58.99Z</time></trkpt><trkpt lat="41.04569896064084" lon="9.435421295300022"><ele>19.0</ele><time>2026-04-26T07:04:59.99Z</time></trkpt><trkpt lat="41.04586521772462" lon="9.435469226906651"><ele>19.0</ele><time>2026-04-26T07:05:00.99Z</time></trkpt><trkpt lat="41.04601847673398" lon="9.435520531079073"><ele>21.25</ele><time>2026-04-26T07:05:01.99Z</time></trkpt><trkpt lat="41.04616054583908" lon="9.435567668072544"><ele>23.5</ele><time>2026-04-26T07:05:02.99Z</time></trkpt><trkpt lat="41.04628573394857" lon="9.435646838548996"><ele>25.75</ele><time>2026-04-26T07:05:03.99Z</time></trkpt><trkpt lat="41.04639505271282" lon="9.43575946446364"><ele>28.0</ele><time>2026-04-26T07:05:04.99Z</time></trkpt><trkpt lat="41.04648623666598" lon="9.435846464668765"><ele>28.0</ele><time>2026-04-26T07:05:05.99Z</time></trkpt><trkpt lat="41.0465761033745" lon="9.43591873595992"><ele>28.0</ele><time>2026-04-26T07:05:06.99Z</time></trkpt><trkpt lat="41.046676850947996" lon="9.435961698365647"><ele>28.0</ele><time>2026-04-26T07:05:07.99Z</time></trkpt><trkpt lat="41.04679290206278" lon="9.435983361731768"><ele>28.0</ele><time>2026-04-26T07:05:08.99Z</time></trkpt><trkpt lat="41.04691815688474" lon="9.435967109147208"><ele>25.666666666666668</ele><time>2026-04-26T07:05:09.99Z</time></trkpt><trkpt lat="41.04706970610189" lon="9.43594039047198"><ele>23.333333333333336</ele><time>2026-04-26T07:05:10.99Z</time></trkpt><trkpt lat="41.04722766160297" lon="9.435898553495585"><ele>21.0</ele><time>2026-04-26T07:05:11.99Z</time></trkpt><trkpt lat="41.047385275450054" lon="9.435821800671995"><ele>22.0</ele><time>2026-04-26T07:05:12.989Z</time></trkpt><trkpt lat="41.047539533614334" lon="9.43571382640391"><ele>23.0</ele><time>2026-04-26T07:05:13.989Z</time></trkpt><trkpt lat="41.04767189214224" lon="9.435610371420154"><ele>24.0</ele><time>2026-04-26T07:05:14.989Z</time></trkpt><trkpt lat="41.047804366072306" lon="9.435550133875259"><ele>24.0</ele><time>2026-04-26T07:05:15.989Z</time></trkpt><trkpt lat="41.04794120462542" lon="9.435538807875538"><ele>24.0</ele><time>2026-04-26T07:05:16.989Z</time></trkpt><trkpt lat="41.04809381719213" lon="9.435578433610006"><ele>24.0</ele><time>2026-04-26T07:05:17.989Z</time></trkpt><trkpt lat="41.04826741713195" lon="9.435636844755658"><ele>22.666666666666668</ele><time>2026-04-26T07:05:18.989Z</time></trkpt><trkpt lat="41.04847025691058" lon="9.435711399353595"><ele>21.333333333333336</ele><time>2026-04-26T07:05:19.989Z</time></trkpt><trkpt lat="41.04867520001385" lon="9.435776569519112"><ele>20.0</ele><time>2026-04-26T07:05:20.989Z</time></trkpt><trkpt lat="41.04889096836567" lon="9.435853658415754"><ele>20.0</ele><time>2026-04-26T07:05:21.989Z</time></trkpt><trkpt lat="41.04909056682995" lon="9.435922904033633"><ele>20.0</ele><time>2026-04-26T07:05:22.989Z</time></trkpt><trkpt lat="41.049275403368696" lon="9.435987403755295"><ele>20.0</ele><time>2026-04-26T07:05:23.989Z</time></trkpt><trkpt lat="41.049449511857176" lon="9.436052408267065"><ele>19.333333333333336</ele><time>2026-04-26T07:05:24.989Z</time></trkpt><trkpt lat="41.04961176153843" lon="9.436109786223255"><ele>18.666666666666668</ele><time>2026-04-26T07:05:25.989Z</time></trkpt><trkpt lat="41.04977037277269" lon="9.436165542019138"><ele>18.0</ele><time>2026-04-26T07:05:26.989Z</time></trkpt><trkpt lat="41.049927226050826" lon="9.436220522834168"><ele>17.75</ele><time>2026-04-26T07:05:27.989Z</time></trkpt><trkpt lat="41.05007425533999" lon="9.436258907251652"><ele>17.5</ele><time>2026-04-26T07:05:28.989Z</time></trkpt><trkpt lat="41.05021253711537" lon="9.436257219763927"><ele>17.25</ele><time>2026-04-26T07:05:29.989Z</time></trkpt><trkpt lat="41.050330652726025" lon="9.436197010300656"><ele>17.0</ele><time>2026-04-26T07:05:30.989Z</time></trkpt><trkpt lat="41.05041537815708" lon="9.43609705479404"><ele>17.0</ele><time>2026-04-26T07:05:31.989Z</time></trkpt><trkpt lat="41.05047369047627" lon="9.4359597135049"><ele>17.0</ele><time>2026-04-26T07:05:32.989Z</time></trkpt><trkpt lat="41.05052244949459" lon="9.435788775875343"><ele>17.0</ele><time>2026-04-26T07:05:33.989Z</time></trkpt><trkpt lat="41.050576508911256" lon="9.435626181715984"><ele>17.0</ele><time>2026-04-26T07:05:34.989Z</time></trkpt><trkpt lat="41.050619715347715" lon="9.43551417416797"><ele>17.166666666666668</ele><time>2026-04-26T07:05:35.989Z</time></trkpt><trkpt lat="41.05065693343206" lon="9.435418313559778"><ele>17.333333333333336</ele><time>2026-04-26T07:05:36.989Z</time></trkpt><trkpt lat="41.05069047234514" lon="9.435326380890702"><ele>17.5</ele><time>2026-04-26T07:05:37.989Z</time></trkpt><trkpt lat="41.05073129256153" lon="9.435225378635758"><ele>17.666666666666668</ele><time>2026-04-26T07:05:38.989Z</time></trkpt><trkpt lat="41.0507766551153" lon="9.435122929901022"><ele>17.833333333333332</ele><time>2026-04-26T07:05:39.989Z</time></trkpt><trkpt lat="41.05083314392886" lon="9.435033896739611"><ele>18.0</ele><time>2026-04-26T07:05:40.989Z</time></trkpt><trkpt lat="41.050908122518805" lon="9.434957139624254"><ele>18.0</ele><time>2026-04-26T07:05:41.989Z</time></trkpt><trkpt lat="41.05099701658076" lon="9.434893797519294"><ele>18.0</ele><time>2026-04-26T07:05:42.989Z</time></trkpt><trkpt lat="41.05110352596692" lon="9.43485784909553"><ele>18.0</ele><time>2026-04-26T07:05:43.989Z</time></trkpt><trkpt lat="41.0512181090788" lon="9.434862463670488"><ele>18.0</ele><time>2026-04-26T07:05:44.989Z</time></trkpt><trkpt lat="41.05133333518196" lon="9.434879416359161"><ele>18.0</ele><time>2026-04-26T07:05:45.989Z</time></trkpt><trkpt lat="41.051448702229735" lon="9.43490232576046"><ele>18.0</ele><time>2026-04-26T07:05:46.989Z</time></trkpt><trkpt lat="41.05156935403437" lon="9.434907857903656"><ele>18.0</ele><time>2026-04-26T07:05:47.989Z</time></trkpt><trkpt lat="41.0517011829763" lon="9.434896062892038"><ele>18.0</ele><time>2026-04-26T07:05:48.989Z</time></trkpt><trkpt lat="41.05183851688845" lon="9.434841361572415"><ele>18.0</ele><time>2026-04-26T07:05:49.989Z</time></trkpt><trkpt lat="41.05202192758714" lon="9.434721618376187"><ele>17.666666666666668</ele><time>2026-04-26T07:05:50.989Z</time></trkpt><trkpt lat="41.0522166317254" lon="9.434629799829413"><ele>17.333333333333336</ele><time>2026-04-26T07:05:51.989Z</time></trkpt><trkpt lat="41.0523876741677" lon="9.434546742684931"><ele>17.0</ele><time>2026-04-26T07:05:52.989Z</time></trkpt><trkpt lat="41.05254105963736" lon="9.434471506459259"><ele>17.0</ele><time>2026-04-26T07:05:53.989Z</time></trkpt><trkpt lat="41.052693869278855" lon="9.434417389416348"><ele>17.0</ele><time>2026-04-26T07:05:54.989Z</time></trkpt><trkpt lat="41.05285066256561" lon="9.434382851680251"><ele>17.0</ele><time>2026-04-26T07:05:55.989Z</time></trkpt><trkpt lat="41.05301755312859" lon="9.434384842721425"><ele>17.0</ele><time>2026-04-26T07:05:56.989Z</time></trkpt><trkpt lat="41.05318558224048" lon="9.434416915898971"><ele>17.0</ele><time>2026-04-26T07:05:57.989Z</time></trkpt><trkpt lat="41.05334110466355" lon="9.434471719365598"><ele>17.0</ele><time>2026-04-26T07:05:58.989Z</time></trkpt><trkpt lat="41.05350491997603" lon="9.43450327140322"><ele>16.666666666666668</ele><time>2026-04-26T07:05:59.989Z</time></trkpt><trkpt lat="41.05367744897195" lon="9.434538361851736"><ele>16.333333333333332</ele><time>2026-04-26T07:06:00.989Z</time></trkpt><trkpt lat="41.05385335527702" lon="9.434555829940168"><ele>16.0</ele><time>2026-04-26T07:06:01.989Z</time></trkpt><trkpt lat="41.054031096346975" lon="9.434563459039271"><ele>16.0</ele><time>2026-04-26T07:06:02.989Z</time></trkpt><trkpt lat="41.05421767858705" lon="9.43456616999304"><ele>16.0</ele><time>2026-04-26T07:06:03.989Z</time></trkpt><trkpt lat="41.054406814497156" lon="9.434574796858803"><ele>16.0</ele><time>2026-04-26T07:06:04.989Z</time></trkpt><trkpt lat="41.054597048226285" lon="9.43458687868917"><ele>16.0</ele><time>2026-04-26T07:06:05.989Z</time></trkpt><trkpt lat="41.054780956399185" lon="9.434592206644924"><ele>16.0</ele><time>2026-04-26T07:06:06.989Z</time></trkpt><trkpt lat="41.05497241916203" lon="9.43460748924294"><ele>16.0</ele><time>2026-04-26T07:06:07.989Z</time></trkpt><trkpt lat="41.05516502564532" lon="9.434620500513008"><ele>16.0</ele><time>2026-04-26T07:06:08.989Z</time></trkpt><trkpt lat="41.05535703103902" lon="9.43462458176844"><ele>16.0</ele><time>2026-04-26T07:06:09.989Z</time></trkpt><trkpt lat="41.05553865944183" lon="9.434621788181081"><ele>16.0</ele><time>2026-04-26T07:06:10.989Z</time></trkpt><trkpt lat="41.055700939161234" lon="9.434615901576025"><ele>15.75</ele><time>2026-04-26T07:06:11.989Z</time></trkpt><trkpt lat="41.05585309126783" lon="9.434610369631942"><ele>15.5</ele><time>2026-04-26T07:06:12.989Z</time></trkpt><trkpt lat="41.05599921337225" lon="9.434605264598687"><ele>15.25</ele><time>2026-04-26T07:06:13.989Z</time></trkpt><trkpt lat="41.056132645915255" lon="9.434603918276538"><ele>15.0</ele><time>2026-04-26T07:06:14.989Z</time></trkpt><trkpt lat="41.05626149827733" lon="9.43460758311054"><ele>15.0</ele><time>2026-04-26T07:06:15.99Z</time></trkpt><trkpt lat="41.05638309359428" lon="9.434635110078982"><ele>15.0</ele><time>2026-04-26T07:06:16.99Z</time></trkpt><trkpt lat="41.05651782928383" lon="9.434679413683638"><ele>15.0</ele><time>2026-04-26T07:06:17.99Z</time></trkpt><trkpt lat="41.05666390418582" lon="9.43475055206038"><ele>15.0</ele><time>2026-04-26T07:06:18.99Z</time></trkpt><trkpt lat="41.05682125591466" lon="9.434822076029027"><ele>17.333333333333332</ele><time>2026-04-26T07:06:19.99Z</time></trkpt><trkpt lat="41.056982463285124" lon="9.43489570963964"><ele>19.666666666666664</ele><time>2026-04-26T07:06:20.99Z</time></trkpt><trkpt lat="41.05713365322315" lon="9.434961627015756"><ele>22.0</ele><time>2026-04-26T07:06:21.99Z</time></trkpt><trkpt lat="41.057276167339424" lon="9.435036957188755"><ele>22.0</ele><time>2026-04-26T07:06:22.99Z</time></trkpt><trkpt lat="41.05740957759696" lon="9.4351141251815"><ele>22.0</ele><time>2026-04-26T07:06:23.99Z</time></trkpt><trkpt lat="41.0575435495353" lon="9.435209576210408"><ele>22.0</ele><time>2026-04-26T07:06:24.99Z</time></trkpt><trkpt lat="41.05767807827965" lon="9.435300753073992"><ele>22.0</ele><time>2026-04-26T07:06:25.989Z</time></trkpt><trkpt lat="41.05781408078089" lon="9.435396636840709"><ele>22.75</ele><time>2026-04-26T07:06:26.989Z</time></trkpt><trkpt lat="41.05794209555749" lon="9.43549134690783"><ele>23.5</ele><time>2026-04-26T07:06:27.99Z</time></trkpt><trkpt lat="41.058068528097955" lon="9.435562352583304"><ele>24.25</ele><time>2026-04-26T07:06:28.99Z</time></trkpt><trkpt lat="41.0582148507213" lon="9.435615161484812"><ele>25.0</ele><time>2026-04-26T07:06:29.99Z</time></trkpt><trkpt lat="41.058410135639775" lon="9.43563586345542"><ele>25.0</ele><time>2026-04-26T07:06:30.99Z</time></trkpt><trkpt lat="41.05865332836644" lon="9.435676005284728"><ele>25.0</ele><time>2026-04-26T07:06:31.99Z</time></trkpt><trkpt lat="41.05891963373746" lon="9.435748505396305"><ele>21.5</ele><time>2026-04-26T07:06:32.99Z</time></trkpt><trkpt lat="41.05920365004098" lon="9.435823321132801"><ele>18.0</ele><time>2026-04-26T07:06:33.99Z</time></trkpt><trkpt lat="41.059480613765075" lon="9.435877765913554"><ele>18.0</ele><time>2026-04-26T07:06:34.99Z</time></trkpt><trkpt lat="41.05973867448278" lon="9.435928055315266"><ele>18.0</ele><time>2026-04-26T07:06:35.99Z</time></trkpt><trkpt lat="41.05996977894705" lon="9.435982115269834"><ele>18.333333333333332</ele><time>2026-04-26T07:06:36.99Z</time></trkpt><trkpt lat="41.06018292299802" lon="9.436013721260935"><ele>18.666666666666664</ele><time>2026-04-26T07:06:37.99Z</time></trkpt><trkpt lat="41.06039558801039" lon="9.435981367937911"><ele>19.0</ele><time>2026-04-26T07:06:38.99Z</time></trkpt><trkpt lat="41.06061545225097" lon="9.435869968273455"><ele>19.5</ele><time>2026-04-26T07:06:39.99Z</time></trkpt><trkpt lat="41.06083323251026" lon="9.435697925524996"><ele>20.0</ele><time>2026-04-26T07:06:40.99Z</time></trkpt><trkpt lat="41.061046396099435" lon="9.435493944795166"><ele>17.0</ele><time>2026-04-26T07:06:41.99Z</time></trkpt><trkpt lat="41.06126260817363" lon="9.435266237207081"><ele>14.0</ele><time>2026-04-26T07:06:42.99Z</time></trkpt><trkpt lat="41.06149004112823" lon="9.435031489855225"><ele>14.0</ele><time>2026-04-26T07:06:43.99Z</time></trkpt><trkpt lat="41.06171713021414" lon="9.434793763599531"><ele>14.0</ele><time>2026-04-26T07:06:44.99Z</time></trkpt><trkpt lat="41.06194900938334" lon="9.43455693507575"><ele>14.0</ele><time>2026-04-26T07:06:45.99Z</time></trkpt><trkpt lat="41.06218327348726" lon="9.434325970223789"><ele>14.0</ele><time>2026-04-26T07:06:46.99Z</time></trkpt><trkpt lat="41.06241693684383" lon="9.434096196383457"><ele>14.0</ele><time>2026-04-26T07:06:47.99Z</time></trkpt><trkpt lat="41.06264616301541" lon="9.433857330415899"><ele>14.0</ele><time>2026-04-26T07:06:48.99Z</time></trkpt><trkpt lat="41.06288113220907" lon="9.433618641486227"><ele>13.0</ele><time>2026-04-26T07:06:49.99Z</time></trkpt><trkpt lat="41.063115100925955" lon="9.433377732733526"><ele>12.0</ele><time>2026-04-26T07:06:50.99Z</time></trkpt><trkpt lat="41.063350292911956" lon="9.433138769188233"><ele>11.5</ele><time>2026-04-26T07:06:51.989Z</time></trkpt><trkpt lat="41.063582437704014" lon="9.432903449102842"><ele>11.0</ele><time>2026-04-26T07:06:52.989Z</time></trkpt><trkpt lat="41.06380260414968" lon="9.432688001487797"><ele>11.0</ele><time>2026-04-26T07:06:53.989Z</time></trkpt><trkpt lat="41.06400713298183" lon="9.432482698899422"><ele>11.0</ele><time>2026-04-26T07:06:54.989Z</time></trkpt><trkpt lat="41.06420207769757" lon="9.432281296478843"><ele>10.666666666666666</ele><time>2026-04-26T07:06:55.989Z</time></trkpt><trkpt lat="41.06438844060147" lon="9.432089289161253"><ele>10.333333333333334</ele><time>2026-04-26T07:06:56.989Z</time></trkpt><trkpt lat="41.06455541412712" lon="9.431914653737397"><ele>10.0</ele><time>2026-04-26T07:06:57.989Z</time></trkpt><trkpt lat="41.06470303830969" lon="9.431757392495298"><ele>10.0</ele><time>2026-04-26T07:06:58.989Z</time></trkpt><trkpt lat="41.06483870527513" lon="9.431610138453607"><ele>10.0</ele><time>2026-04-26T07:06:59.989Z</time></trkpt><trkpt lat="41.06496922103724" lon="9.431477630924606"><ele>10.0</ele><time>2026-04-26T07:07:00.989Z</time></trkpt><trkpt lat="41.065099120673146" lon="9.431367019891574"><ele>10.25</ele><time>2026-04-26T07:07:01.989Z</time></trkpt><trkpt lat="41.065232961830006" lon="9.431303386617483"><ele>10.5</ele><time>2026-04-26T07:07:02.989Z</time></trkpt><trkpt lat="41.06536602189327" lon="9.431275412716156"><ele>10.75</ele><time>2026-04-26T07:07:03.989Z</time></trkpt><trkpt lat="41.06549704498053" lon="9.431263842326306"><ele>11.0</ele><time>2026-04-26T07:07:04.989Z</time></trkpt><trkpt lat="41.065617583787656" lon="9.431209237863463"><ele>11.0</ele><time>2026-04-26T07:07:05.989Z</time></trkpt><trkpt lat="41.06572746945127" lon="9.431098975359133"><ele>11.0</ele><time>2026-04-26T07:07:06.989Z</time></trkpt><trkpt lat="41.0658181511328" lon="9.430945675820459"><ele>11.0</ele><time>2026-04-26T07:07:07.989Z</time></trkpt><trkpt lat="41.06589062212152" lon="9.430756901653643"><ele>11.0</ele><time>2026-04-26T07:07:08.989Z</time></trkpt><trkpt lat="41.06597765018204" lon="9.430568534617644"><ele>10.333333333333332</ele><time>2026-04-26T07:07:09.989Z</time></trkpt><trkpt lat="41.06609361568876" lon="9.430399074867614"><ele>9.666666666666666</ele><time>2026-04-26T07:07:10.989Z</time></trkpt><trkpt lat="41.06621274384492" lon="9.430263216995307"><ele>9.0</ele><time>2026-04-26T07:07:11.989Z</time></trkpt><trkpt lat="41.06634201012679" lon="9.430136670693738"><ele>9.0</ele><time>2026-04-26T07:07:12.989Z</time></trkpt><trkpt lat="41.06647343068321" lon="9.430010198172624"><ele>9.0</ele><time>2026-04-26T07:07:13.989Z</time></trkpt><trkpt lat="41.06659032919212" lon="9.429889946749588"><ele>9.0</ele><time>2026-04-26T07:07:14.989Z</time></trkpt><trkpt lat="41.06670013888217" lon="9.429772108488313"><ele>9.333333333333334</ele><time>2026-04-26T07:07:15.989Z</time></trkpt><trkpt lat="41.066813037925044" lon="9.429650606582571"><ele>9.666666666666668</ele><time>2026-04-26T07:07:16.989Z</time></trkpt><trkpt lat="41.0669305660084" lon="9.42952570181972"><ele>10.0</ele><time>2026-04-26T07:07:17.989Z</time></trkpt><trkpt lat="41.06705598895279" lon="9.42939151145704"><ele>10.0</ele><time>2026-04-26T07:07:18.989Z</time></trkpt><trkpt lat="41.067187431629975" lon="9.429250458921043"><ele>10.0</ele><time>2026-04-26T07:07:19.989Z</time></trkpt><trkpt lat="41.067330037169604" lon="9.429108023339277"><ele>10.0</ele><time>2026-04-26T07:07:20.989Z</time></trkpt><trkpt lat="41.06748068656049" lon="9.428968746096851"><ele>10.0</ele><time>2026-04-26T07:07:21.989Z</time></trkpt><trkpt lat="41.0676299474998" lon="9.428829698752988"><ele>10.0</ele><time>2026-04-26T07:07:22.989Z</time></trkpt><trkpt lat="41.06777666917986" lon="9.4286861916874"><ele>10.0</ele><time>2026-04-26T07:07:23.989Z</time></trkpt><trkpt lat="41.067911930362335" lon="9.428548672453083"><ele>10.0</ele><time>2026-04-26T07:07:24.989Z</time></trkpt><trkpt lat="41.068027489746065" lon="9.428414029690654"><ele>10.0</ele><time>2026-04-26T07:07:25.989Z</time></trkpt><trkpt lat="41.068130287741226" lon="9.428282781774433"><ele>10.0</ele><time>2026-04-26T07:07:26.989Z</time></trkpt><trkpt lat="41.06821305072575" lon="9.428130621045643"><ele>10.0</ele><time>2026-04-26T07:07:27.989Z</time></trkpt><trkpt lat="41.068277904109664" lon="9.427974106702317"><ele>10.0</ele><time>2026-04-26T07:07:28.989Z</time></trkpt><trkpt lat="41.06833918743362" lon="9.427820245327844"><ele>10.0</ele><time>2026-04-26T07:07:29.989Z</time></trkpt><trkpt lat="41.06839795485987" lon="9.427679947435909"><ele>10.0</ele><time>2026-04-26T07:07:30.989Z</time></trkpt><trkpt lat="41.06845092501898" lon="9.427547400267487"><ele>10.0</ele><time>2026-04-26T07:07:31.989Z</time></trkpt><trkpt lat="41.06850283127815" lon="9.427430706446636"><ele>10.0</ele><time>2026-04-26T07:07:32.989Z</time></trkpt><trkpt lat="41.06855005321006" lon="9.42731665218391"><ele>10.0</ele><time>2026-04-26T07:07:33.989Z</time></trkpt><trkpt lat="41.06859782455904" lon="9.427205902256123"><ele>10.0</ele><time>2026-04-26T07:07:34.989Z</time></trkpt><trkpt lat="41.06864971064616" lon="9.427087454157244"><ele>10.0</ele><time>2026-04-26T07:07:35.989Z</time></trkpt><trkpt lat="41.06869890366957" lon="9.426971054896871"><ele>10.0</ele><time>2026-04-26T07:07:36.989Z</time></trkpt><trkpt lat="41.068745379120315" lon="9.426858904323218"><ele>10.0</ele><time>2026-04-26T07:07:37.989Z</time></trkpt><trkpt lat="41.06879206228947" lon="9.426749648004346"><ele>10.0</ele><time>2026-04-26T07:07:38.989Z</time></trkpt><trkpt lat="41.06883788880474" lon="9.426641147309907"><ele>10.0</ele><time>2026-04-26T07:07:39.989Z</time></trkpt><trkpt lat="41.06886604928673" lon="9.42652754256729"><ele>10.0</ele><time>2026-04-26T07:07:40.989Z</time></trkpt><trkpt lat="41.068854969472284" lon="9.426409062931075"><ele>10.0</ele><time>2026-04-26T07:07:41.989Z</time></trkpt><trkpt lat="41.068802623964224" lon="9.42630175206253"><ele>9.8</ele><time>2026-04-26T07:07:42.989Z</time></trkpt><trkpt lat="41.06873388217691" lon="9.426213344381422"><ele>9.6</ele><time>2026-04-26T07:07:43.989Z</time></trkpt><trkpt lat="41.06867710168213" lon="9.42610164366351"><ele>9.4</ele><time>2026-04-26T07:07:44.989Z</time></trkpt><trkpt lat="41.06860305560253" lon="9.425984262458709"><ele>9.2</ele><time>2026-04-26T07:07:45.989Z</time></trkpt><trkpt lat="41.06852876611825" lon="9.425861660701738"><ele>9.0</ele><time>2026-04-26T07:07:46.989Z</time></trkpt><trkpt lat="41.06845314323382" lon="9.425742247394728"><ele>9.0</ele><time>2026-04-26T07:07:47.989Z</time></trkpt><trkpt lat="41.06837912266393" lon="9.425622090641152"><ele>9.0</ele><time>2026-04-26T07:07:48.989Z</time></trkpt><trkpt lat="41.06831459897174" lon="9.425489168630284"><ele>9.0</ele><time>2026-04-26T07:07:49.989Z</time></trkpt><trkpt lat="41.06826946066729" lon="9.425343455423983"><ele>9.0</ele><time>2026-04-26T07:07:50.989Z</time></trkpt><trkpt lat="41.068245973359055" lon="9.425187281124982"><ele>9.0</ele><time>2026-04-26T07:07:51.989Z</time></trkpt><trkpt lat="41.06824268127991" lon="9.425013126142336"><ele>9.0</ele><time>2026-04-26T07:07:52.989Z</time></trkpt><trkpt lat="41.06825727121621" lon="9.42482098845239"><ele>9.0</ele><time>2026-04-26T07:07:53.989Z</time></trkpt><trkpt lat="41.06827575817103" lon="9.424611023812716"><ele>9.0</ele><time>2026-04-26T07:07:54.989Z</time></trkpt><trkpt lat="41.06829390879577" lon="9.424364839487426"><ele>8.666666666666666</ele><time>2026-04-26T07:07:55.988Z</time></trkpt><trkpt lat="41.06831756309732" lon="9.424088118863388"><ele>8.333333333333332</ele><time>2026-04-26T07:07:56.988Z</time></trkpt><trkpt lat="41.06834893661625" lon="9.423791011375014"><ele>8.0</ele><time>2026-04-26T07:07:57.988Z</time></trkpt><trkpt lat="41.06838600826911" lon="9.423479863173412"><ele>7.5</ele><time>2026-04-26T07:07:58.988Z</time></trkpt><trkpt lat="41.06843165273437" lon="9.423147268519639"><ele>7.0</ele><time>2026-04-26T07:07:59.988Z</time></trkpt><trkpt lat="41.06847448908751" lon="9.42281847807447"><ele>6.5</ele><time>2026-04-26T07:08:00.988Z</time></trkpt><trkpt lat="41.06851992258852" lon="9.422492661124332"><ele>6.0</ele><time>2026-04-26T07:08:01.988Z</time></trkpt><trkpt lat="41.06856229705679" lon="9.422184913662822"><ele>6.333333333333334</ele><time>2026-04-26T07:08:02.988Z</time></trkpt><trkpt lat="41.068601762731994" lon="9.421898636291253"><ele>6.666666666666667</ele><time>2026-04-26T07:08:03.988Z</time></trkpt><trkpt lat="41.068633717930275" lon="9.421627420693703"><ele>7.0</ele><time>2026-04-26T07:08:04.988Z</time></trkpt><trkpt lat="41.06866674940682" lon="9.421374904745091"><ele>7.333333333333334</ele><time>2026-04-26T07:08:05.988Z</time></trkpt><trkpt lat="41.06869086150429" lon="9.421144691624622"><ele>7.666666666666666</ele><time>2026-04-26T07:08:06.988Z</time></trkpt><trkpt lat="41.06871312354512" lon="9.420930131559428"><ele>8.0</ele><time>2026-04-26T07:08:07.988Z</time></trkpt><trkpt lat="41.068737728285626" lon="9.42072724801236"><ele>8.0</ele><time>2026-04-26T07:08:08.988Z</time></trkpt><trkpt lat="41.06876470625984" lon="9.42051854361272"><ele>8.0</ele><time>2026-04-26T07:08:09.988Z</time></trkpt><trkpt lat="41.068794171790465" lon="9.420303418247638"><ele>8.0</ele><time>2026-04-26T07:08:10.988Z</time></trkpt><trkpt lat="41.06882587449513" lon="9.420071007574832"><ele>8.666666666666666</ele><time>2026-04-26T07:08:11.988Z</time></trkpt><trkpt lat="41.06886148300564" lon="9.419834685181275"><ele>9.333333333333334</ele><time>2026-04-26T07:08:12.988Z</time></trkpt><trkpt lat="41.06890396529165" lon="9.419593569437104"><ele>10.0</ele><time>2026-04-26T07:08:13.988Z</time></trkpt><trkpt lat="41.06894116213218" lon="9.41933653856438"><ele>10.0</ele><time>2026-04-26T07:08:14.988Z</time></trkpt><trkpt lat="41.06897231806502" lon="9.419070525832293"><ele>10.0</ele><time>2026-04-26T07:08:15.988Z</time></trkpt><trkpt lat="41.06898846027198" lon="9.418820270955408"><ele>10.0</ele><time>2026-04-26T07:08:16.988Z</time></trkpt><trkpt lat="41.06898292693458" lon="9.418573053292606"><ele>10.0</ele><time>2026-04-26T07:08:17.988Z</time></trkpt><trkpt lat="41.068959660990345" lon="9.418323088350212"><ele>10.0</ele><time>2026-04-26T07:08:18.988Z</time></trkpt><trkpt lat="41.06894077851575" lon="9.418088884881124"><ele>10.0</ele><time>2026-04-26T07:08:19.988Z</time></trkpt><trkpt lat="41.06892672268155" lon="9.41787055332027"><ele>10.333333333333334</ele><time>2026-04-26T07:08:20.988Z</time></trkpt><trkpt lat="41.06891428600447" lon="9.417665023984847"><ele>10.666666666666666</ele><time>2026-04-26T07:08:21.99Z</time></trkpt><trkpt lat="41.06890502697424" lon="9.417456777737614"><ele>11.0</ele><time>2026-04-26T07:08:22.99Z</time></trkpt><trkpt lat="41.06888775871078" lon="9.417241002360768"><ele>11.333333333333332</ele><time>2026-04-26T07:08:23.99Z</time></trkpt><trkpt lat="41.068867466298464" lon="9.417021123370679"><ele>11.666666666666666</ele><time>2026-04-26T07:08:24.989Z</time></trkpt><trkpt lat="41.06884816707413" lon="9.416790763403242"><ele>12.0</ele><time>2026-04-26T07:08:25.99Z</time></trkpt><trkpt lat="41.068826667510656" lon="9.416546113516944"><ele>12.333333333333332</ele><time>2026-04-26T07:08:26.99Z</time></trkpt><trkpt lat="41.068802674535675" lon="9.416293455680243"><ele>12.666666666666666</ele><time>2026-04-26T07:08:27.99Z</time></trkpt><trkpt lat="41.068777625377564" lon="9.416043542405182"><ele>13.0</ele><time>2026-04-26T07:08:28.989Z</time></trkpt><trkpt lat="41.06875969155818" lon="9.415786240962495"><ele>13.0</ele><time>2026-04-26T07:08:29.989Z</time></trkpt><trkpt lat="41.06873734845837" lon="9.41553080442161"><ele>13.0</ele><time>2026-04-26T07:08:30.99Z</time></trkpt><trkpt lat="41.0687218812454" lon="9.415283911294113"><ele>13.0</ele><time>2026-04-26T07:08:31.99Z</time></trkpt><trkpt lat="41.068707816706905" lon="9.415038479221083"><ele>13.666666666666666</ele><time>2026-04-26T07:08:32.989Z</time></trkpt><trkpt lat="41.068693293060996" lon="9.41480271842021"><ele>14.333333333333332</ele><time>2026-04-26T07:08:33.989Z</time></trkpt><trkpt lat="41.068684447896636" lon="9.414561328542172"><ele>15.0</ele><time>2026-04-26T07:08:34.989Z</time></trkpt><trkpt lat="41.0686700785293" lon="9.414331963865592"><ele>15.0</ele><time>2026-04-26T07:08:35.989Z</time></trkpt><trkpt lat="41.06865673201441" lon="9.414101148324137"><ele>15.0</ele><time>2026-04-26T07:08:36.989Z</time></trkpt><trkpt lat="41.06864384193012" lon="9.413869114878345"><ele>15.0</ele><time>2026-04-26T07:08:37.989Z</time></trkpt><trkpt lat="41.06862789948438" lon="9.413634205142696"><ele>15.333333333333332</ele><time>2026-04-26T07:08:38.989Z</time></trkpt><trkpt lat="41.06861644205171" lon="9.413400714766285"><ele>15.666666666666666</ele><time>2026-04-26T07:08:39.989Z</time></trkpt><trkpt lat="41.068604100470615" lon="9.413168886121024"><ele>16.0</ele><time>2026-04-26T07:08:40.989Z</time></trkpt><trkpt lat="41.06859011502749" lon="9.412937512949316"><ele>16.333333333333332</ele><time>2026-04-26T07:08:41.989Z</time></trkpt><trkpt lat="41.068573241991665" lon="9.412702953533328"><ele>16.666666666666668</ele><time>2026-04-26T07:08:42.989Z</time></trkpt><trkpt lat="41.06855971685361" lon="9.41246975379566"><ele>17.0</ele><time>2026-04-26T07:08:43.989Z</time></trkpt><trkpt lat="41.06854666935229" lon="9.412236704952955"><ele>18.0</ele><time>2026-04-26T07:08:44.989Z</time></trkpt><trkpt lat="41.06853252586473" lon="9.412001100051175"><ele>19.0</ele><time>2026-04-26T07:08:45.989Z</time></trkpt><trkpt lat="41.06852544564013" lon="9.411767151200271"><ele>20.0</ele><time>2026-04-26T07:08:46.989Z</time></trkpt><trkpt lat="41.06853198492668" lon="9.411530711178752"><ele>20.333333333333336</ele><time>2026-04-26T07:08:47.989Z</time></trkpt><trkpt lat="41.0685472353336" lon="9.411296933189227"><ele>20.666666666666668</ele><time>2026-04-26T07:08:48.988Z</time></trkpt><trkpt lat="41.06856447841644" lon="9.41105723455966"><ele>21.0</ele><time>2026-04-26T07:08:49.988Z</time></trkpt><trkpt lat="41.06858527152394" lon="9.410816168653303"><ele>21.0</ele><time>2026-04-26T07:08:50.988Z</time></trkpt><trkpt lat="41.06860848509436" lon="9.410568939724458"><ele>21.0</ele><time>2026-04-26T07:08:51.988Z</time></trkpt><trkpt lat="41.068631768390254" lon="9.41031623464146"><ele>21.0</ele><time>2026-04-26T07:08:52.988Z</time></trkpt><trkpt lat="41.068660580368274" lon="9.41005297783845"><ele>21.0</ele><time>2026-04-26T07:08:53.988Z</time></trkpt><trkpt lat="41.06869063495809" lon="9.409788754678637"><ele>21.0</ele><time>2026-04-26T07:08:54.988Z</time></trkpt><trkpt lat="41.06871718156259" lon="9.409522127123253"><ele>21.0</ele><time>2026-04-26T07:08:55.988Z</time></trkpt><trkpt lat="41.068748702521724" lon="9.40925537746299"><ele>20.333333333333332</ele><time>2026-04-26T07:08:56.988Z</time></trkpt><trkpt lat="41.068764753143874" lon="9.40898070867508"><ele>19.666666666666664</ele><time>2026-04-26T07:08:57.988Z</time></trkpt><trkpt lat="41.068790503978526" lon="9.408710892097856"><ele>19.0</ele><time>2026-04-26T07:08:58.988Z</time></trkpt><trkpt lat="41.0688140944736" lon="9.408448742909417"><ele>19.0</ele><time>2026-04-26T07:08:59.988Z</time></trkpt><trkpt lat="41.06883379919347" lon="9.408203763775814"><ele>19.0</ele><time>2026-04-26T07:09:00.988Z</time></trkpt><trkpt lat="41.068849941530154" lon="9.40797678540441"><ele>19.0</ele><time>2026-04-26T07:09:01.988Z</time></trkpt><trkpt lat="41.06887063888948" lon="9.407766051769004"><ele>19.5</ele><time>2026-04-26T07:09:02.988Z</time></trkpt><trkpt lat="41.0688892312563" lon="9.407564583948394"><ele>20.0</ele><time>2026-04-26T07:09:03.988Z</time></trkpt><trkpt lat="41.06890381348542" lon="9.407370663981062"><ele>20.5</ele><time>2026-04-26T07:09:04.988Z</time></trkpt><trkpt lat="41.06891585895273" lon="9.407182198767309"><ele>21.0</ele><time>2026-04-26T07:09:05.988Z</time></trkpt><trkpt lat="41.068930451491774" lon="9.406984953626559"><ele>21.0</ele><time>2026-04-26T07:09:06.988Z</time></trkpt><trkpt lat="41.068945423065976" lon="9.4067781980212"><ele>21.0</ele><time>2026-04-26T07:09:07.988Z</time></trkpt><trkpt lat="41.06896749595593" lon="9.406556952072066"><ele>21.0</ele><time>2026-04-26T07:09:08.988Z</time></trkpt><trkpt lat="41.068987686136104" lon="9.406334023618964"><ele>20.333333333333332</ele><time>2026-04-26T07:09:09.988Z</time></trkpt><trkpt lat="41.06900830912446" lon="9.40610700517859"><ele>19.666666666666664</ele><time>2026-04-26T07:09:10.988Z</time></trkpt><trkpt lat="41.06902703432635" lon="9.405882061287917"><ele>19.0</ele><time>2026-04-26T07:09:11.988Z</time></trkpt><trkpt lat="41.06904650693077" lon="9.405652339464005"><ele>18.666666666666664</ele><time>2026-04-26T07:09:12.988Z</time></trkpt><trkpt lat="41.06906775491175" lon="9.405418780810411"><ele>18.333333333333332</ele><time>2026-04-26T07:09:13.988Z</time></trkpt><trkpt lat="41.06908967557984" lon="9.405188171692862"><ele>18.0</ele><time>2026-04-26T07:09:14.988Z</time></trkpt><trkpt lat="41.069112714686085" lon="9.404968650244433"><ele>18.0</ele><time>2026-04-26T07:09:15.988Z</time></trkpt><trkpt lat="41.069150715907526" lon="9.404745962940828"><ele>18.0</ele><time>2026-04-26T07:09:16.988Z</time></trkpt><trkpt lat="41.069208432650164" lon="9.40452256257858"><ele>18.0</ele><time>2026-04-26T07:09:17.988Z</time></trkpt><trkpt lat="41.069275696569655" lon="9.404306003902054"><ele>18.0</ele><time>2026-04-26T07:09:18.988Z</time></trkpt><trkpt lat="41.06934689970258" lon="9.404095381294143"><ele>18.0</ele><time>2026-04-26T07:09:19.988Z</time></trkpt><trkpt lat="41.06941969295209" lon="9.40388398720757"><ele>18.0</ele><time>2026-04-26T07:09:20.988Z</time></trkpt><trkpt lat="41.06949107324202" lon="9.403674693362936"><ele>18.666666666666668</ele><time>2026-04-26T07:09:21.988Z</time></trkpt><trkpt lat="41.069562267047836" lon="9.403463926912936"><ele>19.333333333333336</ele><time>2026-04-26T07:09:22.988Z</time></trkpt><trkpt lat="41.06963423829413" lon="9.403257491133052"><ele>20.0</ele><time>2026-04-26T07:09:23.988Z</time></trkpt><trkpt lat="41.069703478593176" lon="9.403052466256442"><ele>20.0</ele><time>2026-04-26T07:09:24.988Z</time></trkpt><trkpt lat="41.069771345732285" lon="9.402850233397848"><ele>20.0</ele><time>2026-04-26T07:09:25.988Z</time></trkpt><trkpt lat="41.06983613440629" lon="9.402662718584654"><ele>20.0</ele><time>2026-04-26T07:09:26.988Z</time></trkpt><trkpt lat="41.069896995709584" lon="9.402484438848852"><ele>20.75</ele><time>2026-04-26T07:09:27.988Z</time></trkpt><trkpt lat="41.069954091049034" lon="9.402309628651699"><ele>21.5</ele><time>2026-04-26T07:09:28.988Z</time></trkpt><trkpt lat="41.070002081152275" lon="9.402142645786286"><ele>22.25</ele><time>2026-04-26T07:09:29.988Z</time></trkpt><trkpt lat="41.0700472290802" lon="9.401984732796759"><ele>23.0</ele><time>2026-04-26T07:09:30.988Z</time></trkpt><trkpt lat="41.07008904943641" lon="9.401844006184255"><ele>23.333333333333336</ele><time>2026-04-26T07:09:31.988Z</time></trkpt><trkpt lat="41.070126194572616" lon="9.401726523742473"><ele>23.666666666666668</ele><time>2026-04-26T07:09:32.988Z</time></trkpt><trkpt lat="41.070161660047646" lon="9.401615976201342"><ele>24.0</ele><time>2026-04-26T07:09:33.988Z</time></trkpt><trkpt lat="41.070195111150014" lon="9.401507892976692"><ele>24.333333333333336</ele><time>2026-04-26T07:09:34.988Z</time></trkpt><trkpt lat="41.070229552051536" lon="9.401402518621895"><ele>24.666666666666668</ele><time>2026-04-26T07:09:35.988Z</time></trkpt><trkpt lat="41.07027098422807" lon="9.401303758301205"><ele>25.0</ele><time>2026-04-26T07:09:36.988Z</time></trkpt><trkpt lat="41.070320514492686" lon="9.401210681846832"><ele>25.2</ele><time>2026-04-26T07:09:37.988Z</time></trkpt><trkpt lat="41.070387937758696" lon="9.401121180249444"><ele>25.4</ele><time>2026-04-26T07:09:38.988Z</time></trkpt><trkpt lat="41.07047291602499" lon="9.401043828385093"><ele>25.6</ele><time>2026-04-26T07:09:39.988Z</time></trkpt><trkpt lat="41.07056848196591" lon="9.400969537851356"><ele>25.8</ele><time>2026-04-26T07:09:40.988Z</time></trkpt><trkpt lat="41.07067071793494" lon="9.400902704178211"><ele>26.0</ele><time>2026-04-26T07:09:41.988Z</time></trkpt><trkpt lat="41.07077712506975" lon="9.400830250752746"><ele>27.5</ele><time>2026-04-26T07:09:42.988Z</time></trkpt><trkpt lat="41.070888426132456" lon="9.400758780561112"><ele>29.0</ele><time>2026-04-26T07:09:43.988Z</time></trkpt><trkpt lat="41.07099978416917" lon="9.40069135555348"><ele>30.5</ele><time>2026-04-26T07:09:44.988Z</time></trkpt><trkpt lat="41.0710991774298" lon="9.40062697453686"><ele>32.0</ele><time>2026-04-26T07:09:45.988Z</time></trkpt><trkpt lat="41.071191853498966" lon="9.400567470948548"><ele>32.0</ele><time>2026-04-26T07:09:46.988Z</time></trkpt><trkpt lat="41.07128374496854" lon="9.400511463720687"><ele>32.0</ele><time>2026-04-26T07:09:47.988Z</time></trkpt><trkpt lat="41.071373880035004" lon="9.400459439272762"><ele>32.0</ele><time>2026-04-26T07:09:48.988Z</time></trkpt><trkpt lat="41.071467437231355" lon="9.400404803889169"><ele>32.0</ele><time>2026-04-26T07:09:49.988Z</time></trkpt><trkpt lat="41.071562209132246" lon="9.400342455562184"><ele>32.0</ele><time>2026-04-26T07:09:50.988Z</time></trkpt><trkpt lat="41.07165230126116" lon="9.40026592377211"><ele>32.5</ele><time>2026-04-26T07:09:51.988Z</time></trkpt><trkpt lat="41.07174144217727" lon="9.400181128945587"><ele>33.0</ele><time>2026-04-26T07:09:52.987Z</time></trkpt><trkpt lat="41.07183042747456" lon="9.400086365183103"><ele>33.5</ele><time>2026-04-26T07:09:53.987Z</time></trkpt><trkpt lat="41.07191905938687" lon="9.399986306830908"><ele>34.0</ele><time>2026-04-26T07:09:54.987Z</time></trkpt><trkpt lat="41.07200404078391" lon="9.399882991759506"><ele>34.0</ele><time>2026-04-26T07:09:55.987Z</time></trkpt><trkpt lat="41.07209305686721" lon="9.399776319249282"><ele>34.0</ele><time>2026-04-26T07:09:56.987Z</time></trkpt><trkpt lat="41.07217972813868" lon="9.399664048823801"><ele>34.0</ele><time>2026-04-26T07:09:57.987Z</time></trkpt><trkpt lat="41.072267962985364" lon="9.399552090827326"><ele>34.0</ele><time>2026-04-26T07:09:58.987Z</time></trkpt><trkpt lat="41.07235924574636" lon="9.399439111740023"><ele>34.6</ele><time>2026-04-26T07:09:59.987Z</time></trkpt><trkpt lat="41.07244336318182" lon="9.399328783533878"><ele>35.2</ele><time>2026-04-26T07:10:00.987Z</time></trkpt><trkpt lat="41.072522897521694" lon="9.39922411515465"><ele>35.800000000000004</ele><time>2026-04-26T07:10:01.987Z</time></trkpt><trkpt lat="41.07259964704711" lon="9.399127115622338"><ele>36.4</ele><time>2026-04-26T07:10:02.987Z</time></trkpt><trkpt lat="41.07267520184655" lon="9.399037887803196"><ele>37.0</ele><time>2026-04-26T07:10:03.987Z</time></trkpt><trkpt lat="41.07274260697658" lon="9.398950264445682"><ele>37.0</ele><time>2026-04-26T07:10:04.987Z</time></trkpt><trkpt lat="41.07280558966679" lon="9.398860390522955"><ele>37.0</ele><time>2026-04-26T07:10:05.987Z</time></trkpt><trkpt lat="41.072865247430244" lon="9.398784600387398"><ele>37.0</ele><time>2026-04-26T07:10:06.987Z</time></trkpt><trkpt lat="41.072920568860646" lon="9.3987138922977"><ele>37.0</ele><time>2026-04-26T07:10:07.987Z</time></trkpt><trkpt lat="41.07296881196314" lon="9.398652939457525"><ele>37.0</ele><time>2026-04-26T07:10:08.987Z</time></trkpt><trkpt lat="41.0730169789946" lon="9.398586328573705"><ele>37.0</ele><time>2026-04-26T07:10:09.987Z</time></trkpt><trkpt lat="41.073064771222434" lon="9.398524554334456"><ele>37.0</ele><time>2026-04-26T07:10:10.987Z</time></trkpt><trkpt lat="41.073114234445235" lon="9.398456415043185"><ele>37.0</ele><time>2026-04-26T07:10:11.987Z</time></trkpt><trkpt lat="41.07316778435639" lon="9.398380808405443"><ele>37.0</ele><time>2026-04-26T07:10:12.987Z</time></trkpt><trkpt lat="41.073217871526936" lon="9.39829505602378"><ele>37.0</ele><time>2026-04-26T07:10:13.987Z</time></trkpt><trkpt lat="41.07326350278674" lon="9.39818968086498"><ele>37.0</ele><time>2026-04-26T07:10:14.987Z</time></trkpt><trkpt lat="41.07331106029219" lon="9.398075610420182"><ele>37.0</ele><time>2026-04-26T07:10:15.987Z</time></trkpt><trkpt lat="41.07336203986149" lon="9.397954537317343"><ele>38.5</ele><time>2026-04-26T07:10:16.987Z</time></trkpt><trkpt lat="41.07341088459039" lon="9.397828103677393"><ele>40.0</ele><time>2026-04-26T07:10:17.987Z</time></trkpt><trkpt lat="41.07346634814431" lon="9.397692188505262"><ele>41.5</ele><time>2026-04-26T07:10:18.987Z</time></trkpt><trkpt lat="41.07352824150785" lon="9.397554412478575"><ele>43.0</ele><time>2026-04-26T07:10:19.987Z</time></trkpt><trkpt lat="41.07358754824031" lon="9.39741264952132"><ele>43.0</ele><time>2026-04-26T07:10:20.987Z</time></trkpt><trkpt lat="41.073644446021206" lon="9.397260954778698"><ele>43.0</ele><time>2026-04-26T07:10:21.987Z</time></trkpt><trkpt lat="41.07368400859116" lon="9.397097585839234"><ele>43.0</ele><time>2026-04-26T07:10:22.987Z</time></trkpt><trkpt lat="41.073701514597346" lon="9.396909758082888"><ele>43.0</ele><time>2026-04-26T07:10:23.987Z</time></trkpt><trkpt lat="41.07369060405698" lon="9.396711423813493"><ele>43.75</ele><time>2026-04-26T07:10:24.987Z</time></trkpt><trkpt lat="41.073656962011526" lon="9.39651394653091"><ele>44.5</ele><time>2026-04-26T07:10:25.987Z</time></trkpt><trkpt lat="41.07362275785553" lon="9.396330594320611"><ele>45.25</ele><time>2026-04-26T07:10:26.987Z</time></trkpt><trkpt lat="41.07359184459129" lon="9.396159139713394"><ele>46.0</ele><time>2026-04-26T07:10:27.989Z</time></trkpt><trkpt lat="41.07356877007654" lon="9.396005818410519"><ele>46.4</ele><time>2026-04-26T07:10:28.989Z</time></trkpt><trkpt lat="41.07355042408082" lon="9.395866241260741"><ele>46.8</ele><time>2026-04-26T07:10:29.989Z</time></trkpt><trkpt lat="41.07353004610906" lon="9.395744853442515"><ele>47.199999999999996</ele><time>2026-04-26T07:10:30.989Z</time></trkpt><trkpt lat="41.07351562228966" lon="9.395631178974416"><ele>47.599999999999994</ele><time>2026-04-26T07:10:31.988Z</time></trkpt><trkpt lat="41.073504402532926" lon="9.39551781969407"><ele>48.0</ele><time>2026-04-26T07:10:32.988Z</time></trkpt><trkpt lat="41.0735024429714" lon="9.395397974769812"><ele>48.599999999999994</ele><time>2026-04-26T07:10:33.988Z</time></trkpt><trkpt lat="41.07351472752316" lon="9.395277023088475"><ele>49.199999999999996</ele><time>2026-04-26T07:10:34.989Z</time></trkpt><trkpt lat="41.07355270481847" lon="9.395152745121194"><ele>49.8</ele><time>2026-04-26T07:10:35.989Z</time></trkpt><trkpt lat="41.07361218507503" lon="9.395037718326565"><ele>50.4</ele><time>2026-04-26T07:10:36.989Z</time></trkpt><trkpt lat="41.07369316015969" lon="9.394942368103703"><ele>51.0</ele><time>2026-04-26T07:10:37.988Z</time></trkpt><trkpt lat="41.07378414502783" lon="9.394859849871745"><ele>51.0</ele><time>2026-04-26T07:10:38.988Z</time></trkpt><trkpt lat="41.07387598136511" lon="9.39478261966869"><ele>51.0</ele><time>2026-04-26T07:10:39.989Z</time></trkpt><trkpt lat="41.07396555397161" lon="9.394707044268529"><ele>51.0</ele><time>2026-04-26T07:10:40.988Z</time></trkpt><trkpt lat="41.07405459890223" lon="9.394627911301638"><ele>51.0</ele><time>2026-04-26T07:10:41.988Z</time></trkpt><trkpt lat="41.074146248342686" lon="9.394551656592634"><ele>51.0</ele><time>2026-04-26T07:10:42.988Z</time></trkpt><trkpt lat="41.074236114168656" lon="9.394473629386196"><ele>51.599999999999994</ele><time>2026-04-26T07:10:43.988Z</time></trkpt><trkpt lat="41.074323928847186" lon="9.39440300225024"><ele>52.2</ele><time>2026-04-26T07:10:44.988Z</time></trkpt><trkpt lat="41.07441206048537" lon="9.394334975433289"><ele>52.800000000000004</ele><time>2026-04-26T07:10:45.988Z</time></trkpt><trkpt lat="41.07449515638262" lon="9.39426802542017"><ele>53.400000000000006</ele><time>2026-04-26T07:10:46.988Z</time></trkpt><trkpt lat="41.07457553202779" lon="9.39419726692402"><ele>54.0</ele><time>2026-04-26T07:10:47.988Z</time></trkpt><trkpt lat="41.074645599391886" lon="9.39413298637627"><ele>54.0</ele><time>2026-04-26T07:10:48.988Z</time></trkpt><trkpt lat="41.07470629289104" lon="9.394081461308646"><ele>54.0</ele><time>2026-04-26T07:10:49.988Z</time></trkpt><trkpt lat="41.074800488327874" lon="9.394003519077655"><ele>54.0</ele><time>2026-04-26T07:10:51.988Z</time></trkpt><trkpt lat="41.07487737503332" lon="9.39393862496736"><ele>54.0</ele><time>2026-04-26T07:10:53.988Z</time></trkpt><trkpt lat="41.0749416923452" lon="9.393874565020013"><ele>54.0</ele><time>2026-04-26T07:10:56.988Z</time></trkpt><trkpt lat="41.07500592313095" lon="9.393801870102614"><ele>54.0</ele><time>2026-04-26T07:11:00.988Z</time></trkpt><trkpt lat="41.07505773965674" lon="9.393747316006836"><ele>54.800000000000004</ele><time>2026-04-26T07:11:02.988Z</time></trkpt><trkpt lat="41.07514507129698" lon="9.393673895404431"><ele>55.60000000000001</ele><time>2026-04-26T07:11:04.988Z</time></trkpt><trkpt lat="41.07525405544371" lon="9.393593103258459"><ele>56.4</ele><time>2026-04-26T07:11:06.988Z</time></trkpt><trkpt lat="41.075320249038455" lon="9.3935471508899"><ele>57.2</ele><time>2026-04-26T07:11:07.988Z</time></trkpt><trkpt lat="41.07538772594503" lon="9.39348519873996"><ele>58.0</ele><time>2026-04-26T07:11:08.988Z</time></trkpt><trkpt lat="41.07546716249425" lon="9.39342282544032"><ele>58.0</ele><time>2026-04-26T07:11:09.988Z</time></trkpt><trkpt lat="41.075541431402925" lon="9.393355157449095"><ele>58.0</ele><time>2026-04-26T07:11:10.988Z</time></trkpt><trkpt lat="41.075612541595575" lon="9.393279013119555"><ele>58.0</ele><time>2026-04-26T07:11:11.988Z</time></trkpt><trkpt lat="41.075685533275724" lon="9.393187935945472"><ele>58.0</ele><time>2026-04-26T07:11:12.988Z</time></trkpt><trkpt lat="41.075754019088436" lon="9.393087274325719"><ele>58.0</ele><time>2026-04-26T07:11:13.988Z</time></trkpt><trkpt lat="41.07583151267714" lon="9.392988136440154"><ele>57.5</ele><time>2026-04-26T07:11:14.988Z</time></trkpt><trkpt lat="41.07591040692135" lon="9.392884442783329"><ele>57.0</ele><time>2026-04-26T07:11:15.988Z</time></trkpt><trkpt lat="41.075993458778576" lon="9.392779125753895"><ele>56.5</ele><time>2026-04-26T07:11:16.988Z</time></trkpt><trkpt lat="41.076077077163966" lon="9.392673023935043"><ele>56.0</ele><time>2026-04-26T07:11:17.988Z</time></trkpt><trkpt lat="41.07615896086776" lon="9.392563553381562"><ele>56.0</ele><time>2026-04-26T07:11:18.988Z</time></trkpt><trkpt lat="41.076241641948926" lon="9.392456023620557"><ele>55.99999999999999</ele><time>2026-04-26T07:11:19.988Z</time></trkpt><trkpt lat="41.07632351855084" lon="9.392354438627413"><ele>55.99999999999999</ele><time>2026-04-26T07:11:20.988Z</time></trkpt><trkpt lat="41.07640490772725" lon="9.392264090817223"><ele>56.0</ele><time>2026-04-26T07:11:21.988Z</time></trkpt><trkpt lat="41.07647569785758" lon="9.392170461913764"><ele>56.0</ele><time>2026-04-26T07:11:22.988Z</time></trkpt><trkpt lat="41.07654896725623" lon="9.392090715666015"><ele>56.66666666666667</ele><time>2026-04-26T07:11:23.988Z</time></trkpt><trkpt lat="41.07661739036561" lon="9.392010679940297"><ele>57.333333333333336</ele><time>2026-04-26T07:11:24.988Z</time></trkpt><trkpt lat="41.07668003895917" lon="9.39193221707432"><ele>58.0</ele><time>2026-04-26T07:11:25.988Z</time></trkpt><trkpt lat="41.07672658966426" lon="9.391859398627457"><ele>58.66666666666667</ele><time>2026-04-26T07:11:26.988Z</time></trkpt><trkpt lat="41.076772549505684" lon="9.391792045561056"><ele>59.333333333333336</ele><time>2026-04-26T07:11:27.988Z</time></trkpt><trkpt lat="41.07686380291906" lon="9.391680559159486"><ele>60.0</ele><time>2026-04-26T07:11:29.988Z</time></trkpt><trkpt lat="41.07694684706272" lon="9.391573680185864"><ele>60.0</ele><time>2026-04-26T07:11:31.988Z</time></trkpt><trkpt lat="41.07702640624488" lon="9.391458515825505"><ele>60.0</ele><time>2026-04-26T07:11:33.988Z</time></trkpt><trkpt lat="41.07711776617209" lon="9.39134608216981"><ele>60.0</ele><time>2026-04-26T07:11:35.988Z</time></trkpt><trkpt lat="41.07716996044172" lon="9.391291062323361"><ele>60.0</ele><time>2026-04-26T07:11:36.988Z</time></trkpt><trkpt lat="41.07726104147986" lon="9.391176391027106"><ele>60.0</ele><time>2026-04-26T07:11:38.988Z</time></trkpt><trkpt lat="41.07730736692834" lon="9.391110933152488"><ele>60.0</ele><time>2026-04-26T07:11:39.988Z</time></trkpt><trkpt lat="41.077353610989334" lon="9.391052604780793"><ele>60.0</ele><time>2026-04-26T07:11:40.987Z</time></trkpt><trkpt lat="41.07740006793528" lon="9.39099332131235"><ele>60.0</ele><time>2026-04-26T07:11:41.987Z</time></trkpt><trkpt lat="41.07748496948102" lon="9.390882111054696"><ele>60.0</ele><time>2026-04-26T07:11:43.987Z</time></trkpt><trkpt lat="41.07754113446073" lon="9.39080821172656"><ele>60.0</ele><time>2026-04-26T07:11:45.987Z</time></trkpt><trkpt lat="41.07759122650043" lon="9.39075113802295"><ele>60.0</ele><time>2026-04-26T07:11:49.987Z</time></trkpt><trkpt lat="41.077636802079574" lon="9.390660692562093"><ele>61.2</ele><time>2026-04-26T07:12:17.987Z</time></trkpt><trkpt lat="41.077712892127515" lon="9.390554744593084"><ele>62.4</ele><time>2026-04-26T07:12:19.987Z</time></trkpt><trkpt lat="41.07779131314415" lon="9.39046166784742"><ele>63.599999999999994</ele><time>2026-04-26T07:12:21.987Z</time></trkpt><trkpt lat="41.07786717672418" lon="9.39037934903127"><ele>64.8</ele><time>2026-04-26T07:12:23.987Z</time></trkpt><trkpt lat="41.07793513817405" lon="9.390291719432836"><ele>66.0</ele><time>2026-04-26T07:12:25.987Z</time></trkpt><trkpt lat="41.07802247805275" lon="9.390188178478983"><ele>66.0</ele><time>2026-04-26T07:12:27.987Z</time></trkpt><trkpt lat="41.07807128267375" lon="9.390131035249121"><ele>66.0</ele><time>2026-04-26T07:12:28.987Z</time></trkpt><trkpt lat="41.0781189673725" lon="9.390065574146925"><ele>66.0</ele><time>2026-04-26T07:12:29.987Z</time></trkpt><trkpt lat="41.07816876651183" lon="9.390000893046151"><ele>66.0</ele><time>2026-04-26T07:12:30.987Z</time></trkpt><trkpt lat="41.078222475057544" lon="9.389929975542621"><ele>66.0</ele><time>2026-04-26T07:12:31.987Z</time></trkpt><trkpt lat="41.07828009191334" lon="9.389857569371644"><ele>66.0</ele><time>2026-04-26T07:12:32.987Z</time></trkpt><trkpt lat="41.07833950348191" lon="9.389781642210766"><ele>66.0</ele><time>2026-04-26T07:12:33.988Z</time></trkpt><trkpt lat="41.07839273547303" lon="9.38970698277573"><ele>67.6</ele><time>2026-04-26T07:12:34.988Z</time></trkpt><trkpt lat="41.07843194986832" lon="9.389625139431947"><ele>69.19999999999999</ele><time>2026-04-26T07:12:35.988Z</time></trkpt><trkpt lat="41.078454057457385" lon="9.389478363204832"><ele>70.80000000000001</ele><time>2026-04-26T07:12:37.988Z</time></trkpt><trkpt lat="41.0784297645902" lon="9.3893114763281"><ele>72.4</ele><time>2026-04-26T07:12:39.988Z</time></trkpt><trkpt lat="41.078419196200336" lon="9.389219936978359"><ele>74.0</ele><time>2026-04-26T07:12:40.988Z</time></trkpt><trkpt lat="41.07840502705841" lon="9.389132235245002"><ele>74.0</ele><time>2026-04-26T07:12:41.988Z</time></trkpt><trkpt lat="41.078400195179185" lon="9.389040916591018"><ele>74.0</ele><time>2026-04-26T07:12:42.989Z</time></trkpt><trkpt lat="41.07839537031891" lon="9.388942307332487"><ele>74.0</ele><time>2026-04-26T07:12:43.988Z</time></trkpt><trkpt lat="41.07838814785055" lon="9.388845671911138"><ele>74.0</ele><time>2026-04-26T07:12:44.988Z</time></trkpt><trkpt lat="41.07838238977958" lon="9.388744266149299"><ele>74.0</ele><time>2026-04-26T07:12:45.988Z</time></trkpt><trkpt lat="41.07839783141768" lon="9.388640262461122"><ele>74.0</ele><time>2026-04-26T07:12:46.988Z</time></trkpt><trkpt lat="41.07844333797434" lon="9.388542379025523"><ele>73.8</ele><time>2026-04-26T07:12:47.988Z</time></trkpt><trkpt lat="41.0785007875438" lon="9.388480329756598"><ele>73.60000000000001</ele><time>2026-04-26T07:12:48.988Z</time></trkpt><trkpt lat="41.07855919108781" lon="9.38843581851165"><ele>73.4</ele><time>2026-04-26T07:12:49.988Z</time></trkpt><trkpt lat="41.078655898243916" lon="9.38835221971739"><ele>73.2</ele><time>2026-04-26T07:12:51.988Z</time></trkpt><trkpt lat="41.07874395535915" lon="9.388257184634908"><ele>73.0</ele><time>2026-04-26T07:12:53.988Z</time></trkpt><trkpt lat="41.078816122474805" lon="9.388163855818654"><ele>73.0</ele><time>2026-04-26T07:12:55.988Z</time></trkpt><trkpt lat="41.07886113359333" lon="9.388078765753415"><ele>73.0</ele><time>2026-04-26T07:12:58.988Z</time></trkpt><trkpt lat="41.07891411631124" lon="9.38797516860656"><ele>73.0</ele><time>2026-04-26T07:13:02.988Z</time></trkpt><trkpt lat="41.07896364080431" lon="9.387844859967332"><ele>73.0</ele><time>2026-04-26T07:13:31.988Z</time></trkpt><trkpt lat="41.07900190485531" lon="9.387777170333067"><ele>73.0</ele><time>2026-04-26T07:13:32.988Z</time></trkpt><trkpt lat="41.07905511934937" lon="9.38769037073622"><ele>73.0</ele><time>2026-04-26T07:13:33.988Z</time></trkpt><trkpt lat="41.07912050751512" lon="9.387588728147888"><ele>73.2</ele><time>2026-04-26T07:13:34.988Z</time></trkpt><trkpt lat="41.07919012030227" lon="9.387493291537883"><ele>73.4</ele><time>2026-04-26T07:13:35.988Z</time></trkpt><trkpt lat="41.07926971132717" lon="9.3873960754859"><ele>73.60000000000001</ele><time>2026-04-26T07:13:36.988Z</time></trkpt><trkpt lat="41.079357668242636" lon="9.38730037811167"><ele>73.8</ele><time>2026-04-26T07:13:37.987Z</time></trkpt><trkpt lat="41.0794524866806" lon="9.387205460467419"><ele>74.0</ele><time>2026-04-26T07:13:38.987Z</time></trkpt><trkpt lat="41.079547517298" lon="9.387113459592378"><ele>72.25</ele><time>2026-04-26T07:13:39.987Z</time></trkpt><trkpt lat="41.079645759490184" lon="9.387025255774947"><ele>70.5</ele><time>2026-04-26T07:13:40.987Z</time></trkpt><trkpt lat="41.0797477435672" lon="9.386950414119534"><ele>68.75</ele><time>2026-04-26T07:13:41.987Z</time></trkpt><trkpt lat="41.07985678331544" lon="9.386894196234861"><ele>67.0</ele><time>2026-04-26T07:13:42.987Z</time></trkpt><trkpt lat="41.07996798822494" lon="9.386850581140406"><ele>67.0</ele><time>2026-04-26T07:13:43.987Z</time></trkpt><trkpt lat="41.080076603810056" lon="9.386821197373225"><ele>67.0</ele><time>2026-04-26T07:13:44.987Z</time></trkpt><trkpt lat="41.080187997948904" lon="9.386808948627285"><ele>67.0</ele><time>2026-04-26T07:13:45.987Z</time></trkpt><trkpt lat="41.080305347096" lon="9.386811592752304"><ele>67.0</ele><time>2026-04-26T07:13:46.987Z</time></trkpt><trkpt lat="41.080428856038054" lon="9.386833650679458"><ele>67.0</ele><time>2026-04-26T07:13:47.987Z</time></trkpt><trkpt lat="41.08054696043834" lon="9.386839842760551"><ele>67.0</ele><time>2026-04-26T07:13:48.987Z</time></trkpt><trkpt lat="41.08067058586696" lon="9.386822843150902"><ele>67.0</ele><time>2026-04-26T07:13:49.987Z</time></trkpt><trkpt lat="41.08079601240691" lon="9.386807559011592"><ele>67.0</ele><time>2026-04-26T07:13:50.987Z</time></trkpt><trkpt lat="41.0809121185846" lon="9.386778495284947"><ele>66.5</ele><time>2026-04-26T07:13:51.987Z</time></trkpt><trkpt lat="41.081031816165144" lon="9.386748071050818"><ele>66.0</ele><time>2026-04-26T07:13:52.987Z</time></trkpt><trkpt lat="41.08114644157293" lon="9.386712582840527"><ele>65.5</ele><time>2026-04-26T07:13:53.987Z</time></trkpt><trkpt lat="41.08126058852785" lon="9.386672820865225"><ele>65.0</ele><time>2026-04-26T07:13:54.987Z</time></trkpt><trkpt lat="41.08137405592907" lon="9.386625579061896"><ele>65.0</ele><time>2026-04-26T07:13:55.987Z</time></trkpt><trkpt lat="41.08148704810316" lon="9.386567299236395"><ele>65.0</ele><time>2026-04-26T07:13:56.987Z</time></trkpt><trkpt lat="41.08159733066172" lon="9.386493123647568"><ele>65.0</ele><time>2026-04-26T07:13:57.987Z</time></trkpt><trkpt lat="41.081705997343214" lon="9.386413775449522"><ele>65.0</ele><time>2026-04-26T07:13:58.987Z</time></trkpt><trkpt lat="41.08181189113012" lon="9.386333959932442"><ele>63.5</ele><time>2026-04-26T07:13:59.987Z</time></trkpt><trkpt lat="41.08192072386944" lon="9.386256926196912"><ele>62.0</ele><time>2026-04-26T07:14:00.987Z</time></trkpt><trkpt lat="41.08202436823371" lon="9.386176570707825"><ele>60.5</ele><time>2026-04-26T07:14:01.987Z</time></trkpt><trkpt lat="41.082113141464646" lon="9.386078441535208"><ele>59.0</ele><time>2026-04-26T07:14:02.987Z</time></trkpt><trkpt lat="41.082174453285965" lon="9.385950923408032"><ele>59.0</ele><time>2026-04-26T07:14:03.987Z</time></trkpt><trkpt lat="41.082211567219645" lon="9.385812243540501"><ele>59.0</ele><time>2026-04-26T07:14:04.987Z</time></trkpt><trkpt lat="41.08223006451118" lon="9.385664795719316"><ele>59.0</ele><time>2026-04-26T07:14:05.987Z</time></trkpt><trkpt lat="41.082229631611604" lon="9.385505100854768"><ele>59.0</ele><time>2026-04-26T07:14:06.987Z</time></trkpt><trkpt lat="41.082227935313966" lon="9.385345042704188"><ele>58.0</ele><time>2026-04-26T07:14:07.987Z</time></trkpt><trkpt lat="41.08222978463076" lon="9.3851857979435"><ele>57.0</ele><time>2026-04-26T07:14:08.987Z</time></trkpt><trkpt lat="41.08223977916226" lon="9.385025174685875"><ele>56.0</ele><time>2026-04-26T07:14:09.987Z</time></trkpt><trkpt lat="41.08224404183969" lon="9.384855648182489"><ele>55.0</ele><time>2026-04-26T07:14:10.987Z</time></trkpt><trkpt lat="41.08224934645395" lon="9.384679869065513"><ele>54.5</ele><time>2026-04-26T07:14:11.987Z</time></trkpt><trkpt lat="41.08225311108651" lon="9.38450549908184"><ele>54.0</ele><time>2026-04-26T07:14:12.987Z</time></trkpt><trkpt lat="41.08225856041738" lon="9.384327417873486"><ele>53.5</ele><time>2026-04-26T07:14:13.987Z</time></trkpt><trkpt lat="41.0822604550649" lon="9.384156695096115"><ele>53.0</ele><time>2026-04-26T07:14:14.987Z</time></trkpt><trkpt lat="41.082258432298985" lon="9.383989656066719"><ele>54.0</ele><time>2026-04-26T07:14:15.987Z</time></trkpt><trkpt lat="41.08225967583836" lon="9.383822599190582"><ele>55.0</ele><time>2026-04-26T07:14:16.987Z</time></trkpt><trkpt lat="41.08226285680755" lon="9.383651255900253"><ele>56.0</ele><time>2026-04-26T07:14:17.987Z</time></trkpt><trkpt lat="41.08226439629067" lon="9.38347354624532"><ele>57.0</ele><time>2026-04-26T07:14:18.987Z</time></trkpt><trkpt lat="41.08226544823862" lon="9.383295888391913"><ele>57.0</ele><time>2026-04-26T07:14:19.987Z</time></trkpt><trkpt lat="41.082267475791475" lon="9.383106781799922"><ele>57.0</ele><time>2026-04-26T07:14:20.987Z</time></trkpt><trkpt lat="41.08227214729965" lon="9.382919288850244"><ele>57.0</ele><time>2026-04-26T07:14:21.987Z</time></trkpt><trkpt lat="41.082274850463016" lon="9.382721110808905"><ele>57.0</ele><time>2026-04-26T07:14:22.987Z</time></trkpt><trkpt lat="41.082275324926755" lon="9.38252505040804"><ele>58.33333333333333</ele><time>2026-04-26T07:14:23.987Z</time></trkpt><trkpt lat="41.082278356176204" lon="9.382324505698884"><ele>59.666666666666664</ele><time>2026-04-26T07:14:24.987Z</time></trkpt><trkpt lat="41.08227972883968" lon="9.382120124290001"><ele>61.0</ele><time>2026-04-26T07:14:25.987Z</time></trkpt><trkpt lat="41.08228554433386" lon="9.381912911397679"><ele>62.0</ele><time>2026-04-26T07:14:26.987Z</time></trkpt><trkpt lat="41.08228587880516" lon="9.381706637437379"><ele>63.0</ele><time>2026-04-26T07:14:27.987Z</time></trkpt><trkpt lat="41.08228782045811" lon="9.381499538743652"><ele>64.0</ele><time>2026-04-26T07:14:28.987Z</time></trkpt><trkpt lat="41.082292245381254" lon="9.381300033870314"><ele>64.5</ele><time>2026-04-26T07:14:29.987Z</time></trkpt><trkpt lat="41.082294411884234" lon="9.381102848374173"><ele>65.0</ele><time>2026-04-26T07:14:30.987Z</time></trkpt><trkpt lat="41.08229461390229" lon="9.380911710061648"><ele>65.5</ele><time>2026-04-26T07:14:31.987Z</time></trkpt><trkpt lat="41.08228722019348" lon="9.380730214119344"><ele>66.0</ele><time>2026-04-26T07:14:32.987Z</time></trkpt><trkpt lat="41.08225530490318" lon="9.380561924853302"><ele>66.5</ele><time>2026-04-26T07:14:33.987Z</time></trkpt><trkpt lat="41.082194147204596" lon="9.380395627772192"><ele>67.0</ele><time>2026-04-26T07:14:34.987Z</time></trkpt><trkpt lat="41.08210204794374" lon="9.380246250408176"><ele>67.5</ele><time>2026-04-26T07:14:35.987Z</time></trkpt><trkpt lat="41.081992437600384" lon="9.380109796933555"><ele>68.0</ele><time>2026-04-26T07:14:36.987Z</time></trkpt><trkpt lat="41.08187162692932" lon="9.379972078448628"><ele>68.0</ele><time>2026-04-26T07:14:37.987Z</time></trkpt><trkpt lat="41.081754761223245" lon="9.379827427295128"><ele>68.0</ele><time>2026-04-26T07:14:38.987Z</time></trkpt><trkpt lat="41.08164481485617" lon="9.37967369464954"><ele>68.0</ele><time>2026-04-26T07:14:39.988Z</time></trkpt><trkpt lat="41.08153798910755" lon="9.379520686206101"><ele>68.33333333333334</ele><time>2026-04-26T07:14:40.987Z</time></trkpt><trkpt lat="41.08144709436832" lon="9.379347254817077"><ele>68.66666666666667</ele><time>2026-04-26T07:14:41.987Z</time></trkpt><trkpt lat="41.08137937910061" lon="9.379152611585004"><ele>69.0</ele><time>2026-04-26T07:14:42.988Z</time></trkpt><trkpt lat="41.08133937093737" lon="9.378946445245365"><ele>70.33333333333333</ele><time>2026-04-26T07:14:43.988Z</time></trkpt><trkpt lat="41.081348534770875" lon="9.378751710606162"><ele>71.66666666666666</ele><time>2026-04-26T07:14:44.988Z</time></trkpt><trkpt lat="41.08140624289958" lon="9.378569070621571"><ele>73.0</ele><time>2026-04-26T07:14:45.988Z</time></trkpt><trkpt lat="41.0814916737379" lon="9.378384570716282"><ele>73.0</ele><time>2026-04-26T07:14:46.987Z</time></trkpt><trkpt lat="41.081594540254734" lon="9.37821171757102"><ele>73.0</ele><time>2026-04-26T07:14:47.987Z</time></trkpt><trkpt lat="41.08169356412062" lon="9.378026494999746"><ele>73.0</ele><time>2026-04-26T07:14:48.988Z</time></trkpt><trkpt lat="41.08176943065228" lon="9.377836560026903"><ele>77.33333333333333</ele><time>2026-04-26T07:14:49.988Z</time></trkpt><trkpt lat="41.08180896204953" lon="9.3776266551744"><ele>81.66666666666667</ele><time>2026-04-26T07:14:50.988Z</time></trkpt><trkpt lat="41.0818408628322" lon="9.377408110219992"><ele>86.0</ele><time>2026-04-26T07:14:51.988Z</time></trkpt><trkpt lat="41.08187062016006" lon="9.377184110887882"><ele>86.33333333333334</ele><time>2026-04-26T07:14:52.988Z</time></trkpt><trkpt lat="41.08189822762962" lon="9.376958265440681"><ele>86.66666666666667</ele><time>2026-04-26T07:14:53.988Z</time></trkpt><trkpt lat="41.081930452762386" lon="9.376732608706664"><ele>87.0</ele><time>2026-04-26T07:14:54.988Z</time></trkpt><trkpt lat="41.08196788818103" lon="9.37650253702891"><ele>86.33333333333333</ele><time>2026-04-26T07:14:55.987Z</time></trkpt><trkpt lat="41.08203634162551" lon="9.376292213239173"><ele>85.66666666666666</ele><time>2026-04-26T07:14:56.987Z</time></trkpt><trkpt lat="41.082141249321865" lon="9.376101002863175"><ele>85.0</ele><time>2026-04-26T07:14:57.987Z</time></trkpt><trkpt lat="41.08225829153351" lon="9.37592408751944"><ele>85.0</ele><time>2026-04-26T07:14:58.987Z</time></trkpt><trkpt lat="41.082397978814086" lon="9.375763067370292"><ele>85.0</ele><time>2026-04-26T07:14:59.987Z</time></trkpt><trkpt lat="41.08254636911412" lon="9.375616335868164"><ele>85.0</ele><time>2026-04-26T07:15:00.987Z</time></trkpt><trkpt lat="41.08269635128916" lon="9.375485151376903"><ele>88.33333333333333</ele><time>2026-04-26T07:15:01.987Z</time></trkpt><trkpt lat="41.08285129557827" lon="9.375390698059654"><ele>91.66666666666667</ele><time>2026-04-26T07:15:02.987Z</time></trkpt><trkpt lat="41.08301051461981" lon="9.375367517675846"><ele>95.0</ele><time>2026-04-26T07:15:03.987Z</time></trkpt><trkpt lat="41.0831527714469" lon="9.375424846307615"><ele>98.0</ele><time>2026-04-26T07:15:04.987Z</time></trkpt><trkpt lat="41.08328842769856" lon="9.375554334826695"><ele>101.0</ele><time>2026-04-26T07:15:05.987Z</time></trkpt><trkpt lat="41.083434368544175" lon="9.375709846699229"><ele>104.0</ele><time>2026-04-26T07:15:06.987Z</time></trkpt><trkpt lat="41.08358205675234" lon="9.375860654973213"><ele>104.0</ele><time>2026-04-26T07:15:07.987Z</time></trkpt><trkpt lat="41.08372690568498" lon="9.375944900213229"><ele>104.0</ele><time>2026-04-26T07:15:08.987Z</time></trkpt><trkpt lat="41.08388243478064" lon="9.375899912499126"><ele>104.0</ele><time>2026-04-26T07:15:09.987Z</time></trkpt><trkpt lat="41.084063197705554" lon="9.375790462038783"><ele>106.33333333333333</ele><time>2026-04-26T07:15:10.987Z</time></trkpt><trkpt lat="41.084270485784316" lon="9.375685463104452"><ele>108.66666666666666</ele><time>2026-04-26T07:15:11.987Z</time></trkpt><trkpt lat="41.08446909583573" lon="9.375663504808495"><ele>111.0</ele><time>2026-04-26T07:15:12.987Z</time></trkpt><trkpt lat="41.08465729768954" lon="9.375732739678346"><ele>111.0</ele><time>2026-04-26T07:15:13.987Z</time></trkpt><trkpt lat="41.08483229569263" lon="9.375782362757617"><ele>111.0</ele><time>2026-04-26T07:15:14.987Z</time></trkpt><trkpt lat="41.085002006353434" lon="9.375720633122661"><ele>111.0</ele><time>2026-04-26T07:15:15.987Z</time></trkpt><trkpt lat="41.08514357182806" lon="9.375554345208954"><ele>117.0</ele><time>2026-04-26T07:15:16.987Z</time></trkpt><trkpt lat="41.08527959593544" lon="9.37534150592431"><ele>123.0</ele><time>2026-04-26T07:15:17.987Z</time></trkpt><trkpt lat="41.08547263003679" lon="9.375194979120863"><ele>129.0</ele><time>2026-04-26T07:15:18.987Z</time></trkpt><trkpt lat="41.085636436699374" lon="9.37510755901501"><ele>129.0</ele><time>2026-04-26T07:15:19.987Z</time></trkpt><trkpt lat="41.085746639810715" lon="9.375038398659312"><ele>129.0</ele><time>2026-04-26T07:15:20.987Z</time></trkpt><trkpt lat="41.085832827311734" lon="9.374998728951043"><ele>129.0</ele><time>2026-04-26T07:15:21.987Z</time></trkpt><trkpt lat="41.08593258542854" lon="9.374970484604065"><ele>129.0</ele><time>2026-04-26T07:15:23.987Z</time></trkpt><trkpt lat="41.0860673394423" lon="9.37493342767954"><ele>128.0</ele><time>2026-04-26T07:15:25.987Z</time></trkpt><trkpt lat="41.08615016103829" lon="9.374916917490914"><ele>127.0</ele><time>2026-04-26T07:15:26.987Z</time></trkpt><trkpt lat="41.08623751462406" lon="9.374894739474662"><ele>126.0</ele><time>2026-04-26T07:15:27.987Z</time></trkpt><trkpt lat="41.086336083633164" lon="9.374872741100088"><ele>125.0</ele><time>2026-04-26T07:15:28.987Z</time></trkpt><trkpt lat="41.08644285883983" lon="9.374853097111414"><ele>124.0</ele><time>2026-04-26T07:15:29.987Z</time></trkpt><trkpt lat="41.08655791583463" lon="9.374834010224943"><ele>123.5</ele><time>2026-04-26T07:15:30.987Z</time></trkpt><trkpt lat="41.086694831624705" lon="9.374818158862412"><ele>123.0</ele><time>2026-04-26T07:15:31.987Z</time></trkpt><trkpt lat="41.08682288324907" lon="9.374799567423025"><ele>122.5</ele><time>2026-04-26T07:15:32.987Z</time></trkpt><trkpt lat="41.08693902410098" lon="9.374767897025967"><ele>122.0</ele><time>2026-04-26T07:15:33.987Z</time></trkpt><trkpt lat="41.08705591301484" lon="9.374736058267873"><ele>122.0</ele><time>2026-04-26T07:15:34.987Z</time></trkpt><trkpt lat="41.08717555571262" lon="9.374709493960154"><ele>122.0</ele><time>2026-04-26T07:15:35.987Z</time></trkpt><trkpt lat="41.08729827812646" lon="9.374684617739666"><ele>122.0</ele><time>2026-04-26T07:15:36.987Z</time></trkpt><trkpt lat="41.08741852743206" lon="9.374650677964745"><ele>122.0</ele><time>2026-04-26T07:15:37.987Z</time></trkpt><trkpt lat="41.08754073353377" lon="9.374615777939797"><ele>122.0</ele><time>2026-04-26T07:15:38.987Z</time></trkpt><trkpt lat="41.08766554005219" lon="9.374586406944628"><ele>122.0</ele><time>2026-04-26T07:15:39.987Z</time></trkpt><trkpt lat="41.08779188283338" lon="9.374547654782427"><ele>122.0</ele><time>2026-04-26T07:15:40.987Z</time></trkpt><trkpt lat="41.087922741721684" lon="9.374507717239283"><ele>122.0</ele><time>2026-04-26T07:15:41.987Z</time></trkpt><trkpt lat="41.088058995453835" lon="9.3744686439125"><ele>122.0</ele><time>2026-04-26T07:15:42.987Z</time></trkpt><trkpt lat="41.08820069042273" lon="9.374435551727652"><ele>122.0</ele><time>2026-04-26T07:15:43.987Z</time></trkpt><trkpt lat="41.08834444598856" lon="9.374395141268241"><ele>122.0</ele><time>2026-04-26T07:15:44.987Z</time></trkpt><trkpt lat="41.08849738006157" lon="9.374357449204458"><ele>122.0</ele><time>2026-04-26T07:15:45.987Z</time></trkpt><trkpt lat="41.08865395581195" lon="9.374320381043868"><ele>122.33333333333333</ele><time>2026-04-26T07:15:46.987Z</time></trkpt><trkpt lat="41.088815658748416" lon="9.374284956648777"><ele>122.66666666666666</ele><time>2026-04-26T07:15:47.987Z</time></trkpt><trkpt lat="41.08897846947527" lon="9.374244957499883"><ele>123.0</ele><time>2026-04-26T07:15:48.987Z</time></trkpt><trkpt lat="41.089146894291325" lon="9.37420429373282"><ele>124.0</ele><time>2026-04-26T07:15:49.987Z</time></trkpt><trkpt lat="41.089316795452724" lon="9.374164448364395"><ele>125.0</ele><time>2026-04-26T07:15:50.987Z</time></trkpt><trkpt lat="41.089488939881235" lon="9.374117191705357"><ele>126.0</ele><time>2026-04-26T07:15:51.987Z</time></trkpt><trkpt lat="41.08966310263793" lon="9.374069082564418"><ele>126.0</ele><time>2026-04-26T07:15:52.987Z</time></trkpt><trkpt lat="41.089842499231764" lon="9.374029765139598"><ele>126.0</ele><time>2026-04-26T07:15:53.987Z</time></trkpt><trkpt lat="41.090035864541235" lon="9.373991240196778"><ele>126.0</ele><time>2026-04-26T07:15:54.987Z</time></trkpt><trkpt lat="41.09024277504302" lon="9.373939475894954"><ele>128.0</ele><time>2026-04-26T07:15:55.987Z</time></trkpt><trkpt lat="41.09047697534438" lon="9.373883985907868"><ele>130.0</ele><time>2026-04-26T07:15:56.987Z</time></trkpt><trkpt lat="41.09072182510559" lon="9.37382519941939"><ele>133.5</ele><time>2026-04-26T07:15:57.987Z</time></trkpt><trkpt lat="41.09096462212534" lon="9.373763638438769"><ele>137.0</ele><time>2026-04-26T07:15:58.987Z</time></trkpt><trkpt lat="41.09118097936293" lon="9.37371143943819"><ele>137.0</ele><time>2026-04-26T07:15:59.986Z</time></trkpt><trkpt lat="41.091377821806766" lon="9.37367078157086"><ele>137.0</ele><time>2026-04-26T07:16:00.986Z</time></trkpt><trkpt lat="41.09156079228082" lon="9.373638507724609"><ele>137.0</ele><time>2026-04-26T07:16:01.986Z</time></trkpt><trkpt lat="41.091748247077405" lon="9.373606462038502"><ele>137.66666666666666</ele><time>2026-04-26T07:16:02.986Z</time></trkpt><trkpt lat="41.09193955817878" lon="9.373589411836093"><ele>138.33333333333334</ele><time>2026-04-26T07:16:03.986Z</time></trkpt><trkpt lat="41.09211866627206" lon="9.373584718969347"><ele>139.0</ele><time>2026-04-26T07:16:04.986Z</time></trkpt><trkpt lat="41.092283145645666" lon="9.373564948058686"><ele>138.66666666666669</ele><time>2026-04-26T07:16:05.986Z</time></trkpt><trkpt lat="41.09244479560148" lon="9.373490716687174"><ele>138.33333333333334</ele><time>2026-04-26T07:16:06.986Z</time></trkpt><trkpt lat="41.09261465860165" lon="9.373366646455535"><ele>138.0</ele><time>2026-04-26T07:16:07.986Z</time></trkpt><trkpt lat="41.092785383108556" lon="9.37321173574378"><ele>138.0</ele><time>2026-04-26T07:16:08.986Z</time></trkpt><trkpt lat="41.092962915291764" lon="9.373045003411157"><ele>138.0</ele><time>2026-04-26T07:16:09.986Z</time></trkpt><trkpt lat="41.0931318947576" lon="9.372886060928906"><ele>138.0</ele><time>2026-04-26T07:16:10.986Z</time></trkpt><trkpt lat="41.0932710535911" lon="9.372758725928621"><ele>137.0</ele><time>2026-04-26T07:16:11.986Z</time></trkpt><trkpt lat="41.093422764986585" lon="9.372672783039238"><ele>136.0</ele><time>2026-04-26T07:16:12.986Z</time></trkpt><trkpt lat="41.093602744367004" lon="9.372657896770503"><ele>135.0</ele><time>2026-04-26T07:16:13.986Z</time></trkpt><trkpt lat="41.093794665130275" lon="9.37269750571926"><ele>135.0</ele><time>2026-04-26T07:16:14.986Z</time></trkpt><trkpt lat="41.09399338847776" lon="9.37272501685843"><ele>135.0</ele><time>2026-04-26T07:16:15.986Z</time></trkpt><trkpt lat="41.0942050370652" lon="9.372724978109046"><ele>135.0</ele><time>2026-04-26T07:16:16.986Z</time></trkpt><trkpt lat="41.09442084479631" lon="9.372673759908842"><ele>133.5</ele><time>2026-04-26T07:16:17.986Z</time></trkpt><trkpt lat="41.09464081999979" lon="9.372594432997866"><ele>132.0</ele><time>2026-04-26T07:16:18.986Z</time></trkpt><trkpt lat="41.09486106436694" lon="9.372516309038044"><ele>132.33333333333334</ele><time>2026-04-26T07:16:19.986Z</time></trkpt><trkpt lat="41.0950744024264" lon="9.372442164411616"><ele>132.66666666666669</ele><time>2026-04-26T07:16:20.986Z</time></trkpt><trkpt lat="41.095274040494814" lon="9.372377021239819"><ele>133.0</ele><time>2026-04-26T07:16:21.986Z</time></trkpt><trkpt lat="41.09546114833828" lon="9.372311479577869"><ele>133.0</ele><time>2026-04-26T07:16:22.986Z</time></trkpt><trkpt lat="41.09564469865801" lon="9.372238695521096"><ele>133.0</ele><time>2026-04-26T07:16:23.986Z</time></trkpt><trkpt lat="41.09582463256569" lon="9.372167332281245"><ele>133.0</ele><time>2026-04-26T07:16:24.986Z</time></trkpt><trkpt lat="41.09600219474801" lon="9.372114667393557"><ele>133.0</ele><time>2026-04-26T07:16:25.986Z</time></trkpt><trkpt lat="41.09617646343007" lon="9.372078051407122"><ele>133.0</ele><time>2026-04-26T07:16:26.986Z</time></trkpt><trkpt lat="41.096336871769005" lon="9.372034906918463"><ele>133.0</ele><time>2026-04-26T07:16:27.986Z</time></trkpt><trkpt lat="41.096502784705756" lon="9.3719840848816"><ele>134.0</ele><time>2026-04-26T07:16:28.986Z</time></trkpt><trkpt lat="41.09667383711188" lon="9.371934142107138"><ele>135.0</ele><time>2026-04-26T07:16:29.986Z</time></trkpt><trkpt lat="41.09685493800748" lon="9.371886520520134"><ele>136.0</ele><time>2026-04-26T07:16:30.986Z</time></trkpt><trkpt lat="41.09703432768105" lon="9.371844073234723"><ele>136.0</ele><time>2026-04-26T07:16:31.986Z</time></trkpt><trkpt lat="41.097213458607435" lon="9.371798473355769"><ele>136.0</ele><time>2026-04-26T07:16:32.986Z</time></trkpt><trkpt lat="41.09738835674152" lon="9.371752134052393"><ele>136.0</ele><time>2026-04-26T07:16:33.986Z</time></trkpt><trkpt lat="41.09755214346803" lon="9.371718800858174"><ele>134.66666666666669</ele><time>2026-04-26T07:16:34.986Z</time></trkpt><trkpt lat="41.09772493407699" lon="9.37169299796166"><ele>133.33333333333334</ele><time>2026-04-26T07:16:35.986Z</time></trkpt><trkpt lat="41.09789919183764" lon="9.371667613066087"><ele>132.0</ele><time>2026-04-26T07:16:36.986Z</time></trkpt><trkpt lat="41.09807326979182" lon="9.371643704935723"><ele>132.0</ele><time>2026-04-26T07:16:37.986Z</time></trkpt><trkpt lat="41.09825063896239" lon="9.371635307655126"><ele>132.0</ele><time>2026-04-26T07:16:38.986Z</time></trkpt><trkpt lat="41.09843456050569" lon="9.371632626894469"><ele>132.0</ele><time>2026-04-26T07:16:39.986Z</time></trkpt><trkpt lat="41.098620068095705" lon="9.371609697769685"><ele>131.0</ele><time>2026-04-26T07:16:40.986Z</time></trkpt><trkpt lat="41.09881189472556" lon="9.371579411345435"><ele>130.0</ele><time>2026-04-26T07:16:41.986Z</time></trkpt><trkpt lat="41.09900938594904" lon="9.371553694610846"><ele>129.0</ele><time>2026-04-26T07:16:42.986Z</time></trkpt><trkpt lat="41.099209500044076" lon="9.371537181395581"><ele>128.33333333333334</ele><time>2026-04-26T07:16:43.986Z</time></trkpt><trkpt lat="41.09941667075003" lon="9.371547778178291"><ele>127.66666666666667</ele><time>2026-04-26T07:16:44.986Z</time></trkpt><trkpt lat="41.0996307116746" lon="9.371576792401703"><ele>127.0</ele><time>2026-04-26T07:16:45.987Z</time></trkpt><trkpt lat="41.09984620244283" lon="9.37160920517771"><ele>124.66666666666667</ele><time>2026-04-26T07:16:46.988Z</time></trkpt><trkpt lat="41.10006364412166" lon="9.371643932856252"><ele>122.33333333333334</ele><time>2026-04-26T07:16:47.988Z</time></trkpt><trkpt lat="41.10027861576425" lon="9.371666870662374"><ele>120.0</ele><time>2026-04-26T07:16:48.987Z</time></trkpt><trkpt lat="41.10049683081106" lon="9.371645066225355"><ele>120.0</ele><time>2026-04-26T07:16:49.986Z</time></trkpt><trkpt lat="41.10071154788443" lon="9.371580241092861"><ele>120.0</ele><time>2026-04-26T07:16:50.986Z</time></trkpt><trkpt lat="41.100917664919926" lon="9.371484054702693"><ele>120.0</ele><time>2026-04-26T07:16:51.987Z</time></trkpt><trkpt lat="41.1011139418594" lon="9.371361791620677"><ele>117.66666666666666</ele><time>2026-04-26T07:16:52.987Z</time></trkpt><trkpt lat="41.10131267174329" lon="9.371231123420156"><ele>115.33333333333333</ele><time>2026-04-26T07:16:53.987Z</time></trkpt><trkpt lat="41.10151298669309" lon="9.371100894172468"><ele>113.0</ele><time>2026-04-26T07:16:54.987Z</time></trkpt><trkpt lat="41.101715915970004" lon="9.370974592936046"><ele>111.0</ele><time>2026-04-26T07:16:55.987Z</time></trkpt><trkpt lat="41.10191749979304" lon="9.370845157791804"><ele>109.0</ele><time>2026-04-26T07:16:56.987Z</time></trkpt><trkpt lat="41.10212145901056" lon="9.37073605386312"><ele>107.0</ele><time>2026-04-26T07:16:57.987Z</time></trkpt><trkpt lat="41.102324637377905" lon="9.370668447279137"><ele>106.33333333333333</ele><time>2026-04-26T07:16:58.986Z</time></trkpt><trkpt lat="41.10253074335829" lon="9.370617745397517"><ele>105.66666666666666</ele><time>2026-04-26T07:16:59.986Z</time></trkpt><trkpt lat="41.102738240711524" lon="9.370564847644722"><ele>105.0</ele><time>2026-04-26T07:17:00.986Z</time></trkpt><trkpt lat="41.10294750018212" lon="9.37049632085371"><ele>105.0</ele><time>2026-04-26T07:17:01.986Z</time></trkpt><trkpt lat="41.10315132121736" lon="9.370398659987599"><ele>105.0</ele><time>2026-04-26T07:17:02.986Z</time></trkpt><trkpt lat="41.10334892005131" lon="9.37026327985529"><ele>105.0</ele><time>2026-04-26T07:17:03.986Z</time></trkpt><trkpt lat="41.10354796660888" lon="9.370118213331999"><ele>100.5</ele><time>2026-04-26T07:17:04.986Z</time></trkpt><trkpt lat="41.10375279385274" lon="9.369980567211869"><ele>96.0</ele><time>2026-04-26T07:17:05.986Z</time></trkpt><trkpt lat="41.103967329168086" lon="9.36987818820679"><ele>94.66666666666667</ele><time>2026-04-26T07:17:06.986Z</time></trkpt><trkpt lat="41.10418517644721" lon="9.36981399378368"><ele>93.33333333333334</ele><time>2026-04-26T07:17:07.986Z</time></trkpt><trkpt lat="41.10439985620583" lon="9.369763859175867"><ele>92.0</ele><time>2026-04-26T07:17:08.986Z</time></trkpt><trkpt lat="41.10460442108109" lon="9.36971817999096"><ele>92.33333333333334</ele><time>2026-04-26T07:17:09.986Z</time></trkpt><trkpt lat="41.10480241213135" lon="9.36967065961287"><ele>92.66666666666667</ele><time>2026-04-26T07:17:10.986Z</time></trkpt><trkpt lat="41.10500265130292" lon="9.369619750258803"><ele>93.0</ele><time>2026-04-26T07:17:11.986Z</time></trkpt><trkpt lat="41.105201526756396" lon="9.369544869374348"><ele>93.0</ele><time>2026-04-26T07:17:12.986Z</time></trkpt><trkpt lat="41.10540128620659" lon="9.369439251839266"><ele>93.0</ele><time>2026-04-26T07:17:13.986Z</time></trkpt><trkpt lat="41.1055973727313" lon="9.369294302835716"><ele>93.0</ele><time>2026-04-26T07:17:14.986Z</time></trkpt><trkpt lat="41.10579344548235" lon="9.36914415053484"><ele>90.5</ele><time>2026-04-26T07:17:15.986Z</time></trkpt><trkpt lat="41.10599806663308" lon="9.368992556897135"><ele>88.0</ele><time>2026-04-26T07:17:16.986Z</time></trkpt><trkpt lat="41.106198918633574" lon="9.368836607707342"><ele>88.0</ele><time>2026-04-26T07:17:17.986Z</time></trkpt><trkpt lat="41.10639567420631" lon="9.368690672769455"><ele>88.0</ele><time>2026-04-26T07:17:18.986Z</time></trkpt><trkpt lat="41.106592265270656" lon="9.368549273647533"><ele>88.0</ele><time>2026-04-26T07:17:19.986Z</time></trkpt><trkpt lat="41.10678520951423" lon="9.368408200672313"><ele>87.33333333333333</ele><time>2026-04-26T07:17:20.986Z</time></trkpt><trkpt lat="41.10697535718883" lon="9.368269775004235"><ele>86.66666666666667</ele><time>2026-04-26T07:17:21.986Z</time></trkpt><trkpt lat="41.10716270614388" lon="9.368130811435037"><ele>86.0</ele><time>2026-04-26T07:17:22.986Z</time></trkpt><trkpt lat="41.107350264380116" lon="9.367989223141448"><ele>85.66666666666667</ele><time>2026-04-26T07:17:23.986Z</time></trkpt><trkpt lat="41.10753619783817" lon="9.367853491905837"><ele>85.33333333333333</ele><time>2026-04-26T07:17:24.986Z</time></trkpt><trkpt lat="41.10772202744594" lon="9.367733016537953"><ele>85.0</ele><time>2026-04-26T07:17:25.986Z</time></trkpt><trkpt lat="41.1079064995025" lon="9.367635151145505"><ele>85.0</ele><time>2026-04-26T07:17:26.986Z</time></trkpt><trkpt lat="41.10809290851535" lon="9.367556762550022"><ele>85.0</ele><time>2026-04-26T07:17:27.986Z</time></trkpt><trkpt lat="41.108279552798756" lon="9.367482879036546"><ele>85.0</ele><time>2026-04-26T07:17:28.986Z</time></trkpt><trkpt lat="41.10847225452432" lon="9.367406543038678"><ele>84.33333333333333</ele><time>2026-04-26T07:17:29.986Z</time></trkpt><trkpt lat="41.108670178709595" lon="9.367331525625213"><ele>83.66666666666667</ele><time>2026-04-26T07:17:30.986Z</time></trkpt><trkpt lat="41.108870047246484" lon="9.367257381502613"><ele>83.0</ele><time>2026-04-26T07:17:31.986Z</time></trkpt><trkpt lat="41.10907388854652" lon="9.3671764435925"><ele>84.33333333333334</ele><time>2026-04-26T07:17:32.986Z</time></trkpt><trkpt lat="41.10927791036449" lon="9.367086930469341"><ele>85.66666666666667</ele><time>2026-04-26T07:17:33.986Z</time></trkpt><trkpt lat="41.109480737530994" lon="9.366985401337363"><ele>87.0</ele><time>2026-04-26T07:17:34.986Z</time></trkpt><trkpt lat="41.10967958656283" lon="9.36686083749985"><ele>87.0</ele><time>2026-04-26T07:17:35.986Z</time></trkpt><trkpt lat="41.10987955780119" lon="9.366730274667779"><ele>87.0</ele><time>2026-04-26T07:17:36.986Z</time></trkpt><trkpt lat="41.1100813030307" lon="9.36660862607035"><ele>87.0</ele><time>2026-04-26T07:17:37.986Z</time></trkpt><trkpt lat="41.110280838694656" lon="9.366501961085687"><ele>86.66666666666667</ele><time>2026-04-26T07:17:38.986Z</time></trkpt><trkpt lat="41.11047858579228" lon="9.366401065104245"><ele>86.33333333333334</ele><time>2026-04-26T07:17:39.986Z</time></trkpt><trkpt lat="41.11067766576344" lon="9.366319994089348"><ele>86.0</ele><time>2026-04-26T07:17:40.986Z</time></trkpt><trkpt lat="41.110878739464965" lon="9.36624737878793"><ele>85.33333333333334</ele><time>2026-04-26T07:17:41.986Z</time></trkpt><trkpt lat="41.11107769644455" lon="9.366169980840906"><ele>84.66666666666667</ele><time>2026-04-26T07:17:42.986Z</time></trkpt><trkpt lat="41.111278145922824" lon="9.366092801359535"><ele>84.0</ele><time>2026-04-26T07:17:43.986Z</time></trkpt><trkpt lat="41.11147754931" lon="9.366014264450428"><ele>84.0</ele><time>2026-04-26T07:17:44.986Z</time></trkpt><trkpt lat="41.11166875952558" lon="9.365941696533643"><ele>84.0</ele><time>2026-04-26T07:17:45.986Z</time></trkpt><trkpt lat="41.11182700148771" lon="9.36588657711652"><ele>84.0</ele><time>2026-04-26T07:17:46.986Z</time></trkpt><trkpt lat="41.111969790046636" lon="9.365833320478863"><ele>84.0</ele><time>2026-04-26T07:17:47.986Z</time></trkpt><trkpt lat="41.112100203436626" lon="9.365784145222154"><ele>84.0</ele><time>2026-04-26T07:17:48.986Z</time></trkpt><trkpt lat="41.112212405973615" lon="9.365750846123069"><ele>84.0</ele><time>2026-04-26T07:17:49.986Z</time></trkpt><trkpt lat="41.112304939872274" lon="9.365723837900083"><ele>84.0</ele><time>2026-04-26T07:17:50.986Z</time></trkpt><trkpt lat="41.11238077493887" lon="9.365701480563454"><ele>84.0</ele><time>2026-04-26T07:17:51.986Z</time></trkpt><trkpt lat="41.11248408287023" lon="9.365668089803307"><ele>84.5</ele><time>2026-04-26T07:17:53.986Z</time></trkpt><trkpt lat="41.11255946480043" lon="9.365637531586435"><ele>85.0</ele><time>2026-04-26T07:21:57.985Z</time></trkpt><trkpt lat="41.112620483756686" lon="9.365614885743417"><ele>85.5</ele><time>2026-04-26T07:21:58.985Z</time></trkpt><trkpt lat="41.11268927144636" lon="9.365587618194755"><ele>86.0</ele><time>2026-04-26T07:21:59.985Z</time></trkpt><trkpt lat="41.112766369171446" lon="9.365551752473861"><ele>86.5</ele><time>2026-04-26T07:22:00.985Z</time></trkpt><trkpt lat="41.11285262293804" lon="9.365511247044008"><ele>87.0</ele><time>2026-04-26T07:22:01.985Z</time></trkpt><trkpt lat="41.11295407175918" lon="9.365474661632051"><ele>87.0</ele><time>2026-04-26T07:22:02.985Z</time></trkpt><trkpt lat="41.11306973256932" lon="9.365439723630042"><ele>87.0</ele><time>2026-04-26T07:22:03.985Z</time></trkpt><trkpt lat="41.11319108538891" lon="9.365422480663973"><ele>87.0</ele><time>2026-04-26T07:22:04.985Z</time></trkpt><trkpt lat="41.1133104308893" lon="9.365416168106455"><ele>87.0</ele><time>2026-04-26T07:22:05.985Z</time></trkpt><trkpt lat="41.1134378224282" lon="9.365429029179163"><ele>87.0</ele><time>2026-04-26T07:22:06.985Z</time></trkpt><trkpt lat="41.11357626682599" lon="9.365452488501566"><ele>87.0</ele><time>2026-04-26T07:22:07.985Z</time></trkpt><trkpt lat="41.11372275561413" lon="9.365471660608804"><ele>87.0</ele><time>2026-04-26T07:22:08.985Z</time></trkpt><trkpt lat="41.113885737370325" lon="9.365509736994799"><ele>86.66666666666667</ele><time>2026-04-26T07:22:09.985Z</time></trkpt><trkpt lat="41.11405468159037" lon="9.36554519674909"><ele>86.33333333333334</ele><time>2026-04-26T07:22:10.985Z</time></trkpt><trkpt lat="41.11423125514008" lon="9.365580233887046"><ele>86.0</ele><time>2026-04-26T07:22:11.985Z</time></trkpt><trkpt lat="41.114412679891714" lon="9.365614351390187"><ele>84.33333333333334</ele><time>2026-04-26T07:22:12.985Z</time></trkpt><trkpt lat="41.11459117394379" lon="9.365650334774193"><ele>82.66666666666667</ele><time>2026-04-26T07:22:13.985Z</time></trkpt><trkpt lat="41.11477097808878" lon="9.365686264036704"><ele>81.0</ele><time>2026-04-26T07:22:14.985Z</time></trkpt><trkpt lat="41.1149548629306" lon="9.365721491125475"><ele>80.33333333333333</ele><time>2026-04-26T07:22:15.985Z</time></trkpt><trkpt lat="41.11513616828446" lon="9.365759031941876"><ele>79.66666666666666</ele><time>2026-04-26T07:22:16.985Z</time></trkpt><trkpt lat="41.115322195509904" lon="9.365800501186122"><ele>79.0</ele><time>2026-04-26T07:22:17.985Z</time></trkpt><trkpt lat="41.11550821017592" lon="9.365844199387062"><ele>79.0</ele><time>2026-04-26T07:22:18.985Z</time></trkpt><trkpt lat="41.11569606367326" lon="9.365886010802846"><ele>79.0</ele><time>2026-04-26T07:22:19.985Z</time></trkpt><trkpt lat="41.11588596219669" lon="9.36592404500869"><ele>79.0</ele><time>2026-04-26T07:22:20.985Z</time></trkpt><trkpt lat="41.11607573950188" lon="9.365962975149953"><ele>79.0</ele><time>2026-04-26T07:22:21.985Z</time></trkpt><trkpt lat="41.116265739935116" lon="9.366002419791274"><ele>79.0</ele><time>2026-04-26T07:22:22.985Z</time></trkpt><trkpt lat="41.11645839382624" lon="9.366035232099524"><ele>79.0</ele><time>2026-04-26T07:22:23.985Z</time></trkpt><trkpt lat="41.11664865368544" lon="9.366058158634296"><ele>78.0</ele><time>2026-04-26T07:22:24.985Z</time></trkpt><trkpt lat="41.116826533625805" lon="9.366075535461777"><ele>77.0</ele><time>2026-04-26T07:22:25.985Z</time></trkpt><trkpt lat="41.117001531830645" lon="9.366087730778503"><ele>76.0</ele><time>2026-04-26T07:22:26.985Z</time></trkpt><trkpt lat="41.11718629296392" lon="9.366108961337316"><ele>76.0</ele><time>2026-04-26T07:22:27.985Z</time></trkpt><trkpt lat="41.117382837521696" lon="9.366134605501454"><ele>76.0</ele><time>2026-04-26T07:22:28.985Z</time></trkpt><trkpt lat="41.117586196023346" lon="9.366150627685638"><ele>76.0</ele><time>2026-04-26T07:22:29.985Z</time></trkpt><trkpt lat="41.11779810152735" lon="9.366167591212468"><ele>73.5</ele><time>2026-04-26T07:22:30.985Z</time></trkpt><trkpt lat="41.11802113860777" lon="9.366188436144162"><ele>71.0</ele><time>2026-04-26T07:22:31.985Z</time></trkpt><trkpt lat="41.11824916279604" lon="9.366223228017446"><ele>68.5</ele><time>2026-04-26T07:22:32.984Z</time></trkpt><trkpt lat="41.1184817637685" lon="9.366253896595754"><ele>66.0</ele><time>2026-04-26T07:22:33.984Z</time></trkpt><trkpt lat="41.11872107666822" lon="9.366280527714313"><ele>66.0</ele><time>2026-04-26T07:22:34.984Z</time></trkpt><trkpt lat="41.11896173495537" lon="9.366306128296712"><ele>66.0</ele><time>2026-04-26T07:22:35.984Z</time></trkpt><trkpt lat="41.119204410297165" lon="9.366332574922346"><ele>66.0</ele><time>2026-04-26T07:22:36.984Z</time></trkpt><trkpt lat="41.119446419206064" lon="9.36635982301833"><ele>66.0</ele><time>2026-04-26T07:22:37.984Z</time></trkpt><trkpt lat="41.11969050923908" lon="9.36638718279129"><ele>66.5</ele><time>2026-04-26T07:22:38.984Z</time></trkpt><trkpt lat="41.11993745684199" lon="9.366417855277627"><ele>67.0</ele><time>2026-04-26T07:22:39.984Z</time></trkpt><trkpt lat="41.12018294642913" lon="9.366446574646499"><ele>67.0</ele><time>2026-04-26T07:22:40.984Z</time></trkpt><trkpt lat="41.12042107110901" lon="9.36647025792233"><ele>67.0</ele><time>2026-04-26T07:22:41.984Z</time></trkpt><trkpt lat="41.12065298075348" lon="9.366495198360097"><ele>67.0</ele><time>2026-04-26T07:22:42.984Z</time></trkpt><trkpt lat="41.12088076110343" lon="9.366520087129329"><ele>67.0</ele><time>2026-04-26T07:22:43.984Z</time></trkpt><trkpt lat="41.12110967248425" lon="9.366543855210516"><ele>67.0</ele><time>2026-04-26T07:22:44.984Z</time></trkpt><trkpt lat="41.12133718881353" lon="9.366570201504436"><ele>67.0</ele><time>2026-04-26T07:22:45.984Z</time></trkpt><trkpt lat="41.12156563557423" lon="9.366599454532361"><ele>65.5</ele><time>2026-04-26T07:22:46.984Z</time></trkpt><trkpt lat="41.121793417126874" lon="9.36662970115622"><ele>64.0</ele><time>2026-04-26T07:22:47.984Z</time></trkpt><trkpt lat="41.122027760030946" lon="9.366661108084752"><ele>64.0</ele><time>2026-04-26T07:22:48.984Z</time></trkpt><trkpt lat="41.12225847284106" lon="9.366688908369747"><ele>64.0</ele><time>2026-04-26T07:22:49.984Z</time></trkpt><trkpt lat="41.122487564009" lon="9.366719817853898"><ele>65.5</ele><time>2026-04-26T07:22:50.984Z</time></trkpt><trkpt lat="41.12271901742268" lon="9.366748548320608"><ele>67.0</ele><time>2026-04-26T07:22:51.984Z</time></trkpt><trkpt lat="41.122955592009575" lon="9.366776025194907"><ele>67.0</ele><time>2026-04-26T07:22:52.984Z</time></trkpt><trkpt lat="41.12319342163927" lon="9.366802277721593"><ele>67.0</ele><time>2026-04-26T07:22:53.984Z</time></trkpt><trkpt lat="41.123434373158965" lon="9.36683424270306"><ele>66.0</ele><time>2026-04-26T07:22:54.984Z</time></trkpt><trkpt lat="41.123680992490264" lon="9.366860859253272"><ele>65.0</ele><time>2026-04-26T07:22:55.984Z</time></trkpt><trkpt lat="41.123928269008275" lon="9.366886847130994"><ele>62.5</ele><time>2026-04-26T07:22:56.984Z</time></trkpt><trkpt lat="41.1241799001751" lon="9.366911610682353"><ele>60.0</ele><time>2026-04-26T07:22:57.984Z</time></trkpt><trkpt lat="41.12442866345229" lon="9.366942776473062"><ele>60.0</ele><time>2026-04-26T07:22:58.984Z</time></trkpt><trkpt lat="41.1246698702159" lon="9.36697044436265"><ele>60.0</ele><time>2026-04-26T07:22:59.984Z</time></trkpt><trkpt lat="41.12489751149368" lon="9.366994037295331"><ele>60.33333333333333</ele><time>2026-04-26T07:23:00.984Z</time></trkpt><trkpt lat="41.12511049865041" lon="9.367020074249648"><ele>60.666666666666664</ele><time>2026-04-26T07:23:01.984Z</time></trkpt><trkpt lat="41.12531706092849" lon="9.367025519685436"><ele>61.0</ele><time>2026-04-26T07:23:02.984Z</time></trkpt><trkpt lat="41.12552233498698" lon="9.36699850506755"><ele>61.0</ele><time>2026-04-26T07:23:03.986Z</time></trkpt><trkpt lat="41.12571616916265" lon="9.36691905344067"><ele>61.0</ele><time>2026-04-26T07:23:04.985Z</time></trkpt><trkpt lat="41.125917412659064" lon="9.36681059561439"><ele>61.0</ele><time>2026-04-26T07:23:05.985Z</time></trkpt><trkpt lat="41.12612796672355" lon="9.36669061946324"><ele>60.5</ele><time>2026-04-26T07:23:06.986Z</time></trkpt><trkpt lat="41.12634854164539" lon="9.36657709857385"><ele>60.0</ele><time>2026-04-26T07:23:07.985Z</time></trkpt><trkpt lat="41.126573512755265" lon="9.366466244832733"><ele>65.5</ele><time>2026-04-26T07:23:08.985Z</time></trkpt><trkpt lat="41.12679915081935" lon="9.366345441926875"><ele>71.0</ele><time>2026-04-26T07:23:09.986Z</time></trkpt><trkpt lat="41.12701285569743" lon="9.366246869156008"><ele>71.0</ele><time>2026-04-26T07:23:10.986Z</time></trkpt><trkpt lat="41.1272218646514" lon="9.366171306215158"><ele>71.0</ele><time>2026-04-26T07:23:11.986Z</time></trkpt><trkpt lat="41.12743192865609" lon="9.36615986879261"><ele>71.0</ele><time>2026-04-26T07:23:12.985Z</time></trkpt><trkpt lat="41.127647025524325" lon="9.366210792906664"><ele>69.0</ele><time>2026-04-26T07:23:13.985Z</time></trkpt><trkpt lat="41.127864591367256" lon="9.366314373078696"><ele>67.0</ele><time>2026-04-26T07:23:14.985Z</time></trkpt><trkpt lat="41.12808306021475" lon="9.36643371409491"><ele>62.0</ele><time>2026-04-26T07:23:15.986Z</time></trkpt><trkpt lat="41.128298621804376" lon="9.366551174491866"><ele>57.0</ele><time>2026-04-26T07:23:16.985Z</time></trkpt><trkpt lat="41.128513912598365" lon="9.36666761023507"><ele>57.0</ele><time>2026-04-26T07:23:17.985Z</time></trkpt><trkpt lat="41.1287074092828" lon="9.366764806168105"><ele>57.0</ele><time>2026-04-26T07:23:18.985Z</time></trkpt><trkpt lat="41.128878175125564" lon="9.366834644600576"><ele>57.0</ele><time>2026-04-26T07:23:19.985Z</time></trkpt><trkpt lat="41.12903619641651" lon="9.366833804499581"><ele>56.33333333333333</ele><time>2026-04-26T07:23:20.985Z</time></trkpt><trkpt lat="41.12920082176274" lon="9.366748171381028"><ele>55.666666666666664</ele><time>2026-04-26T07:23:21.985Z</time></trkpt><trkpt lat="41.12938978767422" lon="9.366615388135456"><ele>55.0</ele><time>2026-04-26T07:23:22.985Z</time></trkpt><trkpt lat="41.12959461171605" lon="9.366471815900537"><ele>55.666666666666664</ele><time>2026-04-26T07:23:23.985Z</time></trkpt><trkpt lat="41.12979686077481" lon="9.366333590779826"><ele>56.33333333333333</ele><time>2026-04-26T07:23:24.985Z</time></trkpt><trkpt lat="41.12997827345739" lon="9.366217080617393"><ele>57.0</ele><time>2026-04-26T07:23:25.985Z</time></trkpt><trkpt lat="41.13015375188278" lon="9.366125743516564"><ele>57.0</ele><time>2026-04-26T07:23:26.985Z</time></trkpt><trkpt lat="41.13033925073149" lon="9.366093822510123"><ele>57.0</ele><time>2026-04-26T07:23:27.985Z</time></trkpt><trkpt lat="41.130556866456054" lon="9.366136136515284"><ele>57.0</ele><time>2026-04-26T07:23:28.985Z</time></trkpt><trkpt lat="41.130787472631795" lon="9.36620314081603"><ele>56.0</ele><time>2026-04-26T07:23:29.985Z</time></trkpt><trkpt lat="41.13102330362006" lon="9.36627673381944"><ele>55.0</ele><time>2026-04-26T07:23:30.985Z</time></trkpt><trkpt lat="41.131259450708754" lon="9.366348473699578"><ele>52.5</ele><time>2026-04-26T07:23:31.985Z</time></trkpt><trkpt lat="41.13149926720718" lon="9.366441095292952"><ele>50.0</ele><time>2026-04-26T07:23:32.985Z</time></trkpt><trkpt lat="41.13173747988188" lon="9.36655618029404"><ele>50.0</ele><time>2026-04-26T07:23:33.985Z</time></trkpt><trkpt lat="41.13198135332782" lon="9.36667006508468"><ele>50.0</ele><time>2026-04-26T07:23:34.985Z</time></trkpt><trkpt lat="41.13221929482857" lon="9.366775352473617"><ele>49.66666666666667</ele><time>2026-04-26T07:23:35.985Z</time></trkpt><trkpt lat="41.13243007494088" lon="9.36686734572026"><ele>49.33333333333333</ele><time>2026-04-26T07:23:36.985Z</time></trkpt><trkpt lat="41.132608276224154" lon="9.366961346095103"><ele>49.0</ele><time>2026-04-26T07:23:37.985Z</time></trkpt><trkpt lat="41.132729971174264" lon="9.3670818826962"><ele>48.0</ele><time>2026-04-26T07:23:38.985Z</time></trkpt><trkpt lat="41.13279729897246" lon="9.367272907997657"><ele>47.0</ele><time>2026-04-26T07:23:39.985Z</time></trkpt><trkpt lat="41.13283968598771" lon="9.36751852097202"><ele>46.0</ele><time>2026-04-26T07:23:40.985Z</time></trkpt><trkpt lat="41.13288835592902" lon="9.367761298373386"><ele>46.0</ele><time>2026-04-26T07:23:41.985Z</time></trkpt><trkpt lat="41.13296547316489" lon="9.367953304672469"><ele>46.0</ele><time>2026-04-26T07:23:42.985Z</time></trkpt><trkpt lat="41.13309982445341" lon="9.368092573135073"><ele>46.0</ele><time>2026-04-26T07:23:43.985Z</time></trkpt><trkpt lat="41.133303340754345" lon="9.368157856917069"><ele>45.5</ele><time>2026-04-26T07:23:44.985Z</time></trkpt><trkpt lat="41.13354092345079" lon="9.36815353771039"><ele>45.0</ele><time>2026-04-26T07:23:45.985Z</time></trkpt><trkpt lat="41.13379727832364" lon="9.368121545600102"><ele>45.0</ele><time>2026-04-26T07:23:46.985Z</time></trkpt><trkpt lat="41.134040226289414" lon="9.368108325655635"><ele>45.0</ele><time>2026-04-26T07:23:47.985Z</time></trkpt><trkpt lat="41.134289545684894" lon="9.368105880125091"><ele>45.5</ele><time>2026-04-26T07:23:48.985Z</time></trkpt><trkpt lat="41.13454021065152" lon="9.368110084223574"><ele>46.0</ele><time>2026-04-26T07:23:49.985Z</time></trkpt><trkpt lat="41.1347809779929" lon="9.368116442558446"><ele>45.5</ele><time>2026-04-26T07:23:50.985Z</time></trkpt><trkpt lat="41.13503258810918" lon="9.368121286118837"><ele>45.0</ele><time>2026-04-26T07:23:51.985Z</time></trkpt><trkpt lat="41.13529365556875" lon="9.368107942783812"><ele>45.0</ele><time>2026-04-26T07:23:52.985Z</time></trkpt><trkpt lat="41.13555791440687" lon="9.368082489692434"><ele>45.0</ele><time>2026-04-26T07:23:53.985Z</time></trkpt><trkpt lat="41.135825844520035" lon="9.368057401023062"><ele>45.5</ele><time>2026-04-26T07:23:54.985Z</time></trkpt><trkpt lat="41.13608632749607" lon="9.368035368555027"><ele>46.0</ele><time>2026-04-26T07:23:55.985Z</time></trkpt><trkpt lat="41.13632476795421" lon="9.368014116418433"><ele>45.333333333333336</ele><time>2026-04-26T07:23:56.985Z</time></trkpt><trkpt lat="41.13654704019637" lon="9.367997182824558"><ele>44.666666666666664</ele><time>2026-04-26T07:23:57.985Z</time></trkpt><trkpt lat="41.13674930189682" lon="9.368016960519162"><ele>44.0</ele><time>2026-04-26T07:23:58.985Z</time></trkpt><trkpt lat="41.13695011482184" lon="9.368115619163543"><ele>44.0</ele><time>2026-04-26T07:23:59.985Z</time></trkpt><trkpt lat="41.13715240846275" lon="9.368270961676092"><ele>44.0</ele><time>2026-04-26T07:24:00.985Z</time></trkpt><trkpt lat="41.1373528564038" lon="9.368452614598915"><ele>44.0</ele><time>2026-04-26T07:24:01.985Z</time></trkpt><trkpt lat="41.137562110271105" lon="9.368625568621681"><ele>44.0</ele><time>2026-04-26T07:24:02.985Z</time></trkpt><trkpt lat="41.137762523070776" lon="9.368788430282605"><ele>43.0</ele><time>2026-04-26T07:24:03.985Z</time></trkpt><trkpt lat="41.137973378769786" lon="9.368958643768856"><ele>42.0</ele><time>2026-04-26T07:24:04.985Z</time></trkpt><trkpt lat="41.13818879458402" lon="9.369136226099185"><ele>44.0</ele><time>2026-04-26T07:24:05.985Z</time></trkpt><trkpt lat="41.13840670922807" lon="9.369319241647474"><ele>46.0</ele><time>2026-04-26T07:24:06.985Z</time></trkpt><trkpt lat="41.13861148135324" lon="9.36950120649998"><ele>46.0</ele><time>2026-04-26T07:24:07.985Z</time></trkpt><trkpt lat="41.13881787736818" lon="9.369671775832844"><ele>46.0</ele><time>2026-04-26T07:24:08.985Z</time></trkpt><trkpt lat="41.13902029574685" lon="9.369835091499212"><ele>44.5</ele><time>2026-04-26T07:24:09.985Z</time></trkpt><trkpt lat="41.13922345884731" lon="9.369984909032233"><ele>43.0</ele><time>2026-04-26T07:24:10.985Z</time></trkpt><trkpt lat="41.13944041929785" lon="9.370087630400786"><ele>43.0</ele><time>2026-04-26T07:24:11.985Z</time></trkpt><trkpt lat="41.13967758168934" lon="9.37015299478924"><ele>43.0</ele><time>2026-04-26T07:24:12.985Z</time></trkpt><trkpt lat="41.139915514272865" lon="9.370208387092008"><ele>42.5</ele><time>2026-04-26T07:24:13.985Z</time></trkpt><trkpt lat="41.14016183940648" lon="9.370273480607837"><ele>42.0</ele><time>2026-04-26T07:24:14.985Z</time></trkpt><trkpt lat="41.14040839791343" lon="9.370346162314032"><ele>42.0</ele><time>2026-04-26T07:24:15.984Z</time></trkpt><trkpt lat="41.140646647804644" lon="9.37040957334374"><ele>42.0</ele><time>2026-04-26T07:24:16.984Z</time></trkpt><trkpt lat="41.14084674114157" lon="9.370465616189561"><ele>42.0</ele><time>2026-04-26T07:24:17.984Z</time></trkpt><trkpt lat="41.141003489649805" lon="9.370507362344483"><ele>42.25</ele><time>2026-04-26T07:24:18.984Z</time></trkpt><trkpt lat="41.14113116437103" lon="9.370533699008591"><ele>42.5</ele><time>2026-04-26T07:24:19.984Z</time></trkpt><trkpt lat="41.14124509429905" lon="9.370525523556458"><ele>42.75</ele><time>2026-04-26T07:24:20.984Z</time></trkpt><trkpt lat="41.14134693859928" lon="9.37047451162638"><ele>43.0</ele><time>2026-04-26T07:24:21.984Z</time></trkpt><trkpt lat="41.14144791892554" lon="9.370412480412456"><ele>43.66666666666667</ele><time>2026-04-26T07:24:22.984Z</time></trkpt><trkpt lat="41.14157032509219" lon="9.37034267647913"><ele>44.333333333333336</ele><time>2026-04-26T07:24:23.984Z</time></trkpt><trkpt lat="41.1417135757137" lon="9.370265990858387"><ele>45.0</ele><time>2026-04-26T07:24:24.984Z</time></trkpt><trkpt lat="41.14187496993853" lon="9.370191626181468"><ele>45.0</ele><time>2026-04-26T07:24:25.984Z</time></trkpt><trkpt lat="41.14205470453419" lon="9.370113698412306"><ele>45.0</ele><time>2026-04-26T07:24:26.984Z</time></trkpt><trkpt lat="41.14224462947207" lon="9.370034586227378"><ele>45.0</ele><time>2026-04-26T07:24:27.984Z</time></trkpt><trkpt lat="41.14242361531267" lon="9.369975829682081"><ele>43.666666666666664</ele><time>2026-04-26T07:24:28.984Z</time></trkpt><trkpt lat="41.142612257405595" lon="9.369928589547223"><ele>42.33333333333333</ele><time>2026-04-26T07:24:29.984Z</time></trkpt><trkpt lat="41.142822417004346" lon="9.369891314875693"><ele>41.0</ele><time>2026-04-26T07:24:30.984Z</time></trkpt><trkpt lat="41.14304386496659" lon="9.369857436009807"><ele>39.33333333333333</ele><time>2026-04-26T07:24:31.984Z</time></trkpt><trkpt lat="41.14325703820345" lon="9.369817259267862"><ele>37.666666666666664</ele><time>2026-04-26T07:24:32.984Z</time></trkpt><trkpt lat="41.14346998514942" lon="9.369769021350553"><ele>36.0</ele><time>2026-04-26T07:24:33.984Z</time></trkpt><trkpt lat="41.14367361546335" lon="9.36972454041673"><ele>36.666666666666664</ele><time>2026-04-26T07:24:34.984Z</time></trkpt><trkpt lat="41.14386605544658" lon="9.369687530669806"><ele>37.33333333333333</ele><time>2026-04-26T07:24:35.984Z</time></trkpt><trkpt lat="41.14405420778315" lon="9.369654146986898"><ele>38.0</ele><time>2026-04-26T07:24:36.984Z</time></trkpt><trkpt lat="41.14423481953009" lon="9.369623327393505"><ele>38.0</ele><time>2026-04-26T07:24:37.984Z</time></trkpt><trkpt lat="41.14442718411362" lon="9.369622318155884"><ele>38.0</ele><time>2026-04-26T07:24:38.984Z</time></trkpt><trkpt lat="41.1446250418821" lon="9.369652546894379"><ele>38.0</ele><time>2026-04-26T07:24:39.984Z</time></trkpt><trkpt lat="41.14483217426385" lon="9.369704666808252"><ele>38.33333333333333</ele><time>2026-04-26T07:24:40.984Z</time></trkpt><trkpt lat="41.14504889260034" lon="9.369750068413737"><ele>38.666666666666664</ele><time>2026-04-26T07:24:41.984Z</time></trkpt><trkpt lat="41.145275223480105" lon="9.369777194433059"><ele>39.0</ele><time>2026-04-26T07:24:42.984Z</time></trkpt><trkpt lat="41.14550120269807" lon="9.369761612841701"><ele>40.0</ele><time>2026-04-26T07:24:43.984Z</time></trkpt><trkpt lat="41.145735186449485" lon="9.369680523560312"><ele>41.0</ele><time>2026-04-26T07:24:44.984Z</time></trkpt><trkpt lat="41.14596800793012" lon="9.369566497007694"><ele>41.0</ele><time>2026-04-26T07:24:45.984Z</time></trkpt><trkpt lat="41.146207493426495" lon="9.36944764217159"><ele>41.0</ele><time>2026-04-26T07:24:46.984Z</time></trkpt><trkpt lat="41.146444874141096" lon="9.369356640425837"><ele>41.5</ele><time>2026-04-26T07:24:47.984Z</time></trkpt><trkpt lat="41.14668136949634" lon="9.369330680312315"><ele>42.0</ele><time>2026-04-26T07:24:48.984Z</time></trkpt><trkpt lat="41.146914099838504" lon="9.369344104288276"><ele>42.0</ele><time>2026-04-26T07:24:49.984Z</time></trkpt><trkpt lat="41.147149415822796" lon="9.369380005112088"><ele>42.0</ele><time>2026-04-26T07:24:50.984Z</time></trkpt><trkpt lat="41.14737592797176" lon="9.369437149809142"><ele>45.0</ele><time>2026-04-26T07:24:51.984Z</time></trkpt><trkpt lat="41.14759549772544" lon="9.369531724885933"><ele>48.0</ele><time>2026-04-26T07:24:52.984Z</time></trkpt><trkpt lat="41.14782469156042" lon="9.369648215902933"><ele>46.0</ele><time>2026-04-26T07:24:53.984Z</time></trkpt><trkpt lat="41.14805352593637" lon="9.369764160170785"><ele>44.0</ele><time>2026-04-26T07:24:54.984Z</time></trkpt><trkpt lat="41.148289213171665" lon="9.36983754286714"><ele>44.0</ele><time>2026-04-26T07:24:55.984Z</time></trkpt><trkpt lat="41.14853646657986" lon="9.369852961482195"><ele>44.0</ele><time>2026-04-26T07:24:56.984Z</time></trkpt><trkpt lat="41.14878932370275" lon="9.369840614896493"><ele>42.0</ele><time>2026-04-26T07:24:57.984Z</time></trkpt><trkpt lat="41.14904673954485" lon="9.369841346592052"><ele>40.0</ele><time>2026-04-26T07:24:58.984Z</time></trkpt><trkpt lat="41.14930443838464" lon="9.369841358555243"><ele>40.0</ele><time>2026-04-26T07:24:59.984Z</time></trkpt><trkpt lat="41.14956095836962" lon="9.369834410798067"><ele>40.0</ele><time>2026-04-26T07:25:00.984Z</time></trkpt><trkpt lat="41.14981815490889" lon="9.369835983993845"><ele>39.0</ele><time>2026-04-26T07:25:01.984Z</time></trkpt><trkpt lat="41.150069153281535" lon="9.369840506910549"><ele>38.0</ele><time>2026-04-26T07:25:02.984Z</time></trkpt><trkpt lat="41.15030906782441" lon="9.369865138655811"><ele>38.0</ele><time>2026-04-26T07:25:03.984Z</time></trkpt><trkpt lat="41.15054481865871" lon="9.369934724526905"><ele>38.0</ele><time>2026-04-26T07:25:04.984Z</time></trkpt><trkpt lat="41.1507756101561" lon="9.37002994914929"><ele>37.0</ele><time>2026-04-26T07:25:05.984Z</time></trkpt><trkpt lat="41.15100562026678" lon="9.370130481565043"><ele>36.0</ele><time>2026-04-26T07:25:06.984Z</time></trkpt><trkpt lat="41.15123650278283" lon="9.370229336050445"><ele>36.0</ele><time>2026-04-26T07:25:07.984Z</time></trkpt><trkpt lat="41.15146877315735" lon="9.370330174655683"><ele>36.0</ele><time>2026-04-26T07:25:08.985Z</time></trkpt><trkpt lat="41.15168887972189" lon="9.370414069104854"><ele>35.333333333333336</ele><time>2026-04-26T07:25:09.984Z</time></trkpt><trkpt lat="41.15189372604151" lon="9.370500447449837"><ele>34.66666666666667</ele><time>2026-04-26T07:25:10.984Z</time></trkpt><trkpt lat="41.15209013476742" lon="9.37058465593787"><ele>34.0</ele><time>2026-04-26T07:25:11.985Z</time></trkpt><trkpt lat="41.152293895609404" lon="9.370671510494136"><ele>33.0</ele><time>2026-04-26T07:25:12.985Z</time></trkpt><trkpt lat="41.15251148689506" lon="9.370767315293632"><ele>32.0</ele><time>2026-04-26T07:25:13.985Z</time></trkpt><trkpt lat="41.152731781039535" lon="9.370863654303136"><ele>32.0</ele><time>2026-04-26T07:25:14.985Z</time></trkpt><trkpt lat="41.152960430192664" lon="9.370956358152275"><ele>32.0</ele><time>2026-04-26T07:25:15.985Z</time></trkpt><trkpt lat="41.15319473930181" lon="9.37105265336305"><ele>34.0</ele><time>2026-04-26T07:25:16.985Z</time></trkpt><trkpt lat="41.15343545111431" lon="9.37115572294685"><ele>36.0</ele><time>2026-04-26T07:25:17.985Z</time></trkpt><trkpt lat="41.15367142271999" lon="9.371261436765925"><ele>35.5</ele><time>2026-04-26T07:25:18.985Z</time></trkpt><trkpt lat="41.15390147682733" lon="9.371360380921187"><ele>35.0</ele><time>2026-04-26T07:25:19.985Z</time></trkpt><trkpt lat="41.15413171259131" lon="9.371454887082702"><ele>35.0</ele><time>2026-04-26T07:25:20.985Z</time></trkpt><trkpt lat="41.15435844809784" lon="9.371552549301539"><ele>35.0</ele><time>2026-04-26T07:25:21.984Z</time></trkpt><trkpt lat="41.15459141869973" lon="9.371647209306152"><ele>35.0</ele><time>2026-04-26T07:25:22.984Z</time></trkpt><trkpt lat="41.15482766532207" lon="9.371744052458304"><ele>35.0</ele><time>2026-04-26T07:25:23.984Z</time></trkpt><trkpt lat="41.15506506906365" lon="9.371843461310268"><ele>35.0</ele><time>2026-04-26T07:25:24.984Z</time></trkpt><trkpt lat="41.15530007413581" lon="9.371944444339169"><ele>35.0</ele><time>2026-04-26T07:25:25.984Z</time></trkpt><trkpt lat="41.15553543179441" lon="9.372041970555113"><ele>34.5</ele><time>2026-04-26T07:25:26.984Z</time></trkpt><trkpt lat="41.155770338888004" lon="9.372136478943956"><ele>34.0</ele><time>2026-04-26T07:25:27.984Z</time></trkpt><trkpt lat="41.15600650899327" lon="9.37222775690975"><ele>34.0</ele><time>2026-04-26T07:25:28.984Z</time></trkpt><trkpt lat="41.156241535957925" lon="9.372316568706212"><ele>34.0</ele><time>2026-04-26T07:25:29.984Z</time></trkpt><trkpt lat="41.15647508742811" lon="9.37240981665698"><ele>34.5</ele><time>2026-04-26T07:25:30.984Z</time></trkpt><trkpt lat="41.156711233090704" lon="9.372491533795014"><ele>35.0</ele><time>2026-04-26T07:25:31.984Z</time></trkpt><trkpt lat="41.156954170580846" lon="9.372552262267684"><ele>35.0</ele><time>2026-04-26T07:25:32.984Z</time></trkpt><trkpt lat="41.157204342990546" lon="9.372589710288478"><ele>35.0</ele><time>2026-04-26T07:25:33.984Z</time></trkpt><trkpt lat="41.15745862133946" lon="9.372595878983848"><ele>33.5</ele><time>2026-04-26T07:25:34.984Z</time></trkpt><trkpt lat="41.15771459133432" lon="9.372571626180658"><ele>32.0</ele><time>2026-04-26T07:25:35.984Z</time></trkpt><trkpt lat="41.15797630600008" lon="9.372521300976699"><ele>29.5</ele><time>2026-04-26T07:25:36.984Z</time></trkpt><trkpt lat="41.1582343547343" lon="9.37244223796503"><ele>27.0</ele><time>2026-04-26T07:25:37.984Z</time></trkpt><trkpt lat="41.1584869605534" lon="9.372328068783059"><ele>28.0</ele><time>2026-04-26T07:25:38.984Z</time></trkpt><trkpt lat="41.158735371455165" lon="9.37218318109182"><ele>29.0</ele><time>2026-04-26T07:25:39.984Z</time></trkpt><trkpt lat="41.15897218606771" lon="9.372005561065016"><ele>24.5</ele><time>2026-04-26T07:25:40.984Z</time></trkpt><trkpt lat="41.15919842647533" lon="9.37180635554213"><ele>20.0</ele><time>2026-04-26T07:25:41.984Z</time></trkpt><trkpt lat="41.1594192740733" lon="9.3716011718475"><ele>20.0</ele><time>2026-04-26T07:25:42.984Z</time></trkpt><trkpt lat="41.15963886355752" lon="9.371391623800863"><ele>20.0</ele><time>2026-04-26T07:25:43.984Z</time></trkpt><trkpt lat="41.15985882990427" lon="9.371196177927276"><ele>19.5</ele><time>2026-04-26T07:25:44.984Z</time></trkpt><trkpt lat="41.16009320427888" lon="9.371029299024244"><ele>19.0</ele><time>2026-04-26T07:25:45.984Z</time></trkpt><trkpt lat="41.16034054360337" lon="9.370895636486772"><ele>19.0</ele><time>2026-04-26T07:25:46.984Z</time></trkpt><trkpt lat="41.160597514280596" lon="9.370798612005123"><ele>19.0</ele><time>2026-04-26T07:25:47.984Z</time></trkpt><trkpt lat="41.16085903336737" lon="9.370736508758666"><ele>15.0</ele><time>2026-04-26T07:25:48.984Z</time></trkpt><trkpt lat="41.161125162676974" lon="9.370709894717468"><ele>11.0</ele><time>2026-04-26T07:25:49.984Z</time></trkpt><trkpt lat="41.16139720165623" lon="9.370707023090942"><ele>10.0</ele><time>2026-04-26T07:25:50.984Z</time></trkpt><trkpt lat="41.16166375561246" lon="9.370704978064444"><ele>9.0</ele><time>2026-04-26T07:25:51.984Z</time></trkpt><trkpt lat="41.16192824669322" lon="9.370697275189801"><ele>9.0</ele><time>2026-04-26T07:25:52.984Z</time></trkpt><trkpt lat="41.162190716170485" lon="9.370693677631174"><ele>9.0</ele><time>2026-04-26T07:25:53.984Z</time></trkpt><trkpt lat="41.16244501998221" lon="9.370688765266012"><ele>10.5</ele><time>2026-04-26T07:25:54.984Z</time></trkpt><trkpt lat="41.1626907312833" lon="9.370684855739338"><ele>12.0</ele><time>2026-04-26T07:25:55.984Z</time></trkpt><trkpt lat="41.162923203822636" lon="9.370674771682896"><ele>12.0</ele><time>2026-04-26T07:25:56.984Z</time></trkpt><trkpt lat="41.16315639789503" lon="9.370661580458385"><ele>12.0</ele><time>2026-04-26T07:25:57.984Z</time></trkpt><trkpt lat="41.163387099080175" lon="9.370642256507383"><ele>11.5</ele><time>2026-04-26T07:25:58.984Z</time></trkpt><trkpt lat="41.163617614634084" lon="9.370624280524419"><ele>11.0</ele><time>2026-04-26T07:25:59.984Z</time></trkpt><trkpt lat="41.16385199167649" lon="9.37061461830571"><ele>10.0</ele><time>2026-04-26T07:26:00.984Z</time></trkpt><trkpt lat="41.1640834130608" lon="9.370604083991006"><ele>9.0</ele><time>2026-04-26T07:26:01.984Z</time></trkpt><trkpt lat="41.16431327642477" lon="9.370587107629945"><ele>9.0</ele><time>2026-04-26T07:26:02.984Z</time></trkpt><trkpt lat="41.1645412040925" lon="9.37057623627653"><ele>9.0</ele><time>2026-04-26T07:26:03.984Z</time></trkpt><trkpt lat="41.16476861890988" lon="9.370561704946962"><ele>10.0</ele><time>2026-04-26T07:26:04.984Z</time></trkpt><trkpt lat="41.1650016147374" lon="9.37054830342101"><ele>11.0</ele><time>2026-04-26T07:26:05.984Z</time></trkpt><trkpt lat="41.16523482675352" lon="9.370536625874236"><ele>13.5</ele><time>2026-04-26T07:26:06.984Z</time></trkpt><trkpt lat="41.165466569132775" lon="9.370521714962472"><ele>16.0</ele><time>2026-04-26T07:26:07.984Z</time></trkpt><trkpt lat="41.165705874184376" lon="9.370506615402006"><ele>16.5</ele><time>2026-04-26T07:26:08.984Z</time></trkpt><trkpt lat="41.16594679047985" lon="9.370489925645012"><ele>17.0</ele><time>2026-04-26T07:26:09.984Z</time></trkpt><trkpt lat="41.1661867443015" lon="9.370474583592394"><ele>17.0</ele><time>2026-04-26T07:26:10.984Z</time></trkpt><trkpt lat="41.166426632216954" lon="9.370457767124028"><ele>17.0</ele><time>2026-04-26T07:26:11.984Z</time></trkpt><trkpt lat="41.16666834539494" lon="9.370439933881908"><ele>15.0</ele><time>2026-04-26T07:26:12.984Z</time></trkpt><trkpt lat="41.16691687974286" lon="9.370424170899307"><ele>13.0</ele><time>2026-04-26T07:26:13.984Z</time></trkpt><trkpt lat="41.167168231290034" lon="9.370410033909002"><ele>12.0</ele><time>2026-04-26T07:26:14.984Z</time></trkpt><trkpt lat="41.167414555131856" lon="9.370388782826067"><ele>11.0</ele><time>2026-04-26T07:26:15.983Z</time></trkpt><trkpt lat="41.16766116391503" lon="9.370373631714646"><ele>11.0</ele><time>2026-04-26T07:26:16.983Z</time></trkpt><trkpt lat="41.167904044680604" lon="9.370358896526376"><ele>11.0</ele><time>2026-04-26T07:26:17.983Z</time></trkpt><trkpt lat="41.168141933638914" lon="9.370344087470905"><ele>12.5</ele><time>2026-04-26T07:26:18.983Z</time></trkpt><trkpt lat="41.16837417910807" lon="9.370328871278332"><ele>14.0</ele><time>2026-04-26T07:26:19.983Z</time></trkpt><trkpt lat="41.16860066778598" lon="9.37031573996128"><ele>14.0</ele><time>2026-04-26T07:26:20.983Z</time></trkpt><trkpt lat="41.16881669648396" lon="9.370306669314047"><ele>14.0</ele><time>2026-04-26T07:26:21.983Z</time></trkpt><trkpt lat="41.16901851736315" lon="9.37029448832282"><ele>14.0</ele><time>2026-04-26T07:26:22.983Z</time></trkpt><trkpt lat="41.16920459764456" lon="9.37027454119386"><ele>13.0</ele><time>2026-04-26T07:26:23.983Z</time></trkpt><trkpt lat="41.169385228424495" lon="9.370252851376303"><ele>12.0</ele><time>2026-04-26T07:26:24.983Z</time></trkpt><trkpt lat="41.16956677064752" lon="9.370230398921551"><ele>11.0</ele><time>2026-04-26T07:26:25.983Z</time></trkpt><trkpt lat="41.169752052117154" lon="9.370179690864688"><ele>10.333333333333332</ele><time>2026-04-26T07:26:26.983Z</time></trkpt><trkpt lat="41.169936780440565" lon="9.37009803367771"><ele>9.666666666666666</ele><time>2026-04-26T07:26:27.983Z</time></trkpt><trkpt lat="41.170123273195735" lon="9.370003801280562"><ele>9.0</ele><time>2026-04-26T07:26:28.983Z</time></trkpt><trkpt lat="41.17030857833278" lon="9.369913488145183"><ele>9.0</ele><time>2026-04-26T07:26:29.983Z</time></trkpt><trkpt lat="41.170495916729124" lon="9.36982590999966"><ele>9.0</ele><time>2026-04-26T07:26:30.983Z</time></trkpt><trkpt lat="41.17067553207321" lon="9.369741165075165"><ele>9.0</ele><time>2026-04-26T07:26:31.983Z</time></trkpt><trkpt lat="41.17084356324235" lon="9.36965765354527"><ele>9.0</ele><time>2026-04-26T07:26:32.983Z</time></trkpt><trkpt lat="41.17100642118589" lon="9.369578225101588"><ele>9.0</ele><time>2026-04-26T07:26:33.983Z</time></trkpt><trkpt lat="41.171157652706114" lon="9.369492912384151"><ele>9.0</ele><time>2026-04-26T07:26:34.983Z</time></trkpt><trkpt lat="41.17129778726881" lon="9.369393525828777"><ele>9.0</ele><time>2026-04-26T07:26:35.983Z</time></trkpt><trkpt lat="41.17142990699394" lon="9.369287788505234"><ele>9.0</ele><time>2026-04-26T07:26:36.983Z</time></trkpt><trkpt lat="41.17156292513693" lon="9.369193075138469"><ele>9.0</ele><time>2026-04-26T07:26:37.983Z</time></trkpt><trkpt lat="41.171702626484006" lon="9.369114272539942"><ele>8.666666666666666</ele><time>2026-04-26T07:26:38.983Z</time></trkpt><trkpt lat="41.17184694400083" lon="9.369043616762173"><ele>8.333333333333332</ele><time>2026-04-26T07:26:39.983Z</time></trkpt><trkpt lat="41.17199527617512" lon="9.368987462958112"><ele>8.0</ele><time>2026-04-26T07:26:40.983Z</time></trkpt><trkpt lat="41.172152781926464" lon="9.368933319214165"><ele>8.0</ele><time>2026-04-26T07:26:41.983Z</time></trkpt><trkpt lat="41.17230923321931" lon="9.368884578870963"><ele>8.0</ele><time>2026-04-26T07:26:42.983Z</time></trkpt><trkpt lat="41.172455204975364" lon="9.368832528444347"><ele>8.0</ele><time>2026-04-26T07:26:43.983Z</time></trkpt><trkpt lat="41.17258847349233" lon="9.368770636372345"><ele>8.75</ele><time>2026-04-26T07:26:44.983Z</time></trkpt><trkpt lat="41.17269181658481" lon="9.368684602726832"><ele>9.5</ele><time>2026-04-26T07:26:45.983Z</time></trkpt><trkpt lat="41.172776655475154" lon="9.368566575055887"><ele>10.25</ele><time>2026-04-26T07:26:46.983Z</time></trkpt><trkpt lat="41.17285063629879" lon="9.368446049953551"><ele>11.0</ele><time>2026-04-26T07:26:47.983Z</time></trkpt><trkpt lat="41.17291959951858" lon="9.36834315618859"><ele>11.0</ele><time>2026-04-26T07:26:48.983Z</time></trkpt><trkpt lat="41.173001335482084" lon="9.368256282342097"><ele>11.0</ele><time>2026-04-26T07:26:49.983Z</time></trkpt><trkpt lat="41.173082823465954" lon="9.368190831218495"><ele>11.0</ele><time>2026-04-26T07:26:50.983Z</time></trkpt><trkpt lat="41.173161193135485" lon="9.368139814064113"><ele>11.0</ele><time>2026-04-26T07:26:51.983Z</time></trkpt><trkpt lat="41.173235978376574" lon="9.368090492889003"><ele>11.0</ele><time>2026-04-26T07:26:52.983Z</time></trkpt><trkpt lat="41.173305079492096" lon="9.368039322253432"><ele>10.333333333333332</ele><time>2026-04-26T07:26:53.983Z</time></trkpt><trkpt lat="41.17337053118971" lon="9.36799355114138"><ele>9.666666666666666</ele><time>2026-04-26T07:26:54.983Z</time></trkpt><trkpt lat="41.17342713503275" lon="9.367954646318402"><ele>9.0</ele><time>2026-04-26T07:26:55.983Z</time></trkpt><trkpt lat="41.173485575122186" lon="9.36792225364345"><ele>8.333333333333334</ele><time>2026-04-26T07:26:56.983Z</time></trkpt><trkpt lat="41.17357581182086" lon="9.367880197278517"><ele>7.666666666666667</ele><time>2026-04-26T07:26:58.983Z</time></trkpt><trkpt lat="41.173684840482686" lon="9.367857757159223"><ele>7.0</ele><time>2026-04-26T07:27:01.983Z</time></trkpt><trkpt lat="41.1737970633856" lon="9.367871526516947"><ele>7.000000000000001</ele><time>2026-04-26T07:27:03.983Z</time></trkpt><trkpt lat="41.17391657179751" lon="9.367853406876552"><ele>7.0</ele><time>2026-04-26T07:27:05.983Z</time></trkpt><trkpt lat="41.1739731476031" lon="9.367798734673231"><ele>7.0</ele><time>2026-04-26T07:27:06.983Z</time></trkpt><trkpt lat="41.174006614433544" lon="9.367715565705995"><ele>7.0</ele><time>2026-04-26T07:27:07.983Z</time></trkpt><trkpt lat="41.1740035711071" lon="9.367617573153037"><ele>7.000000000000001</ele><time>2026-04-26T07:27:08.983Z</time></trkpt><trkpt lat="41.1739619565136" lon="9.367519777198746"><ele>7.0</ele><time>2026-04-26T07:27:09.983Z</time></trkpt><trkpt lat="41.17389738034466" lon="9.367434672018694"><ele>7.0</ele><time>2026-04-26T07:27:10.983Z</time></trkpt><trkpt lat="41.17381363760379" lon="9.36736208454744"><ele>7.0</ele><time>2026-04-26T07:27:11.983Z</time></trkpt><trkpt lat="41.173738985650864" lon="9.367262337790153"><ele>7.0</ele><time>2026-04-26T07:27:12.983Z</time></trkpt><trkpt lat="41.17367768348714" lon="9.367122435947019"><ele>7.0</ele><time>2026-04-26T07:27:13.983Z</time></trkpt><trkpt lat="41.173626421660394" lon="9.366957278647162"><ele>8.333333333333334</ele><time>2026-04-26T07:27:14.984Z</time></trkpt><trkpt lat="41.17356585866542" lon="9.366769638436015"><ele>9.666666666666666</ele><time>2026-04-26T07:27:15.984Z</time></trkpt><trkpt lat="41.17350636679445" lon="9.366571087195384"><ele>11.0</ele><time>2026-04-26T07:27:16.984Z</time></trkpt><trkpt lat="41.17344916086241" lon="9.366375187106591"><ele>13.0</ele><time>2026-04-26T07:27:17.984Z</time></trkpt><trkpt lat="41.173385965445966" lon="9.366160317000332"><ele>15.0</ele><time>2026-04-26T07:27:18.984Z</time></trkpt><trkpt lat="41.17333218511861" lon="9.365924722395109"><ele>17.0</ele><time>2026-04-26T07:27:19.984Z</time></trkpt><trkpt lat="41.173290833534" lon="9.365679424043373"><ele>18.0</ele><time>2026-04-26T07:27:20.984Z</time></trkpt><trkpt lat="41.17326925235475" lon="9.365446649951624"><ele>19.0</ele><time>2026-04-26T07:27:21.984Z</time></trkpt><trkpt lat="41.17325983146385" lon="9.365216197876343"><ele>20.0</ele><time>2026-04-26T07:27:22.984Z</time></trkpt><trkpt lat="41.173242456555585" lon="9.364970006706969"><ele>20.0</ele><time>2026-04-26T07:27:23.984Z</time></trkpt><trkpt lat="41.173221975560985" lon="9.364711867199398"><ele>20.0</ele><time>2026-04-26T07:27:24.984Z</time></trkpt><trkpt lat="41.17320479520693" lon="9.364440965501085"><ele>20.0</ele><time>2026-04-26T07:27:25.984Z</time></trkpt><trkpt lat="41.17318398810922" lon="9.36416182714515"><ele>18.333333333333336</ele><time>2026-04-26T07:27:26.985Z</time></trkpt><trkpt lat="41.17315903346712" lon="9.363881076568036"><ele>16.666666666666668</ele><time>2026-04-26T07:27:27.984Z</time></trkpt><trkpt lat="41.1730852826791" lon="9.363613366224913"><ele>15.0</ele><time>2026-04-26T07:27:28.984Z</time></trkpt><trkpt lat="41.17297675813781" lon="9.363357181456815"><ele>15.0</ele><time>2026-04-26T07:27:29.984Z</time></trkpt><trkpt lat="41.172865047868555" lon="9.363087598196524"><ele>15.0</ele><time>2026-04-26T07:27:30.984Z</time></trkpt><trkpt lat="41.17279087081283" lon="9.36278528318579"><ele>16.5</ele><time>2026-04-26T07:27:31.984Z</time></trkpt><trkpt lat="41.172746242753796" lon="9.362465564418068"><ele>18.0</ele><time>2026-04-26T07:27:32.984Z</time></trkpt><trkpt lat="41.172704077122525" lon="9.362143626356577"><ele>18.5</ele><time>2026-04-26T07:27:33.984Z</time></trkpt><trkpt lat="41.17265874650963" lon="9.361809996724324"><ele>19.0</ele><time>2026-04-26T07:27:34.984Z</time></trkpt><trkpt lat="41.17261443765775" lon="9.361474653378194"><ele>18.5</ele><time>2026-04-26T07:27:35.984Z</time></trkpt><trkpt lat="41.172593127432826" lon="9.361131279407"><ele>18.0</ele><time>2026-04-26T07:27:36.984Z</time></trkpt><trkpt lat="41.17258358201712" lon="9.360779497192347"><ele>19.5</ele><time>2026-04-26T07:27:37.984Z</time></trkpt><trkpt lat="41.172553973941866" lon="9.36042969408509"><ele>21.0</ele><time>2026-04-26T07:27:38.984Z</time></trkpt><trkpt lat="41.17248879044436" lon="9.360084131069858"><ele>21.0</ele><time>2026-04-26T07:27:39.984Z</time></trkpt><trkpt lat="41.17241283352344" lon="9.35974067138446"><ele>21.0</ele><time>2026-04-26T07:27:40.984Z</time></trkpt><trkpt lat="41.172339592938734" lon="9.35939386412471"><ele>21.0</ele><time>2026-04-26T07:27:41.984Z</time></trkpt><trkpt lat="41.1722669107661" lon="9.359052267329256"><ele>21.0</ele><time>2026-04-26T07:27:42.984Z</time></trkpt><trkpt lat="41.17219183872035" lon="9.358717941384999"><ele>20.5</ele><time>2026-04-26T07:27:43.984Z</time></trkpt><trkpt lat="41.17211746217686" lon="9.35838649673706"><ele>20.0</ele><time>2026-04-26T07:27:44.984Z</time></trkpt><trkpt lat="41.17204245400518" lon="9.35805299581204"><ele>22.0</ele><time>2026-04-26T07:27:45.984Z</time></trkpt><trkpt lat="41.1719707780049" lon="9.357721087975724"><ele>24.0</ele><time>2026-04-26T07:27:46.984Z</time></trkpt><trkpt lat="41.17189708454973" lon="9.357386493819293"><ele>25.5</ele><time>2026-04-26T07:27:47.984Z</time></trkpt><trkpt lat="41.17182567698364" lon="9.357051064717442"><ele>27.0</ele><time>2026-04-26T07:27:48.984Z</time></trkpt><trkpt lat="41.17175484191274" lon="9.356713022124097"><ele>27.0</ele><time>2026-04-26T07:27:49.984Z</time></trkpt><trkpt lat="41.171681254016605" lon="9.35637596913895"><ele>27.0</ele><time>2026-04-26T07:27:50.984Z</time></trkpt><trkpt lat="41.171605455136984" lon="9.356038687664437"><ele>27.5</ele><time>2026-04-26T07:27:51.984Z</time></trkpt><trkpt lat="41.17153222768681" lon="9.35570197466147"><ele>28.0</ele><time>2026-04-26T07:27:52.984Z</time></trkpt><trkpt lat="41.17146188571098" lon="9.355369628248308"><ele>28.5</ele><time>2026-04-26T07:27:53.984Z</time></trkpt><trkpt lat="41.171399188902" lon="9.355061915753032"><ele>29.0</ele><time>2026-04-26T07:27:54.984Z</time></trkpt><trkpt lat="41.17134411913973" lon="9.354781948951796"><ele>28.666666666666664</ele><time>2026-04-26T07:27:55.984Z</time></trkpt><trkpt lat="41.171293578685344" lon="9.354521436701683"><ele>28.333333333333336</ele><time>2026-04-26T07:27:56.984Z</time></trkpt><trkpt lat="41.1712392856996" lon="9.3542833376869"><ele>28.0</ele><time>2026-04-26T07:27:57.984Z</time></trkpt><trkpt lat="41.17119063370944" lon="9.354058906886886"><ele>27.0</ele><time>2026-04-26T07:27:58.983Z</time></trkpt><trkpt lat="41.17114563246082" lon="9.353854103948219"><ele>26.0</ele><time>2026-04-26T07:27:59.983Z</time></trkpt><trkpt lat="41.171105550720185" lon="9.353659205068023"><ele>25.0</ele><time>2026-04-26T07:28:00.983Z</time></trkpt><trkpt lat="41.17106737285926" lon="9.353468529555213"><ele>25.0</ele><time>2026-04-26T07:28:01.983Z</time></trkpt><trkpt lat="41.171026982468526" lon="9.353274509346814"><ele>25.0</ele><time>2026-04-26T07:28:02.983Z</time></trkpt><trkpt lat="41.170980914196605" lon="9.353071532324135"><ele>25.0</ele><time>2026-04-26T07:28:03.983Z</time></trkpt><trkpt lat="41.1709503870872" lon="9.35284680622562"><ele>25.333333333333336</ele><time>2026-04-26T07:28:04.983Z</time></trkpt><trkpt lat="41.170940399314205" lon="9.35260272507529"><ele>25.666666666666664</ele><time>2026-04-26T07:28:05.983Z</time></trkpt><trkpt lat="41.17094392725068" lon="9.352341660617725"><ele>26.0</ele><time>2026-04-26T07:28:06.983Z</time></trkpt><trkpt lat="41.17094981998578" lon="9.352066101158131"><ele>26.0</ele><time>2026-04-26T07:28:07.983Z</time></trkpt><trkpt lat="41.17095662931577" lon="9.35177341398664"><ele>26.0</ele><time>2026-04-26T07:28:08.983Z</time></trkpt><trkpt lat="41.17096473981966" lon="9.35146607152837"><ele>26.0</ele><time>2026-04-26T07:28:09.983Z</time></trkpt><trkpt lat="41.17097274119451" lon="9.351144146620966"><ele>26.0</ele><time>2026-04-26T07:28:10.983Z</time></trkpt><trkpt lat="41.170984004465254" lon="9.350814082852368"><ele>26.5</ele><time>2026-04-26T07:28:11.983Z</time></trkpt><trkpt lat="41.17099441712968" lon="9.350472659990293"><ele>27.0</ele><time>2026-04-26T07:28:12.983Z</time></trkpt><trkpt lat="41.17100678180682" lon="9.35012573104361"><ele>27.0</ele><time>2026-04-26T07:28:13.983Z</time></trkpt><trkpt lat="41.17101659674281" lon="9.349774346037496"><ele>27.0</ele><time>2026-04-26T07:28:14.983Z</time></trkpt><trkpt lat="41.17102460168046" lon="9.349416039081444"><ele>26.0</ele><time>2026-04-26T07:28:15.983Z</time></trkpt><trkpt lat="41.17103347985319" lon="9.349054600976451"><ele>25.0</ele><time>2026-04-26T07:28:16.983Z</time></trkpt><trkpt lat="41.17104450919673" lon="9.348700777015722"><ele>24.5</ele><time>2026-04-26T07:28:17.983Z</time></trkpt><trkpt lat="41.171053996723195" lon="9.348347568775653"><ele>24.0</ele><time>2026-04-26T07:28:18.983Z</time></trkpt><trkpt lat="41.17106345908237" lon="9.347999502316911"><ele>25.0</ele><time>2026-04-26T07:28:19.983Z</time></trkpt><trkpt lat="41.17107593955148" lon="9.347654022807648"><ele>26.0</ele><time>2026-04-26T07:28:20.983Z</time></trkpt><trkpt lat="41.171087828950235" lon="9.34731333530063"><ele>26.0</ele><time>2026-04-26T07:28:21.983Z</time></trkpt><trkpt lat="41.17109634217683" lon="9.346979912442269"><ele>26.0</ele><time>2026-04-26T07:28:22.983Z</time></trkpt><trkpt lat="41.171102408430876" lon="9.346643366495252"><ele>26.5</ele><time>2026-04-26T07:28:23.983Z</time></trkpt><trkpt lat="41.1711088949995" lon="9.346307665420937"><ele>27.0</ele><time>2026-04-26T07:28:24.983Z</time></trkpt><trkpt lat="41.17111683847479" lon="9.345971279701471"><ele>27.0</ele><time>2026-04-26T07:28:25.983Z</time></trkpt><trkpt lat="41.17111673939213" lon="9.345639578480862"><ele>27.0</ele><time>2026-04-26T07:28:26.983Z</time></trkpt><trkpt lat="41.171113146309935" lon="9.34530102564446"><ele>28.0</ele><time>2026-04-26T07:28:27.983Z</time></trkpt><trkpt lat="41.17110008857394" lon="9.344961264866367"><ele>29.0</ele><time>2026-04-26T07:28:28.983Z</time></trkpt><trkpt lat="41.17109949929937" lon="9.344627967122507"><ele>29.0</ele><time>2026-04-26T07:28:29.983Z</time></trkpt><trkpt lat="41.171097374129914" lon="9.344292983623586"><ele>29.0</ele><time>2026-04-26T07:28:30.983Z</time></trkpt><trkpt lat="41.17109515282644" lon="9.343956686994964"><ele>29.5</ele><time>2026-04-26T07:28:31.983Z</time></trkpt><trkpt lat="41.17109203931181" lon="9.343621065328973"><ele>30.0</ele><time>2026-04-26T07:28:32.983Z</time></trkpt><trkpt lat="41.171089772662214" lon="9.343291606954832"><ele>31.0</ele><time>2026-04-26T07:28:33.983Z</time></trkpt><trkpt lat="41.17108183573445" lon="9.342964644396936"><ele>32.0</ele><time>2026-04-26T07:28:34.983Z</time></trkpt><trkpt lat="41.171061988081355" lon="9.342639412200073"><ele>32.0</ele><time>2026-04-26T07:28:35.983Z</time></trkpt><trkpt lat="41.171029011353426" lon="9.342318680394124"><ele>32.0</ele><time>2026-04-26T07:28:36.983Z</time></trkpt><trkpt lat="41.17099010821425" lon="9.34200787116147"><ele>32.666666666666664</ele><time>2026-04-26T07:28:37.983Z</time></trkpt><trkpt lat="41.17095733034405" lon="9.341718908107074"><ele>33.333333333333336</ele><time>2026-04-26T07:28:38.983Z</time></trkpt><trkpt lat="41.17090064450224" lon="9.34144752292205"><ele>34.0</ele><time>2026-04-26T07:28:39.983Z</time></trkpt><trkpt lat="41.17079586805221" lon="9.341195363973634"><ele>35.0</ele><time>2026-04-26T07:28:40.983Z</time></trkpt><trkpt lat="41.17066241527511" lon="9.340973293849752"><ele>36.0</ele><time>2026-04-26T07:28:41.983Z</time></trkpt><trkpt lat="41.17055683319627" lon="9.340740074330396"><ele>37.0</ele><time>2026-04-26T07:28:42.983Z</time></trkpt><trkpt lat="41.170514187337176" lon="9.34046464035204"><ele>38.0</ele><time>2026-04-26T07:28:43.983Z</time></trkpt><trkpt lat="41.170508403732796" lon="9.340175595640966"><ele>39.0</ele><time>2026-04-26T07:28:44.983Z</time></trkpt><trkpt lat="41.17049301514541" lon="9.33991346386636"><ele>40.0</ele><time>2026-04-26T07:28:45.983Z</time></trkpt><trkpt lat="41.170449950071536" lon="9.339655477825655"><ele>41.333333333333336</ele><time>2026-04-26T07:28:46.983Z</time></trkpt><trkpt lat="41.17043374659125" lon="9.339394280216453"><ele>42.666666666666664</ele><time>2026-04-26T07:28:47.983Z</time></trkpt><trkpt lat="41.17039992678375" lon="9.339152902844651"><ele>44.0</ele><time>2026-04-26T07:28:48.983Z</time></trkpt><trkpt lat="41.170352356790445" lon="9.338939780693744"><ele>44.666666666666664</ele><time>2026-04-26T07:28:49.983Z</time></trkpt><trkpt lat="41.17030725969456" lon="9.338735558867931"><ele>45.333333333333336</ele><time>2026-04-26T07:28:50.983Z</time></trkpt><trkpt lat="41.170237657044524" lon="9.338556371260402"><ele>46.0</ele><time>2026-04-26T07:28:51.983Z</time></trkpt><trkpt lat="41.17015874219998" lon="9.338387207469946"><ele>46.0</ele><time>2026-04-26T07:28:52.983Z</time></trkpt><trkpt lat="41.17007813853687" lon="9.338225504155016"><ele>46.0</ele><time>2026-04-26T07:28:53.983Z</time></trkpt><trkpt lat="41.17001505929024" lon="9.338059546632811"><ele>46.0</ele><time>2026-04-26T07:28:54.983Z</time></trkpt><trkpt lat="41.16998146531701" lon="9.33787818470601"><ele>46.0</ele><time>2026-04-26T07:28:55.983Z</time></trkpt><trkpt lat="41.16998020192011" lon="9.337677384165653"><ele>46.0</ele><time>2026-04-26T07:28:56.983Z</time></trkpt><trkpt lat="41.1699866637685" lon="9.337465487032786"><ele>46.0</ele><time>2026-04-26T07:28:57.983Z</time></trkpt><trkpt lat="41.16999137918922" lon="9.337236838968014"><ele>46.0</ele><time>2026-04-26T07:28:58.983Z</time></trkpt><trkpt lat="41.16999936846155" lon="9.336999794840084"><ele>46.0</ele><time>2026-04-26T07:28:59.983Z</time></trkpt><trkpt lat="41.17000831480458" lon="9.3367623522202"><ele>46.0</ele><time>2026-04-26T07:29:00.983Z</time></trkpt><trkpt lat="41.170020236139194" lon="9.336523928653499"><ele>46.0</ele><time>2026-04-26T07:29:01.983Z</time></trkpt><trkpt lat="41.17005418030612" lon="9.336291123382297"><ele>46.0</ele><time>2026-04-26T07:29:02.982Z</time></trkpt><trkpt lat="41.17012207952011" lon="9.336066562867376"><ele>46.0</ele><time>2026-04-26T07:29:03.982Z</time></trkpt><trkpt lat="41.17021928414887" lon="9.335855932728375"><ele>46.0</ele><time>2026-04-26T07:29:04.982Z</time></trkpt><trkpt lat="41.170324855498606" lon="9.335661792906505"><ele>47.0</ele><time>2026-04-26T07:29:05.982Z</time></trkpt><trkpt lat="41.17040472460724" lon="9.335453440329543"><ele>48.0</ele><time>2026-04-26T07:29:06.982Z</time></trkpt><trkpt lat="41.17044654752321" lon="9.335221678297875"><ele>49.0</ele><time>2026-04-26T07:29:07.982Z</time></trkpt><trkpt lat="41.17044821411222" lon="9.334974619465997"><ele>49.0</ele><time>2026-04-26T07:29:08.982Z</time></trkpt><trkpt lat="41.17040684687229" lon="9.334725564392922"><ele>49.0</ele><time>2026-04-26T07:29:09.982Z</time></trkpt><trkpt lat="41.17035051741859" lon="9.33449093014315"><ele>49.0</ele><time>2026-04-26T07:29:10.982Z</time></trkpt><trkpt lat="41.17027183919477" lon="9.33427005963886"><ele>48.33333333333333</ele><time>2026-04-26T07:29:11.982Z</time></trkpt><trkpt lat="41.170179528891296" lon="9.334072969138608"><ele>47.666666666666664</ele><time>2026-04-26T07:29:12.982Z</time></trkpt><trkpt lat="41.170085278871476" lon="9.333911057767446"><ele>47.0</ele><time>2026-04-26T07:29:13.982Z</time></trkpt><trkpt lat="41.169988875808656" lon="9.333756965674668"><ele>45.75</ele><time>2026-04-26T07:29:14.982Z</time></trkpt><trkpt lat="41.16990103739378" lon="9.333619540663006"><ele>44.5</ele><time>2026-04-26T07:29:15.982Z</time></trkpt><trkpt lat="41.16982017929046" lon="9.333497852449952"><ele>43.25</ele><time>2026-04-26T07:29:16.982Z</time></trkpt><trkpt lat="41.169741882109086" lon="9.33337826392908"><ele>42.0</ele><time>2026-04-26T07:29:17.982Z</time></trkpt><trkpt lat="41.169662119105716" lon="9.333256796349074"><ele>44.5</ele><time>2026-04-26T07:29:18.982Z</time></trkpt><trkpt lat="41.16960505645861" lon="9.333110290902509"><ele>47.0</ele><time>2026-04-26T07:29:19.982Z</time></trkpt><trkpt lat="41.16955418411509" lon="9.332946909574716"><ele>49.5</ele><time>2026-04-26T07:29:20.984Z</time></trkpt><trkpt lat="41.169516188242426" lon="9.33276337979694"><ele>52.0</ele><time>2026-04-26T07:29:21.984Z</time></trkpt><trkpt lat="41.16948842162405" lon="9.332568817235858"><ele>52.0</ele><time>2026-04-26T07:29:22.984Z</time></trkpt><trkpt lat="41.169459712451" lon="9.332376943031162"><ele>52.0</ele><time>2026-04-26T07:29:23.985Z</time></trkpt><trkpt lat="41.16943057333505" lon="9.332174196416"><ele>52.0</ele><time>2026-04-26T07:29:24.984Z</time></trkpt><trkpt lat="41.16935927028079" lon="9.331963434206736"><ele>52.0</ele><time>2026-04-26T07:29:25.984Z</time></trkpt><trkpt lat="41.16926143476274" lon="9.331682542417187"><ele>52.0</ele><time>2026-04-26T07:29:26.984Z</time></trkpt><trkpt lat="41.169138579979" lon="9.33137362268875"><ele>51.33333333333333</ele><time>2026-04-26T07:29:27.983Z</time></trkpt><trkpt lat="41.169031110711295" lon="9.33109585860648"><ele>50.66666666666667</ele><time>2026-04-26T07:29:28.983Z</time></trkpt><trkpt lat="41.168972433574154" lon="9.330825361593478"><ele>50.0</ele><time>2026-04-26T07:29:29.984Z</time></trkpt><trkpt lat="41.16896353175356" lon="9.33053471875946"><ele>50.5</ele><time>2026-04-26T07:29:30.983Z</time></trkpt><trkpt lat="41.16901068840486" lon="9.330232651382062"><ele>51.0</ele><time>2026-04-26T07:29:31.983Z</time></trkpt><trkpt lat="41.16911962770837" lon="9.329887960089044"><ele>53.5</ele><time>2026-04-26T07:29:32.984Z</time></trkpt><trkpt lat="41.16923060169703" lon="9.329524441386841"><ele>56.0</ele><time>2026-04-26T07:29:33.984Z</time></trkpt><trkpt lat="41.16932067814825" lon="9.329158402107595"><ele>56.0</ele><time>2026-04-26T07:29:34.984Z</time></trkpt><trkpt lat="41.1693624574255" lon="9.328811352059656"><ele>56.0</ele><time>2026-04-26T07:29:35.984Z</time></trkpt><trkpt lat="41.169360051051974" lon="9.328439580027787"><ele>56.0</ele><time>2026-04-26T07:29:36.984Z</time></trkpt><trkpt lat="41.16935569803028" lon="9.328107806227143"><ele>56.0</ele><time>2026-04-26T07:29:37.984Z</time></trkpt><trkpt lat="41.16940321729134" lon="9.327800287435647"><ele>55.333333333333336</ele><time>2026-04-26T07:29:38.984Z</time></trkpt><trkpt lat="41.16946169211771" lon="9.327535718491147"><ele>54.66666666666667</ele><time>2026-04-26T07:29:39.984Z</time></trkpt><trkpt lat="41.169566506530636" lon="9.32733097674842"><ele>54.0</ele><time>2026-04-26T07:29:40.984Z</time></trkpt><trkpt lat="41.16975423786047" lon="9.327155551896782"><ele>52.0</ele><time>2026-04-26T07:29:41.984Z</time></trkpt><trkpt lat="41.16999123215433" lon="9.326968467282878"><ele>50.0</ele><time>2026-04-26T07:29:42.984Z</time></trkpt><trkpt lat="41.170194118638975" lon="9.326747265014316"><ele>50.0</ele><time>2026-04-26T07:29:43.984Z</time></trkpt><trkpt lat="41.17035873387761" lon="9.326437133092236"><ele>50.0</ele><time>2026-04-26T07:29:44.983Z</time></trkpt><trkpt lat="41.17048873457542" lon="9.326128432603907"><ele>49.66666666666667</ele><time>2026-04-26T07:29:45.983Z</time></trkpt><trkpt lat="41.17060731102401" lon="9.32589462902885"><ele>49.33333333333333</ele><time>2026-04-26T07:29:46.983Z</time></trkpt><trkpt lat="41.17073295644293" lon="9.325705031998629"><ele>49.0</ele><time>2026-04-26T07:29:47.983Z</time></trkpt><trkpt lat="41.17086051595986" lon="9.325550962210226"><ele>49.0</ele><time>2026-04-26T07:29:48.983Z</time></trkpt><trkpt lat="41.17098783310584" lon="9.325415622807128"><ele>49.0</ele><time>2026-04-26T07:29:49.983Z</time></trkpt><trkpt lat="41.17110056651169" lon="9.32529134232567"><ele>49.0</ele><time>2026-04-26T07:29:50.983Z</time></trkpt><trkpt lat="41.17117497078319" lon="9.325169365166113"><ele>49.0</ele><time>2026-04-26T07:29:51.983Z</time></trkpt><trkpt lat="41.17121159628068" lon="9.325030804025932"><ele>49.0</ele><time>2026-04-26T07:29:52.983Z</time></trkpt><trkpt lat="41.17121728019836" lon="9.324875325529126"><ele>49.0</ele><time>2026-04-26T07:29:53.983Z</time></trkpt><trkpt lat="41.171192485539414" lon="9.324718707856515"><ele>49.0</ele><time>2026-04-26T07:29:54.983Z</time></trkpt><trkpt lat="41.171156616476864" lon="9.324566691499331"><ele>49.0</ele><time>2026-04-26T07:29:55.983Z</time></trkpt><trkpt lat="41.171110916209635" lon="9.32441065562063"><ele>49.0</ele><time>2026-04-26T07:29:56.983Z</time></trkpt><trkpt lat="41.17102925240308" lon="9.324287233828535"><ele>49.0</ele><time>2026-04-26T07:29:57.983Z</time></trkpt><trkpt lat="41.17087827596191" lon="9.324175265625305"><ele>49.0</ele><time>2026-04-26T07:29:58.983Z</time></trkpt><trkpt lat="41.17066647439879" lon="9.324025493682479"><ele>49.5</ele><time>2026-04-26T07:29:59.983Z</time></trkpt><trkpt lat="41.17044595335242" lon="9.323837774387867"><ele>50.0</ele><time>2026-04-26T07:30:00.983Z</time></trkpt><trkpt lat="41.17024818749677" lon="9.323667605570579"><ele>50.0</ele><time>2026-04-26T07:30:01.983Z</time></trkpt><trkpt lat="41.17009902132696" lon="9.323521341220493"><ele>50.0</ele><time>2026-04-26T07:30:02.983Z</time></trkpt><trkpt lat="41.16998117888285" lon="9.323401007882477"><ele>50.0</ele><time>2026-04-26T07:30:03.983Z</time></trkpt><trkpt lat="41.169882873471245" lon="9.323281518584771"><ele>50.6</ele><time>2026-04-26T07:30:04.983Z</time></trkpt><trkpt lat="41.16981654191381" lon="9.323156307350944"><ele>51.2</ele><time>2026-04-26T07:30:05.983Z</time></trkpt><trkpt lat="41.16978268317995" lon="9.323024877918352"><ele>51.8</ele><time>2026-04-26T07:30:06.983Z</time></trkpt><trkpt lat="41.16976201723806" lon="9.322887107634655"><ele>52.4</ele><time>2026-04-26T07:30:07.983Z</time></trkpt><trkpt lat="41.169769596199906" lon="9.322740413442412"><ele>53.0</ele><time>2026-04-26T07:30:08.983Z</time></trkpt><trkpt lat="41.16978372321001" lon="9.322581766113988"><ele>53.0</ele><time>2026-04-26T07:30:09.983Z</time></trkpt><trkpt lat="41.16982433508525" lon="9.322411274356128"><ele>53.0</ele><time>2026-04-26T07:30:10.983Z</time></trkpt><trkpt lat="41.16986732656339" lon="9.322255414796828"><ele>53.0</ele><time>2026-04-26T07:30:11.983Z</time></trkpt><trkpt lat="41.16993261715032" lon="9.322102868593907"><ele>53.0</ele><time>2026-04-26T07:30:12.983Z</time></trkpt><trkpt lat="41.17001237873012" lon="9.321959666412665"><ele>52.25</ele><time>2026-04-26T07:30:13.983Z</time></trkpt><trkpt lat="41.170078705200034" lon="9.321813570135001"><ele>51.5</ele><time>2026-04-26T07:30:14.983Z</time></trkpt><trkpt lat="41.1701465405354" lon="9.321684660169746"><ele>50.75</ele><time>2026-04-26T07:30:15.983Z</time></trkpt><trkpt lat="41.170217621433515" lon="9.321566967874693"><ele>50.0</ele><time>2026-04-26T07:30:16.983Z</time></trkpt><trkpt lat="41.17028242137813" lon="9.32144816376197"><ele>50.2</ele><time>2026-04-26T07:30:17.983Z</time></trkpt><trkpt lat="41.1703495985509" lon="9.321334203784913"><ele>50.4</ele><time>2026-04-26T07:30:18.983Z</time></trkpt><trkpt lat="41.170415027862" lon="9.321212139037602"><ele>50.599999999999994</ele><time>2026-04-26T07:30:19.983Z</time></trkpt><trkpt lat="41.17046421620783" lon="9.321084967028186"><ele>50.8</ele><time>2026-04-26T07:30:20.983Z</time></trkpt><trkpt lat="41.170478046486664" lon="9.320948080906213"><ele>51.0</ele><time>2026-04-26T07:30:21.983Z</time></trkpt><trkpt lat="41.17045067281413" lon="9.320795216823782"><ele>51.0</ele><time>2026-04-26T07:30:22.983Z</time></trkpt><trkpt lat="41.17038458609659" lon="9.320606413619288"><ele>51.0</ele><time>2026-04-26T07:30:23.983Z</time></trkpt><trkpt lat="41.170307765108824" lon="9.320376799321176"><ele>51.0</ele><time>2026-04-26T07:30:24.983Z</time></trkpt><trkpt lat="41.17023438564787" lon="9.32012017808747"><ele>48.5</ele><time>2026-04-26T07:30:25.983Z</time></trkpt><trkpt lat="41.17015247798131" lon="9.319845110609146"><ele>46.0</ele><time>2026-04-26T07:30:26.983Z</time></trkpt><trkpt lat="41.170068852476675" lon="9.319553525601803"><ele>42.0</ele><time>2026-04-26T07:30:27.983Z</time></trkpt><trkpt lat="41.17000808855501" lon="9.31923514433381"><ele>38.0</ele><time>2026-04-26T07:30:28.983Z</time></trkpt><trkpt lat="41.169957293666876" lon="9.31889724067289"><ele>35.5</ele><time>2026-04-26T07:30:29.983Z</time></trkpt><trkpt lat="41.16991742704487" lon="9.318564870988634"><ele>33.0</ele><time>2026-04-26T07:30:30.983Z</time></trkpt><trkpt lat="41.169887446447" lon="9.318277311790823"><ele>32.0</ele><time>2026-04-26T07:30:31.983Z</time></trkpt><trkpt lat="41.169861373808565" lon="9.318042687226496"><ele>31.0</ele><time>2026-04-26T07:30:32.983Z</time></trkpt><trkpt lat="41.16978185584717" lon="9.31787044484271"><ele>30.0</ele><time>2026-04-26T07:30:33.983Z</time></trkpt><trkpt lat="41.16966170515172" lon="9.317756269100828"><ele>30.0</ele><time>2026-04-26T07:30:34.983Z</time></trkpt><trkpt lat="41.16950221417448" lon="9.317730093745698"><ele>30.0</ele><time>2026-04-26T07:30:35.983Z</time></trkpt><trkpt lat="41.16934365704927" lon="9.317809574108292"><ele>30.0</ele><time>2026-04-26T07:30:36.983Z</time></trkpt><trkpt lat="41.16920056647876" lon="9.317960540465013"><ele>30.0</ele><time>2026-04-26T07:30:37.983Z</time></trkpt><trkpt lat="41.16908081151135" lon="9.31806389249381"><ele>30.0</ele><time>2026-04-26T07:30:38.983Z</time></trkpt><trkpt lat="41.16894722668532" lon="9.31804496147945"><ele>30.0</ele><time>2026-04-26T07:30:39.983Z</time></trkpt><trkpt lat="41.16881391550507" lon="9.317906368028959"><ele>30.0</ele><time>2026-04-26T07:30:40.983Z</time></trkpt><trkpt lat="41.16868067565002" lon="9.317696498872275"><ele>28.666666666666664</ele><time>2026-04-26T07:30:41.983Z</time></trkpt><trkpt lat="41.16854725696532" lon="9.317489425596829"><ele>27.333333333333332</ele><time>2026-04-26T07:30:42.983Z</time></trkpt><trkpt lat="41.16839825944987" lon="9.31735021178306"><ele>26.0</ele><time>2026-04-26T07:30:43.983Z</time></trkpt><trkpt lat="41.16822333557855" lon="9.317284314340665"><ele>26.0</ele><time>2026-04-26T07:30:44.983Z</time></trkpt><trkpt lat="41.16802650760338" lon="9.317327155925092"><ele>26.0</ele><time>2026-04-26T07:30:45.983Z</time></trkpt><trkpt lat="41.16787362720499" lon="9.317356291051187"><ele>26.0</ele><time>2026-04-26T07:30:46.983Z</time></trkpt><trkpt lat="41.1677407245098" lon="9.317289263899816"><ele>23.666666666666664</ele><time>2026-04-26T07:30:47.982Z</time></trkpt><trkpt lat="41.16761747301358" lon="9.317125209095167"><ele>21.333333333333332</ele><time>2026-04-26T07:30:48.982Z</time></trkpt><trkpt lat="41.167495969492734" lon="9.316904248641857"><ele>19.0</ele><time>2026-04-26T07:30:49.982Z</time></trkpt><trkpt lat="41.16735109315516" lon="9.316673945534939"><ele>19.0</ele><time>2026-04-26T07:30:50.982Z</time></trkpt><trkpt lat="41.16719419645202" lon="9.31651292810646"><ele>19.0</ele><time>2026-04-26T07:30:51.982Z</time></trkpt><trkpt lat="41.16705282922365" lon="9.316348478890829"><ele>19.0</ele><time>2026-04-26T07:30:52.982Z</time></trkpt><trkpt lat="41.166899242903824" lon="9.316194284180392"><ele>15.666666666666666</ele><time>2026-04-26T07:30:53.982Z</time></trkpt><trkpt lat="41.16672566710511" lon="9.316078361936446"><ele>12.333333333333332</ele><time>2026-04-26T07:30:54.982Z</time></trkpt><trkpt lat="41.166530415420446" lon="9.315992300525657"><ele>9.0</ele><time>2026-04-26T07:30:55.982Z</time></trkpt><trkpt lat="41.16632371515898" lon="9.31595138328495"><ele>8.5</ele><time>2026-04-26T07:30:56.982Z</time></trkpt><trkpt lat="41.1660997419196" lon="9.315949753557794"><ele>8.0</ele><time>2026-04-26T07:30:57.982Z</time></trkpt><trkpt lat="41.16586468806322" lon="9.31596011027092"><ele>8.0</ele><time>2026-04-26T07:30:58.982Z</time></trkpt><trkpt lat="41.16561933379841" lon="9.31597609086902"><ele>8.0</ele><time>2026-04-26T07:30:59.982Z</time></trkpt><trkpt lat="41.16537156154154" lon="9.315996300496005"><ele>8.0</ele><time>2026-04-26T07:31:00.982Z</time></trkpt><trkpt lat="41.165131274556565" lon="9.316012100756407"><ele>8.0</ele><time>2026-04-26T07:31:01.982Z</time></trkpt><trkpt lat="41.16489707780763" lon="9.31602112929235"><ele>7.666666666666666</ele><time>2026-04-26T07:31:02.982Z</time></trkpt><trkpt lat="41.16469348236209" lon="9.316035780388672"><ele>7.333333333333334</ele><time>2026-04-26T07:31:03.982Z</time></trkpt><trkpt lat="41.16451379622354" lon="9.316042955113817"><ele>7.0</ele><time>2026-04-26T07:31:04.982Z</time></trkpt><trkpt lat="41.16435371983813" lon="9.316005722921478"><ele>7.0</ele><time>2026-04-26T07:31:05.982Z</time></trkpt><trkpt lat="41.16422654110481" lon="9.315887200200116"><ele>7.0</ele><time>2026-04-26T07:31:06.982Z</time></trkpt><trkpt lat="41.16413039963942" lon="9.31571883504717"><ele>7.0</ele><time>2026-04-26T07:31:07.982Z</time></trkpt><trkpt lat="41.16407904686388" lon="9.315475539019724"><ele>5.666666666666667</ele><time>2026-04-26T07:31:08.982Z</time></trkpt><trkpt lat="41.1640342580564" lon="9.315232658346211"><ele>4.333333333333334</ele><time>2026-04-26T07:31:09.982Z</time></trkpt><trkpt lat="41.16398392454703" lon="9.314991267070013"><ele>3.0</ele><time>2026-04-26T07:31:10.982Z</time></trkpt><trkpt lat="41.163920432848336" lon="9.314740769527498"><ele>2.6666666666666665</ele><time>2026-04-26T07:31:11.982Z</time></trkpt><trkpt lat="41.163859062598696" lon="9.314499925383412"><ele>2.333333333333333</ele><time>2026-04-26T07:31:12.982Z</time></trkpt><trkpt lat="41.16379774370675" lon="9.314240057846654"><ele>2.0</ele><time>2026-04-26T07:31:13.982Z</time></trkpt><trkpt lat="41.163738919783775" lon="9.313988576962895"><ele>2.333333333333333</ele><time>2026-04-26T07:31:14.982Z</time></trkpt><trkpt lat="41.163683302386026" lon="9.31375789569598"><ele>2.6666666666666665</ele><time>2026-04-26T07:31:15.982Z</time></trkpt><trkpt lat="41.163632687111615" lon="9.313547132847095"><ele>3.0</ele><time>2026-04-26T07:31:16.982Z</time></trkpt><trkpt lat="41.16359413650368" lon="9.313360683406364"><ele>3.0</ele><time>2026-04-26T07:31:17.982Z</time></trkpt><trkpt lat="41.16355543170566" lon="9.313196305038202"><ele>3.0</ele><time>2026-04-26T07:31:18.982Z</time></trkpt><trkpt lat="41.163520585391126" lon="9.31305232916925"><ele>3.0</ele><time>2026-04-26T07:31:19.982Z</time></trkpt><trkpt lat="41.16349079418332" lon="9.312922531439687"><ele>3.0</ele><time>2026-04-26T07:31:20.982Z</time></trkpt><trkpt lat="41.163456777442306" lon="9.312810079327326"><ele>3.0</ele><time>2026-04-26T07:31:21.982Z</time></trkpt><trkpt lat="41.163393228692044" lon="9.312740037659369"><ele>3.666666666666667</ele><time>2026-04-26T07:31:22.982Z</time></trkpt><trkpt lat="41.16332433438047" lon="9.312735618583714"><ele>4.333333333333334</ele><time>2026-04-26T07:31:23.982Z</time></trkpt><trkpt lat="41.163253634829076" lon="9.312770226394749"><ele>5.0</ele><time>2026-04-26T07:31:24.982Z</time></trkpt><trkpt lat="41.16318265595315" lon="9.31282517627906"><ele>5.666666666666667</ele><time>2026-04-26T07:31:25.982Z</time></trkpt><trkpt lat="41.16311157667009" lon="9.31287265728168"><ele>6.333333333333334</ele><time>2026-04-26T07:31:26.984Z</time></trkpt><trkpt lat="41.16303727824669" lon="9.312911941477376"><ele>7.0</ele><time>2026-04-26T07:31:27.984Z</time></trkpt><trkpt lat="41.16296378109439" lon="9.312942604266121"><ele>7.0</ele><time>2026-04-26T07:31:28.984Z</time></trkpt><trkpt lat="41.162894788866545" lon="9.312962964984775"><ele>6.999999999999999</ele><time>2026-04-26T07:31:29.983Z</time></trkpt><trkpt lat="41.16282751656448" lon="9.31297345814268"><ele>6.999999999999999</ele><time>2026-04-26T07:31:30.984Z</time></trkpt><trkpt lat="41.16276255528046" lon="9.312976400442913"><ele>7.0</ele><time>2026-04-26T07:31:31.984Z</time></trkpt><trkpt lat="41.16263726605223" lon="9.312952494350654"><ele>7.0</ele><time>2026-04-26T07:31:33.984Z</time></trkpt><trkpt lat="41.16252691826448" lon="9.31287799457738"><ele>7.0</ele><time>2026-04-26T07:31:35.983Z</time></trkpt><trkpt lat="41.162418260722816" lon="9.31279837011684"><ele>7.0</ele><time>2026-04-26T07:31:37.983Z</time></trkpt><trkpt lat="41.16230588368581" lon="9.312726350547793"><ele>7.0</ele><time>2026-04-26T07:31:39.983Z</time></trkpt><trkpt lat="41.16218875784888" lon="9.312670871792566"><ele>7.0</ele><time>2026-04-26T07:31:41.983Z</time></trkpt><trkpt lat="41.162073091316834" lon="9.312611212290136"><ele>6.3999999999999995</ele><time>2026-04-26T07:31:43.983Z</time></trkpt><trkpt lat="41.16196189214804" lon="9.31254683092981"><ele>5.799999999999999</ele><time>2026-04-26T07:31:45.983Z</time></trkpt><trkpt lat="41.16190036133901" lon="9.312529092614128"><ele>5.2</ele><time>2026-04-26T07:31:46.778Z</time></trkpt><trkpt lat="41.161814216271175" lon="9.312562456372925"><ele>4.6</ele><time>2026-04-26T07:31:48.778Z</time></trkpt><trkpt lat="41.16168574427392" lon="9.312595835919375"><ele>4.0</ele><time>2026-04-26T07:31:59.777Z</time></trkpt><trkpt lat="41.16160851378008" lon="9.312672093429235"><ele>4.0</ele><time>2026-04-26T07:32:00.777Z</time></trkpt><trkpt lat="41.16151453238196" lon="9.312777675103781"><ele>4.0</ele><time>2026-04-26T07:32:01.777Z</time></trkpt><trkpt lat="41.161416504772255" lon="9.312901169855445"><ele>4.0</ele><time>2026-04-26T07:32:02.777Z</time></trkpt><trkpt lat="41.16131591280691" lon="9.313023143945468"><ele>4.0</ele><time>2026-04-26T07:32:03.777Z</time></trkpt><trkpt lat="41.16120372585088" lon="9.313154260628336"><ele>4.0</ele><time>2026-04-26T07:32:04.777Z</time></trkpt><trkpt lat="41.16109492157175" lon="9.31329010973731"><ele>4.0</ele><time>2026-04-26T07:32:05.777Z</time></trkpt><trkpt lat="41.160983991202635" lon="9.313428390797464"><ele>4.0</ele><time>2026-04-26T07:32:06.777Z</time></trkpt><trkpt lat="41.160874580939605" lon="9.313559728221422"><ele>4.0</ele><time>2026-04-26T07:32:07.777Z</time></trkpt><trkpt lat="41.16076578043535" lon="9.31368675787043"><ele>4.25</ele><time>2026-04-26T07:32:08.777Z</time></trkpt><trkpt lat="41.16065361961972" lon="9.313801439054041"><ele>4.5</ele><time>2026-04-26T07:32:09.777Z</time></trkpt><trkpt lat="41.16052557289845" lon="9.313896581013992"><ele>4.75</ele><time>2026-04-26T07:32:10.777Z</time></trkpt><trkpt lat="41.160381178709606" lon="9.31395186245011"><ele>5.0</ele><time>2026-04-26T07:32:11.777Z</time></trkpt><trkpt lat="41.160217909144286" lon="9.313973389000427"><ele>5.0</ele><time>2026-04-26T07:32:12.777Z</time></trkpt><trkpt lat="41.16004446955069" lon="9.313965803480325"><ele>5.0</ele><time>2026-04-26T07:32:13.777Z</time></trkpt><trkpt lat="41.15985897270006" lon="9.313957439179658"><ele>5.0</ele><time>2026-04-26T07:32:14.777Z</time></trkpt><trkpt lat="41.159665528127455" lon="9.313954973293923"><ele>5.333333333333334</ele><time>2026-04-26T07:32:15.776Z</time></trkpt><trkpt lat="41.159482011532205" lon="9.313985145445056"><ele>5.666666666666667</ele><time>2026-04-26T07:32:16.776Z</time></trkpt><trkpt lat="41.15929862908818" lon="9.314036126730922"><ele>6.0</ele><time>2026-04-26T07:32:17.776Z</time></trkpt><trkpt lat="41.159124265869735" lon="9.3141336700819"><ele>10.0</ele><time>2026-04-26T07:32:18.776Z</time></trkpt><trkpt lat="41.15896913061318" lon="9.314280688075526"><ele>14.0</ele><time>2026-04-26T07:32:19.776Z</time></trkpt><trkpt lat="41.15882216174733" lon="9.314472251334792"><ele>18.0</ele><time>2026-04-26T07:32:20.776Z</time></trkpt><trkpt lat="41.15867488655377" lon="9.314679695315368"><ele>18.333333333333332</ele><time>2026-04-26T07:32:21.776Z</time></trkpt><trkpt lat="41.15852709906079" lon="9.314877182666729"><ele>18.666666666666664</ele><time>2026-04-26T07:32:22.776Z</time></trkpt><trkpt lat="41.1583618076654" lon="9.315046800362179"><ele>19.0</ele><time>2026-04-26T07:32:23.776Z</time></trkpt><trkpt lat="41.15818869154777" lon="9.31519129245749"><ele>19.0</ele><time>2026-04-26T07:32:24.776Z</time></trkpt><trkpt lat="41.1579972228374" lon="9.31530221905401"><ele>19.0</ele><time>2026-04-26T07:32:25.776Z</time></trkpt><trkpt lat="41.15779097384461" lon="9.315386500475325"><ele>19.0</ele><time>2026-04-26T07:32:26.776Z</time></trkpt><trkpt lat="41.15759514476635" lon="9.31545872340868"><ele>19.0</ele><time>2026-04-26T07:32:27.776Z</time></trkpt><trkpt lat="41.1574147357102" lon="9.315482891849628"><ele>19.0</ele><time>2026-04-26T07:32:28.776Z</time></trkpt><trkpt lat="41.15722866504068" lon="9.315449243752532"><ele>19.0</ele><time>2026-04-26T07:32:29.776Z</time></trkpt><trkpt lat="41.15703146143426" lon="9.315370233379905"><ele>15.0</ele><time>2026-04-26T07:32:30.776Z</time></trkpt><trkpt lat="41.15681945167828" lon="9.315285525730943"><ele>11.0</ele><time>2026-04-26T07:32:31.776Z</time></trkpt><trkpt lat="41.15660604483657" lon="9.315218308511115"><ele>7.0</ele><time>2026-04-26T07:32:32.775Z</time></trkpt><trkpt lat="41.156392358298405" lon="9.315135810606316"><ele>6.0</ele><time>2026-04-26T07:32:33.775Z</time></trkpt><trkpt lat="41.156166584119035" lon="9.315039961746184"><ele>5.0</ele><time>2026-04-26T07:32:34.775Z</time></trkpt><trkpt lat="41.15593094647596" lon="9.314944487622425"><ele>5.5</ele><time>2026-04-26T07:32:35.775Z</time></trkpt><trkpt lat="41.1556859643363" lon="9.314844227180542"><ele>6.0</ele><time>2026-04-26T07:32:36.775Z</time></trkpt><trkpt lat="41.15543641014604" lon="9.314743880021913"><ele>11.0</ele><time>2026-04-26T07:32:37.775Z</time></trkpt><trkpt lat="41.15518793439337" lon="9.314641813858"><ele>16.0</ele><time>2026-04-26T07:32:38.775Z</time></trkpt><trkpt lat="41.154942924405965" lon="9.314547632938432"><ele>13.5</ele><time>2026-04-26T07:32:39.775Z</time></trkpt><trkpt lat="41.154698334018676" lon="9.314450875622555"><ele>11.0</ele><time>2026-04-26T07:32:40.775Z</time></trkpt><trkpt lat="41.15445814559807" lon="9.314357541660256"><ele>11.0</ele><time>2026-04-26T07:32:41.775Z</time></trkpt><trkpt lat="41.154216150664766" lon="9.314285630168019"><ele>11.0</ele><time>2026-04-26T07:32:42.775Z</time></trkpt><trkpt lat="41.15396625106197" lon="9.314246094814589"><ele>9.5</ele><time>2026-04-26T07:32:43.775Z</time></trkpt><trkpt lat="41.15371669782343" lon="9.314214355096249"><ele>8.0</ele><time>2026-04-26T07:32:44.775Z</time></trkpt><trkpt lat="41.15346469097052" lon="9.31418935622142"><ele>8.0</ele><time>2026-04-26T07:32:45.775Z</time></trkpt><trkpt lat="41.153218307681584" lon="9.314165839343511"><ele>8.0</ele><time>2026-04-26T07:32:46.775Z</time></trkpt><trkpt lat="41.1529686522917" lon="9.31414386150695"><ele>7.5</ele><time>2026-04-26T07:32:47.775Z</time></trkpt><trkpt lat="41.15271916445735" lon="9.31412041758152"><ele>7.0</ele><time>2026-04-26T07:32:48.775Z</time></trkpt><trkpt lat="41.15247020795587" lon="9.314096120124875"><ele>7.0</ele><time>2026-04-26T07:32:49.774Z</time></trkpt><trkpt lat="41.15221635299637" lon="9.314073252889916"><ele>7.0</ele><time>2026-04-26T07:32:50.774Z</time></trkpt><trkpt lat="41.15196863242414" lon="9.314045050864848"><ele>7.0</ele><time>2026-04-26T07:32:51.774Z</time></trkpt><trkpt lat="41.15171469787933" lon="9.314023038140272"><ele>7.0</ele><time>2026-04-26T07:32:52.774Z</time></trkpt><trkpt lat="41.15146107121127" lon="9.31399702733558"><ele>6.0</ele><time>2026-04-26T07:32:53.774Z</time></trkpt><trkpt lat="41.151209325397055" lon="9.313979021057296"><ele>5.0</ele><time>2026-04-26T07:32:54.774Z</time></trkpt><trkpt lat="41.150960650455" lon="9.313955385205903"><ele>5.0</ele><time>2026-04-26T07:32:55.774Z</time></trkpt><trkpt lat="41.150727326006766" lon="9.313935130349938"><ele>5.0</ele><time>2026-04-26T07:32:56.774Z</time></trkpt><trkpt lat="41.150507715168004" lon="9.31391671908687"><ele>6.333333333333334</ele><time>2026-04-26T07:32:57.774Z</time></trkpt><trkpt lat="41.150304474713764" lon="9.313883775483252"><ele>7.666666666666667</ele><time>2026-04-26T07:32:58.774Z</time></trkpt><trkpt lat="41.150125296602006" lon="9.313796341430786"><ele>9.0</ele><time>2026-04-26T07:32:59.774Z</time></trkpt><trkpt lat="41.149973109819285" lon="9.313631067712262"><ele>8.0</ele><time>2026-04-26T07:33:00.774Z</time></trkpt><trkpt lat="41.14981449636534" lon="9.313503816314562"><ele>7.0</ele><time>2026-04-26T07:33:01.774Z</time></trkpt><trkpt lat="41.14968720340975" lon="9.313360746424243"><ele>6.0</ele><time>2026-04-26T07:33:02.774Z</time></trkpt><trkpt lat="41.14957077128646" lon="9.313247850485329"><ele>6.0</ele><time>2026-04-26T07:33:03.774Z</time></trkpt><trkpt lat="41.14946351662864" lon="9.313147263274312"><ele>6.0</ele><time>2026-04-26T07:33:04.774Z</time></trkpt><trkpt lat="41.14935998746901" lon="9.31306918334093"><ele>6.0</ele><time>2026-04-26T07:33:05.774Z</time></trkpt><trkpt lat="41.149253958147426" lon="9.313006214706537"><ele>6.0</ele><time>2026-04-26T07:33:06.773Z</time></trkpt><trkpt lat="41.149144464310844" lon="9.312955363902297"><ele>6.5</ele><time>2026-04-26T07:33:07.773Z</time></trkpt><trkpt lat="41.149030514823366" lon="9.3129276075857"><ele>7.0</ele><time>2026-04-26T07:33:08.773Z</time></trkpt><trkpt lat="41.14890120433104" lon="9.312931360910893"><ele>7.5</ele><time>2026-04-26T07:33:09.773Z</time></trkpt><trkpt lat="41.14875143670275" lon="9.312982583340782"><ele>8.0</ele><time>2026-04-26T07:33:10.773Z</time></trkpt><trkpt lat="41.14857469307771" lon="9.313043843976555"><ele>7.666666666666666</ele><time>2026-04-26T07:33:11.773Z</time></trkpt><trkpt lat="41.14840046511891" lon="9.313131423857458"><ele>7.333333333333334</ele><time>2026-04-26T07:33:12.773Z</time></trkpt><trkpt lat="41.14822404257833" lon="9.313220197623293"><ele>7.0</ele><time>2026-04-26T07:33:13.773Z</time></trkpt><trkpt lat="41.148044127902665" lon="9.313310728536983"><ele>8.666666666666668</ele><time>2026-04-26T07:33:14.773Z</time></trkpt><trkpt lat="41.14786659209769" lon="9.313418754683726"><ele>10.333333333333334</ele><time>2026-04-26T07:33:15.773Z</time></trkpt><trkpt lat="41.147688982811346" lon="9.313497923751102"><ele>12.0</ele><time>2026-04-26T07:33:16.773Z</time></trkpt><trkpt lat="41.147495451208734" lon="9.313518439537683"><ele>11.333333333333334</ele><time>2026-04-26T07:33:17.773Z</time></trkpt><trkpt lat="41.14729202335339" lon="9.313510987989511"><ele>10.666666666666668</ele><time>2026-04-26T07:33:18.773Z</time></trkpt><trkpt lat="41.1470839487535" lon="9.313452428511864"><ele>10.0</ele><time>2026-04-26T07:33:19.773Z</time></trkpt><trkpt lat="41.14686792346307" lon="9.31337792191958"><ele>10.0</ele><time>2026-04-26T07:33:20.773Z</time></trkpt><trkpt lat="41.14665900382095" lon="9.313298268211614"><ele>10.0</ele><time>2026-04-26T07:33:21.773Z</time></trkpt><trkpt lat="41.146457918120674" lon="9.313180310333474"><ele>10.0</ele><time>2026-04-26T07:33:22.773Z</time></trkpt><trkpt lat="41.14628548880363" lon="9.31304512489794"><ele>10.0</ele><time>2026-04-26T07:33:23.772Z</time></trkpt><trkpt lat="41.14614800396195" lon="9.312898089478109"><ele>10.0</ele><time>2026-04-26T07:33:24.772Z</time></trkpt><trkpt lat="41.14605774476511" lon="9.312697304602631"><ele>10.0</ele><time>2026-04-26T07:33:25.772Z</time></trkpt><trkpt lat="41.14595715434224" lon="9.312499717095745"><ele>10.0</ele><time>2026-04-26T07:33:26.772Z</time></trkpt><trkpt lat="41.14580579656958" lon="9.312386037812244"><ele>10.0</ele><time>2026-04-26T07:33:27.772Z</time></trkpt><trkpt lat="41.14558708511613" lon="9.312317431187967"><ele>10.0</ele><time>2026-04-26T07:33:28.772Z</time></trkpt><trkpt lat="41.145361166520935" lon="9.312296502040683"><ele>8.666666666666668</ele><time>2026-04-26T07:33:29.772Z</time></trkpt><trkpt lat="41.145166619966126" lon="9.31226340265881"><ele>7.333333333333334</ele><time>2026-04-26T07:33:30.772Z</time></trkpt><trkpt lat="41.14500943065196" lon="9.312206707634063"><ele>6.0</ele><time>2026-04-26T07:33:31.772Z</time></trkpt><trkpt lat="41.14486999294475" lon="9.31201123715621"><ele>6.0</ele><time>2026-04-26T07:33:32.774Z</time></trkpt><trkpt lat="41.14470236102328" lon="9.311804848482284"><ele>6.0</ele><time>2026-04-26T07:33:33.773Z</time></trkpt><trkpt lat="41.144499087534264" lon="9.31163143957389"><ele>6.0</ele><time>2026-04-26T07:33:34.773Z</time></trkpt><trkpt lat="41.14429214600175" lon="9.31147619166451"><ele>6.0</ele><time>2026-04-26T07:33:35.774Z</time></trkpt><trkpt lat="41.144044008170376" lon="9.311314835616638"><ele>8.5</ele><time>2026-04-26T07:33:36.773Z</time></trkpt><trkpt lat="41.14378747420415" lon="9.311121245590611"><ele>11.0</ele><time>2026-04-26T07:33:37.773Z</time></trkpt><trkpt lat="41.143559640363264" lon="9.310929078396812"><ele>11.0</ele><time>2026-04-26T07:33:38.774Z</time></trkpt><trkpt lat="41.143365296287676" lon="9.310761346124883"><ele>11.0</ele><time>2026-04-26T07:33:39.774Z</time></trkpt><trkpt lat="41.143190540562884" lon="9.310622069536615"><ele>11.0</ele><time>2026-04-26T07:33:40.774Z</time></trkpt><trkpt lat="41.143028924340406" lon="9.310525271030587"><ele>11.666666666666666</ele><time>2026-04-26T07:33:41.773Z</time></trkpt><trkpt lat="41.142848801347895" lon="9.310539602010147"><ele>12.333333333333332</ele><time>2026-04-26T07:33:42.773Z</time></trkpt><trkpt lat="41.14264505816375" lon="9.310627068186193"><ele>13.0</ele><time>2026-04-26T07:33:43.773Z</time></trkpt><trkpt lat="41.14243991482519" lon="9.310778125985784"><ele>13.0</ele><time>2026-04-26T07:33:44.773Z</time></trkpt><trkpt lat="41.142258721201586" lon="9.310914794300007"><ele>13.0</ele><time>2026-04-26T07:33:45.774Z</time></trkpt><trkpt lat="41.14208687106468" lon="9.310983384182578"><ele>13.0</ele><time>2026-04-26T07:33:46.773Z</time></trkpt><trkpt lat="41.141896300892675" lon="9.310949261787767"><ele>13.0</ele><time>2026-04-26T07:33:47.773Z</time></trkpt><trkpt lat="41.14167194174682" lon="9.310855095435965"><ele>13.0</ele><time>2026-04-26T07:33:48.773Z</time></trkpt><trkpt lat="41.14142846910842" lon="9.31076111401295"><ele>10.5</ele><time>2026-04-26T07:33:49.773Z</time></trkpt><trkpt lat="41.141186142474204" lon="9.310664176132581"><ele>8.0</ele><time>2026-04-26T07:33:50.773Z</time></trkpt><trkpt lat="41.140982271282404" lon="9.310591920010374"><ele>7.666666666666666</ele><time>2026-04-26T07:33:51.773Z</time></trkpt><trkpt lat="41.14080704593877" lon="9.310512223600712"><ele>7.333333333333334</ele><time>2026-04-26T07:33:52.773Z</time></trkpt><trkpt lat="41.140647985655015" lon="9.310385747801822"><ele>7.0</ele><time>2026-04-26T07:33:53.773Z</time></trkpt><trkpt lat="41.14048984879117" lon="9.310179040113491"><ele>7.0</ele><time>2026-04-26T07:33:54.773Z</time></trkpt><trkpt lat="41.14031486016311" lon="9.30995491032528"><ele>7.0</ele><time>2026-04-26T07:33:55.773Z</time></trkpt><trkpt lat="41.140139930228344" lon="9.309733365653655"><ele>10.0</ele><time>2026-04-26T07:33:56.773Z</time></trkpt><trkpt lat="41.139954901212015" lon="9.30952698221486"><ele>13.0</ele><time>2026-04-26T07:33:57.773Z</time></trkpt><trkpt lat="41.13974720300406" lon="9.309378137962748"><ele>13.0</ele><time>2026-04-26T07:33:58.773Z</time></trkpt><trkpt lat="41.139551278036365" lon="9.309280350790232"><ele>13.0</ele><time>2026-04-26T07:33:59.773Z</time></trkpt><trkpt lat="41.139372262851076" lon="9.309167670141667"><ele>13.0</ele><time>2026-04-26T07:34:00.773Z</time></trkpt><trkpt lat="41.139240291546116" lon="9.308949954181944"><ele>10.0</ele><time>2026-04-26T07:34:01.773Z</time></trkpt><trkpt lat="41.13910625170577" lon="9.308699585733464"><ele>7.0</ele><time>2026-04-26T07:34:02.773Z</time></trkpt><trkpt lat="41.138959129201304" lon="9.308427922650166"><ele>7.0</ele><time>2026-04-26T07:34:03.772Z</time></trkpt><trkpt lat="41.138791190625604" lon="9.30815611018566"><ele>7.0</ele><time>2026-04-26T07:34:04.772Z</time></trkpt><trkpt lat="41.138595154027065" lon="9.307926504012917"><ele>9.333333333333334</ele><time>2026-04-26T07:34:05.772Z</time></trkpt><trkpt lat="41.138415946719114" lon="9.307755357150581"><ele>11.666666666666668</ele><time>2026-04-26T07:34:06.772Z</time></trkpt><trkpt lat="41.13830140937605" lon="9.30760889910717"><ele>14.0</ele><time>2026-04-26T07:34:07.772Z</time></trkpt><trkpt lat="41.138267025356186" lon="9.30742432827577"><ele>14.333333333333334</ele><time>2026-04-26T07:34:08.772Z</time></trkpt><trkpt lat="41.13831012403369" lon="9.307240171152694"><ele>14.666666666666668</ele><time>2026-04-26T07:34:09.772Z</time></trkpt><trkpt lat="41.13842694870738" lon="9.307084943199254"><ele>15.0</ele><time>2026-04-26T07:34:10.772Z</time></trkpt><trkpt lat="41.138562234746196" lon="9.307009925598361"><ele>15.0</ele><time>2026-04-26T07:34:11.772Z</time></trkpt><trkpt lat="41.13865549518374" lon="9.306922865879693"><ele>15.0</ele><time>2026-04-26T07:34:12.772Z</time></trkpt><trkpt lat="41.13866401055675" lon="9.306775570473047"><ele>15.0</ele><time>2026-04-26T07:34:13.772Z</time></trkpt><trkpt lat="41.13858130377129" lon="9.306618489548985"><ele>15.0</ele><time>2026-04-26T07:34:14.772Z</time></trkpt><trkpt lat="41.13843967855547" lon="9.306458406495551"><ele>15.333333333333332</ele><time>2026-04-26T07:34:15.772Z</time></trkpt><trkpt lat="41.138277997338356" lon="9.30627533226643"><ele>15.666666666666666</ele><time>2026-04-26T07:34:16.772Z</time></trkpt><trkpt lat="41.13810407013106" lon="9.30607674336326"><ele>16.0</ele><time>2026-04-26T07:34:17.772Z</time></trkpt><trkpt lat="41.13796074751325" lon="9.3058777034134"><ele>16.0</ele><time>2026-04-26T07:34:18.772Z</time></trkpt><trkpt lat="41.137858264460796" lon="9.305683412641791"><ele>16.0</ele><time>2026-04-26T07:34:19.772Z</time></trkpt><trkpt lat="41.137781566858855" lon="9.305500879940777"><ele>16.0</ele><time>2026-04-26T07:34:20.771Z</time></trkpt><trkpt lat="41.13764905136099" lon="9.305390292207262"><ele>16.75</ele><time>2026-04-26T07:34:21.771Z</time></trkpt><trkpt lat="41.137479636825205" lon="9.30534199354987"><ele>17.5</ele><time>2026-04-26T07:34:22.771Z</time></trkpt><trkpt lat="41.1373537676739" lon="9.30525404501057"><ele>18.25</ele><time>2026-04-26T07:34:23.771Z</time></trkpt><trkpt lat="41.13728576971086" lon="9.305120657101694"><ele>19.0</ele><time>2026-04-26T07:34:24.771Z</time></trkpt><trkpt lat="41.137259077655585" lon="9.304912850222923"><ele>24.0</ele><time>2026-04-26T07:34:25.771Z</time></trkpt><trkpt lat="41.13721431388444" lon="9.304695262557175"><ele>29.0</ele><time>2026-04-26T07:34:26.771Z</time></trkpt><trkpt lat="41.1371494134861" lon="9.30455066750501"><ele>34.0</ele><time>2026-04-26T07:34:27.771Z</time></trkpt><trkpt lat="41.13698443651672" lon="9.304456275888095"><ele>34.0</ele><time>2026-04-26T07:34:28.771Z</time></trkpt><trkpt lat="41.13676433523267" lon="9.304519203006256"><ele>34.0</ele><time>2026-04-26T07:34:29.771Z</time></trkpt><trkpt lat="41.136579762191374" lon="9.304530181693384"><ele>34.0</ele><time>2026-04-26T07:34:30.771Z</time></trkpt><trkpt lat="41.13647671526649" lon="9.30452185153411"><ele>34.0</ele><time>2026-04-26T07:34:31.771Z</time></trkpt><trkpt lat="41.13647980441948" lon="9.304424659717123"><ele>34.0</ele><time>2026-04-26T07:34:32.771Z</time></trkpt><trkpt lat="41.13650824883657" lon="9.30431057541348"><ele>34.0</ele><time>2026-04-26T07:34:34.771Z</time></trkpt><trkpt lat="41.13653684497415" lon="9.304181332157393"><ele>34.0</ele><time>2026-04-26T07:34:35.771Z</time></trkpt><trkpt lat="41.13662427197959" lon="9.303927808084717"><ele>32.0</ele><time>2026-04-26T07:34:36.771Z</time></trkpt><trkpt lat="41.13653934053593" lon="9.303675558512824"><ele>30.0</ele><time>2026-04-26T07:34:37.77Z</time></trkpt><trkpt lat="41.136486274954386" lon="9.303539583133531"><ele>28.0</ele><time>2026-04-26T07:34:38.77Z</time></trkpt><trkpt lat="41.136476815765086" lon="9.303417148000769"><ele>26.0</ele><time>2026-04-26T07:34:39.77Z</time></trkpt><trkpt lat="41.13648674511679" lon="9.303242330326997"><ele>31.0</ele><time>2026-04-26T07:34:40.77Z</time></trkpt><trkpt lat="41.13649980845985" lon="9.30301429811079"><ele>36.0</ele><time>2026-04-26T07:34:41.77Z</time></trkpt><trkpt lat="41.136513785539485" lon="9.302697658434703"><ele>41.0</ele><time>2026-04-26T07:34:42.77Z</time></trkpt><trkpt lat="41.13625277101932" lon="9.302439775823917"><ele>41.0</ele><time>2026-04-26T07:34:43.77Z</time></trkpt><trkpt lat="41.1360884454811" lon="9.302411711432567"><ele>41.0</ele><time>2026-04-26T07:34:44.77Z</time></trkpt><trkpt lat="41.135977759319104" lon="9.302317233429283"><ele>41.0</ele><time>2026-04-26T07:34:45.77Z</time></trkpt><trkpt lat="41.135829571618565" lon="9.302154186940557"><ele>43.0</ele><time>2026-04-26T07:34:46.77Z</time></trkpt><trkpt lat="41.13565635893792" lon="9.301960095291248"><ele>45.0</ele><time>2026-04-26T07:34:47.77Z</time></trkpt><trkpt lat="41.135498654713665" lon="9.301783381468843"><ele>47.0</ele><time>2026-04-26T07:34:48.77Z</time></trkpt><trkpt lat="41.13533822047126" lon="9.301613038889231"><ele>47.0</ele><time>2026-04-26T07:34:49.77Z</time></trkpt><trkpt lat="41.135140524257245" lon="9.301520781577471"><ele>47.0</ele><time>2026-04-26T07:34:50.77Z</time></trkpt><trkpt lat="41.134997676751446" lon="9.301424636511985"><ele>47.0</ele><time>2026-04-26T07:34:51.77Z</time></trkpt><trkpt lat="41.13490260515018" lon="9.301263441584263"><ele>47.666666666666664</ele><time>2026-04-26T07:34:52.77Z</time></trkpt><trkpt lat="41.13476663891641" lon="9.301058907995417"><ele>48.33333333333333</ele><time>2026-04-26T07:34:53.77Z</time></trkpt><trkpt lat="41.134586689694004" lon="9.300874506587911"><ele>49.0</ele><time>2026-04-26T07:34:54.769Z</time></trkpt><trkpt lat="41.13441217788865" lon="9.300699822174316"><ele>46.666666666666664</ele><time>2026-04-26T07:34:55.769Z</time></trkpt><trkpt lat="41.13425857017075" lon="9.300521617505591"><ele>44.33333333333333</ele><time>2026-04-26T07:34:56.769Z</time></trkpt><trkpt lat="41.13410968694337" lon="9.30029379314683"><ele>42.0</ele><time>2026-04-26T07:34:57.769Z</time></trkpt><trkpt lat="41.133960459211444" lon="9.300054909645302"><ele>42.0</ele><time>2026-04-26T07:34:58.769Z</time></trkpt><trkpt lat="41.13381700118196" lon="9.299830686897828"><ele>42.0</ele><time>2026-04-26T07:34:59.769Z</time></trkpt><trkpt lat="41.133696781907" lon="9.299629045731104"><ele>42.0</ele><time>2026-04-26T07:35:00.769Z</time></trkpt><trkpt lat="41.13360719948888" lon="9.299414796868525"><ele>47.66666666666667</ele><time>2026-04-26T07:35:01.769Z</time></trkpt><trkpt lat="41.133543761051904" lon="9.299150860042182"><ele>53.333333333333336</ele><time>2026-04-26T07:35:02.769Z</time></trkpt><trkpt lat="41.133489960066775" lon="9.2988687500346"><ele>59.0</ele><time>2026-04-26T07:35:03.769Z</time></trkpt><trkpt lat="41.13342748425088" lon="9.298611667611093"><ele>59.66666666666667</ele><time>2026-04-26T07:35:04.769Z</time></trkpt><trkpt lat="41.13333405622871" lon="9.298374242009995"><ele>60.33333333333333</ele><time>2026-04-26T07:35:05.769Z</time></trkpt><trkpt lat="41.13316746832067" lon="9.298165188483443"><ele>61.0</ele><time>2026-04-26T07:35:06.769Z</time></trkpt><trkpt lat="41.132966594934935" lon="9.29797654180565"><ele>65.66666666666666</ele><time>2026-04-26T07:35:07.769Z</time></trkpt><trkpt lat="41.132806684627226" lon="9.297794522587136"><ele>70.33333333333333</ele><time>2026-04-26T07:35:08.769Z</time></trkpt><trkpt lat="41.132695786289496" lon="9.29761294356105"><ele>75.0</ele><time>2026-04-26T07:35:09.769Z</time></trkpt><trkpt lat="41.132641517906244" lon="9.29738823044836"><ele>72.33333333333333</ele><time>2026-04-26T07:35:10.769Z</time></trkpt><trkpt lat="41.13259374595628" lon="9.297156407380257"><ele>69.66666666666666</ele><time>2026-04-26T07:35:11.768Z</time></trkpt><trkpt lat="41.132475911090594" lon="9.296973073161643"><ele>67.0</ele><time>2026-04-26T07:35:12.768Z</time></trkpt><trkpt lat="41.132376219076555" lon="9.296811565882589"><ele>67.0</ele><time>2026-04-26T07:35:13.768Z</time></trkpt><trkpt lat="41.13232719282158" lon="9.29657834320922"><ele>67.0</ele><time>2026-04-26T07:35:14.768Z</time></trkpt><trkpt lat="41.13230935460836" lon="9.29632898404543"><ele>67.0</ele><time>2026-04-26T07:35:15.768Z</time></trkpt><trkpt lat="41.13232971039747" lon="9.296117801328693"><ele>70.25</ele><time>2026-04-26T07:35:16.768Z</time></trkpt><trkpt lat="41.13234464942307" lon="9.295933448895916"><ele>73.5</ele><time>2026-04-26T07:35:17.768Z</time></trkpt><trkpt lat="41.132351535141595" lon="9.295769822924257"><ele>76.75</ele><time>2026-04-26T07:35:18.768Z</time></trkpt><trkpt lat="41.132356586479396" lon="9.295652246951754"><ele>80.0</ele><time>2026-04-26T07:35:19.768Z</time></trkpt><trkpt lat="41.131927696769104" lon="9.295505326836961"><ele>88.0</ele><time>2026-04-26T07:35:20.768Z</time></trkpt><trkpt lat="41.13169538733732" lon="9.295371748704062"><ele>96.0</ele><time>2026-04-26T07:35:21.768Z</time></trkpt><trkpt lat="41.131465102977344" lon="9.295240320605018"><ele>96.0</ele><time>2026-04-26T07:35:22.768Z</time></trkpt><trkpt lat="41.13125850728474" lon="9.295124153595456"><ele>96.0</ele><time>2026-04-26T07:35:23.768Z</time></trkpt><trkpt lat="41.13104931645535" lon="9.295066728185787"><ele>96.0</ele><time>2026-04-26T07:35:24.768Z</time></trkpt><trkpt lat="41.130832775074666" lon="9.295074023985993"><ele>94.0</ele><time>2026-04-26T07:35:25.768Z</time></trkpt><trkpt lat="41.1306494685806" lon="9.295093444715235"><ele>92.0</ele><time>2026-04-26T07:35:26.768Z</time></trkpt><trkpt lat="41.130495824416556" lon="9.29505662805301"><ele>90.0</ele><time>2026-04-26T07:35:27.768Z</time></trkpt><trkpt lat="41.13035093071695" lon="9.294904469081638"><ele>93.33333333333334</ele><time>2026-04-26T07:35:28.767Z</time></trkpt><trkpt lat="41.130216998008144" lon="9.294684770869909"><ele>96.66666666666667</ele><time>2026-04-26T07:35:29.767Z</time></trkpt><trkpt lat="41.130062565616136" lon="9.294466401731079"><ele>100.0</ele><time>2026-04-26T07:35:30.767Z</time></trkpt><trkpt lat="41.12989494466961" lon="9.294244210886562"><ele>100.0</ele><time>2026-04-26T07:35:31.767Z</time></trkpt><trkpt lat="41.12972876767458" lon="9.294018744302182"><ele>100.0</ele><time>2026-04-26T07:35:32.767Z</time></trkpt><trkpt lat="41.12957387981004" lon="9.29379003526898"><ele>99.66666666666667</ele><time>2026-04-26T07:35:33.767Z</time></trkpt><trkpt lat="41.129423710232146" lon="9.293579601477836"><ele>99.33333333333334</ele><time>2026-04-26T07:35:34.767Z</time></trkpt><trkpt lat="41.12927627074695" lon="9.293370199307576"><ele>99.0</ele><time>2026-04-26T07:35:35.767Z</time></trkpt><trkpt lat="41.12913040574224" lon="9.29316227634803"><ele>98.66666666666666</ele><time>2026-04-26T07:35:36.767Z</time></trkpt><trkpt lat="41.12898617793132" lon="9.292955217433818"><ele>98.33333333333333</ele><time>2026-04-26T07:35:37.767Z</time></trkpt><trkpt lat="41.12884473140221" lon="9.292758039817512"><ele>98.0</ele><time>2026-04-26T07:35:38.768Z</time></trkpt><trkpt lat="41.128719922563505" lon="9.292565748379094"><ele>98.0</ele><time>2026-04-26T07:35:39.767Z</time></trkpt><trkpt lat="41.12862882101414" lon="9.292333737198735"><ele>98.0</ele><time>2026-04-26T07:35:40.767Z</time></trkpt><trkpt lat="41.12855842035447" lon="9.292058375750152"><ele>98.0</ele><time>2026-04-26T07:35:41.768Z</time></trkpt><trkpt lat="41.128487843150346" lon="9.291777827502019"><ele>96.33333333333333</ele><time>2026-04-26T07:35:42.768Z</time></trkpt><trkpt lat="41.12842221684775" lon="9.29152771546905"><ele>94.66666666666666</ele><time>2026-04-26T07:35:43.768Z</time></trkpt><trkpt lat="41.12836375269646" lon="9.29129252598515"><ele>93.0</ele><time>2026-04-26T07:35:44.767Z</time></trkpt><trkpt lat="41.128306641609235" lon="9.291064352716711"><ele>93.0</ele><time>2026-04-26T07:35:45.768Z</time></trkpt><trkpt lat="41.12824646429521" lon="9.290838372041131"><ele>93.0</ele><time>2026-04-26T07:35:46.767Z</time></trkpt><trkpt lat="41.12820576721023" lon="9.29060789169627"><ele>93.0</ele><time>2026-04-26T07:35:47.767Z</time></trkpt><trkpt lat="41.128190975567605" lon="9.290373472737851"><ele>91.75</ele><time>2026-04-26T07:35:48.767Z</time></trkpt><trkpt lat="41.128208435019836" lon="9.290164376181343"><ele>90.5</ele><time>2026-04-26T07:35:49.767Z</time></trkpt><trkpt lat="41.12827432020491" lon="9.289994874320168"><ele>89.25</ele><time>2026-04-26T07:35:50.767Z</time></trkpt><trkpt lat="41.12838361299872" lon="9.289884185979776"><ele>88.0</ele><time>2026-04-26T07:35:51.767Z</time></trkpt><trkpt lat="41.1285234460582" lon="9.28980317709087"><ele>85.66666666666666</ele><time>2026-04-26T07:35:52.767Z</time></trkpt><trkpt lat="41.12869223109799" lon="9.289741758518375"><ele>83.33333333333333</ele><time>2026-04-26T07:35:53.767Z</time></trkpt><trkpt lat="41.128861015738224" lon="9.289694347799399"><ele>81.0</ele><time>2026-04-26T07:35:54.767Z</time></trkpt><trkpt lat="41.129000371494" lon="9.289624251455278"><ele>81.33333333333333</ele><time>2026-04-26T07:35:55.767Z</time></trkpt><trkpt lat="41.129105213992986" lon="9.289435204308834"><ele>81.66666666666666</ele><time>2026-04-26T07:35:56.767Z</time></trkpt><trkpt lat="41.129169696250976" lon="9.28915449062575"><ele>82.0</ele><time>2026-04-26T07:35:57.767Z</time></trkpt><trkpt lat="41.1292085329074" lon="9.288870930471035"><ele>82.0</ele><time>2026-04-26T07:35:58.767Z</time></trkpt><trkpt lat="41.12927005535125" lon="9.288607803438735"><ele>82.0</ele><time>2026-04-26T07:35:59.767Z</time></trkpt><trkpt lat="41.12931805198699" lon="9.28840170881514"><ele>82.0</ele><time>2026-04-26T07:36:00.767Z</time></trkpt><trkpt lat="41.12935082961576" lon="9.288180883984689"><ele>81.66666666666666</ele><time>2026-04-26T07:36:01.767Z</time></trkpt><trkpt lat="41.12933490567161" lon="9.28795274075957"><ele>81.33333333333333</ele><time>2026-04-26T07:36:02.767Z</time></trkpt><trkpt lat="41.12922780724344" lon="9.287717159825034"><ele>81.0</ele><time>2026-04-26T07:36:03.767Z</time></trkpt><trkpt lat="41.12907040823106" lon="9.287503210027904"><ele>80.0</ele><time>2026-04-26T07:36:04.767Z</time></trkpt><trkpt lat="41.12892564624759" lon="9.28729589366276"><ele>79.0</ele><time>2026-04-26T07:36:05.766Z</time></trkpt><trkpt lat="41.12880908154893" lon="9.287096731838686"><ele>78.0</ele><time>2026-04-26T07:36:06.766Z</time></trkpt><trkpt lat="41.12871292186146" lon="9.286899201665323"><ele>78.0</ele><time>2026-04-26T07:36:07.766Z</time></trkpt><trkpt lat="41.12868397275022" lon="9.286656698214497"><ele>78.0</ele><time>2026-04-26T07:36:08.766Z</time></trkpt><trkpt lat="41.12872882098006" lon="9.286394533204422"><ele>78.0</ele><time>2026-04-26T07:36:09.766Z</time></trkpt><trkpt lat="41.12882362499606" lon="9.286149157049334"><ele>78.0</ele><time>2026-04-26T07:36:10.766Z</time></trkpt><trkpt lat="41.128903538715164" lon="9.285907434630651"><ele>78.0</ele><time>2026-04-26T07:36:11.766Z</time></trkpt><trkpt lat="41.12894773544519" lon="9.285692481173227"><ele>78.0</ele><time>2026-04-26T07:36:12.766Z</time></trkpt><trkpt lat="41.128919126587434" lon="9.285508982354878"><ele>78.66666666666667</ele><time>2026-04-26T07:36:13.766Z</time></trkpt><trkpt lat="41.12880646116239" lon="9.285351670444605"><ele>79.33333333333334</ele><time>2026-04-26T07:36:14.766Z</time></trkpt><trkpt lat="41.12861723066133" lon="9.285221224462699"><ele>80.0</ele><time>2026-04-26T07:36:15.766Z</time></trkpt><trkpt lat="41.12836594838039" lon="9.285127153434303"><ele>80.0</ele><time>2026-04-26T07:36:16.766Z</time></trkpt><trkpt lat="41.1280945293589" lon="9.285022639971269"><ele>80.0</ele><time>2026-04-26T07:36:17.766Z</time></trkpt><trkpt lat="41.12784410283025" lon="9.28491248574099"><ele>80.0</ele><time>2026-04-26T07:36:18.766Z</time></trkpt><trkpt lat="41.127629775208014" lon="9.284815674771544"><ele>80.0</ele><time>2026-04-26T07:36:19.766Z</time></trkpt><trkpt lat="41.12744857444248" lon="9.284733581698381"><ele>80.0</ele><time>2026-04-26T07:36:20.766Z</time></trkpt><trkpt lat="41.127296574730224" lon="9.284611119576343"><ele>79.66666666666667</ele><time>2026-04-26T07:36:21.765Z</time></trkpt><trkpt lat="41.127178516796256" lon="9.284439688875135"><ele>79.33333333333333</ele><time>2026-04-26T07:36:22.765Z</time></trkpt><trkpt lat="41.12710329131552" lon="9.284199317748149"><ele>79.0</ele><time>2026-04-26T07:36:23.765Z</time></trkpt><trkpt lat="41.12701225305002" lon="9.283937223444918"><ele>79.33333333333333</ele><time>2026-04-26T07:36:24.765Z</time></trkpt><trkpt lat="41.12694271689818" lon="9.28366319311494"><ele>79.66666666666667</ele><time>2026-04-26T07:36:25.765Z</time></trkpt><trkpt lat="41.126871251387186" lon="9.283376710476352"><ele>80.0</ele><time>2026-04-26T07:36:26.765Z</time></trkpt><trkpt lat="41.126771994296426" lon="9.283088083912634"><ele>80.0</ele><time>2026-04-26T07:36:27.765Z</time></trkpt><trkpt lat="41.12668864232531" lon="9.282774274387517"><ele>80.0</ele><time>2026-04-26T07:36:28.765Z</time></trkpt><trkpt lat="41.126606348517214" lon="9.282469334883897"><ele>78.0</ele><time>2026-04-26T07:36:29.765Z</time></trkpt><trkpt lat="41.12652349015124" lon="9.282179030220485"><ele>76.0</ele><time>2026-04-26T07:36:30.765Z</time></trkpt><trkpt lat="41.12646719802299" lon="9.281892665406282"><ele>76.0</ele><time>2026-04-26T07:36:31.765Z</time></trkpt><trkpt lat="41.12643287724039" lon="9.281586381918197"><ele>76.0</ele><time>2026-04-26T07:36:32.765Z</time></trkpt><trkpt lat="41.126440441133504" lon="9.281271852378179"><ele>77.0</ele><time>2026-04-26T07:36:33.765Z</time></trkpt><trkpt lat="41.126477835013965" lon="9.28096636804626"><ele>78.0</ele><time>2026-04-26T07:36:34.765Z</time></trkpt><trkpt lat="41.12652243256973" lon="9.280663187090196"><ele>78.0</ele><time>2026-04-26T07:36:35.765Z</time></trkpt><trkpt lat="41.12655616624267" lon="9.280353392056094"><ele>78.0</ele><time>2026-04-26T07:36:36.765Z</time></trkpt><trkpt lat="41.126605544430085" lon="9.28005033184873"><ele>76.0</ele><time>2026-04-26T07:36:37.765Z</time></trkpt><trkpt lat="41.12665028687378" lon="9.279741685215912"><ele>74.0</ele><time>2026-04-26T07:36:38.764Z</time></trkpt><trkpt lat="41.1266993897705" lon="9.279428810853862"><ele>74.0</ele><time>2026-04-26T07:36:39.764Z</time></trkpt><trkpt lat="41.126740115042864" lon="9.279124598570645"><ele>74.0</ele><time>2026-04-26T07:36:40.764Z</time></trkpt><trkpt lat="41.126733925628024" lon="9.278803847234425"><ele>73.0</ele><time>2026-04-26T07:36:41.764Z</time></trkpt><trkpt lat="41.126679893004486" lon="9.278486345560205"><ele>72.0</ele><time>2026-04-26T07:36:42.764Z</time></trkpt><trkpt lat="41.12657772636897" lon="9.278188015161298"><ele>71.0</ele><time>2026-04-26T07:36:43.764Z</time></trkpt><trkpt lat="41.126428591010296" lon="9.27789568420426"><ele>70.0</ele><time>2026-04-26T07:36:44.764Z</time></trkpt><trkpt lat="41.1262390658589" lon="9.277608605369164"><ele>70.0</ele><time>2026-04-26T07:36:45.764Z</time></trkpt><trkpt lat="41.126059025097064" lon="9.277311347468798"><ele>70.0</ele><time>2026-04-26T07:36:46.764Z</time></trkpt><trkpt lat="41.12588163811288" lon="9.277044748460865"><ele>70.5</ele><time>2026-04-26T07:36:47.764Z</time></trkpt><trkpt lat="41.12571817581924" lon="9.276799077199584"><ele>71.0</ele><time>2026-04-26T07:36:48.764Z</time></trkpt><trkpt lat="41.12556126486682" lon="9.276563251814487"><ele>70.5</ele><time>2026-04-26T07:36:49.764Z</time></trkpt><trkpt lat="41.12540260493598" lon="9.276325464618319"><ele>70.0</ele><time>2026-04-26T07:36:50.764Z</time></trkpt><trkpt lat="41.125242004205745" lon="9.276084678177527"><ele>70.0</ele><time>2026-04-26T07:36:51.764Z</time></trkpt><trkpt lat="41.12507722512619" lon="9.275837579923381"><ele>70.0</ele><time>2026-04-26T07:36:52.764Z</time></trkpt><trkpt lat="41.12490377927528" lon="9.275596985110278"><ele>70.0</ele><time>2026-04-26T07:36:53.764Z</time></trkpt><trkpt lat="41.124737625430754" lon="9.275344876338812"><ele>70.0</ele><time>2026-04-26T07:36:54.764Z</time></trkpt><trkpt lat="41.12456819051552" lon="9.275091631621475"><ele>70.0</ele><time>2026-04-26T07:36:55.763Z</time></trkpt><trkpt lat="41.12439836329931" lon="9.274833905817385"><ele>70.0</ele><time>2026-04-26T07:36:56.763Z</time></trkpt><trkpt lat="41.124224108253976" lon="9.274576314530607"><ele>69.5</ele><time>2026-04-26T07:36:57.763Z</time></trkpt><trkpt lat="41.124042947813685" lon="9.274321266658697"><ele>69.0</ele><time>2026-04-26T07:36:58.763Z</time></trkpt><trkpt lat="41.12385036145057" lon="9.274076523380339"><ele>68.5</ele><time>2026-04-26T07:36:59.763Z</time></trkpt><trkpt lat="41.123650952307486" lon="9.27383640642905"><ele>68.0</ele><time>2026-04-26T07:37:00.763Z</time></trkpt><trkpt lat="41.1234434592705" lon="9.273599668906593"><ele>68.0</ele><time>2026-04-26T07:37:01.763Z</time></trkpt><trkpt lat="41.123233065677574" lon="9.273354983415883"><ele>68.0</ele><time>2026-04-26T07:37:02.763Z</time></trkpt><trkpt lat="41.12302135361828" lon="9.273102362979655"><ele>67.5</ele><time>2026-04-26T07:37:03.763Z</time></trkpt><trkpt lat="41.12281917345468" lon="9.272860028505349"><ele>67.0</ele><time>2026-04-26T07:37:04.763Z</time></trkpt><trkpt lat="41.122630902146284" lon="9.27264159810511"><ele>67.0</ele><time>2026-04-26T07:37:05.763Z</time></trkpt><trkpt lat="41.122453902255494" lon="9.272434849877335"><ele>67.0</ele><time>2026-04-26T07:37:06.763Z</time></trkpt><trkpt lat="41.12228815163396" lon="9.272235099581726"><ele>66.66666666666666</ele><time>2026-04-26T07:37:07.763Z</time></trkpt><trkpt lat="41.122126889902724" lon="9.272041757837759"><ele>66.33333333333333</ele><time>2026-04-26T07:37:08.763Z</time></trkpt><trkpt lat="41.12196100116171" lon="9.271849179150934"><ele>66.0</ele><time>2026-04-26T07:37:09.763Z</time></trkpt><trkpt lat="41.12179342292431" lon="9.2716561869954"><ele>66.0</ele><time>2026-04-26T07:37:10.763Z</time></trkpt><trkpt lat="41.121624699089324" lon="9.271458889951669"><ele>66.0</ele><time>2026-04-26T07:37:11.763Z</time></trkpt><trkpt lat="41.12145552449163" lon="9.271255926933362"><ele>65.5</ele><time>2026-04-26T07:37:12.762Z</time></trkpt><trkpt lat="41.12128501783797" lon="9.271053406859098"><ele>65.0</ele><time>2026-04-26T07:37:13.762Z</time></trkpt><trkpt lat="41.121113222902224" lon="9.270851462017808"><ele>65.0</ele><time>2026-04-26T07:37:14.762Z</time></trkpt><trkpt lat="41.120941874647194" lon="9.270645933935603"><ele>65.0</ele><time>2026-04-26T07:37:15.762Z</time></trkpt><trkpt lat="41.12077080875922" lon="9.270439067919108"><ele>64.5</ele><time>2026-04-26T07:37:16.762Z</time></trkpt><trkpt lat="41.12059916771921" lon="9.27023525036565"><ele>64.0</ele><time>2026-04-26T07:37:17.762Z</time></trkpt><trkpt lat="41.120427205658" lon="9.270029732680047"><ele>64.0</ele><time>2026-04-26T07:37:18.762Z</time></trkpt><trkpt lat="41.12025499277538" lon="9.269827787511458"><ele>64.0</ele><time>2026-04-26T07:37:19.762Z</time></trkpt><trkpt lat="41.12008632200161" lon="9.26962844923193"><ele>64.33333333333333</ele><time>2026-04-26T07:37:20.762Z</time></trkpt><trkpt lat="41.119921096229426" lon="9.269430132536714"><ele>64.66666666666667</ele><time>2026-04-26T07:37:21.762Z</time></trkpt><trkpt lat="41.11975921699276" lon="9.269233675287781"><ele>65.0</ele><time>2026-04-26T07:37:22.762Z</time></trkpt><trkpt lat="41.119601453473415" lon="9.269031952992933"><ele>65.66666666666667</ele><time>2026-04-26T07:37:23.762Z</time></trkpt><trkpt lat="41.119448284285646" lon="9.268830894842562"><ele>66.33333333333333</ele><time>2026-04-26T07:37:24.762Z</time></trkpt><trkpt lat="41.11928849188334" lon="9.268648163354728"><ele>67.0</ele><time>2026-04-26T07:37:25.762Z</time></trkpt><trkpt lat="41.11912506626115" lon="9.268466308159523"><ele>67.33333333333333</ele><time>2026-04-26T07:37:26.762Z</time></trkpt><trkpt lat="41.11897031694322" lon="9.268284664885892"><ele>67.66666666666667</ele><time>2026-04-26T07:37:27.762Z</time></trkpt><trkpt lat="41.118816689404895" lon="9.268093192449502"><ele>68.0</ele><time>2026-04-26T07:37:28.762Z</time></trkpt><trkpt lat="41.11866059836535" lon="9.26789430160821"><ele>68.66666666666667</ele><time>2026-04-26T07:37:29.761Z</time></trkpt><trkpt lat="41.118495714823915" lon="9.267703416623668"><ele>69.33333333333333</ele><time>2026-04-26T07:37:30.761Z</time></trkpt><trkpt lat="41.11832620236118" lon="9.267513721301485"><ele>70.0</ele><time>2026-04-26T07:37:31.761Z</time></trkpt><trkpt lat="41.118152690022335" lon="9.267320578548215"><ele>70.5</ele><time>2026-04-26T07:37:32.761Z</time></trkpt><trkpt lat="41.11797688939682" lon="9.267121042596163"><ele>71.0</ele><time>2026-04-26T07:37:33.761Z</time></trkpt><trkpt lat="41.11780201224901" lon="9.26691287192088"><ele>71.0</ele><time>2026-04-26T07:37:34.761Z</time></trkpt><trkpt lat="41.11762417626072" lon="9.266702228835431"><ele>71.0</ele><time>2026-04-26T07:37:35.761Z</time></trkpt><trkpt lat="41.117447015869324" lon="9.266487028239839"><ele>73.0</ele><time>2026-04-26T07:37:36.761Z</time></trkpt><trkpt lat="41.11726775600529" lon="9.26627094199754"><ele>75.0</ele><time>2026-04-26T07:37:37.761Z</time></trkpt><trkpt lat="41.11708407077048" lon="9.266055255141639"><ele>75.0</ele><time>2026-04-26T07:37:38.761Z</time></trkpt><trkpt lat="41.116898212240194" lon="9.265837219252216"><ele>75.0</ele><time>2026-04-26T07:37:39.761Z</time></trkpt><trkpt lat="41.116716291372356" lon="9.265620941993381"><ele>73.33333333333333</ele><time>2026-04-26T07:37:40.761Z</time></trkpt><trkpt lat="41.11655461078028" lon="9.265420361564814"><ele>71.66666666666666</ele><time>2026-04-26T07:37:41.761Z</time></trkpt><trkpt lat="41.11642471427631" lon="9.265205600675124"><ele>70.0</ele><time>2026-04-26T07:37:42.761Z</time></trkpt><trkpt lat="41.11631232056414" lon="9.264957868784709"><ele>68.5</ele><time>2026-04-26T07:37:43.761Z</time></trkpt><trkpt lat="41.116220891655445" lon="9.264688473660863"><ele>67.0</ele><time>2026-04-26T07:37:44.762Z</time></trkpt><trkpt lat="41.11613447905744" lon="9.264406721578142"><ele>67.0</ele><time>2026-04-26T07:37:45.761Z</time></trkpt><trkpt lat="41.1160427778448" lon="9.264119315413359"><ele>67.0</ele><time>2026-04-26T07:37:46.761Z</time></trkpt><trkpt lat="41.11595021406042" lon="9.26382882556375"><ele>66.5</ele><time>2026-04-26T07:37:47.762Z</time></trkpt><trkpt lat="41.11586049507596" lon="9.263540556476958"><ele>66.0</ele><time>2026-04-26T07:37:48.762Z</time></trkpt><trkpt lat="41.11577412052048" lon="9.263253444632348"><ele>65.66666666666667</ele><time>2026-04-26T07:37:49.762Z</time></trkpt><trkpt lat="41.115692188478555" lon="9.262970520738246"><ele>65.33333333333334</ele><time>2026-04-26T07:37:50.762Z</time></trkpt><trkpt lat="41.11561548635863" lon="9.262704257681325"><ele>65.0</ele><time>2026-04-26T07:37:51.761Z</time></trkpt><trkpt lat="41.11552455429738" lon="9.262475749145953"><ele>65.0</ele><time>2026-04-26T07:37:52.761Z</time></trkpt><trkpt lat="41.11540156276611" lon="9.262310242902247"><ele>65.0</ele><time>2026-04-26T07:37:53.761Z</time></trkpt><trkpt lat="41.11527562876316" lon="9.262201844762703"><ele>65.0</ele><time>2026-04-26T07:37:54.761Z</time></trkpt><trkpt lat="41.115147845009865" lon="9.262191121722614"><ele>65.0</ele><time>2026-04-26T07:37:55.761Z</time></trkpt><trkpt lat="41.115001763586406" lon="9.262294354393886"><ele>65.0</ele><time>2026-04-26T07:37:56.762Z</time></trkpt><trkpt lat="41.11485532788399" lon="9.262476289969875"><ele>65.0</ele><time>2026-04-26T07:37:57.761Z</time></trkpt><trkpt lat="41.114695636614556" lon="9.262646674786403"><ele>67.33333333333334</ele><time>2026-04-26T07:37:58.761Z</time></trkpt><trkpt lat="41.11453707593668" lon="9.262793036207608"><ele>69.66666666666667</ele><time>2026-04-26T07:37:59.761Z</time></trkpt><trkpt lat="41.114368157515834" lon="9.262849585836054"><ele>72.0</ele><time>2026-04-26T07:38:00.761Z</time></trkpt><trkpt lat="41.11415938304962" lon="9.262841802212762"><ele>72.0</ele><time>2026-04-26T07:38:01.761Z</time></trkpt><trkpt lat="41.113938315274325" lon="9.262821400183311"><ele>72.0</ele><time>2026-04-26T07:38:02.761Z</time></trkpt><trkpt lat="41.11373821010927" lon="9.262771534029852"><ele>72.0</ele><time>2026-04-26T07:38:03.761Z</time></trkpt><trkpt lat="41.11354599570876" lon="9.262721944853622"><ele>72.0</ele><time>2026-04-26T07:38:04.761Z</time></trkpt><trkpt lat="41.11335495318723" lon="9.26267772571205"><ele>72.0</ele><time>2026-04-26T07:38:05.761Z</time></trkpt><trkpt lat="41.11316441367456" lon="9.262639230426133"><ele>72.0</ele><time>2026-04-26T07:38:06.761Z</time></trkpt><trkpt lat="41.112978762356015" lon="9.262587210673367"><ele>71.66666666666667</ele><time>2026-04-26T07:38:07.761Z</time></trkpt><trkpt lat="41.11279023276035" lon="9.26254986870715"><ele>71.33333333333334</ele><time>2026-04-26T07:38:08.76Z</time></trkpt><trkpt lat="41.11260411627868" lon="9.262518121703865"><ele>71.0</ele><time>2026-04-26T07:38:09.76Z</time></trkpt><trkpt lat="41.112416517532054" lon="9.262490574521907"><ele>70.66666666666667</ele><time>2026-04-26T07:38:10.76Z</time></trkpt><trkpt lat="41.1122305154556" lon="9.26246000951321"><ele>70.33333333333333</ele><time>2026-04-26T07:38:11.76Z</time></trkpt><trkpt lat="41.112044712433736" lon="9.262417763828132"><ele>70.0</ele><time>2026-04-26T07:38:12.76Z</time></trkpt><trkpt lat="41.111856633613186" lon="9.262382921837474"><ele>70.0</ele><time>2026-04-26T07:38:13.76Z</time></trkpt><trkpt lat="41.11166302939042" lon="9.262345398774162"><ele>70.0</ele><time>2026-04-26T07:38:14.76Z</time></trkpt><trkpt lat="41.11148121608973" lon="9.262314309910291"><ele>70.0</ele><time>2026-04-26T07:38:15.76Z</time></trkpt><trkpt lat="41.11130687419131" lon="9.262284239900692"><ele>71.33333333333333</ele><time>2026-04-26T07:38:16.76Z</time></trkpt><trkpt lat="41.11114170172408" lon="9.262246944892848"><ele>72.66666666666667</ele><time>2026-04-26T07:38:17.76Z</time></trkpt><trkpt lat="41.11099013951165" lon="9.262191952020048"><ele>74.0</ele><time>2026-04-26T07:38:18.76Z</time></trkpt><trkpt lat="41.11084961385479" lon="9.262153509599171"><ele>75.0</ele><time>2026-04-26T07:38:19.76Z</time></trkpt><trkpt lat="41.1107026612272" lon="9.26210270484974"><ele>76.0</ele><time>2026-04-26T07:38:20.76Z</time></trkpt><trkpt lat="41.11054838135806" lon="9.26208171582812"><ele>77.0</ele><time>2026-04-26T07:38:21.76Z</time></trkpt><trkpt lat="41.11039673273596" lon="9.262057521110993"><ele>77.0</ele><time>2026-04-26T07:38:22.76Z</time></trkpt><trkpt lat="41.110257012283135" lon="9.262028104698413"><ele>77.0</ele><time>2026-04-26T07:38:23.76Z</time></trkpt><trkpt lat="41.110120076713635" lon="9.261987576412166"><ele>77.0</ele><time>2026-04-26T07:38:24.76Z</time></trkpt><trkpt lat="41.109986833708646" lon="9.261939151335685"><ele>77.0</ele><time>2026-04-26T07:38:25.759Z</time></trkpt><trkpt lat="41.10985973988574" lon="9.261882954485724"><ele>77.0</ele><time>2026-04-26T07:38:26.759Z</time></trkpt><trkpt lat="41.109735942492335" lon="9.261821055810474"><ele>77.0</ele><time>2026-04-26T07:38:27.759Z</time></trkpt><trkpt lat="41.10960831237126" lon="9.261742039312916"><ele>77.0</ele><time>2026-04-26T07:38:28.759Z</time></trkpt><trkpt lat="41.109495978466605" lon="9.261657005977876"><ele>77.0</ele><time>2026-04-26T07:38:29.759Z</time></trkpt><trkpt lat="41.10937466927641" lon="9.261599061099183"><ele>77.0</ele><time>2026-04-26T07:38:30.759Z</time></trkpt><trkpt lat="41.10925742462469" lon="9.2615314262521"><ele>77.0</ele><time>2026-04-26T07:38:31.759Z</time></trkpt><trkpt lat="41.10914575791014" lon="9.261471935000264"><ele>77.0</ele><time>2026-04-26T07:38:32.759Z</time></trkpt><trkpt lat="41.10903961446527" lon="9.261417146372702"><ele>77.0</ele><time>2026-04-26T07:38:33.759Z</time></trkpt><trkpt lat="41.108935768256536" lon="9.26136047424891"><ele>75.75</ele><time>2026-04-26T07:38:34.759Z</time></trkpt><trkpt lat="41.108828745947015" lon="9.261305299256149"><ele>74.5</ele><time>2026-04-26T07:38:35.759Z</time></trkpt><trkpt lat="41.108718845107084" lon="9.26125505414941"><ele>73.25</ele><time>2026-04-26T07:38:36.759Z</time></trkpt><trkpt lat="41.10860238009107" lon="9.26122110201373"><ele>72.0</ele><time>2026-04-26T07:38:37.759Z</time></trkpt><trkpt lat="41.10848619226237" lon="9.261206896354297"><ele>72.0</ele><time>2026-04-26T07:38:38.759Z</time></trkpt><trkpt lat="41.10836652522593" lon="9.261211193524886"><ele>72.0</ele><time>2026-04-26T07:38:39.759Z</time></trkpt><trkpt lat="41.108248855906815" lon="9.261221839572167"><ele>72.0</ele><time>2026-04-26T07:38:40.759Z</time></trkpt><trkpt lat="41.10813120433983" lon="9.261243419605986"><ele>72.0</ele><time>2026-04-26T07:38:41.759Z</time></trkpt><trkpt lat="41.10801278445988" lon="9.261264175321804"><ele>71.75</ele><time>2026-04-26T07:38:42.758Z</time></trkpt><trkpt lat="41.10788816688138" lon="9.261275326734399"><ele>71.5</ele><time>2026-04-26T07:38:43.758Z</time></trkpt><trkpt lat="41.107764022270906" lon="9.261251973599276"><ele>71.25</ele><time>2026-04-26T07:38:44.758Z</time></trkpt><trkpt lat="41.107637497651346" lon="9.261196813501956"><ele>71.0</ele><time>2026-04-26T07:38:45.758Z</time></trkpt><trkpt lat="41.10751199311095" lon="9.261112681762825"><ele>69.33333333333334</ele><time>2026-04-26T07:38:46.758Z</time></trkpt><trkpt lat="41.107385624117974" lon="9.261005080872097"><ele>67.66666666666667</ele><time>2026-04-26T07:38:47.758Z</time></trkpt><trkpt lat="41.10725475275062" lon="9.26089678881476"><ele>66.0</ele><time>2026-04-26T07:38:48.758Z</time></trkpt><trkpt lat="41.107125760986456" lon="9.260776486525545"><ele>66.0</ele><time>2026-04-26T07:38:49.758Z</time></trkpt><trkpt lat="41.106990604331905" lon="9.260660366497374"><ele>66.0</ele><time>2026-04-26T07:38:50.758Z</time></trkpt><trkpt lat="41.10685541189389" lon="9.260537398202459"><ele>66.0</ele><time>2026-04-26T07:38:51.758Z</time></trkpt><trkpt lat="41.10671844123894" lon="9.260413908549792"><ele>66.33333333333333</ele><time>2026-04-26T07:38:52.758Z</time></trkpt><trkpt lat="41.106578366037404" lon="9.260286817987392"><ele>66.66666666666666</ele><time>2026-04-26T07:38:53.758Z</time></trkpt><trkpt lat="41.106435107451404" lon="9.260162947450688"><ele>67.0</ele><time>2026-04-26T07:38:54.758Z</time></trkpt><trkpt lat="41.10628287338434" lon="9.260039772826104"><ele>66.33333333333333</ele><time>2026-04-26T07:38:55.758Z</time></trkpt><trkpt lat="41.10612980614881" lon="9.259913003256713"><ele>65.66666666666667</ele><time>2026-04-26T07:38:56.758Z</time></trkpt><trkpt lat="41.10597772613586" lon="9.2597777271816"><ele>65.0</ele><time>2026-04-26T07:38:57.758Z</time></trkpt><trkpt lat="41.10583563965054" lon="9.259627563061935"><ele>66.33333333333334</ele><time>2026-04-26T07:38:58.758Z</time></trkpt><trkpt lat="41.105681693787794" lon="9.25949015224237"><ele>67.66666666666667</ele><time>2026-04-26T07:38:59.757Z</time></trkpt><trkpt lat="41.10553040574019" lon="9.259355113775104"><ele>69.0</ele><time>2026-04-26T07:39:00.757Z</time></trkpt><trkpt lat="41.105368064416716" lon="9.259247395545781"><ele>69.0</ele><time>2026-04-26T07:39:01.757Z</time></trkpt><trkpt lat="41.105217569178336" lon="9.259112549734215"><ele>69.0</ele><time>2026-04-26T07:39:02.757Z</time></trkpt><trkpt lat="41.10507017742004" lon="9.25898012951499"><ele>69.0</ele><time>2026-04-26T07:39:03.757Z</time></trkpt><trkpt lat="41.10491923210493" lon="9.258850425948527"><ele>69.66666666666667</ele><time>2026-04-26T07:39:04.757Z</time></trkpt><trkpt lat="41.10478176092443" lon="9.258688915697505"><ele>70.33333333333334</ele><time>2026-04-26T07:39:05.757Z</time></trkpt><trkpt lat="41.10462862652538" lon="9.25855097052018"><ele>71.0</ele><time>2026-04-26T07:39:06.757Z</time></trkpt><trkpt lat="41.104474748393265" lon="9.258413684876393"><ele>71.0</ele><time>2026-04-26T07:39:07.757Z</time></trkpt><trkpt lat="41.10431232546348" lon="9.25829121517034"><ele>71.0</ele><time>2026-04-26T07:39:08.757Z</time></trkpt><trkpt lat="41.10414964591121" lon="9.258167226955873"><ele>71.0</ele><time>2026-04-26T07:39:09.757Z</time></trkpt><trkpt lat="41.10398051249743" lon="9.25805857183553"><ele>71.0</ele><time>2026-04-26T07:39:10.757Z</time></trkpt><trkpt lat="41.10380591239577" lon="9.257959187998686"><ele>71.0</ele><time>2026-04-26T07:39:11.757Z</time></trkpt><trkpt lat="41.10362542813229" lon="9.257859880622398"><ele>71.0</ele><time>2026-04-26T07:39:12.757Z</time></trkpt><trkpt lat="41.10344545038449" lon="9.257761813282706"><ele>71.0</ele><time>2026-04-26T07:39:13.757Z</time></trkpt><trkpt lat="41.10326360446834" lon="9.25766067961247"><ele>71.0</ele><time>2026-04-26T07:39:14.757Z</time></trkpt><trkpt lat="41.10308298983072" lon="9.257557522134716"><ele>71.0</ele><time>2026-04-26T07:39:15.757Z</time></trkpt><trkpt lat="41.102903015514464" lon="9.257450367191863"><ele>70.66666666666667</ele><time>2026-04-26T07:39:16.756Z</time></trkpt><trkpt lat="41.10271631007846" lon="9.257360308303454"><ele>70.33333333333333</ele><time>2026-04-26T07:39:17.756Z</time></trkpt><trkpt lat="41.10253522955093" lon="9.257257717004167"><ele>70.0</ele><time>2026-04-26T07:39:18.756Z</time></trkpt><trkpt lat="41.10235245265526" lon="9.257159766820477"><ele>71.33333333333333</ele><time>2026-04-26T07:39:19.756Z</time></trkpt><trkpt lat="41.10216943774088" lon="9.257067040955608"><ele>72.66666666666667</ele><time>2026-04-26T07:39:20.756Z</time></trkpt><trkpt lat="41.101981754553556" lon="9.256978354755697"><ele>74.0</ele><time>2026-04-26T07:39:21.756Z</time></trkpt><trkpt lat="41.10179945933532" lon="9.2568858245909"><ele>74.0</ele><time>2026-04-26T07:39:22.756Z</time></trkpt><trkpt lat="41.101618028391364" lon="9.256791525501585"><ele>74.0</ele><time>2026-04-26T07:39:23.756Z</time></trkpt><trkpt lat="41.101443215401765" lon="9.256681038393847"><ele>74.0</ele><time>2026-04-26T07:39:24.756Z</time></trkpt><trkpt lat="41.101265263503905" lon="9.256573511592642"><ele>73.66666666666667</ele><time>2026-04-26T07:39:25.756Z</time></trkpt><trkpt lat="41.101093017842786" lon="9.25646600511284"><ele>73.33333333333333</ele><time>2026-04-26T07:39:26.756Z</time></trkpt><trkpt lat="41.10091088846951" lon="9.256350674289004"><ele>73.0</ele><time>2026-04-26T07:39:27.756Z</time></trkpt><trkpt lat="41.10072249201865" lon="9.256243659435162"><ele>73.0</ele><time>2026-04-26T07:39:28.756Z</time></trkpt><trkpt lat="41.100518296531334" lon="9.25613693380448"><ele>73.0</ele><time>2026-04-26T07:39:29.756Z</time></trkpt><trkpt lat="41.100401537937685" lon="9.256037477185057"><ele>73.0</ele><time>2026-04-26T07:39:30.756Z</time></trkpt><trkpt lat="41.100234373639005" lon="9.255927837463766"><ele>73.0</ele><time>2026-04-26T07:39:31.756Z</time></trkpt><trkpt lat="41.10006629931485" lon="9.255821345887558"><ele>73.0</ele><time>2026-04-26T07:39:32.756Z</time></trkpt><trkpt lat="41.099918522780925" lon="9.25569511864488"><ele>73.0</ele><time>2026-04-26T07:39:33.755Z</time></trkpt><trkpt lat="41.099788038359726" lon="9.255558022278244"><ele>72.66666666666666</ele><time>2026-04-26T07:39:34.755Z</time></trkpt><trkpt lat="41.0996865061396" lon="9.255390978574967"><ele>72.33333333333333</ele><time>2026-04-26T07:39:35.755Z</time></trkpt><trkpt lat="41.099611727404216" lon="9.255180711607935"><ele>72.0</ele><time>2026-04-26T07:39:36.755Z</time></trkpt><trkpt lat="41.09956384442933" lon="9.254950794076082"><ele>72.66666666666667</ele><time>2026-04-26T07:39:37.755Z</time></trkpt><trkpt lat="41.09950498706569" lon="9.254694259188526"><ele>73.33333333333334</ele><time>2026-04-26T07:39:38.755Z</time></trkpt><trkpt lat="41.09944679674982" lon="9.254440631925972"><ele>74.0</ele><time>2026-04-26T07:39:39.755Z</time></trkpt><trkpt lat="41.099392369492" lon="9.254187027015686"><ele>75.66666666666667</ele><time>2026-04-26T07:39:40.755Z</time></trkpt><trkpt lat="41.099320040668196" lon="9.253938778003906"><ele>77.33333333333333</ele><time>2026-04-26T07:39:41.755Z</time></trkpt><trkpt lat="41.099212016591835" lon="9.253739292432405"><ele>79.0</ele><time>2026-04-26T07:39:42.755Z</time></trkpt><trkpt lat="41.09908097939136" lon="9.253565286659553"><ele>79.33333333333333</ele><time>2026-04-26T07:39:43.755Z</time></trkpt><trkpt lat="41.09891248843033" lon="9.253455318916599"><ele>79.66666666666667</ele><time>2026-04-26T07:39:44.755Z</time></trkpt><trkpt lat="41.09871804751703" lon="9.253419701600512"><ele>80.0</ele><time>2026-04-26T07:39:45.755Z</time></trkpt><trkpt lat="41.09851205027925" lon="9.253412293728186"><ele>80.0</ele><time>2026-04-26T07:39:46.755Z</time></trkpt><trkpt lat="41.09832894160283" lon="9.253317121828692"><ele>80.0</ele><time>2026-04-26T07:39:47.755Z</time></trkpt><trkpt lat="41.098180659778464" lon="9.253165868957772"><ele>80.0</ele><time>2026-04-26T07:39:48.755Z</time></trkpt><trkpt lat="41.09808253442812" lon="9.252978008239905"><ele>80.0</ele><time>2026-04-26T07:39:49.755Z</time></trkpt><trkpt lat="41.0979892463733" lon="9.252744705693596"><ele>80.0</ele><time>2026-04-26T07:39:50.756Z</time></trkpt><trkpt lat="41.097894744464504" lon="9.252501664196819"><ele>80.0</ele><time>2026-04-26T07:39:51.755Z</time></trkpt><trkpt lat="41.097797447646506" lon="9.252252622987589"><ele>80.0</ele><time>2026-04-26T07:39:52.755Z</time></trkpt><trkpt lat="41.09769897736257" lon="9.252001232311184"><ele>80.0</ele><time>2026-04-26T07:39:53.756Z</time></trkpt><trkpt lat="41.09760168552225" lon="9.251752849914194"><ele>80.0</ele><time>2026-04-26T07:39:54.755Z</time></trkpt><trkpt lat="41.09750052008032" lon="9.251494578426932"><ele>78.66666666666667</ele><time>2026-04-26T07:39:55.755Z</time></trkpt><trkpt lat="41.097403156221716" lon="9.251246012372473"><ele>77.33333333333333</ele><time>2026-04-26T07:39:56.756Z</time></trkpt><trkpt lat="41.09730547658447" lon="9.25099664003427"><ele>76.0</ele><time>2026-04-26T07:39:57.755Z</time></trkpt><trkpt lat="41.09720769892653" lon="9.250747017470802"><ele>76.66666666666666</ele><time>2026-04-26T07:39:58.755Z</time></trkpt><trkpt lat="41.09710503827861" lon="9.250484928722503"><ele>77.33333333333333</ele><time>2026-04-26T07:39:59.756Z</time></trkpt><trkpt lat="41.097003663082525" lon="9.250221203637196"><ele>78.0</ele><time>2026-04-26T07:40:00.755Z</time></trkpt><trkpt lat="41.09690074211734" lon="9.249957299070813"><ele>79.0</ele><time>2026-04-26T07:40:01.755Z</time></trkpt><trkpt lat="41.09679884155046" lon="9.249697757844487"><ele>80.0</ele><time>2026-04-26T07:40:02.756Z</time></trkpt><trkpt lat="41.09669563398462" lon="9.249435096527163"><ele>81.0</ele><time>2026-04-26T07:40:03.755Z</time></trkpt><trkpt lat="41.09659497256892" lon="9.24917214694172"><ele>80.33333333333333</ele><time>2026-04-26T07:40:04.755Z</time></trkpt><trkpt lat="41.09650520012243" lon="9.24890970709786"><ele>79.66666666666666</ele><time>2026-04-26T07:40:05.755Z</time></trkpt><trkpt lat="41.09641552694472" lon="9.248639264972978"><ele>79.0</ele><time>2026-04-26T07:40:06.755Z</time></trkpt><trkpt lat="41.096329736146835" lon="9.248371797504598"><ele>79.0</ele><time>2026-04-26T07:40:07.755Z</time></trkpt><trkpt lat="41.09624356359807" lon="9.248102970965236"><ele>79.0</ele><time>2026-04-26T07:40:08.755Z</time></trkpt><trkpt lat="41.09615623907955" lon="9.247830550716575"><ele>79.0</ele><time>2026-04-26T07:40:09.755Z</time></trkpt><trkpt lat="41.09606911674986" lon="9.247558760380974"><ele>79.5</ele><time>2026-04-26T07:40:10.755Z</time></trkpt><trkpt lat="41.09598185289586" lon="9.247282191095989"><ele>80.0</ele><time>2026-04-26T07:40:11.755Z</time></trkpt><trkpt lat="41.09589399827624" lon="9.24700853321449"><ele>80.0</ele><time>2026-04-26T07:40:12.755Z</time></trkpt><trkpt lat="41.09580621839633" lon="9.24673803500882"><ele>80.0</ele><time>2026-04-26T07:40:13.755Z</time></trkpt><trkpt lat="41.095705176738385" lon="9.24647634736243"><ele>80.0</ele><time>2026-04-26T07:40:14.755Z</time></trkpt><trkpt lat="41.09562015498379" lon="9.24620670263996"><ele>79.66666666666667</ele><time>2026-04-26T07:40:15.755Z</time></trkpt><trkpt lat="41.09553893259226" lon="9.245935574681129"><ele>79.33333333333333</ele><time>2026-04-26T07:40:16.755Z</time></trkpt><trkpt lat="41.095457721943774" lon="9.245662884985828"><ele>79.0</ele><time>2026-04-26T07:40:17.755Z</time></trkpt><trkpt lat="41.09537086720458" lon="9.245405217645356"><ele>80.0</ele><time>2026-04-26T07:40:18.755Z</time></trkpt><trkpt lat="41.09528718444341" lon="9.245151373127175"><ele>81.0</ele><time>2026-04-26T07:40:19.755Z</time></trkpt><trkpt lat="41.095207674747535" lon="9.244895327577922"><ele>82.0</ele><time>2026-04-26T07:40:20.754Z</time></trkpt><trkpt lat="41.09512325325551" lon="9.244634112060334"><ele>82.0</ele><time>2026-04-26T07:40:21.754Z</time></trkpt><trkpt lat="41.095033719405635" lon="9.244356029775235"><ele>82.0</ele><time>2026-04-26T07:40:22.754Z</time></trkpt><trkpt lat="41.094941100292104" lon="9.244068722363261"><ele>83.0</ele><time>2026-04-26T07:40:23.754Z</time></trkpt><trkpt lat="41.09484132238151" lon="9.24377045986223"><ele>84.0</ele><time>2026-04-26T07:40:24.754Z</time></trkpt><trkpt lat="41.094760393515074" lon="9.243463866656127"><ele>84.0</ele><time>2026-04-26T07:40:25.754Z</time></trkpt><trkpt lat="41.094659610449575" lon="9.24319413124291"><ele>84.0</ele><time>2026-04-26T07:40:26.754Z</time></trkpt><trkpt lat="41.09457274024111" lon="9.24292848396743"><ele>84.0</ele><time>2026-04-26T07:40:27.754Z</time></trkpt><trkpt lat="41.0945054116774" lon="9.242660342257276"><ele>84.33333333333333</ele><time>2026-04-26T07:40:28.754Z</time></trkpt><trkpt lat="41.09442584258963" lon="9.242413265712987"><ele>84.66666666666666</ele><time>2026-04-26T07:40:29.754Z</time></trkpt><trkpt lat="41.094344314789005" lon="9.24215848853213"><ele>85.0</ele><time>2026-04-26T07:40:30.754Z</time></trkpt><trkpt lat="41.09426145193845" lon="9.241893446318107"><ele>85.33333333333333</ele><time>2026-04-26T07:40:31.754Z</time></trkpt><trkpt lat="41.094176008874584" lon="9.241625717801872"><ele>85.66666666666667</ele><time>2026-04-26T07:40:32.754Z</time></trkpt><trkpt lat="41.094101504552945" lon="9.24136736091161"><ele>86.0</ele><time>2026-04-26T07:40:33.754Z</time></trkpt><trkpt lat="41.09406050519527" lon="9.241101266947945"><ele>85.0</ele><time>2026-04-26T07:40:34.754Z</time></trkpt><trkpt lat="41.09405123570664" lon="9.240827372053559"><ele>84.0</ele><time>2026-04-26T07:40:35.754Z</time></trkpt><trkpt lat="41.094040444390764" lon="9.240548629706593"><ele>83.0</ele><time>2026-04-26T07:40:36.754Z</time></trkpt><trkpt lat="41.0940297427999" lon="9.240272205004201"><ele>83.0</ele><time>2026-04-26T07:40:37.753Z</time></trkpt><trkpt lat="41.09400418907297" lon="9.240006118928783"><ele>83.0</ele><time>2026-04-26T07:40:38.753Z</time></trkpt><trkpt lat="41.09400510311842" lon="9.23976365122167"><ele>83.0</ele><time>2026-04-26T07:40:39.753Z</time></trkpt><trkpt lat="41.09396899622938" lon="9.239546555343376"><ele>83.66666666666667</ele><time>2026-04-26T07:40:40.753Z</time></trkpt><trkpt lat="41.09388706173262" lon="9.23935782449754"><ele>84.33333333333333</ele><time>2026-04-26T07:40:41.753Z</time></trkpt><trkpt lat="41.09380819242668" lon="9.239176744231015"><ele>85.0</ele><time>2026-04-26T07:40:42.753Z</time></trkpt><trkpt lat="41.09373233503279" lon="9.239002723273833"><ele>85.0</ele><time>2026-04-26T07:40:43.753Z</time></trkpt><trkpt lat="41.09339499194778" lon="9.23904748630174"><ele>85.0</ele><time>2026-04-26T07:40:44.753Z</time></trkpt><trkpt lat="41.09321871430549" lon="9.238983133606645"><ele>84.66666666666666</ele><time>2026-04-26T07:40:45.753Z</time></trkpt><trkpt lat="41.09308123048971" lon="9.238845079220262"><ele>84.33333333333333</ele><time>2026-04-26T07:40:46.753Z</time></trkpt><trkpt lat="41.09298776515067" lon="9.238628964771458"><ele>84.0</ele><time>2026-04-26T07:40:47.753Z</time></trkpt><trkpt lat="41.09291351747009" lon="9.23838034362007"><ele>85.33333333333333</ele><time>2026-04-26T07:40:48.753Z</time></trkpt><trkpt lat="41.09282450150325" lon="9.23813216890653"><ele>86.66666666666666</ele><time>2026-04-26T07:40:49.753Z</time></trkpt><trkpt lat="41.09271793208843" lon="9.23789602662823"><ele>88.0</ele><time>2026-04-26T07:40:50.753Z</time></trkpt><trkpt lat="41.09259593735627" lon="9.237658488158976"><ele>88.0</ele><time>2026-04-26T07:40:51.753Z</time></trkpt><trkpt lat="41.092456493482025" lon="9.237430107924347"><ele>88.0</ele><time>2026-04-26T07:40:52.753Z</time></trkpt><trkpt lat="41.09231331912025" lon="9.237194272234609"><ele>87.5</ele><time>2026-04-26T07:40:53.753Z</time></trkpt><trkpt lat="41.092174005238796" lon="9.236945404603729"><ele>87.0</ele><time>2026-04-26T07:40:54.752Z</time></trkpt><trkpt lat="41.092034320123545" lon="9.236703040344919"><ele>88.0</ele><time>2026-04-26T07:40:55.752Z</time></trkpt><trkpt lat="41.091884746864444" lon="9.236460141872225"><ele>89.0</ele><time>2026-04-26T07:40:56.752Z</time></trkpt><trkpt lat="41.091722177387105" lon="9.23622980459681"><ele>88.0</ele><time>2026-04-26T07:40:57.752Z</time></trkpt><trkpt lat="41.091546623817614" lon="9.236011061536097"><ele>87.0</ele><time>2026-04-26T07:40:58.752Z</time></trkpt><trkpt lat="41.09136187227202" lon="9.235801924461084"><ele>87.0</ele><time>2026-04-26T07:40:59.752Z</time></trkpt><trkpt lat="41.091180892304706" lon="9.23558890057411"><ele>87.0</ele><time>2026-04-26T07:41:00.752Z</time></trkpt><trkpt lat="41.09100001554155" lon="9.235372417669243"><ele>87.0</ele><time>2026-04-26T07:41:01.752Z</time></trkpt><trkpt lat="41.090829741889735" lon="9.235157484301839"><ele>87.0</ele><time>2026-04-26T07:41:02.752Z</time></trkpt><trkpt lat="41.09066127799544" lon="9.234948447043624"><ele>87.0</ele><time>2026-04-26T07:41:03.752Z</time></trkpt><trkpt lat="41.09050341430844" lon="9.23473496497589"><ele>87.0</ele><time>2026-04-26T07:41:04.752Z</time></trkpt><trkpt lat="41.09035302359083" lon="9.234504142427395"><ele>87.0</ele><time>2026-04-26T07:41:05.752Z</time></trkpt><trkpt lat="41.09021304621616" lon="9.234262894999098"><ele>87.0</ele><time>2026-04-26T07:41:06.752Z</time></trkpt><trkpt lat="41.09007661904778" lon="9.234010283721558"><ele>86.5</ele><time>2026-04-26T07:41:07.752Z</time></trkpt><trkpt lat="41.08993883819015" lon="9.233763956455368"><ele>86.0</ele><time>2026-04-26T07:41:08.752Z</time></trkpt><trkpt lat="41.089801084765014" lon="9.233520302710682"><ele>86.0</ele><time>2026-04-26T07:41:09.752Z</time></trkpt><trkpt lat="41.08966931012187" lon="9.233283544880317"><ele>86.0</ele><time>2026-04-26T07:41:10.752Z</time></trkpt><trkpt lat="41.08953544345398" lon="9.233045026948709"><ele>86.0</ele><time>2026-04-26T07:41:11.751Z</time></trkpt><trkpt lat="41.089391891932166" lon="9.232838303017655"><ele>87.33333333333334</ele><time>2026-04-26T07:41:12.751Z</time></trkpt><trkpt lat="41.08921994636819" lon="9.23266815380502"><ele>88.66666666666667</ele><time>2026-04-26T07:41:13.751Z</time></trkpt><trkpt lat="41.089032263822745" lon="9.232524409297094"><ele>90.0</ele><time>2026-04-26T07:41:14.751Z</time></trkpt><trkpt lat="41.08886277053638" lon="9.23235096343351"><ele>90.5</ele><time>2026-04-26T07:41:15.751Z</time></trkpt><trkpt lat="41.088693687173524" lon="9.232139334067465"><ele>91.0</ele><time>2026-04-26T07:41:16.751Z</time></trkpt><trkpt lat="41.08853640330773" lon="9.23193107138798"><ele>91.0</ele><time>2026-04-26T07:41:17.751Z</time></trkpt><trkpt lat="41.08836624342373" lon="9.231718069402865"><ele>91.0</ele><time>2026-04-26T07:41:18.751Z</time></trkpt><trkpt lat="41.08819285811405" lon="9.231501698327074"><ele>91.5</ele><time>2026-04-26T07:41:19.751Z</time></trkpt><trkpt lat="41.088018985495005" lon="9.231286327329185"><ele>92.0</ele><time>2026-04-26T07:41:20.751Z</time></trkpt><trkpt lat="41.08784373375345" lon="9.231066706524793"><ele>92.0</ele><time>2026-04-26T07:41:21.751Z</time></trkpt><trkpt lat="41.087667707795354" lon="9.230842718783094"><ele>92.0</ele><time>2026-04-26T07:41:22.751Z</time></trkpt><trkpt lat="41.08749669297243" lon="9.230622300673902"><ele>91.66666666666667</ele><time>2026-04-26T07:41:23.751Z</time></trkpt><trkpt lat="41.08733026953791" lon="9.230419607814397"><ele>91.33333333333333</ele><time>2026-04-26T07:41:24.751Z</time></trkpt><trkpt lat="41.08717964492153" lon="9.2302402847921"><ele>91.0</ele><time>2026-04-26T07:41:25.751Z</time></trkpt><trkpt lat="41.087043571109795" lon="9.230058187052284"><ele>91.0</ele><time>2026-04-26T07:41:26.751Z</time></trkpt><trkpt lat="41.08690659168099" lon="9.229878462176956"><ele>91.0</ele><time>2026-04-26T07:41:27.751Z</time></trkpt><trkpt lat="41.086782583603465" lon="9.229670080680014"><ele>91.0</ele><time>2026-04-26T07:41:28.75Z</time></trkpt><trkpt lat="41.08669095197549" lon="9.229422547531348"><ele>91.33333333333333</ele><time>2026-04-26T07:41:29.75Z</time></trkpt><trkpt lat="41.086617264830366" lon="9.229155163526343"><ele>91.66666666666667</ele><time>2026-04-26T07:41:30.75Z</time></trkpt><trkpt lat="41.086552823856394" lon="9.228877383777537"><ele>92.0</ele><time>2026-04-26T07:41:31.75Z</time></trkpt><trkpt lat="41.08646108361447" lon="9.228621356442297"><ele>92.5</ele><time>2026-04-26T07:41:32.75Z</time></trkpt><trkpt lat="41.086351094647796" lon="9.228358094520358"><ele>93.0</ele><time>2026-04-26T07:41:33.75Z</time></trkpt><trkpt lat="41.086203981801305" lon="9.228120538061088"><ele>93.0</ele><time>2026-04-26T07:41:34.75Z</time></trkpt><trkpt lat="41.08603386082056" lon="9.22790991883601"><ele>93.0</ele><time>2026-04-26T07:41:35.75Z</time></trkpt><trkpt lat="41.085868885626454" lon="9.227684314942943"><ele>93.5</ele><time>2026-04-26T07:41:36.75Z</time></trkpt><trkpt lat="41.085700803573474" lon="9.227448657194206"><ele>94.0</ele><time>2026-04-26T07:41:37.75Z</time></trkpt><trkpt lat="41.08553144844921" lon="9.227209928083113"><ele>94.0</ele><time>2026-04-26T07:41:38.75Z</time></trkpt><trkpt lat="41.085357010119516" lon="9.226970137899078"><ele>94.0</ele><time>2026-04-26T07:41:39.75Z</time></trkpt><trkpt lat="41.08518407530872" lon="9.226734225849496"><ele>94.0</ele><time>2026-04-26T07:41:40.75Z</time></trkpt><trkpt lat="41.0850143583434" lon="9.22649674075509"><ele>94.0</ele><time>2026-04-26T07:41:41.75Z</time></trkpt><trkpt lat="41.08484261059239" lon="9.226261325169931"><ele>93.5</ele><time>2026-04-26T07:41:42.75Z</time></trkpt><trkpt lat="41.08466983933131" lon="9.22601905439616"><ele>93.0</ele><time>2026-04-26T07:41:43.75Z</time></trkpt><trkpt lat="41.08449736481091" lon="9.225775762088066"><ele>93.5</ele><time>2026-04-26T07:41:44.75Z</time></trkpt><trkpt lat="41.08432394547934" lon="9.225528893104435"><ele>94.0</ele><time>2026-04-26T07:41:45.749Z</time></trkpt><trkpt lat="41.08414554618712" lon="9.225285193442467"><ele>94.5</ele><time>2026-04-26T07:41:46.749Z</time></trkpt><trkpt lat="41.08396520120981" lon="9.225032927480386"><ele>95.0</ele><time>2026-04-26T07:41:47.749Z</time></trkpt><trkpt lat="41.08379216225976" lon="9.224783927904861"><ele>95.5</ele><time>2026-04-26T07:41:48.749Z</time></trkpt><trkpt lat="41.0836202443364" lon="9.224520679011551"><ele>96.0</ele><time>2026-04-26T07:41:49.749Z</time></trkpt><trkpt lat="41.08343089708752" lon="9.224284386021617"><ele>97.0</ele><time>2026-04-26T07:41:50.749Z</time></trkpt><trkpt lat="41.083254073325534" lon="9.224028710024136"><ele>98.0</ele><time>2026-04-26T07:41:51.749Z</time></trkpt><trkpt lat="41.08307527411302" lon="9.22377631418615"><ele>98.5</ele><time>2026-04-26T07:41:52.749Z</time></trkpt><trkpt lat="41.0828940052362" lon="9.223520406489353"><ele>99.0</ele><time>2026-04-26T07:41:53.749Z</time></trkpt><trkpt lat="41.082715234139286" lon="9.22326439041625"><ele>99.0</ele><time>2026-04-26T07:41:54.749Z</time></trkpt><trkpt lat="41.08253734889677" lon="9.223004486721951"><ele>99.0</ele><time>2026-04-26T07:41:55.749Z</time></trkpt><trkpt lat="41.08236189025935" lon="9.222750642128071"><ele>98.5</ele><time>2026-04-26T07:41:56.75Z</time></trkpt><trkpt lat="41.08219498035625" lon="9.222479374276487"><ele>98.0</ele><time>2026-04-26T07:41:57.75Z</time></trkpt><trkpt lat="41.08202912026119" lon="9.222227997351894"><ele>98.0</ele><time>2026-04-26T07:41:58.75Z</time></trkpt><trkpt lat="41.08184562759668" lon="9.221976107301353"><ele>98.0</ele><time>2026-04-26T07:41:59.75Z</time></trkpt><trkpt lat="41.08165614668703" lon="9.221746825814867"><ele>98.0</ele><time>2026-04-26T07:42:00.75Z</time></trkpt><trkpt lat="41.08146893545161" lon="9.221512621608898"><ele>98.0</ele><time>2026-04-26T07:42:01.75Z</time></trkpt><trkpt lat="41.08128444109894" lon="9.221284721956323"><ele>98.0</ele><time>2026-04-26T07:42:02.75Z</time></trkpt><trkpt lat="41.08109696515443" lon="9.221052113538539"><ele>98.0</ele><time>2026-04-26T07:42:03.749Z</time></trkpt><trkpt lat="41.08090818581493" lon="9.22083095394775"><ele>98.0</ele><time>2026-04-26T07:42:04.749Z</time></trkpt><trkpt lat="41.080734662452386" lon="9.220588372672406"><ele>98.0</ele><time>2026-04-26T07:42:05.75Z</time></trkpt><trkpt lat="41.08054712898563" lon="9.220372170938806"><ele>98.0</ele><time>2026-04-26T07:42:06.749Z</time></trkpt><trkpt lat="41.080366360894146" lon="9.220154895232325"><ele>98.0</ele><time>2026-04-26T07:42:07.749Z</time></trkpt><trkpt lat="41.08020690223105" lon="9.21990996738521"><ele>98.5</ele><time>2026-04-26T07:42:08.749Z</time></trkpt><trkpt lat="41.080039880463104" lon="9.219684249166706"><ele>99.0</ele><time>2026-04-26T07:42:09.75Z</time></trkpt><trkpt lat="41.07987309908031" lon="9.219485114444236"><ele>99.0</ele><time>2026-04-26T07:42:10.75Z</time></trkpt><trkpt lat="41.079741631593" lon="9.219267510348216"><ele>99.0</ele><time>2026-04-26T07:42:11.749Z</time></trkpt><trkpt lat="41.07962634811968" lon="9.219071934279057"><ele>99.0</ele><time>2026-04-26T07:42:12.749Z</time></trkpt><trkpt lat="41.07954366215971" lon="9.218869359937734"><ele>99.0</ele><time>2026-04-26T07:42:13.749Z</time></trkpt><trkpt lat="41.07949129742719" lon="9.218639108155186"><ele>99.0</ele><time>2026-04-26T07:42:14.749Z</time></trkpt><trkpt lat="41.07947694399073" lon="9.218387889371442"><ele>99.0</ele><time>2026-04-26T07:42:15.749Z</time></trkpt><trkpt lat="41.0794651425132" lon="9.218121724410539"><ele>100.66666666666666</ele><time>2026-04-26T07:42:16.749Z</time></trkpt><trkpt lat="41.079458273200785" lon="9.217854820195855"><ele>102.33333333333333</ele><time>2026-04-26T07:42:17.749Z</time></trkpt><trkpt lat="41.0794052473144" lon="9.217603981410136"><ele>104.0</ele><time>2026-04-26T07:42:18.749Z</time></trkpt><trkpt lat="41.07932873581344" lon="9.21733798483067"><ele>103.66666666666666</ele><time>2026-04-26T07:42:19.749Z</time></trkpt><trkpt lat="41.0792321504368" lon="9.217109283959267"><ele>103.33333333333334</ele><time>2026-04-26T07:42:20.749Z</time></trkpt><trkpt lat="41.07908682970565" lon="9.216907062157867"><ele>103.0</ele><time>2026-04-26T07:42:21.749Z</time></trkpt><trkpt lat="41.07892396997168" lon="9.216724807614792"><ele>103.0</ele><time>2026-04-26T07:42:22.749Z</time></trkpt><trkpt lat="41.078763010657774" lon="9.21653450428631"><ele>103.0</ele><time>2026-04-26T07:42:23.749Z</time></trkpt><trkpt lat="41.078591945577024" lon="9.216377352247733"><ele>103.0</ele><time>2026-04-26T07:42:24.749Z</time></trkpt><trkpt lat="41.07839679649679" lon="9.216283772840988"><ele>104.0</ele><time>2026-04-26T07:42:25.749Z</time></trkpt><trkpt lat="41.07818570081204" lon="9.216222600695646"><ele>105.0</ele><time>2026-04-26T07:42:26.749Z</time></trkpt><trkpt lat="41.07799294943756" lon="9.216094140726732"><ele>106.0</ele><time>2026-04-26T07:42:27.749Z</time></trkpt><trkpt lat="41.07782782488114" lon="9.215925111620141"><ele>106.0</ele><time>2026-04-26T07:42:28.748Z</time></trkpt><trkpt lat="41.07766143208286" lon="9.21574265073298"><ele>106.0</ele><time>2026-04-26T07:42:29.748Z</time></trkpt><trkpt lat="41.0775223636437" lon="9.215530985982236"><ele>106.0</ele><time>2026-04-26T07:42:30.748Z</time></trkpt><trkpt lat="41.07739043782367" lon="9.215341183901725"><ele>106.33333333333334</ele><time>2026-04-26T07:42:31.748Z</time></trkpt><trkpt lat="41.07726172833091" lon="9.215189427162539"><ele>106.66666666666666</ele><time>2026-04-26T07:42:32.748Z</time></trkpt><trkpt lat="41.07711534017989" lon="9.215102773619522"><ele>107.0</ele><time>2026-04-26T07:42:33.748Z</time></trkpt><trkpt lat="41.07694680053496" lon="9.215094867351894"><ele>107.0</ele><time>2026-04-26T07:42:34.748Z</time></trkpt><trkpt lat="41.07676679106824" lon="9.21517530720375"><ele>107.0</ele><time>2026-04-26T07:42:35.748Z</time></trkpt><trkpt lat="41.07658199280553" lon="9.215253249804448"><ele>107.0</ele><time>2026-04-26T07:42:36.748Z</time></trkpt><trkpt lat="41.076396429827575" lon="9.215217821320058"><ele>107.0</ele><time>2026-04-26T07:42:37.748Z</time></trkpt><trkpt lat="41.07625086268001" lon="9.215158389854198"><ele>107.0</ele><time>2026-04-26T07:42:38.748Z</time></trkpt><trkpt lat="41.07613982543817" lon="9.215043329500066"><ele>107.0</ele><time>2026-04-26T07:42:39.748Z</time></trkpt><trkpt lat="41.076068509702324" lon="9.214872301635792"><ele>107.0</ele><time>2026-04-26T07:42:40.748Z</time></trkpt><trkpt lat="41.07601092979881" lon="9.214660203099138"><ele>107.0</ele><time>2026-04-26T07:42:41.748Z</time></trkpt><trkpt lat="41.07596274185121" lon="9.21442480580056"><ele>107.0</ele><time>2026-04-26T07:42:42.748Z</time></trkpt><trkpt lat="41.07592401051362" lon="9.21416753337736"><ele>107.0</ele><time>2026-04-26T07:42:43.748Z</time></trkpt><trkpt lat="41.075886912241636" lon="9.213892518981876"><ele>107.33333333333333</ele><time>2026-04-26T07:42:44.748Z</time></trkpt><trkpt lat="41.07585199888691" lon="9.213627413294207"><ele>107.66666666666666</ele><time>2026-04-26T07:42:45.747Z</time></trkpt><trkpt lat="41.07581433244501" lon="9.21339001520878"><ele>108.0</ele><time>2026-04-26T07:42:46.747Z</time></trkpt><trkpt lat="41.07573653806593" lon="9.213184720948568"><ele>109.33333333333334</ele><time>2026-04-26T07:42:47.747Z</time></trkpt><trkpt lat="41.07560795096934" lon="9.213029353120785"><ele>110.66666666666667</ele><time>2026-04-26T07:42:48.747Z</time></trkpt><trkpt lat="41.0754369948247" lon="9.212913326931783"><ele>112.0</ele><time>2026-04-26T07:42:49.747Z</time></trkpt><trkpt lat="41.075250029162916" lon="9.212799550676447"><ele>112.0</ele><time>2026-04-26T07:42:50.747Z</time></trkpt><trkpt lat="41.0750548366829" lon="9.212678992664582"><ele>112.0</ele><time>2026-04-26T07:42:51.747Z</time></trkpt><trkpt lat="41.074857066875836" lon="9.212564277010108"><ele>112.0</ele><time>2026-04-26T07:42:52.747Z</time></trkpt><trkpt lat="41.07466232130738" lon="9.212384456343141"><ele>114.0</ele><time>2026-04-26T07:42:53.747Z</time></trkpt><trkpt lat="41.074449859389475" lon="9.212218329882234"><ele>116.0</ele><time>2026-04-26T07:42:54.747Z</time></trkpt><trkpt lat="41.074238361085676" lon="9.212033223982957"><ele>113.0</ele><time>2026-04-26T07:42:55.747Z</time></trkpt><trkpt lat="41.074021011956056" lon="9.21184972777527"><ele>110.0</ele><time>2026-04-26T07:42:56.747Z</time></trkpt><trkpt lat="41.07379019573833" lon="9.211718677576448"><ele>110.0</ele><time>2026-04-26T07:42:57.747Z</time></trkpt><trkpt lat="41.07357952818632" lon="9.211614146092481"><ele>110.0</ele><time>2026-04-26T07:42:58.747Z</time></trkpt><trkpt lat="41.073396086203026" lon="9.211512885809945"><ele>110.0</ele><time>2026-04-26T07:42:59.747Z</time></trkpt><trkpt lat="41.07324162111222" lon="9.211393741227708"><ele>110.0</ele><time>2026-04-26T07:43:00.747Z</time></trkpt><trkpt lat="41.073117117794325" lon="9.211197573549855"><ele>110.0</ele><time>2026-04-26T07:43:01.747Z</time></trkpt><trkpt lat="41.07296988870139" lon="9.210972745950198"><ele>110.0</ele><time>2026-04-26T07:43:02.746Z</time></trkpt><trkpt lat="41.0728373475603" lon="9.210734469556868"><ele>111.33333333333333</ele><time>2026-04-26T07:43:03.746Z</time></trkpt><trkpt lat="41.07271915067988" lon="9.210519576377026"><ele>112.66666666666666</ele><time>2026-04-26T07:43:04.746Z</time></trkpt><trkpt lat="41.072588688646384" lon="9.210335843848021"><ele>114.0</ele><time>2026-04-26T07:43:05.746Z</time></trkpt><trkpt lat="41.072405310774414" lon="9.210223837334489"><ele>115.0</ele><time>2026-04-26T07:43:06.746Z</time></trkpt><trkpt lat="41.07219375717427" lon="9.21020678725012"><ele>116.0</ele><time>2026-04-26T07:43:07.746Z</time></trkpt><trkpt lat="41.07198072064147" lon="9.210227355175531"><ele>117.0</ele><time>2026-04-26T07:43:08.746Z</time></trkpt><trkpt lat="41.07177769596234" lon="9.210250362274087"><ele>119.0</ele><time>2026-04-26T07:43:09.746Z</time></trkpt><trkpt lat="41.071552877235405" lon="9.21029346238557"><ele>121.0</ele><time>2026-04-26T07:43:10.746Z</time></trkpt><trkpt lat="41.07134569738761" lon="9.210399422644919"><ele>123.0</ele><time>2026-04-26T07:43:11.746Z</time></trkpt><trkpt lat="41.07113404792518" lon="9.210535819975862"><ele>123.0</ele><time>2026-04-26T07:43:12.746Z</time></trkpt><trkpt lat="41.07093292442712" lon="9.210640682286162"><ele>123.0</ele><time>2026-04-26T07:43:13.746Z</time></trkpt><trkpt lat="41.070757405843196" lon="9.210691395256312"><ele>123.0</ele><time>2026-04-26T07:43:14.746Z</time></trkpt><trkpt lat="41.070549210955775" lon="9.210715115979024"><ele>122.33333333333334</ele><time>2026-04-26T07:43:15.746Z</time></trkpt><trkpt lat="41.07032019822715" lon="9.210740424712226"><ele>121.66666666666667</ele><time>2026-04-26T07:43:16.746Z</time></trkpt><trkpt lat="41.070101715824386" lon="9.210763374702154"><ele>121.0</ele><time>2026-04-26T07:43:17.746Z</time></trkpt><trkpt lat="41.069902005481026" lon="9.210772853936238"><ele>121.0</ele><time>2026-04-26T07:43:18.746Z</time></trkpt><trkpt lat="41.069719727445886" lon="9.210726362094805"><ele>121.0</ele><time>2026-04-26T07:43:19.745Z</time></trkpt><trkpt lat="41.06954694992812" lon="9.210625520046392"><ele>121.0</ele><time>2026-04-26T07:43:20.745Z</time></trkpt><trkpt lat="41.06937099606238" lon="9.210480559710351"><ele>121.5</ele><time>2026-04-26T07:43:21.745Z</time></trkpt><trkpt lat="41.06918390338512" lon="9.21031095465265"><ele>122.0</ele><time>2026-04-26T07:43:22.745Z</time></trkpt><trkpt lat="41.06899376239937" lon="9.210130834801522"><ele>121.33333333333333</ele><time>2026-04-26T07:43:23.745Z</time></trkpt><trkpt lat="41.068808312094674" lon="9.2099670978133"><ele>120.66666666666666</ele><time>2026-04-26T07:43:24.745Z</time></trkpt><trkpt lat="41.06864268450389" lon="9.209804355168144"><ele>120.0</ele><time>2026-04-26T07:43:25.745Z</time></trkpt><trkpt lat="41.06847045106878" lon="9.209679444329817"><ele>122.0</ele><time>2026-04-26T07:43:26.745Z</time></trkpt><trkpt lat="41.06826127849671" lon="9.209635040574124"><ele>124.0</ele><time>2026-04-26T07:43:27.745Z</time></trkpt><trkpt lat="41.06803820687137" lon="9.209620504301009"><ele>126.0</ele><time>2026-04-26T07:43:28.745Z</time></trkpt><trkpt lat="41.06781242492485" lon="9.209605851074002"><ele>126.0</ele><time>2026-04-26T07:43:29.745Z</time></trkpt><trkpt lat="41.06759413274021" lon="9.209554612956108"><ele>126.0</ele><time>2026-04-26T07:43:30.745Z</time></trkpt><trkpt lat="41.06739997627515" lon="9.209497632079998"><ele>126.0</ele><time>2026-04-26T07:43:31.745Z</time></trkpt><trkpt lat="41.06723366277821" lon="9.209373041577285"><ele>126.66666666666666</ele><time>2026-04-26T07:43:32.745Z</time></trkpt><trkpt lat="41.06706795939282" lon="9.209175951603111"><ele>127.33333333333333</ele><time>2026-04-26T07:43:33.745Z</time></trkpt><trkpt lat="41.06692208550676" lon="9.20895308301014"><ele>128.0</ele><time>2026-04-26T07:43:34.745Z</time></trkpt><trkpt lat="41.066786742788295" lon="9.208725557595368"><ele>128.0</ele><time>2026-04-26T07:43:35.745Z</time></trkpt><trkpt lat="41.06668494165554" lon="9.208513641214626"><ele>128.0</ele><time>2026-04-26T07:43:36.744Z</time></trkpt><trkpt lat="41.06663504978179" lon="9.208252127060472"><ele>128.0</ele><time>2026-04-26T07:43:37.744Z</time></trkpt><trkpt lat="41.066607628454975" lon="9.207974228037846"><ele>129.6</ele><time>2026-04-26T07:43:38.744Z</time></trkpt><trkpt lat="41.06656313990367" lon="9.20776428524795"><ele>131.20000000000002</ele><time>2026-04-26T07:43:39.744Z</time></trkpt><trkpt lat="41.06647384643614" lon="9.20772252429271"><ele>132.8</ele><time>2026-04-26T07:43:40.744Z</time></trkpt><trkpt lat="41.06638388525498" lon="9.207659368514614"><ele>134.4</ele><time>2026-04-26T07:43:41.744Z</time></trkpt><trkpt lat="41.06629677197929" lon="9.207656134893263"><ele>136.0</ele><time>2026-04-26T07:43:42.744Z</time></trkpt><trkpt lat="41.06613119484778" lon="9.207673056584548"><ele>136.0</ele><time>2026-04-26T07:43:43.744Z</time></trkpt><trkpt lat="41.06593179144694" lon="9.207710067442704"><ele>136.0</ele><time>2026-04-26T07:43:44.744Z</time></trkpt><trkpt lat="41.06578288890215" lon="9.207736622699134"><ele>136.0</ele><time>2026-04-26T07:43:45.744Z</time></trkpt><trkpt lat="41.06534458325951" lon="9.207737927082139"><ele>135.66666666666669</ele><time>2026-04-26T07:43:46.744Z</time></trkpt><trkpt lat="41.06529964227546" lon="9.207551737719328"><ele>135.33333333333334</ele><time>2026-04-26T07:43:47.744Z</time></trkpt><trkpt lat="41.06520767059356" lon="9.20731536701812"><ele>135.0</ele><time>2026-04-26T07:43:48.744Z</time></trkpt><trkpt lat="41.065047394591964" lon="9.20707064188025"><ele>139.0</ele><time>2026-04-26T07:43:49.744Z</time></trkpt><trkpt lat="41.064856228084786" lon="9.206797837180302"><ele>143.0</ele><time>2026-04-26T07:43:50.744Z</time></trkpt><trkpt lat="41.06466913164417" lon="9.206579171395127"><ele>145.0</ele><time>2026-04-26T07:43:51.744Z</time></trkpt><trkpt lat="41.06447216176097" lon="9.20642553331641"><ele>147.0</ele><time>2026-04-26T07:43:52.744Z</time></trkpt><trkpt lat="41.06426713718718" lon="9.20642727624043"><ele>149.0</ele><time>2026-04-26T07:43:53.743Z</time></trkpt><trkpt lat="41.064071383354076" lon="9.20645854256692"><ele>149.0</ele><time>2026-04-26T07:43:54.743Z</time></trkpt><trkpt lat="41.06392523285318" lon="9.206337483403175"><ele>149.0</ele><time>2026-04-26T07:43:55.743Z</time></trkpt><trkpt lat="41.06385480773987" lon="9.206175442410638"><ele>149.0</ele><time>2026-04-26T07:43:56.743Z</time></trkpt><trkpt lat="41.063856968570256" lon="9.205974324741005"><ele>149.0</ele><time>2026-04-26T07:43:57.743Z</time></trkpt><trkpt lat="41.063885172031355" lon="9.205749368440506"><ele>149.0</ele><time>2026-04-26T07:43:58.743Z</time></trkpt><trkpt lat="41.06392147455262" lon="9.205463265913272"><ele>149.0</ele><time>2026-04-26T07:43:59.743Z</time></trkpt><trkpt lat="41.063946816322066" lon="9.205105680287247"><ele>152.0</ele><time>2026-04-26T07:44:00.743Z</time></trkpt><trkpt lat="41.063956658008244" lon="9.204826705462745"><ele>155.0</ele><time>2026-04-26T07:44:01.743Z</time></trkpt><trkpt lat="41.06392437999899" lon="9.204562104885932"><ele>158.0</ele><time>2026-04-26T07:44:02.744Z</time></trkpt><trkpt lat="41.06387189013755" lon="9.204338046995366"><ele>158.0</ele><time>2026-04-26T07:44:03.744Z</time></trkpt><trkpt lat="41.06374325226551" lon="9.204118959274641"><ele>158.0</ele><time>2026-04-26T07:44:04.744Z</time></trkpt><trkpt lat="41.06356766523401" lon="9.203867874461269"><ele>159.5</ele><time>2026-04-26T07:44:05.745Z</time></trkpt><trkpt lat="41.0634130756956" lon="9.203599161704627"><ele>161.0</ele><time>2026-04-26T07:44:06.745Z</time></trkpt><trkpt lat="41.06327786517061" lon="9.203351305052475"><ele>161.33333333333331</ele><time>2026-04-26T07:44:07.744Z</time></trkpt><trkpt lat="41.06313135805233" lon="9.203122218442058"><ele>161.66666666666666</ele><time>2026-04-26T07:44:08.744Z</time></trkpt><trkpt lat="41.06298264434473" lon="9.202951681037066"><ele>162.0</ele><time>2026-04-26T07:44:09.744Z</time></trkpt><trkpt lat="41.06280280500992" lon="9.202771089011444"><ele>162.0</ele><time>2026-04-26T07:44:10.744Z</time></trkpt><trkpt lat="41.06262395758821" lon="9.202592452516592"><ele>162.0</ele><time>2026-04-26T07:44:11.744Z</time></trkpt><trkpt lat="41.06244220083286" lon="9.202376974219597"><ele>162.0</ele><time>2026-04-26T07:44:12.744Z</time></trkpt><trkpt lat="41.06226370580521" lon="9.20217951739038"><ele>162.0</ele><time>2026-04-26T07:44:13.744Z</time></trkpt><trkpt lat="41.06207305381283" lon="9.202009490036998"><ele>162.0</ele><time>2026-04-26T07:44:14.743Z</time></trkpt><trkpt lat="41.061866050638265" lon="9.201826798568773"><ele>162.0</ele><time>2026-04-26T07:44:15.744Z</time></trkpt><trkpt lat="41.061657942340055" lon="9.20165662208363"><ele>162.0</ele><time>2026-04-26T07:44:16.744Z</time></trkpt><trkpt lat="41.06144173101603" lon="9.201479419479497"><ele>162.0</ele><time>2026-04-26T07:44:17.744Z</time></trkpt><trkpt lat="41.061222730443134" lon="9.201293409390063"><ele>162.0</ele><time>2026-04-26T07:44:18.744Z</time></trkpt><trkpt lat="41.061010196372195" lon="9.20111625222793"><ele>162.0</ele><time>2026-04-26T07:44:19.744Z</time></trkpt><trkpt lat="41.0608082860187" lon="9.200959162326393"><ele>165.0</ele><time>2026-04-26T07:44:20.744Z</time></trkpt><trkpt lat="41.06057745455586" lon="9.200851322495174"><ele>168.0</ele><time>2026-04-26T07:44:21.743Z</time></trkpt><trkpt lat="41.06035870578762" lon="9.2007597341947"><ele>168.0</ele><time>2026-04-26T07:44:22.743Z</time></trkpt><trkpt lat="41.060128101265356" lon="9.200700163410062"><ele>168.0</ele><time>2026-04-26T07:44:23.743Z</time></trkpt><trkpt lat="41.05989530266105" lon="9.200665801843979"><ele>160.0</ele><time>2026-04-26T07:44:24.743Z</time></trkpt><trkpt lat="41.059653541256154" lon="9.20064114503438"><ele>152.0</ele><time>2026-04-26T07:44:25.743Z</time></trkpt><trkpt lat="41.05942291635635" lon="9.200616053756034"><ele>152.0</ele><time>2026-04-26T07:44:26.743Z</time></trkpt><trkpt lat="41.05920738765711" lon="9.20059059352218"><ele>152.0</ele><time>2026-04-26T07:44:27.743Z</time></trkpt><trkpt lat="41.05899182173028" lon="9.2006255475155"><ele>152.0</ele><time>2026-04-26T07:44:28.743Z</time></trkpt><trkpt lat="41.058797086868005" lon="9.200705034329959"><ele>155.75</ele><time>2026-04-26T07:44:29.743Z</time></trkpt><trkpt lat="41.05863240241363" lon="9.200731078599107"><ele>159.5</ele><time>2026-04-26T07:44:30.743Z</time></trkpt><trkpt lat="41.058510823589195" lon="9.200665750592243"><ele>163.25</ele><time>2026-04-26T07:44:31.743Z</time></trkpt><trkpt lat="41.058437077835585" lon="9.200545200727262"><ele>167.0</ele><time>2026-04-26T07:44:32.743Z</time></trkpt><trkpt lat="41.058388245673775" lon="9.200364046813924"><ele>170.33333333333331</ele><time>2026-04-26T07:44:33.743Z</time></trkpt><trkpt lat="41.058275559392975" lon="9.200219161940105"><ele>173.66666666666666</ele><time>2026-04-26T07:44:34.743Z</time></trkpt><trkpt lat="41.058147840667374" lon="9.200098588680664"><ele>177.0</ele><time>2026-04-26T07:44:35.743Z</time></trkpt><trkpt lat="41.05797399983212" lon="9.200097590174005"><ele>177.0</ele><time>2026-04-26T07:44:36.743Z</time></trkpt><trkpt lat="41.057807793198855" lon="9.200132683879149"><ele>177.0</ele><time>2026-04-26T07:44:37.743Z</time></trkpt><trkpt lat="41.05769735563604" lon="9.200125135581741"><ele>177.0</ele><time>2026-04-26T07:44:38.742Z</time></trkpt><trkpt lat="41.05762866311392" lon="9.200128091030415"><ele>177.0</ele><time>2026-04-26T07:44:39.742Z</time></trkpt><trkpt lat="41.05753201336314" lon="9.199697717577655"><ele>178.66666666666666</ele><time>2026-04-26T07:44:40.742Z</time></trkpt><trkpt lat="41.05739893277667" lon="9.199522436158892"><ele>180.33333333333331</ele><time>2026-04-26T07:44:41.742Z</time></trkpt><trkpt lat="41.057235329685305" lon="9.199332402148226"><ele>182.0</ele><time>2026-04-26T07:44:42.742Z</time></trkpt><trkpt lat="41.05706244280859" lon="9.199139304157828"><ele>179.0</ele><time>2026-04-26T07:44:43.742Z</time></trkpt><trkpt lat="41.05690037207771" lon="9.19895568095041"><ele>176.0</ele><time>2026-04-26T07:44:44.742Z</time></trkpt><trkpt lat="41.05671821504897" lon="9.19879451610665"><ele>173.0</ele><time>2026-04-26T07:44:45.742Z</time></trkpt><trkpt lat="41.05652276148134" lon="9.198652609415737"><ele>173.0</ele><time>2026-04-26T07:44:46.742Z</time></trkpt><trkpt lat="41.05632143349324" lon="9.198513766950477"><ele>173.0</ele><time>2026-04-26T07:44:47.742Z</time></trkpt><trkpt lat="41.05613198190477" lon="9.198375273783613"><ele>173.0</ele><time>2026-04-26T07:44:48.742Z</time></trkpt><trkpt lat="41.05595929213831" lon="9.19826407322589"><ele>177.0</ele><time>2026-04-26T07:44:49.742Z</time></trkpt><trkpt lat="41.055757814342535" lon="9.198239487417384"><ele>181.0</ele><time>2026-04-26T07:44:50.742Z</time></trkpt><trkpt lat="41.05554906677426" lon="9.198295375318931"><ele>185.0</ele><time>2026-04-26T07:44:51.742Z</time></trkpt><trkpt lat="41.05536185100616" lon="9.198373661831809"><ele>185.0</ele><time>2026-04-26T07:44:52.742Z</time></trkpt><trkpt lat="41.05521515338707" lon="9.198398896080379"><ele>185.0</ele><time>2026-04-26T07:44:53.742Z</time></trkpt><trkpt lat="41.05510712741985" lon="9.198327184496678"><ele>185.0</ele><time>2026-04-26T07:44:54.742Z</time></trkpt><trkpt lat="41.05502668016329" lon="9.198148997708044"><ele>185.0</ele><time>2026-04-26T07:44:55.741Z</time></trkpt><trkpt lat="41.054976261137256" lon="9.197905217812758"><ele>187.66666666666666</ele><time>2026-04-26T07:44:56.741Z</time></trkpt><trkpt lat="41.05489757430637" lon="9.197727326093686"><ele>190.33333333333331</ele><time>2026-04-26T07:44:57.741Z</time></trkpt><trkpt lat="41.054745939312745" lon="9.197611828623454"><ele>193.0</ele><time>2026-04-26T07:44:58.741Z</time></trkpt><trkpt lat="41.0545751957699" lon="9.197500803735034"><ele>188.66666666666666</ele><time>2026-04-26T07:44:59.741Z</time></trkpt><trkpt lat="41.05445571186128" lon="9.197309088403951"><ele>184.33333333333331</ele><time>2026-04-26T07:45:00.741Z</time></trkpt><trkpt lat="41.054411157333526" lon="9.197054209344799"><ele>180.0</ele><time>2026-04-26T07:45:01.741Z</time></trkpt><trkpt lat="41.05436024261481" lon="9.196796028037372"><ele>180.0</ele><time>2026-04-26T07:45:02.741Z</time></trkpt><trkpt lat="41.05428331259382" lon="9.196552096690926"><ele>180.0</ele><time>2026-04-26T07:45:03.741Z</time></trkpt><trkpt lat="41.05420096666158" lon="9.196302696397632"><ele>180.0</ele><time>2026-04-26T07:45:04.741Z</time></trkpt><trkpt lat="41.05411847075511" lon="9.196043038200578"><ele>180.0</ele><time>2026-04-26T07:45:05.741Z</time></trkpt><trkpt lat="41.054042961463104" lon="9.195791754256014"><ele>180.0</ele><time>2026-04-26T07:45:06.741Z</time></trkpt><trkpt lat="41.05397581095988" lon="9.195563969749053"><ele>180.0</ele><time>2026-04-26T07:45:07.741Z</time></trkpt><trkpt lat="41.05391089727743" lon="9.195368908670526"><ele>180.0</ele><time>2026-04-26T07:45:08.741Z</time></trkpt><trkpt lat="41.053818923780725" lon="9.195211955133203"><ele>180.0</ele><time>2026-04-26T07:45:09.741Z</time></trkpt><trkpt lat="41.05370467025689" lon="9.195098975683694"><ele>180.0</ele><time>2026-04-26T07:45:10.741Z</time></trkpt><trkpt lat="41.05357060727506" lon="9.195026907961706"><ele>180.0</ele><time>2026-04-26T07:45:11.741Z</time></trkpt><trkpt lat="41.05341819523153" lon="9.194976401131523"><ele>180.0</ele><time>2026-04-26T07:45:12.74Z</time></trkpt><trkpt lat="41.053244892269156" lon="9.194935427022576"><ele>180.0</ele><time>2026-04-26T07:45:13.74Z</time></trkpt><trkpt lat="41.05305870553946" lon="9.194890210245537"><ele>180.0</ele><time>2026-04-26T07:45:14.74Z</time></trkpt><trkpt lat="41.05286517995672" lon="9.194836332787718"><ele>176.66666666666666</ele><time>2026-04-26T07:45:15.74Z</time></trkpt><trkpt lat="41.05266411053936" lon="9.194783067856898"><ele>173.33333333333331</ele><time>2026-04-26T07:45:16.74Z</time></trkpt><trkpt lat="41.052468113740964" lon="9.194727090272155"><ele>170.0</ele><time>2026-04-26T07:45:17.74Z</time></trkpt><trkpt lat="41.05228285063487" lon="9.19467335807367"><ele>170.0</ele><time>2026-04-26T07:45:18.74Z</time></trkpt><trkpt lat="41.052116243047514" lon="9.194623148111154"><ele>170.0</ele><time>2026-04-26T07:45:19.74Z</time></trkpt><trkpt lat="41.05195788784209" lon="9.194563289121282"><ele>170.0</ele><time>2026-04-26T07:45:20.74Z</time></trkpt><trkpt lat="41.05180627868144" lon="9.194516676092514"><ele>170.0</ele><time>2026-04-26T07:45:21.74Z</time></trkpt><trkpt lat="41.05170412443345" lon="9.194421227420964"><ele>170.0</ele><time>2026-04-26T07:45:22.74Z</time></trkpt><trkpt lat="41.05166945986913" lon="9.194263886110814"><ele>170.0</ele><time>2026-04-26T07:45:23.74Z</time></trkpt><trkpt lat="41.051679491889224" lon="9.19402643139562"><ele>170.0</ele><time>2026-04-26T07:45:24.74Z</time></trkpt><trkpt lat="41.05169377503768" lon="9.19378270815776"><ele>171.33333333333331</ele><time>2026-04-26T07:45:25.74Z</time></trkpt><trkpt lat="41.05168785724514" lon="9.193534305895023"><ele>172.66666666666666</ele><time>2026-04-26T07:45:26.74Z</time></trkpt><trkpt lat="41.051663423440985" lon="9.1932875063285"><ele>174.0</ele><time>2026-04-26T07:45:27.74Z</time></trkpt><trkpt lat="41.051665607484644" lon="9.193038741359404"><ele>174.33333333333334</ele><time>2026-04-26T07:45:28.74Z</time></trkpt><trkpt lat="41.051645316734685" lon="9.192792202198738"><ele>174.66666666666669</ele><time>2026-04-26T07:45:29.739Z</time></trkpt><trkpt lat="41.0516350981136" lon="9.192541230237579"><ele>175.0</ele><time>2026-04-26T07:45:30.739Z</time></trkpt><trkpt lat="41.051630829764534" lon="9.19231530254351"><ele>177.0</ele><time>2026-04-26T07:45:31.739Z</time></trkpt><trkpt lat="41.05159126146768" lon="9.19211020389757"><ele>179.0</ele><time>2026-04-26T07:45:32.739Z</time></trkpt><trkpt lat="41.05149346489446" lon="9.1919389338094"><ele>181.0</ele><time>2026-04-26T07:45:33.739Z</time></trkpt><trkpt lat="41.051357409745286" lon="9.191791685342352"><ele>181.0</ele><time>2026-04-26T07:45:34.739Z</time></trkpt><trkpt lat="41.0512139771434" lon="9.191660226241774"><ele>181.0</ele><time>2026-04-26T07:45:35.739Z</time></trkpt><trkpt lat="41.05108986522547" lon="9.19153397515757"><ele>181.0</ele><time>2026-04-26T07:45:36.739Z</time></trkpt><trkpt lat="41.0509494481275" lon="9.191439129728609"><ele>179.66666666666669</ele><time>2026-04-26T07:45:37.739Z</time></trkpt><trkpt lat="41.050778704233025" lon="9.191374090137087"><ele>178.33333333333334</ele><time>2026-04-26T07:45:38.739Z</time></trkpt><trkpt lat="41.050600863434944" lon="9.19132077748413"><ele>177.0</ele><time>2026-04-26T07:45:39.739Z</time></trkpt><trkpt lat="41.05044161747121" lon="9.19123925943365"><ele>177.0</ele><time>2026-04-26T07:45:40.739Z</time></trkpt><trkpt lat="41.050297266955724" lon="9.191142648342478"><ele>177.0</ele><time>2026-04-26T07:45:41.739Z</time></trkpt><trkpt lat="41.05013879780623" lon="9.191074084541892"><ele>177.0</ele><time>2026-04-26T07:45:42.739Z</time></trkpt><trkpt lat="41.04997195046091" lon="9.191014279653674"><ele>182.0</ele><time>2026-04-26T07:45:43.739Z</time></trkpt><trkpt lat="41.0498111482178" lon="9.190951260680462"><ele>187.0</ele><time>2026-04-26T07:45:44.739Z</time></trkpt><trkpt lat="41.04965187713967" lon="9.190882095801618"><ele>192.0</ele><time>2026-04-26T07:45:45.739Z</time></trkpt><trkpt lat="41.04949112499865" lon="9.19080325244219"><ele>192.0</ele><time>2026-04-26T07:45:46.738Z</time></trkpt><trkpt lat="41.04933763054282" lon="9.190691249435815"><ele>192.0</ele><time>2026-04-26T07:45:47.738Z</time></trkpt><trkpt lat="41.04919714352708" lon="9.190556043898132"><ele>192.0</ele><time>2026-04-26T07:45:48.738Z</time></trkpt><trkpt lat="41.0490606743123" lon="9.190393795872145"><ele>192.33333333333331</ele><time>2026-04-26T07:45:49.738Z</time></trkpt><trkpt lat="41.04892065378285" lon="9.190238295242219"><ele>192.66666666666666</ele><time>2026-04-26T07:45:50.738Z</time></trkpt><trkpt lat="41.048761205459186" lon="9.19009573604977"><ele>193.0</ele><time>2026-04-26T07:45:51.738Z</time></trkpt><trkpt lat="41.048579464062534" lon="9.189966741641536"><ele>193.0</ele><time>2026-04-26T07:45:52.738Z</time></trkpt><trkpt lat="41.04840418898619" lon="9.189849636592408"><ele>193.0</ele><time>2026-04-26T07:45:53.738Z</time></trkpt><trkpt lat="41.04825143467206" lon="9.18968445833497"><ele>193.0</ele><time>2026-04-26T07:45:54.738Z</time></trkpt><trkpt lat="41.048102950771266" lon="9.189499527293407"><ele>193.66666666666666</ele><time>2026-04-26T07:45:55.738Z</time></trkpt><trkpt lat="41.047933737452006" lon="9.189329862011478"><ele>194.33333333333331</ele><time>2026-04-26T07:45:56.738Z</time></trkpt><trkpt lat="41.04774530169485" lon="9.18918064598645"><ele>195.0</ele><time>2026-04-26T07:45:57.738Z</time></trkpt><trkpt lat="41.047555049035516" lon="9.189023341022322"><ele>196.66666666666669</ele><time>2026-04-26T07:45:58.738Z</time></trkpt><trkpt lat="41.0473653399411" lon="9.188876373293475"><ele>198.33333333333334</ele><time>2026-04-26T07:45:59.738Z</time></trkpt><trkpt lat="41.04717156499373" lon="9.188742060059456"><ele>200.0</ele><time>2026-04-26T07:46:00.738Z</time></trkpt><trkpt lat="41.046966635124065" lon="9.188621550518947"><ele>200.0</ele><time>2026-04-26T07:46:01.738Z</time></trkpt><trkpt lat="41.04675924363924" lon="9.18848193413861"><ele>200.0</ele><time>2026-04-26T07:46:02.738Z</time></trkpt><trkpt lat="41.04656902545778" lon="9.188284668412365"><ele>199.5</ele><time>2026-04-26T07:46:03.737Z</time></trkpt><trkpt lat="41.046365483821084" lon="9.188059832868127"><ele>199.0</ele><time>2026-04-26T07:46:04.737Z</time></trkpt><trkpt lat="41.0461730369692" lon="9.18785951996136"><ele>199.0</ele><time>2026-04-26T07:46:05.737Z</time></trkpt><trkpt lat="41.04595506276073" lon="9.187686435620604"><ele>199.0</ele><time>2026-04-26T07:46:06.737Z</time></trkpt><trkpt lat="41.04571555940047" lon="9.187551240126473"><ele>199.0</ele><time>2026-04-26T07:46:07.738Z</time></trkpt><trkpt lat="41.045493845310524" lon="9.187402257978638"><ele>199.0</ele><time>2026-04-26T07:46:08.738Z</time></trkpt><trkpt lat="41.0452776596868" lon="9.187247055342517"><ele>199.0</ele><time>2026-04-26T07:46:09.738Z</time></trkpt><trkpt lat="41.04506086333819" lon="9.187081259561605"><ele>199.0</ele><time>2026-04-26T07:46:10.738Z</time></trkpt><trkpt lat="41.04484447190382" lon="9.186921501819313"><ele>204.5</ele><time>2026-04-26T07:46:11.738Z</time></trkpt><trkpt lat="41.04462608347928" lon="9.186771835162773"><ele>210.0</ele><time>2026-04-26T07:46:12.737Z</time></trkpt><trkpt lat="41.044409291471524" lon="9.186626204500696"><ele>210.0</ele><time>2026-04-26T07:46:13.738Z</time></trkpt><trkpt lat="41.04419662021782" lon="9.186495771904978"><ele>210.0</ele><time>2026-04-26T07:46:14.738Z</time></trkpt><trkpt lat="41.04399838726921" lon="9.186376044517752"><ele>210.0</ele><time>2026-04-26T07:46:15.738Z</time></trkpt><trkpt lat="41.04380509226815" lon="9.186277117375143"><ele>210.0</ele><time>2026-04-26T07:46:16.738Z</time></trkpt><trkpt lat="41.04360322555828" lon="9.186202863707667"><ele>210.0</ele><time>2026-04-26T07:46:17.738Z</time></trkpt><trkpt lat="41.043380386521065" lon="9.186177410288364"><ele>214.5</ele><time>2026-04-26T07:46:18.738Z</time></trkpt><trkpt lat="41.04315003911753" lon="9.186111691451"><ele>219.0</ele><time>2026-04-26T07:46:19.738Z</time></trkpt><trkpt lat="41.04292198709784" lon="9.186015667076356"><ele>219.0</ele><time>2026-04-26T07:46:20.737Z</time></trkpt><trkpt lat="41.04269036105743" lon="9.185922697681523"><ele>219.0</ele><time>2026-04-26T07:46:21.737Z</time></trkpt><trkpt lat="41.04244301969327" lon="9.185857256014765"><ele>225.0</ele><time>2026-04-26T07:46:22.737Z</time></trkpt><trkpt lat="41.042195121546634" lon="9.185813244315582"><ele>231.0</ele><time>2026-04-26T07:46:23.737Z</time></trkpt><trkpt lat="41.04195934445757" lon="9.185718901063463"><ele>227.5</ele><time>2026-04-26T07:46:24.737Z</time></trkpt><trkpt lat="41.04172818306407" lon="9.185586961471842"><ele>224.0</ele><time>2026-04-26T07:46:25.737Z</time></trkpt><trkpt lat="41.04149955127611" lon="9.1854822439373"><ele>224.0</ele><time>2026-04-26T07:46:26.737Z</time></trkpt><trkpt lat="41.04127931129831" lon="9.185380995094391"><ele>224.0</ele><time>2026-04-26T07:46:27.737Z</time></trkpt><trkpt lat="41.0410631553177" lon="9.185276671267548"><ele>224.0</ele><time>2026-04-26T07:46:28.737Z</time></trkpt><trkpt lat="41.04085533342846" lon="9.185176323269644"><ele>224.0</ele><time>2026-04-26T07:46:29.737Z</time></trkpt><trkpt lat="41.040664751870025" lon="9.185085938086733"><ele>224.0</ele><time>2026-04-26T07:46:30.737Z</time></trkpt><trkpt lat="41.04046503899951" lon="9.185005068754673"><ele>226.66666666666669</ele><time>2026-04-26T07:46:31.737Z</time></trkpt><trkpt lat="41.04027991067802" lon="9.18495473598729"><ele>229.33333333333331</ele><time>2026-04-26T07:46:32.737Z</time></trkpt><trkpt lat="41.04008317461478" lon="9.184934251537019"><ele>232.0</ele><time>2026-04-26T07:46:33.737Z</time></trkpt><trkpt lat="41.03991961566714" lon="9.184943338405901"><ele>233.0</ele><time>2026-04-26T07:46:34.736Z</time></trkpt><trkpt lat="41.0397613573099" lon="9.184954421878198"><ele>234.0</ele><time>2026-04-26T07:46:35.736Z</time></trkpt><trkpt lat="41.03963006247811" lon="9.184953561270767"><ele>235.0</ele><time>2026-04-26T07:46:36.736Z</time></trkpt><trkpt lat="41.03952107443851" lon="9.18490712418373"><ele>236.0</ele><time>2026-04-26T07:46:37.736Z</time></trkpt><trkpt lat="41.03946019680495" lon="9.184788480646263"><ele>238.0</ele><time>2026-04-26T07:46:38.736Z</time></trkpt><trkpt lat="41.03946279495593" lon="9.184618531127969"><ele>240.0</ele><time>2026-04-26T07:46:39.736Z</time></trkpt><trkpt lat="41.039551055357414" lon="9.184475392643451"><ele>242.0</ele><time>2026-04-26T07:46:40.736Z</time></trkpt><trkpt lat="41.03969852375279" lon="9.184385891467219"><ele>244.0</ele><time>2026-04-26T07:46:41.736Z</time></trkpt><trkpt lat="41.03990642627565" lon="9.184359936273525"><ele>240.5</ele><time>2026-04-26T07:46:42.736Z</time></trkpt><trkpt lat="41.04015678693512" lon="9.184333989657992"><ele>237.0</ele><time>2026-04-26T07:46:43.736Z</time></trkpt><trkpt lat="41.0403814749207" lon="9.184294499248256"><ele>237.0</ele><time>2026-04-26T07:46:44.736Z</time></trkpt><trkpt lat="41.04052519216615" lon="9.184240180095548"><ele>237.0</ele><time>2026-04-26T07:46:45.736Z</time></trkpt><trkpt lat="41.04063612836732" lon="9.184152238698557"><ele>237.0</ele><time>2026-04-26T07:46:46.736Z</time></trkpt><trkpt lat="41.04071068415716" lon="9.184013320230196"><ele>237.0</ele><time>2026-04-26T07:46:47.736Z</time></trkpt><trkpt lat="41.040716954193975" lon="9.183791714990795"><ele>238.5</ele><time>2026-04-26T07:46:48.736Z</time></trkpt><trkpt lat="41.04066196366525" lon="9.1834917365791"><ele>240.0</ele><time>2026-04-26T07:46:49.736Z</time></trkpt><trkpt lat="41.04056348093166" lon="9.183160908309688"><ele>240.0</ele><time>2026-04-26T07:46:50.736Z</time></trkpt><trkpt lat="41.040478199708964" lon="9.182919249103188"><ele>240.0</ele><time>2026-04-26T07:46:51.735Z</time></trkpt><trkpt lat="41.040331216438915" lon="9.182757579440372"><ele>240.0</ele><time>2026-04-26T07:46:52.735Z</time></trkpt><trkpt lat="41.040116626254495" lon="9.182632312943312"><ele>246.0</ele><time>2026-04-26T07:46:53.735Z</time></trkpt><trkpt lat="41.03982967754121" lon="9.182524036445258"><ele>252.0</ele><time>2026-04-26T07:46:54.735Z</time></trkpt><trkpt lat="41.03959905721066" lon="9.182405720571687"><ele>249.33333333333331</ele><time>2026-04-26T07:46:55.735Z</time></trkpt><trkpt lat="41.03942382549288" lon="9.182318829214703"><ele>246.66666666666666</ele><time>2026-04-26T07:46:56.735Z</time></trkpt><trkpt lat="41.03928397748606" lon="9.182139849754831"><ele>244.0</ele><time>2026-04-26T07:46:57.735Z</time></trkpt><trkpt lat="41.039154118449396" lon="9.181927218968777"><ele>244.66666666666666</ele><time>2026-04-26T07:46:58.735Z</time></trkpt><trkpt lat="41.039020984958334" lon="9.181723579345338"><ele>245.33333333333331</ele><time>2026-04-26T07:46:59.735Z</time></trkpt><trkpt lat="41.038917061519086" lon="9.181535677806696"><ele>246.0</ele><time>2026-04-26T07:47:00.735Z</time></trkpt><trkpt lat="41.038790763328926" lon="9.181442989557448"><ele>246.0</ele><time>2026-04-26T07:47:01.735Z</time></trkpt><trkpt lat="41.03861797594006" lon="9.181447966325871"><ele>246.0</ele><time>2026-04-26T07:47:02.735Z</time></trkpt><trkpt lat="41.0383944549788" lon="9.181491568809644"><ele>246.0</ele><time>2026-04-26T07:47:03.735Z</time></trkpt><trkpt lat="41.03820782792263" lon="9.181416032069055"><ele>245.0</ele><time>2026-04-26T07:47:04.735Z</time></trkpt><trkpt lat="41.038007834839675" lon="9.181317286923111"><ele>244.0</ele><time>2026-04-26T07:47:05.735Z</time></trkpt><trkpt lat="41.03783744080917" lon="9.181135963684595"><ele>243.0</ele><time>2026-04-26T07:47:06.735Z</time></trkpt><trkpt lat="41.03766853415305" lon="9.18102584181343"><ele>243.0</ele><time>2026-04-26T07:47:07.735Z</time></trkpt><trkpt lat="41.03749095469591" lon="9.180990114658433"><ele>243.0</ele><time>2026-04-26T07:47:08.734Z</time></trkpt><trkpt lat="41.03731685724259" lon="9.180988814544769"><ele>243.0</ele><time>2026-04-26T07:47:09.734Z</time></trkpt><trkpt lat="41.0371941392951" lon="9.18094014412653"><ele>245.0</ele><time>2026-04-26T07:47:10.734Z</time></trkpt><trkpt lat="41.03711983424798" lon="9.180775051640996"><ele>247.0</ele><time>2026-04-26T07:47:11.734Z</time></trkpt><trkpt lat="41.03707307040135" lon="9.180566536129827"><ele>249.0</ele><time>2026-04-26T07:47:12.734Z</time></trkpt><trkpt lat="41.03702144439411" lon="9.18034328344217"><ele>245.0</ele><time>2026-04-26T07:47:13.734Z</time></trkpt><trkpt lat="41.03694301247537" lon="9.18016836356758"><ele>241.0</ele><time>2026-04-26T07:47:14.734Z</time></trkpt><trkpt lat="41.036807443466756" lon="9.180055161621842"><ele>237.0</ele><time>2026-04-26T07:47:15.734Z</time></trkpt><trkpt lat="41.03661142616407" lon="9.179995588043802"><ele>237.0</ele><time>2026-04-26T07:47:16.734Z</time></trkpt><trkpt lat="41.03639841787847" lon="9.179976384132836"><ele>237.0</ele><time>2026-04-26T07:47:17.734Z</time></trkpt><trkpt lat="41.03619045772623" lon="9.179966583812911"><ele>237.0</ele><time>2026-04-26T07:47:18.734Z</time></trkpt><trkpt lat="41.03598623590725" lon="9.180026274627442"><ele>238.33333333333331</ele><time>2026-04-26T07:47:19.734Z</time></trkpt><trkpt lat="41.03578642538443" lon="9.180168615534193"><ele>239.66666666666666</ele><time>2026-04-26T07:47:20.734Z</time></trkpt><trkpt lat="41.035598458830485" lon="9.180253824134596"><ele>241.0</ele><time>2026-04-26T07:47:21.734Z</time></trkpt><trkpt lat="41.03542513164679" lon="9.18026668365793"><ele>241.0</ele><time>2026-04-26T07:47:22.734Z</time></trkpt><trkpt lat="41.035242427711864" lon="9.180206014646824"><ele>241.0</ele><time>2026-04-26T07:47:23.734Z</time></trkpt><trkpt lat="41.03505367250459" lon="9.180111167534864"><ele>241.0</ele><time>2026-04-26T07:47:24.734Z</time></trkpt><trkpt lat="41.03487304044799" lon="9.180078536217163"><ele>244.33333333333331</ele><time>2026-04-26T07:47:25.733Z</time></trkpt><trkpt lat="41.03467256654834" lon="9.180097710879185"><ele>247.66666666666669</ele><time>2026-04-26T07:47:26.733Z</time></trkpt><trkpt lat="41.0344983972766" lon="9.180155817505105"><ele>251.0</ele><time>2026-04-26T07:47:27.733Z</time></trkpt><trkpt lat="41.03438171156955" lon="9.180183980553899"><ele>251.0</ele><time>2026-04-26T07:47:28.733Z</time></trkpt><trkpt lat="41.03431033894007" lon="9.180137562187413"><ele>251.0</ele><time>2026-04-26T07:47:29.733Z</time></trkpt><trkpt lat="41.03426949887361" lon="9.180041942803731"><ele>251.0</ele><time>2026-04-26T07:47:30.733Z</time></trkpt><trkpt lat="41.03430109454011" lon="9.179845166943519"><ele>251.0</ele><time>2026-04-26T07:47:31.733Z</time></trkpt><trkpt lat="41.03434190895456" lon="9.17959681974199"><ele>252.33333333333334</ele><time>2026-04-26T07:47:32.733Z</time></trkpt><trkpt lat="41.034381184206474" lon="9.179342924373811"><ele>253.66666666666669</ele><time>2026-04-26T07:47:33.733Z</time></trkpt><trkpt lat="41.03440977272269" lon="9.17910544740717"><ele>255.0</ele><time>2026-04-26T07:47:34.733Z</time></trkpt><trkpt lat="41.03444492671475" lon="9.178912175125461"><ele>254.25</ele><time>2026-04-26T07:47:35.733Z</time></trkpt><trkpt lat="41.0345424755449" lon="9.178803714880413"><ele>253.5</ele><time>2026-04-26T07:47:36.733Z</time></trkpt><trkpt lat="41.03469343533189" lon="9.178764078719068"><ele>252.75</ele><time>2026-04-26T07:47:37.733Z</time></trkpt><trkpt lat="41.03486036325109" lon="9.178775024379465"><ele>252.0</ele><time>2026-04-26T07:47:38.733Z</time></trkpt><trkpt lat="41.035009911876834" lon="9.178735753613624"><ele>252.0</ele><time>2026-04-26T07:47:39.733Z</time></trkpt><trkpt lat="41.035157019192965" lon="9.178631900877047"><ele>252.0</ele><time>2026-04-26T07:47:40.733Z</time></trkpt><trkpt lat="41.03528846731478" lon="9.178462995113474"><ele>252.0</ele><time>2026-04-26T07:47:41.733Z</time></trkpt><trkpt lat="41.035367226353024" lon="9.17830375360551"><ele>252.0</ele><time>2026-04-26T07:47:42.732Z</time></trkpt><trkpt lat="41.035383065576134" lon="9.17813114392295"><ele>252.0</ele><time>2026-04-26T07:47:43.732Z</time></trkpt><trkpt lat="41.03532086161984" lon="9.177937401094841"><ele>252.0</ele><time>2026-04-26T07:47:44.732Z</time></trkpt><trkpt lat="41.03519002168043" lon="9.177741126322776"><ele>252.0</ele><time>2026-04-26T07:47:45.732Z</time></trkpt><trkpt lat="41.03504255611049" lon="9.177515334185525"><ele>252.0</ele><time>2026-04-26T07:47:46.825Z</time></trkpt><trkpt lat="41.03489728697032" lon="9.17727597245432"><ele>256.0</ele><time>2026-04-26T07:47:47.825Z</time></trkpt><trkpt lat="41.03475367132986" lon="9.177034077825105"><ele>260.0</ele><time>2026-04-26T07:47:48.825Z</time></trkpt><trkpt lat="41.03461578265497" lon="9.176807629184854"><ele>260.0</ele><time>2026-04-26T07:47:49.825Z</time></trkpt><trkpt lat="41.034494529306464" lon="9.176607404642079"><ele>260.0</ele><time>2026-04-26T07:47:50.825Z</time></trkpt><trkpt lat="41.034379588056474" lon="9.17643073482571"><ele>260.0</ele><time>2026-04-26T07:47:51.825Z</time></trkpt><trkpt lat="41.03423485911463" lon="9.176303805435326"><ele>259.6666666666667</ele><time>2026-04-26T07:47:52.825Z</time></trkpt><trkpt lat="41.034061766561244" lon="9.176250810870895"><ele>259.3333333333333</ele><time>2026-04-26T07:47:53.825Z</time></trkpt><trkpt lat="41.03388175906878" lon="9.176236417027896"><ele>259.0</ele><time>2026-04-26T07:47:54.825Z</time></trkpt><trkpt lat="41.033760063512226" lon="9.176118067041594"><ele>259.0</ele><time>2026-04-26T07:47:55.825Z</time></trkpt><trkpt lat="41.033655000963286" lon="9.17592165069591"><ele>259.0</ele><time>2026-04-26T07:47:56.825Z</time></trkpt><trkpt lat="41.03353906135318" lon="9.175687118168248"><ele>259.0</ele><time>2026-04-26T07:47:57.825Z</time></trkpt><trkpt lat="41.03342084319909" lon="9.175456403023956"><ele>258.0</ele><time>2026-04-26T07:47:58.825Z</time></trkpt><trkpt lat="41.03333503931552" lon="9.17522169035224"><ele>257.0</ele><time>2026-04-26T07:47:59.825Z</time></trkpt><trkpt lat="41.03327912053094" lon="9.175005440197781"><ele>256.0</ele><time>2026-04-26T07:48:00.825Z</time></trkpt><trkpt lat="41.03321226369572" lon="9.17481676421823"><ele>256.0</ele><time>2026-04-26T07:48:01.825Z</time></trkpt><trkpt lat="41.03311590892714" lon="9.174669677222827"><ele>256.0</ele><time>2026-04-26T07:48:02.825Z</time></trkpt><trkpt lat="41.03296990710678" lon="9.174569901261775"><ele>256.0</ele><time>2026-04-26T07:48:03.825Z</time></trkpt><trkpt lat="41.03280354451403" lon="9.174508826519716"><ele>256.0</ele><time>2026-04-26T07:48:04.825Z</time></trkpt><trkpt lat="41.03263838824301" lon="9.174509001377972"><ele>256.0</ele><time>2026-04-26T07:48:05.825Z</time></trkpt><trkpt lat="41.03250025491453" lon="9.174616767013733"><ele>256.0</ele><time>2026-04-26T07:48:06.825Z</time></trkpt><trkpt lat="41.032382161242026" lon="9.174717077742711"><ele>257.25</ele><time>2026-04-26T07:48:07.824Z</time></trkpt><trkpt lat="41.032254932653935" lon="9.17470908283648"><ele>258.5</ele><time>2026-04-26T07:48:08.824Z</time></trkpt><trkpt lat="41.03216043804619" lon="9.174561152458299"><ele>259.75</ele><time>2026-04-26T07:48:09.824Z</time></trkpt><trkpt lat="41.03204787209481" lon="9.174412090138336"><ele>261.0</ele><time>2026-04-26T07:48:10.824Z</time></trkpt><trkpt lat="41.031939009222775" lon="9.17422887435734"><ele>261.0</ele><time>2026-04-26T07:48:11.824Z</time></trkpt><trkpt lat="41.031795036059776" lon="9.174091824726776"><ele>261.0</ele><time>2026-04-26T07:48:12.824Z</time></trkpt><trkpt lat="41.03161403126853" lon="9.174028125933212"><ele>261.0</ele><time>2026-04-26T07:48:13.826Z</time></trkpt><trkpt lat="41.0314156797228" lon="9.174035654220727"><ele>261.5</ele><time>2026-04-26T07:48:14.826Z</time></trkpt><trkpt lat="41.03119154559746" lon="9.174106912097901"><ele>262.0</ele><time>2026-04-26T07:48:15.826Z</time></trkpt><trkpt lat="41.0309537625756" lon="9.174185149493342"><ele>267.0</ele><time>2026-04-26T07:48:16.827Z</time></trkpt><trkpt lat="41.030722475768805" lon="9.174245978431301"><ele>272.0</ele><time>2026-04-26T07:48:17.826Z</time></trkpt><trkpt lat="41.03049760516835" lon="9.174297559793281"><ele>272.0</ele><time>2026-04-26T07:48:18.826Z</time></trkpt><trkpt lat="41.030326097911065" lon="9.174337385155727"><ele>272.0</ele><time>2026-04-26T07:48:19.826Z</time></trkpt><trkpt lat="41.030190074522814" lon="9.17433122562227"><ele>272.0</ele><time>2026-04-26T07:48:20.826Z</time></trkpt><trkpt lat="41.03008806249063" lon="9.174241353075708"><ele>272.0</ele><time>2026-04-26T07:48:21.826Z</time></trkpt><trkpt lat="41.030036312464254" lon="9.174069897929181"><ele>273.33333333333337</ele><time>2026-04-26T07:48:22.826Z</time></trkpt><trkpt lat="41.029966227936605" lon="9.173844513289495"><ele>274.6666666666667</ele><time>2026-04-26T07:48:23.825Z</time></trkpt><trkpt lat="41.02990818704356" lon="9.173601304825333"><ele>276.0</ele><time>2026-04-26T07:48:24.825Z</time></trkpt><trkpt lat="41.02984586958512" lon="9.17333085102989"><ele>272.6666666666667</ele><time>2026-04-26T07:48:25.826Z</time></trkpt><trkpt lat="41.02978281720945" lon="9.173084193281074"><ele>269.33333333333337</ele><time>2026-04-26T07:48:26.825Z</time></trkpt><trkpt lat="41.029713147001104" lon="9.172877149098097"><ele>266.0</ele><time>2026-04-26T07:48:27.825Z</time></trkpt><trkpt lat="41.02961062428843" lon="9.172725989810438"><ele>266.0</ele><time>2026-04-26T07:48:28.825Z</time></trkpt><trkpt lat="41.02947631907268" lon="9.172666552256393"><ele>266.0</ele><time>2026-04-26T07:48:29.825Z</time></trkpt><trkpt lat="41.02931016341883" lon="9.172708536468008"><ele>266.0</ele><time>2026-04-26T07:48:30.825Z</time></trkpt><trkpt lat="41.02915938971402" lon="9.172855861286237"><ele>269.0</ele><time>2026-04-26T07:48:31.825Z</time></trkpt><trkpt lat="41.02903673527281" lon="9.1729778543493"><ele>272.0</ele><time>2026-04-26T07:48:32.825Z</time></trkpt><trkpt lat="41.028920457906416" lon="9.172993870181745"><ele>275.0</ele><time>2026-04-26T07:48:33.825Z</time></trkpt><trkpt lat="41.02883246078943" lon="9.172895910692464"><ele>278.0</ele><time>2026-04-26T07:48:34.825Z</time></trkpt><trkpt lat="41.02881274472088" lon="9.172696134640658"><ele>278.0</ele><time>2026-04-26T07:48:35.825Z</time></trkpt><trkpt lat="41.02877332797323" lon="9.172454443886785"><ele>278.0</ele><time>2026-04-26T07:48:36.825Z</time></trkpt><trkpt lat="41.02874441319108" lon="9.172239869901148"><ele>278.0</ele><time>2026-04-26T07:48:37.825Z</time></trkpt><trkpt lat="41.028682167523385" lon="9.172082731682517"><ele>279.33333333333337</ele><time>2026-04-26T07:48:38.825Z</time></trkpt><trkpt lat="41.028532426628374" lon="9.17201893191465"><ele>280.6666666666667</ele><time>2026-04-26T07:48:39.825Z</time></trkpt><trkpt lat="41.02835359180722" lon="9.172015796863853"><ele>282.0</ele><time>2026-04-26T07:48:40.825Z</time></trkpt><trkpt lat="41.028174323215666" lon="9.17198488826631"><ele>282.0</ele><time>2026-04-26T07:48:41.825Z</time></trkpt><trkpt lat="41.02803982336354" lon="9.171871523484848"><ele>282.0</ele><time>2026-04-26T07:48:42.825Z</time></trkpt><trkpt lat="41.027917151609614" lon="9.171663331637564"><ele>282.0</ele><time>2026-04-26T07:48:43.825Z</time></trkpt><trkpt lat="41.02776003102763" lon="9.171494234645841"><ele>283.3333333333333</ele><time>2026-04-26T07:48:44.825Z</time></trkpt><trkpt lat="41.02760385909871" lon="9.171370618637122"><ele>284.66666666666663</ele><time>2026-04-26T07:48:45.824Z</time></trkpt><trkpt lat="41.027435253797464" lon="9.171359951415763"><ele>286.0</ele><time>2026-04-26T07:48:46.824Z</time></trkpt><trkpt lat="41.02728793337581" lon="9.171376593474575"><ele>286.0</ele><time>2026-04-26T07:48:47.824Z</time></trkpt><trkpt lat="41.02717407682159" lon="9.171305991843"><ele>286.0</ele><time>2026-04-26T07:48:48.824Z</time></trkpt><trkpt lat="41.02710897628091" lon="9.171192946204705"><ele>286.0</ele><time>2026-04-26T07:48:49.824Z</time></trkpt><trkpt lat="41.02709623485536" lon="9.171016909065791"><ele>286.0</ele><time>2026-04-26T07:48:50.824Z</time></trkpt><trkpt lat="41.02710094333018" lon="9.17079009520749"><ele>282.0</ele><time>2026-04-26T07:48:51.824Z</time></trkpt><trkpt lat="41.02711519071337" lon="9.170618320937015"><ele>278.0</ele><time>2026-04-26T07:48:52.824Z</time></trkpt><trkpt lat="41.0270753322724" lon="9.170459206801036"><ele>274.0</ele><time>2026-04-26T07:48:53.824Z</time></trkpt><trkpt lat="41.02693235996433" lon="9.170341688551055"><ele>270.0</ele><time>2026-04-26T07:48:54.824Z</time></trkpt><trkpt lat="41.026732932352765" lon="9.170364679672975"><ele>273.5</ele><time>2026-04-26T07:48:55.824Z</time></trkpt><trkpt lat="41.02651228859451" lon="9.170412399330578"><ele>277.0</ele><time>2026-04-26T07:48:56.824Z</time></trkpt><trkpt lat="41.02627204308201" lon="9.170458006134986"><ele>277.0</ele><time>2026-04-26T07:48:57.824Z</time></trkpt><trkpt lat="41.02606680565537" lon="9.17048598509132"><ele>277.0</ele><time>2026-04-26T07:48:58.824Z</time></trkpt><trkpt lat="41.025904807665135" lon="9.170501198247416"><ele>277.0</ele><time>2026-04-26T07:48:59.824Z</time></trkpt><trkpt lat="41.02579162393801" lon="9.170506602445627"><ele>282.0</ele><time>2026-04-26T07:49:00.824Z</time></trkpt><trkpt lat="41.02568309474055" lon="9.170483283165542"><ele>287.0</ele><time>2026-04-26T07:49:01.824Z</time></trkpt><trkpt lat="41.025672781062504" lon="9.170284114032508"><ele>292.0</ele><time>2026-04-26T07:49:02.824Z</time></trkpt><trkpt lat="41.025570039983464" lon="9.170064074843765"><ele>288.66666666666663</ele><time>2026-04-26T07:49:03.824Z</time></trkpt><trkpt lat="41.02552865191426" lon="9.16978929958135"><ele>285.3333333333333</ele><time>2026-04-26T07:49:04.824Z</time></trkpt><trkpt lat="41.025463322561954" lon="9.16958900312981"><ele>282.0</ele><time>2026-04-26T07:49:05.824Z</time></trkpt><trkpt lat="41.02534634227132" lon="9.169488658700317"><ele>282.0</ele><time>2026-04-26T07:49:06.824Z</time></trkpt><trkpt lat="41.02519335538086" lon="9.169489270468238"><ele>282.0</ele><time>2026-04-26T07:49:07.824Z</time></trkpt><trkpt lat="41.02505616602999" lon="9.169604769669117"><ele>282.0</ele><time>2026-04-26T07:49:08.824Z</time></trkpt><trkpt lat="41.0249483071895" lon="9.169791468627727"><ele>287.4</ele><time>2026-04-26T07:49:09.824Z</time></trkpt><trkpt lat="41.02486999382551" lon="9.169776304998408"><ele>292.79999999999995</ele><time>2026-04-26T07:49:10.823Z</time></trkpt><trkpt lat="41.02478327448136" lon="9.169702371045238"><ele>298.2</ele><time>2026-04-26T07:49:11.823Z</time></trkpt><trkpt lat="41.02473798105152" lon="9.169546903492813"><ele>303.59999999999997</ele><time>2026-04-26T07:49:12.823Z</time></trkpt><trkpt lat="41.024722883819" lon="9.169397614887494"><ele>309.0</ele><time>2026-04-26T07:49:13.823Z</time></trkpt><trkpt lat="41.024697996869236" lon="9.169186306784804"><ele>305.3333333333333</ele><time>2026-04-26T07:49:14.823Z</time></trkpt><trkpt lat="41.02466568536801" lon="9.168944495849178"><ele>301.66666666666663</ele><time>2026-04-26T07:49:15.823Z</time></trkpt><trkpt lat="41.024613154983946" lon="9.168685526804005"><ele>298.0</ele><time>2026-04-26T07:49:16.823Z</time></trkpt><trkpt lat="41.02451372388517" lon="9.16846557724649"><ele>298.0</ele><time>2026-04-26T07:49:17.823Z</time></trkpt><trkpt lat="41.02435811190033" lon="9.168297738897921"><ele>298.0</ele><time>2026-04-26T07:49:18.823Z</time></trkpt><trkpt lat="41.02417287173229" lon="9.168108671153979"><ele>298.0</ele><time>2026-04-26T07:49:19.823Z</time></trkpt><trkpt lat="41.023987812494184" lon="9.167949214674794"><ele>295.5</ele><time>2026-04-26T07:49:20.823Z</time></trkpt><trkpt lat="41.02375634704103" lon="9.16784489326081"><ele>293.0</ele><time>2026-04-26T07:49:21.823Z</time></trkpt><trkpt lat="41.023534606694646" lon="9.167733545824582"><ele>293.0</ele><time>2026-04-26T07:49:22.823Z</time></trkpt><trkpt lat="41.023325869699086" lon="9.167585835917308"><ele>293.0</ele><time>2026-04-26T07:49:23.823Z</time></trkpt><trkpt lat="41.023119662967396" lon="9.16743438062912"><ele>294.6666666666667</ele><time>2026-04-26T07:49:24.823Z</time></trkpt><trkpt lat="41.0229285594377" lon="9.167286693485831"><ele>296.3333333333333</ele><time>2026-04-26T07:49:25.823Z</time></trkpt><trkpt lat="41.02278476411303" lon="9.167133507282074"><ele>298.0</ele><time>2026-04-26T07:49:26.823Z</time></trkpt><trkpt lat="41.02266360163601" lon="9.167013915222674"><ele>298.0</ele><time>2026-04-26T07:49:27.823Z</time></trkpt><trkpt lat="41.02253320211682" lon="9.166876733500525"><ele>298.0</ele><time>2026-04-26T07:49:28.823Z</time></trkpt><trkpt lat="41.0223684107306" lon="9.166811490344692"><ele>298.0</ele><time>2026-04-26T07:49:29.823Z</time></trkpt><trkpt lat="41.02217910466366" lon="9.166819322964823"><ele>299.3333333333333</ele><time>2026-04-26T07:49:30.823Z</time></trkpt><trkpt lat="41.02204297572587" lon="9.166689401404627"><ele>300.6666666666667</ele><time>2026-04-26T07:49:31.823Z</time></trkpt><trkpt lat="41.02187660344742" lon="9.16653127128994"><ele>302.0</ele><time>2026-04-26T07:49:32.823Z</time></trkpt><trkpt lat="41.02170810484272" lon="9.166346949859408"><ele>308.0</ele><time>2026-04-26T07:49:33.823Z</time></trkpt><trkpt lat="41.02154589617813" lon="9.166228949905266"><ele>314.0</ele><time>2026-04-26T07:49:34.822Z</time></trkpt><trkpt lat="41.02136760043207" lon="9.16625727116963"><ele>320.0</ele><time>2026-04-26T07:49:35.822Z</time></trkpt><trkpt lat="41.021196544600414" lon="9.166306694737214"><ele>320.0</ele><time>2026-04-26T07:49:36.822Z</time></trkpt><trkpt lat="41.02109954956906" lon="9.166254153364013"><ele>320.0</ele><time>2026-04-26T07:49:37.822Z</time></trkpt><trkpt lat="41.02105578358285" lon="9.166094351705468"><ele>320.0</ele><time>2026-04-26T07:49:38.822Z</time></trkpt><trkpt lat="41.0209767107315" lon="9.165874937028823"><ele>320.0</ele><time>2026-04-26T07:49:39.822Z</time></trkpt><trkpt lat="41.020821749600046" lon="9.165687654249977"><ele>323.5</ele><time>2026-04-26T07:49:40.822Z</time></trkpt><trkpt lat="41.02066549636216" lon="9.165485982862798"><ele>327.0</ele><time>2026-04-26T07:49:41.822Z</time></trkpt><trkpt lat="41.02047882927429" lon="9.165292647222511"><ele>327.0</ele><time>2026-04-26T07:49:42.822Z</time></trkpt><trkpt lat="41.02027974057851" lon="9.165098281010406"><ele>327.0</ele><time>2026-04-26T07:49:43.822Z</time></trkpt><trkpt lat="41.020082316303736" lon="9.164910772083068"><ele>322.0</ele><time>2026-04-26T07:49:44.822Z</time></trkpt><trkpt lat="41.019867047493015" lon="9.164769397232645"><ele>317.0</ele><time>2026-04-26T07:49:45.822Z</time></trkpt><trkpt lat="41.0196416657018" lon="9.164647636594145"><ele>317.0</ele><time>2026-04-26T07:49:46.822Z</time></trkpt><trkpt lat="41.019399818173476" lon="9.164546797140103"><ele>317.0</ele><time>2026-04-26T07:49:47.822Z</time></trkpt><trkpt lat="41.0191655667491" lon="9.164440663812314"><ele>330.5</ele><time>2026-04-26T07:49:48.822Z</time></trkpt><trkpt lat="41.01895836988475" lon="9.16427449086487"><ele>344.0</ele><time>2026-04-26T07:49:49.822Z</time></trkpt><trkpt lat="41.01874612352541" lon="9.16408386224212"><ele>333.5</ele><time>2026-04-26T07:49:50.822Z</time></trkpt><trkpt lat="41.01853658334648" lon="9.163919314408362"><ele>323.0</ele><time>2026-04-26T07:49:51.822Z</time></trkpt><trkpt lat="41.01834256173735" lon="9.163693953551096"><ele>335.5</ele><time>2026-04-26T07:49:52.822Z</time></trkpt><trkpt lat="41.01813533997314" lon="9.16347421078981"><ele>348.0</ele><time>2026-04-26T07:49:53.822Z</time></trkpt><trkpt lat="41.01791476938008" lon="9.163273514004459"><ele>339.5</ele><time>2026-04-26T07:49:54.822Z</time></trkpt><trkpt lat="41.01769075021431" lon="9.163084989589496"><ele>331.0</ele><time>2026-04-26T07:49:55.822Z</time></trkpt><trkpt lat="41.01749541220897" lon="9.162911663251466"><ele>341.66666666666663</ele><time>2026-04-26T07:49:56.822Z</time></trkpt><trkpt lat="41.017325741261146" lon="9.162772042697402"><ele>352.3333333333333</ele><time>2026-04-26T07:49:57.822Z</time></trkpt><trkpt lat="41.01715924705386" lon="9.162656449362135"><ele>363.0</ele><time>2026-04-26T07:49:58.821Z</time></trkpt><trkpt lat="41.0170365546197" lon="9.162601461516005"><ele>363.0</ele><time>2026-04-26T07:49:59.821Z</time></trkpt><trkpt lat="41.01698280860909" lon="9.162479889101414"><ele>363.0</ele><time>2026-04-26T07:50:00.821Z</time></trkpt><trkpt lat="41.01701667750281" lon="9.162343096914627"><ele>363.0</ele><time>2026-04-26T07:50:01.821Z</time></trkpt><trkpt lat="41.017044347319896" lon="9.16214344409666"><ele>363.0</ele><time>2026-04-26T07:50:02.821Z</time></trkpt><trkpt lat="41.01700851568063" lon="9.161929644894345"><ele>357.6666666666667</ele><time>2026-04-26T07:50:03.821Z</time></trkpt><trkpt lat="41.01688483954891" lon="9.16175012207195"><ele>352.33333333333337</ele><time>2026-04-26T07:50:04.821Z</time></trkpt><trkpt lat="41.01668282763606" lon="9.161622023634314"><ele>347.0</ele><time>2026-04-26T07:50:05.821Z</time></trkpt><trkpt lat="41.016414979693344" lon="9.161523032170006"><ele>343.5</ele><time>2026-04-26T07:50:06.821Z</time></trkpt><trkpt lat="41.016156957342396" lon="9.161382345325451"><ele>340.0</ele><time>2026-04-26T07:50:07.821Z</time></trkpt><trkpt lat="41.0158964838301" lon="9.16128633452264"><ele>348.0</ele><time>2026-04-26T07:50:08.821Z</time></trkpt><trkpt lat="41.015641111667136" lon="9.16122487125277"><ele>356.0</ele><time>2026-04-26T07:50:09.821Z</time></trkpt><trkpt lat="41.015387036283514" lon="9.161188001063989"><ele>356.0</ele><time>2026-04-26T07:50:10.821Z</time></trkpt><trkpt lat="41.01514525514319" lon="9.161151082364999"><ele>356.0</ele><time>2026-04-26T07:50:11.821Z</time></trkpt><trkpt lat="41.014943959097714" lon="9.161117316984182"><ele>356.0</ele><time>2026-04-26T07:50:12.821Z</time></trkpt><trkpt lat="41.0147956663989" lon="9.161067442341551"><ele>357.75</ele><time>2026-04-26T07:50:13.821Z</time></trkpt><trkpt lat="41.01468942226669" lon="9.16103661391431"><ele>359.5</ele><time>2026-04-26T07:50:14.821Z</time></trkpt><trkpt lat="41.01467056600758" lon="9.160879093960741"><ele>361.25</ele><time>2026-04-26T07:50:15.821Z</time></trkpt><trkpt lat="41.0146906143383" lon="9.16067998513493"><ele>363.0</ele><time>2026-04-26T07:50:16.821Z</time></trkpt><trkpt lat="41.01462735338187" lon="9.160497811195567"><ele>363.0</ele><time>2026-04-26T07:50:17.821Z</time></trkpt><trkpt lat="41.014552635733054" lon="9.160290711785523"><ele>363.0</ele><time>2026-04-26T07:50:18.821Z</time></trkpt><trkpt lat="41.014471992386596" lon="9.160077444065612"><ele>363.0</ele><time>2026-04-26T07:50:19.823Z</time></trkpt><trkpt lat="41.01437282042231" lon="9.159837700390572"><ele>362.0</ele><time>2026-04-26T07:50:20.822Z</time></trkpt><trkpt lat="41.013899744790265" lon="9.159823446278798"><ele>362.0</ele><time>2026-04-26T07:50:21.822Z</time></trkpt><trkpt lat="41.013688711748216" lon="9.15964042528806"><ele>362.0</ele><time>2026-04-26T07:50:22.823Z</time></trkpt><trkpt lat="41.013467065393286" lon="9.159496777284035"><ele>368.6666666666667</ele><time>2026-04-26T07:50:23.823Z</time></trkpt><trkpt lat="41.01325036841245" lon="9.159382510401961"><ele>375.3333333333333</ele><time>2026-04-26T07:50:24.823Z</time></trkpt><trkpt lat="41.01305334159333" lon="9.159271488340016"><ele>382.0</ele><time>2026-04-26T07:50:25.822Z</time></trkpt><trkpt lat="41.01288165483856" lon="9.159175642152045"><ele>382.0</ele><time>2026-04-26T07:50:26.822Z</time></trkpt><trkpt lat="41.01272499963911" lon="9.15912752129379"><ele>382.0</ele><time>2026-04-26T07:50:27.822Z</time></trkpt><trkpt lat="41.012572738777195" lon="9.159149380311778"><ele>382.0</ele><time>2026-04-26T07:50:28.823Z</time></trkpt><trkpt lat="41.012428282461535" lon="9.159197985973785"><ele>384.0</ele><time>2026-04-26T07:50:29.823Z</time></trkpt><trkpt lat="41.01230751926253" lon="9.159154440635357"><ele>386.0</ele><time>2026-04-26T07:50:30.822Z</time></trkpt><trkpt lat="41.01220629984698" lon="9.159011200622905"><ele>388.0</ele><time>2026-04-26T07:50:31.822Z</time></trkpt><trkpt lat="41.012141973133254" lon="9.158753681858244"><ele>388.0</ele><time>2026-04-26T07:50:32.823Z</time></trkpt><trkpt lat="41.01202969118839" lon="9.158518526751802"><ele>388.0</ele><time>2026-04-26T07:50:33.823Z</time></trkpt><trkpt lat="41.01186308081322" lon="9.158308844431756"><ele>388.0</ele><time>2026-04-26T07:50:34.822Z</time></trkpt><trkpt lat="41.01165696000298" lon="9.158154189010883"><ele>384.5</ele><time>2026-04-26T07:50:35.822Z</time></trkpt><trkpt lat="41.011420267412674" lon="9.158024496426968"><ele>381.0</ele><time>2026-04-26T07:50:36.822Z</time></trkpt><trkpt lat="41.0111703852426" lon="9.157926879055555"><ele>381.0</ele><time>2026-04-26T07:50:37.822Z</time></trkpt><trkpt lat="41.010941351083375" lon="9.157801980081564"><ele>381.0</ele><time>2026-04-26T07:50:38.822Z</time></trkpt><trkpt lat="41.01072295679893" lon="9.157648307533764"><ele>379.5</ele><time>2026-04-26T07:50:39.822Z</time></trkpt><trkpt lat="41.010508904156815" lon="9.15747114898072"><ele>378.0</ele><time>2026-04-26T07:50:40.822Z</time></trkpt><trkpt lat="41.01029777697454" lon="9.157280630191986"><ele>378.0</ele><time>2026-04-26T07:50:41.822Z</time></trkpt><trkpt lat="41.01007806384147" lon="9.157106286005444"><ele>378.0</ele><time>2026-04-26T07:50:42.822Z</time></trkpt><trkpt lat="41.00982634602171" lon="9.15696859518825"><ele>389.5</ele><time>2026-04-26T07:50:43.822Z</time></trkpt><trkpt lat="41.009549021950896" lon="9.156856463324832"><ele>401.0</ele><time>2026-04-26T07:50:44.822Z</time></trkpt><trkpt lat="41.00928550597877" lon="9.156711785731149"><ele>400.5</ele><time>2026-04-26T07:50:45.822Z</time></trkpt><trkpt lat="41.00902910066364" lon="9.156541221122485"><ele>400.0</ele><time>2026-04-26T07:50:46.822Z</time></trkpt><trkpt lat="41.008788102706326" lon="9.15634026931421"><ele>400.0</ele><time>2026-04-26T07:50:47.822Z</time></trkpt><trkpt lat="41.00853924674781" lon="9.15616371377764"><ele>400.0</ele><time>2026-04-26T07:50:48.822Z</time></trkpt><trkpt lat="41.00828308343103" lon="9.156006183797334"><ele>408.0</ele><time>2026-04-26T07:50:49.822Z</time></trkpt><trkpt lat="41.00803883764069" lon="9.155859305623858"><ele>416.0</ele><time>2026-04-26T07:50:50.822Z</time></trkpt><trkpt lat="41.007794307705964" lon="9.155735376097462"><ele>412.3333333333333</ele><time>2026-04-26T07:50:51.822Z</time></trkpt><trkpt lat="41.0075605753777" lon="9.155652719394862"><ele>408.66666666666663</ele><time>2026-04-26T07:50:52.822Z</time></trkpt><trkpt lat="41.007356551714494" lon="9.15561058551759"><ele>405.0</ele><time>2026-04-26T07:50:53.822Z</time></trkpt><trkpt lat="41.007194822099265" lon="9.155582862230847"><ele>405.0</ele><time>2026-04-26T07:50:54.822Z</time></trkpt><trkpt lat="41.00706932339602" lon="9.155575806062759"><ele>405.0</ele><time>2026-04-26T07:50:55.822Z</time></trkpt><trkpt lat="41.00696076389897" lon="9.155628786339806"><ele>405.0</ele><time>2026-04-26T07:50:56.822Z</time></trkpt><trkpt lat="41.00690478997623" lon="9.155789435246508"><ele>405.0</ele><time>2026-04-26T07:50:57.822Z</time></trkpt><trkpt lat="41.00686436239781" lon="9.155978466664358"><ele>409.5</ele><time>2026-04-26T07:50:58.821Z</time></trkpt><trkpt lat="41.0067786243313" lon="9.156068767641397"><ele>414.0</ele><time>2026-04-26T07:50:59.821Z</time></trkpt><trkpt lat="41.006662842401305" lon="9.156069415383927"><ele>418.5</ele><time>2026-04-26T07:51:00.821Z</time></trkpt><trkpt lat="41.006545560358816" lon="9.155940263818058"><ele>423.0</ele><time>2026-04-26T07:51:01.821Z</time></trkpt><trkpt lat="41.00647665635243" lon="9.155749607372812"><ele>426.66666666666663</ele><time>2026-04-26T07:51:02.821Z</time></trkpt><trkpt lat="41.006419735289256" lon="9.155511163838383"><ele>430.3333333333333</ele><time>2026-04-26T07:51:03.821Z</time></trkpt><trkpt lat="41.006316757886225" lon="9.155290241513304"><ele>434.0</ele><time>2026-04-26T07:51:04.821Z</time></trkpt><trkpt lat="41.006148209313416" lon="9.155087753788706"><ele>434.0</ele><time>2026-04-26T07:51:05.821Z</time></trkpt><trkpt lat="41.00597522567795" lon="9.15493935486635"><ele>434.0</ele><time>2026-04-26T07:51:06.821Z</time></trkpt><trkpt lat="41.00587365131343" lon="9.154749000116562"><ele>434.0</ele><time>2026-04-26T07:51:07.821Z</time></trkpt><trkpt lat="41.005823781981206" lon="9.154512120017827"><ele>435.0</ele><time>2026-04-26T07:51:08.821Z</time></trkpt><trkpt lat="41.005745366803296" lon="9.154357334490868"><ele>436.0</ele><time>2026-04-26T07:51:09.821Z</time></trkpt><trkpt lat="41.00560887372704" lon="9.15421778428977"><ele>437.0</ele><time>2026-04-26T07:51:10.821Z</time></trkpt><trkpt lat="41.005495446283625" lon="9.154014857204134"><ele>437.0</ele><time>2026-04-26T07:51:11.821Z</time></trkpt><trkpt lat="41.00544352709124" lon="9.153757559069954"><ele>437.0</ele><time>2026-04-26T07:51:12.821Z</time></trkpt><trkpt lat="41.00537333594231" lon="9.153527508301135"><ele>437.0</ele><time>2026-04-26T07:51:13.821Z</time></trkpt><trkpt lat="41.005226626204575" lon="9.153346088435152"><ele>437.5</ele><time>2026-04-26T07:51:14.821Z</time></trkpt><trkpt lat="41.00502851395233" lon="9.153196876532572"><ele>438.0</ele><time>2026-04-26T07:51:15.821Z</time></trkpt><trkpt lat="41.00481122205973" lon="9.153024626322834"><ele>438.0</ele><time>2026-04-26T07:51:16.821Z</time></trkpt><trkpt lat="41.0045971231207" lon="9.15284127185064"><ele>438.0</ele><time>2026-04-26T07:51:17.821Z</time></trkpt><trkpt lat="41.004378937651175" lon="9.152675638296698"><ele>438.0</ele><time>2026-04-26T07:51:18.821Z</time></trkpt><trkpt lat="41.00417007272899" lon="9.152574082172785"><ele>438.0</ele><time>2026-04-26T07:51:19.821Z</time></trkpt><trkpt lat="41.003983522205374" lon="9.15253578865022"><ele>438.0</ele><time>2026-04-26T07:51:20.821Z</time></trkpt><trkpt lat="41.00382923320606" lon="9.152536692525825"><ele>442.0</ele><time>2026-04-26T07:51:21.821Z</time></trkpt><trkpt lat="41.00376236361812" lon="9.15246622437663"><ele>446.0</ele><time>2026-04-26T07:51:22.82Z</time></trkpt><trkpt lat="41.003717427790534" lon="9.152390370912357"><ele>450.0</ele><time>2026-04-26T07:51:23.82Z</time></trkpt><trkpt lat="41.00376531470453" lon="9.15218608102804"><ele>454.0</ele><time>2026-04-26T07:51:24.82Z</time></trkpt><trkpt lat="41.00374777444328" lon="9.15197191986335"><ele>454.0</ele><time>2026-04-26T07:51:25.82Z</time></trkpt><trkpt lat="41.00368107783588" lon="9.15172575268961"><ele>454.0</ele><time>2026-04-26T07:51:26.82Z</time></trkpt><trkpt lat="41.00356723146276" lon="9.151484715999445"><ele>454.0</ele><time>2026-04-26T07:51:27.82Z</time></trkpt><trkpt lat="41.00342812382874" lon="9.151286379876028"><ele>453.5</ele><time>2026-04-26T07:51:28.82Z</time></trkpt><trkpt lat="41.003247896944174" lon="9.151157908315524"><ele>453.0</ele><time>2026-04-26T07:51:29.82Z</time></trkpt><trkpt lat="41.002999894480965" lon="9.151076051825425"><ele>453.0</ele><time>2026-04-26T07:51:30.82Z</time></trkpt><trkpt lat="41.002744515090875" lon="9.150970803699657"><ele>453.0</ele><time>2026-04-26T07:51:31.82Z</time></trkpt><trkpt lat="41.00249022399198" lon="9.150832829727111"><ele>454.0</ele><time>2026-04-26T07:51:32.82Z</time></trkpt><trkpt lat="41.00224315863308" lon="9.150691297675602"><ele>455.0</ele><time>2026-04-26T07:51:33.82Z</time></trkpt><trkpt lat="41.00201109875385" lon="9.150572156096667"><ele>455.0</ele><time>2026-04-26T07:51:34.82Z</time></trkpt><trkpt lat="41.00181905463862" lon="9.15049657620595"><ele>455.0</ele><time>2026-04-26T07:51:35.82Z</time></trkpt><trkpt lat="41.00165495111709" lon="9.150489956226382"><ele>455.0</ele><time>2026-04-26T07:51:36.82Z</time></trkpt><trkpt lat="41.00150957281402" lon="9.150541229413449"><ele>457.25</ele><time>2026-04-26T07:51:37.82Z</time></trkpt><trkpt lat="41.00141921342273" lon="9.150421122460342"><ele>459.5</ele><time>2026-04-26T07:51:38.82Z</time></trkpt><trkpt lat="41.00132088325356" lon="9.150270009752761"><ele>461.75</ele><time>2026-04-26T07:51:39.82Z</time></trkpt><trkpt lat="41.00128821869182" lon="9.150091399606069"><ele>464.0</ele><time>2026-04-26T07:51:40.82Z</time></trkpt><trkpt lat="41.00129785734796" lon="9.149857827228564"><ele>464.0</ele><time>2026-04-26T07:51:41.82Z</time></trkpt><trkpt lat="41.00128382766133" lon="9.149607077759981"><ele>464.0</ele><time>2026-04-26T07:51:42.82Z</time></trkpt><trkpt lat="41.00122838794037" lon="9.149382460783638"><ele>464.0</ele><time>2026-04-26T07:51:43.82Z</time></trkpt><trkpt lat="41.001120396791585" lon="9.149184832516891"><ele>465.3333333333333</ele><time>2026-04-26T07:51:44.82Z</time></trkpt><trkpt lat="41.000986143876084" lon="9.148996161101177"><ele>466.66666666666663</ele><time>2026-04-26T07:51:45.82Z</time></trkpt><trkpt lat="41.00085885081128" lon="9.148778010435041"><ele>468.0</ele><time>2026-04-26T07:51:46.82Z</time></trkpt><trkpt lat="41.000762713980585" lon="9.14854194146367"><ele>465.33333333333337</ele><time>2026-04-26T07:51:47.819Z</time></trkpt><trkpt lat="41.00065628262359" lon="9.148321440512536"><ele>462.6666666666667</ele><time>2026-04-26T07:51:48.819Z</time></trkpt><trkpt lat="41.00053995785867" lon="9.148103095686094"><ele>460.0</ele><time>2026-04-26T07:51:49.819Z</time></trkpt><trkpt lat="41.00040365639464" lon="9.147893152226603"><ele>459.6666666666667</ele><time>2026-04-26T07:51:50.819Z</time></trkpt><trkpt lat="41.00026704239247" lon="9.147691168362872"><ele>459.33333333333337</ele><time>2026-04-26T07:51:51.819Z</time></trkpt><trkpt lat="41.00012139144409" lon="9.147480900725528"><ele>459.0</ele><time>2026-04-26T07:51:52.819Z</time></trkpt><trkpt lat="40.99998391356167" lon="9.147257788498763"><ele>461.5</ele><time>2026-04-26T07:51:53.819Z</time></trkpt><trkpt lat="40.99981278528519" lon="9.147070642296562"><ele>464.0</ele><time>2026-04-26T07:51:54.819Z</time></trkpt><trkpt lat="40.99963278144577" lon="9.146879127909148"><ele>464.0</ele><time>2026-04-26T07:51:55.819Z</time></trkpt><trkpt lat="40.99950760616732" lon="9.146623337381822"><ele>464.0</ele><time>2026-04-26T07:51:56.819Z</time></trkpt><trkpt lat="40.99931993701842" lon="9.146438521109708"><ele>463.5</ele><time>2026-04-26T07:51:57.819Z</time></trkpt><trkpt lat="40.999135424588275" lon="9.146252101784615"><ele>463.0</ele><time>2026-04-26T07:51:58.819Z</time></trkpt><trkpt lat="40.998982928449685" lon="9.146005339814312"><ele>463.0</ele><time>2026-04-26T07:51:59.819Z</time></trkpt><trkpt lat="40.99878738876323" lon="9.145821978309604"><ele>463.0</ele><time>2026-04-26T07:52:00.819Z</time></trkpt><trkpt lat="40.9985745526332" lon="9.145657407594246"><ele>462.0</ele><time>2026-04-26T07:52:01.819Z</time></trkpt><trkpt lat="40.99838831383258" lon="9.145426470165534"><ele>461.0</ele><time>2026-04-26T07:52:02.819Z</time></trkpt><trkpt lat="40.99817133879978" lon="9.145227954664973"><ele>461.0</ele><time>2026-04-26T07:52:03.819Z</time></trkpt><trkpt lat="40.99793546017046" lon="9.145080260617185"><ele>461.0</ele><time>2026-04-26T07:52:04.819Z</time></trkpt><trkpt lat="40.99770509251327" lon="9.144950707275271"><ele>461.66666666666663</ele><time>2026-04-26T07:52:05.819Z</time></trkpt><trkpt lat="40.99749901978343" lon="9.144807707617952"><ele>462.33333333333337</ele><time>2026-04-26T07:52:06.819Z</time></trkpt><trkpt lat="40.99731985870401" lon="9.1446479667571"><ele>463.0</ele><time>2026-04-26T07:52:07.819Z</time></trkpt><trkpt lat="40.99716906171274" lon="9.144480946906029"><ele>463.0</ele><time>2026-04-26T07:52:08.819Z</time></trkpt><trkpt lat="40.99706340459072" lon="9.144260489839594"><ele>463.0</ele><time>2026-04-26T07:52:09.819Z</time></trkpt><trkpt lat="40.99697706989985" lon="9.143991091036812"><ele>463.0</ele><time>2026-04-26T07:52:10.819Z</time></trkpt><trkpt lat="40.99682366476612" lon="9.14374785257318"><ele>459.0</ele><time>2026-04-26T07:52:11.818Z</time></trkpt><trkpt lat="40.99665858820743" lon="9.14352839372305"><ele>455.0</ele><time>2026-04-26T07:52:12.818Z</time></trkpt><trkpt lat="40.99650215175356" lon="9.14332696472744"><ele>458.66666666666663</ele><time>2026-04-26T07:52:13.818Z</time></trkpt><trkpt lat="40.996349305806184" lon="9.143132300392843"><ele>462.33333333333337</ele><time>2026-04-26T07:52:14.818Z</time></trkpt><trkpt lat="40.99619769146386" lon="9.142939204153558"><ele>466.0</ele><time>2026-04-26T07:52:15.818Z</time></trkpt><trkpt lat="40.995898066318674" lon="9.142931152998306"><ele>462.0</ele><time>2026-04-26T07:52:16.818Z</time></trkpt><trkpt lat="40.995705184555746" lon="9.14277047976104"><ele>458.0</ele><time>2026-04-26T07:52:17.818Z</time></trkpt><trkpt lat="40.99551969805177" lon="9.142578672856802"><ele>462.0</ele><time>2026-04-26T07:52:18.818Z</time></trkpt><trkpt lat="40.99533090056622" lon="9.142377625636646"><ele>466.0</ele><time>2026-04-26T07:52:19.818Z</time></trkpt><trkpt lat="40.99514054033867" lon="9.142168000071251"><ele>459.0</ele><time>2026-04-26T07:52:20.818Z</time></trkpt><trkpt lat="40.9949580428461" lon="9.14196191604989"><ele>452.0</ele><time>2026-04-26T07:52:21.818Z</time></trkpt><trkpt lat="40.99478809397085" lon="9.14177646994043"><ele>452.0</ele><time>2026-04-26T07:52:22.818Z</time></trkpt><trkpt lat="40.9946296524361" lon="9.141606867291115"><ele>452.0</ele><time>2026-04-26T07:52:23.818Z</time></trkpt><trkpt lat="40.994478162483524" lon="9.141443074475074"><ele>452.0</ele><time>2026-04-26T07:52:24.818Z</time></trkpt><trkpt lat="40.99432996627282" lon="9.141283636777217"><ele>451.66666666666663</ele><time>2026-04-26T07:52:25.819Z</time></trkpt><trkpt lat="40.99416730777852" lon="9.141115438219101"><ele>451.33333333333337</ele><time>2026-04-26T07:52:26.819Z</time></trkpt><trkpt lat="40.993989576387094" lon="9.140936688446587"><ele>451.0</ele><time>2026-04-26T07:52:27.819Z</time></trkpt><trkpt lat="40.99380612520001" lon="9.14075143106022"><ele>452.5</ele><time>2026-04-26T07:52:28.82Z</time></trkpt><trkpt lat="40.99361971924012" lon="9.140552299597827"><ele>454.0</ele><time>2026-04-26T07:52:29.819Z</time></trkpt><trkpt lat="40.993433026744945" lon="9.140353628590688"><ele>449.0</ele><time>2026-04-26T07:52:30.819Z</time></trkpt><trkpt lat="40.99324474138757" lon="9.140159215278235"><ele>444.0</ele><time>2026-04-26T07:52:31.819Z</time></trkpt><trkpt lat="40.99305943284136" lon="9.139962050657694"><ele>445.0</ele><time>2026-04-26T07:52:32.819Z</time></trkpt><trkpt lat="40.99287835323324" lon="9.139766340546625"><ele>446.0</ele><time>2026-04-26T07:52:33.819Z</time></trkpt><trkpt lat="40.992698879619375" lon="9.139571202097738"><ele>446.0</ele><time>2026-04-26T07:52:34.819Z</time></trkpt><trkpt lat="40.99251925363282" lon="9.139379911888218"><ele>446.0</ele><time>2026-04-26T07:52:35.819Z</time></trkpt><trkpt lat="40.99234479403726" lon="9.139190667355003"><ele>446.0</ele><time>2026-04-26T07:52:36.819Z</time></trkpt><trkpt lat="40.99216751295042" lon="9.13900495716695"><ele>446.0</ele><time>2026-04-26T07:52:37.819Z</time></trkpt><trkpt lat="40.991992563605955" lon="9.138820241321893"><ele>446.0</ele><time>2026-04-26T07:52:38.818Z</time></trkpt><trkpt lat="40.99183010524428" lon="9.138648653257684"><ele>446.0</ele><time>2026-04-26T07:52:39.818Z</time></trkpt><trkpt lat="40.99167801742605" lon="9.138487139503077"><ele>446.0</ele><time>2026-04-26T07:52:40.818Z</time></trkpt><trkpt lat="40.991536791533136" lon="9.138328131538843"><ele>445.66666666666663</ele><time>2026-04-26T07:52:41.818Z</time></trkpt><trkpt lat="40.99140917420849" lon="9.138181596868609"><ele>445.33333333333337</ele><time>2026-04-26T07:52:42.818Z</time></trkpt><trkpt lat="40.991281571844084" lon="9.138049771526804"><ele>445.0</ele><time>2026-04-26T07:52:43.818Z</time></trkpt><trkpt lat="40.9911538665545" lon="9.137922657775905"><ele>445.0</ele><time>2026-04-26T07:52:44.818Z</time></trkpt><trkpt lat="40.99102383247476" lon="9.13778274178784"><ele>445.0</ele><time>2026-04-26T07:52:45.818Z</time></trkpt><trkpt lat="40.990889510537144" lon="9.137634584021688"><ele>445.0</ele><time>2026-04-26T07:52:46.818Z</time></trkpt><trkpt lat="40.99074748289909" lon="9.137484134274615"><ele>445.6666666666667</ele><time>2026-04-26T07:52:47.818Z</time></trkpt><trkpt lat="40.99060483916377" lon="9.137331987009935"><ele>446.33333333333337</ele><time>2026-04-26T07:52:48.818Z</time></trkpt><trkpt lat="40.99045453821516" lon="9.137176384334918"><ele>447.0</ele><time>2026-04-26T07:52:49.818Z</time></trkpt><trkpt lat="40.99030095280541" lon="9.137016491167005"><ele>447.0</ele><time>2026-04-26T07:52:50.818Z</time></trkpt><trkpt lat="40.99013628220811" lon="9.136866826795519"><ele>447.0</ele><time>2026-04-26T07:52:51.818Z</time></trkpt><trkpt lat="40.98997150348376" lon="9.136707403049963"><ele>447.0</ele><time>2026-04-26T07:52:52.818Z</time></trkpt><trkpt lat="40.98979841479935" lon="9.136549084515115"><ele>446.0</ele><time>2026-04-26T07:52:53.818Z</time></trkpt><trkpt lat="40.98962904536019" lon="9.136375485912868"><ele>445.0</ele><time>2026-04-26T07:52:54.818Z</time></trkpt><trkpt lat="40.98946386484953" lon="9.136189411448271"><ele>444.0</ele><time>2026-04-26T07:52:55.818Z</time></trkpt><trkpt lat="40.9892957288796" lon="9.136010483025753"><ele>442.66666666666663</ele><time>2026-04-26T07:52:56.818Z</time></trkpt><trkpt lat="40.98912696903657" lon="9.13583522389915"><ele>441.3333333333333</ele><time>2026-04-26T07:52:57.818Z</time></trkpt><trkpt lat="40.98896207293987" lon="9.135664533449184"><ele>440.0</ele><time>2026-04-26T07:52:58.818Z</time></trkpt><trkpt lat="40.988799512385185" lon="9.135495748657773"><ele>440.0</ele><time>2026-04-26T07:52:59.818Z</time></trkpt><trkpt lat="40.988640043001304" lon="9.135323543803592"><ele>440.0</ele><time>2026-04-26T07:53:00.818Z</time></trkpt><trkpt lat="40.98848178957835" lon="9.135154657128492"><ele>440.0</ele><time>2026-04-26T07:53:01.818Z</time></trkpt><trkpt lat="40.988328281963156" lon="9.134986544756881"><ele>441.0</ele><time>2026-04-26T07:53:02.818Z</time></trkpt><trkpt lat="40.98817293818484" lon="9.134820645861849"><ele>442.0</ele><time>2026-04-26T07:53:03.817Z</time></trkpt><trkpt lat="40.988020017240444" lon="9.134657060864356"><ele>443.0</ele><time>2026-04-26T07:53:04.817Z</time></trkpt><trkpt lat="40.98786525282663" lon="9.13449023281023"><ele>443.0</ele><time>2026-04-26T07:53:05.817Z</time></trkpt><trkpt lat="40.98769912768253" lon="9.134320064086165"><ele>443.0</ele><time>2026-04-26T07:53:06.817Z</time></trkpt><trkpt lat="40.98752782350539" lon="9.13414268308845"><ele>443.0</ele><time>2026-04-26T07:53:07.817Z</time></trkpt><trkpt lat="40.987355048939975" lon="9.133954806726832"><ele>442.0</ele><time>2026-04-26T07:53:08.817Z</time></trkpt><trkpt lat="40.987176778742295" lon="9.133765147451316"><ele>441.0</ele><time>2026-04-26T07:53:09.817Z</time></trkpt><trkpt lat="40.98699336251533" lon="9.13357282041113"><ele>441.0</ele><time>2026-04-26T07:53:10.817Z</time></trkpt><trkpt lat="40.98680943923979" lon="9.133382718192728"><ele>441.0</ele><time>2026-04-26T07:53:11.817Z</time></trkpt><trkpt lat="40.986629427567806" lon="9.133187716049552"><ele>441.5</ele><time>2026-04-26T07:53:12.817Z</time></trkpt><trkpt lat="40.986451113654006" lon="9.132994353673597"><ele>442.0</ele><time>2026-04-26T07:53:13.817Z</time></trkpt><trkpt lat="40.98627459809126" lon="9.13280391878149"><ele>442.0</ele><time>2026-04-26T07:53:14.817Z</time></trkpt><trkpt lat="40.98610001877633" lon="9.132617893399413"><ele>442.0</ele><time>2026-04-26T07:53:15.817Z</time></trkpt><trkpt lat="40.98592401051473" lon="9.132433107063179"><ele>442.0</ele><time>2026-04-26T07:53:16.817Z</time></trkpt><trkpt lat="40.9857474726154" lon="9.132248575010692"><ele>440.0</ele><time>2026-04-26T07:53:17.817Z</time></trkpt><trkpt lat="40.985570005020584" lon="9.132065418132234"><ele>438.0</ele><time>2026-04-26T07:53:18.817Z</time></trkpt><trkpt lat="40.985393502544746" lon="9.131878762078326"><ele>438.0</ele><time>2026-04-26T07:53:19.817Z</time></trkpt><trkpt lat="40.985217528495944" lon="9.131692892153406"><ele>438.0</ele><time>2026-04-26T07:53:20.817Z</time></trkpt><trkpt lat="40.985040635193585" lon="9.13150813205837"><ele>437.0</ele><time>2026-04-26T07:53:21.817Z</time></trkpt><trkpt lat="40.9848731854038" lon="9.131312011489989"><ele>436.0</ele><time>2026-04-26T07:53:22.817Z</time></trkpt><trkpt lat="40.984697233160105" lon="9.131127153081554"><ele>435.0</ele><time>2026-04-26T07:53:23.817Z</time></trkpt><trkpt lat="40.98452165000197" lon="9.130942682358027"><ele>435.0</ele><time>2026-04-26T07:53:24.817Z</time></trkpt><trkpt lat="40.98434701525959" lon="9.130758648177403"><ele>435.0</ele><time>2026-04-26T07:53:25.817Z</time></trkpt><trkpt lat="40.98417244105285" lon="9.13057417019591"><ele>435.0</ele><time>2026-04-26T07:53:26.817Z</time></trkpt><trkpt lat="40.983998830593684" lon="9.130390710591882"><ele>436.33333333333337</ele><time>2026-04-26T07:53:27.816Z</time></trkpt><trkpt lat="40.98381536940684" lon="9.130223707374192"><ele>437.6666666666667</ele><time>2026-04-26T07:53:28.816Z</time></trkpt><trkpt lat="40.983645586137136" lon="9.130037539296696"><ele>439.0</ele><time>2026-04-26T07:53:29.816Z</time></trkpt><trkpt lat="40.98348172913279" lon="9.129840768900431"><ele>437.6666666666667</ele><time>2026-04-26T07:53:30.816Z</time></trkpt><trkpt lat="40.9833264613877" lon="9.12963707740357"><ele>436.33333333333337</ele><time>2026-04-26T07:53:31.816Z</time></trkpt><trkpt lat="40.98316846989407" lon="9.129431856301926"><ele>435.0</ele><time>2026-04-26T07:53:32.816Z</time></trkpt><trkpt lat="40.98301423525191" lon="9.129223998959691"><ele>437.0</ele><time>2026-04-26T07:53:33.816Z</time></trkpt><trkpt lat="40.98286665810874" lon="9.129031614485609"><ele>439.0</ele><time>2026-04-26T07:53:34.816Z</time></trkpt><trkpt lat="40.98272330238999" lon="9.128848115102109"><ele>441.0</ele><time>2026-04-26T07:53:35.816Z</time></trkpt><trkpt lat="40.98258461382132" lon="9.1286736390051"><ele>439.33333333333337</ele><time>2026-04-26T07:53:36.816Z</time></trkpt><trkpt lat="40.982450720554965" lon="9.128504808289838"><ele>437.6666666666667</ele><time>2026-04-26T07:53:37.816Z</time></trkpt><trkpt lat="40.982316364427064" lon="9.128334687782498"><ele>436.0</ele><time>2026-04-26T07:53:38.816Z</time></trkpt><trkpt lat="40.982181699345716" lon="9.128158492407909"><ele>436.0</ele><time>2026-04-26T07:53:39.816Z</time></trkpt><trkpt lat="40.98204646953327" lon="9.127975401972211"><ele>436.0</ele><time>2026-04-26T07:53:40.816Z</time></trkpt><trkpt lat="40.981907357212116" lon="9.127797387216335"><ele>436.0</ele><time>2026-04-26T07:53:41.816Z</time></trkpt><trkpt lat="40.98176712944148" lon="9.127616875191176"><ele>432.33333333333337</ele><time>2026-04-26T07:53:42.816Z</time></trkpt><trkpt lat="40.981637721620984" lon="9.127414389168365"><ele>428.66666666666663</ele><time>2026-04-26T07:53:43.816Z</time></trkpt><trkpt lat="40.98149543476633" lon="9.127228838547644"><ele>425.0</ele><time>2026-04-26T07:53:44.816Z</time></trkpt><trkpt lat="40.98135350139274" lon="9.127044002190507"><ele>425.0</ele><time>2026-04-26T07:53:45.816Z</time></trkpt><trkpt lat="40.981208061877226" lon="9.126853306983955"><ele>425.0</ele><time>2026-04-26T07:53:46.816Z</time></trkpt><trkpt lat="40.98106294940958" lon="9.126663623993812"><ele>425.0</ele><time>2026-04-26T07:53:47.816Z</time></trkpt><trkpt lat="40.980915954181434" lon="9.126473534143077"><ele>422.66666666666663</ele><time>2026-04-26T07:53:48.816Z</time></trkpt><trkpt lat="40.98076822568286" lon="9.126283586958895"><ele>420.33333333333337</ele><time>2026-04-26T07:53:49.816Z</time></trkpt><trkpt lat="40.98062361030222" lon="9.126090026132344"><ele>418.0</ele><time>2026-04-26T07:53:50.816Z</time></trkpt><trkpt lat="40.98047426769144" lon="9.12589685250485"><ele>417.0</ele><time>2026-04-26T07:53:51.815Z</time></trkpt><trkpt lat="40.98032593365277" lon="9.1257036106419"><ele>416.0</ele><time>2026-04-26T07:53:52.815Z</time></trkpt><trkpt lat="40.980176780324165" lon="9.125511458646944"><ele>415.0</ele><time>2026-04-26T07:53:53.815Z</time></trkpt><trkpt lat="40.98002627912173" lon="9.125320914730732"><ele>414.6666666666667</ele><time>2026-04-26T07:53:54.815Z</time></trkpt><trkpt lat="40.97987626467975" lon="9.125130797502756"><ele>414.33333333333337</ele><time>2026-04-26T07:53:55.815Z</time></trkpt><trkpt lat="40.97972889049926" lon="9.124936437841056"><ele>414.0</ele><time>2026-04-26T07:53:56.815Z</time></trkpt><trkpt lat="40.97958138573621" lon="9.124737790869348"><ele>413.66666666666663</ele><time>2026-04-26T07:53:57.815Z</time></trkpt><trkpt lat="40.97943045820755" lon="9.124542816865352"><ele>413.3333333333333</ele><time>2026-04-26T07:53:58.815Z</time></trkpt><trkpt lat="40.97927838147679" lon="9.124347599625613"><ele>413.0</ele><time>2026-04-26T07:53:59.815Z</time></trkpt><trkpt lat="40.979126311506214" lon="9.124153494117866"><ele>413.0</ele><time>2026-04-26T07:54:00.815Z</time></trkpt><trkpt lat="40.9789801700972" lon="9.123950939576646"><ele>413.0</ele><time>2026-04-26T07:54:01.815Z</time></trkpt><trkpt lat="40.978823988293165" lon="9.123759291760816"><ele>413.0</ele><time>2026-04-26T07:54:02.815Z</time></trkpt><trkpt lat="40.97867082934206" lon="9.123561591372395"><ele>413.0</ele><time>2026-04-26T07:54:03.815Z</time></trkpt><trkpt lat="40.97851806661324" lon="9.123364896660854"><ele>413.0</ele><time>2026-04-26T07:54:04.815Z</time></trkpt><trkpt lat="40.97836306699613" lon="9.12317056367162"><ele>413.0</ele><time>2026-04-26T07:54:05.815Z</time></trkpt><trkpt lat="40.97820699590121" lon="9.12298092051241"><ele>414.0</ele><time>2026-04-26T07:54:06.815Z</time></trkpt><trkpt lat="40.97806626145143" lon="9.122769615800564"><ele>415.0</ele><time>2026-04-26T07:54:07.815Z</time></trkpt><trkpt lat="40.97791505486463" lon="9.122573226730754"><ele>416.0</ele><time>2026-04-26T07:54:08.815Z</time></trkpt><trkpt lat="40.9777634095187" lon="9.12237656700981"><ele>416.66666666666663</ele><time>2026-04-26T07:54:09.815Z</time></trkpt><trkpt lat="40.977603237764036" lon="9.122190462967094"><ele>417.33333333333337</ele><time>2026-04-26T07:54:10.815Z</time></trkpt><trkpt lat="40.97744796514258" lon="9.121997440799111"><ele>418.0</ele><time>2026-04-26T07:54:11.815Z</time></trkpt><trkpt lat="40.97730548511249" lon="9.12178271245973"><ele>417.0</ele><time>2026-04-26T07:54:12.815Z</time></trkpt><trkpt lat="40.97714885092139" lon="9.121579583024804"><ele>416.0</ele><time>2026-04-26T07:54:13.815Z</time></trkpt><trkpt lat="40.976990815759905" lon="9.121374636756888"><ele>415.0</ele><time>2026-04-26T07:54:14.815Z</time></trkpt><trkpt lat="40.9768312409322" lon="9.121168137811795"><ele>414.6666666666667</ele><time>2026-04-26T07:54:15.814Z</time></trkpt><trkpt lat="40.97665903751871" lon="9.120976225771305"><ele>414.33333333333337</ele><time>2026-04-26T07:54:16.814Z</time></trkpt><trkpt lat="40.97651051172821" lon="9.120754620936026"><ele>414.0</ele><time>2026-04-26T07:54:17.814Z</time></trkpt><trkpt lat="40.976348225974306" lon="9.120555232227971"><ele>414.0</ele><time>2026-04-26T07:54:18.814Z</time></trkpt><trkpt lat="40.97618924929764" lon="9.12035037566242"><ele>414.0</ele><time>2026-04-26T07:54:19.814Z</time></trkpt><trkpt lat="40.97603153984012" lon="9.120146828432098"><ele>414.0</ele><time>2026-04-26T07:54:20.814Z</time></trkpt><trkpt lat="40.975874022086614" lon="9.119943510422091"><ele>413.33333333333337</ele><time>2026-04-26T07:54:21.814Z</time></trkpt><trkpt lat="40.97572096784191" lon="9.119741274355867"><ele>412.6666666666667</ele><time>2026-04-26T07:54:22.814Z</time></trkpt><trkpt lat="40.975566801236596" lon="9.119541097951085"><ele>412.0</ele><time>2026-04-26T07:54:23.814Z</time></trkpt><trkpt lat="40.97541966324179" lon="9.119341138311368"><ele>412.0</ele><time>2026-04-26T07:54:24.814Z</time></trkpt><trkpt lat="40.97527706900567" lon="9.119142839756602"><ele>412.0</ele><time>2026-04-26T07:54:25.814Z</time></trkpt><trkpt lat="40.975129620969156" lon="9.118952207673404"><ele>412.0</ele><time>2026-04-26T07:54:26.814Z</time></trkpt><trkpt lat="40.97498234420269" lon="9.118759594851133"><ele>412.0</ele><time>2026-04-26T07:54:27.814Z</time></trkpt><trkpt lat="40.97482178945694" lon="9.118583112251814"><ele>412.0</ele><time>2026-04-26T07:54:28.814Z</time></trkpt><trkpt lat="40.97465646378727" lon="9.118410967328595"><ele>412.0</ele><time>2026-04-26T07:54:29.814Z</time></trkpt><trkpt lat="40.974486395361225" lon="9.118252627076826"><ele>413.33333333333337</ele><time>2026-04-26T07:54:30.816Z</time></trkpt><trkpt lat="40.974319638181" lon="9.118081377523895"><ele>414.66666666666663</ele><time>2026-04-26T07:54:31.816Z</time></trkpt><trkpt lat="40.97414483929673" lon="9.117919850619865"><ele>416.0</ele><time>2026-04-26T07:54:32.816Z</time></trkpt><trkpt lat="40.9739684297121" lon="9.117756029754611"><ele>413.0</ele><time>2026-04-26T07:54:33.816Z</time></trkpt><trkpt lat="40.97379623328958" lon="9.117588258658062"><ele>410.0</ele><time>2026-04-26T07:54:34.816Z</time></trkpt><trkpt lat="40.97362631222558" lon="9.117420724782939"><ele>407.0</ele><time>2026-04-26T07:54:35.816Z</time></trkpt><trkpt lat="40.97345820919454" lon="9.117256242313292"><ele>405.3333333333333</ele><time>2026-04-26T07:54:36.815Z</time></trkpt><trkpt lat="40.97330003883441" lon="9.117099199020341"><ele>403.66666666666663</ele><time>2026-04-26T07:54:37.815Z</time></trkpt><trkpt lat="40.973150563653284" lon="9.116948015353987"><ele>402.0</ele><time>2026-04-26T07:54:38.815Z</time></trkpt><trkpt lat="40.97301018944628" lon="9.116809084714465"><ele>402.0</ele><time>2026-04-26T07:54:39.816Z</time></trkpt><trkpt lat="40.97287707612542" lon="9.116673757050068"><ele>402.0</ele><time>2026-04-26T07:54:40.815Z</time></trkpt><trkpt lat="40.972746755754905" lon="9.116542903289952"><ele>402.0</ele><time>2026-04-26T07:54:41.815Z</time></trkpt><trkpt lat="40.972614651308575" lon="9.116408221669587"><ele>402.33333333333337</ele><time>2026-04-26T07:54:42.815Z</time></trkpt><trkpt lat="40.972482500685636" lon="9.116271831729785"><ele>402.6666666666667</ele><time>2026-04-26T07:54:43.815Z</time></trkpt><trkpt lat="40.972351107239895" lon="9.116136110460554"><ele>403.0</ele><time>2026-04-26T07:54:44.815Z</time></trkpt><trkpt lat="40.972219840656855" lon="9.116001109648549"><ele>403.0</ele><time>2026-04-26T07:54:45.815Z</time></trkpt><trkpt lat="40.97208147946955" lon="9.115866213985777"><ele>403.0</ele><time>2026-04-26T07:54:46.815Z</time></trkpt><trkpt lat="40.97194154549305" lon="9.115725234527307"><ele>403.0</ele><time>2026-04-26T07:54:47.815Z</time></trkpt><trkpt lat="40.97179615600918" lon="9.11557598809093"><ele>402.6666666666667</ele><time>2026-04-26T07:54:48.815Z</time></trkpt><trkpt lat="40.97164390404948" lon="9.115422647356173"><ele>402.33333333333337</ele><time>2026-04-26T07:54:49.815Z</time></trkpt><trkpt lat="40.971485501730676" lon="9.115260949746439"><ele>402.0</ele><time>2026-04-26T07:54:50.815Z</time></trkpt><trkpt lat="40.971319666346744" lon="9.115093533322055"><ele>402.0</ele><time>2026-04-26T07:54:51.815Z</time></trkpt><trkpt lat="40.971148343870226" lon="9.11492454798649"><ele>402.0</ele><time>2026-04-26T07:54:52.815Z</time></trkpt><trkpt lat="40.97097344984322" lon="9.114745349946478"><ele>402.0</ele><time>2026-04-26T07:54:53.815Z</time></trkpt><trkpt lat="40.97079518529879" lon="9.114560303676365"><ele>402.0</ele><time>2026-04-26T07:54:54.815Z</time></trkpt><trkpt lat="40.970621012582136" lon="9.114382608424012"><ele>402.0</ele><time>2026-04-26T07:54:55.815Z</time></trkpt><trkpt lat="40.970462116471424" lon="9.114208292148929"><ele>402.0</ele><time>2026-04-26T07:54:56.815Z</time></trkpt><trkpt lat="40.97031506598881" lon="9.114042079238589"><ele>402.0</ele><time>2026-04-26T07:54:57.815Z</time></trkpt><trkpt lat="40.970167809709224" lon="9.113901283446237"><ele>402.0</ele><time>2026-04-26T07:54:58.815Z</time></trkpt><trkpt lat="40.97002594637919" lon="9.113768818755107"><ele>402.0</ele><time>2026-04-26T07:54:59.814Z</time></trkpt><trkpt lat="40.96988894259153" lon="9.113624015500333"><ele>401.66666666666663</ele><time>2026-04-26T07:55:00.814Z</time></trkpt><trkpt lat="40.96974517039452" lon="9.113478064920239"><ele>401.3333333333333</ele><time>2026-04-26T07:55:01.814Z</time></trkpt><trkpt lat="40.969593489058944" lon="9.113332623663227"><ele>401.0</ele><time>2026-04-26T07:55:02.814Z</time></trkpt><trkpt lat="40.96943963629809" lon="9.113182284185072"><ele>401.3333333333333</ele><time>2026-04-26T07:55:03.814Z</time></trkpt><trkpt lat="40.969288055527514" lon="9.11302544636246"><ele>401.66666666666663</ele><time>2026-04-26T07:55:04.814Z</time></trkpt><trkpt lat="40.9691298426051" lon="9.112870319911515"><ele>402.0</ele><time>2026-04-26T07:55:05.814Z</time></trkpt><trkpt lat="40.96896986250441" lon="9.112711750797635"><ele>402.0</ele><time>2026-04-26T07:55:06.814Z</time></trkpt><trkpt lat="40.96880820061667" lon="9.112554149961191"><ele>402.0</ele><time>2026-04-26T07:55:07.814Z</time></trkpt><trkpt lat="40.9686440668472" lon="9.112399051495137"><ele>402.0</ele><time>2026-04-26T07:55:08.814Z</time></trkpt><trkpt lat="40.96848126111934" lon="9.112241182102787"><ele>400.66666666666663</ele><time>2026-04-26T07:55:09.814Z</time></trkpt><trkpt lat="40.96831777410083" lon="9.112079663153452"><ele>399.3333333333333</ele><time>2026-04-26T07:55:10.814Z</time></trkpt><trkpt lat="40.96815108138507" lon="9.111914186937666"><ele>398.0</ele><time>2026-04-26T07:55:11.814Z</time></trkpt><trkpt lat="40.967981980195866" lon="9.11174752850749"><ele>398.0</ele><time>2026-04-26T07:55:12.814Z</time></trkpt><trkpt lat="40.96781072336395" lon="9.111579949955292"><ele>398.0</ele><time>2026-04-26T07:55:13.814Z</time></trkpt><trkpt lat="40.96763877484613" lon="9.111410473501248"><ele>398.0</ele><time>2026-04-26T07:55:14.814Z</time></trkpt><trkpt lat="40.9674717868838" lon="9.1112364815578"><ele>398.66666666666663</ele><time>2026-04-26T07:55:15.814Z</time></trkpt><trkpt lat="40.96730749997745" lon="9.111069643153831"><ele>399.33333333333337</ele><time>2026-04-26T07:55:16.814Z</time></trkpt><trkpt lat="40.9671459416014" lon="9.110898479196303"><ele>400.0</ele><time>2026-04-26T07:55:17.814Z</time></trkpt><trkpt lat="40.96698349732887" lon="9.110728679245112"><ele>400.0</ele><time>2026-04-26T07:55:18.814Z</time></trkpt><trkpt lat="40.9668270917814" lon="9.110565059591098"><ele>400.0</ele><time>2026-04-26T07:55:19.814Z</time></trkpt><trkpt lat="40.96667039928757" lon="9.110408289539228"><ele>400.0</ele><time>2026-04-26T07:55:20.814Z</time></trkpt><trkpt lat="40.96651793972884" lon="9.110256370005699"><ele>400.6666666666667</ele><time>2026-04-26T07:55:21.814Z</time></trkpt><trkpt lat="40.966362534375996" lon="9.110100249051976"><ele>401.33333333333337</ele><time>2026-04-26T07:55:22.814Z</time></trkpt><trkpt lat="40.966208388768926" lon="9.109943326784006"><ele>402.0</ele><time>2026-04-26T07:55:23.813Z</time></trkpt><trkpt lat="40.966058877040396" lon="9.109790146355234"><ele>402.33333333333337</ele><time>2026-04-26T07:55:24.813Z</time></trkpt><trkpt lat="40.96591157540307" lon="9.109639234807059"><ele>402.6666666666667</ele><time>2026-04-26T07:55:25.813Z</time></trkpt><trkpt lat="40.96576229091969" lon="9.10949136244188"><ele>403.0</ele><time>2026-04-26T07:55:26.813Z</time></trkpt><trkpt lat="40.965612605843475" lon="9.109343443143338"><ele>403.33333333333337</ele><time>2026-04-26T07:55:27.813Z</time></trkpt><trkpt lat="40.965463153271244" lon="9.109191370391615"><ele>403.66666666666663</ele><time>2026-04-26T07:55:28.813Z</time></trkpt><trkpt lat="40.96532088553693" lon="9.109021017255463"><ele>404.0</ele><time>2026-04-26T07:55:29.813Z</time></trkpt><trkpt lat="40.96516827983208" lon="9.10886677011948"><ele>403.3333333333333</ele><time>2026-04-26T07:55:30.813Z</time></trkpt><trkpt lat="40.965015245534474" lon="9.108712089755391"><ele>402.66666666666663</ele><time>2026-04-26T07:55:31.813Z</time></trkpt><trkpt lat="40.96486204733451" lon="9.108557243743311"><ele>402.0</ele><time>2026-04-26T07:55:32.813Z</time></trkpt><trkpt lat="40.964707078964985" lon="9.108400608500435"><ele>402.0</ele><time>2026-04-26T07:55:33.813Z</time></trkpt><trkpt lat="40.96455306296306" lon="9.108244935869093"><ele>402.0</ele><time>2026-04-26T07:55:34.813Z</time></trkpt><trkpt lat="40.9643980646852" lon="9.108088270423425"><ele>402.0</ele><time>2026-04-26T07:55:35.813Z</time></trkpt><trkpt lat="40.96424040086118" lon="9.107928910737858"><ele>401.33333333333337</ele><time>2026-04-26T07:55:36.813Z</time></trkpt><trkpt lat="40.964086508624206" lon="9.107773362508173"><ele>400.6666666666667</ele><time>2026-04-26T07:55:37.813Z</time></trkpt><trkpt lat="40.9639289397208" lon="9.10761499375971"><ele>400.0</ele><time>2026-04-26T07:55:38.813Z</time></trkpt><trkpt lat="40.963766810305394" lon="9.107467999015777"><ele>399.6666666666667</ele><time>2026-04-26T07:55:39.813Z</time></trkpt><trkpt lat="40.96364322784152" lon="9.107266332776026"><ele>399.33333333333337</ele><time>2026-04-26T07:55:40.813Z</time></trkpt><trkpt lat="40.96351996509035" lon="9.107065970304655"><ele>399.0</ele><time>2026-04-26T07:55:41.813Z</time></trkpt><trkpt lat="40.96339936080836" lon="9.10686283899486"><ele>399.66666666666663</ele><time>2026-04-26T07:55:42.813Z</time></trkpt><trkpt lat="40.96327574851202" lon="9.106654287480856"><ele>400.3333333333333</ele><time>2026-04-26T07:55:43.813Z</time></trkpt><trkpt lat="40.96315271307545" lon="9.10644610165406"><ele>401.0</ele><time>2026-04-26T07:55:44.813Z</time></trkpt><trkpt lat="40.963017556238306" lon="9.10625157774604"><ele>401.3333333333333</ele><time>2026-04-26T07:55:45.813Z</time></trkpt><trkpt lat="40.96289497390797" lon="9.106043805014812"><ele>401.66666666666663</ele><time>2026-04-26T07:55:46.813Z</time></trkpt><trkpt lat="40.96278600610664" lon="9.105825604168238"><ele>402.0</ele><time>2026-04-26T07:55:47.813Z</time></trkpt><trkpt lat="40.96266425675299" lon="9.105619594603997"><ele>402.66666666666663</ele><time>2026-04-26T07:55:48.812Z</time></trkpt><trkpt lat="40.962542686174004" lon="9.105413887419616"><ele>403.3333333333333</ele><time>2026-04-26T07:55:49.812Z</time></trkpt><trkpt lat="40.96240948673294" lon="9.105221994423534"><ele>404.0</ele><time>2026-04-26T07:55:50.812Z</time></trkpt><trkpt lat="40.962287633651435" lon="9.105009415188288"><ele>405.3333333333333</ele><time>2026-04-26T07:55:51.812Z</time></trkpt><trkpt lat="40.962161884577256" lon="9.104795494074082"><ele>406.66666666666663</ele><time>2026-04-26T07:55:52.812Z</time></trkpt><trkpt lat="40.96205043902341" lon="9.104571925534014"><ele>408.0</ele><time>2026-04-26T07:55:53.812Z</time></trkpt><trkpt lat="40.96193049515532" lon="9.104365868743985"><ele>408.0</ele><time>2026-04-26T07:55:54.812Z</time></trkpt><trkpt lat="40.96180616497276" lon="9.104180726596661"><ele>408.0</ele><time>2026-04-26T07:55:55.812Z</time></trkpt><trkpt lat="40.96166020635497" lon="9.104028121469957"><ele>408.0</ele><time>2026-04-26T07:55:56.812Z</time></trkpt><trkpt lat="40.961479547025334" lon="9.103930743154466"><ele>408.33333333333337</ele><time>2026-04-26T07:55:57.812Z</time></trkpt><trkpt lat="40.961286129658646" lon="9.103885888559413"><ele>408.6666666666667</ele><time>2026-04-26T07:55:58.812Z</time></trkpt><trkpt lat="40.961094388103334" lon="9.103831774295443"><ele>409.0</ele><time>2026-04-26T07:55:59.812Z</time></trkpt><trkpt lat="40.96089483201909" lon="9.103803575831947"><ele>410.0</ele><time>2026-04-26T07:56:00.812Z</time></trkpt><trkpt lat="40.960693918477595" lon="9.103738843259912"><ele>411.0</ele><time>2026-04-26T07:56:01.812Z</time></trkpt><trkpt lat="40.96049459426875" lon="9.10369261235375"><ele>412.0</ele><time>2026-04-26T07:56:02.812Z</time></trkpt><trkpt lat="40.96031066510181" lon="9.10364508048622"><ele>412.0</ele><time>2026-04-26T07:56:03.812Z</time></trkpt><trkpt lat="40.960142164823104" lon="9.103589227033833"><ele>412.0</ele><time>2026-04-26T07:56:04.812Z</time></trkpt><trkpt lat="40.959968650771906" lon="9.103493372980061"><ele>412.0</ele><time>2026-04-26T07:56:05.812Z</time></trkpt><trkpt lat="40.959788469598166" lon="9.103362788784098"><ele>412.33333333333337</ele><time>2026-04-26T07:56:06.812Z</time></trkpt><trkpt lat="40.95960271289917" lon="9.103220703581231"><ele>412.66666666666663</ele><time>2026-04-26T07:56:07.812Z</time></trkpt><trkpt lat="40.959409781997955" lon="9.1030727426239"><ele>413.0</ele><time>2026-04-26T07:56:08.812Z</time></trkpt><trkpt lat="40.95921047443316" lon="9.102919891310261"><ele>411.0</ele><time>2026-04-26T07:56:09.812Z</time></trkpt><trkpt lat="40.95900082226433" lon="9.102774531905295"><ele>409.0</ele><time>2026-04-26T07:56:10.812Z</time></trkpt><trkpt lat="40.958799923791325" lon="9.10261589929152"><ele>409.0</ele><time>2026-04-26T07:56:11.812Z</time></trkpt><trkpt lat="40.95860147621368" lon="9.102453368320658"><ele>409.0</ele><time>2026-04-26T07:56:12.811Z</time></trkpt><trkpt lat="40.95840115832374" lon="9.102302511156829"><ele>408.6666666666667</ele><time>2026-04-26T07:56:13.811Z</time></trkpt><trkpt lat="40.95820026808889" lon="9.102166562568446"><ele>408.33333333333337</ele><time>2026-04-26T07:56:14.811Z</time></trkpt><trkpt lat="40.95801092505588" lon="9.10201080608879"><ele>408.0</ele><time>2026-04-26T07:56:15.811Z</time></trkpt><trkpt lat="40.957825397857455" lon="9.101863828810792"><ele>408.0</ele><time>2026-04-26T07:56:16.811Z</time></trkpt><trkpt lat="40.957639861241354" lon="9.101726744213984"><ele>408.0</ele><time>2026-04-26T07:56:17.811Z</time></trkpt><trkpt lat="40.95745387632109" lon="9.101599034339293"><ele>408.0</ele><time>2026-04-26T07:56:18.811Z</time></trkpt><trkpt lat="40.95727032809188" lon="9.101475985345951"><ele>408.33333333333337</ele><time>2026-04-26T07:56:19.811Z</time></trkpt><trkpt lat="40.957091669521056" lon="9.101343225229474"><ele>408.6666666666667</ele><time>2026-04-26T07:56:20.811Z</time></trkpt><trkpt lat="40.95691733149763" lon="9.101209474202202"><ele>409.0</ele><time>2026-04-26T07:56:21.811Z</time></trkpt><trkpt lat="40.956739601968856" lon="9.1010772561053"><ele>409.0</ele><time>2026-04-26T07:56:22.811Z</time></trkpt><trkpt lat="40.95655574345221" lon="9.100947126686638"><ele>409.0</ele><time>2026-04-26T07:56:23.811Z</time></trkpt><trkpt lat="40.95637169520172" lon="9.100807802786932"><ele>409.0</ele><time>2026-04-26T07:56:24.811Z</time></trkpt><trkpt lat="40.95619033956308" lon="9.100664509306295"><ele>409.0</ele><time>2026-04-26T07:56:25.811Z</time></trkpt><trkpt lat="40.95600329516104" lon="9.100523566130699"><ele>409.0</ele><time>2026-04-26T07:56:26.811Z</time></trkpt><trkpt lat="40.95581732251181" lon="9.100372581698192"><ele>409.0</ele><time>2026-04-26T07:56:27.811Z</time></trkpt><trkpt lat="40.95562991822814" lon="9.100222112410247"><ele>410.33333333333337</ele><time>2026-04-26T07:56:28.811Z</time></trkpt><trkpt lat="40.955439869286344" lon="9.100073897244165"><ele>411.66666666666663</ele><time>2026-04-26T07:56:29.811Z</time></trkpt><trkpt lat="40.95524689966997" lon="9.099925998656063"><ele>413.0</ele><time>2026-04-26T07:56:30.811Z</time></trkpt><trkpt lat="40.955054787403746" lon="9.099770632442441"><ele>413.5</ele><time>2026-04-26T07:56:31.811Z</time></trkpt><trkpt lat="40.95486247875086" lon="9.099610131645385"><ele>414.0</ele><time>2026-04-26T07:56:32.811Z</time></trkpt><trkpt lat="40.95466587637914" lon="9.099453759576722"><ele>414.0</ele><time>2026-04-26T07:56:33.811Z</time></trkpt><trkpt lat="40.95446362591613" lon="9.099306983904185"><ele>414.0</ele><time>2026-04-26T07:56:34.811Z</time></trkpt><trkpt lat="40.954258047544506" lon="9.099159046538977"><ele>415.5</ele><time>2026-04-26T07:56:35.811Z</time></trkpt><trkpt lat="40.9540520841267" lon="9.09900427050025"><ele>417.0</ele><time>2026-04-26T07:56:36.813Z</time></trkpt><trkpt lat="40.95384554996069" lon="9.098841980848812"><ele>417.0</ele><time>2026-04-26T07:56:37.812Z</time></trkpt><trkpt lat="40.95363720278295" lon="9.098678106574539"><ele>417.0</ele><time>2026-04-26T07:56:38.812Z</time></trkpt><trkpt lat="40.95343011280688" lon="9.098523539258617"><ele>418.0</ele><time>2026-04-26T07:56:39.813Z</time></trkpt><trkpt lat="40.95322656015703" lon="9.098376339910036"><ele>419.0</ele><time>2026-04-26T07:56:40.811Z</time></trkpt><trkpt lat="40.95303204654138" lon="9.098235328704849"><ele>419.66666666666663</ele><time>2026-04-26T07:56:41.811Z</time></trkpt><trkpt lat="40.95285376524206" lon="9.098099428482975"><ele>420.33333333333337</ele><time>2026-04-26T07:56:42.812Z</time></trkpt><trkpt lat="40.95270070135765" lon="9.097936330110706"><ele>421.0</ele><time>2026-04-26T07:56:43.812Z</time></trkpt><trkpt lat="40.952582204926316" lon="9.097725464715811"><ele>420.33333333333337</ele><time>2026-04-26T07:56:44.812Z</time></trkpt><trkpt lat="40.95250342682497" lon="9.0974879362445"><ele>419.66666666666663</ele><time>2026-04-26T07:56:45.812Z</time></trkpt><trkpt lat="40.95246314400382" lon="9.097201999661307"><ele>419.0</ele><time>2026-04-26T07:56:46.812Z</time></trkpt><trkpt lat="40.952428286820606" lon="9.096916552098765"><ele>419.0</ele><time>2026-04-26T07:56:47.812Z</time></trkpt><trkpt lat="40.95240022417306" lon="9.096634930878137"><ele>419.0</ele><time>2026-04-26T07:56:48.812Z</time></trkpt><trkpt lat="40.952371957761876" lon="9.096383922177958"><ele>419.0</ele><time>2026-04-26T07:56:49.811Z</time></trkpt><trkpt lat="40.95234564802678" lon="9.096184785783722"><ele>419.75</ele><time>2026-04-26T07:56:50.811Z</time></trkpt><trkpt lat="40.952286050526645" lon="9.096043935358544"><ele>420.5</ele><time>2026-04-26T07:56:51.811Z</time></trkpt><trkpt lat="40.952163019697295" lon="9.095974952134775"><ele>421.25</ele><time>2026-04-26T07:56:52.811Z</time></trkpt><trkpt lat="40.952008712380724" lon="9.096002685772387"><ele>422.0</ele><time>2026-04-26T07:56:53.811Z</time></trkpt><trkpt lat="40.95183690235722" lon="9.09608832229634"><ele>422.0</ele><time>2026-04-26T07:56:54.811Z</time></trkpt><trkpt lat="40.95165589906781" lon="9.09619936501364"><ele>422.0</ele><time>2026-04-26T07:56:55.811Z</time></trkpt><trkpt lat="40.951475682200844" lon="9.096295659768325"><ele>422.0</ele><time>2026-04-26T07:56:56.811Z</time></trkpt><trkpt lat="40.95129711661929" lon="9.09639966108441"><ele>422.0</ele><time>2026-04-26T07:56:57.811Z</time></trkpt><trkpt lat="40.95112128663259" lon="9.09650497030337"><ele>422.0</ele><time>2026-04-26T07:56:58.811Z</time></trkpt><trkpt lat="40.95095797502278" lon="9.096558148617824"><ele>422.0</ele><time>2026-04-26T07:56:59.811Z</time></trkpt><trkpt lat="40.95079529187" lon="9.096554620203559"><ele>424.3333333333333</ele><time>2026-04-26T07:57:00.811Z</time></trkpt><trkpt lat="40.95063184751239" lon="9.096480161693805"><ele>426.66666666666663</ele><time>2026-04-26T07:57:01.811Z</time></trkpt><trkpt lat="40.95048061245763" lon="9.096357328408716"><ele>429.0</ele><time>2026-04-26T07:57:02.811Z</time></trkpt><trkpt lat="40.950324802136294" lon="9.096208806703421"><ele>429.0</ele><time>2026-04-26T07:57:03.811Z</time></trkpt><trkpt lat="40.95016254835149" lon="9.096056617386568"><ele>429.0</ele><time>2026-04-26T07:57:04.811Z</time></trkpt><trkpt lat="40.94999448475484" lon="9.095894287793545"><ele>429.0</ele><time>2026-04-26T07:57:05.811Z</time></trkpt><trkpt lat="40.94983029437685" lon="9.095700145495183"><ele>429.5</ele><time>2026-04-26T07:57:06.811Z</time></trkpt><trkpt lat="40.94965906371291" lon="9.095501412505925"><ele>430.0</ele><time>2026-04-26T07:57:07.811Z</time></trkpt><trkpt lat="40.94948385297298" lon="9.095307205533906"><ele>430.0</ele><time>2026-04-26T07:57:08.811Z</time></trkpt><trkpt lat="40.949309262175085" lon="9.095120411771132"><ele>430.0</ele><time>2026-04-26T07:57:09.81Z</time></trkpt><trkpt lat="40.94913236878437" lon="9.09495167744833"><ele>430.0</ele><time>2026-04-26T07:57:10.81Z</time></trkpt><trkpt lat="40.94897420618608" lon="9.094767896901844"><ele>430.6666666666667</ele><time>2026-04-26T07:57:11.81Z</time></trkpt><trkpt lat="40.948810042318975" lon="9.094606404543702"><ele>431.33333333333337</ele><time>2026-04-26T07:57:12.81Z</time></trkpt><trkpt lat="40.94867292741386" lon="9.094414961920743"><ele>432.0</ele><time>2026-04-26T07:57:13.81Z</time></trkpt><trkpt lat="40.94855027967625" lon="9.094193613622018"><ele>432.66666666666663</ele><time>2026-04-26T07:57:14.81Z</time></trkpt><trkpt lat="40.948432345185" lon="9.093951534633003"><ele>433.3333333333333</ele><time>2026-04-26T07:57:15.81Z</time></trkpt><trkpt lat="40.948307946160455" lon="9.093714894322387"><ele>434.0</ele><time>2026-04-26T07:57:16.81Z</time></trkpt><trkpt lat="40.948187426036476" lon="9.09347251423749"><ele>432.0</ele><time>2026-04-26T07:57:17.81Z</time></trkpt><trkpt lat="40.948094789494604" lon="9.093213782111523"><ele>430.0</ele><time>2026-04-26T07:57:18.81Z</time></trkpt><trkpt lat="40.94804303048914" lon="9.092940334336278"><ele>428.0</ele><time>2026-04-26T07:57:19.81Z</time></trkpt><trkpt lat="40.9480183063316" lon="9.092649062233043"><ele>427.3333333333333</ele><time>2026-04-26T07:57:20.81Z</time></trkpt><trkpt lat="40.94800624859674" lon="9.092382797558788"><ele>426.66666666666663</ele><time>2026-04-26T07:57:21.81Z</time></trkpt><trkpt lat="40.947952689894365" lon="9.09215383991252"><ele>426.0</ele><time>2026-04-26T07:57:22.81Z</time></trkpt><trkpt lat="40.94785882307266" lon="9.091959150834201"><ele>426.0</ele><time>2026-04-26T07:57:23.81Z</time></trkpt><trkpt lat="40.94779900223052" lon="9.091770465693042"><ele>426.0</ele><time>2026-04-26T07:57:24.81Z</time></trkpt><trkpt lat="40.947810642777554" lon="9.091571136695244"><ele>426.0</ele><time>2026-04-26T07:57:25.81Z</time></trkpt><trkpt lat="40.94781838122636" lon="9.091379868036425"><ele>425.75</ele><time>2026-04-26T07:57:26.81Z</time></trkpt><trkpt lat="40.94774184531901" lon="9.091229094079475"><ele>425.5</ele><time>2026-04-26T07:57:27.81Z</time></trkpt><trkpt lat="40.94762349709811" lon="9.091132820852208"><ele>425.25</ele><time>2026-04-26T07:57:28.81Z</time></trkpt><trkpt lat="40.94750795703306" lon="9.090999740477718"><ele>425.0</ele><time>2026-04-26T07:57:29.81Z</time></trkpt><trkpt lat="40.947430644646694" lon="9.090811032669126"><ele>423.0</ele><time>2026-04-26T07:57:30.81Z</time></trkpt><trkpt lat="40.94740609224844" lon="9.090586627932336"><ele>421.0</ele><time>2026-04-26T07:57:31.81Z</time></trkpt><trkpt lat="40.947364712781535" lon="9.090397029258163"><ele>419.0</ele><time>2026-04-26T07:57:32.81Z</time></trkpt><trkpt lat="40.9472819945696" lon="9.090271612963488"><ele>417.0</ele><time>2026-04-26T07:57:33.81Z</time></trkpt><trkpt lat="40.94716544887896" lon="9.090230270411991"><ele>417.0</ele><time>2026-04-26T07:57:34.809Z</time></trkpt><trkpt lat="40.947035369421044" lon="9.090245553430053"><ele>417.0</ele><time>2026-04-26T07:57:35.809Z</time></trkpt><trkpt lat="40.94692123279369" lon="9.090328537783503"><ele>417.0</ele><time>2026-04-26T07:57:36.809Z</time></trkpt><trkpt lat="40.94685323030984" lon="9.090465789879095"><ele>417.0</ele><time>2026-04-26T07:57:37.809Z</time></trkpt><trkpt lat="40.946818970318255" lon="9.090642354780849"><ele>416.75</ele><time>2026-04-26T07:57:38.809Z</time></trkpt><trkpt lat="40.946778895137044" lon="9.09082130185394"><ele>416.5</ele><time>2026-04-26T07:57:39.809Z</time></trkpt><trkpt lat="40.94671109848848" lon="9.09098931410081"><ele>416.25</ele><time>2026-04-26T07:57:40.809Z</time></trkpt><trkpt lat="40.946604209501324" lon="9.091134870027057"><ele>416.0</ele><time>2026-04-26T07:57:41.809Z</time></trkpt><trkpt lat="40.94651149620254" lon="9.091307106598789"><ele>415.3333333333333</ele><time>2026-04-26T07:57:42.809Z</time></trkpt><trkpt lat="40.946398723039394" lon="9.09147425779117"><ele>414.66666666666663</ele><time>2026-04-26T07:57:43.809Z</time></trkpt><trkpt lat="40.946257029932035" lon="9.091600536107036"><ele>414.0</ele><time>2026-04-26T07:57:44.809Z</time></trkpt><trkpt lat="40.94609299700346" lon="9.09170815023092"><ele>414.0</ele><time>2026-04-26T07:57:45.809Z</time></trkpt><trkpt lat="40.945917272118294" lon="9.09181481736"><ele>414.0</ele><time>2026-04-26T07:57:46.809Z</time></trkpt><trkpt lat="40.945743493767445" lon="9.09193087010758"><ele>414.0</ele><time>2026-04-26T07:57:47.809Z</time></trkpt><trkpt lat="40.945573835847526" lon="9.092035413726654"><ele>414.33333333333337</ele><time>2026-04-26T07:57:48.809Z</time></trkpt><trkpt lat="40.94542099604482" lon="9.092138729752639"><ele>414.6666666666667</ele><time>2026-04-26T07:57:49.809Z</time></trkpt><trkpt lat="40.94531642498066" lon="9.092301689366685"><ele>415.0</ele><time>2026-04-26T07:57:50.809Z</time></trkpt><trkpt lat="40.94526493001446" lon="9.09250860838346"><ele>415.0</ele><time>2026-04-26T07:57:51.809Z</time></trkpt><trkpt lat="40.94521914474904" lon="9.092731780739797"><ele>415.0</ele><time>2026-04-26T07:57:52.809Z</time></trkpt><trkpt lat="40.94514964211391" lon="9.092959925741964"><ele>415.0</ele><time>2026-04-26T07:57:53.809Z</time></trkpt><trkpt lat="40.94507133608736" lon="9.093154542343157"><ele>417.0</ele><time>2026-04-26T07:57:54.809Z</time></trkpt><trkpt lat="40.94494443967822" lon="9.093259996461784"><ele>419.0</ele><time>2026-04-26T07:57:55.809Z</time></trkpt><trkpt lat="40.94478056854653" lon="9.093346217357473"><ele>421.0</ele><time>2026-04-26T07:57:56.809Z</time></trkpt><trkpt lat="40.94461746524711" lon="9.09332681355125"><ele>422.0</ele><time>2026-04-26T07:57:57.809Z</time></trkpt><trkpt lat="40.94449220634683" lon="9.093196835816546"><ele>423.0</ele><time>2026-04-26T07:57:58.808Z</time></trkpt><trkpt lat="40.944380986361494" lon="9.093033512121613"><ele>424.0</ele><time>2026-04-26T07:57:59.808Z</time></trkpt><trkpt lat="40.94429137334837" lon="9.092809385311162"><ele>424.0</ele><time>2026-04-26T07:58:00.808Z</time></trkpt><trkpt lat="40.94421942596399" lon="9.092562832523026"><ele>424.0</ele><time>2026-04-26T07:58:01.808Z</time></trkpt><trkpt lat="40.944175278493226" lon="9.092305660761854"><ele>424.0</ele><time>2026-04-26T07:58:02.808Z</time></trkpt><trkpt lat="40.94413922832265" lon="9.092073498409725"><ele>424.25</ele><time>2026-04-26T07:58:03.808Z</time></trkpt><trkpt lat="40.944078513719425" lon="9.091887064941947"><ele>424.5</ele><time>2026-04-26T07:58:04.808Z</time></trkpt><trkpt lat="40.94398632757923" lon="9.09175614295196"><ele>424.75</ele><time>2026-04-26T07:58:05.808Z</time></trkpt><trkpt lat="40.9438658479307" lon="9.091731294766374"><ele>425.0</ele><time>2026-04-26T07:58:06.808Z</time></trkpt><trkpt lat="40.943729392486645" lon="9.09180349655928"><ele>425.0</ele><time>2026-04-26T07:58:07.808Z</time></trkpt><trkpt lat="40.943576595495195" lon="9.091930162917361"><ele>425.0</ele><time>2026-04-26T07:58:08.808Z</time></trkpt><trkpt lat="40.943407236330586" lon="9.092072686598716"><ele>425.0</ele><time>2026-04-26T07:58:09.808Z</time></trkpt><trkpt lat="40.94325376504251" lon="9.092118591589166"><ele>425.66666666666663</ele><time>2026-04-26T07:58:10.808Z</time></trkpt><trkpt lat="40.94311437110119" lon="9.092061881988265"><ele>426.33333333333337</ele><time>2026-04-26T07:58:11.808Z</time></trkpt><trkpt lat="40.94300838839334" lon="9.091893998196817"><ele>427.0</ele><time>2026-04-26T07:58:12.808Z</time></trkpt><trkpt lat="40.94292052484941" lon="9.091676006822087"><ele>428.33333333333337</ele><time>2026-04-26T07:58:13.808Z</time></trkpt><trkpt lat="40.9428261067272" lon="9.091447666030403"><ele>429.66666666666663</ele><time>2026-04-26T07:58:14.808Z</time></trkpt><trkpt lat="40.94272355961413" lon="9.0912274928518"><ele>431.0</ele><time>2026-04-26T07:58:15.808Z</time></trkpt><trkpt lat="40.94263491148232" lon="9.091049203342884"><ele>430.25</ele><time>2026-04-26T07:58:16.808Z</time></trkpt><trkpt lat="40.94253338738172" lon="9.09091960813236"><ele>429.5</ele><time>2026-04-26T07:58:17.808Z</time></trkpt><trkpt lat="40.94240711786224" lon="9.090892227163645"><ele>428.75</ele><time>2026-04-26T07:58:18.808Z</time></trkpt><trkpt lat="40.94229007706382" lon="9.09098092281325"><ele>428.0</ele><time>2026-04-26T07:58:19.808Z</time></trkpt><trkpt lat="40.94221629066461" lon="9.091142195457993"><ele>428.0</ele><time>2026-04-26T07:58:20.808Z</time></trkpt><trkpt lat="40.94221368079598" lon="9.091347571628352"><ele>428.0</ele><time>2026-04-26T07:58:21.808Z</time></trkpt><trkpt lat="40.94225010203531" lon="9.091571686989047"><ele>428.0</ele><time>2026-04-26T07:58:22.807Z</time></trkpt><trkpt lat="40.94224464870506" lon="9.091799901725246"><ele>427.3333333333333</ele><time>2026-04-26T07:58:23.807Z</time></trkpt><trkpt lat="40.942205946092635" lon="9.0920080126523"><ele>426.66666666666663</ele><time>2026-04-26T07:58:24.807Z</time></trkpt><trkpt lat="40.94209485257148" lon="9.092187240116791"><ele>426.0</ele><time>2026-04-26T07:58:25.807Z</time></trkpt><trkpt lat="40.941988081097264" lon="9.092387034178824"><ele>425.33333333333337</ele><time>2026-04-26T07:58:26.807Z</time></trkpt><trkpt lat="40.941857195529046" lon="9.09257442519604"><ele>424.6666666666667</ele><time>2026-04-26T07:58:27.807Z</time></trkpt><trkpt lat="40.94172536477428" lon="9.092754512609659"><ele>424.0</ele><time>2026-04-26T07:58:28.807Z</time></trkpt><trkpt lat="40.94157768827011" lon="9.09290246017942"><ele>428.0</ele><time>2026-04-26T07:58:29.807Z</time></trkpt><trkpt lat="40.9414076009896" lon="9.092996914354833"><ele>432.0</ele><time>2026-04-26T07:58:30.807Z</time></trkpt><trkpt lat="40.941225882493086" lon="9.093047994184424"><ele>436.0</ele><time>2026-04-26T07:58:31.807Z</time></trkpt><trkpt lat="40.94104350633582" lon="9.093070127287707"><ele>439.0</ele><time>2026-04-26T07:58:32.807Z</time></trkpt><trkpt lat="40.94085717084392" lon="9.0930864804619"><ele>442.0</ele><time>2026-04-26T07:58:33.807Z</time></trkpt><trkpt lat="40.94066448759697" lon="9.093100260210786"><ele>445.0</ele><time>2026-04-26T07:58:34.807Z</time></trkpt><trkpt lat="40.94045639565024" lon="9.093132981781755"><ele>445.0</ele><time>2026-04-26T07:58:35.807Z</time></trkpt><trkpt lat="40.94023960001943" lon="9.09315778835513"><ele>445.0</ele><time>2026-04-26T07:58:36.807Z</time></trkpt><trkpt lat="40.94001012069683" lon="9.093188203155933"><ele>445.0</ele><time>2026-04-26T07:58:37.807Z</time></trkpt><trkpt lat="40.93977409508992" lon="9.093220330604526"><ele>445.0</ele><time>2026-04-26T07:58:38.807Z</time></trkpt><trkpt lat="40.93953302360081" lon="9.093241665161207"><ele>445.0</ele><time>2026-04-26T07:58:39.807Z</time></trkpt><trkpt lat="40.93929424141915" lon="9.093265483126439"><ele>441.5</ele><time>2026-04-26T07:58:40.807Z</time></trkpt><trkpt lat="40.93904298604006" lon="9.093298262438937"><ele>438.0</ele><time>2026-04-26T07:58:41.807Z</time></trkpt><trkpt lat="40.93879176090352" lon="9.093331310500638"><ele>438.0</ele><time>2026-04-26T07:58:42.809Z</time></trkpt><trkpt lat="40.93854452345999" lon="9.093358101739387"><ele>438.0</ele><time>2026-04-26T07:58:43.808Z</time></trkpt><trkpt lat="40.93829880166402" lon="9.093385582313484"><ele>435.5</ele><time>2026-04-26T07:58:44.808Z</time></trkpt><trkpt lat="40.93804374297975" lon="9.093398985727283"><ele>433.0</ele><time>2026-04-26T07:58:45.809Z</time></trkpt><trkpt lat="40.93778804809881" lon="9.093434976811379"><ele>431.5</ele><time>2026-04-26T07:58:46.809Z</time></trkpt><trkpt lat="40.93753186556233" lon="9.093483988942637"><ele>430.0</ele><time>2026-04-26T07:58:47.809Z</time></trkpt><trkpt lat="40.93727786522227" lon="9.093548243398773"><ele>430.0</ele><time>2026-04-26T07:58:48.809Z</time></trkpt><trkpt lat="40.93702177679162" lon="9.093627189591038"><ele>430.0</ele><time>2026-04-26T07:58:49.808Z</time></trkpt><trkpt lat="40.93677122199856" lon="9.093735605148446"><ele>430.0</ele><time>2026-04-26T07:58:50.808Z</time></trkpt><trkpt lat="40.93651729323324" lon="9.093833468966169"><ele>430.0</ele><time>2026-04-26T07:58:51.808Z</time></trkpt><trkpt lat="40.936271611342015" lon="9.093936811003992"><ele>430.0</ele><time>2026-04-26T07:58:52.809Z</time></trkpt><trkpt lat="40.936037127318116" lon="9.094058773828177"><ele>430.0</ele><time>2026-04-26T07:58:53.808Z</time></trkpt><trkpt lat="40.935809001125754" lon="9.094192243057002"><ele>432.0</ele><time>2026-04-26T07:58:54.809Z</time></trkpt><trkpt lat="40.935585117795675" lon="9.09433357564941"><ele>434.0</ele><time>2026-04-26T07:58:55.808Z</time></trkpt><trkpt lat="40.9353665219358" lon="9.094484402797962"><ele>434.0</ele><time>2026-04-26T07:58:56.808Z</time></trkpt><trkpt lat="40.93515223923868" lon="9.094642217611598"><ele>434.0</ele><time>2026-04-26T07:58:57.808Z</time></trkpt><trkpt lat="40.9349340869129" lon="9.094806711571566"><ele>429.0</ele><time>2026-04-26T07:58:58.808Z</time></trkpt><trkpt lat="40.93472078485037" lon="9.094974278862646"><ele>424.0</ele><time>2026-04-26T07:58:59.808Z</time></trkpt><trkpt lat="40.93450345786137" lon="9.095142284015518"><ele>424.0</ele><time>2026-04-26T07:59:00.808Z</time></trkpt><trkpt lat="40.93428608443767" lon="9.09531199272159"><ele>424.0</ele><time>2026-04-26T07:59:01.808Z</time></trkpt><trkpt lat="40.93406762220438" lon="9.095479087507302"><ele>418.0</ele><time>2026-04-26T07:59:02.808Z</time></trkpt><trkpt lat="40.933854589579305" lon="9.095646971544301"><ele>412.0</ele><time>2026-04-26T07:59:03.808Z</time></trkpt><trkpt lat="40.9336461229323" lon="9.095812141335347"><ele>411.5</ele><time>2026-04-26T07:59:04.808Z</time></trkpt><trkpt lat="40.93343430044826" lon="9.095970515324955"><ele>411.0</ele><time>2026-04-26T07:59:05.808Z</time></trkpt><trkpt lat="40.9332199355816" lon="9.09612411925752"><ele>415.0</ele><time>2026-04-26T07:59:06.807Z</time></trkpt><trkpt lat="40.93300256901912" lon="9.09626458079433"><ele>419.0</ele><time>2026-04-26T07:59:07.807Z</time></trkpt><trkpt lat="40.932781313523" lon="9.096394168576978"><ele>422.0</ele><time>2026-04-26T07:59:08.807Z</time></trkpt><trkpt lat="40.93255309314727" lon="9.09651138616647"><ele>425.0</ele><time>2026-04-26T07:59:09.807Z</time></trkpt><trkpt lat="40.93232250588783" lon="9.096619278213899"><ele>425.0</ele><time>2026-04-26T07:59:10.807Z</time></trkpt><trkpt lat="40.932088495652366" lon="9.09670999353012"><ele>425.0</ele><time>2026-04-26T07:59:11.807Z</time></trkpt><trkpt lat="40.93185150899003" lon="9.096775364504179"><ele>430.0</ele><time>2026-04-26T07:59:12.807Z</time></trkpt><trkpt lat="40.931615016836254" lon="9.096823418107872"><ele>435.0</ele><time>2026-04-26T07:59:13.807Z</time></trkpt><trkpt lat="40.93138107294373" lon="9.096866796727067"><ele>435.0</ele><time>2026-04-26T07:59:14.807Z</time></trkpt><trkpt lat="40.93115277888687" lon="9.096885039938934"><ele>435.0</ele><time>2026-04-26T07:59:15.807Z</time></trkpt><trkpt lat="40.93092371673115" lon="9.096884257177127"><ele>437.0</ele><time>2026-04-26T07:59:16.807Z</time></trkpt><trkpt lat="40.930691531966296" lon="9.096858138375946"><ele>439.0</ele><time>2026-04-26T07:59:17.807Z</time></trkpt><trkpt lat="40.93046245307463" lon="9.096824718682551"><ele>439.0</ele><time>2026-04-26T07:59:18.807Z</time></trkpt><trkpt lat="40.930232275282386" lon="9.096785792036416"><ele>439.0</ele><time>2026-04-26T07:59:19.807Z</time></trkpt><trkpt lat="40.930007313685735" lon="9.096729015412519"><ele>439.33333333333337</ele><time>2026-04-26T07:59:20.807Z</time></trkpt><trkpt lat="40.92978898300219" lon="9.096658227218423"><ele>439.66666666666663</ele><time>2026-04-26T07:59:21.807Z</time></trkpt><trkpt lat="40.92957839251875" lon="9.09657643966516"><ele>440.0</ele><time>2026-04-26T07:59:22.807Z</time></trkpt><trkpt lat="40.929370051354375" lon="9.096497030790617"><ele>440.0</ele><time>2026-04-26T07:59:23.807Z</time></trkpt><trkpt lat="40.9291586057129" lon="9.096408236940213"><ele>440.0</ele><time>2026-04-26T07:59:24.807Z</time></trkpt><trkpt lat="40.92894021858259" lon="9.096317167220452"><ele>440.0</ele><time>2026-04-26T07:59:25.807Z</time></trkpt><trkpt lat="40.928730862087846" lon="9.096218355892619"><ele>440.0</ele><time>2026-04-26T07:59:26.807Z</time></trkpt><trkpt lat="40.92854352590226" lon="9.096125308326076"><ele>440.0</ele><time>2026-04-26T07:59:27.807Z</time></trkpt><trkpt lat="40.928362067807505" lon="9.096037076593097"><ele>438.3333333333333</ele><time>2026-04-26T07:59:28.807Z</time></trkpt><trkpt lat="40.92818692727268" lon="9.095954976823778"><ele>436.66666666666663</ele><time>2026-04-26T07:59:29.807Z</time></trkpt><trkpt lat="40.92800902631157" lon="9.095872630220066"><ele>435.0</ele><time>2026-04-26T07:59:30.806Z</time></trkpt><trkpt lat="40.92782826932685" lon="9.095785906109743"><ele>435.0</ele><time>2026-04-26T07:59:31.806Z</time></trkpt><trkpt lat="40.927651179909574" lon="9.095699909925075"><ele>435.0</ele><time>2026-04-26T07:59:32.806Z</time></trkpt><trkpt lat="40.927468463856705" lon="9.09562659907194"><ele>435.0</ele><time>2026-04-26T07:59:33.806Z</time></trkpt><trkpt lat="40.92727594259006" lon="9.095596605645607"><ele>435.0</ele><time>2026-04-26T07:59:34.806Z</time></trkpt><trkpt lat="40.9270793964213" lon="9.095595768444245"><ele>435.0</ele><time>2026-04-26T07:59:35.806Z</time></trkpt><trkpt lat="40.92688870567696" lon="9.095623662532304"><ele>435.0</ele><time>2026-04-26T07:59:36.806Z</time></trkpt><trkpt lat="40.92670889861032" lon="9.095639403789479"><ele>434.33333333333337</ele><time>2026-04-26T07:59:37.806Z</time></trkpt><trkpt lat="40.92654054599919" lon="9.095605047229368"><ele>433.6666666666667</ele><time>2026-04-26T07:59:38.806Z</time></trkpt><trkpt lat="40.92637258426132" lon="9.095609454120476"><ele>433.0</ele><time>2026-04-26T07:59:39.806Z</time></trkpt><trkpt lat="40.926235343138316" lon="9.095573642104563"><ele>433.0</ele><time>2026-04-26T07:59:40.806Z</time></trkpt><trkpt lat="40.92612437139752" lon="9.095447119597301"><ele>433.0</ele><time>2026-04-26T07:59:41.806Z</time></trkpt><trkpt lat="40.92603832868266" lon="9.09525824449783"><ele>433.0</ele><time>2026-04-26T07:59:42.806Z</time></trkpt><trkpt lat="40.92594675699961" lon="9.095072234748743"><ele>432.6666666666667</ele><time>2026-04-26T07:59:43.806Z</time></trkpt><trkpt lat="40.92582872881596" lon="9.094876295687639"><ele>432.33333333333337</ele><time>2026-04-26T07:59:44.806Z</time></trkpt><trkpt lat="40.92570126764302" lon="9.094668425389205"><ele>432.0</ele><time>2026-04-26T07:59:45.806Z</time></trkpt><trkpt lat="40.92557637932858" lon="9.094449763782979"><ele>432.0</ele><time>2026-04-26T07:59:46.806Z</time></trkpt><trkpt lat="40.925440717635304" lon="9.094236031643979"><ele>432.0</ele><time>2026-04-26T07:59:47.806Z</time></trkpt><trkpt lat="40.925301770498194" lon="9.094016901531603"><ele>432.0</ele><time>2026-04-26T07:59:48.806Z</time></trkpt><trkpt lat="40.925166373860534" lon="9.093791723964538"><ele>432.33333333333337</ele><time>2026-04-26T07:59:49.806Z</time></trkpt><trkpt lat="40.92503475811768" lon="9.093571497261703"><ele>432.6666666666667</ele><time>2026-04-26T07:59:50.806Z</time></trkpt><trkpt lat="40.92493102325638" lon="9.093370541955425"><ele>433.0</ele><time>2026-04-26T07:59:51.806Z</time></trkpt><trkpt lat="40.92482213435016" lon="9.09320187507216"><ele>434.25</ele><time>2026-04-26T07:59:52.806Z</time></trkpt><trkpt lat="40.924717065132626" lon="9.09307264101301"><ele>435.5</ele><time>2026-04-26T07:59:53.806Z</time></trkpt><trkpt lat="40.92458377105292" lon="9.093049755804222"><ele>436.75</ele><time>2026-04-26T07:59:54.805Z</time></trkpt><trkpt lat="40.924451457561844" lon="9.09312097363801"><ele>438.0</ele><time>2026-04-26T07:59:55.805Z</time></trkpt><trkpt lat="40.92433258880313" lon="9.093179501985842"><ele>435.0</ele><time>2026-04-26T07:59:56.805Z</time></trkpt><trkpt lat="40.924191961728546" lon="9.093120261388234"><ele>432.0</ele><time>2026-04-26T07:59:57.805Z</time></trkpt><trkpt lat="40.924102497595484" lon="9.09295906871332"><ele>429.0</ele><time>2026-04-26T07:59:58.805Z</time></trkpt><trkpt lat="40.92401829852525" lon="9.092779669013343"><ele>429.0</ele><time>2026-04-26T07:59:59.805Z</time></trkpt><trkpt lat="40.92392177383284" lon="9.092597619148247"><ele>429.0</ele><time>2026-04-26T08:00:00.805Z</time></trkpt><trkpt lat="40.92381299725415" lon="9.092400890323862"><ele>429.0</ele><time>2026-04-26T08:00:01.805Z</time></trkpt><trkpt lat="40.92370399871943" lon="9.092197466441306"><ele>429.0</ele><time>2026-04-26T08:00:02.805Z</time></trkpt><trkpt lat="40.92360455694184" lon="9.092021014676304"><ele>429.0</ele><time>2026-04-26T08:00:03.805Z</time></trkpt><trkpt lat="40.92351569147569" lon="9.091865816223981"><ele>429.0</ele><time>2026-04-26T08:00:04.805Z</time></trkpt><trkpt lat="40.923413266338045" lon="9.091816196083178"><ele>429.0</ele><time>2026-04-26T08:00:05.805Z</time></trkpt><trkpt lat="40.9232767148462" lon="9.091840195484181"><ele>429.33333333333337</ele><time>2026-04-26T08:00:06.805Z</time></trkpt><trkpt lat="40.92310943738813" lon="9.091954512175757"><ele>429.6666666666667</ele><time>2026-04-26T08:00:07.805Z</time></trkpt><trkpt lat="40.922925231778244" lon="9.09205207932063"><ele>430.0</ele><time>2026-04-26T08:00:08.805Z</time></trkpt><trkpt lat="40.92273399626485" lon="9.092127886970307"><ele>430.0</ele><time>2026-04-26T08:00:09.805Z</time></trkpt><trkpt lat="40.92254520980943" lon="9.092197334748265"><ele>430.0</ele><time>2026-04-26T08:00:10.805Z</time></trkpt><trkpt lat="40.9223590899261" lon="9.092290021853678"><ele>430.0</ele><time>2026-04-26T08:00:11.805Z</time></trkpt><trkpt lat="40.92219273896432" lon="9.092390571784536"><ele>434.33333333333337</ele><time>2026-04-26T08:00:12.805Z</time></trkpt><trkpt lat="40.9220593310244" lon="9.092517206717439"><ele>438.66666666666663</ele><time>2026-04-26T08:00:13.805Z</time></trkpt><trkpt lat="40.921967777147294" lon="9.092703580722402"><ele>443.0</ele><time>2026-04-26T08:00:14.805Z</time></trkpt><trkpt lat="40.92190647233885" lon="9.09294462469917"><ele>443.0</ele><time>2026-04-26T08:00:15.805Z</time></trkpt><trkpt lat="40.92184575277254" lon="9.093182245571738"><ele>443.0</ele><time>2026-04-26T08:00:16.805Z</time></trkpt><trkpt lat="40.921773484248995" lon="9.093362507902487"><ele>443.0</ele><time>2026-04-26T08:00:17.805Z</time></trkpt><trkpt lat="40.921657899866794" lon="9.09345715947304"><ele>442.66666666666663</ele><time>2026-04-26T08:00:18.804Z</time></trkpt><trkpt lat="40.92150168265022" lon="9.09347412101909"><ele>442.33333333333337</ele><time>2026-04-26T08:00:19.804Z</time></trkpt><trkpt lat="40.92131315611558" lon="9.09346038072001"><ele>442.0</ele><time>2026-04-26T08:00:20.804Z</time></trkpt><trkpt lat="40.9211126225145" lon="9.093440503410903"><ele>442.0</ele><time>2026-04-26T08:00:21.804Z</time></trkpt><trkpt lat="40.92092933239604" lon="9.093458261737782"><ele>442.0</ele><time>2026-04-26T08:00:22.804Z</time></trkpt><trkpt lat="40.92076904274368" lon="9.093479823062056"><ele>442.0</ele><time>2026-04-26T08:00:23.804Z</time></trkpt><trkpt lat="40.92063763178303" lon="9.093570362062312"><ele>441.33333333333337</ele><time>2026-04-26T08:00:24.804Z</time></trkpt><trkpt lat="40.9205307787186" lon="9.093745196537665"><ele>440.66666666666663</ele><time>2026-04-26T08:00:25.804Z</time></trkpt><trkpt lat="40.920411789283406" lon="9.093931836878523"><ele>440.0</ele><time>2026-04-26T08:00:26.804Z</time></trkpt><trkpt lat="40.92025735832743" lon="9.094059141519898"><ele>440.0</ele><time>2026-04-26T08:00:27.804Z</time></trkpt><trkpt lat="40.92008845564141" lon="9.094078584507825"><ele>440.0</ele><time>2026-04-26T08:00:28.804Z</time></trkpt><trkpt lat="40.919884728241506" lon="9.09408202393055"><ele>440.0</ele><time>2026-04-26T08:00:29.804Z</time></trkpt><trkpt lat="40.91969448996606" lon="9.094095727205264"><ele>442.66666666666663</ele><time>2026-04-26T08:00:30.804Z</time></trkpt><trkpt lat="40.91953418808538" lon="9.094130673813048"><ele>445.33333333333337</ele><time>2026-04-26T08:00:31.804Z</time></trkpt><trkpt lat="40.91939762585533" lon="9.094239997772092"><ele>448.0</ele><time>2026-04-26T08:00:32.804Z</time></trkpt><trkpt lat="40.919299048616544" lon="9.094435396918342"><ele>447.6666666666667</ele><time>2026-04-26T08:00:33.804Z</time></trkpt><trkpt lat="40.91920070047645" lon="9.094662244382283"><ele>447.33333333333337</ele><time>2026-04-26T08:00:34.804Z</time></trkpt><trkpt lat="40.91900946010831" lon="9.094733815716737"><ele>447.0</ele><time>2026-04-26T08:00:35.804Z</time></trkpt><trkpt lat="40.91879935109252" lon="9.094828485620633"><ele>447.0</ele><time>2026-04-26T08:00:36.804Z</time></trkpt><trkpt lat="40.91859065780604" lon="9.094864086571114"><ele>447.0</ele><time>2026-04-26T08:00:37.804Z</time></trkpt><trkpt lat="40.91837486757308" lon="9.094934784239186"><ele>447.0</ele><time>2026-04-26T08:00:38.804Z</time></trkpt><trkpt lat="40.91817742162924" lon="9.095001748724265"><ele>450.33333333333337</ele><time>2026-04-26T08:00:39.804Z</time></trkpt><trkpt lat="40.9179874795674" lon="9.095079187598836"><ele>453.6666666666667</ele><time>2026-04-26T08:00:40.804Z</time></trkpt><trkpt lat="40.91778612000681" lon="9.09514504702068"><ele>457.0</ele><time>2026-04-26T08:00:41.804Z</time></trkpt><trkpt lat="40.91761569813256" lon="9.095208159352559"><ele>456.40000000000003</ele><time>2026-04-26T08:00:42.804Z</time></trkpt><trkpt lat="40.91747746644487" lon="9.0952588339587"><ele>455.80000000000007</ele><time>2026-04-26T08:00:43.803Z</time></trkpt><trkpt lat="40.91738062985262" lon="9.095323125110356"><ele>455.2</ele><time>2026-04-26T08:00:44.803Z</time></trkpt><trkpt lat="40.91730649596167" lon="9.095393555846462"><ele>454.6</ele><time>2026-04-26T08:00:45.803Z</time></trkpt><trkpt lat="40.91723161828043" lon="9.095464470832935"><ele>454.0</ele><time>2026-04-26T08:00:46.803Z</time></trkpt><trkpt lat="40.91713610821109" lon="9.095492760225262"><ele>454.0</ele><time>2026-04-26T08:00:47.803Z</time></trkpt><trkpt lat="40.917035876579234" lon="9.09545470546324"><ele>454.0</ele><time>2026-04-26T08:00:48.805Z</time></trkpt><trkpt lat="40.916944067616804" lon="9.095359111981864"><ele>454.0</ele><time>2026-04-26T08:00:49.805Z</time></trkpt><trkpt lat="40.91686876224142" lon="9.09527233117416"><ele>454.0</ele><time>2026-04-26T08:00:50.805Z</time></trkpt><trkpt lat="40.91677491425034" lon="9.095218718261268"><ele>454.0</ele><time>2026-04-26T08:00:51.805Z</time></trkpt><trkpt lat="40.91667103292641" lon="9.09521553180231"><ele>454.6666666666667</ele><time>2026-04-26T08:00:52.805Z</time></trkpt><trkpt lat="40.916575063329496" lon="9.095222070727617"><ele>455.33333333333337</ele><time>2026-04-26T08:00:53.805Z</time></trkpt><trkpt lat="40.91648843826148" lon="9.095245358398804"><ele>456.0</ele><time>2026-04-26T08:00:54.805Z</time></trkpt><trkpt lat="40.91641458419674" lon="9.09528794514077"><ele>456.66666666666663</ele><time>2026-04-26T08:00:55.805Z</time></trkpt><trkpt lat="40.916348581671365" lon="9.09535095744122"><ele>457.3333333333333</ele><time>2026-04-26T08:00:56.805Z</time></trkpt><trkpt lat="40.91631373735318" lon="9.095474918757544"><ele>458.0</ele><time>2026-04-26T08:00:57.805Z</time></trkpt><trkpt lat="40.91629359243215" lon="9.09559753391188"><ele>458.0</ele><time>2026-04-26T08:00:58.805Z</time></trkpt><trkpt lat="40.9162779371682" lon="9.095721238750977"><ele>457.99999999999994</ele><time>2026-04-26T08:00:59.805Z</time></trkpt><trkpt lat="40.91624547408437" lon="9.095839190363051"><ele>457.99999999999994</ele><time>2026-04-26T08:01:00.805Z</time></trkpt><trkpt lat="40.916202265467646" lon="9.095933225704957"><ele>458.0</ele><time>2026-04-26T08:01:01.804Z</time></trkpt><trkpt lat="40.91612183207259" lon="9.096017181648376"><ele>458.0</ele><time>2026-04-26T08:01:02.804Z</time></trkpt><trkpt lat="40.91604572755388" lon="9.096103674556645"><ele>459.4</ele><time>2026-04-26T08:01:03.804Z</time></trkpt><trkpt lat="40.91594903157421" lon="9.096174466373464"><ele>460.79999999999995</ele><time>2026-04-26T08:01:04.804Z</time></trkpt><trkpt lat="40.91584964816874" lon="9.096238706020666"><ele>462.2</ele><time>2026-04-26T08:01:05.804Z</time></trkpt><trkpt lat="40.915766455230155" lon="9.096299552369684"><ele>463.6</ele><time>2026-04-26T08:01:06.804Z</time></trkpt><trkpt lat="40.915699042537206" lon="9.096339142862398"><ele>465.0</ele><time>2026-04-26T08:01:07.804Z</time></trkpt><trkpt lat="40.91561445134539" lon="9.09638369166417"><ele>465.0</ele><time>2026-04-26T08:01:09.804Z</time></trkpt><trkpt lat="40.915522908876355" lon="9.096414281873201"><ele>465.0</ele><time>2026-04-26T08:01:11.804Z</time></trkpt><trkpt lat="40.91538829779206" lon="9.096405367839822"><ele>465.0</ele><time>2026-04-26T08:01:13.804Z</time></trkpt><trkpt lat="40.91528474851503" lon="9.096408530015655"><ele>465.0</ele><time>2026-04-26T08:01:14.804Z</time></trkpt><trkpt lat="40.915162148937036" lon="9.096432368694364"><ele>463.75</ele><time>2026-04-26T08:01:15.804Z</time></trkpt><trkpt lat="40.91503529714788" lon="9.096423860730019"><ele>462.5</ele><time>2026-04-26T08:01:16.804Z</time></trkpt><trkpt lat="40.91490191518459" lon="9.096434764852377"><ele>461.25</ele><time>2026-04-26T08:01:17.804Z</time></trkpt><trkpt lat="40.91475221003118" lon="9.096428601258761"><ele>460.0</ele><time>2026-04-26T08:01:18.803Z</time></trkpt><trkpt lat="40.9145906059934" lon="9.096451330393405"><ele>460.0</ele><time>2026-04-26T08:01:19.803Z</time></trkpt><trkpt lat="40.91443066936027" lon="9.096540446621406"><ele>460.0</ele><time>2026-04-26T08:01:20.803Z</time></trkpt><trkpt lat="40.91427801639965" lon="9.096665815899586"><ele>460.0</ele><time>2026-04-26T08:01:21.803Z</time></trkpt><trkpt lat="40.91415073960445" lon="9.096798233164394"><ele>463.33333333333337</ele><time>2026-04-26T08:01:22.803Z</time></trkpt><trkpt lat="40.914013393636964" lon="9.096853039052204"><ele>466.66666666666663</ele><time>2026-04-26T08:01:23.803Z</time></trkpt><trkpt lat="40.91385267032892" lon="9.096771155333913"><ele>470.0</ele><time>2026-04-26T08:01:24.803Z</time></trkpt><trkpt lat="40.91366699010476" lon="9.096693778343372"><ele>470.0</ele><time>2026-04-26T08:01:25.803Z</time></trkpt><trkpt lat="40.913481423001826" lon="9.096591599948718"><ele>470.0</ele><time>2026-04-26T08:01:26.803Z</time></trkpt><trkpt lat="40.91328350572421" lon="9.096506183164907"><ele>470.0</ele><time>2026-04-26T08:01:27.803Z</time></trkpt><trkpt lat="40.91309138177436" lon="9.096434339565336"><ele>471.0</ele><time>2026-04-26T08:01:28.803Z</time></trkpt><trkpt lat="40.91290240197848" lon="9.09640403861649"><ele>472.0</ele><time>2026-04-26T08:01:29.803Z</time></trkpt><trkpt lat="40.91271798791887" lon="9.096434324297084"><ele>473.0</ele><time>2026-04-26T08:01:30.803Z</time></trkpt><trkpt lat="40.91255054546469" lon="9.096417608505908"><ele>473.0</ele><time>2026-04-26T08:01:31.803Z</time></trkpt><trkpt lat="40.912405452309606" lon="9.096306030881806"><ele>473.0</ele><time>2026-04-26T08:01:32.803Z</time></trkpt><trkpt lat="40.91223552274849" lon="9.09619625463482"><ele>473.0</ele><time>2026-04-26T08:01:33.803Z</time></trkpt><trkpt lat="40.91205201441717" lon="9.096156625196354"><ele>473.0</ele><time>2026-04-26T08:01:34.803Z</time></trkpt><trkpt lat="40.91184917226234" lon="9.096107119573626"><ele>473.0</ele><time>2026-04-26T08:01:35.803Z</time></trkpt><trkpt lat="40.91166269556495" lon="9.096081907080332"><ele>473.0</ele><time>2026-04-26T08:01:36.803Z</time></trkpt><trkpt lat="40.91150837829668" lon="9.096061380080426"><ele>475.0</ele><time>2026-04-26T08:01:37.803Z</time></trkpt><trkpt lat="40.911367673788774" lon="9.096098561162584"><ele>477.0</ele><time>2026-04-26T08:01:38.803Z</time></trkpt><trkpt lat="40.91126395827382" lon="9.09622531642291"><ele>479.0</ele><time>2026-04-26T08:01:39.803Z</time></trkpt><trkpt lat="40.91120620906935" lon="9.09643150193018"><ele>483.0</ele><time>2026-04-26T08:01:40.803Z</time></trkpt><trkpt lat="40.91113777843433" lon="9.096644380633196"><ele>487.0</ele><time>2026-04-26T08:01:41.803Z</time></trkpt><trkpt lat="40.91103207086558" lon="9.09680190632273"><ele>491.0</ele><time>2026-04-26T08:01:42.802Z</time></trkpt><trkpt lat="40.910892994308576" lon="9.096862137773337"><ele>491.66666666666663</ele><time>2026-04-26T08:01:43.802Z</time></trkpt><trkpt lat="40.91072281201935" lon="9.096905968250818"><ele>492.33333333333337</ele><time>2026-04-26T08:01:44.802Z</time></trkpt><trkpt lat="40.91055701424854" lon="9.096885272465043"><ele>493.0</ele><time>2026-04-26T08:01:45.802Z</time></trkpt><trkpt lat="40.91041382671373" lon="9.096815923383412"><ele>493.0</ele><time>2026-04-26T08:01:46.802Z</time></trkpt><trkpt lat="40.91028775096126" lon="9.096684213302943"><ele>493.0</ele><time>2026-04-26T08:01:47.802Z</time></trkpt><trkpt lat="40.910150301905155" lon="9.096517336948407"><ele>493.0</ele><time>2026-04-26T08:01:48.802Z</time></trkpt><trkpt lat="40.90998431782698" lon="9.096390633208365"><ele>493.6666666666667</ele><time>2026-04-26T08:01:49.802Z</time></trkpt><trkpt lat="40.90980915451257" lon="9.096273517691616"><ele>494.33333333333337</ele><time>2026-04-26T08:01:50.802Z</time></trkpt><trkpt lat="40.90963895508655" lon="9.096131518964802"><ele>495.0</ele><time>2026-04-26T08:01:51.802Z</time></trkpt><trkpt lat="40.909441066828904" lon="9.096036777880423"><ele>495.0</ele><time>2026-04-26T08:01:52.802Z</time></trkpt><trkpt lat="40.909246016271176" lon="9.095973577629657"><ele>495.0</ele><time>2026-04-26T08:01:53.802Z</time></trkpt><trkpt lat="40.909052560121175" lon="9.09595502276592"><ele>495.0</ele><time>2026-04-26T08:01:54.802Z</time></trkpt><trkpt lat="40.90886201155061" lon="9.09592338725401"><ele>497.33333333333337</ele><time>2026-04-26T08:01:55.802Z</time></trkpt><trkpt lat="40.908678738048195" lon="9.095901395467056"><ele>499.6666666666667</ele><time>2026-04-26T08:01:56.802Z</time></trkpt><trkpt lat="40.90851549118447" lon="9.095898857044379"><ele>502.0</ele><time>2026-04-26T08:01:57.802Z</time></trkpt><trkpt lat="40.908376034015895" lon="9.095951457068246"><ele>503.20000000000005</ele><time>2026-04-26T08:01:58.802Z</time></trkpt><trkpt lat="40.90826107994992" lon="9.096007934353617"><ele>504.40000000000003</ele><time>2026-04-26T08:01:59.802Z</time></trkpt><trkpt lat="40.90817130494273" lon="9.096075258263214"><ele>505.59999999999997</ele><time>2026-04-26T08:02:00.802Z</time></trkpt><trkpt lat="40.90808908354954" lon="9.096106262785652"><ele>506.79999999999995</ele><time>2026-04-26T08:02:01.802Z</time></trkpt><trkpt lat="40.90800668462516" lon="9.096115871714044"><ele>508.0</ele><time>2026-04-26T08:02:02.802Z</time></trkpt><trkpt lat="40.907920837682205" lon="9.096133229863252"><ele>508.0</ele><time>2026-04-26T08:02:03.802Z</time></trkpt><trkpt lat="40.90782549704603" lon="9.096068754580564"><ele>507.99999999999994</ele><time>2026-04-26T08:02:04.802Z</time></trkpt><trkpt lat="40.90776708117674" lon="9.095953517572264"><ele>507.99999999999994</ele><time>2026-04-26T08:02:05.802Z</time></trkpt><trkpt lat="40.90769461728755" lon="9.09583330201124"><ele>508.0</ele><time>2026-04-26T08:02:06.801Z</time></trkpt><trkpt lat="40.90760307064838" lon="9.095734420561609"><ele>508.0</ele><time>2026-04-26T08:02:07.801Z</time></trkpt><trkpt lat="40.907506260629454" lon="9.095661472487608"><ele>507.75</ele><time>2026-04-26T08:02:08.801Z</time></trkpt><trkpt lat="40.90738371226475" lon="9.095673410099026"><ele>507.5</ele><time>2026-04-26T08:02:09.801Z</time></trkpt><trkpt lat="40.907275750407095" lon="9.095766232618997"><ele>507.25</ele><time>2026-04-26T08:02:10.801Z</time></trkpt><trkpt lat="40.90720784849023" lon="9.095929196075375"><ele>507.0</ele><time>2026-04-26T08:02:11.801Z</time></trkpt><trkpt lat="40.90717014386363" lon="9.096092661709257"><ele>508.5</ele><time>2026-04-26T08:02:12.801Z</time></trkpt><trkpt lat="40.90715802252401" lon="9.096270262334226"><ele>510.0</ele><time>2026-04-26T08:02:13.801Z</time></trkpt><trkpt lat="40.90716653198238" lon="9.09646734597335"><ele>511.5</ele><time>2026-04-26T08:02:14.801Z</time></trkpt><trkpt lat="40.907162034066914" lon="9.09662629797545"><ele>513.0</ele><time>2026-04-26T08:02:15.801Z</time></trkpt><trkpt lat="40.907105023624524" lon="9.09675071851499"><ele>515.5</ele><time>2026-04-26T08:02:16.801Z</time></trkpt><trkpt lat="40.90701027765141" lon="9.096812198415304"><ele>518.0</ele><time>2026-04-26T08:02:17.801Z</time></trkpt><trkpt lat="40.90689672939112" lon="9.096832518298124"><ele>520.5</ele><time>2026-04-26T08:02:18.801Z</time></trkpt><trkpt lat="40.9067697525389" lon="9.09685951219132"><ele>523.0</ele><time>2026-04-26T08:02:19.801Z</time></trkpt><trkpt lat="40.90664448515859" lon="9.096833310694612"><ele>523.5</ele><time>2026-04-26T08:02:20.801Z</time></trkpt><trkpt lat="40.90652622173593" lon="9.09676468483656"><ele>524.0</ele><time>2026-04-26T08:02:21.801Z</time></trkpt><trkpt lat="40.90640153853846" lon="9.096745473404113"><ele>524.5</ele><time>2026-04-26T08:02:22.801Z</time></trkpt><trkpt lat="40.906282082468955" lon="9.096716744173191"><ele>525.0</ele><time>2026-04-26T08:02:23.801Z</time></trkpt><trkpt lat="40.90617924355763" lon="9.096825733372846"><ele>525.0</ele><time>2026-04-26T08:02:24.801Z</time></trkpt><trkpt lat="40.90609861950256" lon="9.096948701785053"><ele>525.0</ele><time>2026-04-26T08:02:25.801Z</time></trkpt><trkpt lat="40.906040349855076" lon="9.097092598303982"><ele>525.0</ele><time>2026-04-26T08:02:26.801Z</time></trkpt><trkpt lat="40.90596996441596" lon="9.097248957813555"><ele>525.0</ele><time>2026-04-26T08:02:27.801Z</time></trkpt><trkpt lat="40.90588520966301" lon="9.097410690403217"><ele>526.5</ele><time>2026-04-26T08:02:28.801Z</time></trkpt><trkpt lat="40.905800659544845" lon="9.097570406715743"><ele>528.0</ele><time>2026-04-26T08:02:29.801Z</time></trkpt><trkpt lat="40.90571625669021" lon="9.097733516385905"><ele>529.5</ele><time>2026-04-26T08:02:30.8Z</time></trkpt><trkpt lat="40.9056327873801" lon="9.097899880196985"><ele>531.0</ele><time>2026-04-26T08:02:31.8Z</time></trkpt><trkpt lat="40.90555936932925" lon="9.098068264661656"><ele>531.0</ele><time>2026-04-26T08:02:32.8Z</time></trkpt><trkpt lat="40.90551481680913" lon="9.098243165079678"><ele>531.0</ele><time>2026-04-26T08:02:33.8Z</time></trkpt><trkpt lat="40.9054964237529" lon="9.098418003189677"><ele>531.0</ele><time>2026-04-26T08:02:34.8Z</time></trkpt><trkpt lat="40.905486774586436" lon="9.09858425942926"><ele>531.0</ele><time>2026-04-26T08:02:35.8Z</time></trkpt><trkpt lat="40.90547405754082" lon="9.098735289036505"><ele>532.4</ele><time>2026-04-26T08:02:36.8Z</time></trkpt><trkpt lat="40.905469361519" lon="9.098874961783293"><ele>533.8</ele><time>2026-04-26T08:02:37.8Z</time></trkpt><trkpt lat="40.90546249448814" lon="9.099007685374193"><ele>535.1999999999999</ele><time>2026-04-26T08:02:38.8Z</time></trkpt><trkpt lat="40.905457278868205" lon="9.099132851672964"><ele>536.6</ele><time>2026-04-26T08:02:39.8Z</time></trkpt><trkpt lat="40.90545113360743" lon="9.099261304317201"><ele>538.0</ele><time>2026-04-26T08:02:40.8Z</time></trkpt><trkpt lat="40.905442737967476" lon="9.099392458095831"><ele>538.6666666666667</ele><time>2026-04-26T08:02:41.8Z</time></trkpt><trkpt lat="40.90543457065378" lon="9.099513449693381"><ele>539.3333333333334</ele><time>2026-04-26T08:02:42.8Z</time></trkpt><trkpt lat="40.90542705883407" lon="9.099616312194522"><ele>540.0</ele><time>2026-04-26T08:02:43.8Z</time></trkpt><trkpt lat="40.905416909273995" lon="9.099703183363328"><ele>540.6666666666666</ele><time>2026-04-26T08:02:44.8Z</time></trkpt><trkpt lat="40.90541027297091" lon="9.099815942877063"><ele>541.3333333333333</ele><time>2026-04-26T08:02:46.8Z</time></trkpt><trkpt lat="40.90536984362301" lon="9.099915222360513"><ele>542.0</ele><time>2026-04-26T08:02:48.8Z</time></trkpt><trkpt lat="40.90529186530244" lon="9.100025462029956"><ele>543.0</ele><time>2026-04-26T08:02:50.8Z</time></trkpt><trkpt lat="40.9053299751893" lon="9.100163522708"><ele>544.0</ele><time>2026-04-26T08:02:52.8Z</time></trkpt><trkpt lat="40.905393579918105" lon="9.100222882481077"><ele>545.0</ele><time>2026-04-26T08:02:53.801Z</time></trkpt><trkpt lat="40.90546029021545" lon="9.100284267983838"><ele>546.0</ele><time>2026-04-26T08:02:54.801Z</time></trkpt><trkpt lat="40.90552183247778" lon="9.100377075915041"><ele>547.0</ele><time>2026-04-26T08:02:55.801Z</time></trkpt><trkpt lat="40.905581144524945" lon="9.100480288463414"><ele>547.0</ele><time>2026-04-26T08:02:56.801Z</time></trkpt><trkpt lat="40.90564698085302" lon="9.10057678352916"><ele>547.0</ele><time>2026-04-26T08:02:57.801Z</time></trkpt><trkpt lat="40.90571151572662" lon="9.100680324026738"><ele>547.0</ele><time>2026-04-26T08:02:58.801Z</time></trkpt><trkpt lat="40.905779390144914" lon="9.100788194143007"><ele>547.0</ele><time>2026-04-26T08:02:59.802Z</time></trkpt><trkpt lat="40.90584593848196" lon="9.100902150143696"><ele>547.0</ele><time>2026-04-26T08:03:00.801Z</time></trkpt><trkpt lat="40.905913648543596" lon="9.101015712532785"><ele>546.4</ele><time>2026-04-26T08:03:01.801Z</time></trkpt><trkpt lat="40.90597840235514" lon="9.101113205365852"><ele>545.8000000000001</ele><time>2026-04-26T08:03:02.801Z</time></trkpt><trkpt lat="40.90604065730665" lon="9.101218207057231"><ele>545.2</ele><time>2026-04-26T08:03:03.801Z</time></trkpt><trkpt lat="40.906103629638665" lon="9.101330786015245"><ele>544.6</ele><time>2026-04-26T08:03:04.801Z</time></trkpt><trkpt lat="40.906150670990534" lon="9.101454894641346"><ele>544.0</ele><time>2026-04-26T08:03:05.801Z</time></trkpt><trkpt lat="40.906166598694995" lon="9.101603487514272"><ele>544.0</ele><time>2026-04-26T08:03:06.801Z</time></trkpt><trkpt lat="40.90615623474415" lon="9.101743489073204"><ele>544.0</ele><time>2026-04-26T08:03:07.801Z</time></trkpt><trkpt lat="40.90611917682125" lon="9.101885913032676"><ele>544.0</ele><time>2026-04-26T08:03:08.801Z</time></trkpt><trkpt lat="40.90607719097801" lon="9.102016234214355"><ele>544.0</ele><time>2026-04-26T08:03:09.801Z</time></trkpt><trkpt lat="40.906039303498346" lon="9.102137875008308"><ele>544.0</ele><time>2026-04-26T08:03:10.801Z</time></trkpt><trkpt lat="40.90601049286628" lon="9.102266147640954"><ele>544.0</ele><time>2026-04-26T08:03:11.801Z</time></trkpt><trkpt lat="40.905995313245214" lon="9.102382736543664"><ele>544.0</ele><time>2026-04-26T08:03:12.801Z</time></trkpt><trkpt lat="40.905995317053694" lon="9.102487355205959"><ele>544.0</ele><time>2026-04-26T08:03:13.801Z</time></trkpt><trkpt lat="40.90600194982659" lon="9.102604314206351"><ele>544.0</ele><time>2026-04-26T08:03:14.801Z</time></trkpt><trkpt lat="40.90600315188821" lon="9.102706574723308"><ele>544.0</ele><time>2026-04-26T08:03:15.801Z</time></trkpt><trkpt lat="40.90600882261688" lon="9.102801939131488"><ele>544.0</ele><time>2026-04-26T08:03:16.801Z</time></trkpt><trkpt lat="40.90600548330594" lon="9.102887151132938"><ele>544.1428571428571</ele><time>2026-04-26T08:03:17.801Z</time></trkpt><trkpt lat="40.90600087814829" lon="9.102978452229094"><ele>544.2857142857142</ele><time>2026-04-26T08:03:18.801Z</time></trkpt><trkpt lat="40.905991973670076" lon="9.103071059537628"><ele>544.4285714285714</ele><time>2026-04-26T08:03:19.801Z</time></trkpt><trkpt lat="40.90597529125396" lon="9.103154429792397"><ele>544.5714285714286</ele><time>2026-04-26T08:03:20.801Z</time></trkpt><trkpt lat="40.90594072015424" lon="9.103226424571494"><ele>544.7142857142858</ele><time>2026-04-26T08:03:21.801Z</time></trkpt><trkpt lat="40.905888630315786" lon="9.103301318106782"><ele>544.8571428571429</ele><time>2026-04-26T08:03:22.801Z</time></trkpt><trkpt lat="40.90583096734938" lon="9.10337172097106"><ele>545.0</ele><time>2026-04-26T08:03:23.801Z</time></trkpt><trkpt lat="40.90576537002516" lon="9.103424693481887"><ele>546.5</ele><time>2026-04-26T08:03:24.8Z</time></trkpt><trkpt lat="40.9056965417209" lon="9.103470981994686"><ele>548.0</ele><time>2026-04-26T08:03:25.8Z</time></trkpt><trkpt lat="40.90562435400851" lon="9.103503828453249"><ele>549.5</ele><time>2026-04-26T08:03:26.8Z</time></trkpt><trkpt lat="40.90553776722794" lon="9.103509001670613"><ele>551.0</ele><time>2026-04-26T08:03:27.8Z</time></trkpt><trkpt lat="40.90546324590119" lon="9.103537494490388"><ele>552.5</ele><time>2026-04-26T08:03:28.8Z</time></trkpt><trkpt lat="40.90538388512758" lon="9.10356812288504"><ele>554.0</ele><time>2026-04-26T08:03:29.8Z</time></trkpt><trkpt lat="40.90530238583986" lon="9.103608246577963"><ele>554.0</ele><time>2026-04-26T08:03:30.8Z</time></trkpt><trkpt lat="40.90522941393567" lon="9.103644674756506"><ele>554.0</ele><time>2026-04-26T08:03:31.8Z</time></trkpt><trkpt lat="40.90515402368963" lon="9.103690633163595"><ele>554.0</ele><time>2026-04-26T08:03:32.8Z</time></trkpt><trkpt lat="40.905082334459514" lon="9.10375038406795"><ele>554.0</ele><time>2026-04-26T08:03:33.8Z</time></trkpt><trkpt lat="40.905022424410994" lon="9.103831299535592"><ele>554.0</ele><time>2026-04-26T08:03:34.8Z</time></trkpt><trkpt lat="40.904964038159775" lon="9.103913423160877"><ele>554.0</ele><time>2026-04-26T08:03:35.8Z</time></trkpt><trkpt lat="40.90491642189774" lon="9.104010990817272"><ele>554.5</ele><time>2026-04-26T08:03:36.8Z</time></trkpt><trkpt lat="40.90487710714326" lon="9.104113190240913"><ele>555.0</ele><time>2026-04-26T08:03:37.8Z</time></trkpt><trkpt lat="40.90484001488025" lon="9.104212519772112"><ele>555.5</ele><time>2026-04-26T08:03:38.8Z</time></trkpt><trkpt lat="40.90480888111833" lon="9.10430139181353"><ele>556.0</ele><time>2026-04-26T08:03:39.8Z</time></trkpt><trkpt lat="40.9047782212321" lon="9.104375254562095"><ele>556.5</ele><time>2026-04-26T08:03:40.8Z</time></trkpt><trkpt lat="40.904712952315805" lon="9.104512291532004"><ele>557.0</ele><time>2026-04-26T08:03:42.8Z</time></trkpt><trkpt lat="40.90468252746356" lon="9.104591374815039"><ele>557.0</ele><time>2026-04-26T08:03:43.8Z</time></trkpt><trkpt lat="40.90464857242265" lon="9.104672941292689"><ele>557.0</ele><time>2026-04-26T08:03:44.8Z</time></trkpt><trkpt lat="40.90462478711042" lon="9.104755965425902"><ele>557.0</ele><time>2026-04-26T08:03:45.8Z</time></trkpt><trkpt lat="40.904609520094866" lon="9.104898182397742"><ele>557.0</ele><time>2026-04-26T08:03:47.868Z</time></trkpt><trkpt lat="40.904621473939294" lon="9.10499515408827"><ele>557.0</ele><time>2026-04-26T08:03:50.868Z</time></trkpt><trkpt lat="40.90463854643154" lon="9.105125685506247"><ele>557.0</ele><time>2026-04-26T08:03:54.868Z</time></trkpt><trkpt lat="40.904678394031556" lon="9.105262445010894"><ele>557.0</ele><time>2026-04-26T08:03:56.868Z</time></trkpt><trkpt lat="40.904700579219664" lon="9.1053438998974"><ele>557.0</ele><time>2026-04-26T08:03:57.868Z</time></trkpt><trkpt lat="40.90472507142428" lon="9.105434090954025"><ele>557.0</ele><time>2026-04-26T08:03:58.868Z</time></trkpt><trkpt lat="40.90475728240199" lon="9.105527992799974"><ele>557.0</ele><time>2026-04-26T08:03:59.868Z</time></trkpt><trkpt lat="40.90476959595839" lon="9.105639512088617"><ele>557.0</ele><time>2026-04-26T08:04:00.868Z</time></trkpt><trkpt lat="40.90477400754134" lon="9.105753303764892"><ele>557.0</ele><time>2026-04-26T08:04:01.868Z</time></trkpt><trkpt lat="40.90477240976909" lon="9.105866339885397"><ele>557.5</ele><time>2026-04-26T08:04:02.868Z</time></trkpt><trkpt lat="40.90473850402287" lon="9.10598022334521"><ele>558.0</ele><time>2026-04-26T08:04:03.868Z</time></trkpt><trkpt lat="40.90472670798228" lon="9.10609458598069"><ele>558.5</ele><time>2026-04-26T08:04:04.868Z</time></trkpt><trkpt lat="40.904719767216925" lon="9.106189765082757"><ele>559.0</ele><time>2026-04-26T08:04:05.868Z</time></trkpt><trkpt lat="40.904711584645156" lon="9.106297647830024"><ele>559.5</ele><time>2026-04-26T08:04:06.868Z</time></trkpt><trkpt lat="40.90470228111" lon="9.106421258122015"><ele>560.0</ele><time>2026-04-26T08:04:07.868Z</time></trkpt><trkpt lat="40.90469329001379" lon="9.106540718344236"><ele>560.0</ele><time>2026-04-26T08:04:08.867Z</time></trkpt><trkpt lat="40.90468437532628" lon="9.1066591635916"><ele>560.0</ele><time>2026-04-26T08:04:09.867Z</time></trkpt><trkpt lat="40.904665497573646" lon="9.106777497969759"><ele>560.0</ele><time>2026-04-26T08:04:10.867Z</time></trkpt><trkpt lat="40.90463748861245" lon="9.10688383763808"><ele>560.0</ele><time>2026-04-26T08:04:11.867Z</time></trkpt><trkpt lat="40.904591874185385" lon="9.106999591310547"><ele>560.0</ele><time>2026-04-26T08:04:12.867Z</time></trkpt><trkpt lat="40.90452626801686" lon="9.107113071527236"><ele>560.0</ele><time>2026-04-26T08:04:13.867Z</time></trkpt><trkpt lat="40.904438763490745" lon="9.107198526257681"><ele>560.0</ele><time>2026-04-26T08:04:14.867Z</time></trkpt><trkpt lat="40.904323533409084" lon="9.107248138437663"><ele>560.0</ele><time>2026-04-26T08:04:15.867Z</time></trkpt><trkpt lat="40.904211335437594" lon="9.107246509121692"><ele>560.0</ele><time>2026-04-26T08:04:16.867Z</time></trkpt><trkpt lat="40.90410302675063" lon="9.107208589674322"><ele>560.2</ele><time>2026-04-26T08:04:17.867Z</time></trkpt><trkpt lat="40.904005212454024" lon="9.107158113176293"><ele>560.4</ele><time>2026-04-26T08:04:18.867Z</time></trkpt><trkpt lat="40.903901996422" lon="9.10710989249251"><ele>560.6</ele><time>2026-04-26T08:04:19.867Z</time></trkpt><trkpt lat="40.90379925654584" lon="9.107059530099857"><ele>560.8</ele><time>2026-04-26T08:04:20.867Z</time></trkpt><trkpt lat="40.90368709463686" lon="9.107017973766162"><ele>561.0</ele><time>2026-04-26T08:04:21.867Z</time></trkpt><trkpt lat="40.903597253279194" lon="9.106942013849677"><ele>561.0</ele><time>2026-04-26T08:04:22.867Z</time></trkpt><trkpt lat="40.90347842742337" lon="9.106916922499416"><ele>561.0</ele><time>2026-04-26T08:04:23.867Z</time></trkpt><trkpt lat="40.90336537924899" lon="9.106886543774426"><ele>561.0</ele><time>2026-04-26T08:04:24.867Z</time></trkpt><trkpt lat="40.9032528132921" lon="9.106882507011829"><ele>561.0</ele><time>2026-04-26T08:04:25.867Z</time></trkpt><trkpt lat="40.903153395919" lon="9.106858478656742"><ele>561.0</ele><time>2026-04-26T08:04:26.867Z</time></trkpt><trkpt lat="40.90306424224732" lon="9.106828877232346"><ele>560.4</ele><time>2026-04-26T08:04:27.867Z</time></trkpt><trkpt lat="40.902984635329474" lon="9.106763761025034"><ele>559.8</ele><time>2026-04-26T08:04:28.867Z</time></trkpt><trkpt lat="40.90291068985757" lon="9.106681588746627"><ele>559.1999999999999</ele><time>2026-04-26T08:04:29.867Z</time></trkpt><trkpt lat="40.90285087348721" lon="9.106574002558004"><ele>558.6</ele><time>2026-04-26T08:04:30.867Z</time></trkpt><trkpt lat="40.90280578115321" lon="9.106455114205302"><ele>558.0</ele><time>2026-04-26T08:04:31.867Z</time></trkpt><trkpt lat="40.9027723342805" lon="9.106327748446006"><ele>557.1999999999999</ele><time>2026-04-26T08:04:32.867Z</time></trkpt><trkpt lat="40.90272670789745" lon="9.106201166606398"><ele>556.4</ele><time>2026-04-26T08:04:33.867Z</time></trkpt><trkpt lat="40.90267842418112" lon="9.106077951556104"><ele>555.5999999999999</ele><time>2026-04-26T08:04:34.867Z</time></trkpt><trkpt lat="40.90260943173112" lon="9.105977092827214"><ele>554.8</ele><time>2026-04-26T08:04:35.867Z</time></trkpt><trkpt lat="40.902533808215566" lon="9.105907350461887"><ele>554.0</ele><time>2026-04-26T08:04:36.867Z</time></trkpt><trkpt lat="40.90245601310404" lon="9.10587399852308"><ele>554.0</ele><time>2026-04-26T08:04:37.867Z</time></trkpt><trkpt lat="40.90236011271374" lon="9.105879731490523"><ele>554.0</ele><time>2026-04-26T08:04:38.867Z</time></trkpt><trkpt lat="40.90228057537673" lon="9.10587335427784"><ele>554.0</ele><time>2026-04-26T08:04:39.867Z</time></trkpt><trkpt lat="40.90220920177802" lon="9.105902839007086"><ele>554.0</ele><time>2026-04-26T08:04:40.867Z</time></trkpt><trkpt lat="40.90214455726547" lon="9.10596579604886"><ele>554.0</ele><time>2026-04-26T08:04:41.867Z</time></trkpt><trkpt lat="40.90208513401281" lon="9.106022891837439"><ele>554.0</ele><time>2026-04-26T08:04:42.867Z</time></trkpt><trkpt lat="40.902034298224486" lon="9.10607559368188"><ele>554.0</ele><time>2026-04-26T08:04:43.866Z</time></trkpt><trkpt lat="40.901961580128784" lon="9.106158214704905"><ele>554.0</ele><time>2026-04-26T08:04:45.866Z</time></trkpt><trkpt lat="40.90188405532868" lon="9.106272979176675"><ele>554.0</ele><time>2026-04-26T08:04:47.866Z</time></trkpt><trkpt lat="40.901842573228855" lon="9.106345357384876"><ele>554.0</ele><time>2026-04-26T08:04:48.866Z</time></trkpt><trkpt lat="40.90180630740439" lon="9.10642978769603"><ele>554.0</ele><time>2026-04-26T08:04:49.866Z</time></trkpt><trkpt lat="40.901771830168755" lon="9.106517959603952"><ele>554.0</ele><time>2026-04-26T08:04:50.866Z</time></trkpt><trkpt lat="40.90174848768187" lon="9.106620610477403"><ele>553.5</ele><time>2026-04-26T08:04:51.866Z</time></trkpt><trkpt lat="40.90172590787229" lon="9.106729701186493"><ele>553.0</ele><time>2026-04-26T08:04:52.866Z</time></trkpt><trkpt lat="40.90170061715959" lon="9.106835556869457"><ele>552.5</ele><time>2026-04-26T08:04:53.866Z</time></trkpt><trkpt lat="40.90168049513524" lon="9.106950684643778"><ele>552.0</ele><time>2026-04-26T08:04:54.866Z</time></trkpt><trkpt lat="40.901667022207405" lon="9.1070688026647"><ele>551.5</ele><time>2026-04-26T08:04:55.866Z</time></trkpt><trkpt lat="40.90167147554037" lon="9.107186817758487"><ele>551.0</ele><time>2026-04-26T08:04:56.866Z</time></trkpt><trkpt lat="40.901682487303695" lon="9.107293403139893"><ele>551.0</ele><time>2026-04-26T08:04:57.866Z</time></trkpt><trkpt lat="40.90169063361353" lon="9.10737615912437"><ele>551.0</ele><time>2026-04-26T08:04:58.866Z</time></trkpt><trkpt lat="40.90170686650506" lon="9.107508361560884"><ele>551.0</ele><time>2026-04-26T08:05:00.867Z</time></trkpt><trkpt lat="40.90172794221791" lon="9.10759279247813"><ele>551.0</ele><time>2026-04-26T08:05:02.867Z</time></trkpt><trkpt lat="40.90174323641276" lon="9.10771864910476"><ele>551.0</ele><time>2026-04-26T08:05:04.867Z</time></trkpt><trkpt lat="40.90176217026057" lon="9.107798181444215"><ele>551.0</ele><time>2026-04-26T08:05:05.868Z</time></trkpt><trkpt lat="40.901784339774295" lon="9.107891317913202"><ele>548.4</ele><time>2026-04-26T08:05:06.867Z</time></trkpt><trkpt lat="40.90180570592275" lon="9.107998151382262"><ele>545.8</ele><time>2026-04-26T08:05:07.867Z</time></trkpt><trkpt lat="40.90183079399311" lon="9.108114841292908"><ele>543.1999999999999</ele><time>2026-04-26T08:05:08.867Z</time></trkpt><trkpt lat="40.9018590528483" lon="9.108233133359743"><ele>540.6</ele><time>2026-04-26T08:05:09.867Z</time></trkpt><trkpt lat="40.9018909775631" lon="9.108349240394347"><ele>538.0</ele><time>2026-04-26T08:05:10.867Z</time></trkpt><trkpt lat="40.90192813894742" lon="9.108470366347321"><ele>537.0</ele><time>2026-04-26T08:05:11.866Z</time></trkpt><trkpt lat="40.90197747193601" lon="9.108590465079004"><ele>536.0</ele><time>2026-04-26T08:05:12.867Z</time></trkpt><trkpt lat="40.90203115898327" lon="9.108717930124964"><ele>535.0</ele><time>2026-04-26T08:05:13.867Z</time></trkpt><trkpt lat="40.902088128583536" lon="9.108851089850196"><ele>534.0</ele><time>2026-04-26T08:05:14.867Z</time></trkpt><trkpt lat="40.90214951492932" lon="9.108983414536894"><ele>533.0</ele><time>2026-04-26T08:05:15.867Z</time></trkpt><trkpt lat="40.90222330900578" lon="9.109109960912026"><ele>533.0</ele><time>2026-04-26T08:05:16.867Z</time></trkpt><trkpt lat="40.902306260648324" lon="9.109232968702136"><ele>533.0</ele><time>2026-04-26T08:05:17.867Z</time></trkpt><trkpt lat="40.9023935901968" lon="9.109352453920312"><ele>533.0</ele><time>2026-04-26T08:05:18.867Z</time></trkpt><trkpt lat="40.90248150869513" lon="9.109467054285025"><ele>533.0</ele><time>2026-04-26T08:05:19.867Z</time></trkpt><trkpt lat="40.90256431051535" lon="9.109576532009502"><ele>530.5</ele><time>2026-04-26T08:05:20.867Z</time></trkpt><trkpt lat="40.9026553768802" lon="9.109682006410232"><ele>528.0</ele><time>2026-04-26T08:05:21.867Z</time></trkpt><trkpt lat="40.902752853019116" lon="9.109786603637037"><ele>525.5</ele><time>2026-04-26T08:05:22.867Z</time></trkpt><trkpt lat="40.90285260058395" lon="9.109892078984378"><ele>523.0</ele><time>2026-04-26T08:05:23.866Z</time></trkpt><trkpt lat="40.902955025269115" lon="9.109995798645079"><ele>523.0</ele><time>2026-04-26T08:05:24.866Z</time></trkpt><trkpt lat="40.9030625962478" lon="9.110091587868924"><ele>523.0</ele><time>2026-04-26T08:05:25.866Z</time></trkpt><trkpt lat="40.90317792968021" lon="9.110179418726181"><ele>523.0</ele><time>2026-04-26T08:05:26.866Z</time></trkpt><trkpt lat="40.90329085277862" lon="9.110263342873242"><ele>523.0</ele><time>2026-04-26T08:05:27.866Z</time></trkpt><trkpt lat="40.903404721997376" lon="9.11034469389208"><ele>522.0</ele><time>2026-04-26T08:05:28.866Z</time></trkpt><trkpt lat="40.903522784745206" lon="9.110427789001973"><ele>521.0</ele><time>2026-04-26T08:05:29.866Z</time></trkpt><trkpt lat="40.9036349425312" lon="9.110524961667116"><ele>520.0</ele><time>2026-04-26T08:05:30.866Z</time></trkpt><trkpt lat="40.90372588420269" lon="9.110661175201095"><ele>519.0</ele><time>2026-04-26T08:05:31.866Z</time></trkpt><trkpt lat="40.903787391194825" lon="9.110832905757942"><ele>518.6666666666666</ele><time>2026-04-26T08:05:32.866Z</time></trkpt><trkpt lat="40.90383130785884" lon="9.11101817824795"><ele>518.3333333333333</ele><time>2026-04-26T08:05:33.866Z</time></trkpt><trkpt lat="40.903879527195166" lon="9.111208168401646"><ele>518.0</ele><time>2026-04-26T08:05:34.866Z</time></trkpt><trkpt lat="40.90393550966299" lon="9.11140843268093"><ele>516.3333333333333</ele><time>2026-04-26T08:05:35.866Z</time></trkpt><trkpt lat="40.90398931578636" lon="9.111618460816903"><ele>514.6666666666666</ele><time>2026-04-26T08:05:36.866Z</time></trkpt><trkpt lat="40.90404374508206" lon="9.111840944613684"><ele>513.0</ele><time>2026-04-26T08:05:37.866Z</time></trkpt><trkpt lat="40.90410499514644" lon="9.11206829408502"><ele>513.0</ele><time>2026-04-26T08:05:38.866Z</time></trkpt><trkpt lat="40.90416533156125" lon="9.112305932224844"><ele>513.0</ele><time>2026-04-26T08:05:39.866Z</time></trkpt><trkpt lat="40.90421884528305" lon="9.112547127190147"><ele>513.0</ele><time>2026-04-26T08:05:40.866Z</time></trkpt><trkpt lat="40.90428149789315" lon="9.11279413524243"><ele>510.33333333333337</ele><time>2026-04-26T08:05:41.866Z</time></trkpt><trkpt lat="40.90435674114767" lon="9.113038069958131"><ele>507.6666666666667</ele><time>2026-04-26T08:05:42.866Z</time></trkpt><trkpt lat="40.90444586425026" lon="9.113285372353847"><ele>505.0</ele><time>2026-04-26T08:05:43.866Z</time></trkpt><trkpt lat="40.90455157745707" lon="9.113535600381974"><ele>503.33333333333337</ele><time>2026-04-26T08:05:44.866Z</time></trkpt><trkpt lat="40.904668673412864" lon="9.113773664642355"><ele>501.66666666666663</ele><time>2026-04-26T08:05:45.866Z</time></trkpt><trkpt lat="40.904795328892384" lon="9.114005029294447"><ele>500.0</ele><time>2026-04-26T08:05:46.866Z</time></trkpt><trkpt lat="40.90492700623067" lon="9.11422204671537"><ele>500.0</ele><time>2026-04-26T08:05:47.866Z</time></trkpt><trkpt lat="40.90504578079745" lon="9.114445083169409"><ele>500.0</ele><time>2026-04-26T08:05:48.866Z</time></trkpt><trkpt lat="40.905135391788654" lon="9.114686340443015"><ele>500.0</ele><time>2026-04-26T08:05:49.866Z</time></trkpt><trkpt lat="40.90519433768302" lon="9.114934418733547"><ele>498.0</ele><time>2026-04-26T08:05:50.866Z</time></trkpt><trkpt lat="40.90522776289238" lon="9.115184123976746"><ele>496.0</ele><time>2026-04-26T08:05:51.866Z</time></trkpt><trkpt lat="40.90523452676773" lon="9.115426977302281"><ele>494.0</ele><time>2026-04-26T08:05:52.866Z</time></trkpt><trkpt lat="40.90522007132739" lon="9.115666836589321"><ele>491.66666666666663</ele><time>2026-04-26T08:05:53.866Z</time></trkpt><trkpt lat="40.90519823614929" lon="9.115909809575225"><ele>489.33333333333337</ele><time>2026-04-26T08:05:54.866Z</time></trkpt><trkpt lat="40.90520038156306" lon="9.116161100508128"><ele>487.0</ele><time>2026-04-26T08:05:55.866Z</time></trkpt><trkpt lat="40.905212474611915" lon="9.11641000619961"><ele>487.0</ele><time>2026-04-26T08:05:56.866Z</time></trkpt><trkpt lat="40.90526792100743" lon="9.11665136993188"><ele>487.0</ele><time>2026-04-26T08:05:57.865Z</time></trkpt><trkpt lat="40.905330772221" lon="9.116888599905492"><ele>487.0</ele><time>2026-04-26T08:05:58.865Z</time></trkpt><trkpt lat="40.90538433058575" lon="9.11710504117492"><ele>487.0</ele><time>2026-04-26T08:05:59.865Z</time></trkpt><trkpt lat="40.905413742824194" lon="9.117302435373206"><ele>487.0</ele><time>2026-04-26T08:06:00.865Z</time></trkpt><trkpt lat="40.90537733201464" lon="9.117440639436737"><ele>487.0</ele><time>2026-04-26T08:06:01.865Z</time></trkpt><trkpt lat="40.90534984330186" lon="9.117611880644004"><ele>487.0</ele><time>2026-04-26T08:06:02.865Z</time></trkpt><trkpt lat="40.90531199529117" lon="9.117790487646602"><ele>484.6666666666667</ele><time>2026-04-26T08:06:03.865Z</time></trkpt><trkpt lat="40.905274381510885" lon="9.117981947886845"><ele>482.33333333333337</ele><time>2026-04-26T08:06:04.865Z</time></trkpt><trkpt lat="40.9052309981229" lon="9.118192429698428"><ele>480.0</ele><time>2026-04-26T08:06:05.865Z</time></trkpt><trkpt lat="40.90519954043083" lon="9.11840905499363"><ele>479.0</ele><time>2026-04-26T08:06:06.865Z</time></trkpt><trkpt lat="40.90516894139058" lon="9.118633398082205"><ele>478.0</ele><time>2026-04-26T08:06:07.865Z</time></trkpt><trkpt lat="40.90515730529042" lon="9.118792536897734"><ele>477.0</ele><time>2026-04-26T08:06:08.865Z</time></trkpt><trkpt lat="40.90491462219025" lon="9.119783376584985"><ele>475.33333333333337</ele><time>2026-04-26T08:06:09.865Z</time></trkpt><trkpt lat="40.9048586431282" lon="9.120057228603699"><ele>473.6666666666667</ele><time>2026-04-26T08:06:10.865Z</time></trkpt><trkpt lat="40.90480822176329" lon="9.120311705887671"><ele>472.0</ele><time>2026-04-26T08:06:11.865Z</time></trkpt><trkpt lat="40.90476204428782" lon="9.120562230853745"><ele>472.0</ele><time>2026-04-26T08:06:12.865Z</time></trkpt><trkpt lat="40.904718423170976" lon="9.120783240243746"><ele>472.0</ele><time>2026-04-26T08:06:13.865Z</time></trkpt><trkpt lat="40.904674701656674" lon="9.120986769137907"><ele>472.0</ele><time>2026-04-26T08:06:14.865Z</time></trkpt><trkpt lat="40.90463154337853" lon="9.121176232735762"><ele>472.0</ele><time>2026-04-26T08:06:15.865Z</time></trkpt><trkpt lat="40.90458969171871" lon="9.121354053540067"><ele>472.0</ele><time>2026-04-26T08:06:16.865Z</time></trkpt><trkpt lat="40.904552184199154" lon="9.121513975699473"><ele>472.0</ele><time>2026-04-26T08:06:17.865Z</time></trkpt><trkpt lat="40.90450130187161" lon="9.12165140912712"><ele>472.0</ele><time>2026-04-26T08:06:18.865Z</time></trkpt><trkpt lat="40.904412304784735" lon="9.121722218141377"><ele>472.8</ele><time>2026-04-26T08:06:19.865Z</time></trkpt><trkpt lat="40.90433166573626" lon="9.121784814395726"><ele>473.6</ele><time>2026-04-26T08:06:20.865Z</time></trkpt><trkpt lat="40.90424141253732" lon="9.121816428482353"><ele>474.40000000000003</ele><time>2026-04-26T08:06:21.865Z</time></trkpt><trkpt lat="40.904159807734175" lon="9.12186020739072"><ele>475.20000000000005</ele><time>2026-04-26T08:06:22.865Z</time></trkpt><trkpt lat="40.9041067254303" lon="9.121957492745505"><ele>476.0</ele><time>2026-04-26T08:06:23.865Z</time></trkpt><trkpt lat="40.90409952722749" lon="9.12208703737536"><ele>476.75</ele><time>2026-04-26T08:06:24.865Z</time></trkpt><trkpt lat="40.9041417106918" lon="9.122218872677271"><ele>477.5</ele><time>2026-04-26T08:06:25.865Z</time></trkpt><trkpt lat="40.90422001897669" lon="9.122350704568431"><ele>478.25</ele><time>2026-04-26T08:06:26.865Z</time></trkpt><trkpt lat="40.90431561097716" lon="9.122503857469383"><ele>479.0</ele><time>2026-04-26T08:06:27.865Z</time></trkpt><trkpt lat="40.9043882322672" lon="9.12270757178144"><ele>479.3333333333333</ele><time>2026-04-26T08:06:28.865Z</time></trkpt><trkpt lat="40.90445839988091" lon="9.122913736310831"><ele>479.66666666666663</ele><time>2026-04-26T08:06:29.865Z</time></trkpt><trkpt lat="40.904537309761686" lon="9.123128920634388"><ele>480.0</ele><time>2026-04-26T08:06:30.865Z</time></trkpt><trkpt lat="40.904624903908726" lon="9.123343855204016"><ele>481.0</ele><time>2026-04-26T08:06:31.865Z</time></trkpt><trkpt lat="40.90470847110114" lon="9.12357138992369"><ele>482.0</ele><time>2026-04-26T08:06:32.864Z</time></trkpt><trkpt lat="40.90479951869913" lon="9.123790703280692"><ele>483.0</ele><time>2026-04-26T08:06:33.864Z</time></trkpt><trkpt lat="40.90489235631687" lon="9.124021735590096"><ele>485.0</ele><time>2026-04-26T08:06:34.864Z</time></trkpt><trkpt lat="40.90497628737684" lon="9.12425733465057"><ele>487.0</ele><time>2026-04-26T08:06:35.864Z</time></trkpt><trkpt lat="40.905066045334955" lon="9.124487133331844"><ele>489.0</ele><time>2026-04-26T08:06:36.864Z</time></trkpt><trkpt lat="40.90515533971559" lon="9.124703877435923"><ele>492.0</ele><time>2026-04-26T08:06:37.864Z</time></trkpt><trkpt lat="40.90523749290569" lon="9.124898835187112"><ele>495.0</ele><time>2026-04-26T08:06:38.864Z</time></trkpt><trkpt lat="40.90530736093996" lon="9.125077012563898"><ele>498.0</ele><time>2026-04-26T08:06:39.864Z</time></trkpt><trkpt lat="40.90537005472125" lon="9.125237563152378"><ele>498.0</ele><time>2026-04-26T08:06:40.864Z</time></trkpt><trkpt lat="40.90543100055391" lon="9.125387039680461"><ele>498.0</ele><time>2026-04-26T08:06:41.864Z</time></trkpt><trkpt lat="40.905487698173474" lon="9.125540618298755"><ele>498.0</ele><time>2026-04-26T08:06:42.864Z</time></trkpt><trkpt lat="40.90555462607737" lon="9.125713212990062"><ele>498.0</ele><time>2026-04-26T08:06:43.864Z</time></trkpt><trkpt lat="40.90562959441357" lon="9.125913076122538"><ele>498.0</ele><time>2026-04-26T08:06:44.864Z</time></trkpt><trkpt lat="40.90571136884869" lon="9.126135785933114"><ele>498.0</ele><time>2026-04-26T08:06:45.864Z</time></trkpt><trkpt lat="40.90578966527053" lon="9.126372900124208"><ele>498.0</ele><time>2026-04-26T08:06:46.864Z</time></trkpt><trkpt lat="40.90587540540601" lon="9.126601860701236"><ele>496.66666666666663</ele><time>2026-04-26T08:06:47.864Z</time></trkpt><trkpt lat="40.90594864894271" lon="9.1268032991635"><ele>495.3333333333333</ele><time>2026-04-26T08:06:48.864Z</time></trkpt><trkpt lat="40.906008183889654" lon="9.12700786003473"><ele>494.0</ele><time>2026-04-26T08:06:49.864Z</time></trkpt><trkpt lat="40.90608047124971" lon="9.127193198975045"><ele>494.0</ele><time>2026-04-26T08:06:50.864Z</time></trkpt><trkpt lat="40.906154294234575" lon="9.127370571030387"><ele>494.0</ele><time>2026-04-26T08:06:51.864Z</time></trkpt><trkpt lat="40.90621030168603" lon="9.127521730964581"><ele>494.0</ele><time>2026-04-26T08:06:52.864Z</time></trkpt><trkpt lat="40.906257171045" lon="9.127663549888739"><ele>494.0</ele><time>2026-04-26T08:06:53.864Z</time></trkpt><trkpt lat="40.90629606756135" lon="9.127806105068759"><ele>493.79999999999995</ele><time>2026-04-26T08:06:54.864Z</time></trkpt><trkpt lat="40.90633327246233" lon="9.127943765418019"><ele>493.59999999999997</ele><time>2026-04-26T08:06:55.864Z</time></trkpt><trkpt lat="40.90636725667503" lon="9.128078894695497"><ele>493.4</ele><time>2026-04-26T08:06:56.864Z</time></trkpt><trkpt lat="40.90639318267518" lon="9.128212679806369"><ele>493.2</ele><time>2026-04-26T08:06:57.864Z</time></trkpt><trkpt lat="40.906417571778576" lon="9.128341512166243"><ele>493.0</ele><time>2026-04-26T08:06:58.864Z</time></trkpt><trkpt lat="40.906434819151876" lon="9.128469861393675"><ele>492.4</ele><time>2026-04-26T08:06:59.864Z</time></trkpt><trkpt lat="40.90645601145077" lon="9.128596467379882"><ele>491.79999999999995</ele><time>2026-04-26T08:07:00.864Z</time></trkpt><trkpt lat="40.90647922038103" lon="9.128722982695038"><ele>491.2</ele><time>2026-04-26T08:07:01.864Z</time></trkpt><trkpt lat="40.906498476867746" lon="9.128847630632297"><ele>490.6</ele><time>2026-04-26T08:07:02.864Z</time></trkpt><trkpt lat="40.90652138000292" lon="9.128977356640174"><ele>490.0</ele><time>2026-04-26T08:07:03.864Z</time></trkpt><trkpt lat="40.90654227387533" lon="9.12911141442033"><ele>490.0</ele><time>2026-04-26T08:07:04.864Z</time></trkpt><trkpt lat="40.90656820963323" lon="9.129243694271947"><ele>490.0</ele><time>2026-04-26T08:07:05.866Z</time></trkpt><trkpt lat="40.90659451981006" lon="9.129386299037845"><ele>490.0</ele><time>2026-04-26T08:07:06.865Z</time></trkpt><trkpt lat="40.90661969271179" lon="9.129527166273153"><ele>490.0</ele><time>2026-04-26T08:07:07.865Z</time></trkpt><trkpt lat="40.906640115588644" lon="9.12966667501971"><ele>490.0</ele><time>2026-04-26T08:07:08.865Z</time></trkpt><trkpt lat="40.90666111001506" lon="9.129812054621498"><ele>489.25</ele><time>2026-04-26T08:07:09.864Z</time></trkpt><trkpt lat="40.90668605636988" lon="9.129972672930604"><ele>488.5</ele><time>2026-04-26T08:07:10.864Z</time></trkpt><trkpt lat="40.90670066420982" lon="9.130132503404065"><ele>487.75</ele><time>2026-04-26T08:07:11.865Z</time></trkpt><trkpt lat="40.90670740703363" lon="9.130288833340376"><ele>487.0</ele><time>2026-04-26T08:07:12.865Z</time></trkpt><trkpt lat="40.906719304312055" lon="9.130439786969797"><ele>487.0</ele><time>2026-04-26T08:07:13.865Z</time></trkpt><trkpt lat="40.90672126885619" lon="9.130585052201134"><ele>487.0</ele><time>2026-04-26T08:07:14.865Z</time></trkpt><trkpt lat="40.906709830117734" lon="9.130734634829343"><ele>487.0</ele><time>2026-04-26T08:07:15.864Z</time></trkpt><trkpt lat="40.90669594536125" lon="9.130891394892375"><ele>487.0</ele><time>2026-04-26T08:07:16.864Z</time></trkpt><trkpt lat="40.90666778304739" lon="9.131054663038187"><ele>486.5</ele><time>2026-04-26T08:07:17.865Z</time></trkpt><trkpt lat="40.90664065932538" lon="9.131227673202027"><ele>486.0</ele><time>2026-04-26T08:07:18.865Z</time></trkpt><trkpt lat="40.906613541396226" lon="9.131420697154429"><ele>485.5</ele><time>2026-04-26T08:07:19.865Z</time></trkpt><trkpt lat="40.906586812975185" lon="9.131617811206523"><ele>485.0</ele><time>2026-04-26T08:07:20.865Z</time></trkpt><trkpt lat="40.906555590778595" lon="9.131815834432922"><ele>483.3333333333333</ele><time>2026-04-26T08:07:21.865Z</time></trkpt><trkpt lat="40.906526182099086" lon="9.132010411689143"><ele>481.66666666666663</ele><time>2026-04-26T08:07:22.865Z</time></trkpt><trkpt lat="40.90649532287531" lon="9.132210644185085"><ele>480.0</ele><time>2026-04-26T08:07:23.865Z</time></trkpt><trkpt lat="40.90646279931852" lon="9.132418883359433"><ele>479.33333333333337</ele><time>2026-04-26T08:07:24.865Z</time></trkpt><trkpt lat="40.90642789646789" lon="9.132636211085362"><ele>478.6666666666667</ele><time>2026-04-26T08:07:25.865Z</time></trkpt><trkpt lat="40.906399570066725" lon="9.132852473518938"><ele>478.0</ele><time>2026-04-26T08:07:26.865Z</time></trkpt><trkpt lat="40.90638267566977" lon="9.133076153989485"><ele>476.33333333333337</ele><time>2026-04-26T08:07:27.865Z</time></trkpt><trkpt lat="40.906376256687224" lon="9.133303420082663"><ele>474.66666666666663</ele><time>2026-04-26T08:07:28.865Z</time></trkpt><trkpt lat="40.906371733475225" lon="9.133526183008083"><ele>473.0</ele><time>2026-04-26T08:07:29.865Z</time></trkpt><trkpt lat="40.90637324484963" lon="9.133741021866667"><ele>473.0</ele><time>2026-04-26T08:07:30.865Z</time></trkpt><trkpt lat="40.9063725751247" lon="9.133961605364695"><ele>473.0</ele><time>2026-04-26T08:07:31.865Z</time></trkpt><trkpt lat="40.906367413506224" lon="9.134171447218549"><ele>473.0</ele><time>2026-04-26T08:07:32.865Z</time></trkpt><trkpt lat="40.90636203265024" lon="9.134379238886403"><ele>472.66666666666663</ele><time>2026-04-26T08:07:33.865Z</time></trkpt><trkpt lat="40.906353809257524" lon="9.134587405290429"><ele>472.33333333333337</ele><time>2026-04-26T08:07:34.865Z</time></trkpt><trkpt lat="40.90635149925172" lon="9.134791671682208"><ele>472.0</ele><time>2026-04-26T08:07:35.864Z</time></trkpt><trkpt lat="40.90635130105881" lon="9.135000002330637"><ele>472.0</ele><time>2026-04-26T08:07:36.864Z</time></trkpt><trkpt lat="40.90634328685249" lon="9.13520118694914"><ele>472.0</ele><time>2026-04-26T08:07:37.864Z</time></trkpt><trkpt lat="40.90633859022141" lon="9.13541367890674"><ele>472.0</ele><time>2026-04-26T08:07:38.864Z</time></trkpt><trkpt lat="40.90634487469832" lon="9.135632409854582"><ele>470.6666666666667</ele><time>2026-04-26T08:07:39.864Z</time></trkpt><trkpt lat="40.90632749757933" lon="9.135878607841947"><ele>469.33333333333337</ele><time>2026-04-26T08:07:40.864Z</time></trkpt><trkpt lat="40.90632421640324" lon="9.136134568664293"><ele>468.0</ele><time>2026-04-26T08:07:41.864Z</time></trkpt><trkpt lat="40.906320818743076" lon="9.13639961635564"><ele>467.66666666666663</ele><time>2026-04-26T08:07:42.864Z</time></trkpt><trkpt lat="40.906317299497765" lon="9.136674148943122"><ele>467.3333333333333</ele><time>2026-04-26T08:07:43.864Z</time></trkpt><trkpt lat="40.906313955085515" lon="9.13694217051853"><ele>467.0</ele><time>2026-04-26T08:07:44.864Z</time></trkpt><trkpt lat="40.906311180731905" lon="9.137214830094656"><ele>466.66666666666663</ele><time>2026-04-26T08:07:45.864Z</time></trkpt><trkpt lat="40.90630909900721" lon="9.137486598958382"><ele>466.33333333333337</ele><time>2026-04-26T08:07:46.864Z</time></trkpt><trkpt lat="40.90630703026307" lon="9.137756673258613"><ele>466.0</ele><time>2026-04-26T08:07:47.864Z</time></trkpt><trkpt lat="40.90630553394792" lon="9.138030900088216"><ele>465.0</ele><time>2026-04-26T08:07:48.864Z</time></trkpt><trkpt lat="40.90630448574147" lon="9.138303553117819"><ele>464.0</ele><time>2026-04-26T08:07:49.864Z</time></trkpt><trkpt lat="40.90630342766081" lon="9.138578774877377"><ele>463.0</ele><time>2026-04-26T08:07:50.864Z</time></trkpt><trkpt lat="40.90630236684369" lon="9.138854707872847"><ele>461.0</ele><time>2026-04-26T08:07:51.864Z</time></trkpt><trkpt lat="40.90631572670907" lon="9.139132990998537"><ele>459.0</ele><time>2026-04-26T08:07:52.864Z</time></trkpt><trkpt lat="40.90630025821981" lon="9.139403191353699"><ele>457.0</ele><time>2026-04-26T08:07:53.864Z</time></trkpt><trkpt lat="40.9062992095418" lon="9.139681661841625"><ele>455.0</ele><time>2026-04-26T08:07:54.864Z</time></trkpt><trkpt lat="40.90629814591176" lon="9.139965598388631"><ele>453.0</ele><time>2026-04-26T08:07:55.864Z</time></trkpt><trkpt lat="40.90629710401981" lon="9.140243731392847"><ele>451.0</ele><time>2026-04-26T08:07:56.864Z</time></trkpt><trkpt lat="40.906296046757404" lon="9.140525968294078"><ele>448.33333333333337</ele><time>2026-04-26T08:07:57.864Z</time></trkpt><trkpt lat="40.90629300950088" lon="9.140810092857057"><ele>445.66666666666663</ele><time>2026-04-26T08:07:58.864Z</time></trkpt><trkpt lat="40.906291426673654" lon="9.141094838856006"><ele>443.0</ele><time>2026-04-26T08:07:59.864Z</time></trkpt><trkpt lat="40.90628984232138" lon="9.141377879275588"><ele>443.66666666666663</ele><time>2026-04-26T08:08:00.864Z</time></trkpt><trkpt lat="40.90628850603043" lon="9.141663168287831"><ele>444.33333333333337</ele><time>2026-04-26T08:08:01.864Z</time></trkpt><trkpt lat="40.90628781197901" lon="9.14194571655573"><ele>445.0</ele><time>2026-04-26T08:08:02.864Z</time></trkpt><trkpt lat="40.90628713610388" lon="9.142220865451625"><ele>444.6666666666667</ele><time>2026-04-26T08:08:03.864Z</time></trkpt><trkpt lat="40.9062863483517" lon="9.142499790334186"><ele>444.33333333333337</ele><time>2026-04-26T08:08:04.864Z</time></trkpt><trkpt lat="40.90629763660024" lon="9.14278049242977"><ele>444.0</ele><time>2026-04-26T08:08:05.864Z</time></trkpt><trkpt lat="40.906292293261394" lon="9.143067965556627"><ele>444.0</ele><time>2026-04-26T08:08:06.864Z</time></trkpt><trkpt lat="40.9062741707861" lon="9.1433555001815"><ele>444.0</ele><time>2026-04-26T08:08:07.864Z</time></trkpt><trkpt lat="40.90627684505336" lon="9.143640952396845"><ele>444.0</ele><time>2026-04-26T08:08:08.864Z</time></trkpt><trkpt lat="40.906276867819635" lon="9.143926118193113"><ele>444.33333333333337</ele><time>2026-04-26T08:08:09.863Z</time></trkpt><trkpt lat="40.9062812171188" lon="9.144211573108644"><ele>444.6666666666667</ele><time>2026-04-26T08:08:10.863Z</time></trkpt><trkpt lat="40.90628216269811" lon="9.144497237874763"><ele>445.0</ele><time>2026-04-26T08:08:11.863Z</time></trkpt><trkpt lat="40.906281072465106" lon="9.144780286107622"><ele>445.6666666666667</ele><time>2026-04-26T08:08:12.863Z</time></trkpt><trkpt lat="40.90627971015048" lon="9.14506485547324"><ele>446.33333333333337</ele><time>2026-04-26T08:08:13.863Z</time></trkpt><trkpt lat="40.906282443866715" lon="9.145345836185873"><ele>447.0</ele><time>2026-04-26T08:08:14.863Z</time></trkpt><trkpt lat="40.906285794261436" lon="9.14562819025749"><ele>448.33333333333337</ele><time>2026-04-26T08:08:15.863Z</time></trkpt><trkpt lat="40.90627829783625" lon="9.145908755779768"><ele>449.6666666666667</ele><time>2026-04-26T08:08:16.863Z</time></trkpt><trkpt lat="40.906269733314325" lon="9.14618941211678"><ele>451.0</ele><time>2026-04-26T08:08:17.863Z</time></trkpt><trkpt lat="40.906275182122556" lon="9.146461241327636"><ele>453.0</ele><time>2026-04-26T08:08:18.863Z</time></trkpt><trkpt lat="40.906282597407404" lon="9.146734471256444"><ele>455.0</ele><time>2026-04-26T08:08:19.863Z</time></trkpt><trkpt lat="40.90627349965778" lon="9.14700148324097"><ele>457.0</ele><time>2026-04-26T08:08:20.863Z</time></trkpt><trkpt lat="40.90627299761177" lon="9.147266111580027"><ele>458.0</ele><time>2026-04-26T08:08:21.863Z</time></trkpt><trkpt lat="40.90628854362617" lon="9.147549078243099"><ele>459.0</ele><time>2026-04-26T08:08:22.863Z</time></trkpt><trkpt lat="40.90628349781717" lon="9.147820124194283"><ele>460.0</ele><time>2026-04-26T08:08:23.863Z</time></trkpt><trkpt lat="40.906278898894165" lon="9.148093036570735"><ele>460.33333333333337</ele><time>2026-04-26T08:08:24.863Z</time></trkpt><trkpt lat="40.906275169887344" lon="9.148363954499533"><ele>460.66666666666663</ele><time>2026-04-26T08:08:25.863Z</time></trkpt><trkpt lat="40.906272111455635" lon="9.148635543030636"><ele>461.0</ele><time>2026-04-26T08:08:26.863Z</time></trkpt><trkpt lat="40.906262707275616" lon="9.148909092955707"><ele>463.66666666666663</ele><time>2026-04-26T08:08:27.863Z</time></trkpt><trkpt lat="40.906236805868176" lon="9.14918591433429"><ele>466.33333333333337</ele><time>2026-04-26T08:08:28.863Z</time></trkpt><trkpt lat="40.9061858789344" lon="9.149457311692773"><ele>469.0</ele><time>2026-04-26T08:08:29.863Z</time></trkpt><trkpt lat="40.90609101385682" lon="9.149709784310282"><ele>470.33333333333337</ele><time>2026-04-26T08:08:30.863Z</time></trkpt><trkpt lat="40.90602209637909" lon="9.14998054637165"><ele>471.66666666666663</ele><time>2026-04-26T08:08:31.863Z</time></trkpt><trkpt lat="40.90592813610654" lon="9.150226221958533"><ele>473.0</ele><time>2026-04-26T08:08:32.863Z</time></trkpt><trkpt lat="40.905853345406086" lon="9.150480741748694"><ele>475.0</ele><time>2026-04-26T08:08:33.863Z</time></trkpt><trkpt lat="40.90593292333089" lon="9.150809194788522"><ele>477.0</ele><time>2026-04-26T08:08:34.863Z</time></trkpt><trkpt lat="40.90594122288653" lon="9.151082538120548"><ele>477.0</ele><time>2026-04-26T08:08:35.863Z</time></trkpt><trkpt lat="40.90596772310448" lon="9.151349111202398"><ele>477.0</ele><time>2026-04-26T08:08:36.863Z</time></trkpt><trkpt lat="40.90601179877357" lon="9.151616476907726"><ele>477.0</ele><time>2026-04-26T08:08:37.863Z</time></trkpt><trkpt lat="40.9060662890221" lon="9.151875695183497"><ele>476.33333333333337</ele><time>2026-04-26T08:08:38.863Z</time></trkpt><trkpt lat="40.90614626867491" lon="9.152126925627996"><ele>475.6666666666667</ele><time>2026-04-26T08:08:39.863Z</time></trkpt><trkpt lat="40.906247471978894" lon="9.152367578934452"><ele>475.0</ele><time>2026-04-26T08:08:40.863Z</time></trkpt><trkpt lat="40.906362052321" lon="9.152601269516696"><ele>474.33333333333337</ele><time>2026-04-26T08:08:41.863Z</time></trkpt><trkpt lat="40.90649566049666" lon="9.152821481145942"><ele>473.66666666666663</ele><time>2026-04-26T08:08:42.863Z</time></trkpt><trkpt lat="40.90665160530535" lon="9.153014014921824"><ele>473.0</ele><time>2026-04-26T08:08:43.862Z</time></trkpt><trkpt lat="40.90682498788332" lon="9.15317750566317"><ele>473.3333333333333</ele><time>2026-04-26T08:08:44.862Z</time></trkpt><trkpt lat="40.90701554961837" lon="9.153314278825686"><ele>473.66666666666663</ele><time>2026-04-26T08:08:45.862Z</time></trkpt><trkpt lat="40.907216254363135" lon="9.153422702302281"><ele>474.0</ele><time>2026-04-26T08:08:46.862Z</time></trkpt><trkpt lat="40.907418212297735" lon="9.153523357813082"><ele>474.33333333333337</ele><time>2026-04-26T08:08:47.862Z</time></trkpt><trkpt lat="40.907610492548116" lon="9.153618980535855"><ele>474.6666666666667</ele><time>2026-04-26T08:08:48.862Z</time></trkpt><trkpt lat="40.90778708333554" lon="9.1537255348874"><ele>475.0</ele><time>2026-04-26T08:08:49.862Z</time></trkpt><trkpt lat="40.907951521442214" lon="9.15386600991346"><ele>473.6666666666667</ele><time>2026-04-26T08:08:50.862Z</time></trkpt><trkpt lat="40.90809314435649" lon="9.154054251858232"><ele>472.33333333333337</ele><time>2026-04-26T08:08:51.862Z</time></trkpt><trkpt lat="40.908215450966345" lon="9.154272046788456"><ele>471.0</ele><time>2026-04-26T08:08:52.862Z</time></trkpt><trkpt lat="40.90833229506102" lon="9.154495670516019"><ele>470.33333333333337</ele><time>2026-04-26T08:08:53.862Z</time></trkpt><trkpt lat="40.90845767816886" lon="9.15472312411838"><ele>469.6666666666667</ele><time>2026-04-26T08:08:54.862Z</time></trkpt><trkpt lat="40.90858579840562" lon="9.154937180783836"><ele>469.0</ele><time>2026-04-26T08:08:55.862Z</time></trkpt><trkpt lat="40.908716125074285" lon="9.15515010923693"><ele>469.0</ele><time>2026-04-26T08:08:56.862Z</time></trkpt><trkpt lat="40.90884353037242" lon="9.155363219354264"><ele>469.0</ele><time>2026-04-26T08:08:57.862Z</time></trkpt><trkpt lat="40.90896705963013" lon="9.15558057606881"><ele>469.0</ele><time>2026-04-26T08:08:58.862Z</time></trkpt><trkpt lat="40.909091190854966" lon="9.155794302055364"><ele>468.6666666666667</ele><time>2026-04-26T08:08:59.862Z</time></trkpt><trkpt lat="40.909218244701705" lon="9.156013508602761"><ele>468.33333333333337</ele><time>2026-04-26T08:09:00.862Z</time></trkpt><trkpt lat="40.90934720060753" lon="9.156234034799988"><ele>468.0</ele><time>2026-04-26T08:09:01.862Z</time></trkpt><trkpt lat="40.90947520655901" lon="9.156450627366446"><ele>466.33333333333337</ele><time>2026-04-26T08:09:02.862Z</time></trkpt><trkpt lat="40.90960240531265" lon="9.156667152438269"><ele>464.6666666666667</ele><time>2026-04-26T08:09:03.862Z</time></trkpt><trkpt lat="40.909732348015915" lon="9.156882971237069"><ele>463.0</ele><time>2026-04-26T08:09:04.862Z</time></trkpt><trkpt lat="40.90985868862289" lon="9.157100053664637"><ele>463.0</ele><time>2026-04-26T08:09:05.862Z</time></trkpt><trkpt lat="40.90998156407933" lon="9.157319750903492"><ele>463.0</ele><time>2026-04-26T08:09:06.862Z</time></trkpt><trkpt lat="40.910108851536414" lon="9.15752922928466"><ele>463.0</ele><time>2026-04-26T08:09:07.862Z</time></trkpt><trkpt lat="40.91023322976583" lon="9.15773615777407"><ele>464.0</ele><time>2026-04-26T08:09:08.862Z</time></trkpt><trkpt lat="40.91035257548903" lon="9.157942942092834"><ele>465.0</ele><time>2026-04-26T08:09:09.862Z</time></trkpt><trkpt lat="40.91046423831909" lon="9.158152455879"><ele>466.0</ele><time>2026-04-26T08:09:10.862Z</time></trkpt><trkpt lat="40.91055477841227" lon="9.158374509221646"><ele>463.33333333333337</ele><time>2026-04-26T08:09:11.863Z</time></trkpt><trkpt lat="40.910610634629" lon="9.158615243788832"><ele>460.66666666666663</ele><time>2026-04-26T08:09:12.863Z</time></trkpt><trkpt lat="40.91063471549643" lon="9.158870049859631"><ele>458.0</ele><time>2026-04-26T08:09:13.863Z</time></trkpt><trkpt lat="40.91064855924906" lon="9.159130656665349"><ele>456.0</ele><time>2026-04-26T08:09:14.862Z</time></trkpt><trkpt lat="40.91066860798502" lon="9.15939441595244"><ele>454.0</ele><time>2026-04-26T08:09:15.863Z</time></trkpt><trkpt lat="40.91069019475567" lon="9.159663097760612"><ele>452.0</ele><time>2026-04-26T08:09:16.863Z</time></trkpt><trkpt lat="40.91071304639926" lon="9.159932526747607"><ele>452.0</ele><time>2026-04-26T08:09:17.863Z</time></trkpt><trkpt lat="40.9107358432478" lon="9.160203927286329"><ele>452.0</ele><time>2026-04-26T08:09:18.862Z</time></trkpt><trkpt lat="40.910759826619255" lon="9.160476790155936"><ele>452.0</ele><time>2026-04-26T08:09:19.862Z</time></trkpt><trkpt lat="40.91079062961612" lon="9.160752612433491"><ele>452.66666666666663</ele><time>2026-04-26T08:09:20.862Z</time></trkpt><trkpt lat="40.91084181927702" lon="9.161026383009812"><ele>453.33333333333337</ele><time>2026-04-26T08:09:21.863Z</time></trkpt><trkpt lat="40.910913642566385" lon="9.161289081036482"><ele>454.0</ele><time>2026-04-26T08:09:22.863Z</time></trkpt><trkpt lat="40.91100573479358" lon="9.161536667820586"><ele>452.33333333333337</ele><time>2026-04-26T08:09:23.863Z</time></trkpt><trkpt lat="40.91111553656774" lon="9.16177408034643"><ele>450.66666666666663</ele><time>2026-04-26T08:09:24.863Z</time></trkpt><trkpt lat="40.91124477455278" lon="9.161995531159642"><ele>449.0</ele><time>2026-04-26T08:09:25.863Z</time></trkpt><trkpt lat="40.91139270514343" lon="9.162195184267196"><ele>448.3333333333333</ele><time>2026-04-26T08:09:26.863Z</time></trkpt><trkpt lat="40.911550836292626" lon="9.162385962975156"><ele>447.66666666666663</ele><time>2026-04-26T08:09:27.863Z</time></trkpt><trkpt lat="40.91171423302019" lon="9.162575400403385"><ele>447.0</ele><time>2026-04-26T08:09:28.863Z</time></trkpt><trkpt lat="40.91189251259815" lon="9.162756973873837"><ele>447.0</ele><time>2026-04-26T08:09:29.863Z</time></trkpt><trkpt lat="40.91206314201037" lon="9.16293297367424"><ele>447.0</ele><time>2026-04-26T08:09:30.863Z</time></trkpt><trkpt lat="40.91223482878627" lon="9.163116979939781"><ele>447.0</ele><time>2026-04-26T08:09:31.863Z</time></trkpt><trkpt lat="40.912406418643904" lon="9.163292958052761"><ele>446.33333333333337</ele><time>2026-04-26T08:09:32.863Z</time></trkpt><trkpt lat="40.91257911125654" lon="9.163464187348012"><ele>445.6666666666667</ele><time>2026-04-26T08:09:33.863Z</time></trkpt><trkpt lat="40.91274958208549" lon="9.163637069523975"><ele>445.0</ele><time>2026-04-26T08:09:34.863Z</time></trkpt><trkpt lat="40.912918313977244" lon="9.163809295294174"><ele>445.0</ele><time>2026-04-26T08:09:35.863Z</time></trkpt><trkpt lat="40.91308215465747" lon="9.163986528369618"><ele>445.0</ele><time>2026-04-26T08:09:36.863Z</time></trkpt><trkpt lat="40.91324987862604" lon="9.164153453521092"><ele>445.0</ele><time>2026-04-26T08:09:37.862Z</time></trkpt><trkpt lat="40.913419294866756" lon="9.164318410808859"><ele>442.6666666666667</ele><time>2026-04-26T08:09:38.862Z</time></trkpt><trkpt lat="40.91358288059405" lon="9.164480664090483"><ele>440.33333333333337</ele><time>2026-04-26T08:09:39.862Z</time></trkpt><trkpt lat="40.91374268777848" lon="9.164646860244067"><ele>438.0</ele><time>2026-04-26T08:09:40.862Z</time></trkpt><trkpt lat="40.913886025701586" lon="9.164832090999981"><ele>437.33333333333337</ele><time>2026-04-26T08:09:41.862Z</time></trkpt><trkpt lat="40.91395822203645" lon="9.165074036589466"><ele>436.6666666666667</ele><time>2026-04-26T08:09:42.862Z</time></trkpt><trkpt lat="40.914038152869665" lon="9.16532065344222"><ele>436.0</ele><time>2026-04-26T08:09:43.862Z</time></trkpt><trkpt lat="40.91412024243355" lon="9.16557345391487"><ele>435.6666666666667</ele><time>2026-04-26T08:09:44.862Z</time></trkpt><trkpt lat="40.91420932765615" lon="9.165817616756467"><ele>435.33333333333337</ele><time>2026-04-26T08:09:45.862Z</time></trkpt><trkpt lat="40.914292622768976" lon="9.16607621058372"><ele>435.0</ele><time>2026-04-26T08:09:46.862Z</time></trkpt><trkpt lat="40.914371452354985" lon="9.166328042740831"><ele>437.66666666666663</ele><time>2026-04-26T08:09:47.862Z</time></trkpt><trkpt lat="40.91445092789185" lon="9.166582925248239"><ele>440.3333333333333</ele><time>2026-04-26T08:09:48.862Z</time></trkpt><trkpt lat="40.91453329571953" lon="9.166826780911588"><ele>443.0</ele><time>2026-04-26T08:09:49.862Z</time></trkpt><trkpt lat="40.91460972728732" lon="9.167072473384863"><ele>443.0</ele><time>2026-04-26T08:09:50.862Z</time></trkpt><trkpt lat="40.914678793378265" lon="9.16731558409002"><ele>443.0</ele><time>2026-04-26T08:09:51.862Z</time></trkpt><trkpt lat="40.9147543254252" lon="9.167552726167353"><ele>443.0</ele><time>2026-04-26T08:09:52.862Z</time></trkpt><trkpt lat="40.91480853670977" lon="9.167791933818185"><ele>443.3333333333333</ele><time>2026-04-26T08:09:53.862Z</time></trkpt><trkpt lat="40.914892284703726" lon="9.168033506888115"><ele>443.66666666666663</ele><time>2026-04-26T08:09:54.862Z</time></trkpt><trkpt lat="40.914977149992424" lon="9.168277434614803"><ele>444.0</ele><time>2026-04-26T08:09:55.862Z</time></trkpt><trkpt lat="40.915059495940845" lon="9.168518730595602"><ele>444.33333333333337</ele><time>2026-04-26T08:09:56.862Z</time></trkpt><trkpt lat="40.91513655531703" lon="9.168773767562238"><ele>444.6666666666667</ele><time>2026-04-26T08:09:57.862Z</time></trkpt><trkpt lat="40.91521332358823" lon="9.169020188526384"><ele>445.0</ele><time>2026-04-26T08:09:58.862Z</time></trkpt><trkpt lat="40.91529517621786" lon="9.169267595619036"><ele>445.0</ele><time>2026-04-26T08:09:59.862Z</time></trkpt><trkpt lat="40.915381037176225" lon="9.169511001569628"><ele>445.0</ele><time>2026-04-26T08:10:00.862Z</time></trkpt><trkpt lat="40.91548100315069" lon="9.16973561528805"><ele>445.0</ele><time>2026-04-26T08:10:01.862Z</time></trkpt><trkpt lat="40.91563101914802" lon="9.169921386403221"><ele>444.6666666666667</ele><time>2026-04-26T08:10:02.862Z</time></trkpt><trkpt lat="40.91579860109531" lon="9.170091452758383"><ele>444.33333333333337</ele><time>2026-04-26T08:10:03.862Z</time></trkpt><trkpt lat="40.91593882512009" lon="9.17029530961729"><ele>444.0</ele><time>2026-04-26T08:10:04.862Z</time></trkpt><trkpt lat="40.916081131159075" lon="9.17049023441523"><ele>446.33333333333337</ele><time>2026-04-26T08:10:05.862Z</time></trkpt><trkpt lat="40.91622656292689" lon="9.170678381417602"><ele>448.6666666666667</ele><time>2026-04-26T08:10:06.862Z</time></trkpt><trkpt lat="40.916359408346935" lon="9.170887427510554"><ele>451.0</ele><time>2026-04-26T08:10:07.862Z</time></trkpt><trkpt lat="40.916498089655875" lon="9.171087086856957"><ele>451.0</ele><time>2026-04-26T08:10:08.862Z</time></trkpt><trkpt lat="40.9166365323547" lon="9.171285481030694"><ele>451.0</ele><time>2026-04-26T08:10:09.862Z</time></trkpt><trkpt lat="40.91677840182893" lon="9.171483175017874"><ele>451.0</ele><time>2026-04-26T08:10:10.862Z</time></trkpt><trkpt lat="40.91691066409924" lon="9.17168576245577"><ele>452.0</ele><time>2026-04-26T08:10:11.862Z</time></trkpt><trkpt lat="40.9170492340119" lon="9.171881942203754"><ele>453.0</ele><time>2026-04-26T08:10:12.861Z</time></trkpt><trkpt lat="40.9171959013332" lon="9.172068571625799"><ele>454.0</ele><time>2026-04-26T08:10:13.861Z</time></trkpt><trkpt lat="40.91734032035702" lon="9.172258506099626"><ele>453.33333333333337</ele><time>2026-04-26T08:10:14.861Z</time></trkpt><trkpt lat="40.9174841949103" lon="9.172445092569404"><ele>452.66666666666663</ele><time>2026-04-26T08:10:15.861Z</time></trkpt><trkpt lat="40.91763535912557" lon="9.172627168795199"><ele>452.0</ele><time>2026-04-26T08:10:16.861Z</time></trkpt><trkpt lat="40.91782234195303" lon="9.172756441976873"><ele>452.3333333333333</ele><time>2026-04-26T08:10:17.861Z</time></trkpt><trkpt lat="40.91800772414581" lon="9.172893274886762"><ele>452.66666666666663</ele><time>2026-04-26T08:10:18.861Z</time></trkpt><trkpt lat="40.918150831438844" lon="9.173094884913997"><ele>453.0</ele><time>2026-04-26T08:10:19.861Z</time></trkpt><trkpt lat="40.91827299296491" lon="9.173283579521081"><ele>453.0</ele><time>2026-04-26T08:10:20.861Z</time></trkpt><trkpt lat="40.918393452215646" lon="9.173489535857415"><ele>453.0</ele><time>2026-04-26T08:10:21.861Z</time></trkpt><trkpt lat="40.9185153192922" lon="9.173688574806441"><ele>453.0</ele><time>2026-04-26T08:10:22.861Z</time></trkpt><trkpt lat="40.91862770697167" lon="9.173915998777348"><ele>455.33333333333337</ele><time>2026-04-26T08:10:23.861Z</time></trkpt><trkpt lat="40.91873764847115" lon="9.174149051911607"><ele>457.6666666666667</ele><time>2026-04-26T08:10:24.861Z</time></trkpt><trkpt lat="40.91886394180213" lon="9.174362032935347"><ele>460.0</ele><time>2026-04-26T08:10:25.861Z</time></trkpt><trkpt lat="40.919023007798856" lon="9.174537633668608"><ele>460.0</ele><time>2026-04-26T08:10:26.861Z</time></trkpt><trkpt lat="40.91920697875087" lon="9.174669815980367"><ele>460.0</ele><time>2026-04-26T08:10:27.861Z</time></trkpt><trkpt lat="40.919400033566966" lon="9.174783011543557"><ele>460.0</ele><time>2026-04-26T08:10:28.861Z</time></trkpt><trkpt lat="40.91960020544684" lon="9.17488350397072"><ele>460.6666666666667</ele><time>2026-04-26T08:10:29.861Z</time></trkpt><trkpt lat="40.9197395710658" lon="9.175048332400427"><ele>461.33333333333337</ele><time>2026-04-26T08:10:30.861Z</time></trkpt><trkpt lat="40.91990338136463" lon="9.175161902786927"><ele>462.0</ele><time>2026-04-26T08:10:31.861Z</time></trkpt><trkpt lat="40.92004245896428" lon="9.175277094677348"><ele>464.33333333333337</ele><time>2026-04-26T08:10:32.861Z</time></trkpt><trkpt lat="40.92016264389819" lon="9.175398066884371"><ele>466.6666666666667</ele><time>2026-04-26T08:10:33.861Z</time></trkpt><trkpt lat="40.92027273941427" lon="9.175542158700804"><ele>469.0</ele><time>2026-04-26T08:10:34.861Z</time></trkpt><trkpt lat="40.92037223561707" lon="9.175682834231731"><ele>468.0</ele><time>2026-04-26T08:10:35.861Z</time></trkpt><trkpt lat="40.92046676684045" lon="9.175801151410338"><ele>467.0</ele><time>2026-04-26T08:10:36.861Z</time></trkpt><trkpt lat="40.92054930990102" lon="9.175898754127939"><ele>466.0</ele><time>2026-04-26T08:10:37.861Z</time></trkpt><trkpt lat="40.92062155338433" lon="9.175977413615875"><ele>465.0</ele><time>2026-04-26T08:10:38.861Z</time></trkpt><trkpt lat="40.92066822489501" lon="9.17605108260051"><ele>464.0</ele><time>2026-04-26T08:10:39.861Z</time></trkpt><trkpt lat="40.92074445605389" lon="9.176125246507029"><ele>464.00000000000006</ele><time>2026-04-26T08:10:41.861Z</time></trkpt><trkpt lat="40.92081586098744" lon="9.176175989622644"><ele>464.0</ele><time>2026-04-26T08:10:43.861Z</time></trkpt><trkpt lat="40.92085931009035" lon="9.176244872783421"><ele>464.00000000000006</ele><time>2026-04-26T08:10:45.861Z</time></trkpt><trkpt lat="40.92091777745639" lon="9.176276915740532"><ele>464.00000000000006</ele><time>2026-04-26T08:10:48.86Z</time></trkpt><trkpt lat="40.92098712812" lon="9.176256688793563"><ele>464.0</ele><time>2026-04-26T08:30:48.785Z</time></trkpt><trkpt lat="40.921055076912474" lon="9.176239948446499"><ele>464.00000000000006</ele><time>2026-04-26T08:30:51.784Z</time></trkpt><trkpt lat="40.92102403403386" lon="9.176132223615763"><ele>464.00000000000006</ele><time>2026-04-26T08:30:54.784Z</time></trkpt><trkpt lat="40.92095925793092" lon="9.176066468194417"><ele>464.0</ele><time>2026-04-26T08:30:56.784Z</time></trkpt><trkpt lat="40.92087240466493" lon="9.176014022163729"><ele>464.0</ele><time>2026-04-26T08:30:58.784Z</time></trkpt><trkpt lat="40.92077341788231" lon="9.175966645711432"><ele>464.0</ele><time>2026-04-26T08:31:00.784Z</time></trkpt><trkpt lat="40.92068982722164" lon="9.175938286143374"><ele>464.0</ele><time>2026-04-26T08:31:02.784Z</time></trkpt><trkpt lat="40.920657047662495" lon="9.17604111003222"><ele>464.0</ele><time>2026-04-26T08:31:08.784Z</time></trkpt><trkpt lat="40.920700572300944" lon="9.17619653415693"><ele>463.99999999999994</ele><time>2026-04-26T08:31:10.784Z</time></trkpt><trkpt lat="40.9207339901401" lon="9.176361526273055"><ele>464.0</ele><time>2026-04-26T08:31:12.784Z</time></trkpt><trkpt lat="40.92077153252579" lon="9.176442524571303"><ele>464.0</ele><time>2026-04-26T08:31:13.784Z</time></trkpt><trkpt lat="40.92082040535843" lon="9.176523845456247"><ele>464.0</ele><time>2026-04-26T08:31:14.784Z</time></trkpt><trkpt lat="40.920881495715676" lon="9.176597741095565"><ele>463.99999999999994</ele><time>2026-04-26T08:31:15.783Z</time></trkpt><trkpt lat="40.920947366947566" lon="9.176672398062838"><ele>464.0</ele><time>2026-04-26T08:31:16.783Z</time></trkpt><trkpt lat="40.921014334057276" lon="9.176751579661959"><ele>463.79999999999995</ele><time>2026-04-26T08:31:17.783Z</time></trkpt><trkpt lat="40.92107752567888" lon="9.176836616354214"><ele>463.59999999999997</ele><time>2026-04-26T08:31:18.783Z</time></trkpt><trkpt lat="40.921141215049246" lon="9.17692105437229"><ele>463.4</ele><time>2026-04-26T08:31:19.783Z</time></trkpt><trkpt lat="40.92119191144835" lon="9.17701363337807"><ele>463.2</ele><time>2026-04-26T08:31:20.783Z</time></trkpt><trkpt lat="40.9212525042532" lon="9.177115647783806"><ele>463.0</ele><time>2026-04-26T08:31:21.783Z</time></trkpt><trkpt lat="40.92129843281349" lon="9.177229621347333"><ele>463.0</ele><time>2026-04-26T08:31:22.783Z</time></trkpt><trkpt lat="40.921332591614345" lon="9.177354868754739"><ele>462.99999999999994</ele><time>2026-04-26T08:31:23.783Z</time></trkpt><trkpt lat="40.92136358522287" lon="9.17748356542418"><ele>462.99999999999994</ele><time>2026-04-26T08:31:24.783Z</time></trkpt><trkpt lat="40.9214019524315" lon="9.1776140769922"><ele>463.0</ele><time>2026-04-26T08:31:25.783Z</time></trkpt><trkpt lat="40.92143655411433" lon="9.177737500610073"><ele>463.0</ele><time>2026-04-26T08:31:26.783Z</time></trkpt><trkpt lat="40.921472401951235" lon="9.17785653354319"><ele>463.0</ele><time>2026-04-26T08:31:27.783Z</time></trkpt><trkpt lat="40.92150950852279" lon="9.177980978506298"><ele>462.99999999999994</ele><time>2026-04-26T08:31:28.783Z</time></trkpt><trkpt lat="40.92155237846348" lon="9.178114876008609"><ele>462.99999999999994</ele><time>2026-04-26T08:31:29.783Z</time></trkpt><trkpt lat="40.921598808219315" lon="9.178249855084324"><ele>463.0</ele><time>2026-04-26T08:31:30.783Z</time></trkpt><trkpt lat="40.92164442155947" lon="9.178389605734454"><ele>463.0</ele><time>2026-04-26T08:31:31.783Z</time></trkpt><trkpt lat="40.92168928400119" lon="9.178531573947955"><ele>463.0</ele><time>2026-04-26T08:31:32.783Z</time></trkpt><trkpt lat="40.92173820930964" lon="9.178675729145535"><ele>463.0</ele><time>2026-04-26T08:31:33.783Z</time></trkpt><trkpt lat="40.921786931538264" lon="9.178819162212168"><ele>463.0</ele><time>2026-04-26T08:31:34.783Z</time></trkpt><trkpt lat="40.92183676569531" lon="9.178963589829314"><ele>463.0</ele><time>2026-04-26T08:31:35.783Z</time></trkpt><trkpt lat="40.92188671032928" lon="9.179112924236897"><ele>463.0</ele><time>2026-04-26T08:31:36.783Z</time></trkpt><trkpt lat="40.92193905820719" lon="9.179266738877523"><ele>463.0</ele><time>2026-04-26T08:31:37.783Z</time></trkpt><trkpt lat="40.92199136579557" lon="9.17942199451637"><ele>463.0</ele><time>2026-04-26T08:31:38.783Z</time></trkpt><trkpt lat="40.922043239066895" lon="9.179581871580556"><ele>463.0</ele><time>2026-04-26T08:31:39.783Z</time></trkpt><trkpt lat="40.922099028406905" lon="9.179744768149417"><ele>463.0</ele><time>2026-04-26T08:31:40.783Z</time></trkpt><trkpt lat="40.92215625578363" lon="9.179911098773307"><ele>463.0</ele><time>2026-04-26T08:31:41.782Z</time></trkpt><trkpt lat="40.922213563710855" lon="9.18007711818457"><ele>463.0</ele><time>2026-04-26T08:31:42.782Z</time></trkpt><trkpt lat="40.92227109531229" lon="9.180244836345091"><ele>463.0</ele><time>2026-04-26T08:31:43.782Z</time></trkpt><trkpt lat="40.92233189273869" lon="9.180411510874642"><ele>463.0</ele><time>2026-04-26T08:31:44.782Z</time></trkpt><trkpt lat="40.92238792821391" lon="9.180574986732262"><ele>463.0</ele><time>2026-04-26T08:31:45.782Z</time></trkpt><trkpt lat="40.92243222342849" lon="9.180738093364171"><ele>463.0</ele><time>2026-04-26T08:31:46.782Z</time></trkpt><trkpt lat="40.92243095699428" lon="9.18090562391905"><ele>463.0</ele><time>2026-04-26T08:31:47.782Z</time></trkpt><trkpt lat="40.92238423468856" lon="9.181049842189514"><ele>463.25</ele><time>2026-04-26T08:31:48.782Z</time></trkpt><trkpt lat="40.92230392068465" lon="9.181174899773225"><ele>463.5</ele><time>2026-04-26T08:31:49.782Z</time></trkpt><trkpt lat="40.922193791850745" lon="9.18126839047462"><ele>463.75</ele><time>2026-04-26T08:31:50.782Z</time></trkpt><trkpt lat="40.922074898535136" lon="9.181344763275906"><ele>464.0</ele><time>2026-04-26T08:31:51.782Z</time></trkpt><trkpt lat="40.921951650645404" lon="9.181433502779232"><ele>463.75</ele><time>2026-04-26T08:31:52.782Z</time></trkpt><trkpt lat="40.92183025465174" lon="9.181525966323887"><ele>463.5</ele><time>2026-04-26T08:31:53.782Z</time></trkpt><trkpt lat="40.9216996232548" lon="9.181625732608662"><ele>463.25</ele><time>2026-04-26T08:31:54.782Z</time></trkpt><trkpt lat="40.92157248390641" lon="9.18172997431352"><ele>463.0</ele><time>2026-04-26T08:31:55.782Z</time></trkpt><trkpt lat="40.92144383891971" lon="9.181832451538698"><ele>464.0</ele><time>2026-04-26T08:31:56.782Z</time></trkpt><trkpt lat="40.92131261698326" lon="9.181927045326665"><ele>465.0</ele><time>2026-04-26T08:31:57.782Z</time></trkpt><trkpt lat="40.92119029514771" lon="9.18201624046792"><ele>466.0</ele><time>2026-04-26T08:31:58.782Z</time></trkpt><trkpt lat="40.921087240258096" lon="9.182122140115856"><ele>467.0</ele><time>2026-04-26T08:31:59.782Z</time></trkpt><trkpt lat="40.92101708783138" lon="9.182259087653767"><ele>467.5</ele><time>2026-04-26T08:32:00.782Z</time></trkpt><trkpt lat="40.920976488874274" lon="9.182415081296595"><ele>468.0</ele><time>2026-04-26T08:32:01.782Z</time></trkpt><trkpt lat="40.92097412985991" lon="9.182588967908227"><ele>468.5</ele><time>2026-04-26T08:32:02.782Z</time></trkpt><trkpt lat="40.92099699129996" lon="9.182761927035745"><ele>469.0</ele><time>2026-04-26T08:32:03.782Z</time></trkpt><trkpt lat="40.9210325049137" lon="9.182942547747846"><ele>469.0</ele><time>2026-04-26T08:32:04.782Z</time></trkpt><trkpt lat="40.92107189516602" lon="9.18311882645975"><ele>469.0</ele><time>2026-04-26T08:32:05.782Z</time></trkpt><trkpt lat="40.921107314825896" lon="9.183295485768015"><ele>469.0</ele><time>2026-04-26T08:32:06.782Z</time></trkpt><trkpt lat="40.92113555385354" lon="9.183461466091876"><ele>469.0</ele><time>2026-04-26T08:32:07.781Z</time></trkpt><trkpt lat="40.92116831099393" lon="9.183607945122812"><ele>470.4</ele><time>2026-04-26T08:32:08.781Z</time></trkpt><trkpt lat="40.921201751275916" lon="9.183749344301338"><ele>471.79999999999995</ele><time>2026-04-26T08:32:09.781Z</time></trkpt><trkpt lat="40.921232490306494" lon="9.183887361460712"><ele>473.20000000000005</ele><time>2026-04-26T08:32:10.781Z</time></trkpt><trkpt lat="40.92126208753555" lon="9.18402077460548"><ele>474.6</ele><time>2026-04-26T08:32:11.781Z</time></trkpt><trkpt lat="40.92129083055926" lon="9.184161715941071"><ele>476.0</ele><time>2026-04-26T08:32:12.781Z</time></trkpt><trkpt lat="40.921311836600196" lon="9.184280336890968"><ele>475.75</ele><time>2026-04-26T08:32:13.781Z</time></trkpt><trkpt lat="40.92133792709436" lon="9.184419372842472"><ele>475.5</ele><time>2026-04-26T08:32:14.781Z</time></trkpt><trkpt lat="40.92136439557545" lon="9.184558653099401"><ele>475.25</ele><time>2026-04-26T08:32:15.783Z</time></trkpt><trkpt lat="40.9213951954896" lon="9.184703940642112"><ele>475.0</ele><time>2026-04-26T08:32:16.782Z</time></trkpt><trkpt lat="40.921426098655985" lon="9.184857786834833"><ele>475.0</ele><time>2026-04-26T08:32:17.782Z</time></trkpt><trkpt lat="40.92145802692607" lon="9.185015484704588"><ele>475.0</ele><time>2026-04-26T08:32:18.783Z</time></trkpt><trkpt lat="40.92148948000584" lon="9.185177305397321"><ele>475.0</ele><time>2026-04-26T08:32:19.783Z</time></trkpt><trkpt lat="40.92152053760671" lon="9.185338311621532"><ele>475.0</ele><time>2026-04-26T08:32:20.783Z</time></trkpt><trkpt lat="40.92155867439384" lon="9.185502251853203"><ele>475.0</ele><time>2026-04-26T08:32:21.783Z</time></trkpt><trkpt lat="40.92159912685617" lon="9.185663480908264"><ele>475.0</ele><time>2026-04-26T08:32:22.783Z</time></trkpt><trkpt lat="40.921636365059214" lon="9.185821992078022"><ele>475.0</ele><time>2026-04-26T08:32:23.783Z</time></trkpt><trkpt lat="40.921670419761426" lon="9.185971892844998"><ele>475.0</ele><time>2026-04-26T08:32:24.783Z</time></trkpt><trkpt lat="40.921695893530206" lon="9.186127690728238"><ele>475.25</ele><time>2026-04-26T08:32:25.783Z</time></trkpt><trkpt lat="40.92172533838341" lon="9.186280891150918"><ele>475.5</ele><time>2026-04-26T08:32:26.783Z</time></trkpt><trkpt lat="40.92176000864713" lon="9.186433890100036"><ele>475.75</ele><time>2026-04-26T08:32:27.782Z</time></trkpt><trkpt lat="40.92179732305734" lon="9.186587272321804"><ele>476.0</ele><time>2026-04-26T08:32:28.782Z</time></trkpt><trkpt lat="40.92183370355506" lon="9.186742866634068"><ele>476.75</ele><time>2026-04-26T08:32:29.782Z</time></trkpt><trkpt lat="40.92186363289703" lon="9.18690211872929"><ele>477.5</ele><time>2026-04-26T08:32:30.782Z</time></trkpt><trkpt lat="40.921897688442094" lon="9.187060438333951"><ele>478.25</ele><time>2026-04-26T08:32:31.782Z</time></trkpt><trkpt lat="40.92193714459" lon="9.18721994783507"><ele>479.0</ele><time>2026-04-26T08:32:32.782Z</time></trkpt><trkpt lat="40.9219729452084" lon="9.187383078277604"><ele>479.5</ele><time>2026-04-26T08:32:33.782Z</time></trkpt><trkpt lat="40.92200135795327" lon="9.187550545979677"><ele>480.0</ele><time>2026-04-26T08:32:34.782Z</time></trkpt><trkpt lat="40.92202971236442" lon="9.187724585420487"><ele>480.5</ele><time>2026-04-26T08:32:35.782Z</time></trkpt><trkpt lat="40.922048747777964" lon="9.187900815655391"><ele>481.0</ele><time>2026-04-26T08:32:36.782Z</time></trkpt><trkpt lat="40.92203694244805" lon="9.1880800389403"><ele>482.25</ele><time>2026-04-26T08:32:37.782Z</time></trkpt><trkpt lat="40.92202383058897" lon="9.188243904539224"><ele>483.5</ele><time>2026-04-26T08:32:38.782Z</time></trkpt><trkpt lat="40.92199549716898" lon="9.188426638446458"><ele>484.75</ele><time>2026-04-26T08:32:39.782Z</time></trkpt><trkpt lat="40.92195271544759" lon="9.188595971068088"><ele>486.0</ele><time>2026-04-26T08:32:40.782Z</time></trkpt><trkpt lat="40.92188895381432" lon="9.188752057993227"><ele>486.0</ele><time>2026-04-26T08:32:41.782Z</time></trkpt><trkpt lat="40.92181142062383" lon="9.188900149396972"><ele>486.0</ele><time>2026-04-26T08:32:42.782Z</time></trkpt><trkpt lat="40.92172508998947" lon="9.189040053295841"><ele>486.0</ele><time>2026-04-26T08:32:43.782Z</time></trkpt><trkpt lat="40.9216298071327" lon="9.18919559081225"><ele>486.0</ele><time>2026-04-26T08:32:44.782Z</time></trkpt><trkpt lat="40.921502700382476" lon="9.189298914285802"><ele>485.75</ele><time>2026-04-26T08:32:45.782Z</time></trkpt><trkpt lat="40.92137822049656" lon="9.189407685366033"><ele>485.5</ele><time>2026-04-26T08:32:46.782Z</time></trkpt><trkpt lat="40.9212544205363" lon="9.189514386908872"><ele>485.25</ele><time>2026-04-26T08:32:47.782Z</time></trkpt><trkpt lat="40.92113405504694" lon="9.189635399183429"><ele>485.0</ele><time>2026-04-26T08:32:48.782Z</time></trkpt><trkpt lat="40.921006465822074" lon="9.189729376359823"><ele>484.25</ele><time>2026-04-26T08:32:49.782Z</time></trkpt><trkpt lat="40.92088432248913" lon="9.189820724249495"><ele>483.5</ele><time>2026-04-26T08:32:50.782Z</time></trkpt><trkpt lat="40.92077543605589" lon="9.189914603755438"><ele>482.75</ele><time>2026-04-26T08:32:51.782Z</time></trkpt><trkpt lat="40.920687910782114" lon="9.19002792944214"><ele>482.0</ele><time>2026-04-26T08:32:52.781Z</time></trkpt><trkpt lat="40.92062398285728" lon="9.190182490751061"><ele>483.75</ele><time>2026-04-26T08:32:53.781Z</time></trkpt><trkpt lat="40.92057108153529" lon="9.190341556892644"><ele>485.5</ele><time>2026-04-26T08:32:54.781Z</time></trkpt><trkpt lat="40.92053372736678" lon="9.190515240279417"><ele>487.25</ele><time>2026-04-26T08:32:55.781Z</time></trkpt><trkpt lat="40.920466949763224" lon="9.190665311052038"><ele>489.0</ele><time>2026-04-26T08:32:56.781Z</time></trkpt><trkpt lat="40.920419667848854" lon="9.19081187504523"><ele>492.25</ele><time>2026-04-26T08:32:57.781Z</time></trkpt><trkpt lat="40.92037463030337" lon="9.190951400099742"><ele>495.5</ele><time>2026-04-26T08:32:58.781Z</time></trkpt><trkpt lat="40.92033130528151" lon="9.191097003049972"><ele>498.75</ele><time>2026-04-26T08:32:59.781Z</time></trkpt><trkpt lat="40.92030427147948" lon="9.191252654959955"><ele>502.0</ele><time>2026-04-26T08:33:00.781Z</time></trkpt><trkpt lat="40.9202725229459" lon="9.191423902390785"><ele>503.25</ele><time>2026-04-26T08:33:01.781Z</time></trkpt><trkpt lat="40.920243852800425" lon="9.191599538817744"><ele>504.5</ele><time>2026-04-26T08:33:02.781Z</time></trkpt><trkpt lat="40.92023861021519" lon="9.191764591002702"><ele>505.75</ele><time>2026-04-26T08:33:03.781Z</time></trkpt><trkpt lat="40.92027289699832" lon="9.191940698963172"><ele>507.0</ele><time>2026-04-26T08:33:04.781Z</time></trkpt><trkpt lat="40.9203335574708" lon="9.19208247808471"><ele>507.0</ele><time>2026-04-26T08:33:05.781Z</time></trkpt><trkpt lat="40.92041808473537" lon="9.192203492386735"><ele>507.0</ele><time>2026-04-26T08:33:06.781Z</time></trkpt><trkpt lat="40.92051125020014" lon="9.19231976497544"><ele>507.0</ele><time>2026-04-26T08:33:07.781Z</time></trkpt><trkpt lat="40.92059425863744" lon="9.19243454096165"><ele>507.0</ele><time>2026-04-26T08:33:08.781Z</time></trkpt><trkpt lat="40.920683142668544" lon="9.192531440068874"><ele>507.6</ele><time>2026-04-26T08:33:09.781Z</time></trkpt><trkpt lat="40.92077916530532" lon="9.192616552755643"><ele>508.20000000000005</ele><time>2026-04-26T08:33:10.781Z</time></trkpt><trkpt lat="40.9208794826543" lon="9.192688269063582"><ele>508.8</ele><time>2026-04-26T08:33:11.781Z</time></trkpt><trkpt lat="40.92096184531464" lon="9.19277027966879"><ele>509.4</ele><time>2026-04-26T08:33:12.781Z</time></trkpt><trkpt lat="40.92104170572423" lon="9.192854666062154"><ele>510.0</ele><time>2026-04-26T08:33:13.781Z</time></trkpt><trkpt lat="40.92110986676115" lon="9.192934687434875"><ele>510.0</ele><time>2026-04-26T08:33:14.781Z</time></trkpt><trkpt lat="40.92115647206622" lon="9.193026446227394"><ele>510.0</ele><time>2026-04-26T08:33:15.781Z</time></trkpt><trkpt lat="40.92113504579408" lon="9.193141620406427"><ele>510.0</ele><time>2026-04-26T08:33:17.781Z</time></trkpt><trkpt lat="40.9211144937732" lon="9.193262762371786"><ele>510.0</ele><time>2026-04-26T08:33:22.78Z</time></trkpt><trkpt lat="40.92107131397847" lon="9.193384815052662"><ele>510.0</ele><time>2026-04-26T08:33:23.78Z</time></trkpt><trkpt lat="40.92100180233309" lon="9.193522069489122"><ele>510.0</ele><time>2026-04-26T08:33:24.78Z</time></trkpt><trkpt lat="40.92093095786755" lon="9.19365975208292"><ele>510.0</ele><time>2026-04-26T08:33:25.78Z</time></trkpt><trkpt lat="40.92085961565809" lon="9.193793752576864"><ele>510.0</ele><time>2026-04-26T08:33:26.78Z</time></trkpt><trkpt lat="40.920793365810084" lon="9.193929638812559"><ele>510.0</ele><time>2026-04-26T08:33:27.78Z</time></trkpt><trkpt lat="40.92072281560742" lon="9.194063947954337"><ele>510.75</ele><time>2026-04-26T08:33:28.78Z</time></trkpt><trkpt lat="40.9206505864133" lon="9.194211144795425"><ele>511.5</ele><time>2026-04-26T08:33:29.78Z</time></trkpt><trkpt lat="40.92059513246372" lon="9.19437206290517"><ele>512.25</ele><time>2026-04-26T08:33:30.78Z</time></trkpt><trkpt lat="40.92054047481108" lon="9.194534714868965"><ele>513.0</ele><time>2026-04-26T08:33:31.78Z</time></trkpt><trkpt lat="40.920513576633994" lon="9.194716107083561"><ele>514.5</ele><time>2026-04-26T08:33:32.78Z</time></trkpt><trkpt lat="40.92047405692446" lon="9.194877538723604"><ele>516.0</ele><time>2026-04-26T08:33:33.78Z</time></trkpt><trkpt lat="40.920430211185966" lon="9.19504416949738"><ele>517.5</ele><time>2026-04-26T08:33:34.78Z</time></trkpt><trkpt lat="40.920388679451946" lon="9.195211463842432"><ele>519.0</ele><time>2026-04-26T08:33:35.78Z</time></trkpt><trkpt lat="40.920346710559535" lon="9.19537696031658"><ele>519.0</ele><time>2026-04-26T08:33:36.78Z</time></trkpt><trkpt lat="40.920289082575415" lon="9.195543441319082"><ele>519.0</ele><time>2026-04-26T08:33:37.78Z</time></trkpt><trkpt lat="40.92021162958331" lon="9.195687071980384"><ele>519.0</ele><time>2026-04-26T08:33:38.78Z</time></trkpt><trkpt lat="40.920134141629894" lon="9.195827806857249"><ele>519.0</ele><time>2026-04-26T08:33:39.78Z</time></trkpt><trkpt lat="40.92004081386701" lon="9.19595137819018"><ele>518.25</ele><time>2026-04-26T08:33:40.78Z</time></trkpt><trkpt lat="40.91991136182561" lon="9.196035524022541"><ele>517.5</ele><time>2026-04-26T08:33:41.78Z</time></trkpt><trkpt lat="40.919792113271065" lon="9.196136249959586"><ele>516.75</ele><time>2026-04-26T08:33:42.78Z</time></trkpt><trkpt lat="40.91966872476574" lon="9.196228415832648"><ele>516.0</ele><time>2026-04-26T08:33:43.78Z</time></trkpt><trkpt lat="40.91954387846534" lon="9.196342575866119"><ele>516.0</ele><time>2026-04-26T08:33:44.78Z</time></trkpt><trkpt lat="40.919421292245836" lon="9.196442589406516"><ele>516.0</ele><time>2026-04-26T08:33:45.779Z</time></trkpt><trkpt lat="40.919295933451075" lon="9.196521434558317"><ele>516.0</ele><time>2026-04-26T08:33:46.779Z</time></trkpt><trkpt lat="40.91917025101703" lon="9.196610400845842"><ele>516.0</ele><time>2026-04-26T08:33:47.779Z</time></trkpt><trkpt lat="40.919035916155885" lon="9.196699440084915"><ele>516.25</ele><time>2026-04-26T08:33:48.779Z</time></trkpt><trkpt lat="40.91889592053967" lon="9.196777251083454"><ele>516.5</ele><time>2026-04-26T08:33:49.779Z</time></trkpt><trkpt lat="40.91876767789427" lon="9.1968606823233"><ele>516.75</ele><time>2026-04-26T08:33:50.779Z</time></trkpt><trkpt lat="40.91862679140715" lon="9.196891122219354"><ele>517.0</ele><time>2026-04-26T08:33:51.779Z</time></trkpt><trkpt lat="40.918497189310116" lon="9.196948929699865"><ele>516.0</ele><time>2026-04-26T08:33:52.779Z</time></trkpt><trkpt lat="40.918357835781165" lon="9.196987189715013"><ele>515.0</ele><time>2026-04-26T08:33:53.779Z</time></trkpt><trkpt lat="40.91822286322769" lon="9.197039670697722"><ele>514.0</ele><time>2026-04-26T08:33:54.779Z</time></trkpt><trkpt lat="40.9180914217051" lon="9.197110477149629"><ele>513.0</ele><time>2026-04-26T08:33:55.779Z</time></trkpt><trkpt lat="40.91796820102822" lon="9.197204083575857"><ele>513.0</ele><time>2026-04-26T08:33:56.779Z</time></trkpt><trkpt lat="40.91786462424679" lon="9.19732060627989"><ele>513.0</ele><time>2026-04-26T08:33:57.779Z</time></trkpt><trkpt lat="40.91777473744815" lon="9.197464878010761"><ele>513.0</ele><time>2026-04-26T08:33:58.779Z</time></trkpt><trkpt lat="40.91768927304021" lon="9.197621476878126"><ele>513.0</ele><time>2026-04-26T08:33:59.779Z</time></trkpt><trkpt lat="40.917602006750435" lon="9.197773640139292"><ele>514.75</ele><time>2026-04-26T08:34:00.779Z</time></trkpt><trkpt lat="40.91751215095201" lon="9.197927899375639"><ele>516.5</ele><time>2026-04-26T08:34:01.779Z</time></trkpt><trkpt lat="40.917419764583144" lon="9.198083749655646"><ele>518.25</ele><time>2026-04-26T08:34:02.779Z</time></trkpt><trkpt lat="40.91732456144611" lon="9.19823709763696"><ele>520.0</ele><time>2026-04-26T08:34:03.779Z</time></trkpt><trkpt lat="40.917223016079355" lon="9.198392969584326"><ele>521.3333333333334</ele><time>2026-04-26T08:34:04.779Z</time></trkpt><trkpt lat="40.9171158532691" lon="9.198552658354366"><ele>522.6666666666666</ele><time>2026-04-26T08:34:05.779Z</time></trkpt><trkpt lat="40.91701117150917" lon="9.198714244754564"><ele>524.0</ele><time>2026-04-26T08:34:06.779Z</time></trkpt><trkpt lat="40.91690963403466" lon="9.198877026140993"><ele>523.75</ele><time>2026-04-26T08:34:07.779Z</time></trkpt><trkpt lat="40.91681489604102" lon="9.19904341607268"><ele>523.5</ele><time>2026-04-26T08:34:08.779Z</time></trkpt><trkpt lat="40.916687442198224" lon="9.199140987294701"><ele>523.25</ele><time>2026-04-26T08:34:09.779Z</time></trkpt><trkpt lat="40.91655836259708" lon="9.199216326387335"><ele>523.0</ele><time>2026-04-26T08:34:10.779Z</time></trkpt><trkpt lat="40.916417514733105" lon="9.199265819314663"><ele>523.0</ele><time>2026-04-26T08:34:11.778Z</time></trkpt><trkpt lat="40.916269329249886" lon="9.19931192227382"><ele>523.0</ele><time>2026-04-26T08:34:12.778Z</time></trkpt><trkpt lat="40.91611771881243" lon="9.199360825322383"><ele>523.0</ele><time>2026-04-26T08:34:13.778Z</time></trkpt><trkpt lat="40.91596281839684" lon="9.199424434741376"><ele>523.3333333333334</ele><time>2026-04-26T08:34:14.778Z</time></trkpt><trkpt lat="40.91580184357926" lon="9.199476887158426"><ele>523.6666666666666</ele><time>2026-04-26T08:34:15.778Z</time></trkpt><trkpt lat="40.91564002003536" lon="9.199531745704304"><ele>524.0</ele><time>2026-04-26T08:34:16.778Z</time></trkpt><trkpt lat="40.91546895542868" lon="9.199554038880702"><ele>524.0</ele><time>2026-04-26T08:34:17.778Z</time></trkpt><trkpt lat="40.91530514873968" lon="9.199559417385009"><ele>524.0</ele><time>2026-04-26T08:34:18.778Z</time></trkpt><trkpt lat="40.915161029282594" lon="9.199525390999494"><ele>524.0</ele><time>2026-04-26T08:34:19.778Z</time></trkpt><trkpt lat="40.9150177736119" lon="9.199464099192204"><ele>525.0</ele><time>2026-04-26T08:34:20.778Z</time></trkpt><trkpt lat="40.91490057242531" lon="9.199353429485285"><ele>526.0</ele><time>2026-04-26T08:34:21.78Z</time></trkpt><trkpt lat="40.91477557249087" lon="9.199244925514426"><ele>527.0</ele><time>2026-04-26T08:34:22.779Z</time></trkpt><trkpt lat="40.91465976278332" lon="9.199113089963477"><ele>528.0</ele><time>2026-04-26T08:34:23.779Z</time></trkpt><trkpt lat="40.91453589326626" lon="9.198984768974574"><ele>528.0</ele><time>2026-04-26T08:34:24.779Z</time></trkpt><trkpt lat="40.91440478459428" lon="9.198855610084259"><ele>528.0</ele><time>2026-04-26T08:34:25.779Z</time></trkpt><trkpt lat="40.914266204699835" lon="9.198747642226994"><ele>528.0</ele><time>2026-04-26T08:34:26.779Z</time></trkpt><trkpt lat="40.914112064906625" lon="9.198659429501562"><ele>530.6666666666666</ele><time>2026-04-26T08:34:27.78Z</time></trkpt><trkpt lat="40.913949378369395" lon="9.198594020886889"><ele>533.3333333333333</ele><time>2026-04-26T08:34:28.779Z</time></trkpt><trkpt lat="40.91378481562804" lon="9.198531626235694"><ele>536.0</ele><time>2026-04-26T08:34:29.779Z</time></trkpt><trkpt lat="40.91362806927067" lon="9.198486896897457"><ele>536.0</ele><time>2026-04-26T08:34:30.779Z</time></trkpt><trkpt lat="40.91352522783516" lon="9.19837074322663"><ele>536.0</ele><time>2026-04-26T08:34:31.778Z</time></trkpt><trkpt lat="40.913446218423886" lon="9.198241904935031"><ele>536.0</ele><time>2026-04-26T08:34:32.778Z</time></trkpt><trkpt lat="40.91341605034335" lon="9.19806602000482"><ele>536.0</ele><time>2026-04-26T08:34:33.779Z</time></trkpt><trkpt lat="40.91339266570624" lon="9.19785941095798"><ele>538.3333333333333</ele><time>2026-04-26T08:34:34.778Z</time></trkpt><trkpt lat="40.91333665969627" lon="9.197667106162859"><ele>540.6666666666666</ele><time>2026-04-26T08:34:35.778Z</time></trkpt><trkpt lat="40.91325596020821" lon="9.197480845481776"><ele>543.0</ele><time>2026-04-26T08:34:36.778Z</time></trkpt><trkpt lat="40.91319646635224" lon="9.197291542717977"><ele>543.0</ele><time>2026-04-26T08:34:37.778Z</time></trkpt><trkpt lat="40.913121241243616" lon="9.197108543130177"><ele>543.0</ele><time>2026-04-26T08:34:38.778Z</time></trkpt><trkpt lat="40.913024817165756" lon="9.196934830810742"><ele>543.0</ele><time>2026-04-26T08:34:39.778Z</time></trkpt><trkpt lat="40.91291797766443" lon="9.1967859298989"><ele>543.0</ele><time>2026-04-26T08:34:40.778Z</time></trkpt><trkpt lat="40.91277425344417" lon="9.19666080600559"><ele>543.0</ele><time>2026-04-26T08:34:41.778Z</time></trkpt><trkpt lat="40.91266780548377" lon="9.196521764977483"><ele>543.0</ele><time>2026-04-26T08:34:42.778Z</time></trkpt><trkpt lat="40.91258570465538" lon="9.196394693401034"><ele>543.0</ele><time>2026-04-26T08:34:43.778Z</time></trkpt><trkpt lat="40.91260623863382" lon="9.1962273022327"><ele>542.75</ele><time>2026-04-26T08:34:44.778Z</time></trkpt><trkpt lat="40.912632930419505" lon="9.196045627546416"><ele>542.5</ele><time>2026-04-26T08:34:45.778Z</time></trkpt><trkpt lat="40.91265510347652" lon="9.195861999748644"><ele>542.25</ele><time>2026-04-26T08:34:46.778Z</time></trkpt><trkpt lat="40.912647322915646" lon="9.195679721808597"><ele>542.0</ele><time>2026-04-26T08:34:47.778Z</time></trkpt><trkpt lat="40.91260908577277" lon="9.195481897333558"><ele>545.5</ele><time>2026-04-26T08:34:48.778Z</time></trkpt><trkpt lat="40.91256359522106" lon="9.195298287718385"><ele>549.0</ele><time>2026-04-26T08:34:49.778Z</time></trkpt><trkpt lat="40.91249584129235" lon="9.19512071431996"><ele>552.5</ele><time>2026-04-26T08:34:50.778Z</time></trkpt><trkpt lat="40.912415246508424" lon="9.194959717809867"><ele>556.0</ele><time>2026-04-26T08:34:51.778Z</time></trkpt><trkpt lat="40.91230767201938" lon="9.194808714351757"><ele>559.25</ele><time>2026-04-26T08:34:52.778Z</time></trkpt><trkpt lat="40.912206945822945" lon="9.194664542563006"><ele>562.5</ele><time>2026-04-26T08:34:53.778Z</time></trkpt><trkpt lat="40.91209163589686" lon="9.194547541689467"><ele>565.75</ele><time>2026-04-26T08:34:54.778Z</time></trkpt><trkpt lat="40.91196724122671" lon="9.194450457407902"><ele>569.0</ele><time>2026-04-26T08:34:55.778Z</time></trkpt><trkpt lat="40.91181850044878" lon="9.194403459826214"><ele>569.0</ele><time>2026-04-26T08:34:56.778Z</time></trkpt><trkpt lat="40.91168244900208" lon="9.194378174419498"><ele>569.0</ele><time>2026-04-26T08:34:57.777Z</time></trkpt><trkpt lat="40.911547192588664" lon="9.194381262252017"><ele>569.0</ele><time>2026-04-26T08:34:58.777Z</time></trkpt><trkpt lat="40.91141728055273" lon="9.19440972003904"><ele>569.0</ele><time>2026-04-26T08:34:59.777Z</time></trkpt><trkpt lat="40.911292628105045" lon="9.19445291592463"><ele>569.0</ele><time>2026-04-26T08:35:00.777Z</time></trkpt><trkpt lat="40.91117027316445" lon="9.194505633507964"><ele>569.0</ele><time>2026-04-26T08:35:01.777Z</time></trkpt><trkpt lat="40.91104135992735" lon="9.194567374055445"><ele>569.0</ele><time>2026-04-26T08:35:02.777Z</time></trkpt><trkpt lat="40.91092099925319" lon="9.194632925712787"><ele>569.0</ele><time>2026-04-26T08:35:03.777Z</time></trkpt><trkpt lat="40.91080110019033" lon="9.194703949402859"><ele>568.25</ele><time>2026-04-26T08:35:04.777Z</time></trkpt><trkpt lat="40.91068560994706" lon="9.194768391229243"><ele>567.5</ele><time>2026-04-26T08:35:05.777Z</time></trkpt><trkpt lat="40.91057129387217" lon="9.194831887004213"><ele>566.75</ele><time>2026-04-26T08:35:06.777Z</time></trkpt><trkpt lat="40.910451017226066" lon="9.194904055323248"><ele>566.0</ele><time>2026-04-26T08:35:07.777Z</time></trkpt><trkpt lat="40.91032649566583" lon="9.194970649184231"><ele>566.0</ele><time>2026-04-26T08:35:08.777Z</time></trkpt><trkpt lat="40.91019995984493" lon="9.195040804964218"><ele>566.0</ele><time>2026-04-26T08:35:09.777Z</time></trkpt><trkpt lat="40.910072062608464" lon="9.195119073599148"><ele>566.0</ele><time>2026-04-26T08:35:10.777Z</time></trkpt><trkpt lat="40.90994661555434" lon="9.19519392153717"><ele>566.0</ele><time>2026-04-26T08:35:11.777Z</time></trkpt><trkpt lat="40.90982601310001" lon="9.195266121700907"><ele>567.0</ele><time>2026-04-26T08:35:12.777Z</time></trkpt><trkpt lat="40.9097020827899" lon="9.195332879462383"><ele>568.0</ele><time>2026-04-26T08:35:13.777Z</time></trkpt><trkpt lat="40.909572776836335" lon="9.19540039334071"><ele>569.0</ele><time>2026-04-26T08:35:14.777Z</time></trkpt><trkpt lat="40.90943679698432" lon="9.19547729571614"><ele>570.0</ele><time>2026-04-26T08:35:15.777Z</time></trkpt><trkpt lat="40.909304492260034" lon="9.19556551722901"><ele>567.75</ele><time>2026-04-26T08:35:16.777Z</time></trkpt><trkpt lat="40.90920246612175" lon="9.195699762974142"><ele>565.5</ele><time>2026-04-26T08:35:17.777Z</time></trkpt><trkpt lat="40.90915432963619" lon="9.195870764011085"><ele>563.25</ele><time>2026-04-26T08:35:18.777Z</time></trkpt><trkpt lat="40.909156577139505" lon="9.196052070361358"><ele>561.0</ele><time>2026-04-26T08:35:19.777Z</time></trkpt><trkpt lat="40.90917410870245" lon="9.19624469084262"><ele>561.0</ele><time>2026-04-26T08:35:20.777Z</time></trkpt><trkpt lat="40.90917909518653" lon="9.196444175775268"><ele>561.0</ele><time>2026-04-26T08:35:21.777Z</time></trkpt><trkpt lat="40.909176339133744" lon="9.196645102113438"><ele>561.0</ele><time>2026-04-26T08:35:22.777Z</time></trkpt><trkpt lat="40.90915796845337" lon="9.196840096944676"><ele>561.75</ele><time>2026-04-26T08:35:23.776Z</time></trkpt><trkpt lat="40.909119850837804" lon="9.197011210260511"><ele>562.5</ele><time>2026-04-26T08:35:24.776Z</time></trkpt><trkpt lat="40.909075852204964" lon="9.197184992151664"><ele>563.25</ele><time>2026-04-26T08:35:25.776Z</time></trkpt><trkpt lat="40.90901987575446" lon="9.197356384438091"><ele>564.0</ele><time>2026-04-26T08:35:26.776Z</time></trkpt><trkpt lat="40.9089292157281" lon="9.197488952713858"><ele>565.0</ele><time>2026-04-26T08:35:27.776Z</time></trkpt><trkpt lat="40.90884862028334" lon="9.197641486506985"><ele>566.0</ele><time>2026-04-26T08:35:28.776Z</time></trkpt><trkpt lat="40.90878257059633" lon="9.197813805038274"><ele>567.0</ele><time>2026-04-26T08:35:29.776Z</time></trkpt><trkpt lat="40.90874130501682" lon="9.197998719296214"><ele>568.0</ele><time>2026-04-26T08:35:30.776Z</time></trkpt><trkpt lat="40.90869557045051" lon="9.198192641614975"><ele>572.0</ele><time>2026-04-26T08:35:31.776Z</time></trkpt><trkpt lat="40.908637903602084" lon="9.19838705682677"><ele>576.0</ele><time>2026-04-26T08:35:32.776Z</time></trkpt><trkpt lat="40.90856183216295" lon="9.198570132781688"><ele>580.0</ele><time>2026-04-26T08:35:33.776Z</time></trkpt><trkpt lat="40.90846483394912" lon="9.19872988475491"><ele>574.25</ele><time>2026-04-26T08:35:34.776Z</time></trkpt><trkpt lat="40.90835896869085" lon="9.198877334665928"><ele>568.5</ele><time>2026-04-26T08:35:35.776Z</time></trkpt><trkpt lat="40.90827425021822" lon="9.199028293817758"><ele>562.75</ele><time>2026-04-26T08:35:36.776Z</time></trkpt><trkpt lat="40.908230988512415" lon="9.199194939850917"><ele>557.0</ele><time>2026-04-26T08:35:37.776Z</time></trkpt><trkpt lat="40.90822622253779" lon="9.199389533842359"><ele>557.0</ele><time>2026-04-26T08:35:38.776Z</time></trkpt><trkpt lat="40.90824872164784" lon="9.19959541974132"><ele>557.0</ele><time>2026-04-26T08:35:39.776Z</time></trkpt><trkpt lat="40.90830253797464" lon="9.199796151847"><ele>557.0</ele><time>2026-04-26T08:35:40.776Z</time></trkpt><trkpt lat="40.90836790823897" lon="9.199997590086806"><ele>564.3333333333333</ele><time>2026-04-26T08:35:41.776Z</time></trkpt><trkpt lat="40.90844186644843" lon="9.200198939143624"><ele>571.6666666666666</ele><time>2026-04-26T08:35:42.776Z</time></trkpt><trkpt lat="40.90851754586488" lon="9.200397032415928"><ele>579.0</ele><time>2026-04-26T08:35:43.776Z</time></trkpt><trkpt lat="40.908599299600056" lon="9.200594700620243"><ele>574.0</ele><time>2026-04-26T08:35:44.776Z</time></trkpt><trkpt lat="40.90869062260835" lon="9.200780299362314"><ele>569.0</ele><time>2026-04-26T08:35:45.776Z</time></trkpt><trkpt lat="40.90878534292198" lon="9.200965099699365"><ele>564.0</ele><time>2026-04-26T08:35:46.776Z</time></trkpt><trkpt lat="40.90888787847125" lon="9.201150932524806"><ele>564.0</ele><time>2026-04-26T08:35:47.776Z</time></trkpt><trkpt lat="40.908984340798504" lon="9.201355944540646"><ele>564.0</ele><time>2026-04-26T08:35:48.776Z</time></trkpt><trkpt lat="40.90908491992652" lon="9.201544122911761"><ele>564.0</ele><time>2026-04-26T08:35:49.775Z</time></trkpt><trkpt lat="40.90917396608473" lon="9.201725530596027"><ele>566.0</ele><time>2026-04-26T08:35:50.775Z</time></trkpt><trkpt lat="40.90927985368349" lon="9.201887952484475"><ele>568.0</ele><time>2026-04-26T08:35:51.775Z</time></trkpt><trkpt lat="40.90939306418265" lon="9.202035043995354"><ele>570.0</ele><time>2026-04-26T08:35:52.775Z</time></trkpt><trkpt lat="40.90950229324774" lon="9.202190844881361"><ele>569.0</ele><time>2026-04-26T08:35:53.775Z</time></trkpt><trkpt lat="40.90957818330529" lon="9.202380344890873"><ele>568.0</ele><time>2026-04-26T08:35:54.775Z</time></trkpt><trkpt lat="40.90961781704749" lon="9.202600903732984"><ele>567.0</ele><time>2026-04-26T08:35:55.775Z</time></trkpt><trkpt lat="40.909637327559984" lon="9.20284329843458"><ele>567.0</ele><time>2026-04-26T08:35:56.775Z</time></trkpt><trkpt lat="40.90963789678925" lon="9.203105051530653"><ele>567.0</ele><time>2026-04-26T08:35:57.775Z</time></trkpt><trkpt lat="40.90963363107692" lon="9.20337944499244"><ele>567.0</ele><time>2026-04-26T08:35:58.775Z</time></trkpt><trkpt lat="40.90962661025782" lon="9.203663731049494"><ele>566.0</ele><time>2026-04-26T08:35:59.775Z</time></trkpt><trkpt lat="40.90961791443664" lon="9.203925234088464"><ele>565.0</ele><time>2026-04-26T08:36:00.775Z</time></trkpt><trkpt lat="40.909602595539845" lon="9.204161661639764"><ele>564.0</ele><time>2026-04-26T08:36:01.775Z</time></trkpt><trkpt lat="40.90956441476961" lon="9.20433967894331"><ele>563.6666666666666</ele><time>2026-04-26T08:36:02.775Z</time></trkpt><trkpt lat="40.909473790067175" lon="9.204476683751768"><ele>563.3333333333333</ele><time>2026-04-26T08:36:03.775Z</time></trkpt><trkpt lat="40.909336253758184" lon="9.204618516652854"><ele>563.0</ele><time>2026-04-26T08:36:04.775Z</time></trkpt><trkpt lat="40.909205808492516" lon="9.204793189398709"><ele>558.0</ele><time>2026-04-26T08:36:05.775Z</time></trkpt><trkpt lat="40.90910530081743" lon="9.20500206314224"><ele>553.0</ele><time>2026-04-26T08:36:06.775Z</time></trkpt><trkpt lat="40.908976415681074" lon="9.205156820979402"><ele>548.0</ele><time>2026-04-26T08:36:07.775Z</time></trkpt><trkpt lat="40.908838262664055" lon="9.20522014150736"><ele>548.0</ele><time>2026-04-26T08:36:08.775Z</time></trkpt><trkpt lat="40.908675631689256" lon="9.205205186702566"><ele>548.0</ele><time>2026-04-26T08:36:09.775Z</time></trkpt><trkpt lat="40.908502717179694" lon="9.205133929471511"><ele>548.0</ele><time>2026-04-26T08:36:10.775Z</time></trkpt><trkpt lat="40.90830477711442" lon="9.205071546209107"><ele>547.6666666666666</ele><time>2026-04-26T08:36:11.775Z</time></trkpt><trkpt lat="40.90809808563194" lon="9.204999402103985"><ele>547.3333333333334</ele><time>2026-04-26T08:36:12.775Z</time></trkpt><trkpt lat="40.907891958355556" lon="9.204935194701624"><ele>547.0</ele><time>2026-04-26T08:36:13.775Z</time></trkpt><trkpt lat="40.907710281864695" lon="9.204877694393423"><ele>546.6666666666667</ele><time>2026-04-26T08:36:14.774Z</time></trkpt><trkpt lat="40.90754461651555" lon="9.20486905743041"><ele>546.3333333333334</ele><time>2026-04-26T08:36:15.774Z</time></trkpt><trkpt lat="40.907362735942975" lon="9.204926596394424"><ele>546.0</ele><time>2026-04-26T08:36:16.774Z</time></trkpt><trkpt lat="40.90717594001432" lon="9.205040634153201"><ele>546.0</ele><time>2026-04-26T08:36:17.774Z</time></trkpt><trkpt lat="40.906974951172714" lon="9.205192820188836"><ele>546.0</ele><time>2026-04-26T08:36:18.774Z</time></trkpt><trkpt lat="40.90675815171211" lon="9.205349924907292"><ele>546.0</ele><time>2026-04-26T08:36:19.774Z</time></trkpt><trkpt lat="40.90655126192811" lon="9.205514002219818"><ele>546.0</ele><time>2026-04-26T08:36:20.774Z</time></trkpt><trkpt lat="40.90636845650944" lon="9.205672528659852"><ele>546.0</ele><time>2026-04-26T08:36:21.774Z</time></trkpt><trkpt lat="40.906228170463805" lon="9.205893481822015"><ele>546.0</ele><time>2026-04-26T08:36:22.774Z</time></trkpt><trkpt lat="40.90610071821276" lon="9.206165369428232"><ele>546.0</ele><time>2026-04-26T08:36:23.774Z</time></trkpt><trkpt lat="40.90597394930393" lon="9.206462451983251"><ele>546.0</ele><time>2026-04-26T08:36:24.774Z</time></trkpt><trkpt lat="40.90584455101957" lon="9.206750030158135"><ele>541.0</ele><time>2026-04-26T08:36:25.774Z</time></trkpt><trkpt lat="40.90572253306979" lon="9.20701222052643"><ele>536.0</ele><time>2026-04-26T08:36:26.774Z</time></trkpt><trkpt lat="40.90559104024233" lon="9.207248406912472"><ele>534.6666666666666</ele><time>2026-04-26T08:36:27.776Z</time></trkpt><trkpt lat="40.90542811338176" lon="9.207425278571117"><ele>533.3333333333334</ele><time>2026-04-26T08:36:28.775Z</time></trkpt><trkpt lat="40.905233464882535" lon="9.207549627597272"><ele>532.0</ele><time>2026-04-26T08:36:29.775Z</time></trkpt><trkpt lat="40.90500065922592" lon="9.207602762916933"><ele>532.0</ele><time>2026-04-26T08:36:30.776Z</time></trkpt><trkpt lat="40.90475402041485" lon="9.207611131996595"><ele>532.0</ele><time>2026-04-26T08:36:31.776Z</time></trkpt><trkpt lat="40.904532584484755" lon="9.207605269045576"><ele>532.0</ele><time>2026-04-26T08:36:32.776Z</time></trkpt><trkpt lat="40.90434822982633" lon="9.207624801221858"><ele>532.0</ele><time>2026-04-26T08:36:33.776Z</time></trkpt><trkpt lat="40.904193391014054" lon="9.207669470021482"><ele>532.0</ele><time>2026-04-26T08:36:34.776Z</time></trkpt><trkpt lat="40.90406111298954" lon="9.207764387484211"><ele>531.5</ele><time>2026-04-26T08:36:35.776Z</time></trkpt><trkpt lat="40.903961290028164" lon="9.207915950253005"><ele>531.0</ele><time>2026-04-26T08:36:36.775Z</time></trkpt><trkpt lat="40.9038995103049" lon="9.208099097167747"><ele>530.5</ele><time>2026-04-26T08:36:37.775Z</time></trkpt><trkpt lat="40.903867449841215" lon="9.208276708838849"><ele>530.0</ele><time>2026-04-26T08:36:38.775Z</time></trkpt><trkpt lat="40.90385350393011" lon="9.208438370005627"><ele>532.5</ele><time>2026-04-26T08:36:39.775Z</time></trkpt><trkpt lat="40.903832799002735" lon="9.208584262132916"><ele>535.0</ele><time>2026-04-26T08:36:40.775Z</time></trkpt><trkpt lat="40.90380676393117" lon="9.208731172440158"><ele>537.5</ele><time>2026-04-26T08:36:41.775Z</time></trkpt><trkpt lat="40.9037734541208" lon="9.20888506133691"><ele>540.0</ele><time>2026-04-26T08:36:42.775Z</time></trkpt><trkpt lat="40.90372577869259" lon="9.209046020292371"><ele>540.0</ele><time>2026-04-26T08:36:43.775Z</time></trkpt><trkpt lat="40.903675099823225" lon="9.209221129352752"><ele>540.0</ele><time>2026-04-26T08:36:44.775Z</time></trkpt><trkpt lat="40.90361475914622" lon="9.209406412718662"><ele>540.0</ele><time>2026-04-26T08:36:45.775Z</time></trkpt><trkpt lat="40.90355561426831" lon="9.209605758836691"><ele>540.0</ele><time>2026-04-26T08:36:46.775Z</time></trkpt><trkpt lat="40.90349277710932" lon="9.20979441436073"><ele>540.0</ele><time>2026-04-26T08:36:47.775Z</time></trkpt><trkpt lat="40.90342525838563" lon="9.209994362353457"><ele>540.0</ele><time>2026-04-26T08:36:48.775Z</time></trkpt><trkpt lat="40.90335002045979" lon="9.210217567164118"><ele>538.6666666666666</ele><time>2026-04-26T08:36:49.775Z</time></trkpt><trkpt lat="40.90326797782572" lon="9.210462949861002"><ele>537.3333333333333</ele><time>2026-04-26T08:36:50.775Z</time></trkpt><trkpt lat="40.90317265906644" lon="9.21072179221802"><ele>536.0</ele><time>2026-04-26T08:36:51.775Z</time></trkpt><trkpt lat="40.90307560625073" lon="9.210993893016898"><ele>535.5</ele><time>2026-04-26T08:36:52.775Z</time></trkpt><trkpt lat="40.902978569647296" lon="9.211275037986391"><ele>535.0</ele><time>2026-04-26T08:36:53.775Z</time></trkpt><trkpt lat="40.90288662714413" lon="9.211563189074251"><ele>533.5</ele><time>2026-04-26T08:36:54.775Z</time></trkpt><trkpt lat="40.90279017017611" lon="9.21185811708469"><ele>532.0</ele><time>2026-04-26T08:36:55.775Z</time></trkpt><trkpt lat="40.90269271573169" lon="9.212154976753151"><ele>534.0</ele><time>2026-04-26T08:36:56.775Z</time></trkpt><trkpt lat="40.902594550193506" lon="9.212446631499407"><ele>536.0</ele><time>2026-04-26T08:36:57.775Z</time></trkpt><trkpt lat="40.90250036389911" lon="9.212743600891988"><ele>539.5</ele><time>2026-04-26T08:36:58.775Z</time></trkpt><trkpt lat="40.90240334911999" lon="9.213042022382092"><ele>543.0</ele><time>2026-04-26T08:36:59.775Z</time></trkpt><trkpt lat="40.90229999207251" lon="9.213335473646202"><ele>543.0</ele><time>2026-04-26T08:37:00.775Z</time></trkpt><trkpt lat="40.90219774158599" lon="9.21363490555571"><ele>543.0</ele><time>2026-04-26T08:37:01.775Z</time></trkpt><trkpt lat="40.902098144761375" lon="9.21394408885326"><ele>544.5</ele><time>2026-04-26T08:37:02.775Z</time></trkpt><trkpt lat="40.901998695756404" lon="9.214246239035605"><ele>546.0</ele><time>2026-04-26T08:37:03.775Z</time></trkpt><trkpt lat="40.901903387590174" lon="9.214554886077133"><ele>547.5</ele><time>2026-04-26T08:37:04.775Z</time></trkpt><trkpt lat="40.901797478430005" lon="9.214864415883351"><ele>549.0</ele><time>2026-04-26T08:37:05.775Z</time></trkpt><trkpt lat="40.90170070503827" lon="9.215182584695665"><ele>550.0</ele><time>2026-04-26T08:37:06.775Z</time></trkpt><trkpt lat="40.901595834361274" lon="9.215497240915084"><ele>551.0</ele><time>2026-04-26T08:37:07.774Z</time></trkpt><trkpt lat="40.90148995199752" lon="9.215816292402232"><ele>553.0</ele><time>2026-04-26T08:37:08.774Z</time></trkpt><trkpt lat="40.90138469858679" lon="9.216137057432716"><ele>555.0</ele><time>2026-04-26T08:37:09.774Z</time></trkpt><trkpt lat="40.90127938460752" lon="9.2164608674326"><ele>557.0</ele><time>2026-04-26T08:37:10.774Z</time></trkpt><trkpt lat="40.90116873973631" lon="9.216788048511663"><ele>559.0</ele><time>2026-04-26T08:37:11.774Z</time></trkpt><trkpt lat="40.901060872117796" lon="9.217114014442537"><ele>560.0</ele><time>2026-04-26T08:37:12.774Z</time></trkpt><trkpt lat="40.900953493888565" lon="9.217444098832335"><ele>561.0</ele><time>2026-04-26T08:37:13.774Z</time></trkpt><trkpt lat="40.90084169458878" lon="9.217771812146777"><ele>561.0</ele><time>2026-04-26T08:37:14.774Z</time></trkpt><trkpt lat="40.900732344283426" lon="9.218104193411103"><ele>561.0</ele><time>2026-04-26T08:37:15.774Z</time></trkpt><trkpt lat="40.90061604754319" lon="9.218442212568343"><ele>561.0</ele><time>2026-04-26T08:37:16.774Z</time></trkpt><trkpt lat="40.90050404797234" lon="9.218777785809989"><ele>561.0</ele><time>2026-04-26T08:37:17.774Z</time></trkpt><trkpt lat="40.9003941711718" lon="9.219115391869694"><ele>561.5</ele><time>2026-04-26T08:37:18.774Z</time></trkpt><trkpt lat="40.90030544919609" lon="9.219454558739223"><ele>562.0</ele><time>2026-04-26T08:37:19.774Z</time></trkpt><trkpt lat="40.90023738339858" lon="9.219798696574191"><ele>563.5</ele><time>2026-04-26T08:37:20.774Z</time></trkpt><trkpt lat="40.9001885976812" lon="9.220147179511411"><ele>565.0</ele><time>2026-04-26T08:37:21.774Z</time></trkpt><trkpt lat="40.90015026344711" lon="9.22049628469082"><ele>566.0</ele><time>2026-04-26T08:37:22.774Z</time></trkpt><trkpt lat="40.90010336792758" lon="9.220835777394964"><ele>567.0</ele><time>2026-04-26T08:37:23.774Z</time></trkpt><trkpt lat="40.900057325280734" lon="9.221175863633784"><ele>563.5</ele><time>2026-04-26T08:37:24.774Z</time></trkpt><trkpt lat="40.90001234257994" lon="9.22152413995425"><ele>560.0</ele><time>2026-04-26T08:37:25.774Z</time></trkpt><trkpt lat="40.8999704905619" lon="9.22187243163705"><ele>560.0</ele><time>2026-04-26T08:37:26.774Z</time></trkpt><trkpt lat="40.89992977146533" lon="9.222218695987461"><ele>560.0</ele><time>2026-04-26T08:37:27.774Z</time></trkpt><trkpt lat="40.899886825321964" lon="9.222560142846719"><ele>561.0</ele><time>2026-04-26T08:37:28.774Z</time></trkpt><trkpt lat="40.89984054963843" lon="9.222903142745462"><ele>562.0</ele><time>2026-04-26T08:37:29.774Z</time></trkpt><trkpt lat="40.89979827784526" lon="9.223234227216256"><ele>565.0</ele><time>2026-04-26T08:37:30.774Z</time></trkpt><trkpt lat="40.89976472301254" lon="9.223541619266035"><ele>568.0</ele><time>2026-04-26T08:37:31.774Z</time></trkpt><trkpt lat="40.89974836083802" lon="9.223815470669779"><ele>571.0</ele><time>2026-04-26T08:37:32.774Z</time></trkpt><trkpt lat="40.89974749432827" lon="9.224065152514799"><ele>572.5</ele><time>2026-04-26T08:37:33.773Z</time></trkpt><trkpt lat="40.89975513957335" lon="9.224275659648633"><ele>574.0</ele><time>2026-04-26T08:37:34.773Z</time></trkpt><trkpt lat="40.899758049548346" lon="9.224445843983744"><ele>575.5</ele><time>2026-04-26T08:37:35.773Z</time></trkpt><trkpt lat="40.899714252954354" lon="9.22457131435413"><ele>577.0</ele><time>2026-04-26T08:37:36.773Z</time></trkpt><trkpt lat="40.89960668645498" lon="9.224648309497441"><ele>577.0</ele><time>2026-04-26T08:37:37.773Z</time></trkpt><trkpt lat="40.899457480102846" lon="9.224670344886839"><ele>577.0</ele><time>2026-04-26T08:37:38.773Z</time></trkpt><trkpt lat="40.89928790202443" lon="9.224673731991821"><ele>577.0</ele><time>2026-04-26T08:37:39.773Z</time></trkpt><trkpt lat="40.89914557190933" lon="9.224707367783006"><ele>576.0</ele><time>2026-04-26T08:37:40.773Z</time></trkpt><trkpt lat="40.89902607660487" lon="9.224839315421537"><ele>575.0</ele><time>2026-04-26T08:37:41.773Z</time></trkpt><trkpt lat="40.898916175870674" lon="9.225035024514801"><ele>574.0</ele><time>2026-04-26T08:37:42.773Z</time></trkpt><trkpt lat="40.898801848828484" lon="9.22526091509802"><ele>574.0</ele><time>2026-04-26T08:37:43.773Z</time></trkpt><trkpt lat="40.89869772033109" lon="9.225510253074848"><ele>574.0</ele><time>2026-04-26T08:37:44.773Z</time></trkpt><trkpt lat="40.89861081453331" lon="9.225794630709292"><ele>574.0</ele><time>2026-04-26T08:37:45.773Z</time></trkpt><trkpt lat="40.898535257124095" lon="9.226097583387325"><ele>580.5</ele><time>2026-04-26T08:37:46.773Z</time></trkpt><trkpt lat="40.89844807541451" lon="9.226404978982218"><ele>587.0</ele><time>2026-04-26T08:37:47.773Z</time></trkpt><trkpt lat="40.89832765241683" lon="9.226690002920014"><ele>587.0</ele><time>2026-04-26T08:37:48.773Z</time></trkpt><trkpt lat="40.89818685186037" lon="9.226956167498368"><ele>587.0</ele><time>2026-04-26T08:37:49.773Z</time></trkpt><trkpt lat="40.898049554816" lon="9.227228617748587"><ele>594.5</ele><time>2026-04-26T08:37:50.773Z</time></trkpt><trkpt lat="40.89793476452862" lon="9.22750657420839"><ele>602.0</ele><time>2026-04-26T08:37:51.773Z</time></trkpt><trkpt lat="40.897844062997" lon="9.227807691867806"><ele>602.0</ele><time>2026-04-26T08:37:52.773Z</time></trkpt><trkpt lat="40.89775714028718" lon="9.228114532421928"><ele>602.0</ele><time>2026-04-26T08:37:53.773Z</time></trkpt><trkpt lat="40.897692062002854" lon="9.228421973443062"><ele>604.0</ele><time>2026-04-26T08:37:54.773Z</time></trkpt><trkpt lat="40.897640887817104" lon="9.228714942016126"><ele>606.0</ele><time>2026-04-26T08:37:55.773Z</time></trkpt><trkpt lat="40.89759891506004" lon="9.22897599330609"><ele>608.0</ele><time>2026-04-26T08:37:56.773Z</time></trkpt><trkpt lat="40.89753736462724" lon="9.229206672408381"><ele>606.0</ele><time>2026-04-26T08:37:57.773Z</time></trkpt><trkpt lat="40.89742882183817" lon="9.229409481274292"><ele>604.0</ele><time>2026-04-26T08:37:58.773Z</time></trkpt><trkpt lat="40.89729756151078" lon="9.229599985218158"><ele>602.0</ele><time>2026-04-26T08:37:59.772Z</time></trkpt><trkpt lat="40.897196184032424" lon="9.229823431701055"><ele>602.0</ele><time>2026-04-26T08:38:00.772Z</time></trkpt><trkpt lat="40.89712699484807" lon="9.230081723314752"><ele>602.0</ele><time>2026-04-26T08:38:01.772Z</time></trkpt><trkpt lat="40.89705119750527" lon="9.230355107816125"><ele>602.0</ele><time>2026-04-26T08:38:02.772Z</time></trkpt><trkpt lat="40.89697721567429" lon="9.230642895419463"><ele>602.5</ele><time>2026-04-26T08:38:03.772Z</time></trkpt><trkpt lat="40.896904013239876" lon="9.230943703139703"><ele>603.0</ele><time>2026-04-26T08:38:04.772Z</time></trkpt><trkpt lat="40.896826549695035" lon="9.231253485917785"><ele>601.0</ele><time>2026-04-26T08:38:05.772Z</time></trkpt><trkpt lat="40.896746064906296" lon="9.231574567068419"><ele>599.0</ele><time>2026-04-26T08:38:06.772Z</time></trkpt><trkpt lat="40.89667022399936" lon="9.231900361557512"><ele>599.0</ele><time>2026-04-26T08:38:07.772Z</time></trkpt><trkpt lat="40.89659552299067" lon="9.232216686476912"><ele>599.0</ele><time>2026-04-26T08:38:08.772Z</time></trkpt><trkpt lat="40.89651211421454" lon="9.23250611484288"><ele>599.0</ele><time>2026-04-26T08:38:09.772Z</time></trkpt><trkpt lat="40.89638738320008" lon="9.232772689657738"><ele>599.0</ele><time>2026-04-26T08:38:10.772Z</time></trkpt><trkpt lat="40.8962342427295" lon="9.233016418963418"><ele>596.5</ele><time>2026-04-26T08:38:11.772Z</time></trkpt><trkpt lat="40.89607392727948" lon="9.233263786478473"><ele>594.0</ele><time>2026-04-26T08:38:12.772Z</time></trkpt><trkpt lat="40.89590738317214" lon="9.233512221855747"><ele>593.5</ele><time>2026-04-26T08:38:13.772Z</time></trkpt><trkpt lat="40.89574192889597" lon="9.233768770341797"><ele>593.0</ele><time>2026-04-26T08:38:14.772Z</time></trkpt><trkpt lat="40.89557880010583" lon="9.234031646800489"><ele>593.0</ele><time>2026-04-26T08:38:15.772Z</time></trkpt><trkpt lat="40.895406297540006" lon="9.23429785570282"><ele>593.0</ele><time>2026-04-26T08:38:16.772Z</time></trkpt><trkpt lat="40.89523309830223" lon="9.234565008176673"><ele>591.5</ele><time>2026-04-26T08:38:17.772Z</time></trkpt><trkpt lat="40.89505739128565" lon="9.234826367073873"><ele>590.0</ele><time>2026-04-26T08:38:18.772Z</time></trkpt><trkpt lat="40.894886566530346" lon="9.235089956378996"><ele>590.0</ele><time>2026-04-26T08:38:19.772Z</time></trkpt><trkpt lat="40.89471728776919" lon="9.23534903761257"><ele>590.0</ele><time>2026-04-26T08:38:20.772Z</time></trkpt><trkpt lat="40.894546940588384" lon="9.23560695462714"><ele>591.5</ele><time>2026-04-26T08:38:21.772Z</time></trkpt><trkpt lat="40.89437907708462" lon="9.235856467624025"><ele>593.0</ele><time>2026-04-26T08:38:22.772Z</time></trkpt><trkpt lat="40.89421612518581" lon="9.236097832240407"><ele>592.6666666666666</ele><time>2026-04-26T08:38:23.772Z</time></trkpt><trkpt lat="40.894066414269865" lon="9.236326945607171"><ele>592.3333333333334</ele><time>2026-04-26T08:38:24.772Z</time></trkpt><trkpt lat="40.893943282589554" lon="9.236566625407425"><ele>592.0</ele><time>2026-04-26T08:38:25.771Z</time></trkpt><trkpt lat="40.893866797934386" lon="9.236861459404853"><ele>592.0</ele><time>2026-04-26T08:38:26.771Z</time></trkpt><trkpt lat="40.893826585667284" lon="9.237184927923542"><ele>592.0</ele><time>2026-04-26T08:38:27.771Z</time></trkpt><trkpt lat="40.893802324476454" lon="9.237529044666415"><ele>593.5</ele><time>2026-04-26T08:38:28.771Z</time></trkpt><trkpt lat="40.893769102170566" lon="9.237873427417169"><ele>595.0</ele><time>2026-04-26T08:38:29.771Z</time></trkpt><trkpt lat="40.893740098925704" lon="9.238224797863099"><ele>599.5</ele><time>2026-04-26T08:38:30.771Z</time></trkpt><trkpt lat="40.893707265097866" lon="9.238581861495835"><ele>604.0</ele><time>2026-04-26T08:38:31.771Z</time></trkpt><trkpt lat="40.89368213148622" lon="9.238944591735502"><ele>607.5</ele><time>2026-04-26T08:38:32.771Z</time></trkpt><trkpt lat="40.89363144939822" lon="9.239289432464526"><ele>611.0</ele><time>2026-04-26T08:38:33.772Z</time></trkpt><trkpt lat="40.89337108617607" lon="9.239388510969297"><ele>603.0</ele><time>2026-04-26T08:38:34.772Z</time></trkpt><trkpt lat="40.89328508499263" lon="9.239711566518428"><ele>595.0</ele><time>2026-04-26T08:38:35.772Z</time></trkpt><trkpt lat="40.89318464805282" lon="9.240032072958126"><ele>595.0</ele><time>2026-04-26T08:38:36.772Z</time></trkpt><trkpt lat="40.89308333072317" lon="9.240354141735954"><ele>595.0</ele><time>2026-04-26T08:38:37.772Z</time></trkpt><trkpt lat="40.892976434789894" lon="9.240672121835708"><ele>597.5</ele><time>2026-04-26T08:38:38.772Z</time></trkpt><trkpt lat="40.89287505956031" lon="9.240994502899252"><ele>600.0</ele><time>2026-04-26T08:38:39.772Z</time></trkpt><trkpt lat="40.89277528451898" lon="9.241319034868837"><ele>601.5</ele><time>2026-04-26T08:38:40.772Z</time></trkpt><trkpt lat="40.89267513487513" lon="9.24163252275404"><ele>603.0</ele><time>2026-04-26T08:38:41.772Z</time></trkpt><trkpt lat="40.89257059294706" lon="9.241954876487798"><ele>600.0</ele><time>2026-04-26T08:38:42.772Z</time></trkpt><trkpt lat="40.89247221507777" lon="9.242280982849158"><ele>597.0</ele><time>2026-04-26T08:38:43.771Z</time></trkpt><trkpt lat="40.892369540604875" lon="9.242611636186373"><ele>594.0</ele><time>2026-04-26T08:38:44.771Z</time></trkpt><trkpt lat="40.892271308932195" lon="9.242943573706"><ele>591.0</ele><time>2026-04-26T08:38:45.772Z</time></trkpt><trkpt lat="40.89217016700789" lon="9.243275649388382"><ele>591.0</ele><time>2026-04-26T08:38:46.772Z</time></trkpt><trkpt lat="40.89206470947327" lon="9.243608185026153"><ele>591.0</ele><time>2026-04-26T08:38:47.772Z</time></trkpt><trkpt lat="40.89197241895259" lon="9.243930042287706"><ele>590.0</ele><time>2026-04-26T08:38:48.772Z</time></trkpt><trkpt lat="40.8918678567782" lon="9.244260212533366"><ele>589.0</ele><time>2026-04-26T08:38:49.772Z</time></trkpt><trkpt lat="40.891764105624326" lon="9.244579000751573"><ele>586.0</ele><time>2026-04-26T08:38:50.772Z</time></trkpt><trkpt lat="40.891669059970084" lon="9.244905507171195"><ele>583.0</ele><time>2026-04-26T08:38:51.772Z</time></trkpt><trkpt lat="40.891569302923074" lon="9.245213703506137"><ele>583.0</ele><time>2026-04-26T08:38:52.772Z</time></trkpt><trkpt lat="40.89146621853494" lon="9.24550209165918"><ele>583.0</ele><time>2026-04-26T08:38:53.772Z</time></trkpt><trkpt lat="40.89133488602265" lon="9.245740135519327"><ele>583.6666666666667</ele><time>2026-04-26T08:38:54.772Z</time></trkpt><trkpt lat="40.89116277006822" lon="9.245923703756809"><ele>584.3333333333334</ele><time>2026-04-26T08:38:55.772Z</time></trkpt><trkpt lat="40.89096422023144" lon="9.246064165507068"><ele>585.0</ele><time>2026-04-26T08:38:56.772Z</time></trkpt><trkpt lat="40.89070697307026" lon="9.246103437934995"><ele>585.0</ele><time>2026-04-26T08:38:57.772Z</time></trkpt><trkpt lat="40.89045792406167" lon="9.24616104988926"><ele>585.0</ele><time>2026-04-26T08:38:58.772Z</time></trkpt><trkpt lat="40.890215788054" lon="9.246206209615565"><ele>587.0</ele><time>2026-04-26T08:38:59.771Z</time></trkpt><trkpt lat="40.88997482704043" lon="9.24627880345923"><ele>589.0</ele><time>2026-04-26T08:39:00.771Z</time></trkpt><trkpt lat="40.88972730877514" lon="9.246342253047832"><ele>589.0</ele><time>2026-04-26T08:39:01.771Z</time></trkpt><trkpt lat="40.88948413858077" lon="9.246390517258375"><ele>589.0</ele><time>2026-04-26T08:39:02.771Z</time></trkpt><trkpt lat="40.88922635422838" lon="9.246409663600447"><ele>590.0</ele><time>2026-04-26T08:39:03.771Z</time></trkpt><trkpt lat="40.88896650458708" lon="9.246407081441587"><ele>591.0</ele><time>2026-04-26T08:39:04.771Z</time></trkpt><trkpt lat="40.88870263171721" lon="9.246397242419174"><ele>591.0</ele><time>2026-04-26T08:39:05.771Z</time></trkpt><trkpt lat="40.88845805289091" lon="9.246420087975924"><ele>591.0</ele><time>2026-04-26T08:39:06.771Z</time></trkpt><trkpt lat="40.888237070751195" lon="9.246507259989993"><ele>587.0</ele><time>2026-04-26T08:39:07.771Z</time></trkpt><trkpt lat="40.88803151222462" lon="9.246651125198953"><ele>583.0</ele><time>2026-04-26T08:39:08.771Z</time></trkpt><trkpt lat="40.88784237714158" lon="9.246853809647748"><ele>583.0</ele><time>2026-04-26T08:39:09.771Z</time></trkpt><trkpt lat="40.88764615315791" lon="9.247077561293507"><ele>583.0</ele><time>2026-04-26T08:39:10.771Z</time></trkpt><trkpt lat="40.88744047441608" lon="9.247300476281577"><ele>579.5</ele><time>2026-04-26T08:39:11.771Z</time></trkpt><trkpt lat="40.88724204655427" lon="9.247532079941"><ele>576.0</ele><time>2026-04-26T08:39:12.771Z</time></trkpt><trkpt lat="40.88707372539858" lon="9.24779167083422"><ele>576.0</ele><time>2026-04-26T08:39:13.771Z</time></trkpt><trkpt lat="40.886920214720945" lon="9.248077627530373"><ele>576.0</ele><time>2026-04-26T08:39:14.771Z</time></trkpt><trkpt lat="40.88677347627737" lon="9.248369992041416"><ele>568.5</ele><time>2026-04-26T08:39:15.771Z</time></trkpt><trkpt lat="40.886622918200864" lon="9.248664020561074"><ele>561.0</ele><time>2026-04-26T08:39:16.771Z</time></trkpt><trkpt lat="40.88646772283019" lon="9.248956899036957"><ele>564.5</ele><time>2026-04-26T08:39:17.771Z</time></trkpt><trkpt lat="40.88632335829775" lon="9.249257718771807"><ele>568.0</ele><time>2026-04-26T08:39:18.771Z</time></trkpt><trkpt lat="40.88621150698339" lon="9.249577824210292"><ele>571.0</ele><time>2026-04-26T08:39:19.771Z</time></trkpt><trkpt lat="40.88611049815755" lon="9.24989482263236"><ele>574.0</ele><time>2026-04-26T08:39:20.771Z</time></trkpt><trkpt lat="40.88599511485448" lon="9.250194401404691"><ele>569.0</ele><time>2026-04-26T08:39:21.771Z</time></trkpt><trkpt lat="40.885892813905606" lon="9.250474854462764"><ele>564.0</ele><time>2026-04-26T08:39:22.771Z</time></trkpt><trkpt lat="40.885806826440806" lon="9.250724436036618"><ele>559.0</ele><time>2026-04-26T08:39:23.771Z</time></trkpt><trkpt lat="40.88572762054467" lon="9.250929291517274"><ele>559.0</ele><time>2026-04-26T08:39:24.771Z</time></trkpt><trkpt lat="40.8856387584908" lon="9.251094944217527"><ele>559.0</ele><time>2026-04-26T08:39:25.77Z</time></trkpt><trkpt lat="40.885532566996865" lon="9.251180692975419"><ele>559.0</ele><time>2026-04-26T08:39:26.77Z</time></trkpt><trkpt lat="40.88538094475237" lon="9.251153833798883"><ele>559.0</ele><time>2026-04-26T08:39:27.77Z</time></trkpt><trkpt lat="40.88522876684564" lon="9.251040523266404"><ele>557.6666666666667</ele><time>2026-04-26T08:39:28.77Z</time></trkpt><trkpt lat="40.885093660795974" lon="9.250844069451663"><ele>556.3333333333334</ele><time>2026-04-26T08:39:29.77Z</time></trkpt><trkpt lat="40.88496315742537" lon="9.250646155228605"><ele>555.0</ele><time>2026-04-26T08:39:30.77Z</time></trkpt><trkpt lat="40.88481561642007" lon="9.250453302217723"><ele>552.3333333333334</ele><time>2026-04-26T08:39:31.77Z</time></trkpt><trkpt lat="40.88466875177719" lon="9.250297457991298"><ele>549.6666666666667</ele><time>2026-04-26T08:39:32.77Z</time></trkpt><trkpt lat="40.88450682641056" lon="9.250215064465323"><ele>547.0</ele><time>2026-04-26T08:39:33.77Z</time></trkpt><trkpt lat="40.88432421067522" lon="9.250209803772114"><ele>548.0</ele><time>2026-04-26T08:39:34.77Z</time></trkpt><trkpt lat="40.88411267770832" lon="9.250266887303715"><ele>549.0</ele><time>2026-04-26T08:39:35.77Z</time></trkpt><trkpt lat="40.88388154913023" lon="9.25030632774753"><ele>550.0</ele><time>2026-04-26T08:39:36.77Z</time></trkpt><trkpt lat="40.883647002455874" lon="9.250326028013864"><ele>550.0</ele><time>2026-04-26T08:39:37.77Z</time></trkpt><trkpt lat="40.8834345434167" lon="9.250343957799146"><ele>550.0</ele><time>2026-04-26T08:39:38.77Z</time></trkpt><trkpt lat="40.88321740631664" lon="9.250385939079658"><ele>550.0</ele><time>2026-04-26T08:39:39.77Z</time></trkpt><trkpt lat="40.88303633291368" lon="9.250501985733564"><ele>551.6666666666667</ele><time>2026-04-26T08:39:40.77Z</time></trkpt><trkpt lat="40.88287258735141" lon="9.250685293276268"><ele>553.3333333333334</ele><time>2026-04-26T08:39:41.77Z</time></trkpt><trkpt lat="40.88271046771203" lon="9.250888239907683"><ele>555.0</ele><time>2026-04-26T08:39:42.77Z</time></trkpt><trkpt lat="40.88253507192091" lon="9.251116353841407"><ele>553.5</ele><time>2026-04-26T08:39:43.77Z</time></trkpt><trkpt lat="40.88235186322146" lon="9.251347894976325"><ele>552.0</ele><time>2026-04-26T08:39:44.77Z</time></trkpt><trkpt lat="40.88217163855005" lon="9.251567451116015"><ele>552.0</ele><time>2026-04-26T08:39:45.77Z</time></trkpt><trkpt lat="40.882004880426216" lon="9.251802257120515"><ele>552.0</ele><time>2026-04-26T08:39:46.77Z</time></trkpt><trkpt lat="40.88187891683289" lon="9.252067455708268"><ele>554.5</ele><time>2026-04-26T08:39:47.77Z</time></trkpt><trkpt lat="40.88177273709411" lon="9.25235835651777"><ele>557.0</ele><time>2026-04-26T08:39:48.77Z</time></trkpt><trkpt lat="40.88167288371548" lon="9.252635860358708"><ele>550.0</ele><time>2026-04-26T08:39:49.77Z</time></trkpt><trkpt lat="40.88156627296505" lon="9.252884487983732"><ele>543.0</ele><time>2026-04-26T08:39:50.77Z</time></trkpt><trkpt lat="40.88145717605459" lon="9.25311389664725"><ele>536.0</ele><time>2026-04-26T08:39:51.77Z</time></trkpt><trkpt lat="40.88133894310232" lon="9.253319437632394"><ele>536.0</ele><time>2026-04-26T08:39:52.769Z</time></trkpt><trkpt lat="40.88122786675953" lon="9.253523539074985"><ele>536.0</ele><time>2026-04-26T08:39:53.769Z</time></trkpt><trkpt lat="40.881157728757216" lon="9.253728355673697"><ele>536.0</ele><time>2026-04-26T08:39:54.769Z</time></trkpt><trkpt lat="40.881158142610055" lon="9.253959154589134"><ele>535.3333333333333</ele><time>2026-04-26T08:39:55.769Z</time></trkpt><trkpt lat="40.881231152529935" lon="9.254204560495092"><ele>534.6666666666666</ele><time>2026-04-26T08:39:56.769Z</time></trkpt><trkpt lat="40.88135570246099" lon="9.25445303627065"><ele>534.0</ele><time>2026-04-26T08:39:57.769Z</time></trkpt><trkpt lat="40.88148013860251" lon="9.254713390645156"><ele>531.0</ele><time>2026-04-26T08:39:58.769Z</time></trkpt><trkpt lat="40.88157892674707" lon="9.254979272744302"><ele>528.0</ele><time>2026-04-26T08:39:59.769Z</time></trkpt><trkpt lat="40.8816668477698" lon="9.255254784696085"><ele>528.0</ele><time>2026-04-26T08:40:00.769Z</time></trkpt><trkpt lat="40.88174025258428" lon="9.255549151527692"><ele>528.0</ele><time>2026-04-26T08:40:01.769Z</time></trkpt><trkpt lat="40.88179806790936" lon="9.255857542978173"><ele>528.6666666666666</ele><time>2026-04-26T08:40:02.769Z</time></trkpt><trkpt lat="40.8818589611435" lon="9.25615181352255"><ele>529.3333333333333</ele><time>2026-04-26T08:40:03.769Z</time></trkpt><trkpt lat="40.88191947926199" lon="9.256423976888751"><ele>530.0</ele><time>2026-04-26T08:40:04.769Z</time></trkpt><trkpt lat="40.8819850279949" lon="9.256673707711784"><ele>527.0</ele><time>2026-04-26T08:40:05.769Z</time></trkpt><trkpt lat="40.88208162015896" lon="9.256921428353381"><ele>524.0</ele><time>2026-04-26T08:40:06.769Z</time></trkpt><trkpt lat="40.88221143183266" lon="9.257170744422789"><ele>521.0</ele><time>2026-04-26T08:40:07.769Z</time></trkpt><trkpt lat="40.88235148836223" lon="9.257416060474851"><ele>516.3333333333333</ele><time>2026-04-26T08:40:08.769Z</time></trkpt><trkpt lat="40.88248982061913" lon="9.257620678102946"><ele>511.66666666666663</ele><time>2026-04-26T08:40:09.769Z</time></trkpt><trkpt lat="40.882640219044866" lon="9.257770408775109"><ele>507.0</ele><time>2026-04-26T08:40:10.769Z</time></trkpt><trkpt lat="40.88279877961256" lon="9.25783771244218"><ele>506.5</ele><time>2026-04-26T08:40:11.769Z</time></trkpt><trkpt lat="40.882969318044346" lon="9.25781391645981"><ele>506.0</ele><time>2026-04-26T08:40:12.769Z</time></trkpt><trkpt lat="40.88309811425545" lon="9.257752450806695"><ele>505.5</ele><time>2026-04-26T08:40:13.769Z</time></trkpt><trkpt lat="40.883200137779355" lon="9.257667223914877"><ele>505.0</ele><time>2026-04-26T08:40:14.769Z</time></trkpt><trkpt lat="40.8832777893335" lon="9.257560139863935"><ele>505.0</ele><time>2026-04-26T08:40:15.769Z</time></trkpt><trkpt lat="40.88334761058595" lon="9.257454428663271"><ele>505.0</ele><time>2026-04-26T08:40:16.769Z</time></trkpt><trkpt lat="40.88345156638588" lon="9.257387468975825"><ele>505.0</ele><time>2026-04-26T08:40:17.769Z</time></trkpt><trkpt lat="40.88357157850387" lon="9.25736732929325"><ele>505.0</ele><time>2026-04-26T08:40:18.768Z</time></trkpt><trkpt lat="40.883712130738374" lon="9.257412997188526"><ele>504.0</ele><time>2026-04-26T08:40:19.768Z</time></trkpt><trkpt lat="40.88383289575654" lon="9.257502772306498"><ele>503.0</ele><time>2026-04-26T08:40:20.768Z</time></trkpt><trkpt lat="40.88392715655821" lon="9.257611185781508"><ele>502.0</ele><time>2026-04-26T08:40:21.768Z</time></trkpt><trkpt lat="40.88401220521452" lon="9.257693937392258"><ele>501.0</ele><time>2026-04-26T08:40:22.768Z</time></trkpt><trkpt lat="40.884125962540125" lon="9.257723235746164"><ele>501.0</ele><time>2026-04-26T08:40:23.768Z</time></trkpt><trkpt lat="40.884257611587564" lon="9.257664688705269"><ele>501.0</ele><time>2026-04-26T08:40:24.768Z</time></trkpt><trkpt lat="40.88438830286115" lon="9.25756483533658"><ele>501.0</ele><time>2026-04-26T08:40:25.768Z</time></trkpt><trkpt lat="40.88449982499308" lon="9.257445840857686"><ele>501.0</ele><time>2026-04-26T08:40:26.768Z</time></trkpt><trkpt lat="40.884610230327375" lon="9.257374552313"><ele>500.25</ele><time>2026-04-26T08:40:27.768Z</time></trkpt><trkpt lat="40.884733076274316" lon="9.257363676803802"><ele>499.5</ele><time>2026-04-26T08:40:28.768Z</time></trkpt><trkpt lat="40.88486396585499" lon="9.257378438426125"><ele>498.75</ele><time>2026-04-26T08:40:29.768Z</time></trkpt><trkpt lat="40.88499601151158" lon="9.257432684154898"><ele>498.0</ele><time>2026-04-26T08:40:30.768Z</time></trkpt><trkpt lat="40.88516790333609" lon="9.257529911451298"><ele>500.33333333333337</ele><time>2026-04-26T08:40:31.768Z</time></trkpt><trkpt lat="40.88535762753998" lon="9.25765574978807"><ele>502.6666666666667</ele><time>2026-04-26T08:40:32.768Z</time></trkpt><trkpt lat="40.88552667427253" lon="9.257763946347241"><ele>505.0</ele><time>2026-04-26T08:40:33.768Z</time></trkpt><trkpt lat="40.88567999735906" lon="9.257832157761287"><ele>505.0</ele><time>2026-04-26T08:40:34.768Z</time></trkpt><trkpt lat="40.885815641169344" lon="9.257907165608355"><ele>505.0</ele><time>2026-04-26T08:40:35.768Z</time></trkpt><trkpt lat="40.88592792302215" lon="9.258017802773574"><ele>505.0</ele><time>2026-04-26T08:40:36.768Z</time></trkpt><trkpt lat="40.88600125777664" lon="9.258160355858685"><ele>505.0</ele><time>2026-04-26T08:40:37.768Z</time></trkpt><trkpt lat="40.88604126172664" lon="9.25833026582339"><ele>503.0</ele><time>2026-04-26T08:40:38.768Z</time></trkpt><trkpt lat="40.886052635339745" lon="9.258502369651502"><ele>501.0</ele><time>2026-04-26T08:40:39.769Z</time></trkpt><trkpt lat="40.88606016528844" lon="9.258673851803398"><ele>499.0</ele><time>2026-04-26T08:40:40.769Z</time></trkpt><trkpt lat="40.88607128283532" lon="9.2588279985912"><ele>497.0</ele><time>2026-04-26T08:40:41.769Z</time></trkpt><trkpt lat="40.8861091087159" lon="9.258965904947136"><ele>497.0</ele><time>2026-04-26T08:40:42.769Z</time></trkpt><trkpt lat="40.88617154826363" lon="9.25909920976988"><ele>497.0</ele><time>2026-04-26T08:40:43.769Z</time></trkpt><trkpt lat="40.88626543299246" lon="9.25921934463677"><ele>497.0</ele><time>2026-04-26T08:40:44.769Z</time></trkpt><trkpt lat="40.88638806339949" lon="9.259322789486585"><ele>497.0</ele><time>2026-04-26T08:40:45.769Z</time></trkpt><trkpt lat="40.88654171187546" lon="9.25944112722514"><ele>497.0</ele><time>2026-04-26T08:40:46.768Z</time></trkpt><trkpt lat="40.88672681759295" lon="9.259590845871012"><ele>497.0</ele><time>2026-04-26T08:40:47.768Z</time></trkpt><trkpt lat="40.886927483213796" lon="9.259764861878502"><ele>493.0</ele><time>2026-04-26T08:40:48.769Z</time></trkpt><trkpt lat="40.887160146316894" lon="9.259953515711418"><ele>489.0</ele><time>2026-04-26T08:40:49.769Z</time></trkpt><trkpt lat="40.88739711546462" lon="9.26015739845275"><ele>481.5</ele><time>2026-04-26T08:40:50.769Z</time></trkpt><trkpt lat="40.88763561105795" lon="9.260385150260765"><ele>474.0</ele><time>2026-04-26T08:40:51.769Z</time></trkpt><trkpt lat="40.887852699444394" lon="9.260619951426575"><ele>474.0</ele><time>2026-04-26T08:40:52.768Z</time></trkpt><trkpt lat="40.888078263279176" lon="9.260805443104278"><ele>474.0</ele><time>2026-04-26T08:40:53.768Z</time></trkpt><trkpt lat="40.88832280194113" lon="9.260945573743772"><ele>477.0</ele><time>2026-04-26T08:40:54.768Z</time></trkpt><trkpt lat="40.8885857420557" lon="9.261009437029179"><ele>480.0</ele><time>2026-04-26T08:40:55.768Z</time></trkpt><trkpt lat="40.888881140857976" lon="9.261072418847004"><ele>480.0</ele><time>2026-04-26T08:40:56.768Z</time></trkpt><trkpt lat="40.88914657052519" lon="9.26120714127735"><ele>480.0</ele><time>2026-04-26T08:40:57.768Z</time></trkpt><trkpt lat="40.88932102463628" lon="9.26137857953838"><ele>470.66666666666663</ele><time>2026-04-26T08:40:58.768Z</time></trkpt><trkpt lat="40.88945776153372" lon="9.261524802536657"><ele>461.3333333333333</ele><time>2026-04-26T08:40:59.768Z</time></trkpt><trkpt lat="40.88958775399773" lon="9.261578456209394"><ele>452.0</ele><time>2026-04-26T08:41:00.768Z</time></trkpt><trkpt lat="40.88972767063874" lon="9.26153628541809"><ele>462.0</ele><time>2026-04-26T08:41:01.768Z</time></trkpt><trkpt lat="40.889906304061455" lon="9.261386089153437"><ele>472.0</ele><time>2026-04-26T08:41:02.768Z</time></trkpt><trkpt lat="40.89010626965719" lon="9.26123907440166"><ele>482.0</ele><time>2026-04-26T08:41:03.768Z</time></trkpt><trkpt lat="40.890272077804994" lon="9.2612210834026"><ele>482.0</ele><time>2026-04-26T08:41:04.768Z</time></trkpt><trkpt lat="40.890479292209704" lon="9.261348489188318"><ele>482.0</ele><time>2026-04-26T08:41:05.768Z</time></trkpt><trkpt lat="40.89072920637752" lon="9.26151520917412"><ele>468.5</ele><time>2026-04-26T08:41:06.768Z</time></trkpt><trkpt lat="40.89101192404103" lon="9.261673422738077"><ele>455.0</ele><time>2026-04-26T08:41:07.768Z</time></trkpt><trkpt lat="40.89125048434228" lon="9.261765616055301"><ele>455.0</ele><time>2026-04-26T08:41:08.767Z</time></trkpt><trkpt lat="40.89144659563012" lon="9.261839947752248"><ele>455.0</ele><time>2026-04-26T08:41:09.767Z</time></trkpt><trkpt lat="40.891601121880136" lon="9.261881894859457"><ele>455.0</ele><time>2026-04-26T08:41:10.767Z</time></trkpt><trkpt lat="40.8917638588534" lon="9.261838975841485"><ele>447.5</ele><time>2026-04-26T08:41:11.767Z</time></trkpt><trkpt lat="40.891985431975414" lon="9.261747333786559"><ele>440.0</ele><time>2026-04-26T08:41:12.767Z</time></trkpt><trkpt lat="40.892217847676505" lon="9.261605253289806"><ele>440.0</ele><time>2026-04-26T08:41:13.767Z</time></trkpt><trkpt lat="40.89240808593448" lon="9.26147670980866"><ele>440.0</ele><time>2026-04-26T08:41:14.767Z</time></trkpt><trkpt lat="40.8925803439229" lon="9.26129969632567"><ele>440.0</ele><time>2026-04-26T08:41:15.767Z</time></trkpt><trkpt lat="40.89271132732033" lon="9.26107210791596"><ele>446.3333333333333</ele><time>2026-04-26T08:41:16.767Z</time></trkpt><trkpt lat="40.89277363707014" lon="9.260855312087537"><ele>452.66666666666663</ele><time>2026-04-26T08:41:17.767Z</time></trkpt><trkpt lat="40.89288766057992" lon="9.26072953025853"><ele>459.0</ele><time>2026-04-26T08:41:18.767Z</time></trkpt><trkpt lat="40.893016473319754" lon="9.26068559052982"><ele>459.0</ele><time>2026-04-26T08:41:19.767Z</time></trkpt><trkpt lat="40.89311868918116" lon="9.26073009127051"><ele>459.0</ele><time>2026-04-26T08:41:20.767Z</time></trkpt><trkpt lat="40.89317606271635" lon="9.260863557387758"><ele>459.0</ele><time>2026-04-26T08:41:21.767Z</time></trkpt><trkpt lat="40.89318624600467" lon="9.261068264001869"><ele>459.0</ele><time>2026-04-26T08:41:22.767Z</time></trkpt><trkpt lat="40.8931851684206" lon="9.261353498945374"><ele>454.0</ele><time>2026-04-26T08:41:23.767Z</time></trkpt><trkpt lat="40.89319601976213" lon="9.26169492841243"><ele>449.0</ele><time>2026-04-26T08:41:24.767Z</time></trkpt><trkpt lat="40.893234758991774" lon="9.262041639810095"><ele>443.5</ele><time>2026-04-26T08:41:25.767Z</time></trkpt><trkpt lat="40.893275245741485" lon="9.262366967432769"><ele>438.0</ele><time>2026-04-26T08:41:26.767Z</time></trkpt><trkpt lat="40.893258727357136" lon="9.262640295754931"><ele>438.0</ele><time>2026-04-26T08:41:27.767Z</time></trkpt><trkpt lat="40.89318690252034" lon="9.262884313534899"><ele>438.0</ele><time>2026-04-26T08:41:28.767Z</time></trkpt><trkpt lat="40.89311210453966" lon="9.263084123199405"><ele>438.0</ele><time>2026-04-26T08:41:29.767Z</time></trkpt><trkpt lat="40.89312485178143" lon="9.26330314028045"><ele>439.0</ele><time>2026-04-26T08:41:30.767Z</time></trkpt><trkpt lat="40.89321899513509" lon="9.263538232004766"><ele>440.0</ele><time>2026-04-26T08:41:31.767Z</time></trkpt><trkpt lat="40.893383670899354" lon="9.263753957694492"><ele>441.0</ele><time>2026-04-26T08:41:32.767Z</time></trkpt><trkpt lat="40.89360979857233" lon="9.26386485777127"><ele>441.0</ele><time>2026-04-26T08:41:33.767Z</time></trkpt><trkpt lat="40.893870532206925" lon="9.263909158954323"><ele>441.0</ele><time>2026-04-26T08:41:34.767Z</time></trkpt><trkpt lat="40.894145008616235" lon="9.263969581551034"><ele>438.33333333333337</ele><time>2026-04-26T08:41:35.766Z</time></trkpt><trkpt lat="40.89436246564153" lon="9.26411059140052"><ele>435.6666666666667</ele><time>2026-04-26T08:41:36.766Z</time></trkpt><trkpt lat="40.89452783277661" lon="9.264243831834591"><ele>433.0</ele><time>2026-04-26T08:41:37.766Z</time></trkpt><trkpt lat="40.894633037109685" lon="9.264392651715971"><ele>433.0</ele><time>2026-04-26T08:41:38.766Z</time></trkpt><trkpt lat="40.89466830827094" lon="9.26459491651384"><ele>433.0</ele><time>2026-04-26T08:41:39.766Z</time></trkpt><trkpt lat="40.89462311989918" lon="9.264817165322205"><ele>433.0</ele><time>2026-04-26T08:41:40.766Z</time></trkpt><trkpt lat="40.89450646746789" lon="9.265032694822121"><ele>429.0</ele><time>2026-04-26T08:41:41.766Z</time></trkpt><trkpt lat="40.894376009435256" lon="9.26517998034846"><ele>425.0</ele><time>2026-04-26T08:41:42.766Z</time></trkpt><trkpt lat="40.89422192486452" lon="9.265233936090574"><ele>421.0</ele><time>2026-04-26T08:41:43.766Z</time></trkpt><trkpt lat="40.89404489332678" lon="9.265191638163477"><ele>420.5</ele><time>2026-04-26T08:41:44.766Z</time></trkpt><trkpt lat="40.89383684657521" lon="9.26506306668077"><ele>420.0</ele><time>2026-04-26T08:41:45.766Z</time></trkpt><trkpt lat="40.893624498682414" lon="9.264941215548777"><ele>420.0</ele><time>2026-04-26T08:41:46.766Z</time></trkpt><trkpt lat="40.893423453566065" lon="9.264966612508797"><ele>420.0</ele><time>2026-04-26T08:41:47.766Z</time></trkpt><trkpt lat="40.89324602637364" lon="9.2650801709557"><ele>420.0</ele><time>2026-04-26T08:41:48.766Z</time></trkpt><trkpt lat="40.89303795356788" lon="9.265293655627136"><ele>416.5</ele><time>2026-04-26T08:41:49.766Z</time></trkpt><trkpt lat="40.892797684243156" lon="9.265485715095204"><ele>413.0</ele><time>2026-04-26T08:41:50.766Z</time></trkpt><trkpt lat="40.892527377952675" lon="9.265671262643842"><ele>411.5</ele><time>2026-04-26T08:41:51.766Z</time></trkpt><trkpt lat="40.8922884743051" lon="9.265831642969182"><ele>410.0</ele><time>2026-04-26T08:41:52.766Z</time></trkpt><trkpt lat="40.89210632408536" lon="9.265951109251079"><ele>410.0</ele><time>2026-04-26T08:41:53.766Z</time></trkpt><trkpt lat="40.891995288223505" lon="9.266053420356327"><ele>410.0</ele><time>2026-04-26T08:41:54.766Z</time></trkpt><trkpt lat="40.89192376620814" lon="9.266213725404576"><ele>410.0</ele><time>2026-04-26T08:41:55.766Z</time></trkpt><trkpt lat="40.89190825743867" lon="9.266450829037767"><ele>414.5</ele><time>2026-04-26T08:41:56.766Z</time></trkpt><trkpt lat="40.891949162766146" lon="9.266773945625841"><ele>419.0</ele><time>2026-04-26T08:41:57.766Z</time></trkpt><trkpt lat="40.89199001345212" lon="9.26717793720768"><ele>420.0</ele><time>2026-04-26T08:41:58.766Z</time></trkpt><trkpt lat="40.89197076586914" lon="9.267637407557254"><ele>421.0</ele><time>2026-04-26T08:41:59.766Z</time></trkpt><trkpt lat="40.89190548907069" lon="9.26810447018405"><ele>418.0</ele><time>2026-04-26T08:42:00.766Z</time></trkpt><trkpt lat="40.89186770258032" lon="9.2684941691027"><ele>415.0</ele><time>2026-04-26T08:42:01.765Z</time></trkpt><trkpt lat="40.89185839957515" lon="9.268823790421813"><ele>410.5</ele><time>2026-04-26T08:42:02.765Z</time></trkpt><trkpt lat="40.891878899038744" lon="9.269157474559735"><ele>406.0</ele><time>2026-04-26T08:42:03.765Z</time></trkpt><trkpt lat="40.89196387370108" lon="9.269489409920759"><ele>402.5</ele><time>2026-04-26T08:42:04.765Z</time></trkpt><trkpt lat="40.892101121964814" lon="9.269824766218084"><ele>399.0</ele><time>2026-04-26T08:42:05.765Z</time></trkpt><trkpt lat="40.8923089842899" lon="9.270206353417962"><ele>396.5</ele><time>2026-04-26T08:42:06.765Z</time></trkpt><trkpt lat="40.892522299092036" lon="9.270623192803914"><ele>394.0</ele><time>2026-04-26T08:42:07.765Z</time></trkpt><trkpt lat="40.89268718297445" lon="9.270972490622206"><ele>397.5</ele><time>2026-04-26T08:42:08.765Z</time></trkpt><trkpt lat="40.89281064936417" lon="9.271262139556697"><ele>401.0</ele><time>2026-04-26T08:42:09.765Z</time></trkpt><trkpt lat="40.89295000499642" lon="9.27152680933732"><ele>401.0</ele><time>2026-04-26T08:42:10.765Z</time></trkpt><trkpt lat="40.89316235373315" lon="9.271763396503184"><ele>401.0</ele><time>2026-04-26T08:42:11.765Z</time></trkpt><trkpt lat="40.893452071622356" lon="9.271986845952137"><ele>403.0</ele><time>2026-04-26T08:42:12.765Z</time></trkpt><trkpt lat="40.89374438231538" lon="9.272229527878157"><ele>405.0</ele><time>2026-04-26T08:42:13.765Z</time></trkpt><trkpt lat="40.89396601359988" lon="9.272470745980602"><ele>405.0</ele><time>2026-04-26T08:42:14.765Z</time></trkpt><trkpt lat="40.894151363223536" lon="9.272809793618235"><ele>405.0</ele><time>2026-04-26T08:42:15.765Z</time></trkpt><trkpt lat="40.894351052414976" lon="9.273217690625055"><ele>405.0</ele><time>2026-04-26T08:42:16.765Z</time></trkpt><trkpt lat="40.894530014136365" lon="9.273608331964565"><ele>405.0</ele><time>2026-04-26T08:42:17.765Z</time></trkpt><trkpt lat="40.894714078647" lon="9.273929317067546"><ele>406.5</ele><time>2026-04-26T08:42:18.765Z</time></trkpt><trkpt lat="40.894938187743286" lon="9.274220275422012"><ele>408.0</ele><time>2026-04-26T08:42:19.765Z</time></trkpt><trkpt lat="40.89518997699104" lon="9.274445434486761"><ele>408.0</ele><time>2026-04-26T08:42:20.765Z</time></trkpt><trkpt lat="40.89539451264226" lon="9.274694941284443"><ele>408.0</ele><time>2026-04-26T08:42:21.765Z</time></trkpt><trkpt lat="40.89558472881745" lon="9.27502195467433"><ele>402.0</ele><time>2026-04-26T08:42:22.765Z</time></trkpt><trkpt lat="40.895753708995066" lon="9.275444552815198"><ele>396.0</ele><time>2026-04-26T08:42:23.765Z</time></trkpt><trkpt lat="40.89590348372239" lon="9.275850534635863"><ele>402.5</ele><time>2026-04-26T08:42:24.765Z</time></trkpt><trkpt lat="40.89602363527414" lon="9.276211908724662"><ele>409.0</ele><time>2026-04-26T08:42:25.765Z</time></trkpt><trkpt lat="40.896104953556694" lon="9.276571351434296"><ele>409.0</ele><time>2026-04-26T08:42:26.765Z</time></trkpt><trkpt lat="40.89616182529447" lon="9.276987866776539"><ele>409.0</ele><time>2026-04-26T08:42:27.764Z</time></trkpt><trkpt lat="40.89621086082406" lon="9.277412366070658"><ele>407.5</ele><time>2026-04-26T08:42:28.764Z</time></trkpt><trkpt lat="40.896256480550306" lon="9.277793892102517"><ele>406.0</ele><time>2026-04-26T08:42:29.764Z</time></trkpt><trkpt lat="40.89632261968461" lon="9.278127137715014"><ele>401.0</ele><time>2026-04-26T08:42:30.764Z</time></trkpt><trkpt lat="40.89641527089446" lon="9.278445332795672"><ele>396.0</ele><time>2026-04-26T08:42:31.764Z</time></trkpt><trkpt lat="40.896567255759805" lon="9.278747053688953"><ele>401.0</ele><time>2026-04-26T08:42:32.764Z</time></trkpt><trkpt lat="40.89676533972796" lon="9.279028721851184"><ele>406.0</ele><time>2026-04-26T08:42:33.764Z</time></trkpt><trkpt lat="40.8970168343953" lon="9.279247794343327"><ele>406.0</ele><time>2026-04-26T08:42:34.764Z</time></trkpt><trkpt lat="40.897220064711576" lon="9.27945694793324"><ele>406.0</ele><time>2026-04-26T08:42:35.764Z</time></trkpt><trkpt lat="40.8973697675661" lon="9.279690423087578"><ele>399.0</ele><time>2026-04-26T08:42:36.764Z</time></trkpt><trkpt lat="40.897476096748754" lon="9.280012231466703"><ele>392.0</ele><time>2026-04-26T08:42:37.764Z</time></trkpt><trkpt lat="40.89758462891656" lon="9.280328336127894"><ele>400.0</ele><time>2026-04-26T08:42:38.764Z</time></trkpt><trkpt lat="40.89768239711225" lon="9.28063028224252"><ele>408.0</ele><time>2026-04-26T08:42:39.764Z</time></trkpt><trkpt lat="40.89776941651126" lon="9.28091206633433"><ele>408.0</ele><time>2026-04-26T08:42:40.764Z</time></trkpt><trkpt lat="40.89785513277359" lon="9.281163816150423"><ele>408.0</ele><time>2026-04-26T08:42:41.764Z</time></trkpt><trkpt lat="40.89793413599544" lon="9.281401048909352"><ele>408.0</ele><time>2026-04-26T08:42:42.764Z</time></trkpt><trkpt lat="40.897998584359144" lon="9.281619261758957"><ele>404.0</ele><time>2026-04-26T08:42:43.764Z</time></trkpt><trkpt lat="40.89804875157783" lon="9.28184761685251"><ele>400.0</ele><time>2026-04-26T08:42:44.764Z</time></trkpt><trkpt lat="40.8980907452971" lon="9.282089630572504"><ele>396.0</ele><time>2026-04-26T08:42:45.766Z</time></trkpt><trkpt lat="40.898118248539305" lon="9.282339154275103"><ele>394.0</ele><time>2026-04-26T08:42:46.766Z</time></trkpt><trkpt lat="40.8981258769038" lon="9.282592578052169"><ele>392.0</ele><time>2026-04-26T08:42:47.766Z</time></trkpt><trkpt lat="40.89811720396115" lon="9.282836005821814"><ele>390.0</ele><time>2026-04-26T08:42:48.765Z</time></trkpt><trkpt lat="40.8980905086616" lon="9.283066887192906"><ele>389.0</ele><time>2026-04-26T08:42:49.765Z</time></trkpt><trkpt lat="40.89806180148082" lon="9.28329310744642"><ele>388.0</ele><time>2026-04-26T08:42:50.765Z</time></trkpt><trkpt lat="40.89803403046764" lon="9.283516617713067"><ele>387.0</ele><time>2026-04-26T08:42:51.766Z</time></trkpt><trkpt lat="40.898011163633036" lon="9.28373461181591"><ele>387.0</ele><time>2026-04-26T08:42:52.765Z</time></trkpt><trkpt lat="40.89798964023179" lon="9.283943803575566"><ele>387.0</ele><time>2026-04-26T08:42:53.765Z</time></trkpt><trkpt lat="40.897958415914395" lon="9.284138748464164"><ele>387.0</ele><time>2026-04-26T08:42:54.765Z</time></trkpt><trkpt lat="40.897933999683154" lon="9.284315167871366"><ele>387.0</ele><time>2026-04-26T08:42:55.765Z</time></trkpt><trkpt lat="40.897912430083984" lon="9.28449594307869"><ele>387.0</ele><time>2026-04-26T08:42:56.765Z</time></trkpt><trkpt lat="40.897907868310604" lon="9.284675675687309"><ele>387.0</ele><time>2026-04-26T08:42:57.765Z</time></trkpt><trkpt lat="40.89791248675443" lon="9.284862363924237"><ele>387.0</ele><time>2026-04-26T08:42:58.765Z</time></trkpt><trkpt lat="40.89793358238374" lon="9.285054269731964"><ele>387.0</ele><time>2026-04-26T08:42:59.765Z</time></trkpt><trkpt lat="40.897973315400726" lon="9.285264819031461"><ele>385.6666666666667</ele><time>2026-04-26T08:43:00.765Z</time></trkpt><trkpt lat="40.89801938357133" lon="9.285480244042477"><ele>384.33333333333337</ele><time>2026-04-26T08:43:01.765Z</time></trkpt><trkpt lat="40.89807238356826" lon="9.285709244285568"><ele>383.0</ele><time>2026-04-26T08:43:02.765Z</time></trkpt><trkpt lat="40.89812298259449" lon="9.28593094366269"><ele>382.0</ele><time>2026-04-26T08:43:03.765Z</time></trkpt><trkpt lat="40.898177302782805" lon="9.286134052471178"><ele>381.0</ele><time>2026-04-26T08:43:04.765Z</time></trkpt><trkpt lat="40.89822510888938" lon="9.286324346887513"><ele>380.0</ele><time>2026-04-26T08:43:05.765Z</time></trkpt><trkpt lat="40.89827002209057" lon="9.286503961039744"><ele>380.25</ele><time>2026-04-26T08:43:06.765Z</time></trkpt><trkpt lat="40.898313042560694" lon="9.286676257113706"><ele>380.5</ele><time>2026-04-26T08:43:07.765Z</time></trkpt><trkpt lat="40.89835868064814" lon="9.286839615118076"><ele>380.75</ele><time>2026-04-26T08:43:08.765Z</time></trkpt><trkpt lat="40.89840158877432" lon="9.287002213495558"><ele>381.0</ele><time>2026-04-26T08:43:09.764Z</time></trkpt><trkpt lat="40.8984357524953" lon="9.287176024033837"><ele>381.0</ele><time>2026-04-26T08:43:10.764Z</time></trkpt><trkpt lat="40.89845316715653" lon="9.287360018854109"><ele>381.0</ele><time>2026-04-26T08:43:11.764Z</time></trkpt><trkpt lat="40.89844668124924" lon="9.28754855202032"><ele>381.0</ele><time>2026-04-26T08:43:12.764Z</time></trkpt><trkpt lat="40.89840975813978" lon="9.287731271611287"><ele>381.0</ele><time>2026-04-26T08:43:13.764Z</time></trkpt><trkpt lat="40.89834775690528" lon="9.287897913738854"><ele>380.25</ele><time>2026-04-26T08:43:14.764Z</time></trkpt><trkpt lat="40.8982731786586" lon="9.288056590116737"><ele>379.5</ele><time>2026-04-26T08:43:15.764Z</time></trkpt><trkpt lat="40.89818709203605" lon="9.28820987823708"><ele>378.75</ele><time>2026-04-26T08:43:16.764Z</time></trkpt><trkpt lat="40.898096738823" lon="9.288358571906757"><ele>378.0</ele><time>2026-04-26T08:43:17.764Z</time></trkpt><trkpt lat="40.89800421526551" lon="9.288506674901855"><ele>378.0</ele><time>2026-04-26T08:43:18.764Z</time></trkpt><trkpt lat="40.8979100330151" lon="9.288654533733807"><ele>378.0</ele><time>2026-04-26T08:43:19.764Z</time></trkpt><trkpt lat="40.89781869025325" lon="9.288806204136252"><ele>378.0</ele><time>2026-04-26T08:43:20.764Z</time></trkpt><trkpt lat="40.89775012281982" lon="9.28897012821645"><ele>378.0</ele><time>2026-04-26T08:43:21.764Z</time></trkpt><trkpt lat="40.89769281633984" lon="9.289144734965976"><ele>378.25</ele><time>2026-04-26T08:43:22.764Z</time></trkpt><trkpt lat="40.897642343880115" lon="9.289321052736247"><ele>378.5</ele><time>2026-04-26T08:43:23.764Z</time></trkpt><trkpt lat="40.897610219624895" lon="9.289498416649243"><ele>378.75</ele><time>2026-04-26T08:43:24.764Z</time></trkpt><trkpt lat="40.897586219893334" lon="9.289684439395883"><ele>379.0</ele><time>2026-04-26T08:43:25.764Z</time></trkpt><trkpt lat="40.89759197197241" lon="9.289931399505498"><ele>379.5</ele><time>2026-04-26T08:43:26.764Z</time></trkpt><trkpt lat="40.897591114760324" lon="9.290244450851116"><ele>380.0</ele><time>2026-04-26T08:43:27.764Z</time></trkpt><trkpt lat="40.897591719632125" lon="9.290605075143658"><ele>380.0</ele><time>2026-04-26T08:43:28.764Z</time></trkpt><trkpt lat="40.89761026557503" lon="9.291000049302237"><ele>380.0</ele><time>2026-04-26T08:43:29.764Z</time></trkpt><trkpt lat="40.897630373484425" lon="9.291391122494224"><ele>378.5</ele><time>2026-04-26T08:43:30.764Z</time></trkpt><trkpt lat="40.89764603731112" lon="9.291751075062542"><ele>377.0</ele><time>2026-04-26T08:43:31.764Z</time></trkpt><trkpt lat="40.89765423468734" lon="9.2921067520084"><ele>379.0</ele><time>2026-04-26T08:43:32.764Z</time></trkpt><trkpt lat="40.89764202733976" lon="9.292467033796918"><ele>381.0</ele><time>2026-04-26T08:43:33.764Z</time></trkpt><trkpt lat="40.897589927742565" lon="9.292843425762083"><ele>378.5</ele><time>2026-04-26T08:43:34.764Z</time></trkpt><trkpt lat="40.89751648155588" lon="9.293207817432803"><ele>376.0</ele><time>2026-04-26T08:43:35.764Z</time></trkpt><trkpt lat="40.897445130568705" lon="9.293529781317904"><ele>376.0</ele><time>2026-04-26T08:43:36.763Z</time></trkpt><trkpt lat="40.89736076233288" lon="9.29380197570273"><ele>376.0</ele><time>2026-04-26T08:43:37.763Z</time></trkpt><trkpt lat="40.89719750517339" lon="9.294021561278731"><ele>378.0</ele><time>2026-04-26T08:43:38.763Z</time></trkpt><trkpt lat="40.89699927457692" lon="9.294285193565596"><ele>380.0</ele><time>2026-04-26T08:43:39.763Z</time></trkpt><trkpt lat="40.89676668044987" lon="9.294562965775784"><ele>376.5</ele><time>2026-04-26T08:43:40.763Z</time></trkpt><trkpt lat="40.89652917426463" lon="9.29485675127329"><ele>373.0</ele><time>2026-04-26T08:43:41.763Z</time></trkpt><trkpt lat="40.89631773390487" lon="9.29514245550163"><ele>373.0</ele><time>2026-04-26T08:43:42.763Z</time></trkpt><trkpt lat="40.89614439418597" lon="9.295415527719385"><ele>373.0</ele><time>2026-04-26T08:43:43.763Z</time></trkpt><trkpt lat="40.89600852910514" lon="9.295702387004159"><ele>371.5</ele><time>2026-04-26T08:43:44.763Z</time></trkpt><trkpt lat="40.895898315743274" lon="9.295994630933663"><ele>370.0</ele><time>2026-04-26T08:43:45.763Z</time></trkpt><trkpt lat="40.89577561042969" lon="9.296237060884001"><ele>370.0</ele><time>2026-04-26T08:43:46.763Z</time></trkpt><trkpt lat="40.8956213897985" lon="9.296410795892601"><ele>370.0</ele><time>2026-04-26T08:43:47.763Z</time></trkpt><trkpt lat="40.895386630303115" lon="9.296520291092428"><ele>369.66666666666663</ele><time>2026-04-26T08:43:48.763Z</time></trkpt><trkpt lat="40.89521404077025" lon="9.296645101057493"><ele>369.3333333333333</ele><time>2026-04-26T08:43:49.763Z</time></trkpt><trkpt lat="40.89505410585693" lon="9.296849685842592"><ele>369.0</ele><time>2026-04-26T08:43:50.763Z</time></trkpt><trkpt lat="40.89492863504517" lon="9.297171990405433"><ele>371.0</ele><time>2026-04-26T08:43:51.763Z</time></trkpt><trkpt lat="40.894805926490434" lon="9.297522400128054"><ele>373.0</ele><time>2026-04-26T08:43:52.763Z</time></trkpt><trkpt lat="40.89465686197495" lon="9.297872910591249"><ele>375.5</ele><time>2026-04-26T08:43:53.763Z</time></trkpt><trkpt lat="40.894456751609106" lon="9.298202014540673"><ele>378.0</ele><time>2026-04-26T08:43:54.763Z</time></trkpt><trkpt lat="40.89422893740085" lon="9.298532552499227"><ele>374.5</ele><time>2026-04-26T08:43:55.763Z</time></trkpt><trkpt lat="40.89401410117653" lon="9.298842343532744"><ele>371.0</ele><time>2026-04-26T08:43:56.763Z</time></trkpt><trkpt lat="40.89382556669621" lon="9.29912885689942"><ele>371.0</ele><time>2026-04-26T08:43:57.763Z</time></trkpt><trkpt lat="40.89366740270352" lon="9.299405468682425"><ele>371.0</ele><time>2026-04-26T08:43:58.763Z</time></trkpt><trkpt lat="40.89354934042982" lon="9.299735789499836"><ele>373.0</ele><time>2026-04-26T08:43:59.763Z</time></trkpt><trkpt lat="40.89343875602124" lon="9.300120025663459"><ele>375.0</ele><time>2026-04-26T08:44:00.763Z</time></trkpt><trkpt lat="40.89332447476641" lon="9.300527897564235"><ele>371.0</ele><time>2026-04-26T08:44:01.763Z</time></trkpt><trkpt lat="40.89321911971869" lon="9.300921461701755"><ele>367.0</ele><time>2026-04-26T08:44:02.762Z</time></trkpt><trkpt lat="40.893135298587914" lon="9.301332552579284"><ele>369.0</ele><time>2026-04-26T08:44:03.762Z</time></trkpt><trkpt lat="40.89307759643625" lon="9.301767843449857"><ele>371.0</ele><time>2026-04-26T08:44:04.762Z</time></trkpt><trkpt lat="40.89302762047686" lon="9.302191889362867"><ele>371.5</ele><time>2026-04-26T08:44:05.762Z</time></trkpt><trkpt lat="40.89298759361171" lon="9.302576302020482"><ele>372.0</ele><time>2026-04-26T08:44:06.762Z</time></trkpt><trkpt lat="40.89294680377908" lon="9.302919476764236"><ele>373.5</ele><time>2026-04-26T08:44:07.762Z</time></trkpt><trkpt lat="40.892902144510096" lon="9.303240624644996"><ele>375.0</ele><time>2026-04-26T08:44:08.762Z</time></trkpt><trkpt lat="40.89283531503148" lon="9.30350514530904"><ele>375.0</ele><time>2026-04-26T08:44:09.762Z</time></trkpt><trkpt lat="40.89272146823894" lon="9.303722598891087"><ele>375.0</ele><time>2026-04-26T08:44:10.762Z</time></trkpt><trkpt lat="40.89256102632682" lon="9.303890928780701"><ele>375.0</ele><time>2026-04-26T08:44:11.762Z</time></trkpt><trkpt lat="40.89234239864601" lon="9.304018245956138"><ele>374.0</ele><time>2026-04-26T08:44:12.762Z</time></trkpt><trkpt lat="40.89209819481692" lon="9.304117777440911"><ele>373.0</ele><time>2026-04-26T08:44:13.762Z</time></trkpt><trkpt lat="40.89188388938575" lon="9.304210552899061"><ele>371.66666666666663</ele><time>2026-04-26T08:44:14.762Z</time></trkpt><trkpt lat="40.89171903012406" lon="9.304364110983974"><ele>370.3333333333333</ele><time>2026-04-26T08:44:15.762Z</time></trkpt><trkpt lat="40.891598449337316" lon="9.304563582130955"><ele>369.0</ele><time>2026-04-26T08:44:16.762Z</time></trkpt><trkpt lat="40.89154395453089" lon="9.304828804259973"><ele>373.0</ele><time>2026-04-26T08:44:17.762Z</time></trkpt><trkpt lat="40.891557323093515" lon="9.305132558066378"><ele>377.0</ele><time>2026-04-26T08:44:18.762Z</time></trkpt><trkpt lat="40.891621180620625" lon="9.305452932719586"><ele>378.0</ele><time>2026-04-26T08:44:19.762Z</time></trkpt><trkpt lat="40.891729844502656" lon="9.30576495626004"><ele>379.0</ele><time>2026-04-26T08:44:20.762Z</time></trkpt><trkpt lat="40.8918843088195" lon="9.306063792731951"><ele>382.0</ele><time>2026-04-26T08:44:21.762Z</time></trkpt><trkpt lat="40.892054376904916" lon="9.306341762480509"><ele>385.0</ele><time>2026-04-26T08:44:22.762Z</time></trkpt><trkpt lat="40.89221921304497" lon="9.30658213388196"><ele>386.0</ele><time>2026-04-26T08:44:23.762Z</time></trkpt><trkpt lat="40.89238155113217" lon="9.306803081265805"><ele>387.0</ele><time>2026-04-26T08:44:24.762Z</time></trkpt><trkpt lat="40.892566507796786" lon="9.306999372649694"><ele>387.5</ele><time>2026-04-26T08:44:25.762Z</time></trkpt><trkpt lat="40.89277163663205" lon="9.307164540803665"><ele>388.0</ele><time>2026-04-26T08:44:26.762Z</time></trkpt><trkpt lat="40.892990717934225" lon="9.30733086398566"><ele>388.0</ele><time>2026-04-26T08:44:27.762Z</time></trkpt><trkpt lat="40.893195342976654" lon="9.307486794276315"><ele>388.0</ele><time>2026-04-26T08:44:28.761Z</time></trkpt><trkpt lat="40.893379353075844" lon="9.307626673302865"><ele>388.0</ele><time>2026-04-26T08:44:29.761Z</time></trkpt><trkpt lat="40.89354404870917" lon="9.30775293518937"><ele>388.33333333333337</ele><time>2026-04-26T08:44:30.761Z</time></trkpt><trkpt lat="40.89367999035264" lon="9.307882403680317"><ele>388.66666666666663</ele><time>2026-04-26T08:44:31.761Z</time></trkpt><trkpt lat="40.89377407669445" lon="9.308057748563437"><ele>389.0</ele><time>2026-04-26T08:44:32.761Z</time></trkpt><trkpt lat="40.8938327009303" lon="9.308305979382052"><ele>389.0</ele><time>2026-04-26T08:44:33.761Z</time></trkpt><trkpt lat="40.893863706761735" lon="9.308594257995876"><ele>389.0</ele><time>2026-04-26T08:44:34.761Z</time></trkpt><trkpt lat="40.893889116133316" lon="9.308884285283598"><ele>389.0</ele><time>2026-04-26T08:44:35.761Z</time></trkpt><trkpt lat="40.893919938148514" lon="9.309142882092917"><ele>389.0</ele><time>2026-04-26T08:44:36.761Z</time></trkpt><trkpt lat="40.893950878667354" lon="9.309389119955794"><ele>389.0</ele><time>2026-04-26T08:44:37.761Z</time></trkpt><trkpt lat="40.89397963677531" lon="9.309667232644045"><ele>389.0</ele><time>2026-04-26T08:44:38.761Z</time></trkpt><trkpt lat="40.894008618977196" lon="9.3099538873784"><ele>389.5</ele><time>2026-04-26T08:44:39.761Z</time></trkpt><trkpt lat="40.89404675229037" lon="9.310247826584217"><ele>390.0</ele><time>2026-04-26T08:44:40.761Z</time></trkpt><trkpt lat="40.89408090043614" lon="9.310544881697815"><ele>391.0</ele><time>2026-04-26T08:44:41.761Z</time></trkpt><trkpt lat="40.89410570198835" lon="9.310845006379523"><ele>392.0</ele><time>2026-04-26T08:44:42.761Z</time></trkpt><trkpt lat="40.894099950915695" lon="9.311141991176054"><ele>393.5</ele><time>2026-04-26T08:44:43.761Z</time></trkpt><trkpt lat="40.89404244950657" lon="9.31145809811302"><ele>395.0</ele><time>2026-04-26T08:44:44.761Z</time></trkpt><trkpt lat="40.89396522710285" lon="9.311782022123797"><ele>395.0</ele><time>2026-04-26T08:44:45.761Z</time></trkpt><trkpt lat="40.89388079887876" lon="9.312107959386365"><ele>395.0</ele><time>2026-04-26T08:44:46.761Z</time></trkpt><trkpt lat="40.89379025521507" lon="9.312445054711553"><ele>395.0</ele><time>2026-04-26T08:44:47.761Z</time></trkpt><trkpt lat="40.89370779432606" lon="9.312766600222732"><ele>395.0</ele><time>2026-04-26T08:44:48.761Z</time></trkpt><trkpt lat="40.89363884904055" lon="9.313044118402312"><ele>394.66666666666663</ele><time>2026-04-26T08:44:49.761Z</time></trkpt><trkpt lat="40.89360961286333" lon="9.313301593296783"><ele>394.33333333333337</ele><time>2026-04-26T08:44:50.761Z</time></trkpt><trkpt lat="40.89364657220393" lon="9.313559303166146"><ele>394.0</ele><time>2026-04-26T08:44:51.763Z</time></trkpt><trkpt lat="40.89374601380724" lon="9.313838124536636"><ele>392.5</ele><time>2026-04-26T08:44:52.762Z</time></trkpt><trkpt lat="40.89382464023045" lon="9.314127069860637"><ele>391.0</ele><time>2026-04-26T08:44:53.762Z</time></trkpt><trkpt lat="40.89387156106625" lon="9.314437416968701"><ele>389.0</ele><time>2026-04-26T08:44:54.762Z</time></trkpt><trkpt lat="40.89388988387918" lon="9.3147455006303"><ele>387.0</ele><time>2026-04-26T08:44:55.762Z</time></trkpt><trkpt lat="40.89386087297892" lon="9.315035503377509"><ele>387.0</ele><time>2026-04-26T08:44:56.762Z</time></trkpt><trkpt lat="40.893814524001286" lon="9.315308207967353"><ele>387.0</ele><time>2026-04-26T08:44:57.762Z</time></trkpt><trkpt lat="40.89372825328806" lon="9.31556867506689"><ele>387.0</ele><time>2026-04-26T08:44:58.762Z</time></trkpt><trkpt lat="40.89361503627144" lon="9.315823089061931"><ele>386.0</ele><time>2026-04-26T08:44:59.762Z</time></trkpt><trkpt lat="40.89347637896059" lon="9.316086027586516"><ele>385.0</ele><time>2026-04-26T08:45:00.762Z</time></trkpt><trkpt lat="40.89332616519718" lon="9.316349296718773"><ele>385.5</ele><time>2026-04-26T08:45:01.762Z</time></trkpt><trkpt lat="40.893179552864" lon="9.316614335570772"><ele>386.0</ele><time>2026-04-26T08:45:02.762Z</time></trkpt><trkpt lat="40.89303899284597" lon="9.316866500353903"><ele>386.0</ele><time>2026-04-26T08:45:03.762Z</time></trkpt><trkpt lat="40.892909446811935" lon="9.317096906726665"><ele>386.0</ele><time>2026-04-26T08:45:04.762Z</time></trkpt><trkpt lat="40.89281630943495" lon="9.317334667642136"><ele>386.0</ele><time>2026-04-26T08:45:05.762Z</time></trkpt><trkpt lat="40.892772129950046" lon="9.317620764146776"><ele>385.0</ele><time>2026-04-26T08:45:06.762Z</time></trkpt><trkpt lat="40.89276678202082" lon="9.317956391352931"><ele>384.0</ele><time>2026-04-26T08:45:07.762Z</time></trkpt><trkpt lat="40.89276748619991" lon="9.318309677060935"><ele>383.5</ele><time>2026-04-26T08:45:08.762Z</time></trkpt><trkpt lat="40.892749867691094" lon="9.318674773458643"><ele>383.0</ele><time>2026-04-26T08:45:09.762Z</time></trkpt><trkpt lat="40.89272643812388" lon="9.319030681444056"><ele>381.5</ele><time>2026-04-26T08:45:10.762Z</time></trkpt><trkpt lat="40.89271190330564" lon="9.319379000351427"><ele>380.0</ele><time>2026-04-26T08:45:11.762Z</time></trkpt><trkpt lat="40.89269853942947" lon="9.319709859263561"><ele>377.5</ele><time>2026-04-26T08:45:12.762Z</time></trkpt><trkpt lat="40.89267090506382" lon="9.320016773196425"><ele>375.0</ele><time>2026-04-26T08:45:13.762Z</time></trkpt><trkpt lat="40.89260934347869" lon="9.320310565846519"><ele>374.5</ele><time>2026-04-26T08:45:14.762Z</time></trkpt><trkpt lat="40.89250969904329" lon="9.32058412879405"><ele>374.0</ele><time>2026-04-26T08:45:15.762Z</time></trkpt><trkpt lat="40.89238427295865" lon="9.32083320610003"><ele>374.0</ele><time>2026-04-26T08:45:16.762Z</time></trkpt><trkpt lat="40.892228860143376" lon="9.321061690631808"><ele>374.0</ele><time>2026-04-26T08:45:17.762Z</time></trkpt><trkpt lat="40.89209095062137" lon="9.321305547673653"><ele>371.0</ele><time>2026-04-26T08:45:18.762Z</time></trkpt><trkpt lat="40.89198268749139" lon="9.321572817585038"><ele>368.0</ele><time>2026-04-26T08:45:19.762Z</time></trkpt><trkpt lat="40.89191393287253" lon="9.321876494694198"><ele>368.0</ele><time>2026-04-26T08:45:20.762Z</time></trkpt><trkpt lat="40.89185519729031" lon="9.32219920424106"><ele>368.0</ele><time>2026-04-26T08:45:21.762Z</time></trkpt><trkpt lat="40.89179320712192" lon="9.322527022808954"><ele>370.0</ele><time>2026-04-26T08:45:22.761Z</time></trkpt><trkpt lat="40.891745696079994" lon="9.322841133279198"><ele>372.0</ele><time>2026-04-26T08:45:23.761Z</time></trkpt><trkpt lat="40.89173439880664" lon="9.323136031411972"><ele>372.0</ele><time>2026-04-26T08:45:24.761Z</time></trkpt><trkpt lat="40.8917356829318" lon="9.323415176586048"><ele>372.0</ele><time>2026-04-26T08:45:25.761Z</time></trkpt><trkpt lat="40.89169883127879" lon="9.323675645368388"><ele>372.0</ele><time>2026-04-26T08:45:26.761Z</time></trkpt><trkpt lat="40.89160250516891" lon="9.323923932692223"><ele>370.0</ele><time>2026-04-26T08:45:27.761Z</time></trkpt><trkpt lat="40.891493321907234" lon="9.324181930953866"><ele>368.0</ele><time>2026-04-26T08:45:28.761Z</time></trkpt><trkpt lat="40.89140390665335" lon="9.324454539342325"><ele>366.0</ele><time>2026-04-26T08:45:29.761Z</time></trkpt><trkpt lat="40.89134996138315" lon="9.324753251082681"><ele>362.5</ele><time>2026-04-26T08:45:30.761Z</time></trkpt><trkpt lat="40.891275922019936" lon="9.325054262953454"><ele>359.0</ele><time>2026-04-26T08:45:31.761Z</time></trkpt><trkpt lat="40.891169833745785" lon="9.325347292982107"><ele>357.5</ele><time>2026-04-26T08:45:32.761Z</time></trkpt><trkpt lat="40.89104938456682" lon="9.325633847476073"><ele>356.0</ele><time>2026-04-26T08:45:33.761Z</time></trkpt><trkpt lat="40.89092326311472" lon="9.32591805999513"><ele>358.0</ele><time>2026-04-26T08:45:34.761Z</time></trkpt><trkpt lat="40.89078183685836" lon="9.326195840753511"><ele>360.0</ele><time>2026-04-26T08:45:35.761Z</time></trkpt><trkpt lat="40.89062117637247" lon="9.32646270191365"><ele>360.0</ele><time>2026-04-26T08:45:36.761Z</time></trkpt><trkpt lat="40.89045754384971" lon="9.32672855573252"><ele>360.0</ele><time>2026-04-26T08:45:37.761Z</time></trkpt><trkpt lat="40.89030694897647" lon="9.326997700590963"><ele>358.5</ele><time>2026-04-26T08:45:38.761Z</time></trkpt><trkpt lat="40.8901811733579" lon="9.327289346486351"><ele>357.0</ele><time>2026-04-26T08:45:39.761Z</time></trkpt><trkpt lat="40.89008083450631" lon="9.32760658131523"><ele>357.0</ele><time>2026-04-26T08:45:40.761Z</time></trkpt><trkpt lat="40.88998718593439" lon="9.327929677453227"><ele>357.0</ele><time>2026-04-26T08:45:41.761Z</time></trkpt><trkpt lat="40.889895858094356" lon="9.32824429836005"><ele>356.5</ele><time>2026-04-26T08:45:42.761Z</time></trkpt><trkpt lat="40.88979390679403" lon="9.328556401805582"><ele>356.0</ele><time>2026-04-26T08:45:43.761Z</time></trkpt><trkpt lat="40.88970063322507" lon="9.328865281260423"><ele>355.5</ele><time>2026-04-26T08:45:44.761Z</time></trkpt><trkpt lat="40.88960682638744" lon="9.32916210253116"><ele>355.0</ele><time>2026-04-26T08:45:45.761Z</time></trkpt><trkpt lat="40.889539221722835" lon="9.329469086670604"><ele>356.5</ele><time>2026-04-26T08:45:46.761Z</time></trkpt><trkpt lat="40.88947808744242" lon="9.329771597255682"><ele>358.0</ele><time>2026-04-26T08:45:47.761Z</time></trkpt><trkpt lat="40.88937702683787" lon="9.330042476332748"><ele>358.0</ele><time>2026-04-26T08:45:48.76Z</time></trkpt><trkpt lat="40.889248833166526" lon="9.330270549313198"><ele>358.0</ele><time>2026-04-26T08:45:49.76Z</time></trkpt><trkpt lat="40.88913154623105" lon="9.330488116975113"><ele>358.0</ele><time>2026-04-26T08:45:50.76Z</time></trkpt><trkpt lat="40.88900548407236" lon="9.330615229362209"><ele>358.0</ele><time>2026-04-26T08:45:51.76Z</time></trkpt><trkpt lat="40.88886226911361" lon="9.33066279386173"><ele>358.0</ele><time>2026-04-26T08:45:52.76Z</time></trkpt><trkpt lat="40.88869146416207" lon="9.330611763182729"><ele>358.0</ele><time>2026-04-26T08:45:53.76Z</time></trkpt><trkpt lat="40.88850979713454" lon="9.33054339067418"><ele>359.66666666666663</ele><time>2026-04-26T08:45:54.76Z</time></trkpt><trkpt lat="40.888324799791945" lon="9.330569887218038"><ele>361.3333333333333</ele><time>2026-04-26T08:45:55.76Z</time></trkpt><trkpt lat="40.88813319589466" lon="9.330707897291887"><ele>363.0</ele><time>2026-04-26T08:45:56.76Z</time></trkpt><trkpt lat="40.88794032229755" lon="9.33093709049935"><ele>363.0</ele><time>2026-04-26T08:45:57.76Z</time></trkpt><trkpt lat="40.88774002305476" lon="9.33118809982521"><ele>363.0</ele><time>2026-04-26T08:45:58.76Z</time></trkpt><trkpt lat="40.88752892474807" lon="9.331447506019508"><ele>363.5</ele><time>2026-04-26T08:45:59.76Z</time></trkpt><trkpt lat="40.88730555645733" lon="9.331705478151719"><ele>364.0</ele><time>2026-04-26T08:46:00.76Z</time></trkpt><trkpt lat="40.887076481431336" lon="9.331971345161087"><ele>365.0</ele><time>2026-04-26T08:46:01.76Z</time></trkpt><trkpt lat="40.886844492223624" lon="9.332243377651018"><ele>366.0</ele><time>2026-04-26T08:46:02.76Z</time></trkpt><trkpt lat="40.88660907348407" lon="9.332515657581164"><ele>366.0</ele><time>2026-04-26T08:46:03.76Z</time></trkpt><trkpt lat="40.88638009313925" lon="9.332790764934062"><ele>366.0</ele><time>2026-04-26T08:46:04.76Z</time></trkpt><trkpt lat="40.886163257655326" lon="9.333070747331925"><ele>366.0</ele><time>2026-04-26T08:46:05.76Z</time></trkpt><trkpt lat="40.88596473797227" lon="9.333342362657769"><ele>366.0</ele><time>2026-04-26T08:46:06.76Z</time></trkpt><trkpt lat="40.88577586205612" lon="9.333598399756903"><ele>365.0</ele><time>2026-04-26T08:46:07.76Z</time></trkpt><trkpt lat="40.88558863739912" lon="9.333853473056513"><ele>364.0</ele><time>2026-04-26T08:46:08.76Z</time></trkpt><trkpt lat="40.885416038138096" lon="9.334102743258763"><ele>362.5</ele><time>2026-04-26T08:46:09.76Z</time></trkpt><trkpt lat="40.88529553853562" lon="9.33437096099882"><ele>361.0</ele><time>2026-04-26T08:46:10.76Z</time></trkpt><trkpt lat="40.88523359421823" lon="9.334679754828697"><ele>359.5</ele><time>2026-04-26T08:46:11.76Z</time></trkpt><trkpt lat="40.88519442984734" lon="9.335007918076068"><ele>358.0</ele><time>2026-04-26T08:46:12.76Z</time></trkpt><trkpt lat="40.88513490546562" lon="9.335276123527825"><ele>359.3333333333333</ele><time>2026-04-26T08:46:13.76Z</time></trkpt><trkpt lat="40.88498176716505" lon="9.33548298863649"><ele>360.6666666666667</ele><time>2026-04-26T08:46:14.759Z</time></trkpt><trkpt lat="40.88481706284615" lon="9.33568221672054"><ele>362.0</ele><time>2026-04-26T08:46:15.759Z</time></trkpt><trkpt lat="40.884669903648394" lon="9.335839253837314"><ele>362.0</ele><time>2026-04-26T08:46:16.759Z</time></trkpt><trkpt lat="40.88450102817006" lon="9.335859679013907"><ele>362.0</ele><time>2026-04-26T08:46:17.759Z</time></trkpt><trkpt lat="40.884318588021834" lon="9.335808615478555"><ele>362.0</ele><time>2026-04-26T08:46:18.759Z</time></trkpt><trkpt lat="40.88411970117592" lon="9.335756509451027"><ele>363.5</ele><time>2026-04-26T08:46:19.759Z</time></trkpt><trkpt lat="40.883945551598245" lon="9.335737028574828"><ele>365.0</ele><time>2026-04-26T08:46:20.759Z</time></trkpt><trkpt lat="40.88381099242938" lon="9.335694056873988"><ele>366.5</ele><time>2026-04-26T08:46:21.759Z</time></trkpt><trkpt lat="40.88369855944799" lon="9.335682018462208"><ele>368.0</ele><time>2026-04-26T08:46:22.759Z</time></trkpt><trkpt lat="40.88353585596352" lon="9.336249842507288"><ele>368.33333333333337</ele><time>2026-04-26T08:46:23.759Z</time></trkpt><trkpt lat="40.883373262950656" lon="9.336443825153903"><ele>368.6666666666667</ele><time>2026-04-26T08:46:24.759Z</time></trkpt><trkpt lat="40.88316827020618" lon="9.336548757865668"><ele>369.0</ele><time>2026-04-26T08:46:25.759Z</time></trkpt><trkpt lat="40.88293366536427" lon="9.336593403491632"><ele>369.0</ele><time>2026-04-26T08:46:26.759Z</time></trkpt><trkpt lat="40.8826771405174" lon="9.336628359174945"><ele>369.0</ele><time>2026-04-26T08:46:27.759Z</time></trkpt><trkpt lat="40.882413142512924" lon="9.336688651848284"><ele>366.5</ele><time>2026-04-26T08:46:28.759Z</time></trkpt><trkpt lat="40.88215481724241" lon="9.336776210780066"><ele>364.0</ele><time>2026-04-26T08:46:29.759Z</time></trkpt><trkpt lat="40.88188744609759" lon="9.336872912558002"><ele>361.5</ele><time>2026-04-26T08:46:30.759Z</time></trkpt><trkpt lat="40.881611361448925" lon="9.336969701502513"><ele>359.0</ele><time>2026-04-26T08:46:31.759Z</time></trkpt><trkpt lat="40.881349166450725" lon="9.337064420880973"><ele>359.0</ele><time>2026-04-26T08:46:32.759Z</time></trkpt><trkpt lat="40.88110522361263" lon="9.337163018392332"><ele>359.0</ele><time>2026-04-26T08:46:33.759Z</time></trkpt><trkpt lat="40.880873686033254" lon="9.337290572723461"><ele>358.0</ele><time>2026-04-26T08:46:34.759Z</time></trkpt><trkpt lat="40.880652195568786" lon="9.337457700533186"><ele>357.0</ele><time>2026-04-26T08:46:35.759Z</time></trkpt><trkpt lat="40.880432953784805" lon="9.337649148028188"><ele>357.0</ele><time>2026-04-26T08:46:36.759Z</time></trkpt><trkpt lat="40.88022710152675" lon="9.337838006166887"><ele>357.0</ele><time>2026-04-26T08:46:37.759Z</time></trkpt><trkpt lat="40.88002655230926" lon="9.33801143608636"><ele>355.3333333333333</ele><time>2026-04-26T08:46:38.759Z</time></trkpt><trkpt lat="40.879823962009276" lon="9.338142610498524"><ele>353.66666666666663</ele><time>2026-04-26T08:46:39.759Z</time></trkpt><trkpt lat="40.8796138948286" lon="9.33819645900975"><ele>352.0</ele><time>2026-04-26T08:46:40.758Z</time></trkpt><trkpt lat="40.87944030232479" lon="9.338218183783306"><ele>352.0</ele><time>2026-04-26T08:46:41.758Z</time></trkpt><trkpt lat="40.87928875112932" lon="9.33824321153112"><ele>352.0</ele><time>2026-04-26T08:46:42.758Z</time></trkpt><trkpt lat="40.879164138874856" lon="9.33835050975763"><ele>352.0</ele><time>2026-04-26T08:46:43.758Z</time></trkpt><trkpt lat="40.87907407134262" lon="9.338557406916033"><ele>350.3333333333333</ele><time>2026-04-26T08:46:44.758Z</time></trkpt><trkpt lat="40.879031840934644" lon="9.338818163395915"><ele>348.6666666666667</ele><time>2026-04-26T08:46:45.758Z</time></trkpt><trkpt lat="40.87903353506885" lon="9.339114972344717"><ele>347.0</ele><time>2026-04-26T08:46:46.758Z</time></trkpt><trkpt lat="40.87908320461451" lon="9.339439893616955"><ele>344.0</ele><time>2026-04-26T08:46:47.758Z</time></trkpt><trkpt lat="40.879141089325984" lon="9.339762189583915"><ele>341.0</ele><time>2026-04-26T08:46:48.758Z</time></trkpt><trkpt lat="40.87918663477498" lon="9.340060449872155"><ele>341.0</ele><time>2026-04-26T08:46:49.758Z</time></trkpt><trkpt lat="40.8792110043808" lon="9.340353180992304"><ele>341.0</ele><time>2026-04-26T08:46:50.758Z</time></trkpt><trkpt lat="40.879209948076635" lon="9.340654834444411"><ele>339.0</ele><time>2026-04-26T08:46:51.758Z</time></trkpt><trkpt lat="40.879172807152834" lon="9.340965124490896"><ele>337.0</ele><time>2026-04-26T08:46:52.758Z</time></trkpt><trkpt lat="40.87910546821774" lon="9.341273424035732"><ele>336.5</ele><time>2026-04-26T08:46:53.758Z</time></trkpt><trkpt lat="40.8790323260534" lon="9.341584547208734"><ele>336.0</ele><time>2026-04-26T08:46:54.758Z</time></trkpt><trkpt lat="40.87896359382246" lon="9.34191127618526"><ele>335.0</ele><time>2026-04-26T08:46:55.758Z</time></trkpt><trkpt lat="40.87890063823358" lon="9.34225063869001"><ele>334.0</ele><time>2026-04-26T08:46:56.758Z</time></trkpt><trkpt lat="40.878854686126274" lon="9.342595599492414"><ele>334.0</ele><time>2026-04-26T08:46:57.759Z</time></trkpt><trkpt lat="40.87881390472004" lon="9.342952452094417"><ele>334.0</ele><time>2026-04-26T08:46:58.759Z</time></trkpt><trkpt lat="40.87876869518344" lon="9.343297022626471"><ele>331.0</ele><time>2026-04-26T08:46:59.759Z</time></trkpt><trkpt lat="40.87872453533767" lon="9.34361713477211"><ele>328.0</ele><time>2026-04-26T08:47:00.759Z</time></trkpt><trkpt lat="40.878682481499816" lon="9.343921844605568"><ele>328.0</ele><time>2026-04-26T08:47:01.759Z</time></trkpt><trkpt lat="40.87863919270759" lon="9.344234617571248"><ele>328.0</ele><time>2026-04-26T08:47:02.759Z</time></trkpt><trkpt lat="40.87859842461282" lon="9.344563802424432"><ele>329.0</ele><time>2026-04-26T08:47:03.759Z</time></trkpt><trkpt lat="40.87855500060505" lon="9.344903542761989"><ele>330.0</ele><time>2026-04-26T08:47:04.759Z</time></trkpt><trkpt lat="40.87851008729558" lon="9.345245241294931"><ele>327.5</ele><time>2026-04-26T08:47:05.759Z</time></trkpt><trkpt lat="40.878471648493644" lon="9.345581560209876"><ele>325.0</ele><time>2026-04-26T08:47:06.759Z</time></trkpt><trkpt lat="40.878432226693704" lon="9.345905099015686"><ele>325.0</ele><time>2026-04-26T08:47:07.759Z</time></trkpt><trkpt lat="40.87839290997377" lon="9.346208008334424"><ele>325.0</ele><time>2026-04-26T08:47:08.759Z</time></trkpt><trkpt lat="40.878357073979615" lon="9.346493992048172"><ele>325.66666666666663</ele><time>2026-04-26T08:47:09.759Z</time></trkpt><trkpt lat="40.87832018593768" lon="9.346760192924249"><ele>326.3333333333333</ele><time>2026-04-26T08:47:10.759Z</time></trkpt><trkpt lat="40.87828860001468" lon="9.34701249680089"><ele>327.0</ele><time>2026-04-26T08:47:11.759Z</time></trkpt><trkpt lat="40.87825623680673" lon="9.347251104689061"><ele>327.0</ele><time>2026-04-26T08:47:12.759Z</time></trkpt><trkpt lat="40.87823010070314" lon="9.347477898232029"><ele>327.0</ele><time>2026-04-26T08:47:13.759Z</time></trkpt><trkpt lat="40.87819981048481" lon="9.347696045620472"><ele>327.0</ele><time>2026-04-26T08:47:14.759Z</time></trkpt><trkpt lat="40.878156859548795" lon="9.347901343592563"><ele>328.0</ele><time>2026-04-26T08:47:15.759Z</time></trkpt><trkpt lat="40.87808001008273" lon="9.348076023218418"><ele>329.0</ele><time>2026-04-26T08:47:16.759Z</time></trkpt><trkpt lat="40.87795627711003" lon="9.348188006146982"><ele>330.0</ele><time>2026-04-26T08:47:17.759Z</time></trkpt><trkpt lat="40.87780146619053" lon="9.34824657690766"><ele>330.0</ele><time>2026-04-26T08:47:18.759Z</time></trkpt><trkpt lat="40.877621587851195" lon="9.34824969571031"><ele>330.0</ele><time>2026-04-26T08:47:19.759Z</time></trkpt><trkpt lat="40.87744114062635" lon="9.34823761751336"><ele>330.0</ele><time>2026-04-26T08:47:20.759Z</time></trkpt><trkpt lat="40.87725567662133" lon="9.348258881317388"><ele>329.0</ele><time>2026-04-26T08:47:21.759Z</time></trkpt><trkpt lat="40.877095036738645" lon="9.34831829467667"><ele>328.0</ele><time>2026-04-26T08:47:22.759Z</time></trkpt><trkpt lat="40.87697719772623" lon="9.348397768103174"><ele>327.0</ele><time>2026-04-26T08:47:23.759Z</time></trkpt><trkpt lat="40.87692507176462" lon="9.348552667455328"><ele>326.0</ele><time>2026-04-26T08:47:24.759Z</time></trkpt><trkpt lat="40.87691888946225" lon="9.348725455160961"><ele>327.0</ele><time>2026-04-26T08:47:25.759Z</time></trkpt><trkpt lat="40.87694392299879" lon="9.34890253453867"><ele>328.0</ele><time>2026-04-26T08:47:26.759Z</time></trkpt><trkpt lat="40.87695796544187" lon="9.34906243144421"><ele>329.0</ele><time>2026-04-26T08:47:27.759Z</time></trkpt><trkpt lat="40.876959442207145" lon="9.349214025808775"><ele>330.0</ele><time>2026-04-26T08:47:28.758Z</time></trkpt><trkpt lat="40.87693905123801" lon="9.349349288188675"><ele>330.0</ele><time>2026-04-26T08:47:29.758Z</time></trkpt><trkpt lat="40.876885514987" lon="9.349462187943775"><ele>330.0</ele><time>2026-04-26T08:47:30.758Z</time></trkpt><trkpt lat="40.87680405266499" lon="9.349547676157545"><ele>330.0</ele><time>2026-04-26T08:47:31.758Z</time></trkpt><trkpt lat="40.87670234384999" lon="9.349569034845505"><ele>330.0</ele><time>2026-04-26T08:47:32.758Z</time></trkpt><trkpt lat="40.87660253375716" lon="9.349608297369452"><ele>330.0</ele><time>2026-04-26T08:47:33.758Z</time></trkpt><trkpt lat="40.87650592291022" lon="9.34966796037551"><ele>329.6</ele><time>2026-04-26T08:47:34.758Z</time></trkpt><trkpt lat="40.8764011309723" lon="9.349698716672103"><ele>329.2</ele><time>2026-04-26T08:47:35.758Z</time></trkpt><trkpt lat="40.87630836448591" lon="9.349778929972379"><ele>328.79999999999995</ele><time>2026-04-26T08:47:36.758Z</time></trkpt><trkpt lat="40.87622756364633" lon="9.349870654681569"><ele>328.4</ele><time>2026-04-26T08:47:37.758Z</time></trkpt><trkpt lat="40.876158104156055" lon="9.34998031296781"><ele>328.0</ele><time>2026-04-26T08:47:38.758Z</time></trkpt><trkpt lat="40.876090757106496" lon="9.350094872236836"><ele>328.0</ele><time>2026-04-26T08:47:39.758Z</time></trkpt><trkpt lat="40.87603259955836" lon="9.350209714521245"><ele>328.0</ele><time>2026-04-26T08:47:40.758Z</time></trkpt><trkpt lat="40.87598007255449" lon="9.35033387874197"><ele>328.0</ele><time>2026-04-26T08:47:41.758Z</time></trkpt><trkpt lat="40.87593848816451" lon="9.350471679574257"><ele>328.0</ele><time>2026-04-26T08:47:42.758Z</time></trkpt><trkpt lat="40.8759062640573" lon="9.350614670221074"><ele>328.0</ele><time>2026-04-26T08:47:43.758Z</time></trkpt><trkpt lat="40.87588263060173" lon="9.350765725928692"><ele>328.0</ele><time>2026-04-26T08:47:44.758Z</time></trkpt><trkpt lat="40.87587296036142" lon="9.3509181931412"><ele>328.0</ele><time>2026-04-26T08:47:45.758Z</time></trkpt><trkpt lat="40.87586938648226" lon="9.351067345560805"><ele>328.0</ele><time>2026-04-26T08:47:46.758Z</time></trkpt><trkpt lat="40.87586664191779" lon="9.35122091506577"><ele>328.0</ele><time>2026-04-26T08:47:47.758Z</time></trkpt><trkpt lat="40.87586664191563" lon="9.351373111157951"><ele>327.5</ele><time>2026-04-26T08:47:48.758Z</time></trkpt><trkpt lat="40.875866641915806" lon="9.351526918074747"><ele>327.0</ele><time>2026-04-26T08:47:49.758Z</time></trkpt><trkpt lat="40.87586612719035" lon="9.351679587498728"><ele>326.5</ele><time>2026-04-26T08:47:50.758Z</time></trkpt><trkpt lat="40.875865579810515" lon="9.351831594959549"><ele>326.0</ele><time>2026-04-26T08:47:51.758Z</time></trkpt><trkpt lat="40.87586481144385" lon="9.351981418535523"><ele>326.0</ele><time>2026-04-26T08:47:52.758Z</time></trkpt><trkpt lat="40.87586464191522" lon="9.352134636647286"><ele>326.0</ele><time>2026-04-26T08:47:53.758Z</time></trkpt><trkpt lat="40.87586291528799" lon="9.35228248355823"><ele>326.0</ele><time>2026-04-26T08:47:54.757Z</time></trkpt><trkpt lat="40.87585781552709" lon="9.352430505834786"><ele>326.0</ele><time>2026-04-26T08:47:55.757Z</time></trkpt><trkpt lat="40.875841320777745" lon="9.352567727526173"><ele>326.0</ele><time>2026-04-26T08:47:56.757Z</time></trkpt><trkpt lat="40.875810067064556" lon="9.35271806832017"><ele>325.8</ele><time>2026-04-26T08:47:57.757Z</time></trkpt><trkpt lat="40.87577051390138" lon="9.352843711378982"><ele>325.6</ele><time>2026-04-26T08:47:58.757Z</time></trkpt><trkpt lat="40.875720749212846" lon="9.35296952284222"><ele>325.4</ele><time>2026-04-26T08:47:59.757Z</time></trkpt><trkpt lat="40.875661602164975" lon="9.353082401276131"><ele>325.2</ele><time>2026-04-26T08:48:00.757Z</time></trkpt><trkpt lat="40.875582406299394" lon="9.353186223505077"><ele>325.0</ele><time>2026-04-26T08:48:01.757Z</time></trkpt><trkpt lat="40.87549442746158" lon="9.353294732695748"><ele>323.75</ele><time>2026-04-26T08:48:02.757Z</time></trkpt><trkpt lat="40.87540600393172" lon="9.353398158888263"><ele>322.5</ele><time>2026-04-26T08:48:03.757Z</time></trkpt><trkpt lat="40.875316071780404" lon="9.35350249751079"><ele>321.25</ele><time>2026-04-26T08:48:04.757Z</time></trkpt><trkpt lat="40.87522664020762" lon="9.353605953335364"><ele>320.0</ele><time>2026-04-26T08:48:05.757Z</time></trkpt><trkpt lat="40.87513793522457" lon="9.353708568623821"><ele>320.25</ele><time>2026-04-26T08:48:06.757Z</time></trkpt><trkpt lat="40.875048345204846" lon="9.353812207733549"><ele>320.5</ele><time>2026-04-26T08:48:07.757Z</time></trkpt><trkpt lat="40.87495668513292" lon="9.353918241539875"><ele>320.75</ele><time>2026-04-26T08:48:08.757Z</time></trkpt><trkpt lat="40.87487198788048" lon="9.35404525039535"><ele>321.0</ele><time>2026-04-26T08:48:09.757Z</time></trkpt><trkpt lat="40.874763411803464" lon="9.354136254476686"><ele>320.25</ele><time>2026-04-26T08:48:10.757Z</time></trkpt><trkpt lat="40.874673770619296" lon="9.354265416771993"><ele>319.5</ele><time>2026-04-26T08:48:11.757Z</time></trkpt><trkpt lat="40.874573052107465" lon="9.35437842817463"><ele>318.75</ele><time>2026-04-26T08:48:12.757Z</time></trkpt><trkpt lat="40.87447018335867" lon="9.354495432695822"><ele>318.0</ele><time>2026-04-26T08:48:13.757Z</time></trkpt><trkpt lat="40.87436661773051" lon="9.354617485217851"><ele>316.75</ele><time>2026-04-26T08:48:14.757Z</time></trkpt><trkpt lat="40.874253332959725" lon="9.354722415073413"><ele>315.5</ele><time>2026-04-26T08:48:15.757Z</time></trkpt><trkpt lat="40.874153181878725" lon="9.354837981762223"><ele>314.25</ele><time>2026-04-26T08:48:16.757Z</time></trkpt><trkpt lat="40.87405492854461" lon="9.35495135861856"><ele>313.0</ele><time>2026-04-26T08:48:17.757Z</time></trkpt><trkpt lat="40.87396092333523" lon="9.35505888510325"><ele>313.0</ele><time>2026-04-26T08:48:18.757Z</time></trkpt><trkpt lat="40.873868981925234" lon="9.35516435841699"><ele>313.0</ele><time>2026-04-26T08:48:19.757Z</time></trkpt><trkpt lat="40.8737908227797" lon="9.355279037114352"><ele>313.0</ele><time>2026-04-26T08:48:20.756Z</time></trkpt><trkpt lat="40.87370098272931" lon="9.355377653581808"><ele>313.0</ele><time>2026-04-26T08:48:21.756Z</time></trkpt><trkpt lat="40.87361455424654" lon="9.35547487167734"><ele>312.0</ele><time>2026-04-26T08:48:22.756Z</time></trkpt><trkpt lat="40.8735273660232" lon="9.355577160857312"><ele>311.0</ele><time>2026-04-26T08:48:23.756Z</time></trkpt><trkpt lat="40.87342782360959" lon="9.355688476217649"><ele>310.0</ele><time>2026-04-26T08:48:24.756Z</time></trkpt><trkpt lat="40.8733173668916" lon="9.355811975174172"><ele>309.0</ele><time>2026-04-26T08:48:25.756Z</time></trkpt><trkpt lat="40.87320118068109" lon="9.355944393634518"><ele>309.0</ele><time>2026-04-26T08:48:26.756Z</time></trkpt><trkpt lat="40.87308505040378" lon="9.356069066544563"><ele>309.0</ele><time>2026-04-26T08:48:27.756Z</time></trkpt><trkpt lat="40.872976089190175" lon="9.356187461760383"><ele>309.0</ele><time>2026-04-26T08:48:28.756Z</time></trkpt><trkpt lat="40.8728685417807" lon="9.356292510801703"><ele>309.0</ele><time>2026-04-26T08:48:29.756Z</time></trkpt><trkpt lat="40.872772226804095" lon="9.356401941147977"><ele>308.0</ele><time>2026-04-26T08:48:30.756Z</time></trkpt><trkpt lat="40.872678243624286" lon="9.356506815908043"><ele>307.0</ele><time>2026-04-26T08:48:31.756Z</time></trkpt><trkpt lat="40.87258786976274" lon="9.356617683816316"><ele>306.0</ele><time>2026-04-26T08:48:32.756Z</time></trkpt><trkpt lat="40.87250382033636" lon="9.35671843924935"><ele>305.0</ele><time>2026-04-26T08:48:33.756Z</time></trkpt><trkpt lat="40.872409249585544" lon="9.356821196138224"><ele>304.5</ele><time>2026-04-26T08:48:34.756Z</time></trkpt><trkpt lat="40.872319199276575" lon="9.356936789906678"><ele>304.0</ele><time>2026-04-26T08:48:35.756Z</time></trkpt><trkpt lat="40.87223333992157" lon="9.357040099693386"><ele>303.5</ele><time>2026-04-26T08:48:36.756Z</time></trkpt><trkpt lat="40.87215018875421" lon="9.357135061652933"><ele>303.0</ele><time>2026-04-26T08:48:37.756Z</time></trkpt><trkpt lat="40.87206983196745" lon="9.357226715464162"><ele>302.75</ele><time>2026-04-26T08:48:38.756Z</time></trkpt><trkpt lat="40.87199456801108" lon="9.35730823823555"><ele>302.5</ele><time>2026-04-26T08:48:39.756Z</time></trkpt><trkpt lat="40.87191812598239" lon="9.357403599793308"><ele>302.25</ele><time>2026-04-26T08:48:40.756Z</time></trkpt><trkpt lat="40.87183148885267" lon="9.357511271015037"><ele>302.0</ele><time>2026-04-26T08:48:41.756Z</time></trkpt><trkpt lat="40.87173190592623" lon="9.357620887057772"><ele>302.0</ele><time>2026-04-26T08:48:42.756Z</time></trkpt><trkpt lat="40.87162184693485" lon="9.357741108062868"><ele>302.0</ele><time>2026-04-26T08:48:43.756Z</time></trkpt><trkpt lat="40.87152400099427" lon="9.357855401393692"><ele>302.0</ele><time>2026-04-26T08:48:44.756Z</time></trkpt><trkpt lat="40.87143206090385" lon="9.357960238497304"><ele>302.0</ele><time>2026-04-26T08:48:45.756Z</time></trkpt><trkpt lat="40.87135647526344" lon="9.358044256220852"><ele>302.0</ele><time>2026-04-26T08:48:46.756Z</time></trkpt><trkpt lat="40.871296719946436" lon="9.358090097934125"><ele>302.0</ele><time>2026-04-26T08:48:47.755Z</time></trkpt><trkpt lat="40.871217750475765" lon="9.35809024989128"><ele>302.0</ele><time>2026-04-26T08:48:49.755Z</time></trkpt><trkpt lat="40.871133833609484" lon="9.357909222123018"><ele>302.0</ele><time>2026-04-26T08:48:51.755Z</time></trkpt><trkpt lat="40.87109560542763" lon="9.357759856490587"><ele>302.0</ele><time>2026-04-26T08:48:52.755Z</time></trkpt><trkpt lat="40.871049814215496" lon="9.357614231897621"><ele>302.0</ele><time>2026-04-26T08:48:53.755Z</time></trkpt><trkpt lat="40.87100536646999" lon="9.357447311745323"><ele>302.0</ele><time>2026-04-26T08:48:54.755Z</time></trkpt><trkpt lat="40.87095824508106" lon="9.357261733478023"><ele>302.0</ele><time>2026-04-26T08:48:55.755Z</time></trkpt><trkpt lat="40.87090713748331" lon="9.357057209343216"><ele>302.0</ele><time>2026-04-26T08:48:56.755Z</time></trkpt><trkpt lat="40.870857105984896" lon="9.356857554140378"><ele>301.6666666666667</ele><time>2026-04-26T08:48:57.755Z</time></trkpt><trkpt lat="40.87082124271843" lon="9.356643672722164"><ele>301.3333333333333</ele><time>2026-04-26T08:48:58.755Z</time></trkpt><trkpt lat="40.87076571626292" lon="9.356421441388118"><ele>301.0</ele><time>2026-04-26T08:48:59.755Z</time></trkpt><trkpt lat="40.87070768024902" lon="9.356189121830507"><ele>300.0</ele><time>2026-04-26T08:49:00.755Z</time></trkpt><trkpt lat="40.870649401001785" lon="9.355955828616985"><ele>299.0</ele><time>2026-04-26T08:49:01.755Z</time></trkpt><trkpt lat="40.87059615771736" lon="9.355742694482748"><ele>298.0</ele><time>2026-04-26T08:49:02.755Z</time></trkpt><trkpt lat="40.87053218396345" lon="9.355486606020433"><ele>298.0</ele><time>2026-04-26T08:49:03.756Z</time></trkpt><trkpt lat="40.870467112232035" lon="9.355226295606407"><ele>298.0</ele><time>2026-04-26T08:49:04.756Z</time></trkpt><trkpt lat="40.87039981717416" lon="9.354957393528142"><ele>298.0</ele><time>2026-04-26T08:49:05.756Z</time></trkpt><trkpt lat="40.87033164128409" lon="9.354684971763188"><ele>298.0</ele><time>2026-04-26T08:49:06.756Z</time></trkpt><trkpt lat="40.87026248878918" lon="9.354408647626368"><ele>298.0</ele><time>2026-04-26T08:49:07.756Z</time></trkpt><trkpt lat="40.870193024265575" lon="9.354131076651317"><ele>298.0</ele><time>2026-04-26T08:49:08.756Z</time></trkpt><trkpt lat="40.870121650696674" lon="9.353845733716694"><ele>297.0</ele><time>2026-04-26T08:49:09.756Z</time></trkpt><trkpt lat="40.87005022911639" lon="9.353560011280175"><ele>296.0</ele><time>2026-04-26T08:49:10.755Z</time></trkpt><trkpt lat="40.86998029119193" lon="9.353280224214558"><ele>295.33333333333337</ele><time>2026-04-26T08:49:11.755Z</time></trkpt><trkpt lat="40.86989448412473" lon="9.35300676127009"><ele>294.6666666666667</ele><time>2026-04-26T08:49:12.756Z</time></trkpt><trkpt lat="40.869826014471755" lon="9.352729091198873"><ele>294.0</ele><time>2026-04-26T08:49:13.755Z</time></trkpt><trkpt lat="40.869756534905775" lon="9.35245265222092"><ele>294.6666666666667</ele><time>2026-04-26T08:49:14.755Z</time></trkpt><trkpt lat="40.86970308642117" lon="9.352177541153294"><ele>295.33333333333337</ele><time>2026-04-26T08:49:15.756Z</time></trkpt><trkpt lat="40.869627046695676" lon="9.351918846202388"><ele>296.0</ele><time>2026-04-26T08:49:16.756Z</time></trkpt><trkpt lat="40.86956153842292" lon="9.351655941779676"><ele>296.0</ele><time>2026-04-26T08:49:17.756Z</time></trkpt><trkpt lat="40.86949552609362" lon="9.351398534635988"><ele>296.0</ele><time>2026-04-26T08:49:18.756Z</time></trkpt><trkpt lat="40.869429628676414" lon="9.351141807545346"><ele>296.0</ele><time>2026-04-26T08:49:19.756Z</time></trkpt><trkpt lat="40.86936638166838" lon="9.350888829993556"><ele>297.0</ele><time>2026-04-26T08:49:20.756Z</time></trkpt><trkpt lat="40.86930363013036" lon="9.35063529602826"><ele>298.0</ele><time>2026-04-26T08:49:21.756Z</time></trkpt><trkpt lat="40.86924010156187" lon="9.350384715599949"><ele>299.0</ele><time>2026-04-26T08:49:22.756Z</time></trkpt><trkpt lat="40.869176743726214" lon="9.350137049797878"><ele>295.6666666666667</ele><time>2026-04-26T08:49:23.756Z</time></trkpt><trkpt lat="40.86911798523367" lon="9.34989550955297"><ele>292.3333333333333</ele><time>2026-04-26T08:49:24.756Z</time></trkpt><trkpt lat="40.86906590453406" lon="9.349639459983932"><ele>289.0</ele><time>2026-04-26T08:49:25.756Z</time></trkpt><trkpt lat="40.869002717286854" lon="9.34938458669495"><ele>289.0</ele><time>2026-04-26T08:49:26.756Z</time></trkpt><trkpt lat="40.86892768512876" lon="9.349139895862933"><ele>289.0</ele><time>2026-04-26T08:49:27.755Z</time></trkpt><trkpt lat="40.86886786397593" lon="9.348888678498032"><ele>289.0</ele><time>2026-04-26T08:49:28.755Z</time></trkpt><trkpt lat="40.86880070918523" lon="9.34863722935478"><ele>289.0</ele><time>2026-04-26T08:49:29.755Z</time></trkpt><trkpt lat="40.86874393355766" lon="9.348389064449607"><ele>289.0</ele><time>2026-04-26T08:49:30.755Z</time></trkpt><trkpt lat="40.86868507762012" lon="9.348167328410117"><ele>289.0</ele><time>2026-04-26T08:49:31.755Z</time></trkpt><trkpt lat="40.868625856012386" lon="9.347942044024672"><ele>289.0</ele><time>2026-04-26T08:49:32.755Z</time></trkpt><trkpt lat="40.86857065002379" lon="9.347715285743854"><ele>289.0</ele><time>2026-04-26T08:49:33.755Z</time></trkpt><trkpt lat="40.86851140115086" lon="9.34748217674955"><ele>289.0</ele><time>2026-04-26T08:49:34.755Z</time></trkpt><trkpt lat="40.868474355221615" lon="9.347241897796037"><ele>287.0</ele><time>2026-04-26T08:49:35.755Z</time></trkpt><trkpt lat="40.868437016833354" lon="9.346999640054747"><ele>285.0</ele><time>2026-04-26T08:49:36.755Z</time></trkpt><trkpt lat="40.86840522176283" lon="9.346768282381138"><ele>283.0</ele><time>2026-04-26T08:49:37.755Z</time></trkpt><trkpt lat="40.86836422019956" lon="9.346538489183951"><ele>283.0</ele><time>2026-04-26T08:49:38.755Z</time></trkpt><trkpt lat="40.868345319307366" lon="9.346321321149018"><ele>283.0</ele><time>2026-04-26T08:49:39.755Z</time></trkpt><trkpt lat="40.8683178923489" lon="9.3461632024062"><ele>283.0</ele><time>2026-04-26T08:49:40.755Z</time></trkpt><trkpt lat="40.868236637275004" lon="9.346056959746665"><ele>283.0</ele><time>2026-04-26T08:49:41.755Z</time></trkpt><trkpt lat="40.86811998948632" lon="9.345989697216115"><ele>283.0</ele><time>2026-04-26T08:49:42.755Z</time></trkpt><trkpt lat="40.86796024075285" lon="9.34597381397289"><ele>283.0</ele><time>2026-04-26T08:49:43.755Z</time></trkpt><trkpt lat="40.867781307075205" lon="9.345972611909039"><ele>283.0</ele><time>2026-04-26T08:49:44.755Z</time></trkpt><trkpt lat="40.86760833293568" lon="9.346010198871799"><ele>284.0</ele><time>2026-04-26T08:49:45.755Z</time></trkpt><trkpt lat="40.867431472506624" lon="9.346126252977994"><ele>285.0</ele><time>2026-04-26T08:49:46.755Z</time></trkpt><trkpt lat="40.86726027136693" lon="9.34626243256469"><ele>286.0</ele><time>2026-04-26T08:49:47.755Z</time></trkpt><trkpt lat="40.867070841448594" lon="9.34634489304637"><ele>285.66666666666663</ele><time>2026-04-26T08:49:48.755Z</time></trkpt><trkpt lat="40.86688525849934" lon="9.346430910771664"><ele>285.3333333333333</ele><time>2026-04-26T08:49:49.755Z</time></trkpt><trkpt lat="40.86669591088294" lon="9.346481404411273"><ele>285.0</ele><time>2026-04-26T08:49:50.755Z</time></trkpt><trkpt lat="40.8665317592829" lon="9.346480074566484"><ele>285.0</ele><time>2026-04-26T08:49:51.755Z</time></trkpt><trkpt lat="40.866382979897224" lon="9.346414366107556"><ele>285.0</ele><time>2026-04-26T08:49:52.755Z</time></trkpt><trkpt lat="40.8662128131248" lon="9.346303570791154"><ele>285.0</ele><time>2026-04-26T08:49:53.754Z</time></trkpt><trkpt lat="40.86603901448527" lon="9.346171518468111"><ele>286.0</ele><time>2026-04-26T08:49:54.754Z</time></trkpt><trkpt lat="40.86585959091608" lon="9.346046280018186"><ele>287.0</ele><time>2026-04-26T08:49:55.754Z</time></trkpt><trkpt lat="40.865685181462794" lon="9.345895137935774"><ele>288.0</ele><time>2026-04-26T08:49:56.754Z</time></trkpt><trkpt lat="40.86549117056532" lon="9.345772752844875"><ele>288.0</ele><time>2026-04-26T08:49:57.754Z</time></trkpt><trkpt lat="40.86531275773955" lon="9.345632641225043"><ele>288.0</ele><time>2026-04-26T08:49:58.754Z</time></trkpt><trkpt lat="40.86513778932869" lon="9.345493096274708"><ele>288.0</ele><time>2026-04-26T08:49:59.754Z</time></trkpt><trkpt lat="40.86496766269466" lon="9.345361490847274"><ele>290.3333333333333</ele><time>2026-04-26T08:50:00.754Z</time></trkpt><trkpt lat="40.864799841969514" lon="9.345243277302052"><ele>292.66666666666663</ele><time>2026-04-26T08:50:01.754Z</time></trkpt><trkpt lat="40.86463808997099" lon="9.345120237042225"><ele>295.0</ele><time>2026-04-26T08:50:02.754Z</time></trkpt><trkpt lat="40.864480900469296" lon="9.344993916096806"><ele>295.0</ele><time>2026-04-26T08:50:03.754Z</time></trkpt><trkpt lat="40.86432248793101" lon="9.34487140784778"><ele>295.0</ele><time>2026-04-26T08:50:04.754Z</time></trkpt><trkpt lat="40.86417521698302" lon="9.34471913672746"><ele>295.0</ele><time>2026-04-26T08:50:05.754Z</time></trkpt><trkpt lat="40.86403299148162" lon="9.344560949448114"><ele>296.0</ele><time>2026-04-26T08:50:06.754Z</time></trkpt><trkpt lat="40.86390500519594" lon="9.344385451836393"><ele>297.0</ele><time>2026-04-26T08:50:07.754Z</time></trkpt><trkpt lat="40.86378779068385" lon="9.344182660378888"><ele>298.0</ele><time>2026-04-26T08:50:08.754Z</time></trkpt><trkpt lat="40.86367906441528" lon="9.343951988188037"><ele>298.3333333333333</ele><time>2026-04-26T08:50:09.754Z</time></trkpt><trkpt lat="40.86357278420436" lon="9.343711253655224"><ele>298.6666666666667</ele><time>2026-04-26T08:50:10.754Z</time></trkpt><trkpt lat="40.86346360328001" lon="9.343465477143544"><ele>299.0</ele><time>2026-04-26T08:50:11.754Z</time></trkpt><trkpt lat="40.86333922664541" lon="9.343221928771861"><ele>300.0</ele><time>2026-04-26T08:50:12.754Z</time></trkpt><trkpt lat="40.86322642677907" lon="9.34296430392355"><ele>301.0</ele><time>2026-04-26T08:50:13.754Z</time></trkpt><trkpt lat="40.863109374025775" lon="9.342706990483562"><ele>301.0</ele><time>2026-04-26T08:50:14.754Z</time></trkpt><trkpt lat="40.86300854787157" lon="9.342433920431304"><ele>301.0</ele><time>2026-04-26T08:50:15.754Z</time></trkpt><trkpt lat="40.862881782123814" lon="9.342175838380399"><ele>302.0</ele><time>2026-04-26T08:50:16.754Z</time></trkpt><trkpt lat="40.8627758797137" lon="9.341909767376077"><ele>303.0</ele><time>2026-04-26T08:50:17.754Z</time></trkpt><trkpt lat="40.862696204840596" lon="9.341625400942668"><ele>299.5</ele><time>2026-04-26T08:50:18.754Z</time></trkpt><trkpt lat="40.86261364824909" lon="9.341351497636714"><ele>296.0</ele><time>2026-04-26T08:50:19.753Z</time></trkpt><trkpt lat="40.862533932339346" lon="9.341065662778586"><ele>296.0</ele><time>2026-04-26T08:50:20.753Z</time></trkpt><trkpt lat="40.862454062981826" lon="9.34078135374345"><ele>296.0</ele><time>2026-04-26T08:50:21.753Z</time></trkpt><trkpt lat="40.86236199095302" lon="9.34049697231227"><ele>297.0</ele><time>2026-04-26T08:50:22.753Z</time></trkpt><trkpt lat="40.86228204006494" lon="9.340209848326815"><ele>298.0</ele><time>2026-04-26T08:50:23.753Z</time></trkpt><trkpt lat="40.86221217689958" lon="9.339917833323822"><ele>298.5</ele><time>2026-04-26T08:50:24.753Z</time></trkpt><trkpt lat="40.86213137144323" lon="9.3396187229359"><ele>299.0</ele><time>2026-04-26T08:50:25.753Z</time></trkpt><trkpt lat="40.86205058099207" lon="9.339327166024724"><ele>299.0</ele><time>2026-04-26T08:50:26.753Z</time></trkpt><trkpt lat="40.86196988205025" lon="9.339035939425324"><ele>299.0</ele><time>2026-04-26T08:50:27.753Z</time></trkpt><trkpt lat="40.86188966090771" lon="9.33874643708332"><ele>298.6666666666667</ele><time>2026-04-26T08:50:28.753Z</time></trkpt><trkpt lat="40.861812627482095" lon="9.33846629996393"><ele>298.3333333333333</ele><time>2026-04-26T08:50:29.753Z</time></trkpt><trkpt lat="40.86172603116903" lon="9.338200145380513"><ele>298.0</ele><time>2026-04-26T08:50:30.753Z</time></trkpt><trkpt lat="40.8616524017018" lon="9.33794744036864"><ele>298.66666666666663</ele><time>2026-04-26T08:50:31.753Z</time></trkpt><trkpt lat="40.861556166871345" lon="9.337722071528741"><ele>299.3333333333333</ele><time>2026-04-26T08:50:32.753Z</time></trkpt><trkpt lat="40.861418199941966" lon="9.3375272649576"><ele>300.0</ele><time>2026-04-26T08:50:33.753Z</time></trkpt><trkpt lat="40.861261576759034" lon="9.337325635479786"><ele>300.0</ele><time>2026-04-26T08:50:34.753Z</time></trkpt><trkpt lat="40.86110713524001" lon="9.337133533130933"><ele>300.0</ele><time>2026-04-26T08:50:35.753Z</time></trkpt><trkpt lat="40.86095915536517" lon="9.336919895185625"><ele>300.0</ele><time>2026-04-26T08:50:36.753Z</time></trkpt><trkpt lat="40.86081207477424" lon="9.33669836477577"><ele>300.0</ele><time>2026-04-26T08:50:37.753Z</time></trkpt><trkpt lat="40.860658470695306" lon="9.336479319428282"><ele>300.0</ele><time>2026-04-26T08:50:38.753Z</time></trkpt><trkpt lat="40.86050209778908" lon="9.336259117377008"><ele>301.3333333333333</ele><time>2026-04-26T08:50:39.753Z</time></trkpt><trkpt lat="40.860351023546244" lon="9.336038309917"><ele>302.66666666666663</ele><time>2026-04-26T08:50:40.753Z</time></trkpt><trkpt lat="40.86020296325196" lon="9.335827366568639"><ele>304.0</ele><time>2026-04-26T08:50:41.753Z</time></trkpt><trkpt lat="40.86006218661947" lon="9.335616914779385"><ele>305.66666666666663</ele><time>2026-04-26T08:50:42.753Z</time></trkpt><trkpt lat="40.85992468568173" lon="9.335420463687086"><ele>307.3333333333333</ele><time>2026-04-26T08:50:43.753Z</time></trkpt><trkpt lat="40.85980266560954" lon="9.33520836355373"><ele>309.0</ele><time>2026-04-26T08:50:44.753Z</time></trkpt><trkpt lat="40.85969614388526" lon="9.335008776519997"><ele>309.0</ele><time>2026-04-26T08:50:45.752Z</time></trkpt><trkpt lat="40.859631981117865" lon="9.334799569371155"><ele>309.0</ele><time>2026-04-26T08:50:46.752Z</time></trkpt><trkpt lat="40.85959264749191" lon="9.334569745369837"><ele>309.0</ele><time>2026-04-26T08:50:47.752Z</time></trkpt><trkpt lat="40.85956407448596" lon="9.334311960726517"><ele>312.6666666666667</ele><time>2026-04-26T08:50:48.752Z</time></trkpt><trkpt lat="40.85952266434152" lon="9.334035403377888"><ele>316.33333333333337</ele><time>2026-04-26T08:50:49.752Z</time></trkpt><trkpt lat="40.85943595078953" lon="9.333791623846501"><ele>320.0</ele><time>2026-04-26T08:50:50.752Z</time></trkpt><trkpt lat="40.85933826962737" lon="9.333549466739047"><ele>320.0</ele><time>2026-04-26T08:50:51.752Z</time></trkpt><trkpt lat="40.859210833174174" lon="9.33331057096983"><ele>320.0</ele><time>2026-04-26T08:50:52.752Z</time></trkpt><trkpt lat="40.85908681220584" lon="9.333069340298294"><ele>320.0</ele><time>2026-04-26T08:50:53.752Z</time></trkpt><trkpt lat="40.858955535098545" lon="9.33283093553807"><ele>324.0</ele><time>2026-04-26T08:50:54.752Z</time></trkpt><trkpt lat="40.858838570854886" lon="9.332572840666698"><ele>328.0</ele><time>2026-04-26T08:50:55.752Z</time></trkpt><trkpt lat="40.85872579980435" lon="9.332319148428738"><ele>330.3333333333333</ele><time>2026-04-26T08:50:56.752Z</time></trkpt><trkpt lat="40.85863868096051" lon="9.332054069011447"><ele>332.6666666666667</ele><time>2026-04-26T08:50:57.752Z</time></trkpt><trkpt lat="40.85857625869355" lon="9.331767083284895"><ele>335.0</ele><time>2026-04-26T08:50:58.752Z</time></trkpt><trkpt lat="40.858543208031165" lon="9.331477227556121"><ele>335.5</ele><time>2026-04-26T08:50:59.752Z</time></trkpt><trkpt lat="40.85851067510194" lon="9.33117661427755"><ele>336.0</ele><time>2026-04-26T08:51:00.752Z</time></trkpt><trkpt lat="40.858478929702024" lon="9.33088327700506"><ele>334.5</ele><time>2026-04-26T08:51:01.752Z</time></trkpt><trkpt lat="40.85843351055865" lon="9.330587874324237"><ele>333.0</ele><time>2026-04-26T08:51:02.752Z</time></trkpt><trkpt lat="40.8584066856226" lon="9.330295150118006"><ele>333.0</ele><time>2026-04-26T08:51:03.752Z</time></trkpt><trkpt lat="40.85837492452103" lon="9.330011449319768"><ele>333.0</ele><time>2026-04-26T08:51:04.752Z</time></trkpt><trkpt lat="40.85834300966995" lon="9.329722524551153"><ele>333.0</ele><time>2026-04-26T08:51:05.752Z</time></trkpt><trkpt lat="40.85833294881863" lon="9.329429876540031"><ele>334.6666666666667</ele><time>2026-04-26T08:51:06.752Z</time></trkpt><trkpt lat="40.858346060664296" lon="9.329144132140161"><ele>336.33333333333337</ele><time>2026-04-26T08:51:07.752Z</time></trkpt><trkpt lat="40.85837362273706" lon="9.328857209063539"><ele>338.0</ele><time>2026-04-26T08:51:08.752Z</time></trkpt><trkpt lat="40.85840030668851" lon="9.32856336055805"><ele>340.0</ele><time>2026-04-26T08:51:09.753Z</time></trkpt><trkpt lat="40.85838093797291" lon="9.328276195181257"><ele>342.0</ele><time>2026-04-26T08:51:10.753Z</time></trkpt><trkpt lat="40.858315804646985" lon="9.328000466666861"><ele>344.0</ele><time>2026-04-26T08:51:11.753Z</time></trkpt><trkpt lat="40.858208281934736" lon="9.327731757567946"><ele>345.5</ele><time>2026-04-26T08:51:12.753Z</time></trkpt><trkpt lat="40.85807133096213" lon="9.327487055411368"><ele>347.0</ele><time>2026-04-26T08:51:13.752Z</time></trkpt><trkpt lat="40.857941876284364" lon="9.327243589005766"><ele>348.33333333333337</ele><time>2026-04-26T08:51:14.752Z</time></trkpt><trkpt lat="40.85784763690162" lon="9.326974732992358"><ele>349.6666666666667</ele><time>2026-04-26T08:51:15.752Z</time></trkpt><trkpt lat="40.85778178748704" lon="9.32669380537955"><ele>351.0</ele><time>2026-04-26T08:51:16.752Z</time></trkpt><trkpt lat="40.8577424028454" lon="9.326419786563653"><ele>352.6666666666667</ele><time>2026-04-26T08:51:17.752Z</time></trkpt><trkpt lat="40.85771753340755" lon="9.32613929867561"><ele>354.33333333333337</ele><time>2026-04-26T08:51:18.752Z</time></trkpt><trkpt lat="40.857698234308735" lon="9.325850009563974"><ele>356.0</ele><time>2026-04-26T08:51:19.752Z</time></trkpt><trkpt lat="40.85765843370801" lon="9.325560033597316"><ele>356.33333333333337</ele><time>2026-04-26T08:51:20.752Z</time></trkpt><trkpt lat="40.85760816063979" lon="9.325272172511712"><ele>356.6666666666667</ele><time>2026-04-26T08:51:21.753Z</time></trkpt><trkpt lat="40.85755608878893" lon="9.325008256916368"><ele>357.0</ele><time>2026-04-26T08:51:22.753Z</time></trkpt><trkpt lat="40.85750049516361" lon="9.324783222391444"><ele>358.0</ele><time>2026-04-26T08:51:23.753Z</time></trkpt><trkpt lat="40.857412794841736" lon="9.324612748687747"><ele>359.0</ele><time>2026-04-26T08:51:24.753Z</time></trkpt><trkpt lat="40.857282524175076" lon="9.324496981551604"><ele>360.0</ele><time>2026-04-26T08:51:25.753Z</time></trkpt><trkpt lat="40.85710971958351" lon="9.324492648661211"><ele>360.0</ele><time>2026-04-26T08:51:26.752Z</time></trkpt><trkpt lat="40.85693204134293" lon="9.324556591220482"><ele>360.0</ele><time>2026-04-26T08:51:27.752Z</time></trkpt><trkpt lat="40.85674937615328" lon="9.324674354691059"><ele>360.0</ele><time>2026-04-26T08:51:28.752Z</time></trkpt><trkpt lat="40.85656610562897" lon="9.324785648347643"><ele>359.6666666666667</ele><time>2026-04-26T08:51:29.752Z</time></trkpt><trkpt lat="40.856372631514795" lon="9.324873230060767"><ele>359.33333333333337</ele><time>2026-04-26T08:51:30.752Z</time></trkpt><trkpt lat="40.85616927702708" lon="9.324936531566962"><ele>359.0</ele><time>2026-04-26T08:51:31.752Z</time></trkpt><trkpt lat="40.855958275132615" lon="9.324966079371968"><ele>361.0</ele><time>2026-04-26T08:51:32.752Z</time></trkpt><trkpt lat="40.85574601358876" lon="9.324982055525613"><ele>363.0</ele><time>2026-04-26T08:51:33.752Z</time></trkpt><trkpt lat="40.85553310177211" lon="9.32497716663546"><ele>365.0</ele><time>2026-04-26T08:51:34.752Z</time></trkpt><trkpt lat="40.85533350349994" lon="9.324946441716218"><ele>365.0</ele><time>2026-04-26T08:51:35.752Z</time></trkpt><trkpt lat="40.85514863214054" lon="9.324875821704497"><ele>365.0</ele><time>2026-04-26T08:51:36.752Z</time></trkpt><trkpt lat="40.85496718465346" lon="9.324766484104538"><ele>365.0</ele><time>2026-04-26T08:51:37.752Z</time></trkpt><trkpt lat="40.85478837164128" lon="9.324610531380978"><ele>367.5</ele><time>2026-04-26T08:51:38.752Z</time></trkpt><trkpt lat="40.85461328419364" lon="9.324420174095419"><ele>370.0</ele><time>2026-04-26T08:51:39.752Z</time></trkpt><trkpt lat="40.854446711775864" lon="9.324215650497225"><ele>370.0</ele><time>2026-04-26T08:51:40.752Z</time></trkpt><trkpt lat="40.8542775055218" lon="9.32400110630339"><ele>370.0</ele><time>2026-04-26T08:51:41.752Z</time></trkpt><trkpt lat="40.85411165868074" lon="9.323782100569419"><ele>369.5</ele><time>2026-04-26T08:51:42.752Z</time></trkpt><trkpt lat="40.85394356866205" lon="9.323561540010488"><ele>369.0</ele><time>2026-04-26T08:51:43.752Z</time></trkpt><trkpt lat="40.85376861562181" lon="9.323342895537241"><ele>369.0</ele><time>2026-04-26T08:51:44.752Z</time></trkpt><trkpt lat="40.85359592306382" lon="9.323122863582517"><ele>369.0</ele><time>2026-04-26T08:51:45.752Z</time></trkpt><trkpt lat="40.8534222115701" lon="9.32290921091478"><ele>367.6666666666667</ele><time>2026-04-26T08:51:46.752Z</time></trkpt><trkpt lat="40.85324210832027" lon="9.322723445475319"><ele>366.33333333333337</ele><time>2026-04-26T08:51:47.752Z</time></trkpt><trkpt lat="40.85306031398652" lon="9.3225649819993"><ele>365.0</ele><time>2026-04-26T08:51:48.752Z</time></trkpt><trkpt lat="40.85286632651019" lon="9.322412698687044"><ele>365.0</ele><time>2026-04-26T08:51:49.752Z</time></trkpt><trkpt lat="40.85266880404943" lon="9.322249189178716"><ele>365.0</ele><time>2026-04-26T08:51:50.752Z</time></trkpt><trkpt lat="40.85246960615599" lon="9.322088307041874"><ele>365.0</ele><time>2026-04-26T08:51:51.752Z</time></trkpt><trkpt lat="40.85226884670122" lon="9.321927962715025"><ele>365.0</ele><time>2026-04-26T08:51:52.751Z</time></trkpt><trkpt lat="40.85206356284978" lon="9.321758847733175"><ele>365.0</ele><time>2026-04-26T08:51:53.751Z</time></trkpt><trkpt lat="40.85186082045994" lon="9.321588880609848"><ele>365.0</ele><time>2026-04-26T08:51:54.751Z</time></trkpt><trkpt lat="40.85165351267737" lon="9.32141764283645"><ele>364.0</ele><time>2026-04-26T08:51:55.751Z</time></trkpt><trkpt lat="40.85145935866655" lon="9.321251230625027"><ele>363.0</ele><time>2026-04-26T08:51:56.751Z</time></trkpt><trkpt lat="40.85127237619465" lon="9.321092700666009"><ele>363.0</ele><time>2026-04-26T08:51:57.751Z</time></trkpt><trkpt lat="40.85108448480147" lon="9.320941651754001"><ele>363.0</ele><time>2026-04-26T08:51:58.751Z</time></trkpt><trkpt lat="40.850898657821226" lon="9.32079594177439"><ele>363.0</ele><time>2026-04-26T08:51:59.751Z</time></trkpt><trkpt lat="40.850703850340714" lon="9.320669289463604"><ele>363.3333333333333</ele><time>2026-04-26T08:52:00.751Z</time></trkpt><trkpt lat="40.85050367546408" lon="9.32056161866602"><ele>363.66666666666663</ele><time>2026-04-26T08:52:01.751Z</time></trkpt><trkpt lat="40.85029873789229" lon="9.320460970328316"><ele>364.0</ele><time>2026-04-26T08:52:02.751Z</time></trkpt><trkpt lat="40.85008845917239" lon="9.320359661685115"><ele>365.0</ele><time>2026-04-26T08:52:03.751Z</time></trkpt><trkpt lat="40.84987549588338" lon="9.320260523585272"><ele>366.0</ele><time>2026-04-26T08:52:04.751Z</time></trkpt><trkpt lat="40.84966588677176" lon="9.320159420915719"><ele>367.0</ele><time>2026-04-26T08:52:05.751Z</time></trkpt><trkpt lat="40.84945748328027" lon="9.320056506746026"><ele>367.66666666666663</ele><time>2026-04-26T08:52:06.751Z</time></trkpt><trkpt lat="40.849251046910936" lon="9.319956987061305"><ele>368.3333333333333</ele><time>2026-04-26T08:52:07.751Z</time></trkpt><trkpt lat="40.84904437874802" lon="9.319864106720816"><ele>369.0</ele><time>2026-04-26T08:52:08.751Z</time></trkpt><trkpt lat="40.84884193925596" lon="9.319762530034396"><ele>369.3333333333333</ele><time>2026-04-26T08:52:09.751Z</time></trkpt><trkpt lat="40.84863621257622" lon="9.319668279682501"><ele>369.66666666666663</ele><time>2026-04-26T08:52:10.751Z</time></trkpt><trkpt lat="40.848430789187205" lon="9.319566042156007"><ele>370.0</ele><time>2026-04-26T08:52:11.749Z</time></trkpt><trkpt lat="40.8482264827899" lon="9.319460418463656"><ele>370.0</ele><time>2026-04-26T08:52:12.748Z</time></trkpt><trkpt lat="40.84802464445911" lon="9.319364732343331"><ele>370.0</ele><time>2026-04-26T08:52:13.747Z</time></trkpt><trkpt lat="40.8478260162751" lon="9.319271745184176"><ele>370.0</ele><time>2026-04-26T08:52:14.746Z</time></trkpt><trkpt lat="40.84763097923586" lon="9.319174687762288"><ele>369.3333333333333</ele><time>2026-04-26T08:52:15.745Z</time></trkpt><trkpt lat="40.84743322094844" lon="9.31907686838686"><ele>368.6666666666667</ele><time>2026-04-26T08:52:16.744Z</time></trkpt><trkpt lat="40.84724863712962" lon="9.318981288025338"><ele>368.0</ele><time>2026-04-26T08:52:17.743Z</time></trkpt><trkpt lat="40.847088868578815" lon="9.318863785251088"><ele>367.6666666666667</ele><time>2026-04-26T08:52:18.742Z</time></trkpt><trkpt lat="40.84695208412002" lon="9.31870170595447"><ele>367.3333333333333</ele><time>2026-04-26T08:52:19.741Z</time></trkpt><trkpt lat="40.84684230180998" lon="9.318512237932115"><ele>367.0</ele><time>2026-04-26T08:52:20.74Z</time></trkpt><trkpt lat="40.84676096507844" lon="9.318295944314029"><ele>366.3333333333333</ele><time>2026-04-26T08:52:21.739Z</time></trkpt><trkpt lat="40.84669484354543" lon="9.31806801328598"><ele>365.6666666666667</ele><time>2026-04-26T08:52:22.739Z</time></trkpt><trkpt lat="40.84661029232943" lon="9.317835692355336"><ele>365.0</ele><time>2026-04-26T08:52:23.738Z</time></trkpt><trkpt lat="40.84649280912185" lon="9.317619710471538"><ele>365.0</ele><time>2026-04-26T08:52:24.737Z</time></trkpt><trkpt lat="40.84635409422588" lon="9.317430480818766"><ele>365.0</ele><time>2026-04-26T08:52:25.737Z</time></trkpt><trkpt lat="40.846207818132186" lon="9.317263234115662"><ele>365.0</ele><time>2026-04-26T08:52:26.736Z</time></trkpt><trkpt lat="40.846059249827235" lon="9.317140114797029"><ele>363.6666666666667</ele><time>2026-04-26T08:52:27.736Z</time></trkpt><trkpt lat="40.8458877359677" lon="9.317070973770463"><ele>362.3333333333333</ele><time>2026-04-26T08:52:28.735Z</time></trkpt><trkpt lat="40.845697795243666" lon="9.317069930337233"><ele>361.0</ele><time>2026-04-26T08:52:29.735Z</time></trkpt><trkpt lat="40.845500544465985" lon="9.317116226038058"><ele>361.0</ele><time>2026-04-26T08:52:30.734Z</time></trkpt><trkpt lat="40.84530084007912" lon="9.317158570236746"><ele>361.0</ele><time>2026-04-26T08:52:31.734Z</time></trkpt><trkpt lat="40.845092450630496" lon="9.317191124099674"><ele>361.0</ele><time>2026-04-26T08:52:32.733Z</time></trkpt><trkpt lat="40.84488115075437" lon="9.317224204008127"><ele>360.3333333333333</ele><time>2026-04-26T08:52:33.733Z</time></trkpt><trkpt lat="40.844673016456426" lon="9.317242283080244"><ele>359.6666666666667</ele><time>2026-04-26T08:52:34.733Z</time></trkpt><trkpt lat="40.844461619509" lon="9.317245452890393"><ele>359.0</ele><time>2026-04-26T08:52:35.732Z</time></trkpt><trkpt lat="40.844249334149325" lon="9.31723309341308"><ele>357.6666666666667</ele><time>2026-04-26T08:52:36.732Z</time></trkpt><trkpt lat="40.844040301740925" lon="9.31720856560571"><ele>356.3333333333333</ele><time>2026-04-26T08:52:37.732Z</time></trkpt><trkpt lat="40.84383476547288" lon="9.317176383112137"><ele>355.0</ele><time>2026-04-26T08:52:38.731Z</time></trkpt><trkpt lat="40.84362654759436" lon="9.317149976613125"><ele>354.0</ele><time>2026-04-26T08:52:39.731Z</time></trkpt><trkpt lat="40.843416886866805" lon="9.317125911769793"><ele>353.0</ele><time>2026-04-26T08:52:40.731Z</time></trkpt><trkpt lat="40.843209344163554" lon="9.317101763319517"><ele>352.0</ele><time>2026-04-26T08:52:41.731Z</time></trkpt><trkpt lat="40.842995850903726" lon="9.317081491921327"><ele>352.0</ele><time>2026-04-26T08:52:42.73Z</time></trkpt><trkpt lat="40.842780618994716" lon="9.317060842659634"><ele>352.0</ele><time>2026-04-26T08:52:43.73Z</time></trkpt><trkpt lat="40.84256721940082" lon="9.317036802782317"><ele>352.0</ele><time>2026-04-26T08:52:44.73Z</time></trkpt><trkpt lat="40.84235326997349" lon="9.31700843335392"><ele>351.66666666666663</ele><time>2026-04-26T08:52:45.73Z</time></trkpt><trkpt lat="40.84213908451325" lon="9.316946783698144"><ele>351.3333333333333</ele><time>2026-04-26T08:52:46.73Z</time></trkpt><trkpt lat="40.84193060702477" lon="9.316856930143919"><ele>351.0</ele><time>2026-04-26T08:52:47.729Z</time></trkpt><trkpt lat="40.841733529526955" lon="9.316745237557148"><ele>350.6666666666667</ele><time>2026-04-26T08:52:48.729Z</time></trkpt><trkpt lat="40.84153101376244" lon="9.316616394657423"><ele>350.33333333333337</ele><time>2026-04-26T08:52:49.729Z</time></trkpt><trkpt lat="40.8413251269407" lon="9.316498392601787"><ele>350.0</ele><time>2026-04-26T08:52:50.729Z</time></trkpt><trkpt lat="40.84111568406584" lon="9.316380166593902"><ele>347.0</ele><time>2026-04-26T08:52:51.729Z</time></trkpt><trkpt lat="40.84090748059688" lon="9.316261887550173"><ele>344.0</ele><time>2026-04-26T08:52:52.729Z</time></trkpt><trkpt lat="40.84070063637481" lon="9.316146995979045"><ele>344.0</ele><time>2026-04-26T08:52:53.729Z</time></trkpt><trkpt lat="40.84049286818049" lon="9.316031357358636"><ele>344.0</ele><time>2026-04-26T08:52:54.728Z</time></trkpt><trkpt lat="40.8402925070068" lon="9.315922498419617"><ele>344.0</ele><time>2026-04-26T08:52:55.728Z</time></trkpt><trkpt lat="40.84009651764876" lon="9.315841700133362"><ele>343.6666666666667</ele><time>2026-04-26T08:52:56.728Z</time></trkpt><trkpt lat="40.83989726389057" lon="9.31579805934868"><ele>343.3333333333333</ele><time>2026-04-26T08:52:57.728Z</time></trkpt><trkpt lat="40.839701228985504" lon="9.315751020593465"><ele>343.0</ele><time>2026-04-26T08:52:58.728Z</time></trkpt><trkpt lat="40.8395213290966" lon="9.315653186468502"><ele>340.66666666666663</ele><time>2026-04-26T08:52:59.728Z</time></trkpt><trkpt lat="40.83935723075756" lon="9.31556465065036"><ele>338.3333333333333</ele><time>2026-04-26T08:53:00.728Z</time></trkpt><trkpt lat="40.83918970288386" lon="9.315558564185613"><ele>336.0</ele><time>2026-04-26T08:53:01.728Z</time></trkpt><trkpt lat="40.8390476592058" lon="9.31563144268595"><ele>336.0</ele><time>2026-04-26T08:53:02.728Z</time></trkpt><trkpt lat="40.83892933765755" lon="9.315794958601503"><ele>336.0</ele><time>2026-04-26T08:53:03.728Z</time></trkpt><trkpt lat="40.8388142747935" lon="9.315985660900585"><ele>336.0</ele><time>2026-04-26T08:53:04.727Z</time></trkpt><trkpt lat="40.83867515668221" lon="9.316119653266103"><ele>336.0</ele><time>2026-04-26T08:53:05.727Z</time></trkpt><trkpt lat="40.83851974425047" lon="9.31620661613745"><ele>336.0</ele><time>2026-04-26T08:53:06.727Z</time></trkpt><trkpt lat="40.83834059961917" lon="9.316195963390879"><ele>336.0</ele><time>2026-04-26T08:53:07.727Z</time></trkpt><trkpt lat="40.838156368303984" lon="9.316131524577328"><ele>333.3333333333333</ele><time>2026-04-26T08:53:08.727Z</time></trkpt><trkpt lat="40.837979085666824" lon="9.31602169150218"><ele>330.66666666666663</ele><time>2026-04-26T08:53:09.727Z</time></trkpt><trkpt lat="40.837813247174026" lon="9.315942682560376"><ele>328.0</ele><time>2026-04-26T08:53:10.727Z</time></trkpt><trkpt lat="40.83765575273138" lon="9.315839162122563"><ele>327.3333333333333</ele><time>2026-04-26T08:53:11.727Z</time></trkpt><trkpt lat="40.837502276207225" lon="9.31570653370249"><ele>326.6666666666667</ele><time>2026-04-26T08:53:12.727Z</time></trkpt><trkpt lat="40.83735241670196" lon="9.315530841536132"><ele>326.0</ele><time>2026-04-26T08:53:13.727Z</time></trkpt><trkpt lat="40.837203413317276" lon="9.315340675220538"><ele>325.6666666666667</ele><time>2026-04-26T08:53:14.727Z</time></trkpt><trkpt lat="40.83704880026801" lon="9.31514332465117"><ele>325.3333333333333</ele><time>2026-04-26T08:53:15.727Z</time></trkpt><trkpt lat="40.83688718389558" lon="9.314935578861073"><ele>325.0</ele><time>2026-04-26T08:53:16.727Z</time></trkpt><trkpt lat="40.83672251547764" lon="9.314723435088924"><ele>324.5</ele><time>2026-04-26T08:53:17.727Z</time></trkpt><trkpt lat="40.83656032414416" lon="9.314516857861342"><ele>324.0</ele><time>2026-04-26T08:53:18.727Z</time></trkpt><trkpt lat="40.83639592554725" lon="9.31430746931781"><ele>324.0</ele><time>2026-04-26T08:53:19.728Z</time></trkpt><trkpt lat="40.83623346613284" lon="9.314100550645149"><ele>324.0</ele><time>2026-04-26T08:53:20.728Z</time></trkpt><trkpt lat="40.83607347772087" lon="9.31389522577639"><ele>324.0</ele><time>2026-04-26T08:53:21.727Z</time></trkpt><trkpt lat="40.83592279627761" lon="9.313701543488177"><ele>322.3333333333333</ele><time>2026-04-26T08:53:22.728Z</time></trkpt><trkpt lat="40.835767889078774" lon="9.313523587302894"><ele>320.66666666666663</ele><time>2026-04-26T08:53:23.727Z</time></trkpt><trkpt lat="40.835582000900004" lon="9.313389116970178"><ele>319.0</ele><time>2026-04-26T08:53:24.727Z</time></trkpt><trkpt lat="40.83536065402734" lon="9.313336117183326"><ele>318.0</ele><time>2026-04-26T08:53:25.727Z</time></trkpt><trkpt lat="40.83513704750945" lon="9.313393819931076"><ele>317.0</ele><time>2026-04-26T08:53:26.727Z</time></trkpt><trkpt lat="40.83495195575114" lon="9.313528372414634"><ele>316.0</ele><time>2026-04-26T08:53:27.727Z</time></trkpt><trkpt lat="40.83482289526736" lon="9.31371050758334"><ele>316.0</ele><time>2026-04-26T08:53:28.727Z</time></trkpt><trkpt lat="40.83470913077566" lon="9.313888741934456"><ele>316.0</ele><time>2026-04-26T08:53:29.727Z</time></trkpt><trkpt lat="40.83457906631362" lon="9.314097636404913"><ele>316.0</ele><time>2026-04-26T08:53:30.727Z</time></trkpt><trkpt lat="40.834443732209266" lon="9.314301393731666"><ele>317.0</ele><time>2026-04-26T08:53:31.727Z</time></trkpt><trkpt lat="40.83431008361837" lon="9.314519258606918"><ele>318.0</ele><time>2026-04-26T08:53:32.727Z</time></trkpt><trkpt lat="40.83418410862177" lon="9.314736716066102"><ele>319.0</ele><time>2026-04-26T08:53:33.726Z</time></trkpt><trkpt lat="40.83405920683625" lon="9.314932644145411"><ele>317.0</ele><time>2026-04-26T08:53:34.726Z</time></trkpt><trkpt lat="40.8339176001874" lon="9.315158685013875"><ele>315.0</ele><time>2026-04-26T08:53:35.726Z</time></trkpt><trkpt lat="40.83377308276347" lon="9.315389960270887"><ele>313.0</ele><time>2026-04-26T08:53:36.726Z</time></trkpt><trkpt lat="40.833628264104526" lon="9.315617263078737"><ele>312.5</ele><time>2026-04-26T08:53:37.726Z</time></trkpt><trkpt lat="40.83348566474534" lon="9.315845222639593"><ele>312.0</ele><time>2026-04-26T08:53:38.726Z</time></trkpt><trkpt lat="40.83332318278201" lon="9.316070529890057"><ele>310.5</ele><time>2026-04-26T08:53:39.726Z</time></trkpt><trkpt lat="40.83318719946328" lon="9.316318127504193"><ele>309.0</ele><time>2026-04-26T08:53:40.726Z</time></trkpt><trkpt lat="40.83303586293292" lon="9.316557548714703"><ele>307.0</ele><time>2026-04-26T08:53:41.726Z</time></trkpt><trkpt lat="40.83288506687251" lon="9.31679332611601"><ele>305.0</ele><time>2026-04-26T08:53:42.726Z</time></trkpt><trkpt lat="40.83273465089237" lon="9.317026427027999"><ele>303.0</ele><time>2026-04-26T08:53:43.726Z</time></trkpt><trkpt lat="40.83258076282764" lon="9.317254455023471"><ele>301.0</ele><time>2026-04-26T08:53:44.726Z</time></trkpt><trkpt lat="40.83228257029459" lon="9.317720116840315"><ele>301.0</ele><time>2026-04-26T08:53:46.726Z</time></trkpt><trkpt lat="40.83214026891583" lon="9.317946715112821"><ele>301.0</ele><time>2026-04-26T08:53:47.726Z</time></trkpt><trkpt lat="40.83199406831139" lon="9.318170905002725"><ele>301.0</ele><time>2026-04-26T08:53:48.726Z</time></trkpt><trkpt lat="40.83185007115201" lon="9.31839771593223"><ele>298.5</ele><time>2026-04-26T08:53:49.726Z</time></trkpt><trkpt lat="40.83170348052495" lon="9.318622191556297"><ele>296.0</ele><time>2026-04-26T08:53:50.726Z</time></trkpt><trkpt lat="40.8315562147332" lon="9.318850080416695"><ele>295.33333333333337</ele><time>2026-04-26T08:53:51.726Z</time></trkpt><trkpt lat="40.83141384677215" lon="9.319070951205376"><ele>294.6666666666667</ele><time>2026-04-26T08:53:52.726Z</time></trkpt><trkpt lat="40.83126930866459" lon="9.319297758328542"><ele>294.0</ele><time>2026-04-26T08:53:53.726Z</time></trkpt><trkpt lat="40.83112610453913" lon="9.31952521398969"><ele>293.6666666666667</ele><time>2026-04-26T08:53:54.726Z</time></trkpt><trkpt lat="40.830982532976066" lon="9.319750421949802"><ele>293.33333333333337</ele><time>2026-04-26T08:53:55.726Z</time></trkpt><trkpt lat="40.83084221440563" lon="9.319971419572322"><ele>293.0</ele><time>2026-04-26T08:53:56.725Z</time></trkpt><trkpt lat="40.83070006011534" lon="9.320184589831651"><ele>293.0</ele><time>2026-04-26T08:53:57.725Z</time></trkpt><trkpt lat="40.83054376513642" lon="9.320364024722613"><ele>293.0</ele><time>2026-04-26T08:53:58.725Z</time></trkpt><trkpt lat="40.83036640330407" lon="9.32047812727368"><ele>293.0</ele><time>2026-04-26T08:53:59.725Z</time></trkpt><trkpt lat="40.830176368279304" lon="9.32051926936815"><ele>293.33333333333337</ele><time>2026-04-26T08:54:00.725Z</time></trkpt><trkpt lat="40.829984325838076" lon="9.320505848324686"><ele>293.6666666666667</ele><time>2026-04-26T08:54:01.725Z</time></trkpt><trkpt lat="40.829815986026226" lon="9.320477286193965"><ele>294.0</ele><time>2026-04-26T08:54:02.725Z</time></trkpt><trkpt lat="40.82965651142091" lon="9.32047308708657"><ele>294.0</ele><time>2026-04-26T08:54:03.725Z</time></trkpt><trkpt lat="40.82951453141586" lon="9.320480710962023"><ele>294.0</ele><time>2026-04-26T08:54:04.725Z</time></trkpt><trkpt lat="40.829382741416275" lon="9.320501162991228"><ele>294.0</ele><time>2026-04-26T08:54:05.725Z</time></trkpt><trkpt lat="40.829273226270786" lon="9.320529607596898"><ele>294.0</ele><time>2026-04-26T08:54:06.725Z</time></trkpt><trkpt lat="40.82917803892089" lon="9.320557825930539"><ele>293.8</ele><time>2026-04-26T08:54:07.725Z</time></trkpt><trkpt lat="40.82907951549024" lon="9.320570918119751"><ele>293.59999999999997</ele><time>2026-04-26T08:54:09.725Z</time></trkpt><trkpt lat="40.82900309201338" lon="9.32059132112228"><ele>293.4</ele><time>2026-04-26T08:54:11.725Z</time></trkpt><trkpt lat="40.828925314178264" lon="9.320614627426645"><ele>293.2</ele><time>2026-04-26T08:54:14.725Z</time></trkpt><trkpt lat="40.82880932053575" lon="9.32064580753183"><ele>293.0</ele><time>2026-04-26T08:54:16.725Z</time></trkpt><trkpt lat="40.828733154859805" lon="9.320665227545584"><ele>293.0</ele><time>2026-04-26T08:54:17.725Z</time></trkpt><trkpt lat="40.82863855801352" lon="9.320689242435483"><ele>293.0</ele><time>2026-04-26T08:54:18.725Z</time></trkpt><trkpt lat="40.82853618518302" lon="9.320718481465907"><ele>293.0</ele><time>2026-04-26T08:54:19.724Z</time></trkpt><trkpt lat="40.82843995993125" lon="9.320747129530867"><ele>293.0</ele><time>2026-04-26T08:54:20.724Z</time></trkpt><trkpt lat="40.82833822328562" lon="9.320778390431446"><ele>293.0</ele><time>2026-04-26T08:54:21.724Z</time></trkpt><trkpt lat="40.828227947298544" lon="9.320812275229729"><ele>292.25</ele><time>2026-04-26T08:54:22.724Z</time></trkpt><trkpt lat="40.8281149269611" lon="9.32084751862808"><ele>291.5</ele><time>2026-04-26T08:54:23.724Z</time></trkpt><trkpt lat="40.827999785810334" lon="9.320883470794048"><ele>290.75</ele><time>2026-04-26T08:54:24.724Z</time></trkpt><trkpt lat="40.827885052541454" lon="9.320919683601675"><ele>290.0</ele><time>2026-04-26T08:54:25.724Z</time></trkpt><trkpt lat="40.82778362406197" lon="9.320971236067157"><ele>290.0</ele><time>2026-04-26T08:54:26.724Z</time></trkpt><trkpt lat="40.827681073406225" lon="9.320994906421857"><ele>290.0</ele><time>2026-04-26T08:54:27.724Z</time></trkpt><trkpt lat="40.82757973628072" lon="9.321013686983875"><ele>290.0</ele><time>2026-04-26T08:54:28.724Z</time></trkpt><trkpt lat="40.82747937857631" lon="9.321016956384206"><ele>290.0</ele><time>2026-04-26T08:54:29.724Z</time></trkpt><trkpt lat="40.827386778893626" lon="9.32100428166914"><ele>290.0</ele><time>2026-04-26T08:54:30.724Z</time></trkpt><trkpt lat="40.82730062098625" lon="9.320964653687478"><ele>289.33333333333337</ele><time>2026-04-26T08:54:31.724Z</time></trkpt><trkpt lat="40.827231681496116" lon="9.320898676505985"><ele>288.6666666666667</ele><time>2026-04-26T08:54:32.724Z</time></trkpt><trkpt lat="40.827161419634756" lon="9.320852895994136"><ele>288.0</ele><time>2026-04-26T08:54:33.724Z</time></trkpt><trkpt lat="40.827082426994586" lon="9.320853485191705"><ele>287.3333333333333</ele><time>2026-04-26T08:54:34.724Z</time></trkpt><trkpt lat="40.82701050165985" lon="9.32089144488577"><ele>286.66666666666663</ele><time>2026-04-26T08:54:35.724Z</time></trkpt><trkpt lat="40.826959992278795" lon="9.32098248128948"><ele>286.0</ele><time>2026-04-26T08:54:36.724Z</time></trkpt><trkpt lat="40.826937292390355" lon="9.321098385612684"><ele>286.0</ele><time>2026-04-26T08:54:37.724Z</time></trkpt><trkpt lat="40.82693017059724" lon="9.321219305426583"><ele>286.0</ele><time>2026-04-26T08:54:38.724Z</time></trkpt><trkpt lat="40.82689219369569" lon="9.321331070340813"><ele>286.0</ele><time>2026-04-26T08:54:39.724Z</time></trkpt><trkpt lat="40.82682927499636" lon="9.321429539213778"><ele>286.0</ele><time>2026-04-26T08:54:40.724Z</time></trkpt><trkpt lat="40.82675072724318" lon="9.321531255446338"><ele>286.0</ele><time>2026-04-26T08:54:41.724Z</time></trkpt><trkpt lat="40.82665611980263" lon="9.321626064415536"><ele>286.0</ele><time>2026-04-26T08:54:42.724Z</time></trkpt><trkpt lat="40.82655125372105" lon="9.321713725437938"><ele>286.0</ele><time>2026-04-26T08:54:43.723Z</time></trkpt><trkpt lat="40.82643373112758" lon="9.321798814210503"><ele>286.0</ele><time>2026-04-26T08:54:44.723Z</time></trkpt><trkpt lat="40.826305670732616" lon="9.321869712734577"><ele>286.0</ele><time>2026-04-26T08:54:45.723Z</time></trkpt><trkpt lat="40.82616968597571" lon="9.321928560162073"><ele>286.0</ele><time>2026-04-26T08:54:46.723Z</time></trkpt><trkpt lat="40.826028713183696" lon="9.321982761829812"><ele>286.0</ele><time>2026-04-26T08:54:47.723Z</time></trkpt><trkpt lat="40.82588731690354" lon="9.322038483344498"><ele>286.0</ele><time>2026-04-26T08:54:48.723Z</time></trkpt><trkpt lat="40.8257500806939" lon="9.322098421274113"><ele>286.0</ele><time>2026-04-26T08:54:49.723Z</time></trkpt><trkpt lat="40.82561658362618" lon="9.322157342010575"><ele>286.2</ele><time>2026-04-26T08:54:50.723Z</time></trkpt><trkpt lat="40.825485809929006" lon="9.322213298738856"><ele>286.40000000000003</ele><time>2026-04-26T08:54:51.723Z</time></trkpt><trkpt lat="40.825360702637745" lon="9.322242736769038"><ele>286.6</ele><time>2026-04-26T08:54:52.723Z</time></trkpt><trkpt lat="40.82527717547769" lon="9.322286888764657"><ele>286.8</ele><time>2026-04-26T08:54:53.723Z</time></trkpt><trkpt lat="40.825190752536095" lon="9.322301552888057"><ele>287.0</ele><time>2026-04-26T08:54:54.723Z</time></trkpt><trkpt lat="40.82512214867981" lon="9.322289472430702"><ele>288.2</ele><time>2026-04-26T08:54:55.723Z</time></trkpt><trkpt lat="40.82504102787882" lon="9.3222435066173"><ele>289.4</ele><time>2026-04-26T08:54:56.723Z</time></trkpt><trkpt lat="40.8249663883187" lon="9.32216856618931"><ele>290.6</ele><time>2026-04-26T08:54:57.723Z</time></trkpt><trkpt lat="40.824891325088004" lon="9.322087312269737"><ele>291.8</ele><time>2026-04-26T08:54:58.723Z</time></trkpt><trkpt lat="40.82481978120307" lon="9.321985358303078"><ele>293.0</ele><time>2026-04-26T08:54:59.723Z</time></trkpt><trkpt lat="40.82476788916235" lon="9.321848073463936"><ele>293.0</ele><time>2026-04-26T08:55:00.723Z</time></trkpt><trkpt lat="40.8247328225112" lon="9.32167922960257"><ele>293.0</ele><time>2026-04-26T08:55:01.723Z</time></trkpt><trkpt lat="40.82475167637438" lon="9.321486688032623"><ele>293.0</ele><time>2026-04-26T08:55:02.723Z</time></trkpt><trkpt lat="40.82471588197122" lon="9.321290090085913"><ele>293.0</ele><time>2026-04-26T08:55:03.723Z</time></trkpt><trkpt lat="40.82466376325813" lon="9.321098826742867"><ele>292.33333333333337</ele><time>2026-04-26T08:55:04.723Z</time></trkpt><trkpt lat="40.82460548610063" lon="9.320903664684602"><ele>291.6666666666667</ele><time>2026-04-26T08:55:05.723Z</time></trkpt><trkpt lat="40.82454289747152" lon="9.320703869698788"><ele>291.0</ele><time>2026-04-26T08:55:06.723Z</time></trkpt><trkpt lat="40.824480320539465" lon="9.320501044988678"><ele>290.0</ele><time>2026-04-26T08:55:07.722Z</time></trkpt><trkpt lat="40.82441545404149" lon="9.320290969845031"><ele>289.0</ele><time>2026-04-26T08:55:08.722Z</time></trkpt><trkpt lat="40.82434737573184" lon="9.320077982709854"><ele>288.0</ele><time>2026-04-26T08:55:09.722Z</time></trkpt><trkpt lat="40.824262905634825" lon="9.319866236582344"><ele>292.0</ele><time>2026-04-26T08:55:10.722Z</time></trkpt><trkpt lat="40.824189619921206" lon="9.319652945613202"><ele>296.0</ele><time>2026-04-26T08:55:11.722Z</time></trkpt><trkpt lat="40.82411951992146" lon="9.319439809130852"><ele>300.0</ele><time>2026-04-26T08:55:12.722Z</time></trkpt><trkpt lat="40.82404892932963" lon="9.319231692894968"><ele>300.0</ele><time>2026-04-26T08:55:13.722Z</time></trkpt><trkpt lat="40.8239809480772" lon="9.319030699982351"><ele>300.0</ele><time>2026-04-26T08:55:14.722Z</time></trkpt><trkpt lat="40.823908813001694" lon="9.318840524417224"><ele>300.0</ele><time>2026-04-26T08:55:15.722Z</time></trkpt><trkpt lat="40.823812543909824" lon="9.318689844102819"><ele>301.3333333333333</ele><time>2026-04-26T08:55:16.722Z</time></trkpt><trkpt lat="40.82368309708928" lon="9.318590222516935"><ele>302.66666666666663</ele><time>2026-04-26T08:55:17.722Z</time></trkpt><trkpt lat="40.82353198150009" lon="9.318554217058042"><ele>304.0</ele><time>2026-04-26T08:55:18.722Z</time></trkpt><trkpt lat="40.823371930855245" lon="9.318590418773809"><ele>304.0</ele><time>2026-04-26T08:55:19.722Z</time></trkpt><trkpt lat="40.82321466703485" lon="9.318664799654538"><ele>304.0</ele><time>2026-04-26T08:55:20.722Z</time></trkpt><trkpt lat="40.823051826437826" lon="9.318753168069748"><ele>304.0</ele><time>2026-04-26T08:55:21.724Z</time></trkpt><trkpt lat="40.82289548495389" lon="9.31883137691055"><ele>305.3333333333333</ele><time>2026-04-26T08:55:22.724Z</time></trkpt><trkpt lat="40.822731600563614" lon="9.318904234461305"><ele>306.6666666666667</ele><time>2026-04-26T08:55:23.724Z</time></trkpt><trkpt lat="40.82256827697603" lon="9.318977531901458"><ele>308.0</ele><time>2026-04-26T08:55:24.724Z</time></trkpt><trkpt lat="40.82240085322645" lon="9.319049851457848"><ele>308.6666666666667</ele><time>2026-04-26T08:55:25.724Z</time></trkpt><trkpt lat="40.82223125985318" lon="9.31912304967635"><ele>309.3333333333333</ele><time>2026-04-26T08:55:26.724Z</time></trkpt><trkpt lat="40.82206381699959" lon="9.319197135292834"><ele>310.0</ele><time>2026-04-26T08:55:27.724Z</time></trkpt><trkpt lat="40.82188998463246" lon="9.319272528140939"><ele>311.3333333333333</ele><time>2026-04-26T08:55:28.723Z</time></trkpt><trkpt lat="40.821711632608505" lon="9.319353910169292"><ele>312.6666666666667</ele><time>2026-04-26T08:55:29.723Z</time></trkpt><trkpt lat="40.821525170162055" lon="9.31942126643503"><ele>314.0</ele><time>2026-04-26T08:55:30.723Z</time></trkpt><trkpt lat="40.82133089850857" lon="9.31944885569497"><ele>314.0</ele><time>2026-04-26T08:55:31.724Z</time></trkpt><trkpt lat="40.82113399727412" lon="9.319433941598582"><ele>314.0</ele><time>2026-04-26T08:55:32.723Z</time></trkpt><trkpt lat="40.82093741804552" lon="9.319384786459565"><ele>314.0</ele><time>2026-04-26T08:55:33.724Z</time></trkpt><trkpt lat="40.82074368281085" lon="9.31931049729861"><ele>315.33333333333337</ele><time>2026-04-26T08:55:34.723Z</time></trkpt><trkpt lat="40.82055056976786" lon="9.319226017063091"><ele>316.6666666666667</ele><time>2026-04-26T08:55:35.723Z</time></trkpt><trkpt lat="40.82035601227236" lon="9.319136270351782"><ele>318.0</ele><time>2026-04-26T08:55:36.723Z</time></trkpt><trkpt lat="40.820157503014464" lon="9.319050815233163"><ele>317.6666666666667</ele><time>2026-04-26T08:55:37.723Z</time></trkpt><trkpt lat="40.81995881699539" lon="9.318969060969565"><ele>317.33333333333337</ele><time>2026-04-26T08:55:38.723Z</time></trkpt><trkpt lat="40.81976032322475" lon="9.318888890497863"><ele>317.0</ele><time>2026-04-26T08:55:39.723Z</time></trkpt><trkpt lat="40.81956150696814" lon="9.318824906812969"><ele>317.0</ele><time>2026-04-26T08:55:40.723Z</time></trkpt><trkpt lat="40.81935496869896" lon="9.318798458661302"><ele>317.0</ele><time>2026-04-26T08:55:41.723Z</time></trkpt><trkpt lat="40.81915385178301" lon="9.31878372867974"><ele>317.0</ele><time>2026-04-26T08:55:42.723Z</time></trkpt><trkpt lat="40.818950158786585" lon="9.318773641105652"><ele>317.6666666666667</ele><time>2026-04-26T08:55:43.723Z</time></trkpt><trkpt lat="40.818742948290485" lon="9.31876513309063"><ele>318.3333333333333</ele><time>2026-04-26T08:55:44.723Z</time></trkpt><trkpt lat="40.818536659592375" lon="9.318754429933612"><ele>319.0</ele><time>2026-04-26T08:55:45.722Z</time></trkpt><trkpt lat="40.81833037135488" lon="9.318748648743117"><ele>319.66666666666663</ele><time>2026-04-26T08:55:46.722Z</time></trkpt><trkpt lat="40.81812509002586" lon="9.31873725565386"><ele>320.3333333333333</ele><time>2026-04-26T08:55:47.722Z</time></trkpt><trkpt lat="40.81791414149871" lon="9.318728872413606"><ele>321.0</ele><time>2026-04-26T08:55:48.722Z</time></trkpt><trkpt lat="40.8177043136859" lon="9.3187147695424"><ele>321.0</ele><time>2026-04-26T08:55:49.722Z</time></trkpt><trkpt lat="40.81749947149413" lon="9.318700739697352"><ele>321.0</ele><time>2026-04-26T08:55:50.722Z</time></trkpt><trkpt lat="40.81729745640158" lon="9.318685150496284"><ele>321.0</ele><time>2026-04-26T08:55:51.722Z</time></trkpt><trkpt lat="40.817099782447" lon="9.318672436132426"><ele>321.0</ele><time>2026-04-26T08:55:52.722Z</time></trkpt><trkpt lat="40.81690332269464" lon="9.318668591879055"><ele>321.0</ele><time>2026-04-26T08:55:53.722Z</time></trkpt><trkpt lat="40.816715997018775" lon="9.31867919440821"><ele>321.0</ele><time>2026-04-26T08:55:54.722Z</time></trkpt><trkpt lat="40.81654385769632" lon="9.318735941278867"><ele>319.0</ele><time>2026-04-26T08:55:55.722Z</time></trkpt><trkpt lat="40.81640158108641" lon="9.318847243569875"><ele>317.0</ele><time>2026-04-26T08:55:56.722Z</time></trkpt><trkpt lat="40.81627707176943" lon="9.318996445502211"><ele>315.0</ele><time>2026-04-26T08:55:57.722Z</time></trkpt><trkpt lat="40.816170849057585" lon="9.319188303803404"><ele>315.0</ele><time>2026-04-26T08:55:58.722Z</time></trkpt><trkpt lat="40.81608292638382" lon="9.319399358250818"><ele>315.0</ele><time>2026-04-26T08:55:59.722Z</time></trkpt><trkpt lat="40.81601787067717" lon="9.319628504517164"><ele>315.0</ele><time>2026-04-26T08:56:00.722Z</time></trkpt><trkpt lat="40.81599072786496" lon="9.319865160485902"><ele>315.6666666666667</ele><time>2026-04-26T08:56:01.722Z</time></trkpt><trkpt lat="40.8160004639076" lon="9.32008857535779"><ele>316.33333333333337</ele><time>2026-04-26T08:56:02.722Z</time></trkpt><trkpt lat="40.816067878087935" lon="9.32027619812352"><ele>317.0</ele><time>2026-04-26T08:56:03.722Z</time></trkpt><trkpt lat="40.816153127111455" lon="9.320444799753892"><ele>315.25</ele><time>2026-04-26T08:56:04.722Z</time></trkpt><trkpt lat="40.81622184465505" lon="9.320621912007496"><ele>313.5</ele><time>2026-04-26T08:56:05.722Z</time></trkpt><trkpt lat="40.816247098711166" lon="9.320813095369115"><ele>311.75</ele><time>2026-04-26T08:56:06.722Z</time></trkpt><trkpt lat="40.81622085235505" lon="9.321002189679357"><ele>310.0</ele><time>2026-04-26T08:56:07.722Z</time></trkpt><trkpt lat="40.816149808696565" lon="9.321186479217497"><ele>310.0</ele><time>2026-04-26T08:56:08.722Z</time></trkpt><trkpt lat="40.816041174091836" lon="9.321358300771172"><ele>310.0</ele><time>2026-04-26T08:56:09.721Z</time></trkpt><trkpt lat="40.815920690563225" lon="9.32152006911343"><ele>310.0</ele><time>2026-04-26T08:56:10.721Z</time></trkpt><trkpt lat="40.815785146743174" lon="9.321646950317621"><ele>307.0</ele><time>2026-04-26T08:56:11.721Z</time></trkpt><trkpt lat="40.815634058133575" lon="9.321716199562427"><ele>304.0</ele><time>2026-04-26T08:56:12.721Z</time></trkpt><trkpt lat="40.81547491408672" lon="9.321728453724075"><ele>301.0</ele><time>2026-04-26T08:56:13.721Z</time></trkpt><trkpt lat="40.81532711911948" lon="9.321675262209263"><ele>301.0</ele><time>2026-04-26T08:56:14.721Z</time></trkpt><trkpt lat="40.815190937226255" lon="9.32156355643109"><ele>301.0</ele><time>2026-04-26T08:56:15.721Z</time></trkpt><trkpt lat="40.81505923151408" lon="9.321425304919877"><ele>301.0</ele><time>2026-04-26T08:56:16.721Z</time></trkpt><trkpt lat="40.81491910130535" lon="9.321284876505288"><ele>299.0</ele><time>2026-04-26T08:56:17.721Z</time></trkpt><trkpt lat="40.81477706433586" lon="9.321138977350978"><ele>297.0</ele><time>2026-04-26T08:56:18.721Z</time></trkpt><trkpt lat="40.814625635139635" lon="9.32098926758226"><ele>295.0</ele><time>2026-04-26T08:56:19.721Z</time></trkpt><trkpt lat="40.814465254804006" lon="9.320842365090297"><ele>294.66666666666663</ele><time>2026-04-26T08:56:20.721Z</time></trkpt><trkpt lat="40.8143065339322" lon="9.320681483535651"><ele>294.3333333333333</ele><time>2026-04-26T08:56:21.721Z</time></trkpt><trkpt lat="40.81415792343553" lon="9.320527080967368"><ele>294.0</ele><time>2026-04-26T08:56:22.721Z</time></trkpt><trkpt lat="40.81401646044362" lon="9.320395226749342"><ele>294.0</ele><time>2026-04-26T08:56:23.721Z</time></trkpt><trkpt lat="40.81387715781869" lon="9.320276141915574"><ele>294.0</ele><time>2026-04-26T08:56:24.721Z</time></trkpt><trkpt lat="40.81372460939562" lon="9.32020678582552"><ele>294.0</ele><time>2026-04-26T08:56:25.721Z</time></trkpt><trkpt lat="40.8135720309194" lon="9.320210566673325"><ele>292.6666666666667</ele><time>2026-04-26T08:56:26.721Z</time></trkpt><trkpt lat="40.81341151688285" lon="9.320274317758793"><ele>291.33333333333337</ele><time>2026-04-26T08:56:27.721Z</time></trkpt><trkpt lat="40.81325972146715" lon="9.320369441963246"><ele>290.0</ele><time>2026-04-26T08:56:28.721Z</time></trkpt><trkpt lat="40.81311026748902" lon="9.320492549147797"><ele>289.6666666666667</ele><time>2026-04-26T08:56:29.721Z</time></trkpt><trkpt lat="40.812962803220884" lon="9.3206601545564"><ele>289.3333333333333</ele><time>2026-04-26T08:56:30.721Z</time></trkpt><trkpt lat="40.81280954130009" lon="9.320819335915994"><ele>289.0</ele><time>2026-04-26T08:56:31.721Z</time></trkpt><trkpt lat="40.81265025633337" lon="9.320987746100274"><ele>289.0</ele><time>2026-04-26T08:56:32.721Z</time></trkpt><trkpt lat="40.812485693674596" lon="9.321141472801013"><ele>289.0</ele><time>2026-04-26T08:56:33.72Z</time></trkpt><trkpt lat="40.81232504159066" lon="9.321293833157936"><ele>289.0</ele><time>2026-04-26T08:56:34.72Z</time></trkpt><trkpt lat="40.812166100356066" lon="9.32144422644714"><ele>288.66666666666663</ele><time>2026-04-26T08:56:35.72Z</time></trkpt><trkpt lat="40.812008466131324" lon="9.32159253367613"><ele>288.3333333333333</ele><time>2026-04-26T08:56:36.72Z</time></trkpt><trkpt lat="40.81185272176577" lon="9.32173980466847"><ele>288.0</ele><time>2026-04-26T08:56:37.72Z</time></trkpt><trkpt lat="40.811691585664214" lon="9.321885374424031"><ele>288.0</ele><time>2026-04-26T08:56:38.72Z</time></trkpt><trkpt lat="40.811537879588265" lon="9.322031672371118"><ele>288.0</ele><time>2026-04-26T08:56:39.72Z</time></trkpt><trkpt lat="40.811385674443265" lon="9.322182494352369"><ele>288.0</ele><time>2026-04-26T08:56:40.72Z</time></trkpt><trkpt lat="40.81123935815666" lon="9.322325444738679"><ele>288.0</ele><time>2026-04-26T08:56:41.72Z</time></trkpt><trkpt lat="40.8110891821515" lon="9.322470338852751"><ele>288.0</ele><time>2026-04-26T08:56:42.72Z</time></trkpt><trkpt lat="40.810940842035215" lon="9.322616203513943"><ele>288.0</ele><time>2026-04-26T08:56:43.72Z</time></trkpt><trkpt lat="40.81079286399552" lon="9.322758110035712"><ele>288.0</ele><time>2026-04-26T08:56:44.72Z</time></trkpt><trkpt lat="40.81065345784244" lon="9.322899003932418"><ele>288.0</ele><time>2026-04-26T08:56:45.72Z</time></trkpt><trkpt lat="40.81052510994598" lon="9.3230292444002"><ele>288.0</ele><time>2026-04-26T08:56:46.72Z</time></trkpt><trkpt lat="40.81039655086785" lon="9.323159237380583"><ele>288.3333333333333</ele><time>2026-04-26T08:56:47.72Z</time></trkpt><trkpt lat="40.81025880984993" lon="9.323273270695461"><ele>288.66666666666663</ele><time>2026-04-26T08:56:48.72Z</time></trkpt><trkpt lat="40.81012888364689" lon="9.323397126914516"><ele>289.0</ele><time>2026-04-26T08:56:49.72Z</time></trkpt><trkpt lat="40.810001665480506" lon="9.323518401447616"><ele>289.66666666666663</ele><time>2026-04-26T08:56:50.72Z</time></trkpt><trkpt lat="40.80987327499804" lon="9.323640793708853"><ele>290.3333333333333</ele><time>2026-04-26T08:56:51.72Z</time></trkpt><trkpt lat="40.8097488363777" lon="9.323781381059884"><ele>291.0</ele><time>2026-04-26T08:56:52.72Z</time></trkpt><trkpt lat="40.809616402719115" lon="9.323906472390657"><ele>291.0</ele><time>2026-04-26T08:56:53.72Z</time></trkpt><trkpt lat="40.80948567014893" lon="9.324030337154673"><ele>291.0</ele><time>2026-04-26T08:56:54.72Z</time></trkpt><trkpt lat="40.80935429067123" lon="9.324151949322228"><ele>291.0</ele><time>2026-04-26T08:56:55.72Z</time></trkpt><trkpt lat="40.809222497905154" lon="9.324278153541757"><ele>289.3333333333333</ele><time>2026-04-26T08:56:56.72Z</time></trkpt><trkpt lat="40.80909077835345" lon="9.32440086363063"><ele>287.66666666666663</ele><time>2026-04-26T08:56:57.719Z</time></trkpt><trkpt lat="40.808960310945004" lon="9.324529903778012"><ele>286.0</ele><time>2026-04-26T08:56:58.719Z</time></trkpt><trkpt lat="40.80883179599614" lon="9.32465491209363"><ele>286.0</ele><time>2026-04-26T08:56:59.719Z</time></trkpt><trkpt lat="40.80870635040606" lon="9.32477827911257"><ele>286.0</ele><time>2026-04-26T08:57:00.719Z</time></trkpt><trkpt lat="40.80858634914717" lon="9.324894876932289"><ele>286.0</ele><time>2026-04-26T08:57:01.719Z</time></trkpt><trkpt lat="40.808460917547144" lon="9.324991963313074"><ele>286.0</ele><time>2026-04-26T08:57:02.719Z</time></trkpt><trkpt lat="40.80835770112574" lon="9.325116665590919"><ele>286.0</ele><time>2026-04-26T08:57:03.719Z</time></trkpt><trkpt lat="40.8082482233543" lon="9.325216457864686"><ele>286.0</ele><time>2026-04-26T08:57:04.719Z</time></trkpt><trkpt lat="40.808142744380916" lon="9.32530381011322"><ele>286.0</ele><time>2026-04-26T08:57:05.719Z</time></trkpt><trkpt lat="40.808040246523035" lon="9.325382227179325"><ele>286.0</ele><time>2026-04-26T08:57:06.719Z</time></trkpt><trkpt lat="40.80794045667497" lon="9.32544627272774"><ele>286.0</ele><time>2026-04-26T08:57:07.719Z</time></trkpt><trkpt lat="40.807842550986464" lon="9.32550341840218"><ele>286.0</ele><time>2026-04-26T08:57:08.719Z</time></trkpt><trkpt lat="40.80774377087189" lon="9.325546700947372"><ele>286.0</ele><time>2026-04-26T08:57:09.719Z</time></trkpt><trkpt lat="40.80763247694894" lon="9.325555803682757"><ele>286.0</ele><time>2026-04-26T08:57:10.719Z</time></trkpt><trkpt lat="40.807523043314" lon="9.3255694374432"><ele>286.0</ele><time>2026-04-26T08:57:11.719Z</time></trkpt><trkpt lat="40.80741706431312" lon="9.325571975605877"><ele>286.0</ele><time>2026-04-26T08:57:12.719Z</time></trkpt><trkpt lat="40.807309146743854" lon="9.32556445357148"><ele>286.0</ele><time>2026-04-26T08:57:13.719Z</time></trkpt><trkpt lat="40.80720498181106" lon="9.325540052742507"><ele>286.0</ele><time>2026-04-26T08:57:14.719Z</time></trkpt><trkpt lat="40.80710185579097" lon="9.325503985763776"><ele>286.0</ele><time>2026-04-26T08:57:15.719Z</time></trkpt><trkpt lat="40.80699942208578" lon="9.325455302899035"><ele>286.0</ele><time>2026-04-26T08:57:16.719Z</time></trkpt><trkpt lat="40.806905212762125" lon="9.325393026194659"><ele>286.0</ele><time>2026-04-26T08:57:17.719Z</time></trkpt><trkpt lat="40.80681291468976" lon="9.325318882734571"><ele>286.0</ele><time>2026-04-26T08:57:18.719Z</time></trkpt><trkpt lat="40.8067125918254" lon="9.32525992433954"><ele>286.0</ele><time>2026-04-26T08:57:19.719Z</time></trkpt><trkpt lat="40.8066215206456" lon="9.325178797373031"><ele>286.0</ele><time>2026-04-26T08:57:20.719Z</time></trkpt><trkpt lat="40.80653688632883" lon="9.325085957756635"><ele>286.6</ele><time>2026-04-26T08:57:21.718Z</time></trkpt><trkpt lat="40.80644495917573" lon="9.325007447033322"><ele>287.20000000000005</ele><time>2026-04-26T08:57:22.718Z</time></trkpt><trkpt lat="40.80635444551101" lon="9.324929786761828"><ele>287.79999999999995</ele><time>2026-04-26T08:57:23.718Z</time></trkpt><trkpt lat="40.806266440401934" lon="9.32485284206264"><ele>288.4</ele><time>2026-04-26T08:57:24.718Z</time></trkpt><trkpt lat="40.806179402831944" lon="9.3247745600314"><ele>289.0</ele><time>2026-04-26T08:57:25.718Z</time></trkpt><trkpt lat="40.80609154225955" lon="9.324691554589453"><ele>289.0</ele><time>2026-04-26T08:57:26.718Z</time></trkpt><trkpt lat="40.80600494101634" lon="9.324607815834685"><ele>289.0</ele><time>2026-04-26T08:57:27.72Z</time></trkpt><trkpt lat="40.805918438298235" lon="9.32452146525863"><ele>289.0</ele><time>2026-04-26T08:57:28.72Z</time></trkpt><trkpt lat="40.80583016784362" lon="9.324433023347076"><ele>289.0</ele><time>2026-04-26T08:57:29.72Z</time></trkpt><trkpt lat="40.80573267970849" lon="9.324353204725343"><ele>289.0</ele><time>2026-04-26T08:57:30.72Z</time></trkpt><trkpt lat="40.80564820679157" lon="9.324253989392691"><ele>289.25</ele><time>2026-04-26T08:57:31.72Z</time></trkpt><trkpt lat="40.80556622819921" lon="9.324151143450404"><ele>289.5</ele><time>2026-04-26T08:57:32.72Z</time></trkpt><trkpt lat="40.80549516858445" lon="9.324034565548896"><ele>289.75</ele><time>2026-04-26T08:57:33.719Z</time></trkpt><trkpt lat="40.80543273383393" lon="9.323909926150645"><ele>290.0</ele><time>2026-04-26T08:57:34.719Z</time></trkpt><trkpt lat="40.805385214367796" lon="9.323778620079612"><ele>290.0</ele><time>2026-04-26T08:57:35.719Z</time></trkpt><trkpt lat="40.80535105077682" lon="9.32363391968483"><ele>290.0</ele><time>2026-04-26T08:57:36.72Z</time></trkpt><trkpt lat="40.805330305375705" lon="9.323472816583278"><ele>290.0</ele><time>2026-04-26T08:57:37.719Z</time></trkpt><trkpt lat="40.8053172933922" lon="9.323308146397936"><ele>290.0</ele><time>2026-04-26T08:57:38.719Z</time></trkpt><trkpt lat="40.80530808976741" lon="9.323134330783185"><ele>290.0</ele><time>2026-04-26T08:57:39.72Z</time></trkpt><trkpt lat="40.80529911168773" lon="9.322951974016853"><ele>290.0</ele><time>2026-04-26T08:57:40.719Z</time></trkpt><trkpt lat="40.805301916256234" lon="9.322775407036172"><ele>290.0</ele><time>2026-04-26T08:57:41.719Z</time></trkpt><trkpt lat="40.805295621308794" lon="9.32260473420477"><ele>290.0</ele><time>2026-04-26T08:57:42.719Z</time></trkpt><trkpt lat="40.80528903599816" lon="9.322457123139346"><ele>290.0</ele><time>2026-04-26T08:57:43.719Z</time></trkpt><trkpt lat="40.80525352558587" lon="9.322325325652562"><ele>290.0</ele><time>2026-04-26T08:57:44.719Z</time></trkpt><trkpt lat="40.80525201035862" lon="9.322202906386622"><ele>290.0</ele><time>2026-04-26T08:57:45.719Z</time></trkpt><trkpt lat="40.805246810480774" lon="9.322087122630602"><ele>290.0</ele><time>2026-04-26T08:57:46.719Z</time></trkpt><trkpt lat="40.80524100698512" lon="9.321975687645034"><ele>290.0</ele><time>2026-04-26T08:57:47.719Z</time></trkpt><trkpt lat="40.805257651138284" lon="9.32185333806376"><ele>289.8</ele><time>2026-04-26T08:57:48.719Z</time></trkpt><trkpt lat="40.805252673857865" lon="9.321740063864457"><ele>289.6</ele><time>2026-04-26T08:57:49.719Z</time></trkpt><trkpt lat="40.80524612535729" lon="9.321633358626155"><ele>289.4</ele><time>2026-04-26T08:57:50.719Z</time></trkpt><trkpt lat="40.80523997526918" lon="9.321533146223185"><ele>289.2</ele><time>2026-04-26T08:57:51.719Z</time></trkpt><trkpt lat="40.805223322243855" lon="9.321419440350446"><ele>289.0</ele><time>2026-04-26T08:57:53.719Z</time></trkpt><trkpt lat="40.80506895284536" lon="9.321428457495324"><ele>290.3333333333333</ele><time>2026-04-26T08:57:54.719Z</time></trkpt><trkpt lat="40.80500026541286" lon="9.321469412348042"><ele>291.66666666666663</ele><time>2026-04-26T08:57:55.719Z</time></trkpt><trkpt lat="40.80494317654056" lon="9.321543395088685"><ele>293.0</ele><time>2026-04-26T08:57:56.719Z</time></trkpt><trkpt lat="40.80489501656624" lon="9.321632065400461"><ele>294.3333333333333</ele><time>2026-04-26T08:57:57.719Z</time></trkpt><trkpt lat="40.80487457020658" lon="9.321749553092006"><ele>295.6666666666667</ele><time>2026-04-26T08:57:58.719Z</time></trkpt><trkpt lat="40.80487850222998" lon="9.321881073979593"><ele>297.0</ele><time>2026-04-26T08:57:59.719Z</time></trkpt><trkpt lat="40.804900849299784" lon="9.322015522491487"><ele>297.0</ele><time>2026-04-26T08:58:00.719Z</time></trkpt><trkpt lat="40.804930825260215" lon="9.322152144814998"><ele>297.0</ele><time>2026-04-26T08:58:01.719Z</time></trkpt><trkpt lat="40.80494137362409" lon="9.322300769231921"><ele>297.0</ele><time>2026-04-26T08:58:02.719Z</time></trkpt><trkpt lat="40.80492258005761" lon="9.322458263692777"><ele>297.0</ele><time>2026-04-26T08:58:03.718Z</time></trkpt><trkpt lat="40.804883957141385" lon="9.322631800407272"><ele>298.0</ele><time>2026-04-26T08:58:04.718Z</time></trkpt><trkpt lat="40.80484735108049" lon="9.322809051674957"><ele>299.0</ele><time>2026-04-26T08:58:05.718Z</time></trkpt><trkpt lat="40.80481062840081" lon="9.322998828683932"><ele>300.0</ele><time>2026-04-26T08:58:06.718Z</time></trkpt><trkpt lat="40.80477608198897" lon="9.323181020049667"><ele>301.0</ele><time>2026-04-26T08:58:07.718Z</time></trkpt><trkpt lat="40.80473413040434" lon="9.323359895823932"><ele>301.0</ele><time>2026-04-26T08:58:08.718Z</time></trkpt><trkpt lat="40.8046982327951" lon="9.323556419142859"><ele>301.0</ele><time>2026-04-26T08:58:09.718Z</time></trkpt><trkpt lat="40.804656062968306" lon="9.32375140091059"><ele>301.0</ele><time>2026-04-26T08:58:10.718Z</time></trkpt><trkpt lat="40.80461923041655" lon="9.323949525541451"><ele>301.0</ele><time>2026-04-26T08:58:11.718Z</time></trkpt><trkpt lat="40.804580070242146" lon="9.324145433506413"><ele>301.0</ele><time>2026-04-26T08:58:12.718Z</time></trkpt><trkpt lat="40.80454638706258" lon="9.324335030007786"><ele>301.0</ele><time>2026-04-26T08:58:13.718Z</time></trkpt><trkpt lat="40.804481002975876" lon="9.324507057123682"><ele>301.0</ele><time>2026-04-26T08:58:14.718Z</time></trkpt><trkpt lat="40.80438902164661" lon="9.324646422294832"><ele>306.3333333333333</ele><time>2026-04-26T08:58:15.718Z</time></trkpt><trkpt lat="40.804279203485166" lon="9.324777130906638"><ele>311.6666666666667</ele><time>2026-04-26T08:58:16.718Z</time></trkpt><trkpt lat="40.80416972109842" lon="9.324925054077536"><ele>317.0</ele><time>2026-04-26T08:58:17.718Z</time></trkpt><trkpt lat="40.804063450174205" lon="9.325073004158002"><ele>317.0</ele><time>2026-04-26T08:58:18.718Z</time></trkpt><trkpt lat="40.80397667625058" lon="9.325223725043552"><ele>317.0</ele><time>2026-04-26T08:58:19.718Z</time></trkpt><trkpt lat="40.80394083774057" lon="9.325390122398877"><ele>317.0</ele><time>2026-04-26T08:58:20.718Z</time></trkpt><trkpt lat="40.80394622754952" lon="9.325546991835067"><ele>317.0</ele><time>2026-04-26T08:58:21.718Z</time></trkpt><trkpt lat="40.804000610109036" lon="9.325674436611612"><ele>317.75</ele><time>2026-04-26T08:58:22.718Z</time></trkpt><trkpt lat="40.80409084286753" lon="9.325779213162603"><ele>318.5</ele><time>2026-04-26T08:58:23.718Z</time></trkpt><trkpt lat="40.804195789332965" lon="9.325866068369118"><ele>319.25</ele><time>2026-04-26T08:58:24.718Z</time></trkpt><trkpt lat="40.80429042378284" lon="9.325958200822388"><ele>320.0</ele><time>2026-04-26T08:58:25.718Z</time></trkpt><trkpt lat="40.80433623821562" lon="9.326075913213238"><ele>320.0</ele><time>2026-04-26T08:58:26.718Z</time></trkpt><trkpt lat="40.80433098564021" lon="9.326183342761732"><ele>320.0</ele><time>2026-04-26T08:58:27.717Z</time></trkpt><trkpt lat="40.80428273584674" lon="9.326276356191377"><ele>320.0</ele><time>2026-04-26T08:58:28.717Z</time></trkpt><trkpt lat="40.80421254565212" lon="9.326341898744236"><ele>320.0</ele><time>2026-04-26T08:58:29.717Z</time></trkpt><trkpt lat="40.804121788401034" lon="9.32639976409138"><ele>320.0</ele><time>2026-04-26T08:58:30.717Z</time></trkpt><trkpt lat="40.80402120284685" lon="9.326474201050518"><ele>319.75</ele><time>2026-04-26T08:58:31.717Z</time></trkpt><trkpt lat="40.803909858351325" lon="9.32656916388622"><ele>319.5</ele><time>2026-04-26T08:58:32.717Z</time></trkpt><trkpt lat="40.80380486769392" lon="9.326692151031086"><ele>319.25</ele><time>2026-04-26T08:58:33.717Z</time></trkpt><trkpt lat="40.80372578024637" lon="9.326863558203208"><ele>319.0</ele><time>2026-04-26T08:58:34.717Z</time></trkpt><trkpt lat="40.80369127133652" lon="9.327079715556714"><ele>319.0</ele><time>2026-04-26T08:58:35.717Z</time></trkpt><trkpt lat="40.803683688005066" lon="9.327318547782165"><ele>319.0</ele><time>2026-04-26T08:58:36.717Z</time></trkpt><trkpt lat="40.80369944947006" lon="9.327571436447656"><ele>319.0</ele><time>2026-04-26T08:58:37.717Z</time></trkpt><trkpt lat="40.80369824139278" lon="9.32779788894241"><ele>319.0</ele><time>2026-04-26T08:58:38.717Z</time></trkpt><trkpt lat="40.80363399292413" lon="9.32799742897399"><ele>319.0</ele><time>2026-04-26T08:58:39.717Z</time></trkpt><trkpt lat="40.803531960336" lon="9.328165345286571"><ele>319.0</ele><time>2026-04-26T08:58:40.717Z</time></trkpt><trkpt lat="40.80341215636866" lon="9.32821306727879"><ele>324.0</ele><time>2026-04-26T08:58:41.717Z</time></trkpt><trkpt lat="40.80326532782276" lon="9.328188072997285"><ele>329.0</ele><time>2026-04-26T08:58:42.717Z</time></trkpt><trkpt lat="40.80309214326815" lon="9.328152694554511"><ele>334.0</ele><time>2026-04-26T08:58:43.717Z</time></trkpt><trkpt lat="40.80290756217477" lon="9.328133481251648"><ele>334.0</ele><time>2026-04-26T08:58:44.717Z</time></trkpt><trkpt lat="40.80275310663803" lon="9.328157117825558"><ele>334.0</ele><time>2026-04-26T08:58:45.717Z</time></trkpt><trkpt lat="40.802613041968556" lon="9.32826523652532"><ele>334.0</ele><time>2026-04-26T08:58:46.717Z</time></trkpt><trkpt lat="40.80251914938577" lon="9.32846556840391"><ele>338.5</ele><time>2026-04-26T08:58:47.717Z</time></trkpt><trkpt lat="40.80246206701963" lon="9.328770214252305"><ele>343.0</ele><time>2026-04-26T08:58:48.717Z</time></trkpt><trkpt lat="40.80236443858653" lon="9.329092983592133"><ele>343.0</ele><time>2026-04-26T08:58:49.717Z</time></trkpt><trkpt lat="40.80227634000855" lon="9.329431188197653"><ele>343.0</ele><time>2026-04-26T08:58:50.717Z</time></trkpt><trkpt lat="40.80219871209097" lon="9.329711487894526"><ele>342.0</ele><time>2026-04-26T08:58:51.716Z</time></trkpt><trkpt lat="40.80208490432746" lon="9.32995787781141"><ele>341.0</ele><time>2026-04-26T08:58:52.716Z</time></trkpt><trkpt lat="40.80192266802642" lon="9.330170471606083"><ele>340.0</ele><time>2026-04-26T08:58:53.716Z</time></trkpt><trkpt lat="40.801725829789625" lon="9.330382013056996"><ele>344.3333333333333</ele><time>2026-04-26T08:58:54.716Z</time></trkpt><trkpt lat="40.80154416326955" lon="9.330573305399705"><ele>348.6666666666667</ele><time>2026-04-26T08:58:55.716Z</time></trkpt><trkpt lat="40.8014032136457" lon="9.330742681315687"><ele>353.0</ele><time>2026-04-26T08:58:56.716Z</time></trkpt><trkpt lat="40.801300237549206" lon="9.330879216378179"><ele>353.0</ele><time>2026-04-26T08:58:57.716Z</time></trkpt><trkpt lat="40.801265063427486" lon="9.33104085370522"><ele>353.0</ele><time>2026-04-26T08:58:58.716Z</time></trkpt><trkpt lat="40.801304942727675" lon="9.33120414282959"><ele>353.0</ele><time>2026-04-26T08:58:59.716Z</time></trkpt><trkpt lat="40.80142277211361" lon="9.331335868713841"><ele>353.0</ele><time>2026-04-26T08:59:00.716Z</time></trkpt><trkpt lat="40.80161723594193" lon="9.331417176192858"><ele>353.6666666666667</ele><time>2026-04-26T08:59:01.716Z</time></trkpt><trkpt lat="40.80181544785328" lon="9.331516868544533"><ele>354.3333333333333</ele><time>2026-04-26T08:59:02.716Z</time></trkpt><trkpt lat="40.80198968231023" lon="9.331657233706558"><ele>355.0</ele><time>2026-04-26T08:59:03.716Z</time></trkpt><trkpt lat="40.8021596918709" lon="9.331822715965462"><ele>355.0</ele><time>2026-04-26T08:59:04.716Z</time></trkpt><trkpt lat="40.80233915282035" lon="9.33200678094262"><ele>355.0</ele><time>2026-04-26T08:59:05.716Z</time></trkpt><trkpt lat="40.8024732428725" lon="9.332182478489129"><ele>355.0</ele><time>2026-04-26T08:59:06.716Z</time></trkpt><trkpt lat="40.80257397158045" lon="9.332429994566352"><ele>355.0</ele><time>2026-04-26T08:59:07.716Z</time></trkpt><trkpt lat="40.80268873512711" lon="9.33271314173164"><ele>355.0</ele><time>2026-04-26T08:59:08.716Z</time></trkpt><trkpt lat="40.80286213278018" lon="9.332945887961449"><ele>362.0</ele><time>2026-04-26T08:59:09.716Z</time></trkpt><trkpt lat="40.80306711341279" lon="9.333184121810408"><ele>369.0</ele><time>2026-04-26T08:59:10.716Z</time></trkpt><trkpt lat="40.80327894163099" lon="9.333423404671311"><ele>369.0</ele><time>2026-04-26T08:59:11.716Z</time></trkpt><trkpt lat="40.80348943827492" lon="9.333648183249098"><ele>369.0</ele><time>2026-04-26T08:59:12.716Z</time></trkpt><trkpt lat="40.803707460553866" lon="9.333776518023653"><ele>370.6666666666667</ele><time>2026-04-26T08:59:13.716Z</time></trkpt><trkpt lat="40.80389651067321" lon="9.333921598863562"><ele>372.33333333333337</ele><time>2026-04-26T08:59:14.716Z</time></trkpt><trkpt lat="40.80402696184179" lon="9.334096870343345"><ele>374.0</ele><time>2026-04-26T08:59:15.715Z</time></trkpt><trkpt lat="40.80411851948622" lon="9.334262642983804"><ele>374.0</ele><time>2026-04-26T08:59:16.715Z</time></trkpt><trkpt lat="40.80414432305944" lon="9.334469087365818"><ele>374.0</ele><time>2026-04-26T08:59:17.715Z</time></trkpt><trkpt lat="40.80416175784254" lon="9.334738161812451"><ele>374.0</ele><time>2026-04-26T08:59:18.715Z</time></trkpt><trkpt lat="40.80416722221739" lon="9.335025692495734"><ele>377.33333333333337</ele><time>2026-04-26T08:59:19.715Z</time></trkpt><trkpt lat="40.804252675494304" lon="9.335273091523126"><ele>380.6666666666667</ele><time>2026-04-26T08:59:20.715Z</time></trkpt><trkpt lat="40.80429810107027" lon="9.33550132394988"><ele>384.0</ele><time>2026-04-26T08:59:21.715Z</time></trkpt><trkpt lat="40.80432067784907" lon="9.335704620638136"><ele>386.33333333333337</ele><time>2026-04-26T08:59:22.715Z</time></trkpt><trkpt lat="40.80428319792103" lon="9.335882029504267"><ele>388.6666666666667</ele><time>2026-04-26T08:59:23.715Z</time></trkpt><trkpt lat="40.80417728770188" lon="9.336060683571311"><ele>391.0</ele><time>2026-04-26T08:59:24.715Z</time></trkpt><trkpt lat="40.80404246292983" lon="9.336284847434921"><ele>388.33333333333337</ele><time>2026-04-26T08:59:25.715Z</time></trkpt><trkpt lat="40.80390875570876" lon="9.336500921835002"><ele>385.6666666666667</ele><time>2026-04-26T08:59:26.715Z</time></trkpt><trkpt lat="40.803794843286134" lon="9.336685706447545"><ele>383.0</ele><time>2026-04-26T08:59:27.715Z</time></trkpt><trkpt lat="40.80370621947641" lon="9.336869664079188"><ele>383.0</ele><time>2026-04-26T08:59:28.715Z</time></trkpt><trkpt lat="40.80368804569588" lon="9.337038179657734"><ele>383.0</ele><time>2026-04-26T08:59:29.715Z</time></trkpt><trkpt lat="40.803739379136005" lon="9.337187671562663"><ele>383.0</ele><time>2026-04-26T08:59:30.715Z</time></trkpt><trkpt lat="40.80385577585795" lon="9.337310876368564"><ele>383.0</ele><time>2026-04-26T08:59:31.715Z</time></trkpt><trkpt lat="40.80401694754793" lon="9.337421666862909"><ele>386.6666666666667</ele><time>2026-04-26T08:59:32.715Z</time></trkpt><trkpt lat="40.80412201046138" lon="9.337576781998722"><ele>390.33333333333337</ele><time>2026-04-26T08:59:33.716Z</time></trkpt><trkpt lat="40.804197695553626" lon="9.337760379416547"><ele>394.0</ele><time>2026-04-26T08:59:34.715Z</time></trkpt><trkpt lat="40.80423147020293" lon="9.338011568963326"><ele>398.6666666666667</ele><time>2026-04-26T08:59:35.715Z</time></trkpt><trkpt lat="40.804274086885954" lon="9.338279356268632"><ele>403.33333333333337</ele><time>2026-04-26T08:59:36.715Z</time></trkpt><trkpt lat="40.80434955096256" lon="9.338551795038674"><ele>408.0</ele><time>2026-04-26T08:59:37.716Z</time></trkpt><trkpt lat="40.80445433724984" lon="9.338830975611554"><ele>395.5</ele><time>2026-04-26T08:59:38.716Z</time></trkpt><trkpt lat="40.80452060787463" lon="9.339157360192686"><ele>383.0</ele><time>2026-04-26T08:59:39.715Z</time></trkpt><trkpt lat="40.804563259189834" lon="9.339493578591295"><ele>387.0</ele><time>2026-04-26T08:59:40.716Z</time></trkpt><trkpt lat="40.80461335192894" lon="9.339782411419883"><ele>391.0</ele><time>2026-04-26T08:59:41.716Z</time></trkpt><trkpt lat="40.804679492884134" lon="9.34004698810303"><ele>395.0</ele><time>2026-04-26T08:59:42.715Z</time></trkpt><trkpt lat="40.804758683590464" lon="9.340290119325113"><ele>395.0</ele><time>2026-04-26T08:59:43.715Z</time></trkpt><trkpt lat="40.80481227949708" lon="9.340518120168776"><ele>395.0</ele><time>2026-04-26T08:59:44.715Z</time></trkpt><trkpt lat="40.80481251440559" lon="9.34072698939696"><ele>395.0</ele><time>2026-04-26T08:59:45.715Z</time></trkpt><trkpt lat="40.804768975632186" lon="9.340910171680973"><ele>397.0</ele><time>2026-04-26T08:59:46.715Z</time></trkpt><trkpt lat="40.80466023693581" lon="9.341044225862431"><ele>399.0</ele><time>2026-04-26T08:59:47.715Z</time></trkpt><trkpt lat="40.804560263637015" lon="9.341146567649659"><ele>401.0</ele><time>2026-04-26T08:59:48.715Z</time></trkpt><trkpt lat="40.80447286392542" lon="9.341245210001425"><ele>403.0</ele><time>2026-04-26T08:59:49.715Z</time></trkpt><trkpt lat="40.804397035105296" lon="9.34134032204696"><ele>406.1666666666667</ele><time>2026-04-26T08:59:50.715Z</time></trkpt><trkpt lat="40.804300378162935" lon="9.341378053007384"><ele>409.33333333333337</ele><time>2026-04-26T08:59:51.715Z</time></trkpt><trkpt lat="40.80420408509503" lon="9.341343230691027"><ele>412.5</ele><time>2026-04-26T08:59:52.715Z</time></trkpt><trkpt lat="40.80412588532525" lon="9.341259252193243"><ele>415.66666666666663</ele><time>2026-04-26T08:59:53.715Z</time></trkpt><trkpt lat="40.80407771312514" lon="9.341175811143321"><ele>418.8333333333333</ele><time>2026-04-26T08:59:54.715Z</time></trkpt><trkpt lat="40.804030707708336" lon="9.341112335876982"><ele>422.0</ele><time>2026-04-26T08:59:55.715Z</time></trkpt><trkpt lat="40.803969958957346" lon="9.341033870102358"><ele>422.0</ele><time>2026-04-26T08:59:56.715Z</time></trkpt><trkpt lat="40.80388117676262" lon="9.340975387968845"><ele>422.0</ele><time>2026-04-26T08:59:57.715Z</time></trkpt><trkpt lat="40.80376689139654" lon="9.340976906826613"><ele>422.0</ele><time>2026-04-26T08:59:58.715Z</time></trkpt><trkpt lat="40.803669451156296" lon="9.34105775027406"><ele>422.0</ele><time>2026-04-26T08:59:59.715Z</time></trkpt><trkpt lat="40.80357561157478" lon="9.341150780826409"><ele>422.0</ele><time>2026-04-26T09:00:00.715Z</time></trkpt><trkpt lat="40.8034938489678" lon="9.341273766389515"><ele>423.66666666666663</ele><time>2026-04-26T09:00:01.714Z</time></trkpt><trkpt lat="40.80341931607348" lon="9.341431381845634"><ele>425.33333333333337</ele><time>2026-04-26T09:00:02.714Z</time></trkpt><trkpt lat="40.803352387514536" lon="9.34165845166801"><ele>427.0</ele><time>2026-04-26T09:00:03.714Z</time></trkpt><trkpt lat="40.80327945788538" lon="9.34189024282777"><ele>427.0</ele><time>2026-04-26T09:00:04.714Z</time></trkpt><trkpt lat="40.80319123820382" lon="9.34213619753141"><ele>427.0</ele><time>2026-04-26T09:00:05.714Z</time></trkpt><trkpt lat="40.80309549465663" lon="9.342389093775505"><ele>427.0</ele><time>2026-04-26T09:00:06.714Z</time></trkpt><trkpt lat="40.8030031279138" lon="9.34263318840592"><ele>427.75</ele><time>2026-04-26T09:00:07.714Z</time></trkpt><trkpt lat="40.802935584030536" lon="9.342808499396764"><ele>428.5</ele><time>2026-04-26T09:00:08.714Z</time></trkpt><trkpt lat="40.8028680913288" lon="9.342970839600927"><ele>429.25</ele><time>2026-04-26T09:00:09.714Z</time></trkpt><trkpt lat="40.8027818845842" lon="9.343079561091933"><ele>430.0</ele><time>2026-04-26T09:00:10.714Z</time></trkpt><trkpt lat="40.80266045487769" lon="9.34310409981079"><ele>430.0</ele><time>2026-04-26T09:00:11.714Z</time></trkpt><trkpt lat="40.8024908794106" lon="9.343152840806127"><ele>430.0</ele><time>2026-04-26T09:00:12.714Z</time></trkpt><trkpt lat="40.802344670221636" lon="9.34325942544655"><ele>430.0</ele><time>2026-04-26T09:00:13.714Z</time></trkpt><trkpt lat="40.80220873405007" lon="9.3432874649929"><ele>430.0</ele><time>2026-04-26T09:00:14.714Z</time></trkpt><trkpt lat="40.80204338911333" lon="9.343256759706932"><ele>430.0</ele><time>2026-04-26T09:00:15.714Z</time></trkpt><trkpt lat="40.801841873529945" lon="9.343288459546077"><ele>430.0</ele><time>2026-04-26T09:00:16.714Z</time></trkpt><trkpt lat="40.8016395652096" lon="9.343379001848328"><ele>438.0</ele><time>2026-04-26T09:00:17.714Z</time></trkpt><trkpt lat="40.80142124594075" lon="9.343458780781264"><ele>446.0</ele><time>2026-04-26T09:00:18.714Z</time></trkpt><trkpt lat="40.8011922739585" lon="9.34353841072602"><ele>453.0</ele><time>2026-04-26T09:00:19.714Z</time></trkpt><trkpt lat="40.80098358914226" lon="9.343692193549463"><ele>460.0</ele><time>2026-04-26T09:00:20.714Z</time></trkpt><trkpt lat="40.8007845694973" lon="9.343829370969024"><ele>452.33333333333337</ele><time>2026-04-26T09:00:21.714Z</time></trkpt><trkpt lat="40.80059874884724" lon="9.343929050315095"><ele>444.66666666666663</ele><time>2026-04-26T09:00:22.714Z</time></trkpt><trkpt lat="40.8004439868246" lon="9.344047154728374"><ele>437.0</ele><time>2026-04-26T09:00:23.714Z</time></trkpt><trkpt lat="40.800307684321645" lon="9.34412414570167"><ele>443.66666666666663</ele><time>2026-04-26T09:00:24.714Z</time></trkpt><trkpt lat="40.80015164757093" lon="9.344105510444924"><ele>450.33333333333337</ele><time>2026-04-26T09:00:25.713Z</time></trkpt><trkpt lat="40.79997907916937" lon="9.34410751963814"><ele>457.0</ele><time>2026-04-26T09:00:26.713Z</time></trkpt><trkpt lat="40.79982124728296" lon="9.344177222113071"><ele>457.0</ele><time>2026-04-26T09:00:27.713Z</time></trkpt><trkpt lat="40.799700201356636" lon="9.344279482062628"><ele>457.0</ele><time>2026-04-26T09:00:28.713Z</time></trkpt><trkpt lat="40.799632395400806" lon="9.344412019986642"><ele>457.0</ele><time>2026-04-26T09:00:29.713Z</time></trkpt><trkpt lat="40.799636725033636" lon="9.344579277587682"><ele>457.0</ele><time>2026-04-26T09:00:30.713Z</time></trkpt><trkpt lat="40.79972184381195" lon="9.34474728873694"><ele>456.33333333333337</ele><time>2026-04-26T09:00:31.713Z</time></trkpt><trkpt lat="40.79986589958474" lon="9.344880291688607"><ele>455.66666666666663</ele><time>2026-04-26T09:00:32.713Z</time></trkpt><trkpt lat="40.800006724853766" lon="9.345004363013333"><ele>455.0</ele><time>2026-04-26T09:00:33.713Z</time></trkpt><trkpt lat="40.80005700100345" lon="9.345175859912548"><ele>455.0</ele><time>2026-04-26T09:00:34.713Z</time></trkpt><trkpt lat="40.800076015374984" lon="9.345402187041984"><ele>455.0</ele><time>2026-04-26T09:00:35.713Z</time></trkpt><trkpt lat="40.80009122693882" lon="9.345660951849924"><ele>455.0</ele><time>2026-04-26T09:00:36.713Z</time></trkpt><trkpt lat="40.80011106241274" lon="9.345934669339588"><ele>457.3333333333333</ele><time>2026-04-26T09:00:37.713Z</time></trkpt><trkpt lat="40.80013423114112" lon="9.346200883822165"><ele>459.66666666666663</ele><time>2026-04-26T09:00:38.713Z</time></trkpt><trkpt lat="40.80014359512968" lon="9.346421776613012"><ele>462.0</ele><time>2026-04-26T09:00:39.713Z</time></trkpt><trkpt lat="40.80009857823964" lon="9.34659618668393"><ele>462.0</ele><time>2026-04-26T09:00:40.713Z</time></trkpt><trkpt lat="40.799988024550416" lon="9.34670137269279"><ele>462.0</ele><time>2026-04-26T09:00:41.713Z</time></trkpt><trkpt lat="40.79981405971306" lon="9.346739808977189"><ele>462.0</ele><time>2026-04-26T09:00:42.713Z</time></trkpt><trkpt lat="40.79963918574469" lon="9.34672936279245"><ele>462.0</ele><time>2026-04-26T09:00:43.713Z</time></trkpt><trkpt lat="40.79946894677597" lon="9.346651808244536"><ele>462.0</ele><time>2026-04-26T09:00:44.713Z</time></trkpt><trkpt lat="40.79929128930079" lon="9.346609950550194"><ele>462.0</ele><time>2026-04-26T09:00:45.713Z</time></trkpt><trkpt lat="40.79910288266124" lon="9.34670567179919"><ele>464.33333333333337</ele><time>2026-04-26T09:00:46.713Z</time></trkpt><trkpt lat="40.798920566849866" lon="9.346828534276915"><ele>466.6666666666667</ele><time>2026-04-26T09:00:47.713Z</time></trkpt><trkpt lat="40.798744842534596" lon="9.346948246954168"><ele>469.0</ele><time>2026-04-26T09:00:48.713Z</time></trkpt><trkpt lat="40.798585496888876" lon="9.347041523294083"><ele>471.6666666666667</ele><time>2026-04-26T09:00:49.712Z</time></trkpt><trkpt lat="40.79842785669435" lon="9.347081016957516"><ele>474.33333333333337</ele><time>2026-04-26T09:00:50.712Z</time></trkpt><trkpt lat="40.79828876336857" lon="9.346991043014127"><ele>477.0</ele><time>2026-04-26T09:00:51.712Z</time></trkpt><trkpt lat="40.798150450667784" lon="9.346833087907838"><ele>477.0</ele><time>2026-04-26T09:00:52.712Z</time></trkpt><trkpt lat="40.79797652326658" lon="9.346641088401835"><ele>477.0</ele><time>2026-04-26T09:00:53.712Z</time></trkpt><trkpt lat="40.797813162977285" lon="9.346404629553682"><ele>480.0</ele><time>2026-04-26T09:00:54.712Z</time></trkpt><trkpt lat="40.79764536910712" lon="9.346155293465392"><ele>483.0</ele><time>2026-04-26T09:00:55.712Z</time></trkpt><trkpt lat="40.797479858974405" lon="9.345894732181732"><ele>483.0</ele><time>2026-04-26T09:00:56.712Z</time></trkpt><trkpt lat="40.79732025515222" lon="9.345646114139171"><ele>483.0</ele><time>2026-04-26T09:00:57.712Z</time></trkpt><trkpt lat="40.79715928445311" lon="9.345425505277367"><ele>484.0</ele><time>2026-04-26T09:00:58.712Z</time></trkpt><trkpt lat="40.79697810977704" lon="9.345230760878783"><ele>485.0</ele><time>2026-04-26T09:00:59.712Z</time></trkpt><trkpt lat="40.79679238075009" lon="9.345073257468801"><ele>486.66666666666663</ele><time>2026-04-26T09:01:00.712Z</time></trkpt><trkpt lat="40.79661245331054" lon="9.344947754387777"><ele>488.33333333333337</ele><time>2026-04-26T09:01:01.712Z</time></trkpt><trkpt lat="40.79641748258256" lon="9.34489124572721"><ele>490.0</ele><time>2026-04-26T09:01:02.712Z</time></trkpt><trkpt lat="40.796202599801525" lon="9.344926856675828"><ele>491.5</ele><time>2026-04-26T09:01:03.712Z</time></trkpt><trkpt lat="40.7959746768816" lon="9.344995240958605"><ele>493.0</ele><time>2026-04-26T09:01:04.712Z</time></trkpt><trkpt lat="40.7957343740191" lon="9.345059176430574"><ele>493.0</ele><time>2026-04-26T09:01:05.712Z</time></trkpt><trkpt lat="40.795503782031304" lon="9.345141553913024"><ele>493.0</ele><time>2026-04-26T09:01:06.712Z</time></trkpt><trkpt lat="40.795288967228196" lon="9.34527861726176"><ele>494.5</ele><time>2026-04-26T09:01:07.712Z</time></trkpt><trkpt lat="40.79508453327804" lon="9.345460847412186"><ele>496.0</ele><time>2026-04-26T09:01:08.712Z</time></trkpt><trkpt lat="40.79488141235935" lon="9.345642267818585"><ele>496.0</ele><time>2026-04-26T09:01:09.712Z</time></trkpt><trkpt lat="40.79469376468048" lon="9.34581014050959"><ele>496.0</ele><time>2026-04-26T09:01:10.712Z</time></trkpt><trkpt lat="40.79453793483307" lon="9.345986568062012"><ele>496.0</ele><time>2026-04-26T09:01:11.712Z</time></trkpt><trkpt lat="40.79444580978284" lon="9.346195516002899"><ele>498.0</ele><time>2026-04-26T09:01:12.712Z</time></trkpt><trkpt lat="40.794390519338585" lon="9.346404423892842"><ele>500.0</ele><time>2026-04-26T09:01:13.711Z</time></trkpt><trkpt lat="40.794378668018865" lon="9.34658591039713"><ele>502.0</ele><time>2026-04-26T09:01:14.711Z</time></trkpt><trkpt lat="40.79444443772739" lon="9.346734347681867"><ele>504.0</ele><time>2026-04-26T09:01:15.711Z</time></trkpt><trkpt lat="40.79456751008949" lon="9.34682762444781"><ele>504.0</ele><time>2026-04-26T09:01:16.711Z</time></trkpt><trkpt lat="40.794740785899464" lon="9.346803792795978"><ele>504.0</ele><time>2026-04-26T09:01:17.711Z</time></trkpt><trkpt lat="40.794944583744055" lon="9.346736267933101"><ele>504.0</ele><time>2026-04-26T09:01:18.711Z</time></trkpt><trkpt lat="40.79517762311434" lon="9.34673116636777"><ele>504.0</ele><time>2026-04-26T09:01:19.711Z</time></trkpt><trkpt lat="40.795405671048734" lon="9.346743518849395"><ele>504.0</ele><time>2026-04-26T09:01:20.711Z</time></trkpt><trkpt lat="40.79560239220801" lon="9.346730880677917"><ele>504.0</ele><time>2026-04-26T09:01:21.711Z</time></trkpt><trkpt lat="40.79578126223465" lon="9.346740453900333"><ele>504.0</ele><time>2026-04-26T09:01:22.711Z</time></trkpt><trkpt lat="40.79593372762955" lon="9.346819955141473"><ele>504.0</ele><time>2026-04-26T09:01:23.711Z</time></trkpt><trkpt lat="40.796070971836706" lon="9.347003826405125"><ele>504.0</ele><time>2026-04-26T09:01:24.711Z</time></trkpt><trkpt lat="40.79617159761666" lon="9.347233868605024"><ele>505.0</ele><time>2026-04-26T09:01:25.711Z</time></trkpt><trkpt lat="40.79628191774618" lon="9.347480716507482"><ele>506.0</ele><time>2026-04-26T09:01:26.711Z</time></trkpt><trkpt lat="40.79640264185737" lon="9.34767562953111"><ele>507.0</ele><time>2026-04-26T09:01:27.711Z</time></trkpt><trkpt lat="40.796525574395176" lon="9.347843020282347"><ele>507.0</ele><time>2026-04-26T09:01:28.711Z</time></trkpt><trkpt lat="40.796621842409614" lon="9.3479775897773"><ele>507.0</ele><time>2026-04-26T09:01:29.711Z</time></trkpt><trkpt lat="40.79662925910043" lon="9.348153119949146"><ele>507.0</ele><time>2026-04-26T09:01:30.711Z</time></trkpt><trkpt lat="40.796605353053494" lon="9.348354937274324"><ele>507.0</ele><time>2026-04-26T09:01:31.711Z</time></trkpt><trkpt lat="40.7965791792232" lon="9.348588109209981"><ele>508.0</ele><time>2026-04-26T09:01:32.711Z</time></trkpt><trkpt lat="40.79651659543447" lon="9.348833695287622"><ele>509.0</ele><time>2026-04-26T09:01:33.711Z</time></trkpt><trkpt lat="40.79644118008003" lon="9.349066168015176"><ele>510.0</ele><time>2026-04-26T09:01:34.711Z</time></trkpt><trkpt lat="40.79636406972713" lon="9.349255899394521"><ele>510.0</ele><time>2026-04-26T09:01:35.711Z</time></trkpt><trkpt lat="40.79623711967039" lon="9.34938455232425"><ele>510.0</ele><time>2026-04-26T09:01:36.711Z</time></trkpt><trkpt lat="40.796070648676626" lon="9.349487518744587"><ele>510.0</ele><time>2026-04-26T09:01:37.71Z</time></trkpt><trkpt lat="40.795918925567875" lon="9.349591276261005"><ele>514.25</ele><time>2026-04-26T09:01:38.712Z</time></trkpt><trkpt lat="40.795779398728335" lon="9.34965050767241"><ele>518.5</ele><time>2026-04-26T09:01:39.712Z</time></trkpt><trkpt lat="40.79565300378364" lon="9.349590634634325"><ele>522.75</ele><time>2026-04-26T09:01:40.712Z</time></trkpt><trkpt lat="40.79554934729261" lon="9.349439283919844"><ele>527.0</ele><time>2026-04-26T09:01:41.712Z</time></trkpt><trkpt lat="40.795447774898314" lon="9.349250871786115"><ele>527.0</ele><time>2026-04-26T09:01:42.711Z</time></trkpt><trkpt lat="40.79530262173025" lon="9.349118728432876"><ele>527.0</ele><time>2026-04-26T09:01:43.711Z</time></trkpt><trkpt lat="40.79511647133894" lon="9.349104594939876"><ele>527.0</ele><time>2026-04-26T09:01:44.712Z</time></trkpt><trkpt lat="40.79492288135267" lon="9.349138335689704"><ele>528.0</ele><time>2026-04-26T09:01:45.712Z</time></trkpt><trkpt lat="40.79473208100597" lon="9.349208920058292"><ele>529.0</ele><time>2026-04-26T09:01:46.712Z</time></trkpt><trkpt lat="40.794590791335985" lon="9.349366549652359"><ele>530.0</ele><time>2026-04-26T09:01:47.711Z</time></trkpt><trkpt lat="40.79449430370698" lon="9.34959034692662"><ele>529.3333333333333</ele><time>2026-04-26T09:01:48.711Z</time></trkpt><trkpt lat="40.794407698913105" lon="9.349852655025108"><ele>528.6666666666666</ele><time>2026-04-26T09:01:49.711Z</time></trkpt><trkpt lat="40.79429260557227" lon="9.35010473274763"><ele>528.0</ele><time>2026-04-26T09:01:50.711Z</time></trkpt><trkpt lat="40.79418256554957" lon="9.35036000702208"><ele>531.0</ele><time>2026-04-26T09:01:51.711Z</time></trkpt><trkpt lat="40.79406589881982" lon="9.350581469411523"><ele>534.0</ele><time>2026-04-26T09:01:52.711Z</time></trkpt><trkpt lat="40.79393677006039" lon="9.350743869466367"><ele>537.0</ele><time>2026-04-26T09:01:53.711Z</time></trkpt><trkpt lat="40.7937936317661" lon="9.35081545920475"><ele>537.0</ele><time>2026-04-26T09:01:54.711Z</time></trkpt><trkpt lat="40.79364885514472" lon="9.350785685217328"><ele>537.0</ele><time>2026-04-26T09:01:55.711Z</time></trkpt><trkpt lat="40.79346618715785" lon="9.35075458092593"><ele>537.0</ele><time>2026-04-26T09:01:56.711Z</time></trkpt><trkpt lat="40.79328357364046" lon="9.350694707793124"><ele>538.3333333333334</ele><time>2026-04-26T09:01:57.711Z</time></trkpt><trkpt lat="40.79312378535828" lon="9.350662503506065"><ele>539.6666666666667</ele><time>2026-04-26T09:01:58.711Z</time></trkpt><trkpt lat="40.79298874237835" lon="9.350726696829053"><ele>541.0</ele><time>2026-04-26T09:01:59.711Z</time></trkpt><trkpt lat="40.79288966465834" lon="9.350888729509448"><ele>541.0</ele><time>2026-04-26T09:02:00.711Z</time></trkpt><trkpt lat="40.79286144861041" lon="9.351108804236308"><ele>541.0</ele><time>2026-04-26T09:02:01.711Z</time></trkpt><trkpt lat="40.792845663843856" lon="9.35135714623346"><ele>541.0</ele><time>2026-04-26T09:02:02.711Z</time></trkpt><trkpt lat="40.79272316370756" lon="9.351511695751828"><ele>542.0</ele><time>2026-04-26T09:02:03.711Z</time></trkpt><trkpt lat="40.79258102354057" lon="9.351669067715436"><ele>543.0</ele><time>2026-04-26T09:02:04.711Z</time></trkpt><trkpt lat="40.7924701422172" lon="9.351878629701034"><ele>544.0</ele><time>2026-04-26T09:02:05.711Z</time></trkpt><trkpt lat="40.792340759937446" lon="9.35209375890531"><ele>546.3333333333334</ele><time>2026-04-26T09:02:06.711Z</time></trkpt><trkpt lat="40.79215843877535" lon="9.352257254480415"><ele>548.6666666666666</ele><time>2026-04-26T09:02:07.711Z</time></trkpt><trkpt lat="40.79196882366404" lon="9.35239212508862"><ele>551.0</ele><time>2026-04-26T09:02:08.711Z</time></trkpt><trkpt lat="40.791783487325446" lon="9.35241250842016"><ele>551.3333333333333</ele><time>2026-04-26T09:02:09.711Z</time></trkpt><trkpt lat="40.79160654333661" lon="9.35241378061668"><ele>551.6666666666666</ele><time>2026-04-26T09:02:10.71Z</time></trkpt><trkpt lat="40.79143071954573" lon="9.352425102160977"><ele>552.0</ele><time>2026-04-26T09:02:11.71Z</time></trkpt><trkpt lat="40.791255626655875" lon="9.352513580301917"><ele>552.0</ele><time>2026-04-26T09:02:12.71Z</time></trkpt><trkpt lat="40.79111993349488" lon="9.352676320344166"><ele>552.0</ele><time>2026-04-26T09:02:13.71Z</time></trkpt><trkpt lat="40.791037052117815" lon="9.352913185545999"><ele>552.0</ele><time>2026-04-26T09:02:14.71Z</time></trkpt><trkpt lat="40.790992589187226" lon="9.353209429056056"><ele>553.0</ele><time>2026-04-26T09:02:15.71Z</time></trkpt><trkpt lat="40.79094567403136" lon="9.353528700358448"><ele>554.0</ele><time>2026-04-26T09:02:16.71Z</time></trkpt><trkpt lat="40.790889620627084" lon="9.35386560913054"><ele>552.5</ele><time>2026-04-26T09:02:17.71Z</time></trkpt><trkpt lat="40.790820119279886" lon="9.354211422550012"><ele>551.0</ele><time>2026-04-26T09:02:18.71Z</time></trkpt><trkpt lat="40.79073565176837" lon="9.35456193917949"><ele>550.0</ele><time>2026-04-26T09:02:19.71Z</time></trkpt><trkpt lat="40.79065868992113" lon="9.354926799372024"><ele>549.0</ele><time>2026-04-26T09:02:20.71Z</time></trkpt><trkpt lat="40.790600315939514" lon="9.355288132734726"><ele>547.5</ele><time>2026-04-26T09:02:21.71Z</time></trkpt><trkpt lat="40.79054248840317" lon="9.355621388226398"><ele>546.0</ele><time>2026-04-26T09:02:22.71Z</time></trkpt><trkpt lat="40.79044198315803" lon="9.355913939683951"><ele>546.0</ele><time>2026-04-26T09:02:23.71Z</time></trkpt><trkpt lat="40.79032639002248" lon="9.35619224615601"><ele>546.0</ele><time>2026-04-26T09:02:24.71Z</time></trkpt><trkpt lat="40.79017524565506" lon="9.35646686803657"><ele>542.5</ele><time>2026-04-26T09:02:25.71Z</time></trkpt><trkpt lat="40.79001803006932" lon="9.356762032773231"><ele>539.0</ele><time>2026-04-26T09:02:26.71Z</time></trkpt><trkpt lat="40.78985910419669" lon="9.357063065639432"><ele>538.5</ele><time>2026-04-26T09:02:27.71Z</time></trkpt><trkpt lat="40.78970104222263" lon="9.357366006872905"><ele>538.0</ele><time>2026-04-26T09:02:28.71Z</time></trkpt><trkpt lat="40.78954511091043" lon="9.357669657302349"><ele>538.0</ele><time>2026-04-26T09:02:29.71Z</time></trkpt><trkpt lat="40.78939286475956" lon="9.357966211921386"><ele>538.0</ele><time>2026-04-26T09:02:30.71Z</time></trkpt><trkpt lat="40.789240007132115" lon="9.358258795286787"><ele>536.5</ele><time>2026-04-26T09:02:31.71Z</time></trkpt><trkpt lat="40.7890885352408" lon="9.358548836483983"><ele>535.0</ele><time>2026-04-26T09:02:32.71Z</time></trkpt><trkpt lat="40.78893842830986" lon="9.358837318961049"><ele>534.0</ele><time>2026-04-26T09:02:33.71Z</time></trkpt><trkpt lat="40.78879035712958" lon="9.359119184983202"><ele>533.0</ele><time>2026-04-26T09:02:34.709Z</time></trkpt><trkpt lat="40.78864831997406" lon="9.359388554217633"><ele>533.5</ele><time>2026-04-26T09:02:35.709Z</time></trkpt><trkpt lat="40.78850888164306" lon="9.359654240379317"><ele>534.0</ele><time>2026-04-26T09:02:36.709Z</time></trkpt><trkpt lat="40.788374392935886" lon="9.359909439671043"><ele>534.0</ele><time>2026-04-26T09:02:37.709Z</time></trkpt><trkpt lat="40.78824810539142" lon="9.36014176517846"><ele>534.0</ele><time>2026-04-26T09:02:38.709Z</time></trkpt><trkpt lat="40.78812737223277" lon="9.360344374898624"><ele>534.0</ele><time>2026-04-26T09:02:39.709Z</time></trkpt><trkpt lat="40.78797127357534" lon="9.360452633347585"><ele>534.0</ele><time>2026-04-26T09:02:40.709Z</time></trkpt><trkpt lat="40.78777045873799" lon="9.360492028603714"><ele>534.0</ele><time>2026-04-26T09:02:41.709Z</time></trkpt><trkpt lat="40.78755656832376" lon="9.360525371745808"><ele>534.0</ele><time>2026-04-26T09:02:42.709Z</time></trkpt><trkpt lat="40.78734659492401" lon="9.36055438452016"><ele>534.6666666666666</ele><time>2026-04-26T09:02:43.709Z</time></trkpt><trkpt lat="40.78714222547517" lon="9.360583478220024"><ele>535.3333333333333</ele><time>2026-04-26T09:02:44.709Z</time></trkpt><trkpt lat="40.786935885211676" lon="9.360594892430218"><ele>536.0</ele><time>2026-04-26T09:02:45.709Z</time></trkpt><trkpt lat="40.78671422968197" lon="9.36054804824999"><ele>539.0</ele><time>2026-04-26T09:02:46.709Z</time></trkpt><trkpt lat="40.786489649556735" lon="9.36048431945269"><ele>542.0</ele><time>2026-04-26T09:02:47.709Z</time></trkpt><trkpt lat="40.78626460974065" lon="9.3604009052223"><ele>542.0</ele><time>2026-04-26T09:02:48.709Z</time></trkpt><trkpt lat="40.78605902749293" lon="9.360283188099643"><ele>542.0</ele><time>2026-04-26T09:02:49.709Z</time></trkpt><trkpt lat="40.78587207564428" lon="9.36010403391367"><ele>538.5</ele><time>2026-04-26T09:02:50.709Z</time></trkpt><trkpt lat="40.78568313055162" lon="9.359918330187746"><ele>535.0</ele><time>2026-04-26T09:02:51.709Z</time></trkpt><trkpt lat="40.78550843819035" lon="9.359746104335667"><ele>535.0</ele><time>2026-04-26T09:02:52.709Z</time></trkpt><trkpt lat="40.78534533003047" lon="9.359605000410395"><ele>535.0</ele><time>2026-04-26T09:02:53.709Z</time></trkpt><trkpt lat="40.78518684141152" lon="9.359521018175585"><ele>535.0</ele><time>2026-04-26T09:02:54.709Z</time></trkpt><trkpt lat="40.78501915985184" lon="9.359520189000792"><ele>535.0</ele><time>2026-04-26T09:02:55.709Z</time></trkpt><trkpt lat="40.78487181113757" lon="9.359599927751185"><ele>535.0</ele><time>2026-04-26T09:02:56.709Z</time></trkpt><trkpt lat="40.78474691706534" lon="9.359781686040058"><ele>535.0</ele><time>2026-04-26T09:02:57.709Z</time></trkpt><trkpt lat="40.784647313716654" lon="9.360029859608739"><ele>532.6666666666667</ele><time>2026-04-26T09:02:58.708Z</time></trkpt><trkpt lat="40.7845701735443" lon="9.360291676868362"><ele>530.3333333333334</ele><time>2026-04-26T09:02:59.708Z</time></trkpt><trkpt lat="40.784551461997204" lon="9.360548378543676"><ele>528.0</ele><time>2026-04-26T09:03:00.708Z</time></trkpt><trkpt lat="40.78459314266187" lon="9.360826625220767"><ele>526.0</ele><time>2026-04-26T09:03:01.708Z</time></trkpt><trkpt lat="40.78463937627378" lon="9.361139961342925"><ele>524.0</ele><time>2026-04-26T09:03:02.708Z</time></trkpt><trkpt lat="40.78468142760256" lon="9.361475641558313"><ele>522.5</ele><time>2026-04-26T09:03:03.708Z</time></trkpt><trkpt lat="40.784715271528654" lon="9.361822215803947"><ele>521.0</ele><time>2026-04-26T09:03:04.708Z</time></trkpt><trkpt lat="40.78472600574389" lon="9.362170004656077"><ele>520.5</ele><time>2026-04-26T09:03:05.708Z</time></trkpt><trkpt lat="40.78471532344016" lon="9.362494855069208"><ele>520.0</ele><time>2026-04-26T09:03:06.708Z</time></trkpt><trkpt lat="40.784706935756816" lon="9.362799957163379"><ele>519.3333333333334</ele><time>2026-04-26T09:03:07.708Z</time></trkpt><trkpt lat="40.78470467928534" lon="9.363076200767233"><ele>518.6666666666666</ele><time>2026-04-26T09:03:08.708Z</time></trkpt><trkpt lat="40.78470536458316" lon="9.36331493892539"><ele>518.0</ele><time>2026-04-26T09:03:09.708Z</time></trkpt><trkpt lat="40.78476163533859" lon="9.363511009674575"><ele>518.0</ele><time>2026-04-26T09:03:10.708Z</time></trkpt><trkpt lat="40.78487983139135" lon="9.363665652270482"><ele>518.0</ele><time>2026-04-26T09:03:11.708Z</time></trkpt><trkpt lat="40.784984253359994" lon="9.363825041470108"><ele>518.0</ele><time>2026-04-26T09:03:12.708Z</time></trkpt><trkpt lat="40.78504179279535" lon="9.363985940765787"><ele>516.5</ele><time>2026-04-26T09:03:13.708Z</time></trkpt><trkpt lat="40.785023297582995" lon="9.364156305979506"><ele>515.0</ele><time>2026-04-26T09:03:14.708Z</time></trkpt><trkpt lat="40.78494991624911" lon="9.364284630647607"><ele>513.5</ele><time>2026-04-26T09:03:15.708Z</time></trkpt><trkpt lat="40.784874634134084" lon="9.364415237720747"><ele>512.0</ele><time>2026-04-26T09:03:16.708Z</time></trkpt><trkpt lat="40.78483581606684" lon="9.364591943339663"><ele>511.0</ele><time>2026-04-26T09:03:17.708Z</time></trkpt><trkpt lat="40.78483705651034" lon="9.364793056087313"><ele>510.0</ele><time>2026-04-26T09:03:18.708Z</time></trkpt><trkpt lat="40.7848742895933" lon="9.365014493851612"><ele>509.0</ele><time>2026-04-26T09:03:19.708Z</time></trkpt><trkpt lat="40.784897695062014" lon="9.365225877373287"><ele>509.0</ele><time>2026-04-26T09:03:20.708Z</time></trkpt><trkpt lat="40.784916727757484" lon="9.365418416312"><ele>509.0</ele><time>2026-04-26T09:03:21.708Z</time></trkpt><trkpt lat="40.784902978901656" lon="9.365614762077541"><ele>509.0</ele><time>2026-04-26T09:03:22.707Z</time></trkpt><trkpt lat="40.78483967744359" lon="9.365855176528935"><ele>508.0</ele><time>2026-04-26T09:03:23.707Z</time></trkpt><trkpt lat="40.78472680603711" lon="9.366097791092294"><ele>507.0</ele><time>2026-04-26T09:03:24.707Z</time></trkpt><trkpt lat="40.78461146838728" lon="9.366298235487243"><ele>506.0</ele><time>2026-04-26T09:03:25.707Z</time></trkpt><trkpt lat="40.784463466196534" lon="9.366436384415502"><ele>506.66666666666663</ele><time>2026-04-26T09:03:26.707Z</time></trkpt><trkpt lat="40.78427702613306" lon="9.366488126732586"><ele>507.33333333333337</ele><time>2026-04-26T09:03:27.707Z</time></trkpt><trkpt lat="40.78405818579263" lon="9.366514373967178"><ele>508.0</ele><time>2026-04-26T09:03:28.707Z</time></trkpt><trkpt lat="40.783835021443636" lon="9.366528475970958"><ele>508.0</ele><time>2026-04-26T09:03:29.707Z</time></trkpt><trkpt lat="40.78361832261659" lon="9.366508797636392"><ele>508.0</ele><time>2026-04-26T09:03:30.707Z</time></trkpt><trkpt lat="40.783408380540976" lon="9.3664127720472"><ele>508.0</ele><time>2026-04-26T09:03:31.707Z</time></trkpt><trkpt lat="40.78321875168495" lon="9.366258931943733"><ele>506.0</ele><time>2026-04-26T09:03:32.707Z</time></trkpt><trkpt lat="40.78305065455542" lon="9.366082226489565"><ele>504.0</ele><time>2026-04-26T09:03:33.707Z</time></trkpt><trkpt lat="40.782899910363746" lon="9.365927289190402"><ele>502.0</ele><time>2026-04-26T09:03:34.707Z</time></trkpt><trkpt lat="40.78275950069861" lon="9.36580341766282"><ele>501.75</ele><time>2026-04-26T09:03:35.707Z</time></trkpt><trkpt lat="40.78262614858239" lon="9.365738069888966"><ele>501.5</ele><time>2026-04-26T09:03:36.707Z</time></trkpt><trkpt lat="40.782491869552686" lon="9.365754458624426"><ele>501.25</ele><time>2026-04-26T09:03:37.707Z</time></trkpt><trkpt lat="40.78237576959916" lon="9.365896097045283"><ele>501.0</ele><time>2026-04-26T09:03:38.707Z</time></trkpt><trkpt lat="40.782276399278366" lon="9.3661096592491"><ele>501.0</ele><time>2026-04-26T09:03:39.707Z</time></trkpt><trkpt lat="40.78216880640927" lon="9.366344870441997"><ele>501.0</ele><time>2026-04-26T09:03:40.707Z</time></trkpt><trkpt lat="40.78206146660101" lon="9.366556337104988"><ele>501.0</ele><time>2026-04-26T09:03:41.707Z</time></trkpt><trkpt lat="40.7819345964026" lon="9.366691639641797"><ele>499.0</ele><time>2026-04-26T09:03:42.707Z</time></trkpt><trkpt lat="40.78175919856996" lon="9.366772292941542"><ele>497.0</ele><time>2026-04-26T09:03:43.707Z</time></trkpt><trkpt lat="40.781529026611295" lon="9.366802608579468"><ele>495.0</ele><time>2026-04-26T09:03:44.708Z</time></trkpt><trkpt lat="40.781269805151304" lon="9.366810126240448"><ele>495.0</ele><time>2026-04-26T09:03:45.708Z</time></trkpt><trkpt lat="40.781035789874686" lon="9.3668354958214"><ele>495.0</ele><time>2026-04-26T09:03:46.708Z</time></trkpt><trkpt lat="40.780824888863435" lon="9.366863173439723"><ele>495.0</ele><time>2026-04-26T09:03:47.708Z</time></trkpt><trkpt lat="40.78064657717566" lon="9.366933894625966"><ele>494.33333333333337</ele><time>2026-04-26T09:03:48.707Z</time></trkpt><trkpt lat="40.780508539564586" lon="9.367100021433412"><ele>493.6666666666667</ele><time>2026-04-26T09:03:49.707Z</time></trkpt><trkpt lat="40.78037100081442" lon="9.367318227109806"><ele>493.0</ele><time>2026-04-26T09:03:50.707Z</time></trkpt><trkpt lat="40.78021945377686" lon="9.367559866616144"><ele>491.6666666666667</ele><time>2026-04-26T09:03:51.708Z</time></trkpt><trkpt lat="40.78007093124865" lon="9.3677845690556"><ele>490.33333333333337</ele><time>2026-04-26T09:03:52.707Z</time></trkpt><trkpt lat="40.77993211220409" lon="9.367973892213595"><ele>489.0</ele><time>2026-04-26T09:03:53.707Z</time></trkpt><trkpt lat="40.779768306840104" lon="9.3681396501305"><ele>489.0</ele><time>2026-04-26T09:03:54.707Z</time></trkpt><trkpt lat="40.779568502883016" lon="9.368256520908599"><ele>489.0</ele><time>2026-04-26T09:03:55.707Z</time></trkpt><trkpt lat="40.77934357581173" lon="9.368339044344863"><ele>489.5</ele><time>2026-04-26T09:03:56.707Z</time></trkpt><trkpt lat="40.77910901242094" lon="9.368415032136332"><ele>490.0</ele><time>2026-04-26T09:03:57.707Z</time></trkpt><trkpt lat="40.77886085040604" lon="9.368498669805977"><ele>490.0</ele><time>2026-04-26T09:03:58.707Z</time></trkpt><trkpt lat="40.7786100939897" lon="9.368590671461778"><ele>490.0</ele><time>2026-04-26T09:03:59.707Z</time></trkpt><trkpt lat="40.77835581503015" lon="9.368691159589382"><ele>489.5</ele><time>2026-04-26T09:04:00.707Z</time></trkpt><trkpt lat="40.77809817622784" lon="9.368790973042243"><ele>489.0</ele><time>2026-04-26T09:04:01.707Z</time></trkpt><trkpt lat="40.77784030033192" lon="9.368891426235908"><ele>489.5</ele><time>2026-04-26T09:04:02.707Z</time></trkpt><trkpt lat="40.77758236761178" lon="9.368986363672551"><ele>490.0</ele><time>2026-04-26T09:04:03.707Z</time></trkpt><trkpt lat="40.777329080005075" lon="9.369081127730077"><ele>490.0</ele><time>2026-04-26T09:04:04.707Z</time></trkpt><trkpt lat="40.77709867102714" lon="9.36916776445645"><ele>490.0</ele><time>2026-04-26T09:04:05.707Z</time></trkpt><trkpt lat="40.776882854454094" lon="9.36924798326823"><ele>490.6666666666667</ele><time>2026-04-26T09:04:06.707Z</time></trkpt><trkpt lat="40.77666985660898" lon="9.369324897967253"><ele>491.33333333333337</ele><time>2026-04-26T09:04:07.707Z</time></trkpt><trkpt lat="40.77646016189221" lon="9.36940708246112"><ele>492.0</ele><time>2026-04-26T09:04:08.707Z</time></trkpt><trkpt lat="40.77625067386289" lon="9.369488649786192"><ele>492.0</ele><time>2026-04-26T09:04:09.706Z</time></trkpt><trkpt lat="40.77603846771351" lon="9.369568293863328"><ele>492.0</ele><time>2026-04-26T09:04:10.706Z</time></trkpt><trkpt lat="40.775824465378896" lon="9.36964518702823"><ele>492.0</ele><time>2026-04-26T09:04:11.706Z</time></trkpt><trkpt lat="40.77562421826872" lon="9.369723721838684"><ele>492.66666666666663</ele><time>2026-04-26T09:04:12.706Z</time></trkpt><trkpt lat="40.77543613252293" lon="9.369794279087479"><ele>493.3333333333333</ele><time>2026-04-26T09:04:13.706Z</time></trkpt><trkpt lat="40.775250848549724" lon="9.369863086772526"><ele>494.0</ele><time>2026-04-26T09:04:14.706Z</time></trkpt><trkpt lat="40.77506187005049" lon="9.369923212752186"><ele>496.0</ele><time>2026-04-26T09:04:15.706Z</time></trkpt><trkpt lat="40.77487307972532" lon="9.369969978393152"><ele>498.0</ele><time>2026-04-26T09:04:16.706Z</time></trkpt><trkpt lat="40.774683248909966" lon="9.37000158800372"><ele>500.0</ele><time>2026-04-26T09:04:17.706Z</time></trkpt><trkpt lat="40.77447605772614" lon="9.369962296793524"><ele>501.5</ele><time>2026-04-26T09:04:18.706Z</time></trkpt><trkpt lat="40.77424500247544" lon="9.369900898993178"><ele>503.0</ele><time>2026-04-26T09:04:19.706Z</time></trkpt><trkpt lat="40.77401462340321" lon="9.369839901283825"><ele>503.0</ele><time>2026-04-26T09:04:20.706Z</time></trkpt><trkpt lat="40.77378563378248" lon="9.369792381656294"><ele>503.0</ele><time>2026-04-26T09:04:21.706Z</time></trkpt><trkpt lat="40.77357246963509" lon="9.369684320461303"><ele>506.66666666666663</ele><time>2026-04-26T09:04:22.706Z</time></trkpt><trkpt lat="40.77336604314502" lon="9.369540141667827"><ele>510.33333333333337</ele><time>2026-04-26T09:04:23.706Z</time></trkpt><trkpt lat="40.77316601412425" lon="9.369435945904895"><ele>514.0</ele><time>2026-04-26T09:04:24.706Z</time></trkpt><trkpt lat="40.77299044095439" lon="9.369328918648733"><ele>514.0</ele><time>2026-04-26T09:04:25.706Z</time></trkpt><trkpt lat="40.772822422715166" lon="9.369142280154831"><ele>514.0</ele><time>2026-04-26T09:04:26.706Z</time></trkpt><trkpt lat="40.772670592137636" lon="9.368915448746435"><ele>514.0</ele><time>2026-04-26T09:04:27.706Z</time></trkpt><trkpt lat="40.772501682078925" lon="9.368708879635474"><ele>513.6666666666667</ele><time>2026-04-26T09:04:28.706Z</time></trkpt><trkpt lat="40.77231265215945" lon="9.368542482835466"><ele>513.3333333333334</ele><time>2026-04-26T09:04:29.706Z</time></trkpt><trkpt lat="40.77210986864958" lon="9.368426461345688"><ele>513.0</ele><time>2026-04-26T09:04:30.706Z</time></trkpt><trkpt lat="40.77193105631585" lon="9.368258841544014"><ele>514.6666666666666</ele><time>2026-04-26T09:04:31.706Z</time></trkpt><trkpt lat="40.771790627995436" lon="9.368102873046013"><ele>516.3333333333333</ele><time>2026-04-26T09:04:32.706Z</time></trkpt><trkpt lat="40.77159545306743" lon="9.368042871367201"><ele>518.0</ele><time>2026-04-26T09:04:33.705Z</time></trkpt><trkpt lat="40.77137092007578" lon="9.367986854719627"><ele>518.0</ele><time>2026-04-26T09:04:34.705Z</time></trkpt><trkpt lat="40.771139317616665" lon="9.367881101434513"><ele>518.0</ele><time>2026-04-26T09:04:35.705Z</time></trkpt><trkpt lat="40.77090671229101" lon="9.367772220946147"><ele>516.0</ele><time>2026-04-26T09:04:36.705Z</time></trkpt><trkpt lat="40.77065024491497" lon="9.367730152528855"><ele>514.0</ele><time>2026-04-26T09:04:37.705Z</time></trkpt><trkpt lat="40.77041516683187" lon="9.367667661258661"><ele>514.0</ele><time>2026-04-26T09:04:38.705Z</time></trkpt><trkpt lat="40.77020787266093" lon="9.367548471179528"><ele>514.0</ele><time>2026-04-26T09:04:39.705Z</time></trkpt><trkpt lat="40.77000499669903" lon="9.367498228114982"><ele>514.0</ele><time>2026-04-26T09:04:40.705Z</time></trkpt><trkpt lat="40.769782821675236" lon="9.367468725387553"><ele>512.5</ele><time>2026-04-26T09:04:41.705Z</time></trkpt><trkpt lat="40.76957039422536" lon="9.367397651925602"><ele>511.0</ele><time>2026-04-26T09:04:42.705Z</time></trkpt><trkpt lat="40.76934987746602" lon="9.367309458394388"><ele>518.0</ele><time>2026-04-26T09:04:43.705Z</time></trkpt><trkpt lat="40.769149147595186" lon="9.367167799193261"><ele>525.0</ele><time>2026-04-26T09:04:44.705Z</time></trkpt><trkpt lat="40.768966985144" lon="9.366977165802334"><ele>525.0</ele><time>2026-04-26T09:04:45.705Z</time></trkpt><trkpt lat="40.76881185120035" lon="9.366791993080946"><ele>525.0</ele><time>2026-04-26T09:04:46.705Z</time></trkpt><trkpt lat="40.76864822224401" lon="9.366665286503293"><ele>525.0</ele><time>2026-04-26T09:04:47.705Z</time></trkpt><trkpt lat="40.768446930811805" lon="9.366598244196451"><ele>519.0</ele><time>2026-04-26T09:04:48.705Z</time></trkpt><trkpt lat="40.76822470901201" lon="9.36653764257885"><ele>513.0</ele><time>2026-04-26T09:04:49.705Z</time></trkpt><trkpt lat="40.76799954765387" lon="9.366461498406524"><ele>513.0</ele><time>2026-04-26T09:04:50.705Z</time></trkpt><trkpt lat="40.76777922792645" lon="9.36638430815211"><ele>513.0</ele><time>2026-04-26T09:04:51.705Z</time></trkpt><trkpt lat="40.76755568635943" lon="9.36631191031691"><ele>516.6666666666666</ele><time>2026-04-26T09:04:52.705Z</time></trkpt><trkpt lat="40.76733329320371" lon="9.36624491847268"><ele>520.3333333333333</ele><time>2026-04-26T09:04:53.705Z</time></trkpt><trkpt lat="40.76712139731732" lon="9.366189628111519"><ele>524.0</ele><time>2026-04-26T09:04:54.705Z</time></trkpt><trkpt lat="40.76691789510204" lon="9.366147503287095"><ele>522.3333333333333</ele><time>2026-04-26T09:04:55.705Z</time></trkpt><trkpt lat="40.766728663469834" lon="9.366118302979155"><ele>520.6666666666666</ele><time>2026-04-26T09:04:56.705Z</time></trkpt><trkpt lat="40.76653849532997" lon="9.366072519852548"><ele>519.0</ele><time>2026-04-26T09:04:57.704Z</time></trkpt><trkpt lat="40.76633849281423" lon="9.365977075007292"><ele>519.0</ele><time>2026-04-26T09:04:58.704Z</time></trkpt><trkpt lat="40.76613646154142" lon="9.365867202112852"><ele>519.0</ele><time>2026-04-26T09:04:59.704Z</time></trkpt><trkpt lat="40.765934644761714" lon="9.36574702922248"><ele>519.0</ele><time>2026-04-26T09:05:00.704Z</time></trkpt><trkpt lat="40.76575988311062" lon="9.365627908775615"><ele>518.0</ele><time>2026-04-26T09:05:01.704Z</time></trkpt><trkpt lat="40.76561448800952" lon="9.365556936989213"><ele>517.0</ele><time>2026-04-26T09:05:02.704Z</time></trkpt><trkpt lat="40.76544378300377" lon="9.365594949483995"><ele>516.0</ele><time>2026-04-26T09:05:03.704Z</time></trkpt><trkpt lat="40.76525979997421" lon="9.365714663075918"><ele>516.3333333333334</ele><time>2026-04-26T09:05:04.704Z</time></trkpt><trkpt lat="40.7650699954215" lon="9.36584026537781"><ele>516.6666666666667</ele><time>2026-04-26T09:05:05.704Z</time></trkpt><trkpt lat="40.76488885019705" lon="9.365940247723447"><ele>517.0</ele><time>2026-04-26T09:05:06.704Z</time></trkpt><trkpt lat="40.76473142159179" lon="9.365972422645113"><ele>517.0</ele><time>2026-04-26T09:05:07.704Z</time></trkpt><trkpt lat="40.764586793553136" lon="9.365892209065626"><ele>517.0</ele><time>2026-04-26T09:05:08.704Z</time></trkpt><trkpt lat="40.764453040214825" lon="9.36572280137862"><ele>517.0</ele><time>2026-04-26T09:05:09.704Z</time></trkpt><trkpt lat="40.76432096215064" lon="9.365551221795094"><ele>519.6666666666667</ele><time>2026-04-26T09:05:10.704Z</time></trkpt><trkpt lat="40.76414600773944" lon="9.365449351333563"><ele>522.3333333333334</ele><time>2026-04-26T09:05:11.704Z</time></trkpt><trkpt lat="40.7639837929188" lon="9.365388561017689"><ele>525.0</ele><time>2026-04-26T09:05:12.704Z</time></trkpt><trkpt lat="40.763833168222334" lon="9.365381098589928"><ele>525.0</ele><time>2026-04-26T09:05:13.704Z</time></trkpt><trkpt lat="40.76368231102802" lon="9.365461988841865"><ele>525.0</ele><time>2026-04-26T09:05:14.704Z</time></trkpt><trkpt lat="40.76353998877512" lon="9.365618913768218"><ele>525.0</ele><time>2026-04-26T09:05:15.704Z</time></trkpt><trkpt lat="40.763398587450595" lon="9.365788271216097"><ele>524.3333333333334</ele><time>2026-04-26T09:05:16.704Z</time></trkpt><trkpt lat="40.76323738522397" lon="9.365915740336575"><ele>523.6666666666667</ele><time>2026-04-26T09:05:17.704Z</time></trkpt><trkpt lat="40.7630462168016" lon="9.366025029111887"><ele>523.0</ele><time>2026-04-26T09:05:18.704Z</time></trkpt><trkpt lat="40.76284937049499" lon="9.366109912791648"><ele>524.0</ele><time>2026-04-26T09:05:19.704Z</time></trkpt><trkpt lat="40.76264504745557" lon="9.366178423628767"><ele>525.0</ele><time>2026-04-26T09:05:20.704Z</time></trkpt><trkpt lat="40.76244458619603" lon="9.366225747649938"><ele>526.0</ele><time>2026-04-26T09:05:21.703Z</time></trkpt><trkpt lat="40.76224956502387" lon="9.36624201810285"><ele>526.0</ele><time>2026-04-26T09:05:22.703Z</time></trkpt><trkpt lat="40.762058873797464" lon="9.366180466531398"><ele>526.0</ele><time>2026-04-26T09:05:23.703Z</time></trkpt><trkpt lat="40.761879096619744" lon="9.36604714795804"><ele>526.0</ele><time>2026-04-26T09:05:24.703Z</time></trkpt><trkpt lat="40.76169202087761" lon="9.36591083406503"><ele>527.0</ele><time>2026-04-26T09:05:25.703Z</time></trkpt><trkpt lat="40.76151048364003" lon="9.365776905386427"><ele>528.0</ele><time>2026-04-26T09:05:26.703Z</time></trkpt><trkpt lat="40.76134812971856" lon="9.365665018685057"><ele>529.0</ele><time>2026-04-26T09:05:27.703Z</time></trkpt><trkpt lat="40.761196303211236" lon="9.365559330341814"><ele>530.0</ele><time>2026-04-26T09:05:28.703Z</time></trkpt><trkpt lat="40.76103283739896" lon="9.365513023446294"><ele>531.0</ele><time>2026-04-26T09:05:29.703Z</time></trkpt><trkpt lat="40.7608572311916" lon="9.365570547259283"><ele>532.0</ele><time>2026-04-26T09:05:30.703Z</time></trkpt><trkpt lat="40.760677913015314" lon="9.365723498199511"><ele>532.5</ele><time>2026-04-26T09:05:31.703Z</time></trkpt><trkpt lat="40.760493308194114" lon="9.365915606688317"><ele>533.0</ele><time>2026-04-26T09:05:32.703Z</time></trkpt><trkpt lat="40.760302782027054" lon="9.366076964112239"><ele>535.0</ele><time>2026-04-26T09:05:33.703Z</time></trkpt><trkpt lat="40.760093784440755" lon="9.366187246303175"><ele>537.0</ele><time>2026-04-26T09:05:34.703Z</time></trkpt><trkpt lat="40.75988678172966" lon="9.366237704519941"><ele>539.0</ele><time>2026-04-26T09:05:35.703Z</time></trkpt><trkpt lat="40.75967157588064" lon="9.36626093838733"><ele>539.0</ele><time>2026-04-26T09:05:36.703Z</time></trkpt><trkpt lat="40.75946324365609" lon="9.366286949925296"><ele>539.0</ele><time>2026-04-26T09:05:37.703Z</time></trkpt><trkpt lat="40.75925004924445" lon="9.366305640690754"><ele>539.0</ele><time>2026-04-26T09:05:38.703Z</time></trkpt><trkpt lat="40.75906112161526" lon="9.366364570885175"><ele>538.3333333333333</ele><time>2026-04-26T09:05:39.703Z</time></trkpt><trkpt lat="40.75888769537388" lon="9.366496967874285"><ele>537.6666666666666</ele><time>2026-04-26T09:05:40.703Z</time></trkpt><trkpt lat="40.75873961774605" lon="9.36667022913636"><ele>537.0</ele><time>2026-04-26T09:05:41.703Z</time></trkpt><trkpt lat="40.75857306563274" lon="9.366789701403329"><ele>535.3333333333334</ele><time>2026-04-26T09:05:42.703Z</time></trkpt><trkpt lat="40.75839336358916" lon="9.366829927632823"><ele>533.6666666666667</ele><time>2026-04-26T09:05:43.703Z</time></trkpt><trkpt lat="40.758188242652196" lon="9.366805737566859"><ele>532.0</ele><time>2026-04-26T09:05:44.703Z</time></trkpt><trkpt lat="40.75797661670761" lon="9.366780142133466"><ele>532.0</ele><time>2026-04-26T09:05:45.702Z</time></trkpt><trkpt lat="40.757787715546755" lon="9.36680593119105"><ele>532.0</ele><time>2026-04-26T09:05:46.702Z</time></trkpt><trkpt lat="40.75762738316769" lon="9.366843217006831"><ele>532.0</ele><time>2026-04-26T09:05:47.702Z</time></trkpt><trkpt lat="40.7574855253926" lon="9.366879664541484"><ele>531.25</ele><time>2026-04-26T09:05:48.702Z</time></trkpt><trkpt lat="40.757357289960886" lon="9.366909264004745"><ele>530.5</ele><time>2026-04-26T09:05:49.702Z</time></trkpt><trkpt lat="40.75723722312416" lon="9.366913892267934"><ele>529.75</ele><time>2026-04-26T09:05:50.703Z</time></trkpt><trkpt lat="40.75710399513483" lon="9.366867510022791"><ele>529.0</ele><time>2026-04-26T09:05:51.704Z</time></trkpt><trkpt lat="40.75695874619463" lon="9.366772470822662"><ele>527.0</ele><time>2026-04-26T09:05:52.704Z</time></trkpt><trkpt lat="40.756804393706744" lon="9.366649634051237"><ele>525.0</ele><time>2026-04-26T09:05:53.703Z</time></trkpt><trkpt lat="40.756638193431" lon="9.366519773546099"><ele>523.0</ele><time>2026-04-26T09:05:54.703Z</time></trkpt><trkpt lat="40.75647054612244" lon="9.36639450899907"><ele>524.6666666666667</ele><time>2026-04-26T09:05:55.703Z</time></trkpt><trkpt lat="40.7563191447074" lon="9.366281394040623"><ele>526.3333333333334</ele><time>2026-04-26T09:05:56.703Z</time></trkpt><trkpt lat="40.756157440525264" lon="9.366262391223755"><ele>528.0</ele><time>2026-04-26T09:05:57.703Z</time></trkpt><trkpt lat="40.755979705076484" lon="9.366353182515862"><ele>526.0</ele><time>2026-04-26T09:05:58.703Z</time></trkpt><trkpt lat="40.75579901003436" lon="9.366507224263701"><ele>524.0</ele><time>2026-04-26T09:05:59.703Z</time></trkpt><trkpt lat="40.75559741426317" lon="9.366644654770322"><ele>522.0</ele><time>2026-04-26T09:06:00.703Z</time></trkpt><trkpt lat="40.755370334860864" lon="9.366745435657068"><ele>522.0</ele><time>2026-04-26T09:06:01.703Z</time></trkpt><trkpt lat="40.755127903616035" lon="9.366841534916276"><ele>522.0</ele><time>2026-04-26T09:06:02.703Z</time></trkpt><trkpt lat="40.75488892037872" lon="9.36693267658304"><ele>522.0</ele><time>2026-04-26T09:06:03.703Z</time></trkpt><trkpt lat="40.75466676352123" lon="9.367024782180202"><ele>522.0</ele><time>2026-04-26T09:06:04.703Z</time></trkpt><trkpt lat="40.75446096132979" lon="9.36712812918553"><ele>520.0</ele><time>2026-04-26T09:06:05.703Z</time></trkpt><trkpt lat="40.75428546319999" lon="9.367280139920927"><ele>518.0</ele><time>2026-04-26T09:06:06.703Z</time></trkpt><trkpt lat="40.754136579135654" lon="9.367454522120273"><ele>516.0</ele><time>2026-04-26T09:06:07.702Z</time></trkpt><trkpt lat="40.7539853224397" lon="9.36758717749188"><ele>516.0</ele><time>2026-04-26T09:06:08.702Z</time></trkpt><trkpt lat="40.753796743924205" lon="9.367647536412605"><ele>516.0</ele><time>2026-04-26T09:06:09.702Z</time></trkpt><trkpt lat="40.753580487721884" lon="9.367677735834238"><ele>516.0</ele><time>2026-04-26T09:06:10.702Z</time></trkpt><trkpt lat="40.75335025277173" lon="9.367704334433467"><ele>517.5</ele><time>2026-04-26T09:06:11.702Z</time></trkpt><trkpt lat="40.75311765104961" lon="9.367742323764242"><ele>519.0</ele><time>2026-04-26T09:06:12.702Z</time></trkpt><trkpt lat="40.752901365854214" lon="9.3677760421974"><ele>516.0</ele><time>2026-04-26T09:06:13.702Z</time></trkpt><trkpt lat="40.752689126242856" lon="9.367824217563486"><ele>513.0</ele><time>2026-04-26T09:06:14.702Z</time></trkpt><trkpt lat="40.75246242005991" lon="9.367924031950057"><ele>510.0</ele><time>2026-04-26T09:06:15.702Z</time></trkpt><trkpt lat="40.75224026246395" lon="9.368073178457207"><ele>507.0</ele><time>2026-04-26T09:06:16.702Z</time></trkpt><trkpt lat="40.752025187744245" lon="9.368231389686606"><ele>508.5</ele><time>2026-04-26T09:06:17.702Z</time></trkpt><trkpt lat="40.751818763075356" lon="9.368385894525314"><ele>510.0</ele><time>2026-04-26T09:06:18.702Z</time></trkpt><trkpt lat="40.75162315811163" lon="9.368530753152408"><ele>510.0</ele><time>2026-04-26T09:06:19.702Z</time></trkpt><trkpt lat="40.751461071625954" lon="9.368707349122184"><ele>510.0</ele><time>2026-04-26T09:06:20.702Z</time></trkpt><trkpt lat="40.75133092921663" lon="9.368951029418199"><ele>510.0</ele><time>2026-04-26T09:06:21.702Z</time></trkpt><trkpt lat="40.75117240179017" lon="9.36918672669304"><ele>511.0</ele><time>2026-04-26T09:06:22.702Z</time></trkpt><trkpt lat="40.750957732096566" lon="9.369370204215224"><ele>512.0</ele><time>2026-04-26T09:06:23.702Z</time></trkpt><trkpt lat="40.7507341477815" lon="9.369548121067414"><ele>503.5</ele><time>2026-04-26T09:06:24.702Z</time></trkpt><trkpt lat="40.75052575682789" lon="9.36972864109791"><ele>495.0</ele><time>2026-04-26T09:06:25.702Z</time></trkpt><trkpt lat="40.75033063280956" lon="9.369890823824889"><ele>495.66666666666663</ele><time>2026-04-26T09:06:26.702Z</time></trkpt><trkpt lat="40.750125733701225" lon="9.369967042846044"><ele>496.3333333333333</ele><time>2026-04-26T09:06:27.702Z</time></trkpt><trkpt lat="40.7499154138217" lon="9.369959092477798"><ele>497.0</ele><time>2026-04-26T09:06:28.702Z</time></trkpt><trkpt lat="40.74974176674471" lon="9.369954644842155"><ele>497.0</ele><time>2026-04-26T09:06:29.702Z</time></trkpt><trkpt lat="40.749584271503075" lon="9.369879648158063"><ele>497.0</ele><time>2026-04-26T09:06:30.702Z</time></trkpt><trkpt lat="40.74944038991288" lon="9.369718976879774"><ele>497.0</ele><time>2026-04-26T09:06:31.701Z</time></trkpt><trkpt lat="40.74928278650984" lon="9.369536385024686"><ele>501.0</ele><time>2026-04-26T09:06:32.701Z</time></trkpt><trkpt lat="40.74908235596647" lon="9.36939913943097"><ele>505.0</ele><time>2026-04-26T09:06:33.701Z</time></trkpt><trkpt lat="40.748861771404876" lon="9.369278310263647"><ele>505.0</ele><time>2026-04-26T09:06:34.701Z</time></trkpt><trkpt lat="40.748621418974196" lon="9.369166094142322"><ele>505.0</ele><time>2026-04-26T09:06:35.701Z</time></trkpt><trkpt lat="40.74836012646525" lon="9.36907366554048"><ele>498.0</ele><time>2026-04-26T09:06:36.701Z</time></trkpt><trkpt lat="40.748109391595754" lon="9.369000515004007"><ele>491.0</ele><time>2026-04-26T09:06:37.701Z</time></trkpt><trkpt lat="40.74787477095591" lon="9.368954461483007"><ele>492.0</ele><time>2026-04-26T09:06:38.701Z</time></trkpt><trkpt lat="40.74765333311905" lon="9.368895986624855"><ele>493.0</ele><time>2026-04-26T09:06:39.701Z</time></trkpt><trkpt lat="40.747466354252566" lon="9.368752164335993"><ele>494.0</ele><time>2026-04-26T09:06:40.701Z</time></trkpt><trkpt lat="40.747283855538015" lon="9.368547755670555"><ele>494.0</ele><time>2026-04-26T09:06:41.701Z</time></trkpt><trkpt lat="40.74709609289987" lon="9.368322053017655"><ele>494.0</ele><time>2026-04-26T09:06:42.701Z</time></trkpt><trkpt lat="40.74691792028391" lon="9.368085995131583"><ele>488.0</ele><time>2026-04-26T09:06:43.701Z</time></trkpt><trkpt lat="40.746759384384696" lon="9.367803760340124"><ele>482.0</ele><time>2026-04-26T09:06:44.701Z</time></trkpt><trkpt lat="40.74659454122153" lon="9.367506745769147"><ele>482.0</ele><time>2026-04-26T09:06:45.701Z</time></trkpt><trkpt lat="40.74641565847476" lon="9.36720366409187"><ele>482.0</ele><time>2026-04-26T09:06:46.701Z</time></trkpt><trkpt lat="40.746229788977566" lon="9.366908490393415"><ele>478.5</ele><time>2026-04-26T09:06:47.701Z</time></trkpt><trkpt lat="40.7460353035241" lon="9.366647050876924"><ele>475.0</ele><time>2026-04-26T09:06:48.701Z</time></trkpt><trkpt lat="40.74584017609305" lon="9.366417999741044"><ele>475.0</ele><time>2026-04-26T09:06:49.701Z</time></trkpt><trkpt lat="40.74564985957938" lon="9.366222325668847"><ele>475.0</ele><time>2026-04-26T09:06:50.701Z</time></trkpt><trkpt lat="40.74543518277094" lon="9.36608971300533"><ele>475.0</ele><time>2026-04-26T09:06:51.701Z</time></trkpt><trkpt lat="40.74519398651835" lon="9.366013384489028"><ele>475.0</ele><time>2026-04-26T09:06:52.701Z</time></trkpt><trkpt lat="40.74495979720002" lon="9.365983903386756"><ele>475.0</ele><time>2026-04-26T09:06:53.701Z</time></trkpt><trkpt lat="40.74472666792304" lon="9.365968977349057"><ele>475.0</ele><time>2026-04-26T09:06:54.701Z</time></trkpt><trkpt lat="40.74447708525832" lon="9.365958704043923"><ele>470.5</ele><time>2026-04-26T09:06:55.7Z</time></trkpt><trkpt lat="40.74422249946701" lon="9.365948829727701"><ele>466.0</ele><time>2026-04-26T09:06:56.7Z</time></trkpt><trkpt lat="40.74396949382415" lon="9.365927888170152"><ele>466.0</ele><time>2026-04-26T09:06:57.7Z</time></trkpt><trkpt lat="40.743726689219216" lon="9.365917454930429"><ele>466.0</ele><time>2026-04-26T09:06:58.7Z</time></trkpt><trkpt lat="40.74348369971067" lon="9.365912601943336"><ele>467.0</ele><time>2026-04-26T09:06:59.7Z</time></trkpt><trkpt lat="40.743243794887405" lon="9.365905912438356"><ele>468.0</ele><time>2026-04-26T09:07:00.7Z</time></trkpt><trkpt lat="40.74301089797811" lon="9.365897635724846"><ele>468.0</ele><time>2026-04-26T09:07:01.7Z</time></trkpt><trkpt lat="40.74277435024471" lon="9.365890801252752"><ele>468.0</ele><time>2026-04-26T09:07:02.7Z</time></trkpt><trkpt lat="40.74253902484874" lon="9.365878472850493"><ele>469.0</ele><time>2026-04-26T09:07:03.7Z</time></trkpt><trkpt lat="40.74230598994933" lon="9.365870562200017"><ele>470.0</ele><time>2026-04-26T09:07:04.7Z</time></trkpt><trkpt lat="40.74208657730766" lon="9.365864289254002"><ele>468.0</ele><time>2026-04-26T09:07:05.7Z</time></trkpt><trkpt lat="40.74185802733655" lon="9.365858313839418"><ele>466.0</ele><time>2026-04-26T09:07:06.7Z</time></trkpt><trkpt lat="40.74163439967999" lon="9.365844185240844"><ele>466.0</ele><time>2026-04-26T09:07:07.7Z</time></trkpt><trkpt lat="40.74141785481074" lon="9.365839509741939"><ele>466.0</ele><time>2026-04-26T09:07:08.7Z</time></trkpt><trkpt lat="40.74119149632613" lon="9.365826602189117"><ele>466.0</ele><time>2026-04-26T09:07:09.7Z</time></trkpt><trkpt lat="40.74095942251715" lon="9.365812071317409"><ele>465.5</ele><time>2026-04-26T09:07:10.7Z</time></trkpt><trkpt lat="40.740719743898886" lon="9.365790948812323"><ele>465.0</ele><time>2026-04-26T09:07:11.7Z</time></trkpt><trkpt lat="40.74048216073212" lon="9.365711287265427"><ele>465.0</ele><time>2026-04-26T09:07:12.7Z</time></trkpt><trkpt lat="40.74025718654671" lon="9.3655627396728"><ele>465.0</ele><time>2026-04-26T09:07:13.7Z</time></trkpt><trkpt lat="40.740052519631654" lon="9.36536520838872"><ele>467.0</ele><time>2026-04-26T09:07:14.7Z</time></trkpt><trkpt lat="40.739877983847556" lon="9.36511727717576"><ele>469.0</ele><time>2026-04-26T09:07:15.7Z</time></trkpt><trkpt lat="40.739721905453386" lon="9.364843823781836"><ele>469.5</ele><time>2026-04-26T09:07:16.7Z</time></trkpt><trkpt lat="40.739562120388264" lon="9.364567304689036"><ele>470.0</ele><time>2026-04-26T09:07:17.7Z</time></trkpt><trkpt lat="40.73940027774088" lon="9.364298866646763"><ele>470.5</ele><time>2026-04-26T09:07:18.7Z</time></trkpt><trkpt lat="40.739242275699034" lon="9.364029173691433"><ele>471.0</ele><time>2026-04-26T09:07:19.699Z</time></trkpt><trkpt lat="40.739093412597086" lon="9.363761180552801"><ele>474.5</ele><time>2026-04-26T09:07:20.699Z</time></trkpt><trkpt lat="40.73896141672467" lon="9.363494307111244"><ele>478.0</ele><time>2026-04-26T09:07:21.699Z</time></trkpt><trkpt lat="40.738845425680836" lon="9.363219413681316"><ele>481.5</ele><time>2026-04-26T09:07:22.699Z</time></trkpt><trkpt lat="40.73873680726439" lon="9.362940395259137"><ele>485.0</ele><time>2026-04-26T09:07:23.699Z</time></trkpt><trkpt lat="40.73862584777739" lon="9.36265866972558"><ele>485.0</ele><time>2026-04-26T09:07:24.699Z</time></trkpt><trkpt lat="40.73851685913112" lon="9.362384073863867"><ele>485.0</ele><time>2026-04-26T09:07:25.699Z</time></trkpt><trkpt lat="40.73841514451656" lon="9.362128674860374"><ele>485.3333333333333</ele><time>2026-04-26T09:07:26.699Z</time></trkpt><trkpt lat="40.73829398232089" lon="9.361896206124195"><ele>485.66666666666663</ele><time>2026-04-26T09:07:27.699Z</time></trkpt><trkpt lat="40.73813860278974" lon="9.361691147988083"><ele>486.0</ele><time>2026-04-26T09:07:28.699Z</time></trkpt><trkpt lat="40.737944140624045" lon="9.361530340582776"><ele>486.0</ele><time>2026-04-26T09:07:29.699Z</time></trkpt><trkpt lat="40.737732519102344" lon="9.361405440525818"><ele>486.0</ele><time>2026-04-26T09:07:30.699Z</time></trkpt><trkpt lat="40.73752025729309" lon="9.361254794047607"><ele>485.0</ele><time>2026-04-26T09:07:31.699Z</time></trkpt><trkpt lat="40.737352262069706" lon="9.36103259841067"><ele>484.0</ele><time>2026-04-26T09:07:32.699Z</time></trkpt><trkpt lat="40.73722204556828" lon="9.360767203448031"><ele>481.5</ele><time>2026-04-26T09:07:33.699Z</time></trkpt><trkpt lat="40.737103025866034" lon="9.360496053426298"><ele>479.0</ele><time>2026-04-26T09:07:34.699Z</time></trkpt><trkpt lat="40.7369851366416" lon="9.360237152817762"><ele>478.0</ele><time>2026-04-26T09:07:35.699Z</time></trkpt><trkpt lat="40.73686839354706" lon="9.360002984911757"><ele>477.0</ele><time>2026-04-26T09:07:36.699Z</time></trkpt><trkpt lat="40.73673957038889" lon="9.359792258598613"><ele>476.0</ele><time>2026-04-26T09:07:37.699Z</time></trkpt><trkpt lat="40.73657752766061" lon="9.35961998338795"><ele>476.0</ele><time>2026-04-26T09:07:38.699Z</time></trkpt><trkpt lat="40.736389218796226" lon="9.359503177399745"><ele>476.0</ele><time>2026-04-26T09:07:39.699Z</time></trkpt><trkpt lat="40.73617780390955" lon="9.359419130392588"><ele>476.0</ele><time>2026-04-26T09:07:40.699Z</time></trkpt><trkpt lat="40.73595217023733" lon="9.359356633216352"><ele>477.5</ele><time>2026-04-26T09:07:41.699Z</time></trkpt><trkpt lat="40.73572189815507" lon="9.359362173334643"><ele>479.0</ele><time>2026-04-26T09:07:42.699Z</time></trkpt><trkpt lat="40.73549497583522" lon="9.359426844435504"><ele>479.0</ele><time>2026-04-26T09:07:43.698Z</time></trkpt><trkpt lat="40.73528899304762" lon="9.359539893703507"><ele>479.0</ele><time>2026-04-26T09:07:44.698Z</time></trkpt><trkpt lat="40.735090548114705" lon="9.359679567281876"><ele>479.0</ele><time>2026-04-26T09:07:45.698Z</time></trkpt><trkpt lat="40.73487557366289" lon="9.35979777309134"><ele>486.5</ele><time>2026-04-26T09:07:46.698Z</time></trkpt><trkpt lat="40.73464779712393" lon="9.359877499343515"><ele>494.0</ele><time>2026-04-26T09:07:47.698Z</time></trkpt><trkpt lat="40.73443723413532" lon="9.359941678378215"><ele>490.66666666666663</ele><time>2026-04-26T09:07:48.698Z</time></trkpt><trkpt lat="40.73426124974126" lon="9.360049614994809"><ele>487.33333333333337</ele><time>2026-04-26T09:07:49.698Z</time></trkpt><trkpt lat="40.73412373792571" lon="9.360236397700517"><ele>484.0</ele><time>2026-04-26T09:07:50.698Z</time></trkpt><trkpt lat="40.733994461609086" lon="9.360468167586253"><ele>492.0</ele><time>2026-04-26T09:07:51.698Z</time></trkpt><trkpt lat="40.7338393717068" lon="9.360698154932013"><ele>500.0</ele><time>2026-04-26T09:07:52.698Z</time></trkpt><trkpt lat="40.73363238480112" lon="9.360884321982752"><ele>495.66666666666663</ele><time>2026-04-26T09:07:53.698Z</time></trkpt><trkpt lat="40.73342560612902" lon="9.361044333150307"><ele>491.33333333333337</ele><time>2026-04-26T09:07:54.698Z</time></trkpt><trkpt lat="40.733245658578866" lon="9.361179149408946"><ele>487.0</ele><time>2026-04-26T09:07:55.698Z</time></trkpt><trkpt lat="40.73307544566954" lon="9.361261065490234"><ele>487.0</ele><time>2026-04-26T09:07:56.7Z</time></trkpt><trkpt lat="40.73289272874147" lon="9.361257197117395"><ele>487.0</ele><time>2026-04-26T09:07:57.699Z</time></trkpt><trkpt lat="40.7327064974941" lon="9.361212056232072"><ele>487.0</ele><time>2026-04-26T09:07:58.699Z</time></trkpt><trkpt lat="40.73252357289364" lon="9.361172410739409"><ele>488.0</ele><time>2026-04-26T09:07:59.699Z</time></trkpt><trkpt lat="40.7323622082117" lon="9.361192880515107"><ele>489.0</ele><time>2026-04-26T09:08:00.699Z</time></trkpt><trkpt lat="40.73225324425198" lon="9.361258518419254"><ele>490.0</ele><time>2026-04-26T09:08:01.699Z</time></trkpt><trkpt lat="40.73219381342169" lon="9.36134364236"><ele>491.0</ele><time>2026-04-26T09:08:02.699Z</time></trkpt><trkpt lat="40.73217661852479" lon="9.361464583746299"><ele>493.3333333333333</ele><time>2026-04-26T09:08:03.699Z</time></trkpt><trkpt lat="40.73220575062173" lon="9.361620784442081"><ele>495.66666666666663</ele><time>2026-04-26T09:08:04.699Z</time></trkpt><trkpt lat="40.73226996089484" lon="9.361816010686427"><ele>498.0</ele><time>2026-04-26T09:08:05.699Z</time></trkpt><trkpt lat="40.73235190930138" lon="9.362038687549258"><ele>499.33333333333337</ele><time>2026-04-26T09:08:06.699Z</time></trkpt><trkpt lat="40.73242799891076" lon="9.362289899204562"><ele>500.6666666666667</ele><time>2026-04-26T09:08:07.699Z</time></trkpt><trkpt lat="40.73247098089296" lon="9.36254025535182"><ele>502.0</ele><time>2026-04-26T09:08:08.699Z</time></trkpt><trkpt lat="40.73246479316248" lon="9.36278340647297"><ele>502.0</ele><time>2026-04-26T09:08:09.699Z</time></trkpt><trkpt lat="40.73243838917481" lon="9.362994739883899"><ele>502.0</ele><time>2026-04-26T09:08:10.699Z</time></trkpt><trkpt lat="40.732414411395325" lon="9.36316409120343"><ele>502.0</ele><time>2026-04-26T09:08:11.699Z</time></trkpt><trkpt lat="40.732380779005524" lon="9.363280995082262"><ele>502.0</ele><time>2026-04-26T09:08:12.699Z</time></trkpt><trkpt lat="40.7323004935279" lon="9.363343208925876"><ele>502.0</ele><time>2026-04-26T09:08:13.699Z</time></trkpt><trkpt lat="40.73219479082926" lon="9.363339136674634"><ele>502.0</ele><time>2026-04-26T09:08:14.699Z</time></trkpt><trkpt lat="40.732104070171516" lon="9.363255573141215"><ele>502.0</ele><time>2026-04-26T09:08:15.699Z</time></trkpt><trkpt lat="40.73204136694201" lon="9.36312123089336"><ele>502.0</ele><time>2026-04-26T09:08:16.699Z</time></trkpt><trkpt lat="40.731995876089975" lon="9.362948755943872"><ele>503.6666666666667</ele><time>2026-04-26T09:08:17.699Z</time></trkpt><trkpt lat="40.73188510001494" lon="9.362772937743047"><ele>505.33333333333337</ele><time>2026-04-26T09:08:18.699Z</time></trkpt><trkpt lat="40.73173941156059" lon="9.362624387024393"><ele>507.0</ele><time>2026-04-26T09:08:19.699Z</time></trkpt><trkpt lat="40.73158982060728" lon="9.362505439941609"><ele>507.0</ele><time>2026-04-26T09:08:20.699Z</time></trkpt><trkpt lat="40.73143841119164" lon="9.362367342131632"><ele>507.0</ele><time>2026-04-26T09:08:21.699Z</time></trkpt><trkpt lat="40.73124763170123" lon="9.3622691179327"><ele>507.0</ele><time>2026-04-26T09:08:22.699Z</time></trkpt><trkpt lat="40.731026852093805" lon="9.362201557178594"><ele>509.33333333333337</ele><time>2026-04-26T09:08:23.698Z</time></trkpt><trkpt lat="40.730867242125576" lon="9.36212329647702"><ele>511.6666666666667</ele><time>2026-04-26T09:08:24.698Z</time></trkpt><trkpt lat="40.730724657443126" lon="9.362021859887408"><ele>514.0</ele><time>2026-04-26T09:08:25.698Z</time></trkpt><trkpt lat="40.73059188587058" lon="9.361895498670552"><ele>514.0</ele><time>2026-04-26T09:08:26.698Z</time></trkpt><trkpt lat="40.73043559433177" lon="9.361786740112114"><ele>514.0</ele><time>2026-04-26T09:08:27.698Z</time></trkpt><trkpt lat="40.73027259477943" lon="9.361690548035579"><ele>514.0</ele><time>2026-04-26T09:08:28.698Z</time></trkpt><trkpt lat="40.7300946163837" lon="9.361619488651565"><ele>514.3333333333334</ele><time>2026-04-26T09:08:29.698Z</time></trkpt><trkpt lat="40.72989413711139" lon="9.361584796635077"><ele>514.6666666666666</ele><time>2026-04-26T09:08:30.698Z</time></trkpt><trkpt lat="40.72967878231662" lon="9.361586315177071"><ele>515.0</ele><time>2026-04-26T09:08:31.698Z</time></trkpt><trkpt lat="40.72946092398159" lon="9.361586208596897"><ele>515.3333333333333</ele><time>2026-04-26T09:08:32.698Z</time></trkpt><trkpt lat="40.72924728783854" lon="9.361611201283162"><ele>515.6666666666666</ele><time>2026-04-26T09:08:33.698Z</time></trkpt><trkpt lat="40.72904181893359" lon="9.361715259925028"><ele>516.0</ele><time>2026-04-26T09:08:34.698Z</time></trkpt><trkpt lat="40.728840713378325" lon="9.361846969610822"><ele>516.0</ele><time>2026-04-26T09:08:35.698Z</time></trkpt><trkpt lat="40.7286352321508" lon="9.361949140277504"><ele>516.0</ele><time>2026-04-26T09:08:36.698Z</time></trkpt><trkpt lat="40.72841814365449" lon="9.361957649825356"><ele>516.0</ele><time>2026-04-26T09:08:37.698Z</time></trkpt><trkpt lat="40.72820220274906" lon="9.36190632050489"><ele>516.6666666666666</ele><time>2026-04-26T09:08:38.698Z</time></trkpt><trkpt lat="40.72798717714697" lon="9.361910293414528"><ele>517.3333333333333</ele><time>2026-04-26T09:08:39.698Z</time></trkpt><trkpt lat="40.727803055714766" lon="9.361947870537124"><ele>518.0</ele><time>2026-04-26T09:08:40.698Z</time></trkpt><trkpt lat="40.7276484455036" lon="9.36191395785202"><ele>519.6666666666666</ele><time>2026-04-26T09:08:41.698Z</time></trkpt><trkpt lat="40.72750251176494" lon="9.361781858749179"><ele>521.3333333333334</ele><time>2026-04-26T09:08:42.698Z</time></trkpt><trkpt lat="40.72736584440476" lon="9.361617144880423"><ele>523.0</ele><time>2026-04-26T09:08:43.698Z</time></trkpt><trkpt lat="40.727189869467544" lon="9.36150786686233"><ele>523.0</ele><time>2026-04-26T09:08:44.698Z</time></trkpt><trkpt lat="40.726974461988" lon="9.361460845211006"><ele>523.0</ele><time>2026-04-26T09:08:45.698Z</time></trkpt><trkpt lat="40.726730074000336" lon="9.36148364551723"><ele>527.5</ele><time>2026-04-26T09:08:46.698Z</time></trkpt><trkpt lat="40.72645597404614" lon="9.361517264424345"><ele>532.0</ele><time>2026-04-26T09:08:47.697Z</time></trkpt><trkpt lat="40.72614318236234" lon="9.361475438609245"><ele>535.5</ele><time>2026-04-26T09:08:48.697Z</time></trkpt><trkpt lat="40.72579671673603" lon="9.361417294444138"><ele>539.0</ele><time>2026-04-26T09:08:49.697Z</time></trkpt><trkpt lat="40.72546414504711" lon="9.36134350388658"><ele>533.5</ele><time>2026-04-26T09:08:50.697Z</time></trkpt><trkpt lat="40.72515397528007" lon="9.361226918858952"><ele>528.0</ele><time>2026-04-26T09:08:51.697Z</time></trkpt><trkpt lat="40.72485642830518" lon="9.36105142523119"><ele>528.0</ele><time>2026-04-26T09:08:52.697Z</time></trkpt><trkpt lat="40.724573739842306" lon="9.3609187173479"><ele>528.0</ele><time>2026-04-26T09:08:53.697Z</time></trkpt><trkpt lat="40.724340924830656" lon="9.360843019105507"><ele>532.0</ele><time>2026-04-26T09:08:54.697Z</time></trkpt><trkpt lat="40.72416392052567" lon="9.360796995429139"><ele>536.0</ele><time>2026-04-26T09:08:55.697Z</time></trkpt><trkpt lat="40.72402141210002" lon="9.360837569817962"><ele>540.0</ele><time>2026-04-26T09:08:56.697Z</time></trkpt><trkpt lat="40.723898151894666" lon="9.360970421403831"><ele>540.0</ele><time>2026-04-26T09:08:57.697Z</time></trkpt><trkpt lat="40.723834946312365" lon="9.361181741366776"><ele>540.0</ele><time>2026-04-26T09:08:58.697Z</time></trkpt><trkpt lat="40.723870904725416" lon="9.361439590226587"><ele>540.0</ele><time>2026-04-26T09:08:59.697Z</time></trkpt><trkpt lat="40.72396639996164" lon="9.361709790153471"><ele>544.0</ele><time>2026-04-26T09:09:00.697Z</time></trkpt><trkpt lat="40.72402249696256" lon="9.361952530796378"><ele>548.0</ele><time>2026-04-26T09:09:01.697Z</time></trkpt><trkpt lat="40.72398040572046" lon="9.362140397704763"><ele>552.0</ele><time>2026-04-26T09:09:02.697Z</time></trkpt><trkpt lat="40.72387812881099" lon="9.362275421956744"><ele>551.0</ele><time>2026-04-26T09:09:03.697Z</time></trkpt><trkpt lat="40.72373664324848" lon="9.362308465493781"><ele>550.0</ele><time>2026-04-26T09:09:04.697Z</time></trkpt><trkpt lat="40.72359411759473" lon="9.362226690085969"><ele>549.0</ele><time>2026-04-26T09:09:05.697Z</time></trkpt><trkpt lat="40.72344355290874" lon="9.362028276838682"><ele>549.0</ele><time>2026-04-26T09:09:06.697Z</time></trkpt><trkpt lat="40.72323478666123" lon="9.361789854863819"><ele>549.0</ele><time>2026-04-26T09:09:07.697Z</time></trkpt><trkpt lat="40.722983330435426" lon="9.361592157180146"><ele>549.0</ele><time>2026-04-26T09:09:08.697Z</time></trkpt><trkpt lat="40.72274944033373" lon="9.361498357667445"><ele>549.0</ele><time>2026-04-26T09:09:09.697Z</time></trkpt><trkpt lat="40.722576903374375" lon="9.361458077340332"><ele>549.0</ele><time>2026-04-26T09:09:10.697Z</time></trkpt><trkpt lat="40.72243213435819" lon="9.361518064205493"><ele>554.0</ele><time>2026-04-26T09:09:11.696Z</time></trkpt><trkpt lat="40.72225401241159" lon="9.36166164110133"><ele>559.0</ele><time>2026-04-26T09:09:12.696Z</time></trkpt><trkpt lat="40.72204300417936" lon="9.36186007383698"><ele>560.0</ele><time>2026-04-26T09:09:13.696Z</time></trkpt><trkpt lat="40.72186045238844" lon="9.362071801963152"><ele>561.0</ele><time>2026-04-26T09:09:14.696Z</time></trkpt><trkpt lat="40.721765637408176" lon="9.362274648633779"><ele>562.0</ele><time>2026-04-26T09:09:15.696Z</time></trkpt><trkpt lat="40.721738418680005" lon="9.362487458767724"><ele>563.25</ele><time>2026-04-26T09:09:16.696Z</time></trkpt><trkpt lat="40.72168668104237" lon="9.362596113537391"><ele>564.5</ele><time>2026-04-26T09:09:17.696Z</time></trkpt><trkpt lat="40.7216018753706" lon="9.362597350910221"><ele>565.75</ele><time>2026-04-26T09:09:18.696Z</time></trkpt><trkpt lat="40.72147699647945" lon="9.362493055370988"><ele>567.0</ele><time>2026-04-26T09:09:19.696Z</time></trkpt><trkpt lat="40.721402275093524" lon="9.362245461889502"><ele>565.3333333333334</ele><time>2026-04-26T09:09:20.696Z</time></trkpt><trkpt lat="40.72137312776615" lon="9.361975587896419"><ele>563.6666666666667</ele><time>2026-04-26T09:09:21.696Z</time></trkpt><trkpt lat="40.721362000909124" lon="9.36175964755426"><ele>562.0</ele><time>2026-04-26T09:09:22.696Z</time></trkpt><trkpt lat="40.721286382611424" lon="9.361617241281339"><ele>562.0</ele><time>2026-04-26T09:09:23.696Z</time></trkpt><trkpt lat="40.72112997867732" lon="9.361569036642043"><ele>562.0</ele><time>2026-04-26T09:09:24.696Z</time></trkpt><trkpt lat="40.720905970775995" lon="9.3615725342564"><ele>562.0</ele><time>2026-04-26T09:09:25.696Z</time></trkpt><trkpt lat="40.720639351031124" lon="9.361581764274456"><ele>564.0</ele><time>2026-04-26T09:09:26.696Z</time></trkpt><trkpt lat="40.72042898271538" lon="9.361584785330955"><ele>566.0</ele><time>2026-04-26T09:09:27.696Z</time></trkpt><trkpt lat="40.72027049137595" lon="9.361645102211172"><ele>568.0</ele><time>2026-04-26T09:09:28.696Z</time></trkpt><trkpt lat="40.72012945708123" lon="9.36182192624123"><ele>568.0</ele><time>2026-04-26T09:09:29.696Z</time></trkpt><trkpt lat="40.71996095748973" lon="9.362083185367624"><ele>568.0</ele><time>2026-04-26T09:09:30.696Z</time></trkpt><trkpt lat="40.71978625083147" lon="9.362321051798023"><ele>571.6666666666667</ele><time>2026-04-26T09:09:31.696Z</time></trkpt><trkpt lat="40.71963929135159" lon="9.362444299343156"><ele>575.3333333333334</ele><time>2026-04-26T09:09:32.696Z</time></trkpt><trkpt lat="40.71946889220106" lon="9.362423819747296"><ele>579.0</ele><time>2026-04-26T09:09:33.696Z</time></trkpt><trkpt lat="40.71927233241873" lon="9.362303284684176"><ele>579.0</ele><time>2026-04-26T09:09:34.696Z</time></trkpt><trkpt lat="40.71909412605128" lon="9.362229834388822"><ele>579.0</ele><time>2026-04-26T09:09:35.695Z</time></trkpt><trkpt lat="40.718933135411696" lon="9.362270189244647"><ele>579.0</ele><time>2026-04-26T09:09:36.695Z</time></trkpt><trkpt lat="40.718789804330456" lon="9.36247953234717"><ele>579.0</ele><time>2026-04-26T09:09:37.695Z</time></trkpt><trkpt lat="40.71865724921088" lon="9.362758983139743"><ele>579.0</ele><time>2026-04-26T09:09:38.695Z</time></trkpt><trkpt lat="40.718527740965804" lon="9.36290965942796"><ele>579.0</ele><time>2026-04-26T09:09:39.695Z</time></trkpt><trkpt lat="40.71840486322025" lon="9.362914130766665"><ele>577.0</ele><time>2026-04-26T09:09:40.695Z</time></trkpt><trkpt lat="40.71825192610669" lon="9.36279408695201"><ele>575.0</ele><time>2026-04-26T09:09:41.695Z</time></trkpt><trkpt lat="40.71806950725901" lon="9.362663832802017"><ele>573.0</ele><time>2026-04-26T09:09:42.695Z</time></trkpt><trkpt lat="40.71785319186681" lon="9.36266655365754"><ele>573.6666666666666</ele><time>2026-04-26T09:09:43.695Z</time></trkpt><trkpt lat="40.71765981939115" lon="9.362793856573736"><ele>574.3333333333333</ele><time>2026-04-26T09:09:44.695Z</time></trkpt><trkpt lat="40.71751205615722" lon="9.362982769219984"><ele>575.0</ele><time>2026-04-26T09:09:45.695Z</time></trkpt><trkpt lat="40.717377850901016" lon="9.363289314630611"><ele>576.0</ele><time>2026-04-26T09:09:46.695Z</time></trkpt><trkpt lat="40.717233213008626" lon="9.363656153506536"><ele>577.0</ele><time>2026-04-26T09:09:47.695Z</time></trkpt><trkpt lat="40.71706929001643" lon="9.364005632842678"><ele>576.0</ele><time>2026-04-26T09:09:48.695Z</time></trkpt><trkpt lat="40.716942741916846" lon="9.364278250323185"><ele>575.0</ele><time>2026-04-26T09:09:49.695Z</time></trkpt><trkpt lat="40.716870809162096" lon="9.36447102394637"><ele>574.0</ele><time>2026-04-26T09:09:50.695Z</time></trkpt><trkpt lat="40.716769427998585" lon="9.364579172037109"><ele>574.0</ele><time>2026-04-26T09:09:51.695Z</time></trkpt><trkpt lat="40.716588186524284" lon="9.364581037555277"><ele>574.0</ele><time>2026-04-26T09:09:52.694Z</time></trkpt><trkpt lat="40.7163462701664" lon="9.364522154942259"><ele>574.0</ele><time>2026-04-26T09:09:53.693Z</time></trkpt><trkpt lat="40.716172824509925" lon="9.364525668860558"><ele>573.3333333333334</ele><time>2026-04-26T09:09:54.691Z</time></trkpt><trkpt lat="40.71604857573641" lon="9.364620182089146"><ele>572.6666666666666</ele><time>2026-04-26T09:09:55.69Z</time></trkpt><trkpt lat="40.715966098377486" lon="9.364868545787925"><ele>572.0</ele><time>2026-04-26T09:09:56.688Z</time></trkpt><trkpt lat="40.71591216551662" lon="9.365221456849655"><ele>573.0</ele><time>2026-04-26T09:09:57.687Z</time></trkpt><trkpt lat="40.71589612734733" lon="9.365600775472128"><ele>574.0</ele><time>2026-04-26T09:09:58.686Z</time></trkpt><trkpt lat="40.715906818955496" lon="9.365934564165904"><ele>574.0</ele><time>2026-04-26T09:09:59.685Z</time></trkpt><trkpt lat="40.715876054252156" lon="9.366160225581929"><ele>574.0</ele><time>2026-04-26T09:10:00.684Z</time></trkpt><trkpt lat="40.71576425033949" lon="9.366297216057097"><ele>574.0</ele><time>2026-04-26T09:10:01.682Z</time></trkpt><trkpt lat="40.7156149435728" lon="9.366350475655825"><ele>573.3333333333334</ele><time>2026-04-26T09:10:02.683Z</time></trkpt><trkpt lat="40.71542253512134" lon="9.366380950332909"><ele>572.6666666666666</ele><time>2026-04-26T09:10:03.682Z</time></trkpt><trkpt lat="40.71525771314782" lon="9.366457820238752"><ele>572.0</ele><time>2026-04-26T09:10:04.681Z</time></trkpt><trkpt lat="40.71520441400301" lon="9.366627412879955"><ele>572.0</ele><time>2026-04-26T09:10:05.68Z</time></trkpt><trkpt lat="40.71524603681147" lon="9.36687704328914"><ele>572.0</ele><time>2026-04-26T09:10:06.679Z</time></trkpt><trkpt lat="40.71535163650727" lon="9.36720438484557"><ele>572.5</ele><time>2026-04-26T09:10:07.679Z</time></trkpt><trkpt lat="40.71545646949684" lon="9.367540960067718"><ele>573.0</ele><time>2026-04-26T09:10:08.678Z</time></trkpt><trkpt lat="40.715472797714334" lon="9.367841047810693"><ele>572.6666666666666</ele><time>2026-04-26T09:10:09.677Z</time></trkpt><trkpt lat="40.71541077873182" lon="9.368119590061855"><ele>572.3333333333333</ele><time>2026-04-26T09:10:10.676Z</time></trkpt><trkpt lat="40.71528786747174" lon="9.368361163628348"><ele>572.0</ele><time>2026-04-26T09:10:11.676Z</time></trkpt><trkpt lat="40.715118310138394" lon="9.368511756166308"><ele>576.0</ele><time>2026-04-26T09:10:12.675Z</time></trkpt><trkpt lat="40.7148713541001" lon="9.368624753308856"><ele>580.0</ele><time>2026-04-26T09:10:13.675Z</time></trkpt><trkpt lat="40.714571154640076" lon="9.368716564456367"><ele>585.0</ele><time>2026-04-26T09:10:14.675Z</time></trkpt><trkpt lat="40.7142913764867" lon="9.368782775784556"><ele>590.0</ele><time>2026-04-26T09:10:15.674Z</time></trkpt><trkpt lat="40.714083230231935" lon="9.368828974921648"><ele>590.0</ele><time>2026-04-26T09:10:16.674Z</time></trkpt><trkpt lat="40.71390990471979" lon="9.36879103100955"><ele>590.0</ele><time>2026-04-26T09:10:17.673Z</time></trkpt><trkpt lat="40.71374902938966" lon="9.368675035465618"><ele>590.0</ele><time>2026-04-26T09:10:18.673Z</time></trkpt><trkpt lat="40.71360239984904" lon="9.368603050480589"><ele>588.3333333333333</ele><time>2026-04-26T09:10:19.673Z</time></trkpt><trkpt lat="40.713443442500456" lon="9.368686989026543"><ele>586.6666666666666</ele><time>2026-04-26T09:10:20.672Z</time></trkpt><trkpt lat="40.71329401151557" lon="9.368915254411831"><ele>585.0</ele><time>2026-04-26T09:10:21.672Z</time></trkpt><trkpt lat="40.713213317954505" lon="9.369287626801508"><ele>585.0</ele><time>2026-04-26T09:10:22.672Z</time></trkpt><trkpt lat="40.713083364587604" lon="9.36964723224339"><ele>585.0</ele><time>2026-04-26T09:10:23.671Z</time></trkpt><trkpt lat="40.712951971148904" lon="9.3699393950022"><ele>585.0</ele><time>2026-04-26T09:10:24.671Z</time></trkpt><trkpt lat="40.71283945876329" lon="9.370150751055478"><ele>585.0</ele><time>2026-04-26T09:10:25.671Z</time></trkpt><trkpt lat="40.712687568869356" lon="9.37030385411679"><ele>585.0</ele><time>2026-04-26T09:10:26.671Z</time></trkpt><trkpt lat="40.71246596906682" lon="9.370434765588096"><ele>589.5</ele><time>2026-04-26T09:10:27.67Z</time></trkpt><trkpt lat="40.712182326829776" lon="9.370580251685121"><ele>594.0</ele><time>2026-04-26T09:10:28.67Z</time></trkpt><trkpt lat="40.7118980211319" lon="9.370800272694316"><ele>600.0</ele><time>2026-04-26T09:10:29.67Z</time></trkpt><trkpt lat="40.7116784716706" lon="9.371031470740473"><ele>606.0</ele><time>2026-04-26T09:10:30.67Z</time></trkpt><trkpt lat="40.71147609342402" lon="9.37120206324581"><ele>606.0</ele><time>2026-04-26T09:10:31.67Z</time></trkpt><trkpt lat="40.711217625136655" lon="9.371317932771785"><ele>606.0</ele><time>2026-04-26T09:10:32.669Z</time></trkpt><trkpt lat="40.710918431309466" lon="9.37143760514375"><ele>605.5</ele><time>2026-04-26T09:10:33.669Z</time></trkpt><trkpt lat="40.7106882553784" lon="9.371619578105921"><ele>605.0</ele><time>2026-04-26T09:10:34.669Z</time></trkpt><trkpt lat="40.71053366663635" lon="9.37177444964627"><ele>605.0</ele><time>2026-04-26T09:10:35.669Z</time></trkpt><trkpt lat="40.71039741158322" lon="9.371813006104233"><ele>605.0</ele><time>2026-04-26T09:10:36.669Z</time></trkpt><trkpt lat="40.71022612205718" lon="9.371748912391707"><ele>605.0</ele><time>2026-04-26T09:10:37.669Z</time></trkpt><trkpt lat="40.7100319797138" lon="9.371571981851309"><ele>612.5</ele><time>2026-04-26T09:10:38.668Z</time></trkpt><trkpt lat="40.709824067610896" lon="9.371350074775098"><ele>620.0</ele><time>2026-04-26T09:10:39.668Z</time></trkpt><trkpt lat="40.709619016633646" lon="9.371193074123202"><ele>620.0</ele><time>2026-04-26T09:10:40.668Z</time></trkpt><trkpt lat="40.70942914352383" lon="9.371180144138275"><ele>620.0</ele><time>2026-04-26T09:10:41.668Z</time></trkpt><trkpt lat="40.709226827461855" lon="9.371245896506657"><ele>620.0</ele><time>2026-04-26T09:10:42.668Z</time></trkpt><trkpt lat="40.709038432446874" lon="9.371309341893513"><ele>619.75</ele><time>2026-04-26T09:10:43.668Z</time></trkpt><trkpt lat="40.70889156115738" lon="9.371335390058343"><ele>619.5</ele><time>2026-04-26T09:10:44.668Z</time></trkpt><trkpt lat="40.70877488014834" lon="9.371342658828906"><ele>619.25</ele><time>2026-04-26T09:10:45.668Z</time></trkpt><trkpt lat="40.708672065691026" lon="9.371356716521932"><ele>619.0</ele><time>2026-04-26T09:10:46.667Z</time></trkpt><trkpt lat="40.708589281037106" lon="9.371363333801238"><ele>619.1666666666667</ele><time>2026-04-26T09:10:47.667Z</time></trkpt><trkpt lat="40.70850165953556" lon="9.37137176067637"><ele>619.3333333333334</ele><time>2026-04-26T09:10:49.667Z</time></trkpt><trkpt lat="40.70842934440296" lon="9.371384123249044"><ele>619.5</ele><time>2026-04-26T09:10:52.667Z</time></trkpt><trkpt lat="40.70836158793391" lon="9.371393194715258"><ele>619.6666666666666</ele><time>2026-04-26T09:11:07.666Z</time></trkpt><trkpt lat="40.70824974853223" lon="9.371415951880744"><ele>619.8333333333333</ele><time>2026-04-26T09:11:09.666Z</time></trkpt><trkpt lat="40.70817915558335" lon="9.37142299667077"><ele>620.0</ele><time>2026-04-26T09:11:10.666Z</time></trkpt><trkpt lat="40.70809323114704" lon="9.371428086349013"><ele>620.0</ele><time>2026-04-26T09:11:11.666Z</time></trkpt><trkpt lat="40.708003535954724" lon="9.371434223289535"><ele>620.0</ele><time>2026-04-26T09:11:12.666Z</time></trkpt><trkpt lat="40.70791329564113" lon="9.371439324432604"><ele>620.0</ele><time>2026-04-26T09:11:13.665Z</time></trkpt><trkpt lat="40.707817888998754" lon="9.371446890238328"><ele>620.0</ele><time>2026-04-26T09:11:14.665Z</time></trkpt><trkpt lat="40.707721435975415" lon="9.371457088904828"><ele>620.0</ele><time>2026-04-26T09:11:15.665Z</time></trkpt><trkpt lat="40.70762479352481" lon="9.371459157994494"><ele>620.6</ele><time>2026-04-26T09:11:16.665Z</time></trkpt><trkpt lat="40.707525437031094" lon="9.371461833426123"><ele>621.2</ele><time>2026-04-26T09:11:17.665Z</time></trkpt><trkpt lat="40.707426860488845" lon="9.371466674148058"><ele>621.8</ele><time>2026-04-26T09:11:18.665Z</time></trkpt><trkpt lat="40.70733002324057" lon="9.371477929005021"><ele>622.4</ele><time>2026-04-26T09:11:19.665Z</time></trkpt><trkpt lat="40.70723222769095" lon="9.371484905329659"><ele>623.0</ele><time>2026-04-26T09:11:20.665Z</time></trkpt><trkpt lat="40.70713242576784" lon="9.37148911824278"><ele>623.0</ele><time>2026-04-26T09:11:21.665Z</time></trkpt><trkpt lat="40.70703267725617" lon="9.371490589520391"><ele>623.0</ele><time>2026-04-26T09:11:22.665Z</time></trkpt><trkpt lat="40.7069287384083" lon="9.371501825872517"><ele>623.0</ele><time>2026-04-26T09:11:23.665Z</time></trkpt><trkpt lat="40.706825088820445" lon="9.37150864735572"><ele>623.0</ele><time>2026-04-26T09:11:24.665Z</time></trkpt><trkpt lat="40.70671564309045" lon="9.371505886305876"><ele>623.0</ele><time>2026-04-26T09:11:25.665Z</time></trkpt><trkpt lat="40.706600506392604" lon="9.37148225406056"><ele>624.0</ele><time>2026-04-26T09:11:26.665Z</time></trkpt><trkpt lat="40.70648379614315" lon="9.371448665314439"><ele>625.0</ele><time>2026-04-26T09:11:27.665Z</time></trkpt><trkpt lat="40.7063635892614" lon="9.371423698161387"><ele>626.0</ele><time>2026-04-26T09:11:28.665Z</time></trkpt><trkpt lat="40.706249626003896" lon="9.371395631556299"><ele>627.0</ele><time>2026-04-26T09:11:29.665Z</time></trkpt><trkpt lat="40.70612823025725" lon="9.371361221080674"><ele>626.75</ele><time>2026-04-26T09:11:30.665Z</time></trkpt><trkpt lat="40.70599448047639" lon="9.371332620888621"><ele>626.5</ele><time>2026-04-26T09:11:31.665Z</time></trkpt><trkpt lat="40.70585276118806" lon="9.37129747111875"><ele>626.25</ele><time>2026-04-26T09:11:32.665Z</time></trkpt><trkpt lat="40.705709782338054" lon="9.371264963097644"><ele>626.0</ele><time>2026-04-26T09:11:33.664Z</time></trkpt><trkpt lat="40.70556882705739" lon="9.371249229185977"><ele>626.0</ele><time>2026-04-26T09:11:34.664Z</time></trkpt><trkpt lat="40.70543188362338" lon="9.371258714108604"><ele>626.0</ele><time>2026-04-26T09:11:35.664Z</time></trkpt><trkpt lat="40.70528889971318" lon="9.37126265598096"><ele>626.0</ele><time>2026-04-26T09:11:36.664Z</time></trkpt><trkpt lat="40.70514057331646" lon="9.371271333400928"><ele>626.0</ele><time>2026-04-26T09:11:37.664Z</time></trkpt><trkpt lat="40.70499542381224" lon="9.371290680444936"><ele>627.0</ele><time>2026-04-26T09:11:38.664Z</time></trkpt><trkpt lat="40.70484686796351" lon="9.371308623823781"><ele>628.0</ele><time>2026-04-26T09:11:39.664Z</time></trkpt><trkpt lat="40.704693031666714" lon="9.371343591337109"><ele>629.0</ele><time>2026-04-26T09:11:40.664Z</time></trkpt><trkpt lat="40.704536861619815" lon="9.37139489261504"><ele>633.0</ele><time>2026-04-26T09:11:41.664Z</time></trkpt><trkpt lat="40.70437433912738" lon="9.371462023831002"><ele>637.0</ele><time>2026-04-26T09:11:42.664Z</time></trkpt><trkpt lat="40.7042029084992" lon="9.371552107417969"><ele>641.0</ele><time>2026-04-26T09:11:43.664Z</time></trkpt><trkpt lat="40.704016383478105" lon="9.3716475686866"><ele>641.0</ele><time>2026-04-26T09:11:44.664Z</time></trkpt><trkpt lat="40.7038118618005" lon="9.371712773304822"><ele>641.0</ele><time>2026-04-26T09:11:45.664Z</time></trkpt><trkpt lat="40.703599215072614" lon="9.37179495879976"><ele>641.0</ele><time>2026-04-26T09:11:46.664Z</time></trkpt><trkpt lat="40.70338154496134" lon="9.371898819811438"><ele>642.0</ele><time>2026-04-26T09:11:47.664Z</time></trkpt><trkpt lat="40.70319607764292" lon="9.372054335266995"><ele>643.0</ele><time>2026-04-26T09:11:48.664Z</time></trkpt><trkpt lat="40.7030438734748" lon="9.372306114461065"><ele>645.5</ele><time>2026-04-26T09:11:49.664Z</time></trkpt><trkpt lat="40.70288366692742" lon="9.372639438730332"><ele>648.0</ele><time>2026-04-26T09:11:50.664Z</time></trkpt><trkpt lat="40.702683409065365" lon="9.372972972027696"><ele>652.5</ele><time>2026-04-26T09:11:51.664Z</time></trkpt><trkpt lat="40.70245692849879" lon="9.37323419000163"><ele>657.0</ele><time>2026-04-26T09:11:52.664Z</time></trkpt><trkpt lat="40.702238637141384" lon="9.373426294783126"><ele>657.0</ele><time>2026-04-26T09:11:53.664Z</time></trkpt><trkpt lat="40.70204209642023" lon="9.373567368989441"><ele>657.0</ele><time>2026-04-26T09:11:54.663Z</time></trkpt><trkpt lat="40.701824922446924" lon="9.373643143797478"><ele>657.0</ele><time>2026-04-26T09:11:55.663Z</time></trkpt><trkpt lat="40.701560479662014" lon="9.373657385022726"><ele>657.0</ele><time>2026-04-26T09:11:56.663Z</time></trkpt><trkpt lat="40.70126834549359" lon="9.373651127126847"><ele>657.0</ele><time>2026-04-26T09:11:57.663Z</time></trkpt><trkpt lat="40.70102940571286" lon="9.373665921635073"><ele>659.0</ele><time>2026-04-26T09:11:58.663Z</time></trkpt><trkpt lat="40.700867963025466" lon="9.373743337362917"><ele>661.0</ele><time>2026-04-26T09:11:59.663Z</time></trkpt><trkpt lat="40.700729492861555" lon="9.37392536065276"><ele>663.0</ele><time>2026-04-26T09:12:00.663Z</time></trkpt><trkpt lat="40.70060660953824" lon="9.374190527760922"><ele>663.0</ele><time>2026-04-26T09:12:01.663Z</time></trkpt><trkpt lat="40.70049824148478" lon="9.374396448613814"><ele>663.0</ele><time>2026-04-26T09:12:02.663Z</time></trkpt><trkpt lat="40.700363189126286" lon="9.374482089282756"><ele>663.0</ele><time>2026-04-26T09:12:03.663Z</time></trkpt><trkpt lat="40.70017856884181" lon="9.374468662573715"><ele>661.5</ele><time>2026-04-26T09:12:04.663Z</time></trkpt><trkpt lat="40.69992130261858" lon="9.374409713760851"><ele>660.0</ele><time>2026-04-26T09:12:05.663Z</time></trkpt><trkpt lat="40.699610199763164" lon="9.374326342953594"><ele>658.5</ele><time>2026-04-26T09:12:06.663Z</time></trkpt><trkpt lat="40.69926562568618" lon="9.374256971086403"><ele>657.0</ele><time>2026-04-26T09:12:07.663Z</time></trkpt><trkpt lat="40.69894913643392" lon="9.374203841532232"><ele>657.0</ele><time>2026-04-26T09:12:08.664Z</time></trkpt><trkpt lat="40.6986887619928" lon="9.374168631552228"><ele>657.0</ele><time>2026-04-26T09:12:09.664Z</time></trkpt><trkpt lat="40.69846940791233" lon="9.374157730710632"><ele>654.6666666666666</ele><time>2026-04-26T09:12:10.664Z</time></trkpt><trkpt lat="40.69826209922799" lon="9.374217663087743"><ele>652.3333333333333</ele><time>2026-04-26T09:12:11.664Z</time></trkpt><trkpt lat="40.69806627931763" lon="9.374346530009154"><ele>650.0</ele><time>2026-04-26T09:12:12.664Z</time></trkpt><trkpt lat="40.69787876806399" lon="9.37442610249675"><ele>647.0</ele><time>2026-04-26T09:12:13.664Z</time></trkpt><trkpt lat="40.69764677650702" lon="9.37433412429115"><ele>644.0</ele><time>2026-04-26T09:12:14.664Z</time></trkpt><trkpt lat="40.6974115510946" lon="9.37420460620634"><ele>644.0</ele><time>2026-04-26T09:12:15.664Z</time></trkpt><trkpt lat="40.69722029706191" lon="9.374047712046254"><ele>644.0</ele><time>2026-04-26T09:12:16.663Z</time></trkpt><trkpt lat="40.69706783864912" lon="9.373891389177956"><ele>644.0</ele><time>2026-04-26T09:12:17.664Z</time></trkpt><trkpt lat="40.696932440436534" lon="9.373652331352698"><ele>641.0</ele><time>2026-04-26T09:12:18.664Z</time></trkpt><trkpt lat="40.69679528288645" lon="9.373411072829011"><ele>638.0</ele><time>2026-04-26T09:12:19.664Z</time></trkpt><trkpt lat="40.69664678236751" lon="9.373204837784732"><ele>635.0</ele><time>2026-04-26T09:12:20.664Z</time></trkpt><trkpt lat="40.6964690669795" lon="9.373057395355849"><ele>636.3333333333333</ele><time>2026-04-26T09:12:21.664Z</time></trkpt><trkpt lat="40.69626934479559" lon="9.37299094032098"><ele>637.6666666666666</ele><time>2026-04-26T09:12:22.664Z</time></trkpt><trkpt lat="40.69604126531765" lon="9.372993738983842"><ele>639.0</ele><time>2026-04-26T09:12:23.664Z</time></trkpt><trkpt lat="40.695810427220984" lon="9.37308212417497"><ele>633.0</ele><time>2026-04-26T09:12:24.664Z</time></trkpt><trkpt lat="40.69557093842451" lon="9.373254119684056"><ele>627.0</ele><time>2026-04-26T09:12:25.664Z</time></trkpt><trkpt lat="40.695323232801975" lon="9.37349549695563"><ele>628.5</ele><time>2026-04-26T09:12:26.664Z</time></trkpt><trkpt lat="40.69510790258247" lon="9.373717381794398"><ele>630.0</ele><time>2026-04-26T09:12:27.664Z</time></trkpt><trkpt lat="40.69487209947852" lon="9.373900049576708"><ele>626.0</ele><time>2026-04-26T09:12:28.664Z</time></trkpt><trkpt lat="40.69463738823019" lon="9.374009432567304"><ele>622.0</ele><time>2026-04-26T09:12:29.664Z</time></trkpt><trkpt lat="40.694392259922246" lon="9.374068936021608"><ele>620.5</ele><time>2026-04-26T09:12:30.663Z</time></trkpt><trkpt lat="40.69412251025271" lon="9.374090632411566"><ele>619.0</ele><time>2026-04-26T09:12:31.663Z</time></trkpt><trkpt lat="40.693857016452284" lon="9.374071615895486"><ele>619.0</ele><time>2026-04-26T09:12:32.663Z</time></trkpt><trkpt lat="40.69360503177229" lon="9.374006531170824"><ele>619.0</ele><time>2026-04-26T09:12:33.663Z</time></trkpt><trkpt lat="40.69337174319713" lon="9.373895376035412"><ele>618.5</ele><time>2026-04-26T09:12:34.663Z</time></trkpt><trkpt lat="40.69314685865369" lon="9.3737353549202"><ele>618.0</ele><time>2026-04-26T09:12:35.663Z</time></trkpt><trkpt lat="40.692930720825395" lon="9.373530769370412"><ele>614.0</ele><time>2026-04-26T09:12:36.663Z</time></trkpt><trkpt lat="40.69273495401112" lon="9.373285143662622"><ele>610.0</ele><time>2026-04-26T09:12:37.663Z</time></trkpt><trkpt lat="40.692567296339675" lon="9.3730192679819"><ele>610.0</ele><time>2026-04-26T09:12:38.663Z</time></trkpt><trkpt lat="40.69241396673894" lon="9.372776336729236"><ele>610.0</ele><time>2026-04-26T09:12:39.663Z</time></trkpt><trkpt lat="40.69224544885957" lon="9.372585975588185"><ele>610.0</ele><time>2026-04-26T09:12:40.663Z</time></trkpt><trkpt lat="40.692043496264475" lon="9.37243594567791"><ele>610.0</ele><time>2026-04-26T09:12:41.663Z</time></trkpt><trkpt lat="40.691801765631695" lon="9.37232551426457"><ele>608.5</ele><time>2026-04-26T09:12:42.663Z</time></trkpt><trkpt lat="40.69154917227838" lon="9.37226048549869"><ele>607.0</ele><time>2026-04-26T09:12:43.663Z</time></trkpt><trkpt lat="40.691311643094934" lon="9.372176517243966"><ele>607.0</ele><time>2026-04-26T09:12:44.663Z</time></trkpt><trkpt lat="40.69111200271831" lon="9.372011927881982"><ele>607.0</ele><time>2026-04-26T09:12:45.663Z</time></trkpt><trkpt lat="40.69092096282632" lon="9.37178575132033"><ele>607.0</ele><time>2026-04-26T09:12:46.663Z</time></trkpt><trkpt lat="40.69076733953598" lon="9.371490758088456"><ele>607.0</ele><time>2026-04-26T09:12:47.663Z</time></trkpt><trkpt lat="40.690629726051576" lon="9.37116510990752"><ele>607.0</ele><time>2026-04-26T09:12:48.663Z</time></trkpt><trkpt lat="40.69049757091912" lon="9.370847360977145"><ele>607.0</ele><time>2026-04-26T09:12:49.663Z</time></trkpt><trkpt lat="40.690342523932934" lon="9.370570279186689"><ele>605.5</ele><time>2026-04-26T09:12:50.663Z</time></trkpt><trkpt lat="40.69013244709507" lon="9.370316952438175"><ele>604.0</ele><time>2026-04-26T09:12:51.663Z</time></trkpt><trkpt lat="40.689863042432584" lon="9.370102199425169"><ele>604.0</ele><time>2026-04-26T09:12:52.663Z</time></trkpt><trkpt lat="40.68957461735555" lon="9.369938395192019"><ele>604.0</ele><time>2026-04-26T09:12:53.663Z</time></trkpt><trkpt lat="40.6893374502323" lon="9.369786988179582"><ele>601.0</ele><time>2026-04-26T09:12:54.663Z</time></trkpt><trkpt lat="40.68917389320725" lon="9.369571811872188"><ele>598.0</ele><time>2026-04-26T09:12:55.662Z</time></trkpt><trkpt lat="40.68905181752727" lon="9.369321691217385"><ele>598.0</ele><time>2026-04-26T09:12:56.662Z</time></trkpt><trkpt lat="40.68897939548064" lon="9.36900746706208"><ele>598.0</ele><time>2026-04-26T09:12:57.662Z</time></trkpt><trkpt lat="40.68890338229327" lon="9.36859185535008"><ele>598.5</ele><time>2026-04-26T09:12:58.662Z</time></trkpt><trkpt lat="40.68880948978319" lon="9.368110465861758"><ele>599.0</ele><time>2026-04-26T09:12:59.662Z</time></trkpt><trkpt lat="40.68872990246412" lon="9.367618954657143"><ele>601.0</ele><time>2026-04-26T09:13:00.662Z</time></trkpt><trkpt lat="40.688660035686006" lon="9.367225971947144"><ele>603.0</ele><time>2026-04-26T09:13:01.662Z</time></trkpt><trkpt lat="40.688598531332225" lon="9.366922849498462"><ele>598.3333333333334</ele><time>2026-04-26T09:13:02.662Z</time></trkpt><trkpt lat="40.68853422951273" lon="9.366666905767053"><ele>593.6666666666667</ele><time>2026-04-26T09:13:03.662Z</time></trkpt><trkpt lat="40.68838698630544" lon="9.366512146486702"><ele>589.0</ele><time>2026-04-26T09:13:04.662Z</time></trkpt><trkpt lat="40.68817529459822" lon="9.36639606571717"><ele>591.5</ele><time>2026-04-26T09:13:05.662Z</time></trkpt><trkpt lat="40.68788290834842" lon="9.366284600848067"><ele>594.0</ele><time>2026-04-26T09:13:06.662Z</time></trkpt><trkpt lat="40.68764154720507" lon="9.36615807751238"><ele>594.0</ele><time>2026-04-26T09:13:07.662Z</time></trkpt><trkpt lat="40.68753960530195" lon="9.36596292755261"><ele>594.0</ele><time>2026-04-26T09:13:08.662Z</time></trkpt><trkpt lat="40.68753775547879" lon="9.365783703227367"><ele>594.0</ele><time>2026-04-26T09:13:09.662Z</time></trkpt><trkpt lat="40.68757007116753" lon="9.365514486476526"><ele>595.5</ele><time>2026-04-26T09:13:10.662Z</time></trkpt><trkpt lat="40.687604557897885" lon="9.365113260406208"><ele>597.0</ele><time>2026-04-26T09:13:11.662Z</time></trkpt><trkpt lat="40.68760642216944" lon="9.364694857287763"><ele>600.5</ele><time>2026-04-26T09:13:12.662Z</time></trkpt><trkpt lat="40.68757582995771" lon="9.364322888491358"><ele>604.0</ele><time>2026-04-26T09:13:13.662Z</time></trkpt><trkpt lat="40.68755485209445" lon="9.364077492573141"><ele>604.0</ele><time>2026-04-26T09:13:14.662Z</time></trkpt><trkpt lat="40.6875141792184" lon="9.363967484569848"><ele>604.0</ele><time>2026-04-26T09:13:15.662Z</time></trkpt><trkpt lat="40.68740768256899" lon="9.363911371502791"><ele>604.0</ele><time>2026-04-26T09:13:16.662Z</time></trkpt><trkpt lat="40.68723568090641" lon="9.363918733581308"><ele>604.0</ele><time>2026-04-26T09:13:17.662Z</time></trkpt><trkpt lat="40.68702174607683" lon="9.364026343373745"><ele>604.0</ele><time>2026-04-26T09:13:18.661Z</time></trkpt><trkpt lat="40.686847887963346" lon="9.36399259090161"><ele>604.0</ele><time>2026-04-26T09:13:19.661Z</time></trkpt><trkpt lat="40.68664866462682" lon="9.363855442182937"><ele>604.0</ele><time>2026-04-26T09:13:20.661Z</time></trkpt><trkpt lat="40.68637776129445" lon="9.363683373097125"><ele>608.0</ele><time>2026-04-26T09:13:21.661Z</time></trkpt><trkpt lat="40.68611437441918" lon="9.363514028038162"><ele>612.0</ele><time>2026-04-26T09:13:22.661Z</time></trkpt><trkpt lat="40.685932390329555" lon="9.363378634846686"><ele>612.0</ele><time>2026-04-26T09:13:23.661Z</time></trkpt><trkpt lat="40.68585076379592" lon="9.363244883039684"><ele>612.0</ele><time>2026-04-26T09:13:24.661Z</time></trkpt><trkpt lat="40.68583748026775" lon="9.363068943515863"><ele>612.0</ele><time>2026-04-26T09:13:25.661Z</time></trkpt><trkpt lat="40.685805546198594" lon="9.362788350831124"><ele>612.5</ele><time>2026-04-26T09:13:26.661Z</time></trkpt><trkpt lat="40.685766999740444" lon="9.36243590077006"><ele>613.0</ele><time>2026-04-26T09:13:27.661Z</time></trkpt><trkpt lat="40.68571509864612" lon="9.362173288996866"><ele>616.3333333333334</ele><time>2026-04-26T09:13:28.661Z</time></trkpt><trkpt lat="40.68563383599618" lon="9.362008854267703"><ele>619.6666666666666</ele><time>2026-04-26T09:13:29.661Z</time></trkpt><trkpt lat="40.68545581049798" lon="9.361889764570106"><ele>623.0</ele><time>2026-04-26T09:13:30.661Z</time></trkpt><trkpt lat="40.68526897045627" lon="9.36179151345731"><ele>619.3333333333333</ele><time>2026-04-26T09:13:31.661Z</time></trkpt><trkpt lat="40.685144863897456" lon="9.361638269714467"><ele>615.6666666666666</ele><time>2026-04-26T09:13:32.661Z</time></trkpt><trkpt lat="40.68505288898634" lon="9.361379120916101"><ele>612.0</ele><time>2026-04-26T09:13:33.661Z</time></trkpt><trkpt lat="40.68488420662375" lon="9.361111019609918"><ele>612.0</ele><time>2026-04-26T09:13:34.661Z</time></trkpt><trkpt lat="40.684683831944675" lon="9.360815588423375"><ele>612.0</ele><time>2026-04-26T09:13:35.661Z</time></trkpt><trkpt lat="40.68445174847777" lon="9.360536040926387"><ele>609.0</ele><time>2026-04-26T09:13:36.661Z</time></trkpt><trkpt lat="40.684278408529785" lon="9.360290936017416"><ele>606.0</ele><time>2026-04-26T09:13:37.661Z</time></trkpt><trkpt lat="40.68417141341313" lon="9.360089701549882"><ele>603.0</ele><time>2026-04-26T09:13:38.661Z</time></trkpt><trkpt lat="40.68406086886767" lon="9.359980763198674"><ele>603.0</ele><time>2026-04-26T09:13:39.661Z</time></trkpt><trkpt lat="40.683933448675425" lon="9.359915640968774"><ele>603.0</ele><time>2026-04-26T09:13:40.66Z</time></trkpt><trkpt lat="40.68374106872041" lon="9.35990572249331"><ele>603.0</ele><time>2026-04-26T09:13:41.66Z</time></trkpt><trkpt lat="40.68365583783815" lon="9.35973367290775"><ele>599.0</ele><time>2026-04-26T09:13:42.66Z</time></trkpt><trkpt lat="40.68356681117134" lon="9.35950549619309"><ele>595.0</ele><time>2026-04-26T09:13:43.66Z</time></trkpt><trkpt lat="40.68346044201368" lon="9.359188023171544"><ele>595.0</ele><time>2026-04-26T09:13:44.66Z</time></trkpt><trkpt lat="40.683356361782565" lon="9.358922063909752"><ele>595.0</ele><time>2026-04-26T09:13:45.66Z</time></trkpt><trkpt lat="40.68327134606685" lon="9.35873572677873"><ele>595.0</ele><time>2026-04-26T09:13:46.66Z</time></trkpt><trkpt lat="40.68316305533028" lon="9.358623222571964"><ele>595.0</ele><time>2026-04-26T09:13:47.66Z</time></trkpt><trkpt lat="40.68304343003563" lon="9.358621629324864"><ele>595.0</ele><time>2026-04-26T09:13:48.66Z</time></trkpt><trkpt lat="40.68293040769915" lon="9.35874242426947"><ele>595.0</ele><time>2026-04-26T09:13:49.66Z</time></trkpt><trkpt lat="40.68281458766523" lon="9.358969650231538"><ele>594.3333333333334</ele><time>2026-04-26T09:13:50.66Z</time></trkpt><trkpt lat="40.682659193753224" lon="9.359132006137843"><ele>593.6666666666666</ele><time>2026-04-26T09:13:51.66Z</time></trkpt><trkpt lat="40.68253497167835" lon="9.35929154407695"><ele>593.0</ele><time>2026-04-26T09:13:52.66Z</time></trkpt><trkpt lat="40.682513933356766" lon="9.359525142649114"><ele>589.6666666666666</ele><time>2026-04-26T09:13:53.66Z</time></trkpt><trkpt lat="40.68242695173104" lon="9.359730878810725"><ele>586.3333333333334</ele><time>2026-04-26T09:13:54.66Z</time></trkpt><trkpt lat="40.68224643878201" lon="9.359837689771114"><ele>583.0</ele><time>2026-04-26T09:13:55.66Z</time></trkpt><trkpt lat="40.6820358304338" lon="9.36003005436558"><ele>582.6666666666667</ele><time>2026-04-26T09:13:56.66Z</time></trkpt><trkpt lat="40.681859459342846" lon="9.360149375283909"><ele>582.3333333333334</ele><time>2026-04-26T09:13:57.66Z</time></trkpt><trkpt lat="40.68172920889566" lon="9.3601700578546"><ele>582.0</ele><time>2026-04-26T09:13:58.66Z</time></trkpt><trkpt lat="40.68161806103682" lon="9.360065210464787"><ele>582.0</ele><time>2026-04-26T09:13:59.66Z</time></trkpt><trkpt lat="40.68151626981635" lon="9.359860584205961"><ele>582.0</ele><time>2026-04-26T09:14:00.66Z</time></trkpt><trkpt lat="40.681346130663876" lon="9.35962061857352"><ele>582.0</ele><time>2026-04-26T09:14:01.66Z</time></trkpt><trkpt lat="40.68112844973285" lon="9.359393676134792"><ele>580.6666666666666</ele><time>2026-04-26T09:14:02.659Z</time></trkpt><trkpt lat="40.68091721739733" lon="9.3592068962662"><ele>579.3333333333333</ele><time>2026-04-26T09:14:03.659Z</time></trkpt><trkpt lat="40.680760112824615" lon="9.359055745283174"><ele>578.0</ele><time>2026-04-26T09:14:04.659Z</time></trkpt><trkpt lat="40.680682779798325" lon="9.358886947605823"><ele>578.3333333333333</ele><time>2026-04-26T09:14:05.659Z</time></trkpt><trkpt lat="40.68067114550885" lon="9.358683312359947"><ele>578.6666666666666</ele><time>2026-04-26T09:14:06.659Z</time></trkpt><trkpt lat="40.68061309002869" lon="9.358433334403411"><ele>579.0</ele><time>2026-04-26T09:14:07.659Z</time></trkpt><trkpt lat="40.680609077249564" lon="9.358177878057457"><ele>578.5</ele><time>2026-04-26T09:14:08.659Z</time></trkpt><trkpt lat="40.680573834411206" lon="9.357991060158398"><ele>578.0</ele><time>2026-04-26T09:14:09.659Z</time></trkpt><trkpt lat="40.68053650130124" lon="9.35785314614791"><ele>577.5</ele><time>2026-04-26T09:14:10.659Z</time></trkpt><trkpt lat="40.68039844698169" lon="9.357800499469718"><ele>577.0</ele><time>2026-04-26T09:14:11.659Z</time></trkpt><trkpt lat="40.680281106419635" lon="9.35776572666326"><ele>576.0</ele><time>2026-04-26T09:14:12.659Z</time></trkpt><trkpt lat="40.68018870030373" lon="9.357737951639038"><ele>575.0</ele><time>2026-04-26T09:14:13.659Z</time></trkpt><trkpt lat="40.68009222439274" lon="9.357698158615769"><ele>574.0</ele><time>2026-04-26T09:14:14.66Z</time></trkpt><trkpt lat="40.67999806093149" lon="9.357660764256295"><ele>573.0</ele><time>2026-04-26T09:14:15.66Z</time></trkpt><trkpt lat="40.67990314514067" lon="9.357613046529826"><ele>572.0</ele><time>2026-04-26T09:14:16.66Z</time></trkpt><trkpt lat="40.67980983520959" lon="9.357564817655652"><ele>572.0</ele><time>2026-04-26T09:14:17.66Z</time></trkpt><trkpt lat="40.67971784896461" lon="9.357517926748027"><ele>572.0</ele><time>2026-04-26T09:14:18.66Z</time></trkpt><trkpt lat="40.679625441621354" lon="9.357474935798134"><ele>572.0</ele><time>2026-04-26T09:14:19.66Z</time></trkpt><trkpt lat="40.67953409462215" lon="9.357429019545277"><ele>572.0</ele><time>2026-04-26T09:14:20.66Z</time></trkpt><trkpt lat="40.67944943841679" lon="9.357384881199602"><ele>572.0</ele><time>2026-04-26T09:14:21.659Z</time></trkpt><trkpt lat="40.6793646028179" lon="9.357342844839717"><ele>571.8333333333333</ele><time>2026-04-26T09:14:22.659Z</time></trkpt><trkpt lat="40.679279147894235" lon="9.357302296260697"><ele>571.6666666666666</ele><time>2026-04-26T09:14:23.66Z</time></trkpt><trkpt lat="40.67919603223699" lon="9.35726336599858"><ele>571.5</ele><time>2026-04-26T09:14:24.66Z</time></trkpt><trkpt lat="40.679109477894364" lon="9.357218868923184"><ele>571.3333333333334</ele><time>2026-04-26T09:14:25.66Z</time></trkpt><trkpt lat="40.67902293926359" lon="9.357181778958216"><ele>571.1666666666667</ele><time>2026-04-26T09:14:26.659Z</time></trkpt><trkpt lat="40.67894074511601" lon="9.357150039218691"><ele>571.0</ele><time>2026-04-26T09:14:27.659Z</time></trkpt><trkpt lat="40.67885530066909" lon="9.357124724713232"><ele>571.0</ele><time>2026-04-26T09:14:28.659Z</time></trkpt><trkpt lat="40.678774406912616" lon="9.357107190210527"><ele>571.0</ele><time>2026-04-26T09:14:29.659Z</time></trkpt><trkpt lat="40.678695622649315" lon="9.35710914908184"><ele>571.0</ele><time>2026-04-26T09:14:30.659Z</time></trkpt><trkpt lat="40.67861822674086" lon="9.357112967402571"><ele>571.0</ele><time>2026-04-26T09:14:31.659Z</time></trkpt><trkpt lat="40.67854741194685" lon="9.357136150584017"><ele>571.0</ele><time>2026-04-26T09:14:32.659Z</time></trkpt><trkpt lat="40.67848206141667" lon="9.35716953726112"><ele>571.0</ele><time>2026-04-26T09:14:33.659Z</time></trkpt><trkpt lat="40.678413505163014" lon="9.357206660777829"><ele>571.1666666666667</ele><time>2026-04-26T09:14:34.659Z</time></trkpt><trkpt lat="40.678351186680175" lon="9.35725376154241"><ele>571.3333333333334</ele><time>2026-04-26T09:14:35.659Z</time></trkpt><trkpt lat="40.67828915806935" lon="9.357303315476061"><ele>571.5</ele><time>2026-04-26T09:14:36.659Z</time></trkpt><trkpt lat="40.678228548301206" lon="9.357354873651683"><ele>571.6666666666666</ele><time>2026-04-26T09:14:37.659Z</time></trkpt><trkpt lat="40.67816912797799" lon="9.357414635284083"><ele>571.8333333333333</ele><time>2026-04-26T09:14:38.659Z</time></trkpt><trkpt lat="40.678110023421524" lon="9.357478940223825"><ele>572.0</ele><time>2026-04-26T09:14:39.659Z</time></trkpt><trkpt lat="40.67804192569612" lon="9.3575405173233"><ele>572.0</ele><time>2026-04-26T09:14:40.659Z</time></trkpt><trkpt lat="40.67797243571946" lon="9.357599773151774"><ele>572.0</ele><time>2026-04-26T09:14:41.658Z</time></trkpt><trkpt lat="40.67791717245117" lon="9.35766060370087"><ele>572.0</ele><time>2026-04-26T09:14:42.658Z</time></trkpt><trkpt lat="40.677852323605336" lon="9.357726576759687"><ele>572.0</ele><time>2026-04-26T09:14:43.658Z</time></trkpt><trkpt lat="40.67778293901835" lon="9.357797011749708"><ele>572.0</ele><time>2026-04-26T09:14:44.658Z</time></trkpt><trkpt lat="40.67770634523589" lon="9.35787298089451"><ele>572.0</ele><time>2026-04-26T09:14:45.658Z</time></trkpt><trkpt lat="40.677635592723014" lon="9.357956344503604"><ele>572.4</ele><time>2026-04-26T09:14:46.658Z</time></trkpt><trkpt lat="40.67756239237097" lon="9.358039653492106"><ele>572.8000000000001</ele><time>2026-04-26T09:14:47.658Z</time></trkpt><trkpt lat="40.677481936437125" lon="9.358127189815407"><ele>573.2</ele><time>2026-04-26T09:14:48.658Z</time></trkpt><trkpt lat="40.67739500303041" lon="9.358211163984123"><ele>573.6</ele><time>2026-04-26T09:14:49.658Z</time></trkpt><trkpt lat="40.67731666604264" lon="9.358291537192521"><ele>574.0</ele><time>2026-04-26T09:14:50.658Z</time></trkpt><trkpt lat="40.677232338386375" lon="9.358381672425464"><ele>574.0</ele><time>2026-04-26T09:14:51.658Z</time></trkpt><trkpt lat="40.677138579164634" lon="9.358498173722687"><ele>574.0</ele><time>2026-04-26T09:14:52.658Z</time></trkpt><trkpt lat="40.67703036936959" lon="9.358615342522722"><ele>574.0</ele><time>2026-04-26T09:14:53.658Z</time></trkpt><trkpt lat="40.67690665748512" lon="9.358731322196624"><ele>574.0</ele><time>2026-04-26T09:14:54.658Z</time></trkpt><trkpt lat="40.67678591872196" lon="9.358850597588297"><ele>577.0</ele><time>2026-04-26T09:14:55.658Z</time></trkpt><trkpt lat="40.67665772150438" lon="9.35898463285497"><ele>580.0</ele><time>2026-04-26T09:14:56.658Z</time></trkpt><trkpt lat="40.67652828781476" lon="9.359109162837878"><ele>583.0</ele><time>2026-04-26T09:14:57.658Z</time></trkpt><trkpt lat="40.67641388574102" lon="9.359225324419112"><ele>583.0</ele><time>2026-04-26T09:14:58.658Z</time></trkpt><trkpt lat="40.676320257003546" lon="9.35932669976939"><ele>583.0</ele><time>2026-04-26T09:14:59.658Z</time></trkpt><trkpt lat="40.67620444465225" lon="9.359423546361867"><ele>583.0</ele><time>2026-04-26T09:15:00.658Z</time></trkpt><trkpt lat="40.67606366701423" lon="9.359494473132415"><ele>583.0</ele><time>2026-04-26T09:15:01.658Z</time></trkpt><trkpt lat="40.675889924805574" lon="9.359520193323025"><ele>584.6666666666667</ele><time>2026-04-26T09:15:02.658Z</time></trkpt><trkpt lat="40.675715494526365" lon="9.359485118908"><ele>586.3333333333334</ele><time>2026-04-26T09:15:03.657Z</time></trkpt><trkpt lat="40.67554778283128" lon="9.359348628161335"><ele>588.0</ele><time>2026-04-26T09:15:04.657Z</time></trkpt><trkpt lat="40.675381726020255" lon="9.35916796721897"><ele>589.0</ele><time>2026-04-26T09:15:05.657Z</time></trkpt><trkpt lat="40.675208940425065" lon="9.358981833799923"><ele>590.0</ele><time>2026-04-26T09:15:06.657Z</time></trkpt><trkpt lat="40.675053653206206" lon="9.358818803774279"><ele>591.0</ele><time>2026-04-26T09:15:07.657Z</time></trkpt><trkpt lat="40.67490777511775" lon="9.358645038189149"><ele>591.3333333333334</ele><time>2026-04-26T09:15:08.657Z</time></trkpt><trkpt lat="40.6748112087896" lon="9.358406650657951"><ele>591.6666666666667</ele><time>2026-04-26T09:15:09.657Z</time></trkpt><trkpt lat="40.674723911203166" lon="9.358158472366469"><ele>592.0</ele><time>2026-04-26T09:15:10.657Z</time></trkpt><trkpt lat="40.67464031022988" lon="9.357889159480967"><ele>591.3333333333334</ele><time>2026-04-26T09:15:11.657Z</time></trkpt><trkpt lat="40.67456720709771" lon="9.357615996835104"><ele>590.6666666666666</ele><time>2026-04-26T09:15:12.657Z</time></trkpt><trkpt lat="40.674496489385156" lon="9.357346753543506"><ele>590.0</ele><time>2026-04-26T09:15:13.657Z</time></trkpt><trkpt lat="40.674417617762366" lon="9.357092057931421"><ele>590.0</ele><time>2026-04-26T09:15:14.657Z</time></trkpt><trkpt lat="40.674342504904594" lon="9.356865466310563"><ele>590.0</ele><time>2026-04-26T09:15:15.657Z</time></trkpt><trkpt lat="40.67425782375748" lon="9.356686046280455"><ele>590.0</ele><time>2026-04-26T09:15:16.657Z</time></trkpt><trkpt lat="40.67413147975922" lon="9.356581061478545"><ele>590.0</ele><time>2026-04-26T09:15:17.657Z</time></trkpt><trkpt lat="40.673957790701806" lon="9.356558705815933"><ele>590.0</ele><time>2026-04-26T09:15:18.657Z</time></trkpt><trkpt lat="40.67374525593409" lon="9.35655224608675"><ele>590.0</ele><time>2026-04-26T09:15:19.657Z</time></trkpt><trkpt lat="40.6735107752218" lon="9.35653597639491"><ele>590.0</ele><time>2026-04-26T09:15:20.657Z</time></trkpt><trkpt lat="40.67327341350422" lon="9.356511058473846"><ele>590.0</ele><time>2026-04-26T09:15:21.657Z</time></trkpt><trkpt lat="40.67303470600414" lon="9.356495920457489"><ele>590.0</ele><time>2026-04-26T09:15:22.657Z</time></trkpt><trkpt lat="40.67279774592936" lon="9.35649138376871"><ele>590.0</ele><time>2026-04-26T09:15:23.657Z</time></trkpt><trkpt lat="40.67256068358705" lon="9.356482396698345"><ele>591.5</ele><time>2026-04-26T09:15:24.657Z</time></trkpt><trkpt lat="40.672324329958975" lon="9.356468548732348"><ele>593.0</ele><time>2026-04-26T09:15:25.656Z</time></trkpt><trkpt lat="40.67208710904763" lon="9.356457260159766"><ele>593.5</ele><time>2026-04-26T09:15:26.656Z</time></trkpt><trkpt lat="40.6718551770184" lon="9.35643163878596"><ele>594.0</ele><time>2026-04-26T09:15:27.656Z</time></trkpt><trkpt lat="40.67163368392218" lon="9.356416696716165"><ele>594.0</ele><time>2026-04-26T09:15:28.656Z</time></trkpt><trkpt lat="40.671428960966566" lon="9.356372390351526"><ele>594.0</ele><time>2026-04-26T09:15:29.656Z</time></trkpt><trkpt lat="40.671259006994255" lon="9.356256997882756"><ele>594.0</ele><time>2026-04-26T09:15:30.656Z</time></trkpt><trkpt lat="40.67108377079262" lon="9.356066739290249"><ele>593.5</ele><time>2026-04-26T09:15:31.656Z</time></trkpt><trkpt lat="40.67090547786826" lon="9.355866894734588"><ele>593.0</ele><time>2026-04-26T09:15:32.656Z</time></trkpt><trkpt lat="40.670734442170044" lon="9.355654336614792"><ele>593.5</ele><time>2026-04-26T09:15:33.656Z</time></trkpt><trkpt lat="40.67059945815801" lon="9.355397151538149"><ele>594.0</ele><time>2026-04-26T09:15:34.656Z</time></trkpt><trkpt lat="40.67049762421561" lon="9.355120770840117"><ele>594.0</ele><time>2026-04-26T09:15:35.656Z</time></trkpt><trkpt lat="40.67040622634527" lon="9.354831493943191"><ele>594.0</ele><time>2026-04-26T09:15:36.656Z</time></trkpt><trkpt lat="40.670322900318816" lon="9.354530643364557"><ele>589.0</ele><time>2026-04-26T09:15:37.656Z</time></trkpt><trkpt lat="40.670240889733684" lon="9.354233937333966"><ele>584.0</ele><time>2026-04-26T09:15:38.656Z</time></trkpt><trkpt lat="40.67015528335702" lon="9.353946956778758"><ele>584.3333333333333</ele><time>2026-04-26T09:15:39.656Z</time></trkpt><trkpt lat="40.67007987615786" lon="9.35366925144077"><ele>584.6666666666666</ele><time>2026-04-26T09:15:40.656Z</time></trkpt><trkpt lat="40.670030934446046" lon="9.353394476432191"><ele>585.0</ele><time>2026-04-26T09:15:41.656Z</time></trkpt><trkpt lat="40.67001421040602" lon="9.353124372319131"><ele>584.0</ele><time>2026-04-26T09:15:42.656Z</time></trkpt><trkpt lat="40.669998847530415" lon="9.352871767968766"><ele>583.0</ele><time>2026-04-26T09:15:43.656Z</time></trkpt><trkpt lat="40.669936535451264" lon="9.352654417906404"><ele>582.0</ele><time>2026-04-26T09:15:44.656Z</time></trkpt><trkpt lat="40.66981542390575" lon="9.35248735039817"><ele>582.0</ele><time>2026-04-26T09:15:45.656Z</time></trkpt><trkpt lat="40.66966712186883" lon="9.352371050800794"><ele>582.0</ele><time>2026-04-26T09:15:46.656Z</time></trkpt><trkpt lat="40.66951752273077" lon="9.352265685824038"><ele>582.0</ele><time>2026-04-26T09:15:47.655Z</time></trkpt><trkpt lat="40.66938468330541" lon="9.35217550644244"><ele>583.5</ele><time>2026-04-26T09:15:48.655Z</time></trkpt><trkpt lat="40.66926177320546" lon="9.352117941529125"><ele>585.0</ele><time>2026-04-26T09:15:49.655Z</time></trkpt><trkpt lat="40.66913395578678" lon="9.35210663732415"><ele>586.5</ele><time>2026-04-26T09:15:50.655Z</time></trkpt><trkpt lat="40.668997772743595" lon="9.352116611332542"><ele>588.0</ele><time>2026-04-26T09:15:51.655Z</time></trkpt><trkpt lat="40.66885592448735" lon="9.352131069026996"><ele>588.0</ele><time>2026-04-26T09:15:52.655Z</time></trkpt><trkpt lat="40.668714361719324" lon="9.352141729664677"><ele>588.0</ele><time>2026-04-26T09:15:53.655Z</time></trkpt><trkpt lat="40.66857108501855" lon="9.352151272187273"><ele>588.0</ele><time>2026-04-26T09:15:54.655Z</time></trkpt><trkpt lat="40.668441159144095" lon="9.352153163016522"><ele>588.0</ele><time>2026-04-26T09:15:55.655Z</time></trkpt><trkpt lat="40.66833130540047" lon="9.35211065877625"><ele>587.8</ele><time>2026-04-26T09:15:56.655Z</time></trkpt><trkpt lat="40.668249123163626" lon="9.35202236262533"><ele>587.5999999999999</ele><time>2026-04-26T09:15:57.655Z</time></trkpt><trkpt lat="40.66818200644322" lon="9.351907627567682"><ele>587.4000000000001</ele><time>2026-04-26T09:15:58.655Z</time></trkpt><trkpt lat="40.66811110919506" lon="9.35179704556096"><ele>587.2</ele><time>2026-04-26T09:15:59.655Z</time></trkpt><trkpt lat="40.66801764413489" lon="9.351713813736861"><ele>587.0</ele><time>2026-04-26T09:16:00.655Z</time></trkpt><trkpt lat="40.66791339067494" lon="9.351656281267301"><ele>587.0</ele><time>2026-04-26T09:16:01.655Z</time></trkpt><trkpt lat="40.66780673356734" lon="9.351599855023535"><ele>587.0</ele><time>2026-04-26T09:16:02.655Z</time></trkpt><trkpt lat="40.6677081220052" lon="9.35151544881161"><ele>587.0</ele><time>2026-04-26T09:16:03.655Z</time></trkpt><trkpt lat="40.66763128650503" lon="9.351400766929325"><ele>587.0</ele><time>2026-04-26T09:16:04.655Z</time></trkpt><trkpt lat="40.667578149009195" lon="9.35126876393492"><ele>588.75</ele><time>2026-04-26T09:16:05.655Z</time></trkpt><trkpt lat="40.66751174271702" lon="9.351149696401432"><ele>590.5</ele><time>2026-04-26T09:16:06.655Z</time></trkpt><trkpt lat="40.66741709930477" lon="9.35106502125691"><ele>592.25</ele><time>2026-04-26T09:16:07.655Z</time></trkpt><trkpt lat="40.66730822657661" lon="9.35100986963233"><ele>594.0</ele><time>2026-04-26T09:16:08.655Z</time></trkpt><trkpt lat="40.66719327148491" lon="9.350969202876747"><ele>594.0</ele><time>2026-04-26T09:16:09.654Z</time></trkpt><trkpt lat="40.66707204175213" lon="9.35092541799564"><ele>594.0</ele><time>2026-04-26T09:16:10.654Z</time></trkpt><trkpt lat="40.66695088456927" lon="9.350867809345086"><ele>594.0</ele><time>2026-04-26T09:16:11.654Z</time></trkpt><trkpt lat="40.666823533787124" lon="9.350784656069235"><ele>594.0</ele><time>2026-04-26T09:16:12.654Z</time></trkpt><trkpt lat="40.66668361836372" lon="9.350656267346954"><ele>597.0</ele><time>2026-04-26T09:16:13.654Z</time></trkpt><trkpt lat="40.66651822553831" lon="9.35047283160787"><ele>600.0</ele><time>2026-04-26T09:16:14.654Z</time></trkpt><trkpt lat="40.666339046690595" lon="9.350252149913745"><ele>600.0</ele><time>2026-04-26T09:16:15.654Z</time></trkpt><trkpt lat="40.66612014664156" lon="9.350033805345197"><ele>600.0</ele><time>2026-04-26T09:16:16.654Z</time></trkpt><trkpt lat="40.66588395184632" lon="9.349831650308063"><ele>595.5</ele><time>2026-04-26T09:16:17.654Z</time></trkpt><trkpt lat="40.66566328928955" lon="9.349640777574674"><ele>591.0</ele><time>2026-04-26T09:16:18.654Z</time></trkpt><trkpt lat="40.66546623827818" lon="9.349496667983335"><ele>591.0</ele><time>2026-04-26T09:16:19.654Z</time></trkpt><trkpt lat="40.66527946053161" lon="9.349365765094854"><ele>591.0</ele><time>2026-04-26T09:16:20.656Z</time></trkpt><trkpt lat="40.66510019488363" lon="9.349280231923176"><ele>591.0</ele><time>2026-04-26T09:16:21.656Z</time></trkpt><trkpt lat="40.664912864183016" lon="9.349281549014568"><ele>587.0</ele><time>2026-04-26T09:16:22.656Z</time></trkpt><trkpt lat="40.66474877306838" lon="9.34924237956103"><ele>583.0</ele><time>2026-04-26T09:16:23.656Z</time></trkpt><trkpt lat="40.664601435683096" lon="9.349123972470416"><ele>579.0</ele><time>2026-04-26T09:16:24.655Z</time></trkpt><trkpt lat="40.66447867066366" lon="9.348954068560598"><ele>580.0</ele><time>2026-04-26T09:16:25.655Z</time></trkpt><trkpt lat="40.664353293087245" lon="9.348827829372524"><ele>581.0</ele><time>2026-04-26T09:16:26.656Z</time></trkpt><trkpt lat="40.66420655655763" lon="9.348785336655302"><ele>582.0</ele><time>2026-04-26T09:16:27.656Z</time></trkpt><trkpt lat="40.66406529592754" lon="9.34875100665736"><ele>582.0</ele><time>2026-04-26T09:16:28.655Z</time></trkpt><trkpt lat="40.663935779079864" lon="9.348684914249286"><ele>582.0</ele><time>2026-04-26T09:16:29.655Z</time></trkpt><trkpt lat="40.6638180821979" lon="9.34857208331645"><ele>582.0</ele><time>2026-04-26T09:16:30.655Z</time></trkpt><trkpt lat="40.6636982583718" lon="9.348452161474398"><ele>582.0</ele><time>2026-04-26T09:16:31.655Z</time></trkpt><trkpt lat="40.66359414283326" lon="9.348328585328618"><ele>582.25</ele><time>2026-04-26T09:16:32.656Z</time></trkpt><trkpt lat="40.66350375908765" lon="9.348206834383546"><ele>582.5</ele><time>2026-04-26T09:16:33.655Z</time></trkpt><trkpt lat="40.663423250437326" lon="9.348089869792654"><ele>582.75</ele><time>2026-04-26T09:16:34.655Z</time></trkpt><trkpt lat="40.66332453466993" lon="9.348005750137073"><ele>583.0</ele><time>2026-04-26T09:16:35.655Z</time></trkpt><trkpt lat="40.66319461889816" lon="9.347962170344573"><ele>583.0</ele><time>2026-04-26T09:16:36.655Z</time></trkpt><trkpt lat="40.66305900411246" lon="9.347912579750624"><ele>583.0</ele><time>2026-04-26T09:16:37.655Z</time></trkpt><trkpt lat="40.66291999403327" lon="9.347837443416703"><ele>583.0</ele><time>2026-04-26T09:16:38.655Z</time></trkpt><trkpt lat="40.66277490802633" lon="9.3477295496824"><ele>579.6666666666667</ele><time>2026-04-26T09:16:39.655Z</time></trkpt><trkpt lat="40.662627833151994" lon="9.347629884398916"><ele>576.3333333333334</ele><time>2026-04-26T09:16:40.655Z</time></trkpt><trkpt lat="40.66247500285498" lon="9.347548446159127"><ele>573.0</ele><time>2026-04-26T09:16:41.655Z</time></trkpt><trkpt lat="40.662286027328484" lon="9.347496973282803"><ele>573.0</ele><time>2026-04-26T09:16:42.655Z</time></trkpt><trkpt lat="40.66203270403952" lon="9.347447895265978"><ele>573.0</ele><time>2026-04-26T09:16:43.655Z</time></trkpt><trkpt lat="40.66180499618342" lon="9.347395020794368"><ele>574.3333333333334</ele><time>2026-04-26T09:16:44.655Z</time></trkpt><trkpt lat="40.66160801768769" lon="9.347309018046852"><ele>575.6666666666667</ele><time>2026-04-26T09:16:45.655Z</time></trkpt><trkpt lat="40.66141531346213" lon="9.347168417513279"><ele>577.0</ele><time>2026-04-26T09:16:46.655Z</time></trkpt><trkpt lat="40.661242996555" lon="9.347026649552284"><ele>574.75</ele><time>2026-04-26T09:16:47.655Z</time></trkpt><trkpt lat="40.66110618555438" lon="9.346870236064207"><ele>572.5</ele><time>2026-04-26T09:16:48.655Z</time></trkpt><trkpt lat="40.66099270856646" lon="9.346760182064429"><ele>570.25</ele><time>2026-04-26T09:16:49.655Z</time></trkpt><trkpt lat="40.660887629344344" lon="9.346681972111478"><ele>568.0</ele><time>2026-04-26T09:16:50.654Z</time></trkpt><trkpt lat="40.660795150673174" lon="9.346604655159895"><ele>568.0</ele><time>2026-04-26T09:16:51.654Z</time></trkpt><trkpt lat="40.660719550278884" lon="9.346535985252961"><ele>568.0</ele><time>2026-04-26T09:16:52.654Z</time></trkpt><trkpt lat="40.66064180827486" lon="9.346504890736945"><ele>568.0</ele><time>2026-04-26T09:16:53.654Z</time></trkpt><trkpt lat="40.66055580073206" lon="9.346530973071411"><ele>568.0</ele><time>2026-04-26T09:16:54.654Z</time></trkpt><trkpt lat="40.66048309326359" lon="9.346609597998462"><ele>568.0</ele><time>2026-04-26T09:16:55.654Z</time></trkpt><trkpt lat="40.660419973506414" lon="9.346722609428625"><ele>568.0</ele><time>2026-04-26T09:16:56.654Z</time></trkpt><trkpt lat="40.66039686816047" lon="9.34685206460898"><ele>568.0</ele><time>2026-04-26T09:16:57.654Z</time></trkpt><trkpt lat="40.66040297252957" lon="9.346986150840422"><ele>568.0</ele><time>2026-04-26T09:16:58.654Z</time></trkpt><trkpt lat="40.660431528523844" lon="9.347114902968134"><ele>568.0</ele><time>2026-04-26T09:16:59.654Z</time></trkpt><trkpt lat="40.66043394053177" lon="9.347252509884287"><ele>568.0</ele><time>2026-04-26T09:17:00.654Z</time></trkpt><trkpt lat="40.66041527497394" lon="9.347396276735543"><ele>567.25</ele><time>2026-04-26T09:17:01.654Z</time></trkpt><trkpt lat="40.66035536135953" lon="9.34754487444375"><ele>566.5</ele><time>2026-04-26T09:17:02.654Z</time></trkpt><trkpt lat="40.66025526558271" lon="9.347677465925269"><ele>565.75</ele><time>2026-04-26T09:17:03.654Z</time></trkpt><trkpt lat="40.66016011524683" lon="9.347796801017555"><ele>565.0</ele><time>2026-04-26T09:17:04.654Z</time></trkpt><trkpt lat="40.66006352670339" lon="9.347894042172548"><ele>568.0</ele><time>2026-04-26T09:17:05.654Z</time></trkpt><trkpt lat="40.6599492543725" lon="9.347947896865424"><ele>571.0</ele><time>2026-04-26T09:17:06.654Z</time></trkpt><trkpt lat="40.6598143628706" lon="9.347969587535875"><ele>574.0</ele><time>2026-04-26T09:17:07.654Z</time></trkpt><trkpt lat="40.659679917979204" lon="9.34795889568301"><ele>577.0</ele><time>2026-04-26T09:17:08.654Z</time></trkpt><trkpt lat="40.659555400899436" lon="9.347951552524718"><ele>577.25</ele><time>2026-04-26T09:17:09.654Z</time></trkpt><trkpt lat="40.65943293438828" lon="9.347938587968306"><ele>577.5</ele><time>2026-04-26T09:17:10.654Z</time></trkpt><trkpt lat="40.65931084715289" lon="9.347905952920938"><ele>577.75</ele><time>2026-04-26T09:17:11.653Z</time></trkpt><trkpt lat="40.659194823590944" lon="9.347853706494794"><ele>578.0</ele><time>2026-04-26T09:17:12.653Z</time></trkpt><trkpt lat="40.65906979533173" lon="9.347780807593182"><ele>578.0</ele><time>2026-04-26T09:17:13.653Z</time></trkpt><trkpt lat="40.658940409601854" lon="9.347711539309627"><ele>578.0</ele><time>2026-04-26T09:17:14.653Z</time></trkpt><trkpt lat="40.65880706582485" lon="9.347691792781525"><ele>578.0</ele><time>2026-04-26T09:17:15.653Z</time></trkpt><trkpt lat="40.658673478012005" lon="9.347729673374042"><ele>578.0</ele><time>2026-04-26T09:17:16.653Z</time></trkpt><trkpt lat="40.65856907851473" lon="9.347794209052772"><ele>577.5</ele><time>2026-04-26T09:17:17.653Z</time></trkpt><trkpt lat="40.658460973821" lon="9.347858747460842"><ele>577.0</ele><time>2026-04-26T09:17:18.653Z</time></trkpt><trkpt lat="40.65835755443827" lon="9.347920611406114"><ele>576.5</ele><time>2026-04-26T09:17:19.653Z</time></trkpt><trkpt lat="40.65824154360063" lon="9.34792273226692"><ele>576.0</ele><time>2026-04-26T09:17:20.653Z</time></trkpt><trkpt lat="40.65812025147978" lon="9.347874279148392"><ele>576.0</ele><time>2026-04-26T09:17:21.653Z</time></trkpt><trkpt lat="40.65800422973808" lon="9.347795123050682"><ele>576.0</ele><time>2026-04-26T09:17:22.653Z</time></trkpt><trkpt lat="40.657904803138294" lon="9.347692139863604"><ele>576.0</ele><time>2026-04-26T09:17:23.653Z</time></trkpt><trkpt lat="40.657808779242394" lon="9.347588774078258"><ele>576.0</ele><time>2026-04-26T09:17:24.653Z</time></trkpt><trkpt lat="40.657713393272005" lon="9.34749363676954"><ele>575.4</ele><time>2026-04-26T09:17:25.653Z</time></trkpt><trkpt lat="40.657619956618696" lon="9.347409107725436"><ele>574.8</ele><time>2026-04-26T09:17:26.653Z</time></trkpt><trkpt lat="40.65753567133583" lon="9.347332726621678"><ele>574.1999999999999</ele><time>2026-04-26T09:17:27.653Z</time></trkpt><trkpt lat="40.65747314892699" lon="9.347263405734605"><ele>573.6</ele><time>2026-04-26T09:17:28.653Z</time></trkpt><trkpt lat="40.65739748267606" lon="9.347130588178464"><ele>573.0</ele><time>2026-04-26T09:17:30.653Z</time></trkpt><trkpt lat="40.65737239378461" lon="9.347049657965213"><ele>573.0</ele><time>2026-04-26T09:17:31.653Z</time></trkpt><trkpt lat="40.65732454723794" lon="9.346986284001321"><ele>573.0</ele><time>2026-04-26T09:17:32.653Z</time></trkpt><trkpt lat="40.65726157154735" lon="9.346951930377124"><ele>573.0</ele><time>2026-04-26T09:17:33.652Z</time></trkpt><trkpt lat="40.657184961507525" lon="9.346944387797851"><ele>573.0</ele><time>2026-04-26T09:17:34.652Z</time></trkpt><trkpt lat="40.65710072535194" lon="9.346945343348684"><ele>573.0</ele><time>2026-04-26T09:17:35.652Z</time></trkpt><trkpt lat="40.657007231568734" lon="9.346946604176836"><ele>573.0</ele><time>2026-04-26T09:17:36.652Z</time></trkpt><trkpt lat="40.65690867124088" lon="9.346921441249561"><ele>573.5</ele><time>2026-04-26T09:17:37.652Z</time></trkpt><trkpt lat="40.656818554386554" lon="9.346869733135973"><ele>574.0</ele><time>2026-04-26T09:17:38.652Z</time></trkpt><trkpt lat="40.65674002412735" lon="9.34681636033236"><ele>574.5</ele><time>2026-04-26T09:17:39.652Z</time></trkpt><trkpt lat="40.65666492635064" lon="9.346772742261546"><ele>575.0</ele><time>2026-04-26T09:17:40.652Z</time></trkpt><trkpt lat="40.65659055486933" lon="9.346734508448048"><ele>575.5</ele><time>2026-04-26T09:17:41.652Z</time></trkpt><trkpt lat="40.65651738889047" lon="9.346697840320104"><ele>576.0</ele><time>2026-04-26T09:17:42.652Z</time></trkpt><trkpt lat="40.656445105600156" lon="9.346657757575066"><ele>576.0</ele><time>2026-04-26T09:17:43.652Z</time></trkpt><trkpt lat="40.656372533875306" lon="9.346614221790857"><ele>576.0</ele><time>2026-04-26T09:17:44.652Z</time></trkpt><trkpt lat="40.65628822247272" lon="9.346552806717883"><ele>576.0</ele><time>2026-04-26T09:17:45.652Z</time></trkpt><trkpt lat="40.65619159172489" lon="9.346457439464809"><ele>576.0</ele><time>2026-04-26T09:17:46.652Z</time></trkpt><trkpt lat="40.65609955377516" lon="9.346346821068034"><ele>576.0</ele><time>2026-04-26T09:17:47.652Z</time></trkpt><trkpt lat="40.656003341623034" lon="9.346219542975161"><ele>580.0</ele><time>2026-04-26T09:17:48.652Z</time></trkpt><trkpt lat="40.65591514903721" lon="9.346058691278333"><ele>584.0</ele><time>2026-04-26T09:17:49.652Z</time></trkpt><trkpt lat="40.655824482089876" lon="9.345880347548125"><ele>588.0</ele><time>2026-04-26T09:17:50.652Z</time></trkpt><trkpt lat="40.655731419041956" lon="9.345707672646721"><ele>591.0</ele><time>2026-04-26T09:17:51.652Z</time></trkpt><trkpt lat="40.65563289809366" lon="9.345535125960287"><ele>594.0</ele><time>2026-04-26T09:17:52.652Z</time></trkpt><trkpt lat="40.65553851852298" lon="9.34536927377441"><ele>597.0</ele><time>2026-04-26T09:17:53.652Z</time></trkpt><trkpt lat="40.655429129207874" lon="9.345210567246642"><ele>597.0</ele><time>2026-04-26T09:17:54.652Z</time></trkpt><trkpt lat="40.65531004369129" lon="9.345068360275857"><ele>597.0</ele><time>2026-04-26T09:17:55.651Z</time></trkpt><trkpt lat="40.655165076990265" lon="9.344939792787015"><ele>597.0</ele><time>2026-04-26T09:17:56.651Z</time></trkpt><trkpt lat="40.65501378894315" lon="9.344829475591817"><ele>600.0</ele><time>2026-04-26T09:17:57.651Z</time></trkpt><trkpt lat="40.65485924770826" lon="9.344711765187503"><ele>603.0</ele><time>2026-04-26T09:17:58.651Z</time></trkpt><trkpt lat="40.65470976982721" lon="9.344582006273331"><ele>606.0</ele><time>2026-04-26T09:17:59.651Z</time></trkpt><trkpt lat="40.65456196019224" lon="9.34441880982857"><ele>604.6666666666666</ele><time>2026-04-26T09:18:00.651Z</time></trkpt><trkpt lat="40.65443450980479" lon="9.344250307531029"><ele>603.3333333333333</ele><time>2026-04-26T09:18:01.651Z</time></trkpt><trkpt lat="40.65434345730394" lon="9.344073453064953"><ele>602.0</ele><time>2026-04-26T09:18:02.651Z</time></trkpt><trkpt lat="40.65425944343484" lon="9.343870928474256"><ele>602.0</ele><time>2026-04-26T09:18:03.651Z</time></trkpt><trkpt lat="40.65419373590505" lon="9.343679144752295"><ele>602.0</ele><time>2026-04-26T09:18:04.651Z</time></trkpt><trkpt lat="40.65413877417845" lon="9.343500697102163"><ele>602.0</ele><time>2026-04-26T09:18:05.651Z</time></trkpt><trkpt lat="40.65407619317935" lon="9.343352820639355"><ele>602.0</ele><time>2026-04-26T09:18:06.651Z</time></trkpt><trkpt lat="40.65402740279001" lon="9.343201053924666"><ele>602.0</ele><time>2026-04-26T09:18:07.651Z</time></trkpt><trkpt lat="40.65398890032879" lon="9.34306280774946"><ele>602.0</ele><time>2026-04-26T09:18:08.651Z</time></trkpt><trkpt lat="40.65397162118571" lon="9.34293770960684"><ele>602.0</ele><time>2026-04-26T09:18:09.651Z</time></trkpt><trkpt lat="40.65394866926313" lon="9.342831445120458"><ele>602.0</ele><time>2026-04-26T09:18:10.651Z</time></trkpt><trkpt lat="40.6539205922342" lon="9.342736521967671"><ele>602.0</ele><time>2026-04-26T09:18:11.651Z</time></trkpt><trkpt lat="40.65387582075111" lon="9.342668992639448"><ele>602.0</ele><time>2026-04-26T09:18:12.651Z</time></trkpt><trkpt lat="40.653798805941854" lon="9.342615188904379"><ele>603.4</ele><time>2026-04-26T09:18:13.651Z</time></trkpt><trkpt lat="40.653686545963" lon="9.342595608394909"><ele>604.8000000000001</ele><time>2026-04-26T09:18:14.651Z</time></trkpt><trkpt lat="40.653578227190444" lon="9.342613567863616"><ele>606.2</ele><time>2026-04-26T09:18:15.651Z</time></trkpt><trkpt lat="40.653465204010196" lon="9.342651022182583"><ele>607.6</ele><time>2026-04-26T09:18:16.651Z</time></trkpt><trkpt lat="40.653357977327666" lon="9.342661838688128"><ele>609.0</ele><time>2026-04-26T09:18:17.65Z</time></trkpt><trkpt lat="40.65325058949362" lon="9.342656301637323"><ele>609.0</ele><time>2026-04-26T09:18:18.65Z</time></trkpt><trkpt lat="40.65315883039514" lon="9.342624653929597"><ele>609.0</ele><time>2026-04-26T09:18:19.65Z</time></trkpt><trkpt lat="40.653076520206156" lon="9.342581037713163"><ele>609.0</ele><time>2026-04-26T09:18:20.65Z</time></trkpt><trkpt lat="40.65299205389171" lon="9.342527669869694"><ele>609.0</ele><time>2026-04-26T09:18:21.65Z</time></trkpt><trkpt lat="40.65291749477773" lon="9.34245749791601"><ele>609.0</ele><time>2026-04-26T09:18:22.65Z</time></trkpt><trkpt lat="40.652847536586684" lon="9.342377667690174"><ele>609.2</ele><time>2026-04-26T09:18:23.65Z</time></trkpt><trkpt lat="40.65276637623946" lon="9.342308421261974"><ele>609.4</ele><time>2026-04-26T09:18:24.65Z</time></trkpt><trkpt lat="40.65267132875771" lon="9.34225304590618"><ele>609.6</ele><time>2026-04-26T09:18:25.65Z</time></trkpt><trkpt lat="40.6525798757774" lon="9.342206211971419"><ele>609.8</ele><time>2026-04-26T09:18:26.651Z</time></trkpt><trkpt lat="40.65249618642273" lon="9.3421576806265"><ele>610.0</ele><time>2026-04-26T09:18:27.651Z</time></trkpt><trkpt lat="40.652414936878465" lon="9.342105415865662"><ele>610.0</ele><time>2026-04-26T09:18:28.651Z</time></trkpt><trkpt lat="40.65233065802194" lon="9.342049110910654"><ele>610.0</ele><time>2026-04-26T09:18:29.651Z</time></trkpt><trkpt lat="40.65223800545136" lon="9.341991900018135"><ele>610.0</ele><time>2026-04-26T09:18:30.651Z</time></trkpt><trkpt lat="40.65215134090866" lon="9.34193347970967"><ele>610.0</ele><time>2026-04-26T09:18:31.651Z</time></trkpt><trkpt lat="40.65206465145032" lon="9.3418759174158"><ele>610.0</ele><time>2026-04-26T09:18:32.651Z</time></trkpt><trkpt lat="40.651977604795746" lon="9.341821460213684"><ele>608.8</ele><time>2026-04-26T09:18:33.651Z</time></trkpt><trkpt lat="40.65189424988946" lon="9.341770735817407"><ele>607.6</ele><time>2026-04-26T09:18:34.651Z</time></trkpt><trkpt lat="40.65180975240192" lon="9.341719055610307"><ele>606.4</ele><time>2026-04-26T09:18:35.651Z</time></trkpt><trkpt lat="40.65172688814438" lon="9.341665550029395"><ele>605.2</ele><time>2026-04-26T09:18:36.65Z</time></trkpt><trkpt lat="40.651648648537495" lon="9.341608081008847"><ele>604.0</ele><time>2026-04-26T09:18:37.65Z</time></trkpt><trkpt lat="40.65156662151359" lon="9.341542169224955"><ele>604.0</ele><time>2026-04-26T09:18:38.651Z</time></trkpt><trkpt lat="40.651477403474715" lon="9.341464946745349"><ele>604.0</ele><time>2026-04-26T09:18:39.651Z</time></trkpt><trkpt lat="40.65138383092378" lon="9.34135385231883"><ele>604.0</ele><time>2026-04-26T09:18:40.651Z</time></trkpt><trkpt lat="40.65129920664026" lon="9.341225103033132"><ele>604.0</ele><time>2026-04-26T09:18:41.651Z</time></trkpt><trkpt lat="40.65122723627964" lon="9.341088513718965"><ele>603.0</ele><time>2026-04-26T09:18:42.651Z</time></trkpt><trkpt lat="40.65115304233336" lon="9.340952154451424"><ele>602.0</ele><time>2026-04-26T09:18:43.651Z</time></trkpt><trkpt lat="40.65106804536767" lon="9.340820938614135"><ele>601.0</ele><time>2026-04-26T09:18:44.651Z</time></trkpt><trkpt lat="40.65096729258522" lon="9.34069749404616"><ele>600.0</ele><time>2026-04-26T09:18:45.651Z</time></trkpt><trkpt lat="40.65086291381677" lon="9.34058055687601"><ele>602.0</ele><time>2026-04-26T09:18:46.651Z</time></trkpt><trkpt lat="40.65074722398724" lon="9.340481396665245"><ele>604.0</ele><time>2026-04-26T09:18:47.65Z</time></trkpt><trkpt lat="40.65064025837997" lon="9.340373180600961"><ele>606.0</ele><time>2026-04-26T09:18:48.65Z</time></trkpt><trkpt lat="40.65054592675886" lon="9.340240898085598"><ele>608.0</ele><time>2026-04-26T09:18:49.65Z</time></trkpt><trkpt lat="40.65046191152016" lon="9.340082075204675"><ele>608.0</ele><time>2026-04-26T09:18:50.65Z</time></trkpt><trkpt lat="40.65038279094908" lon="9.339906107155624"><ele>608.0</ele><time>2026-04-26T09:18:51.65Z</time></trkpt><trkpt lat="40.65029762632796" lon="9.339732308172572"><ele>608.0</ele><time>2026-04-26T09:18:52.65Z</time></trkpt><trkpt lat="40.65021005742985" lon="9.3395624549279"><ele>607.3333333333333</ele><time>2026-04-26T09:18:53.65Z</time></trkpt><trkpt lat="40.650122626085206" lon="9.339395027034541"><ele>606.6666666666666</ele><time>2026-04-26T09:18:54.65Z</time></trkpt><trkpt lat="40.65003230043814" lon="9.33922005035202"><ele>606.0</ele><time>2026-04-26T09:18:55.65Z</time></trkpt><trkpt lat="40.649944623434955" lon="9.339036144379632"><ele>609.6666666666666</ele><time>2026-04-26T09:18:56.65Z</time></trkpt><trkpt lat="40.64985505497046" lon="9.338852555634109"><ele>613.3333333333333</ele><time>2026-04-26T09:18:57.65Z</time></trkpt><trkpt lat="40.649755918502656" lon="9.338667819182849"><ele>617.0</ele><time>2026-04-26T09:18:58.65Z</time></trkpt><trkpt lat="40.64965492259894" lon="9.338474019649489"><ele>617.0</ele><time>2026-04-26T09:18:59.65Z</time></trkpt><trkpt lat="40.64954930316303" lon="9.3382866647355"><ele>617.0</ele><time>2026-04-26T09:19:00.65Z</time></trkpt><trkpt lat="40.64943424424536" lon="9.338100351038582"><ele>617.0</ele><time>2026-04-26T09:19:01.65Z</time></trkpt><trkpt lat="40.64930491700498" lon="9.337921996943843"><ele>615.0</ele><time>2026-04-26T09:19:02.65Z</time></trkpt><trkpt lat="40.649169554486775" lon="9.337748924499097"><ele>613.0</ele><time>2026-04-26T09:19:03.65Z</time></trkpt><trkpt lat="40.649033124602354" lon="9.337580433671787"><ele>611.0</ele><time>2026-04-26T09:19:04.65Z</time></trkpt><trkpt lat="40.64889303646617" lon="9.337425898154164"><ele>611.0</ele><time>2026-04-26T09:19:05.65Z</time></trkpt><trkpt lat="40.64874460523174" lon="9.33728005430186"><ele>611.0</ele><time>2026-04-26T09:19:06.65Z</time></trkpt><trkpt lat="40.648595290742286" lon="9.33714597569839"><ele>611.0</ele><time>2026-04-26T09:19:07.65Z</time></trkpt><trkpt lat="40.648444296722765" lon="9.337016610414176"><ele>613.6666666666666</ele><time>2026-04-26T09:19:08.65Z</time></trkpt><trkpt lat="40.64829048513453" lon="9.33689741421173"><ele>616.3333333333334</ele><time>2026-04-26T09:19:09.649Z</time></trkpt><trkpt lat="40.6481366453439" lon="9.336782661371023"><ele>619.0</ele><time>2026-04-26T09:19:10.649Z</time></trkpt><trkpt lat="40.64797954956599" lon="9.336667404337815"><ele>619.0</ele><time>2026-04-26T09:19:11.649Z</time></trkpt><trkpt lat="40.6478227691922" lon="9.336547986144229"><ele>619.0</ele><time>2026-04-26T09:19:12.649Z</time></trkpt><trkpt lat="40.64766391908281" lon="9.336420909006288"><ele>619.0</ele><time>2026-04-26T09:19:13.649Z</time></trkpt><trkpt lat="40.647506739003724" lon="9.336287007883671"><ele>621.3333333333334</ele><time>2026-04-26T09:19:14.649Z</time></trkpt><trkpt lat="40.64734538400691" lon="9.336139534971325"><ele>623.6666666666666</ele><time>2026-04-26T09:19:15.649Z</time></trkpt><trkpt lat="40.64718821037222" lon="9.335972483485431"><ele>626.0</ele><time>2026-04-26T09:19:16.649Z</time></trkpt><trkpt lat="40.64703328595253" lon="9.33579007400847"><ele>626.3333333333333</ele><time>2026-04-26T09:19:17.649Z</time></trkpt><trkpt lat="40.64688372018891" lon="9.335592792261298"><ele>626.6666666666666</ele><time>2026-04-26T09:19:18.649Z</time></trkpt><trkpt lat="40.64674548392182" lon="9.335382978829495"><ele>627.0</ele><time>2026-04-26T09:19:19.649Z</time></trkpt><trkpt lat="40.64661864829253" lon="9.335164192470502"><ele>627.0</ele><time>2026-04-26T09:19:20.649Z</time></trkpt><trkpt lat="40.64650027795955" lon="9.334940974686011"><ele>627.0</ele><time>2026-04-26T09:19:21.649Z</time></trkpt><trkpt lat="40.64639662476369" lon="9.334702665410497"><ele>627.0</ele><time>2026-04-26T09:19:22.649Z</time></trkpt><trkpt lat="40.64630469432439" lon="9.334466739156563"><ele>627.3333333333334</ele><time>2026-04-26T09:19:23.649Z</time></trkpt><trkpt lat="40.64621772689077" lon="9.334221520846272"><ele>627.6666666666667</ele><time>2026-04-26T09:19:24.649Z</time></trkpt><trkpt lat="40.6461412109129" lon="9.333967119420723"><ele>628.0</ele><time>2026-04-26T09:19:25.649Z</time></trkpt><trkpt lat="40.6460766890758" lon="9.33370514098907"><ele>627.3333333333334</ele><time>2026-04-26T09:19:26.649Z</time></trkpt><trkpt lat="40.64602218808666" lon="9.333435386980643"><ele>626.6666666666666</ele><time>2026-04-26T09:19:27.649Z</time></trkpt><trkpt lat="40.645967463214255" lon="9.333160614920134"><ele>626.0</ele><time>2026-04-26T09:19:28.649Z</time></trkpt><trkpt lat="40.64591067815671" lon="9.332887079009787"><ele>626.0</ele><time>2026-04-26T09:19:29.649Z</time></trkpt><trkpt lat="40.64584547889578" lon="9.332617348709572"><ele>626.0</ele><time>2026-04-26T09:19:30.649Z</time></trkpt><trkpt lat="40.64577238997664" lon="9.332346231000303"><ele>626.0</ele><time>2026-04-26T09:19:31.648Z</time></trkpt><trkpt lat="40.64569539208178" lon="9.332077541766962"><ele>627.6666666666666</ele><time>2026-04-26T09:19:32.648Z</time></trkpt><trkpt lat="40.64560752652476" lon="9.331809626540501"><ele>629.3333333333334</ele><time>2026-04-26T09:19:33.648Z</time></trkpt><trkpt lat="40.645509934592305" lon="9.331554566429825"><ele>631.0</ele><time>2026-04-26T09:19:34.648Z</time></trkpt><trkpt lat="40.64541168250898" lon="9.3313060722792"><ele>632.0</ele><time>2026-04-26T09:19:35.648Z</time></trkpt><trkpt lat="40.64530979845223" lon="9.331070233137108"><ele>633.0</ele><time>2026-04-26T09:19:36.648Z</time></trkpt><trkpt lat="40.645202990643675" lon="9.33084544555235"><ele>634.0</ele><time>2026-04-26T09:19:37.648Z</time></trkpt><trkpt lat="40.64509258931361" lon="9.330643315058616"><ele>635.6666666666667</ele><time>2026-04-26T09:19:38.648Z</time></trkpt><trkpt lat="40.644984974149956" lon="9.330455741831344"><ele>637.3333333333334</ele><time>2026-04-26T09:19:39.648Z</time></trkpt><trkpt lat="40.644872166440514" lon="9.330299174323939"><ele>639.0</ele><time>2026-04-26T09:19:40.648Z</time></trkpt><trkpt lat="40.644757417676985" lon="9.330171347306468"><ele>639.0</ele><time>2026-04-26T09:19:41.648Z</time></trkpt><trkpt lat="40.64467990943972" lon="9.330059331290256"><ele>639.0</ele><time>2026-04-26T09:19:42.648Z</time></trkpt><trkpt lat="40.644621650837955" lon="9.329957384406217"><ele>639.0</ele><time>2026-04-26T09:19:43.648Z</time></trkpt><trkpt lat="40.64457367564005" lon="9.329882077654776"><ele>639.0</ele><time>2026-04-26T09:19:44.648Z</time></trkpt><trkpt lat="40.644510918545876" lon="9.329806263313118"><ele>639.0</ele><time>2026-04-26T09:19:46.648Z</time></trkpt><trkpt lat="40.644451995254975" lon="9.329759595899715"><ele>639.0</ele><time>2026-04-26T09:19:49.648Z</time></trkpt><trkpt lat="40.6443611779853" lon="9.329715288741063"><ele>639.4</ele><time>2026-04-26T09:25:17.635Z</time></trkpt><trkpt lat="40.6442460016125" lon="9.329623389555875"><ele>639.8</ele><time>2026-04-26T09:25:19.635Z</time></trkpt><trkpt lat="40.64418204135457" lon="9.329557040990908"><ele>640.1999999999999</ele><time>2026-04-26T09:25:20.635Z</time></trkpt><trkpt lat="40.64410473311123" lon="9.32948421404208"><ele>640.5999999999999</ele><time>2026-04-26T09:25:21.635Z</time></trkpt><trkpt lat="40.64401930179633" lon="9.329407580341528"><ele>641.0</ele><time>2026-04-26T09:25:22.635Z</time></trkpt><trkpt lat="40.64392717860394" lon="9.329333165008899"><ele>641.0</ele><time>2026-04-26T09:25:23.635Z</time></trkpt><trkpt lat="40.643829134559816" lon="9.329260786847172"><ele>641.0</ele><time>2026-04-26T09:25:24.635Z</time></trkpt><trkpt lat="40.64372443516056" lon="9.329181083164178"><ele>641.0</ele><time>2026-04-26T09:25:25.635Z</time></trkpt><trkpt lat="40.643611987846484" lon="9.329099142217014"><ele>641.0</ele><time>2026-04-26T09:25:26.635Z</time></trkpt><trkpt lat="40.64349120972803" lon="9.32902086937656"><ele>640.5</ele><time>2026-04-26T09:25:27.635Z</time></trkpt><trkpt lat="40.643360246633655" lon="9.328945631213069"><ele>640.0</ele><time>2026-04-26T09:25:28.635Z</time></trkpt><trkpt lat="40.6432269719737" lon="9.32887254043133"><ele>639.5</ele><time>2026-04-26T09:25:29.635Z</time></trkpt><trkpt lat="40.643088152378624" lon="9.328804152976119"><ele>639.0</ele><time>2026-04-26T09:25:30.635Z</time></trkpt><trkpt lat="40.64294172323833" lon="9.328744013978296"><ele>642.3333333333334</ele><time>2026-04-26T09:25:31.634Z</time></trkpt><trkpt lat="40.64279179428151" lon="9.3286883747483"><ele>645.6666666666667</ele><time>2026-04-26T09:25:32.634Z</time></trkpt><trkpt lat="40.64263323353648" lon="9.328635530414234"><ele>649.0</ele><time>2026-04-26T09:25:33.634Z</time></trkpt><trkpt lat="40.64247007454544" lon="9.328587615628956"><ele>649.0</ele><time>2026-04-26T09:25:34.634Z</time></trkpt><trkpt lat="40.642299185480276" lon="9.3285387503875"><ele>649.0</ele><time>2026-04-26T09:25:35.634Z</time></trkpt><trkpt lat="40.64213093154061" lon="9.328487291123116"><ele>649.0</ele><time>2026-04-26T09:25:36.634Z</time></trkpt><trkpt lat="40.64196261519882" lon="9.3284321718099"><ele>650.6666666666667</ele><time>2026-04-26T09:25:37.634Z</time></trkpt><trkpt lat="40.64179401691925" lon="9.328374874824458"><ele>652.3333333333334</ele><time>2026-04-26T09:25:38.634Z</time></trkpt><trkpt lat="40.641627269636786" lon="9.328317676897163"><ele>654.0</ele><time>2026-04-26T09:25:39.634Z</time></trkpt><trkpt lat="40.64145823289817" lon="9.328252395938065"><ele>654.0</ele><time>2026-04-26T09:25:40.634Z</time></trkpt><trkpt lat="40.64128136604919" lon="9.328193293493138"><ele>654.0</ele><time>2026-04-26T09:25:41.634Z</time></trkpt><trkpt lat="40.641102638069256" lon="9.32813566598294"><ele>654.0</ele><time>2026-04-26T09:25:42.634Z</time></trkpt><trkpt lat="40.640922329756314" lon="9.328076830673602"><ele>656.0</ele><time>2026-04-26T09:25:43.634Z</time></trkpt><trkpt lat="40.64074195409867" lon="9.328015899051598"><ele>658.0</ele><time>2026-04-26T09:25:44.634Z</time></trkpt><trkpt lat="40.6405597678871" lon="9.327947046073552"><ele>660.0</ele><time>2026-04-26T09:25:45.634Z</time></trkpt><trkpt lat="40.64037689918339" lon="9.327867296060804"><ele>660.0</ele><time>2026-04-26T09:25:46.634Z</time></trkpt><trkpt lat="40.640191880704705" lon="9.327783222076748"><ele>660.0</ele><time>2026-04-26T09:25:47.634Z</time></trkpt><trkpt lat="40.6400082237011" lon="9.327685201711816"><ele>660.0</ele><time>2026-04-26T09:25:48.634Z</time></trkpt><trkpt lat="40.63982655336971" lon="9.327576530148455"><ele>660.0</ele><time>2026-04-26T09:25:49.634Z</time></trkpt><trkpt lat="40.639651078248285" lon="9.327455172822567"><ele>660.0</ele><time>2026-04-26T09:25:50.634Z</time></trkpt><trkpt lat="40.63948587329333" lon="9.327304597443623"><ele>660.0</ele><time>2026-04-26T09:25:51.634Z</time></trkpt><trkpt lat="40.63932948820959" lon="9.32714062046682"><ele>659.3333333333334</ele><time>2026-04-26T09:25:52.634Z</time></trkpt><trkpt lat="40.63917857653138" lon="9.326966297007353"><ele>658.6666666666667</ele><time>2026-04-26T09:25:53.633Z</time></trkpt><trkpt lat="40.639012131533256" lon="9.32682115934982"><ele>658.0</ele><time>2026-04-26T09:25:54.633Z</time></trkpt><trkpt lat="40.638851245728716" lon="9.326671959713961"><ele>658.0</ele><time>2026-04-26T09:25:55.633Z</time></trkpt><trkpt lat="40.638698816616916" lon="9.326510031736428"><ele>658.0</ele><time>2026-04-26T09:25:56.633Z</time></trkpt><trkpt lat="40.63855655765121" lon="9.326328956631405"><ele>658.0</ele><time>2026-04-26T09:25:57.633Z</time></trkpt><trkpt lat="40.63842203861512" lon="9.326139713871223"><ele>657.6666666666667</ele><time>2026-04-26T09:25:58.633Z</time></trkpt><trkpt lat="40.63829569587739" lon="9.32594251158267"><ele>657.3333333333334</ele><time>2026-04-26T09:25:59.633Z</time></trkpt><trkpt lat="40.63817414161078" lon="9.325736263432074"><ele>657.0</ele><time>2026-04-26T09:26:00.633Z</time></trkpt><trkpt lat="40.63805845994592" lon="9.325522738154703"><ele>656.3333333333334</ele><time>2026-04-26T09:26:01.633Z</time></trkpt><trkpt lat="40.63795260784471" lon="9.325300424610507"><ele>655.6666666666667</ele><time>2026-04-26T09:26:02.633Z</time></trkpt><trkpt lat="40.63785045749821" lon="9.325068556339726"><ele>655.0</ele><time>2026-04-26T09:26:03.633Z</time></trkpt><trkpt lat="40.63775175774995" lon="9.324832816882964"><ele>656.0</ele><time>2026-04-26T09:26:04.633Z</time></trkpt><trkpt lat="40.637657346525316" lon="9.324589155180808"><ele>657.0</ele><time>2026-04-26T09:26:05.633Z</time></trkpt><trkpt lat="40.637563742633844" lon="9.324339433384857"><ele>658.0</ele><time>2026-04-26T09:26:06.633Z</time></trkpt><trkpt lat="40.63747124524768" lon="9.324091958885536"><ele>658.3333333333334</ele><time>2026-04-26T09:26:07.633Z</time></trkpt><trkpt lat="40.637375677216646" lon="9.323847446103402"><ele>658.6666666666666</ele><time>2026-04-26T09:26:08.633Z</time></trkpt><trkpt lat="40.63726948760006" lon="9.32360246936806"><ele>659.0</ele><time>2026-04-26T09:26:09.633Z</time></trkpt><trkpt lat="40.63716767361215" lon="9.323350329937645"><ele>659.0</ele><time>2026-04-26T09:26:10.633Z</time></trkpt><trkpt lat="40.637070593345506" lon="9.323088737558408"><ele>659.0</ele><time>2026-04-26T09:26:11.633Z</time></trkpt><trkpt lat="40.63697048186136" lon="9.322831177505309"><ele>659.0</ele><time>2026-04-26T09:26:12.633Z</time></trkpt><trkpt lat="40.63687463601505" lon="9.322573332883712"><ele>657.0</ele><time>2026-04-26T09:26:13.633Z</time></trkpt><trkpt lat="40.636773120669496" lon="9.322302121239296"><ele>655.0</ele><time>2026-04-26T09:26:14.633Z</time></trkpt><trkpt lat="40.636665362769556" lon="9.322027349163454"><ele>654.5</ele><time>2026-04-26T09:26:15.632Z</time></trkpt><trkpt lat="40.63655521336867" lon="9.321744746377755"><ele>654.0</ele><time>2026-04-26T09:26:16.632Z</time></trkpt><trkpt lat="40.636446927001685" lon="9.321454228306962"><ele>654.0</ele><time>2026-04-26T09:26:17.632Z</time></trkpt><trkpt lat="40.63633644899423" lon="9.321167056448312"><ele>654.0</ele><time>2026-04-26T09:26:18.632Z</time></trkpt><trkpt lat="40.63622833689574" lon="9.320880808559927"><ele>655.0</ele><time>2026-04-26T09:26:19.632Z</time></trkpt><trkpt lat="40.63611911239496" lon="9.320596751089198"><ele>656.0</ele><time>2026-04-26T09:26:20.632Z</time></trkpt><trkpt lat="40.636012330253095" lon="9.320316092067861"><ele>654.0</ele><time>2026-04-26T09:26:21.632Z</time></trkpt><trkpt lat="40.63590602285865" lon="9.320037617181463"><ele>652.0</ele><time>2026-04-26T09:26:22.632Z</time></trkpt><trkpt lat="40.63579194925979" lon="9.319756558564423"><ele>650.0</ele><time>2026-04-26T09:26:23.632Z</time></trkpt><trkpt lat="40.63568020049639" lon="9.319476123118566"><ele>648.0</ele><time>2026-04-26T09:26:24.632Z</time></trkpt><trkpt lat="40.635571756816375" lon="9.319190144727225"><ele>648.0</ele><time>2026-04-26T09:26:25.632Z</time></trkpt><trkpt lat="40.635460734282205" lon="9.318901961212706"><ele>648.0</ele><time>2026-04-26T09:26:26.632Z</time></trkpt><trkpt lat="40.63534854126089" lon="9.318615867504295"><ele>648.5</ele><time>2026-04-26T09:26:27.632Z</time></trkpt><trkpt lat="40.635231935860055" lon="9.318328976604866"><ele>649.0</ele><time>2026-04-26T09:26:28.632Z</time></trkpt><trkpt lat="40.63511701299449" lon="9.318039207775325"><ele>648.0</ele><time>2026-04-26T09:26:29.632Z</time></trkpt><trkpt lat="40.635004066064724" lon="9.317748985626487"><ele>647.0</ele><time>2026-04-26T09:26:30.632Z</time></trkpt><trkpt lat="40.63489120356958" lon="9.317458962440439"><ele>646.0</ele><time>2026-04-26T09:26:31.632Z</time></trkpt><trkpt lat="40.634776931846005" lon="9.317172620770366"><ele>645.0</ele><time>2026-04-26T09:26:32.632Z</time></trkpt><trkpt lat="40.63466270999631" lon="9.316886028589803"><ele>645.0</ele><time>2026-04-26T09:26:33.632Z</time></trkpt><trkpt lat="40.63455010977951" lon="9.316596728938686"><ele>645.0</ele><time>2026-04-26T09:26:34.632Z</time></trkpt><trkpt lat="40.634439196395796" lon="9.316309008577399"><ele>644.5</ele><time>2026-04-26T09:26:35.632Z</time></trkpt><trkpt lat="40.63432901411147" lon="9.31602155012444"><ele>644.0</ele><time>2026-04-26T09:26:36.631Z</time></trkpt><trkpt lat="40.63421795593642" lon="9.315736648115118"><ele>645.0</ele><time>2026-04-26T09:26:37.631Z</time></trkpt><trkpt lat="40.634107768463394" lon="9.315453675842807"><ele>646.0</ele><time>2026-04-26T09:26:38.631Z</time></trkpt><trkpt lat="40.63399905961408" lon="9.315173365378797"><ele>646.0</ele><time>2026-04-26T09:26:39.631Z</time></trkpt><trkpt lat="40.63389215657045" lon="9.314900132219492"><ele>646.0</ele><time>2026-04-26T09:26:40.631Z</time></trkpt><trkpt lat="40.63378494545036" lon="9.314628738312061"><ele>646.5</ele><time>2026-04-26T09:26:41.631Z</time></trkpt><trkpt lat="40.633680009182775" lon="9.314360630671858"><ele>647.0</ele><time>2026-04-26T09:26:42.631Z</time></trkpt><trkpt lat="40.63357452626282" lon="9.314094182661593"><ele>646.5</ele><time>2026-04-26T09:26:43.631Z</time></trkpt><trkpt lat="40.63346864194374" lon="9.313826741952772"><ele>646.0</ele><time>2026-04-26T09:26:44.631Z</time></trkpt><trkpt lat="40.633362196837005" lon="9.313560111891748"><ele>646.0</ele><time>2026-04-26T09:26:45.631Z</time></trkpt><trkpt lat="40.633260789394654" lon="9.313289780958227"><ele>646.0</ele><time>2026-04-26T09:26:46.631Z</time></trkpt><trkpt lat="40.63316734692714" lon="9.31301938627744"><ele>645.6666666666667</ele><time>2026-04-26T09:26:47.631Z</time></trkpt><trkpt lat="40.63306880609109" lon="9.312757828840267"><ele>645.3333333333334</ele><time>2026-04-26T09:26:48.631Z</time></trkpt><trkpt lat="40.63298264072028" lon="9.312479843485692"><ele>645.0</ele><time>2026-04-26T09:26:49.631Z</time></trkpt><trkpt lat="40.63288908375916" lon="9.31220044070756"><ele>646.0</ele><time>2026-04-26T09:26:50.632Z</time></trkpt><trkpt lat="40.632801198941586" lon="9.311902974515679"><ele>647.0</ele><time>2026-04-26T09:26:51.631Z</time></trkpt><trkpt lat="40.63271619219887" lon="9.311596744639791"><ele>645.5</ele><time>2026-04-26T09:26:52.631Z</time></trkpt><trkpt lat="40.63262991085428" lon="9.311285114844164"><ele>644.0</ele><time>2026-04-26T09:26:53.632Z</time></trkpt><trkpt lat="40.63254557506081" lon="9.310958900719283"><ele>644.0</ele><time>2026-04-26T09:26:54.632Z</time></trkpt><trkpt lat="40.632452048394086" lon="9.310645488694629"><ele>644.0</ele><time>2026-04-26T09:26:55.631Z</time></trkpt><trkpt lat="40.63235947696704" lon="9.310332316440109"><ele>643.0</ele><time>2026-04-26T09:26:56.632Z</time></trkpt><trkpt lat="40.632275130070745" lon="9.310021288552807"><ele>642.0</ele><time>2026-04-26T09:26:57.631Z</time></trkpt><trkpt lat="40.632189578664736" lon="9.309711210726922"><ele>642.0</ele><time>2026-04-26T09:26:58.631Z</time></trkpt><trkpt lat="40.63207914319816" lon="9.309429906046882"><ele>642.0</ele><time>2026-04-26T09:26:59.631Z</time></trkpt><trkpt lat="40.63195901433745" lon="9.309174174550435"><ele>644.3333333333334</ele><time>2026-04-26T09:27:00.631Z</time></trkpt><trkpt lat="40.63184123325332" lon="9.308934275136403"><ele>646.6666666666667</ele><time>2026-04-26T09:27:01.631Z</time></trkpt><trkpt lat="40.63171115729087" lon="9.308716930622582"><ele>649.0</ele><time>2026-04-26T09:27:02.631Z</time></trkpt><trkpt lat="40.631554746623635" lon="9.308568197858321"><ele>649.0</ele><time>2026-04-26T09:27:03.63Z</time></trkpt><trkpt lat="40.63141462846913" lon="9.30835798990189"><ele>649.0</ele><time>2026-04-26T09:27:04.63Z</time></trkpt><trkpt lat="40.63129907164529" lon="9.308109535320215"><ele>649.0</ele><time>2026-04-26T09:27:05.63Z</time></trkpt><trkpt lat="40.63118781335145" lon="9.307850665295195"><ele>650.5</ele><time>2026-04-26T09:27:06.63Z</time></trkpt><trkpt lat="40.63107958767682" lon="9.3075884543269"><ele>652.0</ele><time>2026-04-26T09:27:07.63Z</time></trkpt><trkpt lat="40.63097044976149" lon="9.307322120914394"><ele>650.5</ele><time>2026-04-26T09:27:08.63Z</time></trkpt><trkpt lat="40.63086077421129" lon="9.30705785948542"><ele>649.0</ele><time>2026-04-26T09:27:09.63Z</time></trkpt><trkpt lat="40.63074915571529" lon="9.306794985837106"><ele>649.0</ele><time>2026-04-26T09:27:10.63Z</time></trkpt><trkpt lat="40.63063792683812" lon="9.306526520531447"><ele>649.0</ele><time>2026-04-26T09:27:11.63Z</time></trkpt><trkpt lat="40.630528437004315" lon="9.306257137944522"><ele>648.0</ele><time>2026-04-26T09:27:12.63Z</time></trkpt><trkpt lat="40.630416870427226" lon="9.305989542398768"><ele>647.0</ele><time>2026-04-26T09:27:13.63Z</time></trkpt><trkpt lat="40.63030839886506" lon="9.305716043462846"><ele>647.5</ele><time>2026-04-26T09:27:14.63Z</time></trkpt><trkpt lat="40.630195171925806" lon="9.30544465849638"><ele>648.0</ele><time>2026-04-26T09:27:15.63Z</time></trkpt><trkpt lat="40.63009057293947" lon="9.305165036837446"><ele>648.0</ele><time>2026-04-26T09:27:16.63Z</time></trkpt><trkpt lat="40.629980244479114" lon="9.304889025650477"><ele>648.0</ele><time>2026-04-26T09:27:17.63Z</time></trkpt><trkpt lat="40.62987050430546" lon="9.304614633322437"><ele>646.5</ele><time>2026-04-26T09:27:18.63Z</time></trkpt><trkpt lat="40.62975377627748" lon="9.304339388931153"><ele>645.0</ele><time>2026-04-26T09:27:19.63Z</time></trkpt><trkpt lat="40.6296332359581" lon="9.304069850009341"><ele>644.5</ele><time>2026-04-26T09:27:20.63Z</time></trkpt><trkpt lat="40.62950824151926" lon="9.303796846166858"><ele>644.0</ele><time>2026-04-26T09:27:21.63Z</time></trkpt><trkpt lat="40.629377880256996" lon="9.303525578642303"><ele>644.0</ele><time>2026-04-26T09:27:22.63Z</time></trkpt><trkpt lat="40.629245312283075" lon="9.3032501336771"><ele>644.0</ele><time>2026-04-26T09:27:23.63Z</time></trkpt><trkpt lat="40.62911125545868" lon="9.302972498482319"><ele>643.0</ele><time>2026-04-26T09:27:24.63Z</time></trkpt><trkpt lat="40.62897417742965" lon="9.302696680905136"><ele>642.0</ele><time>2026-04-26T09:27:25.629Z</time></trkpt><trkpt lat="40.62883150492165" lon="9.30242644555737"><ele>642.0</ele><time>2026-04-26T09:27:26.629Z</time></trkpt><trkpt lat="40.628683448824454" lon="9.30215680888335"><ele>642.0</ele><time>2026-04-26T09:27:27.629Z</time></trkpt><trkpt lat="40.62853325886546" lon="9.301888311673094"><ele>642.0</ele><time>2026-04-26T09:27:28.629Z</time></trkpt><trkpt lat="40.62838372054967" lon="9.301621109339969"><ele>642.0</ele><time>2026-04-26T09:27:29.629Z</time></trkpt><trkpt lat="40.628226494190365" lon="9.301354933610634"><ele>642.5</ele><time>2026-04-26T09:27:30.629Z</time></trkpt><trkpt lat="40.6280677438686" lon="9.301090916189263"><ele>643.0</ele><time>2026-04-26T09:27:31.629Z</time></trkpt><trkpt lat="40.627906035710964" lon="9.300830445807518"><ele>644.5</ele><time>2026-04-26T09:27:32.629Z</time></trkpt><trkpt lat="40.627737697775004" lon="9.300575905216663"><ele>646.0</ele><time>2026-04-26T09:27:33.629Z</time></trkpt><trkpt lat="40.62756892674906" lon="9.300322337636223"><ele>646.0</ele><time>2026-04-26T09:27:34.629Z</time></trkpt><trkpt lat="40.62739627887068" lon="9.300067472955625"><ele>646.0</ele><time>2026-04-26T09:27:35.629Z</time></trkpt><trkpt lat="40.627223938823015" lon="9.299820446818762"><ele>646.0</ele><time>2026-04-26T09:27:36.629Z</time></trkpt><trkpt lat="40.62705157674017" lon="9.299582213039065"><ele>646.0</ele><time>2026-04-26T09:27:37.629Z</time></trkpt><trkpt lat="40.6268778729049" lon="9.299342760025551"><ele>646.5</ele><time>2026-04-26T09:27:38.629Z</time></trkpt><trkpt lat="40.626707700945246" lon="9.299098747058952"><ele>647.0</ele><time>2026-04-26T09:27:39.629Z</time></trkpt><trkpt lat="40.626541263905544" lon="9.298860509717725"><ele>647.0</ele><time>2026-04-26T09:27:40.629Z</time></trkpt><trkpt lat="40.62637607713152" lon="9.298629019762283"><ele>647.0</ele><time>2026-04-26T09:27:41.629Z</time></trkpt><trkpt lat="40.6262090539949" lon="9.298394223654743"><ele>647.5</ele><time>2026-04-26T09:27:42.629Z</time></trkpt><trkpt lat="40.62604460420771" lon="9.29815281563074"><ele>648.0</ele><time>2026-04-26T09:27:43.629Z</time></trkpt><trkpt lat="40.6258845204569" lon="9.29791197903173"><ele>647.0</ele><time>2026-04-26T09:27:44.629Z</time></trkpt><trkpt lat="40.625728250839316" lon="9.297669423701342"><ele>646.0</ele><time>2026-04-26T09:27:45.629Z</time></trkpt><trkpt lat="40.62557577853371" lon="9.29742586585985"><ele>645.5</ele><time>2026-04-26T09:27:46.628Z</time></trkpt><trkpt lat="40.62542523418605" lon="9.297182033405727"><ele>645.0</ele><time>2026-04-26T09:27:47.628Z</time></trkpt><trkpt lat="40.62527522884532" lon="9.296934035842202"><ele>644.5</ele><time>2026-04-26T09:27:48.628Z</time></trkpt><trkpt lat="40.62512617355185" lon="9.296681674135273"><ele>644.0</ele><time>2026-04-26T09:27:49.628Z</time></trkpt><trkpt lat="40.62497285619534" lon="9.296428651071487"><ele>644.0</ele><time>2026-04-26T09:27:50.628Z</time></trkpt><trkpt lat="40.624814628259145" lon="9.296164932507082"><ele>644.0</ele><time>2026-04-26T09:27:51.628Z</time></trkpt><trkpt lat="40.624660168618014" lon="9.295904872050999"><ele>644.0</ele><time>2026-04-26T09:27:52.628Z</time></trkpt><trkpt lat="40.62450360580103" lon="9.29564042138797"><ele>644.0</ele><time>2026-04-26T09:27:53.628Z</time></trkpt><trkpt lat="40.62434668260599" lon="9.295368933851673"><ele>642.0</ele><time>2026-04-26T09:27:54.628Z</time></trkpt><trkpt lat="40.62418885170447" lon="9.295097319014799"><ele>640.0</ele><time>2026-04-26T09:27:55.628Z</time></trkpt><trkpt lat="40.62402852793357" lon="9.294822501341576"><ele>639.5</ele><time>2026-04-26T09:27:56.628Z</time></trkpt><trkpt lat="40.62386605963422" lon="9.294544612865465"><ele>639.0</ele><time>2026-04-26T09:27:57.628Z</time></trkpt><trkpt lat="40.623700339325396" lon="9.294267760666235"><ele>638.0</ele><time>2026-04-26T09:27:58.628Z</time></trkpt><trkpt lat="40.623536934822035" lon="9.293988507325276"><ele>637.0</ele><time>2026-04-26T09:27:59.628Z</time></trkpt><trkpt lat="40.623374875415344" lon="9.293709159397586"><ele>636.5</ele><time>2026-04-26T09:28:00.628Z</time></trkpt><trkpt lat="40.62321151907153" lon="9.293430548898797"><ele>636.0</ele><time>2026-04-26T09:28:01.628Z</time></trkpt><trkpt lat="40.6230494421909" lon="9.293154027985183"><ele>636.0</ele><time>2026-04-26T09:28:02.628Z</time></trkpt><trkpt lat="40.62288863520441" lon="9.292881979601049"><ele>636.0</ele><time>2026-04-26T09:28:03.628Z</time></trkpt><trkpt lat="40.622730646718395" lon="9.292617109905136"><ele>635.0</ele><time>2026-04-26T09:28:04.628Z</time></trkpt><trkpt lat="40.62257633302975" lon="9.29236022733973"><ele>634.0</ele><time>2026-04-26T09:28:05.628Z</time></trkpt><trkpt lat="40.622423897214276" lon="9.292111681733978"><ele>634.0</ele><time>2026-04-26T09:28:06.628Z</time></trkpt><trkpt lat="40.622272987174284" lon="9.291869617499481"><ele>634.0</ele><time>2026-04-26T09:28:07.628Z</time></trkpt><trkpt lat="40.62211738805501" lon="9.291630685931679"><ele>633.5</ele><time>2026-04-26T09:28:08.627Z</time></trkpt><trkpt lat="40.621958506135414" lon="9.291398266663487"><ele>633.0</ele><time>2026-04-26T09:28:09.627Z</time></trkpt><trkpt lat="40.6217955837771" lon="9.291167970516682"><ele>633.0</ele><time>2026-04-26T09:28:10.627Z</time></trkpt><trkpt lat="40.621629015178954" lon="9.290944313551957"><ele>633.0</ele><time>2026-04-26T09:28:11.627Z</time></trkpt><trkpt lat="40.62146711563087" lon="9.290719573522077"><ele>633.0</ele><time>2026-04-26T09:28:12.627Z</time></trkpt><trkpt lat="40.62130442153785" lon="9.290498664454768"><ele>633.0</ele><time>2026-04-26T09:28:13.627Z</time></trkpt><trkpt lat="40.62113720901848" lon="9.29028288052241"><ele>632.5</ele><time>2026-04-26T09:28:14.627Z</time></trkpt><trkpt lat="40.620968303236296" lon="9.290061903759911"><ele>632.0</ele><time>2026-04-26T09:28:15.627Z</time></trkpt><trkpt lat="40.62079479491424" lon="9.289847279657605"><ele>631.5</ele><time>2026-04-26T09:28:16.627Z</time></trkpt><trkpt lat="40.62061660866147" lon="9.289634304592296"><ele>631.0</ele><time>2026-04-26T09:28:17.627Z</time></trkpt><trkpt lat="40.62043803286231" lon="9.28942567809566"><ele>631.0</ele><time>2026-04-26T09:28:18.627Z</time></trkpt><trkpt lat="40.620254912751854" lon="9.289219553495085"><ele>631.0</ele><time>2026-04-26T09:28:19.627Z</time></trkpt><trkpt lat="40.62007253463479" lon="9.289015228036503"><ele>631.0</ele><time>2026-04-26T09:28:20.627Z</time></trkpt><trkpt lat="40.61988733922618" lon="9.288807294468652"><ele>631.0</ele><time>2026-04-26T09:28:21.627Z</time></trkpt><trkpt lat="40.61970122745456" lon="9.288597408005726"><ele>631.0</ele><time>2026-04-26T09:28:22.627Z</time></trkpt><trkpt lat="40.619512178354064" lon="9.288390028375417"><ele>631.0</ele><time>2026-04-26T09:28:23.627Z</time></trkpt><trkpt lat="40.61932685665399" lon="9.28818234144276"><ele>630.5</ele><time>2026-04-26T09:28:24.627Z</time></trkpt><trkpt lat="40.61914096212283" lon="9.287970864381112"><ele>630.0</ele><time>2026-04-26T09:28:25.627Z</time></trkpt><trkpt lat="40.618954268659486" lon="9.287758205233253"><ele>630.0</ele><time>2026-04-26T09:28:26.627Z</time></trkpt><trkpt lat="40.61876613081505" lon="9.287549614280644"><ele>630.0</ele><time>2026-04-26T09:28:27.627Z</time></trkpt><trkpt lat="40.61857835683262" lon="9.287344731501895"><ele>630.5</ele><time>2026-04-26T09:28:28.627Z</time></trkpt><trkpt lat="40.61839729657902" lon="9.287137172492933"><ele>631.0</ele><time>2026-04-26T09:28:29.627Z</time></trkpt><trkpt lat="40.61821378350129" lon="9.286932502594917"><ele>631.0</ele><time>2026-04-26T09:28:30.626Z</time></trkpt><trkpt lat="40.61803335031699" lon="9.286732231973744"><ele>631.0</ele><time>2026-04-26T09:28:31.626Z</time></trkpt><trkpt lat="40.61785436750438" lon="9.28652913341052"><ele>630.5</ele><time>2026-04-26T09:28:32.626Z</time></trkpt><trkpt lat="40.617675762185094" lon="9.2863307695755"><ele>630.0</ele><time>2026-04-26T09:28:33.626Z</time></trkpt><trkpt lat="40.61749749189404" lon="9.286133342490396"><ele>630.0</ele><time>2026-04-26T09:28:34.626Z</time></trkpt><trkpt lat="40.61732032168352" lon="9.285931862354952"><ele>630.0</ele><time>2026-04-26T09:28:35.626Z</time></trkpt><trkpt lat="40.61713974070012" lon="9.285725495751276"><ele>631.0</ele><time>2026-04-26T09:28:36.626Z</time></trkpt><trkpt lat="40.61695633931118" lon="9.285521126173727"><ele>632.0</ele><time>2026-04-26T09:28:37.626Z</time></trkpt><trkpt lat="40.61677089125538" lon="9.285316637140966"><ele>632.0</ele><time>2026-04-26T09:28:38.626Z</time></trkpt><trkpt lat="40.616585221845575" lon="9.285107221342304"><ele>632.0</ele><time>2026-04-26T09:28:39.626Z</time></trkpt><trkpt lat="40.61640057450382" lon="9.284898994682985"><ele>631.5</ele><time>2026-04-26T09:28:40.626Z</time></trkpt><trkpt lat="40.616213706038224" lon="9.284690364346272"><ele>631.0</ele><time>2026-04-26T09:28:41.626Z</time></trkpt><trkpt lat="40.616026256282765" lon="9.284483539704162"><ele>632.5</ele><time>2026-04-26T09:28:42.626Z</time></trkpt><trkpt lat="40.61583814554628" lon="9.284276837646813"><ele>634.0</ele><time>2026-04-26T09:28:43.626Z</time></trkpt><trkpt lat="40.615650615621085" lon="9.28406891447967"><ele>633.0</ele><time>2026-04-26T09:28:44.626Z</time></trkpt><trkpt lat="40.61546118731528" lon="9.283860257492776"><ele>632.0</ele><time>2026-04-26T09:28:45.626Z</time></trkpt><trkpt lat="40.61527177243974" lon="9.283648888759062"><ele>632.0</ele><time>2026-04-26T09:28:46.626Z</time></trkpt><trkpt lat="40.61508178944955" lon="9.283436195487635"><ele>632.0</ele><time>2026-04-26T09:28:47.626Z</time></trkpt><trkpt lat="40.61489164073169" lon="9.2832228470866"><ele>631.0</ele><time>2026-04-26T09:28:48.626Z</time></trkpt><trkpt lat="40.61470210518458" lon="9.283008405141745"><ele>630.0</ele><time>2026-04-26T09:28:49.626Z</time></trkpt><trkpt lat="40.61450969174193" lon="9.282796613162132"><ele>629.5</ele><time>2026-04-26T09:28:50.626Z</time></trkpt><trkpt lat="40.61431956285686" lon="9.282586637334816"><ele>629.0</ele><time>2026-04-26T09:28:51.626Z</time></trkpt><trkpt lat="40.61413002588288" lon="9.282380162624932"><ele>627.0</ele><time>2026-04-26T09:28:52.625Z</time></trkpt><trkpt lat="40.613941340679986" lon="9.28217486265089"><ele>625.0</ele><time>2026-04-26T09:28:53.625Z</time></trkpt><trkpt lat="40.613754580584256" lon="9.281969952725518"><ele>624.0</ele><time>2026-04-26T09:28:54.625Z</time></trkpt><trkpt lat="40.61356863527499" lon="9.281759389564327"><ele>623.0</ele><time>2026-04-26T09:28:55.625Z</time></trkpt><trkpt lat="40.613382117461356" lon="9.281547248894267"><ele>622.0</ele><time>2026-04-26T09:28:56.626Z</time></trkpt><trkpt lat="40.613196607317605" lon="9.281334714910708"><ele>621.0</ele><time>2026-04-26T09:28:57.626Z</time></trkpt><trkpt lat="40.61301013069925" lon="9.281123320443589"><ele>621.0</ele><time>2026-04-26T09:28:58.626Z</time></trkpt><trkpt lat="40.61282547286375" lon="9.280918626115358"><ele>621.0</ele><time>2026-04-26T09:28:59.626Z</time></trkpt><trkpt lat="40.612640736930175" lon="9.280713237677654"><ele>620.5</ele><time>2026-04-26T09:29:00.626Z</time></trkpt><trkpt lat="40.61245604893404" lon="9.280510098638807"><ele>620.0</ele><time>2026-04-26T09:29:01.626Z</time></trkpt><trkpt lat="40.612271073675586" lon="9.28030616128675"><ele>620.0</ele><time>2026-04-26T09:29:02.626Z</time></trkpt><trkpt lat="40.612089241801996" lon="9.28009803987192"><ele>620.0</ele><time>2026-04-26T09:29:03.625Z</time></trkpt><trkpt lat="40.611905816899124" lon="9.27989223319008"><ele>622.0</ele><time>2026-04-26T09:29:04.625Z</time></trkpt><trkpt lat="40.611721994681844" lon="9.27968742855573"><ele>624.0</ele><time>2026-04-26T09:29:05.625Z</time></trkpt><trkpt lat="40.611538052825715" lon="9.279480877292334"><ele>624.0</ele><time>2026-04-26T09:29:06.625Z</time></trkpt><trkpt lat="40.611351335120524" lon="9.27927625419942"><ele>624.0</ele><time>2026-04-26T09:29:07.625Z</time></trkpt><trkpt lat="40.611165473113495" lon="9.279070437554857"><ele>623.0</ele><time>2026-04-26T09:29:08.625Z</time></trkpt><trkpt lat="40.61097640143626" lon="9.278868479618046"><ele>622.0</ele><time>2026-04-26T09:29:09.625Z</time></trkpt><trkpt lat="40.61078484922585" lon="9.27866279345981"><ele>622.0</ele><time>2026-04-26T09:29:10.625Z</time></trkpt><trkpt lat="40.610597338311976" lon="9.27844886996486"><ele>622.0</ele><time>2026-04-26T09:29:11.625Z</time></trkpt><trkpt lat="40.61041317514488" lon="9.278230123537998"><ele>621.5</ele><time>2026-04-26T09:29:12.625Z</time></trkpt><trkpt lat="40.61022512935104" lon="9.278014478898534"><ele>621.0</ele><time>2026-04-26T09:29:13.625Z</time></trkpt><trkpt lat="40.610034534034405" lon="9.277802812328156"><ele>621.0</ele><time>2026-04-26T09:29:14.625Z</time></trkpt><trkpt lat="40.60984392130664" lon="9.277591832531932"><ele>621.0</ele><time>2026-04-26T09:29:15.625Z</time></trkpt><trkpt lat="40.609651616414126" lon="9.277380895459867"><ele>621.0</ele><time>2026-04-26T09:29:16.625Z</time></trkpt><trkpt lat="40.60945919468481" lon="9.277166918263307"><ele>621.0</ele><time>2026-04-26T09:29:17.625Z</time></trkpt><trkpt lat="40.609267440569" lon="9.276957137151559"><ele>621.0</ele><time>2026-04-26T09:29:18.625Z</time></trkpt><trkpt lat="40.60907638770921" lon="9.27674511419909"><ele>621.0</ele><time>2026-04-26T09:29:19.625Z</time></trkpt><trkpt lat="40.60888728754397" lon="9.276532780616774"><ele>620.5</ele><time>2026-04-26T09:29:20.624Z</time></trkpt><trkpt lat="40.608699018995225" lon="9.276322736467502"><ele>620.0</ele><time>2026-04-26T09:29:21.624Z</time></trkpt><trkpt lat="40.6085123881095" lon="9.276116607506005"><ele>620.0</ele><time>2026-04-26T09:29:22.624Z</time></trkpt><trkpt lat="40.60833034850542" lon="9.275915245325"><ele>620.0</ele><time>2026-04-26T09:29:23.624Z</time></trkpt><trkpt lat="40.608152141202666" lon="9.27571483185316"><ele>619.6666666666666</ele><time>2026-04-26T09:29:24.624Z</time></trkpt><trkpt lat="40.60798335817497" lon="9.27553110836216"><ele>619.3333333333334</ele><time>2026-04-26T09:29:25.624Z</time></trkpt><trkpt lat="40.607824868442655" lon="9.275359362453313"><ele>619.0</ele><time>2026-04-26T09:29:26.624Z</time></trkpt><trkpt lat="40.60767675169679" lon="9.275194026943733"><ele>619.0</ele><time>2026-04-26T09:29:27.624Z</time></trkpt><trkpt lat="40.60752038575765" lon="9.275021511400302"><ele>619.0</ele><time>2026-04-26T09:29:28.624Z</time></trkpt><trkpt lat="40.60736358702475" lon="9.274849336391036"><ele>619.0</ele><time>2026-04-26T09:29:29.624Z</time></trkpt><trkpt lat="40.607209276269735" lon="9.27467619351744"><ele>619.0</ele><time>2026-04-26T09:29:30.624Z</time></trkpt><trkpt lat="40.60705445147228" lon="9.274502269690501"><ele>619.0</ele><time>2026-04-26T09:29:31.624Z</time></trkpt><trkpt lat="40.60689883044821" lon="9.274323851784398"><ele>619.0</ele><time>2026-04-26T09:29:32.624Z</time></trkpt><trkpt lat="40.606744393190766" lon="9.274142526569117"><ele>619.0</ele><time>2026-04-26T09:29:33.624Z</time></trkpt><trkpt lat="40.60658859813382" lon="9.273961864130023"><ele>619.0</ele><time>2026-04-26T09:29:34.624Z</time></trkpt><trkpt lat="40.60643177265408" lon="9.273779783627894"><ele>619.0</ele><time>2026-04-26T09:29:35.624Z</time></trkpt><trkpt lat="40.606272450414885" lon="9.27359950009019"><ele>618.3333333333334</ele><time>2026-04-26T09:29:36.624Z</time></trkpt><trkpt lat="40.60611007814066" lon="9.273424938686425"><ele>617.6666666666666</ele><time>2026-04-26T09:29:37.624Z</time></trkpt><trkpt lat="40.60594969642477" lon="9.273247740730834"><ele>617.0</ele><time>2026-04-26T09:29:38.624Z</time></trkpt><trkpt lat="40.605791333119974" lon="9.273070850985967"><ele>617.0</ele><time>2026-04-26T09:29:39.624Z</time></trkpt><trkpt lat="40.60563577994321" lon="9.272890201946916"><ele>617.0</ele><time>2026-04-26T09:29:40.624Z</time></trkpt><trkpt lat="40.60547758607006" lon="9.272712640216689"><ele>617.0</ele><time>2026-04-26T09:29:41.624Z</time></trkpt><trkpt lat="40.60531848299102" lon="9.272534539635402"><ele>617.0</ele><time>2026-04-26T09:29:42.623Z</time></trkpt><trkpt lat="40.60516047925792" lon="9.272351270196536"><ele>617.0</ele><time>2026-04-26T09:29:43.623Z</time></trkpt><trkpt lat="40.605007548741746" lon="9.272161735487371"><ele>617.0</ele><time>2026-04-26T09:29:44.623Z</time></trkpt><trkpt lat="40.60486095309658" lon="9.271970319736889"><ele>616.6666666666666</ele><time>2026-04-26T09:29:45.623Z</time></trkpt><trkpt lat="40.60471712685181" lon="9.271776688795436"><ele>616.3333333333334</ele><time>2026-04-26T09:29:46.623Z</time></trkpt><trkpt lat="40.604570703349076" lon="9.271582798311835"><ele>616.0</ele><time>2026-04-26T09:29:47.623Z</time></trkpt><trkpt lat="40.604420371611575" lon="9.271386883776275"><ele>616.6666666666667</ele><time>2026-04-26T09:29:48.623Z</time></trkpt><trkpt lat="40.604268883655344" lon="9.271187132748032"><ele>617.3333333333334</ele><time>2026-04-26T09:29:49.623Z</time></trkpt><trkpt lat="40.60411835726135" lon="9.270988732880818"><ele>618.0</ele><time>2026-04-26T09:29:50.623Z</time></trkpt><trkpt lat="40.60396471607234" lon="9.2707846351366"><ele>618.6666666666666</ele><time>2026-04-26T09:29:51.623Z</time></trkpt><trkpt lat="40.60381014163538" lon="9.270579209289233"><ele>619.3333333333333</ele><time>2026-04-26T09:29:52.623Z</time></trkpt><trkpt lat="40.60365527224181" lon="9.270373615416242"><ele>620.0</ele><time>2026-04-26T09:29:53.623Z</time></trkpt><trkpt lat="40.60349987562694" lon="9.270166757969658"><ele>618.6666666666666</ele><time>2026-04-26T09:29:54.623Z</time></trkpt><trkpt lat="40.603344495304206" lon="9.269957793810079"><ele>617.3333333333334</ele><time>2026-04-26T09:29:55.623Z</time></trkpt><trkpt lat="40.603185939027924" lon="9.269748888904928"><ele>616.0</ele><time>2026-04-26T09:29:56.623Z</time></trkpt><trkpt lat="40.603026236697985" lon="9.269540366808961"><ele>615.5</ele><time>2026-04-26T09:29:57.623Z</time></trkpt><trkpt lat="40.60287058915381" lon="9.269318688768061"><ele>615.0</ele><time>2026-04-26T09:29:58.623Z</time></trkpt><trkpt lat="40.6027073564035" lon="9.26911301473693"><ele>614.6666666666666</ele><time>2026-04-26T09:29:59.623Z</time></trkpt><trkpt lat="40.60255327887188" lon="9.268905725800133"><ele>614.3333333333333</ele><time>2026-04-26T09:30:00.623Z</time></trkpt><trkpt lat="40.602395097421166" lon="9.268692901751862"><ele>614.0</ele><time>2026-04-26T09:30:01.623Z</time></trkpt><trkpt lat="40.60223359274843" lon="9.268477916248504"><ele>614.0</ele><time>2026-04-26T09:30:02.623Z</time></trkpt><trkpt lat="40.60206422075303" lon="9.268261897443283"><ele>614.0</ele><time>2026-04-26T09:30:03.622Z</time></trkpt><trkpt lat="40.601891855756875" lon="9.268033086219585"><ele>614.0</ele><time>2026-04-26T09:30:04.622Z</time></trkpt><trkpt lat="40.60171681551207" lon="9.267801823024646"><ele>614.0</ele><time>2026-04-26T09:30:05.622Z</time></trkpt><trkpt lat="40.60153570437094" lon="9.267564735350353"><ele>614.0</ele><time>2026-04-26T09:30:06.622Z</time></trkpt><trkpt lat="40.601349906121705" lon="9.267320649686289"><ele>614.0</ele><time>2026-04-26T09:30:07.622Z</time></trkpt><trkpt lat="40.601161634335725" lon="9.267062443650602"><ele>612.5</ele><time>2026-04-26T09:30:08.622Z</time></trkpt><trkpt lat="40.60096724822911" lon="9.266801951935005"><ele>611.0</ele><time>2026-04-26T09:30:09.622Z</time></trkpt><trkpt lat="40.6007702164019" lon="9.26653543831067"><ele>610.5</ele><time>2026-04-26T09:30:10.622Z</time></trkpt><trkpt lat="40.600571672920225" lon="9.26626483985359"><ele>610.0</ele><time>2026-04-26T09:30:11.622Z</time></trkpt><trkpt lat="40.60036967461493" lon="9.265992282072295"><ele>610.5</ele><time>2026-04-26T09:30:12.622Z</time></trkpt><trkpt lat="40.60016444232487" lon="9.26571323944632"><ele>611.0</ele><time>2026-04-26T09:30:13.622Z</time></trkpt><trkpt lat="40.59995903856354" lon="9.265436904957456"><ele>611.0</ele><time>2026-04-26T09:30:14.622Z</time></trkpt><trkpt lat="40.599754303277756" lon="9.265158136022556"><ele>611.0</ele><time>2026-04-26T09:30:15.622Z</time></trkpt><trkpt lat="40.599549265008655" lon="9.264879731377885"><ele>612.0</ele><time>2026-04-26T09:30:16.622Z</time></trkpt><trkpt lat="40.59934268771979" lon="9.264602278636348"><ele>613.0</ele><time>2026-04-26T09:30:17.622Z</time></trkpt><trkpt lat="40.59913406636242" lon="9.264323467707458"><ele>613.0</ele><time>2026-04-26T09:30:18.622Z</time></trkpt><trkpt lat="40.598924312268814" lon="9.26404423508016"><ele>613.0</ele><time>2026-04-26T09:30:19.622Z</time></trkpt><trkpt lat="40.59871469092231" lon="9.263767920496454"><ele>613.0</ele><time>2026-04-26T09:30:20.622Z</time></trkpt><trkpt lat="40.598507546085116" lon="9.263484840587799"><ele>613.0</ele><time>2026-04-26T09:30:21.622Z</time></trkpt><trkpt lat="40.5982990861964" lon="9.263205047425933"><ele>612.5</ele><time>2026-04-26T09:30:22.622Z</time></trkpt><trkpt lat="40.59809263434883" lon="9.262917929532158"><ele>612.0</ele><time>2026-04-26T09:30:23.622Z</time></trkpt><trkpt lat="40.597883636990204" lon="9.262637490944112"><ele>611.5</ele><time>2026-04-26T09:30:24.622Z</time></trkpt><trkpt lat="40.59767350511029" lon="9.262358013553678"><ele>611.0</ele><time>2026-04-26T09:30:25.621Z</time></trkpt><trkpt lat="40.59746032309001" lon="9.262075079627733"><ele>611.0</ele><time>2026-04-26T09:30:26.621Z</time></trkpt><trkpt lat="40.59724917429765" lon="9.261792045980352"><ele>611.0</ele><time>2026-04-26T09:30:27.621Z</time></trkpt><trkpt lat="40.59703652786333" lon="9.261509096312366"><ele>611.5</ele><time>2026-04-26T09:30:28.621Z</time></trkpt><trkpt lat="40.59681983529594" lon="9.261225440689605"><ele>612.0</ele><time>2026-04-26T09:30:29.621Z</time></trkpt><trkpt lat="40.59660261391734" lon="9.260944056404183"><ele>612.0</ele><time>2026-04-26T09:30:30.621Z</time></trkpt><trkpt lat="40.59638306951405" lon="9.26066181059151"><ele>612.0</ele><time>2026-04-26T09:30:31.621Z</time></trkpt><trkpt lat="40.59616670342532" lon="9.260378492047604"><ele>611.0</ele><time>2026-04-26T09:30:32.621Z</time></trkpt><trkpt lat="40.595951141562544" lon="9.260092691830092"><ele>610.0</ele><time>2026-04-26T09:30:33.621Z</time></trkpt><trkpt lat="40.595738992661595" lon="9.259806496553662"><ele>610.0</ele><time>2026-04-26T09:30:34.621Z</time></trkpt><trkpt lat="40.59552539836843" lon="9.259516781806417"><ele>610.0</ele><time>2026-04-26T09:30:35.621Z</time></trkpt><trkpt lat="40.595310091962425" lon="9.259229915555453"><ele>610.0</ele><time>2026-04-26T09:30:36.621Z</time></trkpt><trkpt lat="40.59509307318691" lon="9.25894486987481"><ele>610.0</ele><time>2026-04-26T09:30:37.621Z</time></trkpt><trkpt lat="40.59487719497773" lon="9.258661467437754"><ele>610.0</ele><time>2026-04-26T09:30:38.621Z</time></trkpt><trkpt lat="40.59466400363121" lon="9.258379918086893"><ele>610.0</ele><time>2026-04-26T09:30:39.621Z</time></trkpt><trkpt lat="40.594450649119636" lon="9.258096698638697"><ele>611.0</ele><time>2026-04-26T09:30:40.621Z</time></trkpt><trkpt lat="40.59423781469077" lon="9.257811478600656"><ele>612.0</ele><time>2026-04-26T09:30:41.621Z</time></trkpt><trkpt lat="40.59402711702835" lon="9.257528769044141"><ele>612.5</ele><time>2026-04-26T09:30:42.621Z</time></trkpt><trkpt lat="40.5938179884248" lon="9.257245521556209"><ele>613.0</ele><time>2026-04-26T09:30:43.621Z</time></trkpt><trkpt lat="40.593610521493645" lon="9.256960747932313"><ele>613.5</ele><time>2026-04-26T09:30:44.621Z</time></trkpt><trkpt lat="40.593401838964986" lon="9.256675591890723"><ele>614.0</ele><time>2026-04-26T09:30:45.621Z</time></trkpt><trkpt lat="40.593192620743665" lon="9.256389307489508"><ele>614.0</ele><time>2026-04-26T09:30:46.621Z</time></trkpt><trkpt lat="40.59298061792133" lon="9.256108735287771"><ele>614.0</ele><time>2026-04-26T09:30:47.62Z</time></trkpt><trkpt lat="40.59277011853266" lon="9.255829424848153"><ele>613.5</ele><time>2026-04-26T09:30:48.62Z</time></trkpt><trkpt lat="40.59256113917899" lon="9.255552046093724"><ele>613.0</ele><time>2026-04-26T09:30:49.62Z</time></trkpt><trkpt lat="40.59235587352667" lon="9.255277305751717"><ele>613.0</ele><time>2026-04-26T09:30:50.62Z</time></trkpt><trkpt lat="40.59214855620138" lon="9.254999397796439"><ele>613.0</ele><time>2026-04-26T09:30:51.62Z</time></trkpt><trkpt lat="40.591943226413825" lon="9.254721899686508"><ele>612.5</ele><time>2026-04-26T09:30:52.62Z</time></trkpt><trkpt lat="40.591737912865256" lon="9.254444922532985"><ele>612.0</ele><time>2026-04-26T09:30:53.62Z</time></trkpt><trkpt lat="40.59153425127157" lon="9.25416829324214"><ele>612.5</ele><time>2026-04-26T09:30:54.62Z</time></trkpt><trkpt lat="40.591333783580005" lon="9.253888911911838"><ele>613.0</ele><time>2026-04-26T09:30:55.62Z</time></trkpt><trkpt lat="40.591136323680296" lon="9.253609203875627"><ele>611.5</ele><time>2026-04-26T09:30:56.62Z</time></trkpt><trkpt lat="40.590944831174966" lon="9.253324436115658"><ele>610.0</ele><time>2026-04-26T09:30:57.62Z</time></trkpt><trkpt lat="40.59076450641407" lon="9.253028322957396"><ele>609.5</ele><time>2026-04-26T09:30:58.62Z</time></trkpt><trkpt lat="40.590592329437065" lon="9.252720132829152"><ele>609.0</ele><time>2026-04-26T09:30:59.62Z</time></trkpt><trkpt lat="40.59042824860541" lon="9.2523974656765"><ele>609.5</ele><time>2026-04-26T09:31:00.62Z</time></trkpt><trkpt lat="40.59026753755381" lon="9.252064975077793"><ele>610.0</ele><time>2026-04-26T09:31:01.62Z</time></trkpt><trkpt lat="40.590111696962815" lon="9.251729165095744"><ele>610.5</ele><time>2026-04-26T09:31:02.62Z</time></trkpt><trkpt lat="40.589964967954145" lon="9.251391065464071"><ele>611.0</ele><time>2026-04-26T09:31:03.62Z</time></trkpt><trkpt lat="40.58982840063571" lon="9.251051329431723"><ele>611.0</ele><time>2026-04-26T09:31:04.62Z</time></trkpt><trkpt lat="40.589703292846096" lon="9.250699303701568"><ele>611.0</ele><time>2026-04-26T09:31:05.621Z</time></trkpt><trkpt lat="40.58958494508219" lon="9.25034177880653"><ele>611.5</ele><time>2026-04-26T09:31:06.62Z</time></trkpt><trkpt lat="40.58947626775502" lon="9.249975265858458"><ele>612.0</ele><time>2026-04-26T09:31:07.62Z</time></trkpt><trkpt lat="40.589375375992994" lon="9.249601905251131"><ele>612.0</ele><time>2026-04-26T09:31:08.621Z</time></trkpt><trkpt lat="40.58928210017605" lon="9.249220667546222"><ele>612.0</ele><time>2026-04-26T09:31:09.62Z</time></trkpt><trkpt lat="40.58919575812535" lon="9.248837724369897"><ele>610.0</ele><time>2026-04-26T09:31:10.62Z</time></trkpt><trkpt lat="40.58911420708664" lon="9.248451754977879"><ele>608.0</ele><time>2026-04-26T09:31:11.62Z</time></trkpt><trkpt lat="40.58903702283853" lon="9.248067508071651"><ele>608.0</ele><time>2026-04-26T09:31:12.62Z</time></trkpt><trkpt lat="40.5889621259594" lon="9.247674529751423"><ele>608.0</ele><time>2026-04-26T09:31:13.619Z</time></trkpt><trkpt lat="40.588884215408115" lon="9.247282698824442"><ele>608.0</ele><time>2026-04-26T09:31:14.62Z</time></trkpt><trkpt lat="40.58880248585637" lon="9.246897581753494"><ele>608.0</ele><time>2026-04-26T09:31:15.619Z</time></trkpt><trkpt lat="40.58871806719422" lon="9.246505867143977"><ele>609.5</ele><time>2026-04-26T09:31:16.619Z</time></trkpt><trkpt lat="40.58863365445374" lon="9.246114211328832"><ele>611.0</ele><time>2026-04-26T09:31:17.619Z</time></trkpt><trkpt lat="40.58855386406042" lon="9.245733296680564"><ele>610.5</ele><time>2026-04-26T09:31:18.619Z</time></trkpt><trkpt lat="40.588476928561604" lon="9.245356200457948"><ele>610.0</ele><time>2026-04-26T09:31:19.619Z</time></trkpt><trkpt lat="40.58840187319696" lon="9.244980605316071"><ele>609.5</ele><time>2026-04-26T09:31:20.619Z</time></trkpt><trkpt lat="40.58832687298715" lon="9.244619940933644"><ele>609.0</ele><time>2026-04-26T09:31:21.619Z</time></trkpt><trkpt lat="40.58825224429484" lon="9.244257425393823"><ele>608.5</ele><time>2026-04-26T09:31:22.619Z</time></trkpt><trkpt lat="40.58818058230522" lon="9.243900840208724"><ele>608.0</ele><time>2026-04-26T09:31:23.619Z</time></trkpt><trkpt lat="40.58810874694222" lon="9.2435490325612"><ele>608.0</ele><time>2026-04-26T09:31:24.619Z</time></trkpt><trkpt lat="40.5880360423433" lon="9.243207899038294"><ele>608.0</ele><time>2026-04-26T09:31:25.619Z</time></trkpt><trkpt lat="40.58796808331243" lon="9.242876227938135"><ele>608.0</ele><time>2026-04-26T09:31:26.619Z</time></trkpt><trkpt lat="40.58790146980686" lon="9.242544316318527"><ele>608.0</ele><time>2026-04-26T09:31:27.619Z</time></trkpt><trkpt lat="40.587831797194056" lon="9.242207568374084"><ele>608.0</ele><time>2026-04-26T09:31:28.619Z</time></trkpt><trkpt lat="40.58776151481114" lon="9.241875026301692"><ele>608.0</ele><time>2026-04-26T09:31:29.619Z</time></trkpt><trkpt lat="40.58769509284773" lon="9.241546330174824"><ele>607.5</ele><time>2026-04-26T09:31:30.618Z</time></trkpt><trkpt lat="40.58762961638427" lon="9.241219329974507"><ele>607.0</ele><time>2026-04-26T09:31:31.618Z</time></trkpt><trkpt lat="40.58756376404991" lon="9.240883167638273"><ele>606.5</ele><time>2026-04-26T09:31:32.618Z</time></trkpt><trkpt lat="40.587493450839" lon="9.240540043541417"><ele>606.0</ele><time>2026-04-26T09:31:33.618Z</time></trkpt><trkpt lat="40.58742278753311" lon="9.24020299022991"><ele>606.0</ele><time>2026-04-26T09:31:34.618Z</time></trkpt><trkpt lat="40.587358099046455" lon="9.239867762450968"><ele>606.0</ele><time>2026-04-26T09:31:35.618Z</time></trkpt><trkpt lat="40.587285341567544" lon="9.239542079011638"><ele>606.5</ele><time>2026-04-26T09:31:36.618Z</time></trkpt><trkpt lat="40.58721363554371" lon="9.239215041916227"><ele>607.0</ele><time>2026-04-26T09:31:37.618Z</time></trkpt><trkpt lat="40.58714403945728" lon="9.238885124201369"><ele>607.5</ele><time>2026-04-26T09:31:38.618Z</time></trkpt><trkpt lat="40.58707675427792" lon="9.238563826051358"><ele>608.0</ele><time>2026-04-26T09:31:39.618Z</time></trkpt><trkpt lat="40.58700878195995" lon="9.23824343477178"><ele>610.0</ele><time>2026-04-26T09:31:40.618Z</time></trkpt><trkpt lat="40.58694350309093" lon="9.237925921413348"><ele>612.0</ele><time>2026-04-26T09:31:41.618Z</time></trkpt><trkpt lat="40.58687693402993" lon="9.237598449866178"><ele>611.5</ele><time>2026-04-26T09:31:42.618Z</time></trkpt><trkpt lat="40.58680894279361" lon="9.237266380023849"><ele>611.0</ele><time>2026-04-26T09:31:43.618Z</time></trkpt><trkpt lat="40.586742390491935" lon="9.23692753349047"><ele>611.0</ele><time>2026-04-26T09:31:44.618Z</time></trkpt><trkpt lat="40.58667498024307" lon="9.236598870170837"><ele>611.0</ele><time>2026-04-26T09:31:45.618Z</time></trkpt><trkpt lat="40.58660388897625" lon="9.23626354426484"><ele>610.0</ele><time>2026-04-26T09:31:46.618Z</time></trkpt><trkpt lat="40.586532306253446" lon="9.235934887619646"><ele>609.0</ele><time>2026-04-26T09:31:47.618Z</time></trkpt><trkpt lat="40.58645805795068" lon="9.235605661896583"><ele>609.0</ele><time>2026-04-26T09:31:48.618Z</time></trkpt><trkpt lat="40.58637886564508" lon="9.23528820874936"><ele>609.0</ele><time>2026-04-26T09:31:49.618Z</time></trkpt><trkpt lat="40.58630319894245" lon="9.234982013184268"><ele>608.5</ele><time>2026-04-26T09:31:50.618Z</time></trkpt><trkpt lat="40.5862256836735" lon="9.234683799525452"><ele>608.0</ele><time>2026-04-26T09:31:51.618Z</time></trkpt><trkpt lat="40.586149737895134" lon="9.234392342190368"><ele>608.5</ele><time>2026-04-26T09:31:52.617Z</time></trkpt><trkpt lat="40.586074951711126" lon="9.23411115277023"><ele>609.0</ele><time>2026-04-26T09:31:53.617Z</time></trkpt><trkpt lat="40.58599544795005" lon="9.233836208629876"><ele>609.0</ele><time>2026-04-26T09:31:54.617Z</time></trkpt><trkpt lat="40.58590827486649" lon="9.233556894471237"><ele>609.0</ele><time>2026-04-26T09:31:55.617Z</time></trkpt><trkpt lat="40.58581755098138" lon="9.233277230130662"><ele>608.5</ele><time>2026-04-26T09:31:56.617Z</time></trkpt><trkpt lat="40.58572682841132" lon="9.232996365551301"><ele>608.0</ele><time>2026-04-26T09:31:57.617Z</time></trkpt><trkpt lat="40.585633079632075" lon="9.23271405239376"><ele>608.0</ele><time>2026-04-26T09:31:58.617Z</time></trkpt><trkpt lat="40.58553427547415" lon="9.232425084679587"><ele>608.0</ele><time>2026-04-26T09:31:59.617Z</time></trkpt><trkpt lat="40.58543034935079" lon="9.232136823889558"><ele>610.0</ele><time>2026-04-26T09:32:00.617Z</time></trkpt><trkpt lat="40.58532294617842" lon="9.231851313100163"><ele>612.0</ele><time>2026-04-26T09:32:01.617Z</time></trkpt><trkpt lat="40.58521389229341" lon="9.231568451442149"><ele>611.5</ele><time>2026-04-26T09:32:02.617Z</time></trkpt><trkpt lat="40.58510376123707" lon="9.231289662976172"><ele>611.0</ele><time>2026-04-26T09:32:03.617Z</time></trkpt><trkpt lat="40.584993766779064" lon="9.231012217902505"><ele>611.0</ele><time>2026-04-26T09:32:04.617Z</time></trkpt><trkpt lat="40.5848828308387" lon="9.230731912201778"><ele>611.0</ele><time>2026-04-26T09:32:05.617Z</time></trkpt><trkpt lat="40.58476958502159" lon="9.230453319854925"><ele>611.5</ele><time>2026-04-26T09:32:06.617Z</time></trkpt><trkpt lat="40.584655437619354" lon="9.23016706136419"><ele>612.0</ele><time>2026-04-26T09:32:07.617Z</time></trkpt><trkpt lat="40.58454511160138" lon="9.229888497672862"><ele>612.5</ele><time>2026-04-26T09:32:08.617Z</time></trkpt><trkpt lat="40.58443417277398" lon="9.22960130580167"><ele>613.0</ele><time>2026-04-26T09:32:09.617Z</time></trkpt><trkpt lat="40.58432514615878" lon="9.22932070301686"><ele>613.0</ele><time>2026-04-26T09:32:10.617Z</time></trkpt><trkpt lat="40.58421429901875" lon="9.22903956477876"><ele>613.0</ele><time>2026-04-26T09:32:11.617Z</time></trkpt><trkpt lat="40.5841031230568" lon="9.228758806016303"><ele>613.0</ele><time>2026-04-26T09:32:12.617Z</time></trkpt><trkpt lat="40.58398799646341" lon="9.228474475022253"><ele>613.0</ele><time>2026-04-26T09:32:13.616Z</time></trkpt><trkpt lat="40.58387499249902" lon="9.228192125842915"><ele>613.5</ele><time>2026-04-26T09:32:14.616Z</time></trkpt><trkpt lat="40.583759908639" lon="9.227907882859643"><ele>614.0</ele><time>2026-04-26T09:32:15.616Z</time></trkpt><trkpt lat="40.58364160569575" lon="9.227618990157136"><ele>614.0</ele><time>2026-04-26T09:32:16.616Z</time></trkpt><trkpt lat="40.58352652363176" lon="9.22732977932532"><ele>614.0</ele><time>2026-04-26T09:32:17.616Z</time></trkpt><trkpt lat="40.58341222147088" lon="9.227038803516821"><ele>615.0</ele><time>2026-04-26T09:32:18.616Z</time></trkpt><trkpt lat="40.583295940630755" lon="9.226744833156472"><ele>616.0</ele><time>2026-04-26T09:32:19.616Z</time></trkpt><trkpt lat="40.58318145532045" lon="9.22645612593261"><ele>617.5</ele><time>2026-04-26T09:32:20.616Z</time></trkpt><trkpt lat="40.58306702044172" lon="9.226166587191914"><ele>619.0</ele><time>2026-04-26T09:32:21.616Z</time></trkpt><trkpt lat="40.58295340151871" lon="9.22587927734215"><ele>621.5</ele><time>2026-04-26T09:32:22.616Z</time></trkpt><trkpt lat="40.58283921516578" lon="9.225592464439048"><ele>624.0</ele><time>2026-04-26T09:32:23.616Z</time></trkpt><trkpt lat="40.582725619085494" lon="9.225308958841625"><ele>624.0</ele><time>2026-04-26T09:32:24.616Z</time></trkpt><trkpt lat="40.582612788718336" lon="9.225025998450574"><ele>624.0</ele><time>2026-04-26T09:32:25.616Z</time></trkpt><trkpt lat="40.58249979145333" lon="9.224740122475623"><ele>624.0</ele><time>2026-04-26T09:32:26.616Z</time></trkpt><trkpt lat="40.582387477207455" lon="9.224460310785325"><ele>624.0</ele><time>2026-04-26T09:32:27.616Z</time></trkpt><trkpt lat="40.58227334425771" lon="9.224177727501468"><ele>624.0</ele><time>2026-04-26T09:32:28.616Z</time></trkpt><trkpt lat="40.582163659772036" lon="9.223895479437417"><ele>624.0</ele><time>2026-04-26T09:32:29.616Z</time></trkpt><trkpt lat="40.58205383939711" lon="9.223612835280836"><ele>626.0</ele><time>2026-04-26T09:32:30.616Z</time></trkpt><trkpt lat="40.58194165280203" lon="9.223329765583541"><ele>628.0</ele><time>2026-04-26T09:32:31.616Z</time></trkpt><trkpt lat="40.581828797239226" lon="9.223050113188549"><ele>628.0</ele><time>2026-04-26T09:32:32.616Z</time></trkpt><trkpt lat="40.58171459186423" lon="9.22277146461023"><ele>628.0</ele><time>2026-04-26T09:32:33.616Z</time></trkpt><trkpt lat="40.58160253546625" lon="9.222490982611898"><ele>629.0</ele><time>2026-04-26T09:32:34.616Z</time></trkpt><trkpt lat="40.5814961467127" lon="9.22221633385917"><ele>630.0</ele><time>2026-04-26T09:32:35.615Z</time></trkpt><trkpt lat="40.58138984703409" lon="9.22193925022063"><ele>630.0</ele><time>2026-04-26T09:32:36.615Z</time></trkpt><trkpt lat="40.58128302948206" lon="9.221670003170015"><ele>630.0</ele><time>2026-04-26T09:32:37.615Z</time></trkpt><trkpt lat="40.58116750230109" lon="9.221389826122891"><ele>632.0</ele><time>2026-04-26T09:32:38.615Z</time></trkpt><trkpt lat="40.58105901229109" lon="9.221119515402641"><ele>634.0</ele><time>2026-04-26T09:32:39.615Z</time></trkpt><trkpt lat="40.580949805503224" lon="9.22084309053762"><ele>637.0</ele><time>2026-04-26T09:32:40.615Z</time></trkpt><trkpt lat="40.58084479669928" lon="9.220575415934062"><ele>640.0</ele><time>2026-04-26T09:32:41.615Z</time></trkpt><trkpt lat="40.580736826546975" lon="9.220307517207054"><ele>640.0</ele><time>2026-04-26T09:32:42.615Z</time></trkpt><trkpt lat="40.580631343772374" lon="9.22004290729176"><ele>640.0</ele><time>2026-04-26T09:32:43.615Z</time></trkpt><trkpt lat="40.580527121565126" lon="9.219777455112348"><ele>641.0</ele><time>2026-04-26T09:32:44.615Z</time></trkpt><trkpt lat="40.5804232685422" lon="9.219511943059068"><ele>642.0</ele><time>2026-04-26T09:32:45.615Z</time></trkpt><trkpt lat="40.580318205708906" lon="9.219246828034336"><ele>644.5</ele><time>2026-04-26T09:32:46.615Z</time></trkpt><trkpt lat="40.58021257883108" lon="9.218980185323382"><ele>647.0</ele><time>2026-04-26T09:32:47.615Z</time></trkpt><trkpt lat="40.580112029020256" lon="9.218713898622536"><ele>647.0</ele><time>2026-04-26T09:32:48.615Z</time></trkpt><trkpt lat="40.58000574516332" lon="9.218451971320818"><ele>647.0</ele><time>2026-04-26T09:32:49.615Z</time></trkpt><trkpt lat="40.57989716833701" lon="9.218186199574244"><ele>649.5</ele><time>2026-04-26T09:32:50.615Z</time></trkpt><trkpt lat="40.57979434753914" lon="9.21792508651231"><ele>652.0</ele><time>2026-04-26T09:32:51.615Z</time></trkpt><trkpt lat="40.57968264746068" lon="9.217661078338699"><ele>652.0</ele><time>2026-04-26T09:32:52.615Z</time></trkpt><trkpt lat="40.57957757688729" lon="9.217394529933479"><ele>652.0</ele><time>2026-04-26T09:32:53.615Z</time></trkpt><trkpt lat="40.57947038858976" lon="9.217123974211662"><ele>653.5</ele><time>2026-04-26T09:32:54.615Z</time></trkpt><trkpt lat="40.57936010844973" lon="9.216849348160533"><ele>655.0</ele><time>2026-04-26T09:32:55.615Z</time></trkpt><trkpt lat="40.57924853002946" lon="9.21657082122776"><ele>656.0</ele><time>2026-04-26T09:32:56.615Z</time></trkpt><trkpt lat="40.5791342512957" lon="9.216294610908644"><ele>657.0</ele><time>2026-04-26T09:32:57.614Z</time></trkpt><trkpt lat="40.57902081841991" lon="9.216018936817187"><ele>657.0</ele><time>2026-04-26T09:32:58.614Z</time></trkpt><trkpt lat="40.57891268863895" lon="9.215738037985876"><ele>657.0</ele><time>2026-04-26T09:32:59.614Z</time></trkpt><trkpt lat="40.57880877836738" lon="9.215456527392874"><ele>657.0</ele><time>2026-04-26T09:33:00.614Z</time></trkpt><trkpt lat="40.57870145274096" lon="9.215180645642928"><ele>657.0</ele><time>2026-04-26T09:33:01.614Z</time></trkpt><trkpt lat="40.578595848272776" lon="9.214906508544217"><ele>657.5</ele><time>2026-04-26T09:33:02.614Z</time></trkpt><trkpt lat="40.57848983746727" lon="9.21463276367908"><ele>658.0</ele><time>2026-04-26T09:33:03.614Z</time></trkpt><trkpt lat="40.57838201426132" lon="9.214360425314291"><ele>658.0</ele><time>2026-04-26T09:33:04.614Z</time></trkpt><trkpt lat="40.578265752246004" lon="9.21409387361751"><ele>658.0</ele><time>2026-04-26T09:33:05.614Z</time></trkpt><trkpt lat="40.57813710943924" lon="9.213835828156292"><ele>655.0</ele><time>2026-04-26T09:33:06.614Z</time></trkpt><trkpt lat="40.57799683619951" lon="9.213583296685313"><ele>652.0</ele><time>2026-04-26T09:33:07.614Z</time></trkpt><trkpt lat="40.57785768585385" lon="9.21333099247544"><ele>652.5</ele><time>2026-04-26T09:33:08.616Z</time></trkpt><trkpt lat="40.5777116865674" lon="9.213082792422329"><ele>653.0</ele><time>2026-04-26T09:33:09.615Z</time></trkpt><trkpt lat="40.577558155704466" lon="9.212837862155023"><ele>653.0</ele><time>2026-04-26T09:33:10.615Z</time></trkpt><trkpt lat="40.57740337095518" lon="9.212588851149121"><ele>653.0</ele><time>2026-04-26T09:33:11.616Z</time></trkpt><trkpt lat="40.577246001186914" lon="9.212343112453457"><ele>651.0</ele><time>2026-04-26T09:33:12.615Z</time></trkpt><trkpt lat="40.577087059959226" lon="9.212094196244715"><ele>649.0</ele><time>2026-04-26T09:33:13.615Z</time></trkpt><trkpt lat="40.576922608694" lon="9.21184266631983"><ele>649.0</ele><time>2026-04-26T09:33:14.615Z</time></trkpt><trkpt lat="40.57675587954276" lon="9.21159514844539"><ele>649.0</ele><time>2026-04-26T09:33:15.615Z</time></trkpt><trkpt lat="40.576591949748014" lon="9.211350101597368"><ele>646.0</ele><time>2026-04-26T09:33:16.615Z</time></trkpt><trkpt lat="40.576424107765156" lon="9.21110215551469"><ele>643.0</ele><time>2026-04-26T09:33:17.615Z</time></trkpt><trkpt lat="40.57625726975817" lon="9.210852833726216"><ele>644.5</ele><time>2026-04-26T09:33:18.614Z</time></trkpt><trkpt lat="40.57608353746048" lon="9.21059638603196"><ele>646.0</ele><time>2026-04-26T09:33:19.614Z</time></trkpt><trkpt lat="40.57589360568198" lon="9.21032402881343"><ele>646.0</ele><time>2026-04-26T09:33:20.614Z</time></trkpt><trkpt lat="40.57569075752404" lon="9.210046288349215"><ele>646.0</ele><time>2026-04-26T09:33:21.615Z</time></trkpt><trkpt lat="40.57549442907122" lon="9.209776241581443"><ele>645.0</ele><time>2026-04-26T09:33:22.615Z</time></trkpt><trkpt lat="40.5753080098933" lon="9.209540574097344"><ele>644.0</ele><time>2026-04-26T09:33:23.615Z</time></trkpt><trkpt lat="40.57513871276703" lon="9.209329011355392"><ele>644.0</ele><time>2026-04-26T09:33:24.615Z</time></trkpt><trkpt lat="40.57500061328625" lon="9.20914657780553"><ele>644.0</ele><time>2026-04-26T09:33:25.615Z</time></trkpt><trkpt lat="40.57489671218993" lon="9.209011684554323"><ele>644.0</ele><time>2026-04-26T09:33:26.615Z</time></trkpt><trkpt lat="40.57482807866588" lon="9.208903740100455"><ele>644.0</ele><time>2026-04-26T09:33:27.615Z</time></trkpt><trkpt lat="40.57478358026907" lon="9.208828703884505"><ele>645.0</ele><time>2026-04-26T09:33:28.615Z</time></trkpt><trkpt lat="40.57472902278587" lon="9.208732789193894"><ele>646.0</ele><time>2026-04-26T09:33:30.615Z</time></trkpt><trkpt lat="40.57468640441477" lon="9.20865562833407"><ele>647.0</ele><time>2026-04-26T09:33:32.615Z</time></trkpt><trkpt lat="40.57463246656975" lon="9.208585334083212"><ele>648.0</ele><time>2026-04-26T09:35:29.61Z</time></trkpt><trkpt lat="40.57457444316496" lon="9.20848418715989"><ele>649.0</ele><time>2026-04-26T09:35:31.61Z</time></trkpt><trkpt lat="40.57449803937456" lon="9.208346747007406"><ele>649.0</ele><time>2026-04-26T09:35:33.61Z</time></trkpt><trkpt lat="40.57444718886027" lon="9.208249787330187"><ele>649.0</ele><time>2026-04-26T09:35:34.61Z</time></trkpt><trkpt lat="40.574389463735756" lon="9.208139692787949"><ele>649.0</ele><time>2026-04-26T09:35:35.61Z</time></trkpt><trkpt lat="40.57432817553162" lon="9.208017924252328"><ele>649.0</ele><time>2026-04-26T09:35:36.61Z</time></trkpt><trkpt lat="40.574267195793084" lon="9.207905463078863"><ele>649.0</ele><time>2026-04-26T09:35:37.61Z</time></trkpt><trkpt lat="40.57420577234238" lon="9.207783082810208"><ele>648.5</ele><time>2026-04-26T09:35:38.61Z</time></trkpt><trkpt lat="40.5741324580836" lon="9.207642111321077"><ele>648.0</ele><time>2026-04-26T09:35:39.61Z</time></trkpt><trkpt lat="40.57405074956901" lon="9.207492662958227"><ele>647.5</ele><time>2026-04-26T09:35:40.61Z</time></trkpt><trkpt lat="40.573959607058775" lon="9.20733041711424"><ele>647.0</ele><time>2026-04-26T09:35:41.61Z</time></trkpt><trkpt lat="40.57386723565617" lon="9.207167346943004"><ele>647.0</ele><time>2026-04-26T09:35:42.61Z</time></trkpt><trkpt lat="40.573781531702835" lon="9.207011523720237"><ele>647.0</ele><time>2026-04-26T09:35:43.61Z</time></trkpt><trkpt lat="40.573689949175524" lon="9.20684258786903"><ele>647.0</ele><time>2026-04-26T09:35:44.61Z</time></trkpt><trkpt lat="40.57358194243226" lon="9.206671821101091"><ele>645.6666666666666</ele><time>2026-04-26T09:35:45.61Z</time></trkpt><trkpt lat="40.573462591832566" lon="9.206496190234207"><ele>644.3333333333334</ele><time>2026-04-26T09:35:46.61Z</time></trkpt><trkpt lat="40.57333265026995" lon="9.206318523133012"><ele>643.0</ele><time>2026-04-26T09:35:47.609Z</time></trkpt><trkpt lat="40.57320285116478" lon="9.206135340444526"><ele>643.0</ele><time>2026-04-26T09:35:48.609Z</time></trkpt><trkpt lat="40.57308085095956" lon="9.205970411238345"><ele>643.0</ele><time>2026-04-26T09:35:49.609Z</time></trkpt><trkpt lat="40.572949785042915" lon="9.205809426799624"><ele>643.0</ele><time>2026-04-26T09:35:50.609Z</time></trkpt><trkpt lat="40.57281054405102" lon="9.205642979368639"><ele>641.3333333333334</ele><time>2026-04-26T09:35:51.609Z</time></trkpt><trkpt lat="40.57267188770546" lon="9.205466671206219"><ele>639.6666666666666</ele><time>2026-04-26T09:35:52.609Z</time></trkpt><trkpt lat="40.57253699015967" lon="9.205286119864937"><ele>638.0</ele><time>2026-04-26T09:35:53.609Z</time></trkpt><trkpt lat="40.57239672667784" lon="9.205099164655834"><ele>638.0</ele><time>2026-04-26T09:35:54.609Z</time></trkpt><trkpt lat="40.572266597780434" lon="9.204898727527347"><ele>638.0</ele><time>2026-04-26T09:35:55.609Z</time></trkpt><trkpt lat="40.57213939568727" lon="9.204690776163462"><ele>638.0</ele><time>2026-04-26T09:35:56.609Z</time></trkpt><trkpt lat="40.57201631274261" lon="9.204474635500139"><ele>641.3333333333333</ele><time>2026-04-26T09:35:57.609Z</time></trkpt><trkpt lat="40.571890989384805" lon="9.204257905089966"><ele>644.6666666666666</ele><time>2026-04-26T09:35:58.609Z</time></trkpt><trkpt lat="40.571771915661586" lon="9.204031513945182"><ele>648.0</ele><time>2026-04-26T09:35:59.609Z</time></trkpt><trkpt lat="40.5716559442081" lon="9.203802577684854"><ele>648.3333333333334</ele><time>2026-04-26T09:36:00.609Z</time></trkpt><trkpt lat="40.57153865930018" lon="9.203570781267354"><ele>648.6666666666667</ele><time>2026-04-26T09:36:01.609Z</time></trkpt><trkpt lat="40.571424104369925" lon="9.203342779338097"><ele>649.0</ele><time>2026-04-26T09:36:02.609Z</time></trkpt><trkpt lat="40.57130860440679" lon="9.20311543903216"><ele>646.6666666666667</ele><time>2026-04-26T09:36:03.609Z</time></trkpt><trkpt lat="40.571192946154156" lon="9.202890828373766"><ele>644.3333333333334</ele><time>2026-04-26T09:36:04.609Z</time></trkpt><trkpt lat="40.5710742342109" lon="9.202667224137288"><ele>642.0</ele><time>2026-04-26T09:36:05.609Z</time></trkpt><trkpt lat="40.57094720419089" lon="9.202454313189024"><ele>641.0</ele><time>2026-04-26T09:36:06.609Z</time></trkpt><trkpt lat="40.57081295745206" lon="9.20225248521239"><ele>640.0</ele><time>2026-04-26T09:36:07.609Z</time></trkpt><trkpt lat="40.570671031994024" lon="9.202062456509173"><ele>639.0</ele><time>2026-04-26T09:36:08.608Z</time></trkpt><trkpt lat="40.57052327594946" lon="9.201881768267679"><ele>639.0</ele><time>2026-04-26T09:36:09.608Z</time></trkpt><trkpt lat="40.57036623984118" lon="9.201707245958612"><ele>639.0</ele><time>2026-04-26T09:36:10.608Z</time></trkpt><trkpt lat="40.57019965602128" lon="9.201539923567816"><ele>639.0</ele><time>2026-04-26T09:36:11.608Z</time></trkpt><trkpt lat="40.57002608672739" lon="9.201377620271831"><ele>639.0</ele><time>2026-04-26T09:36:12.608Z</time></trkpt><trkpt lat="40.56984451510211" lon="9.201222462303212"><ele>639.0</ele><time>2026-04-26T09:36:13.608Z</time></trkpt><trkpt lat="40.56965457369582" lon="9.201080295232408"><ele>639.0</ele><time>2026-04-26T09:36:14.608Z</time></trkpt><trkpt lat="40.569460443672746" lon="9.200951637714889"><ele>639.3333333333334</ele><time>2026-04-26T09:36:15.608Z</time></trkpt><trkpt lat="40.569273233589904" lon="9.20082800646132"><ele>639.6666666666667</ele><time>2026-04-26T09:36:16.608Z</time></trkpt><trkpt lat="40.569083319139665" lon="9.200708665289579"><ele>640.0</ele><time>2026-04-26T09:36:17.608Z</time></trkpt><trkpt lat="40.568892560386274" lon="9.200596391621236"><ele>639.0</ele><time>2026-04-26T09:36:18.608Z</time></trkpt><trkpt lat="40.56869912015649" lon="9.200486376094698"><ele>638.0</ele><time>2026-04-26T09:36:19.608Z</time></trkpt><trkpt lat="40.568495743527016" lon="9.200376920527374"><ele>637.0</ele><time>2026-04-26T09:36:20.608Z</time></trkpt><trkpt lat="40.56826040753512" lon="9.200273047589727"><ele>640.0</ele><time>2026-04-26T09:36:21.608Z</time></trkpt><trkpt lat="40.56804189967234" lon="9.200167224446568"><ele>643.0</ele><time>2026-04-26T09:36:22.608Z</time></trkpt><trkpt lat="40.567834164032725" lon="9.20005677843728"><ele>643.3333333333334</ele><time>2026-04-26T09:36:23.608Z</time></trkpt><trkpt lat="40.56762789958292" lon="9.199949976584156"><ele>643.6666666666666</ele><time>2026-04-26T09:36:24.608Z</time></trkpt><trkpt lat="40.5674203603453" lon="9.199845096491126"><ele>644.0</ele><time>2026-04-26T09:36:25.608Z</time></trkpt><trkpt lat="40.56721914192261" lon="9.199727900270437"><ele>646.6666666666666</ele><time>2026-04-26T09:36:26.608Z</time></trkpt><trkpt lat="40.56702215000246" lon="9.199611890616916"><ele>649.3333333333334</ele><time>2026-04-26T09:36:27.608Z</time></trkpt><trkpt lat="40.566820675947746" lon="9.199503690500505"><ele>652.0</ele><time>2026-04-26T09:36:28.608Z</time></trkpt><trkpt lat="40.56661788558898" lon="9.199401098151792"><ele>652.0</ele><time>2026-04-26T09:36:29.608Z</time></trkpt><trkpt lat="40.56641218396725" lon="9.199303635606563"><ele>652.0</ele><time>2026-04-26T09:36:30.607Z</time></trkpt><trkpt lat="40.566204372368695" lon="9.199216695856688"><ele>652.0</ele><time>2026-04-26T09:36:31.607Z</time></trkpt><trkpt lat="40.565992212078626" lon="9.199139133344461"><ele>657.3333333333334</ele><time>2026-04-26T09:36:32.607Z</time></trkpt><trkpt lat="40.56578158094496" lon="9.199067683897429"><ele>662.6666666666666</ele><time>2026-04-26T09:36:33.607Z</time></trkpt><trkpt lat="40.56556862440122" lon="9.199002322596911"><ele>668.0</ele><time>2026-04-26T09:36:34.607Z</time></trkpt><trkpt lat="40.56535567949554" lon="9.198946105908298"><ele>668.0</ele><time>2026-04-26T09:36:35.607Z</time></trkpt><trkpt lat="40.565141446879856" lon="9.198896904889542"><ele>668.0</ele><time>2026-04-26T09:36:36.607Z</time></trkpt><trkpt lat="40.5649232506114" lon="9.198848558561622"><ele>668.0</ele><time>2026-04-26T09:36:37.607Z</time></trkpt><trkpt lat="40.564705091526136" lon="9.198795969513235"><ele>672.0</ele><time>2026-04-26T09:36:38.607Z</time></trkpt><trkpt lat="40.56448285563296" lon="9.198745938190854"><ele>676.0</ele><time>2026-04-26T09:36:39.607Z</time></trkpt><trkpt lat="40.564260049560204" lon="9.198694386033774"><ele>676.0</ele><time>2026-04-26T09:36:40.607Z</time></trkpt><trkpt lat="40.564032597848254" lon="9.198642739796343"><ele>676.0</ele><time>2026-04-26T09:36:41.607Z</time></trkpt><trkpt lat="40.5638011092333" lon="9.198586831473103"><ele>678.0</ele><time>2026-04-26T09:36:42.607Z</time></trkpt><trkpt lat="40.56356606832758" lon="9.198529950926007"><ele>680.0</ele><time>2026-04-26T09:36:43.607Z</time></trkpt><trkpt lat="40.56332836660672" lon="9.198474221217138"><ele>680.0</ele><time>2026-04-26T09:36:44.607Z</time></trkpt><trkpt lat="40.56308765603369" lon="9.198416362137603"><ele>680.0</ele><time>2026-04-26T09:36:45.607Z</time></trkpt><trkpt lat="40.5628474361574" lon="9.19836140736374"><ele>677.5</ele><time>2026-04-26T09:36:46.607Z</time></trkpt><trkpt lat="40.56260742172594" lon="9.198303893007484"><ele>675.0</ele><time>2026-04-26T09:36:47.607Z</time></trkpt><trkpt lat="40.5623648069929" lon="9.198242927864882"><ele>675.0</ele><time>2026-04-26T09:36:48.607Z</time></trkpt><trkpt lat="40.56211982503945" lon="9.198184925025995"><ele>675.0</ele><time>2026-04-26T09:36:49.607Z</time></trkpt><trkpt lat="40.56187420377633" lon="9.198132124459171"><ele>669.5</ele><time>2026-04-26T09:36:50.607Z</time></trkpt><trkpt lat="40.56162901440787" lon="9.198078977497861"><ele>664.0</ele><time>2026-04-26T09:36:51.607Z</time></trkpt><trkpt lat="40.56138152944093" lon="9.198022352427126"><ele>658.0</ele><time>2026-04-26T09:36:52.606Z</time></trkpt><trkpt lat="40.56113687945546" lon="9.197956167182918"><ele>652.0</ele><time>2026-04-26T09:36:53.606Z</time></trkpt><trkpt lat="40.56089236476765" lon="9.197876009952719"><ele>652.0</ele><time>2026-04-26T09:36:54.606Z</time></trkpt><trkpt lat="40.56065465186453" lon="9.197768712946878"><ele>652.0</ele><time>2026-04-26T09:36:55.606Z</time></trkpt><trkpt lat="40.56042540816374" lon="9.197642705536772"><ele>650.5</ele><time>2026-04-26T09:36:56.606Z</time></trkpt><trkpt lat="40.56019679681271" lon="9.197503817629801"><ele>649.0</ele><time>2026-04-26T09:36:57.606Z</time></trkpt><trkpt lat="40.559967471875495" lon="9.197359981843611"><ele>644.5</ele><time>2026-04-26T09:36:58.606Z</time></trkpt><trkpt lat="40.559737460183484" lon="9.197213300878799"><ele>640.0</ele><time>2026-04-26T09:36:59.606Z</time></trkpt><trkpt lat="40.55950438855885" lon="9.19706593360253"><ele>639.5</ele><time>2026-04-26T09:37:00.606Z</time></trkpt><trkpt lat="40.559270001637465" lon="9.196921981912217"><ele>639.0</ele><time>2026-04-26T09:37:01.606Z</time></trkpt><trkpt lat="40.55903450621478" lon="9.196781312650907"><ele>639.0</ele><time>2026-04-26T09:37:02.606Z</time></trkpt><trkpt lat="40.5588025864499" lon="9.19662824531713"><ele>639.0</ele><time>2026-04-26T09:37:03.606Z</time></trkpt><trkpt lat="40.55858110105064" lon="9.196451591446861"><ele>637.5</ele><time>2026-04-26T09:37:04.606Z</time></trkpt><trkpt lat="40.55836896490054" lon="9.196248164283867"><ele>636.0</ele><time>2026-04-26T09:37:05.606Z</time></trkpt><trkpt lat="40.558166792137314" lon="9.196027557391181"><ele>636.0</ele><time>2026-04-26T09:37:06.606Z</time></trkpt><trkpt lat="40.557973259085465" lon="9.195794609617352"><ele>636.0</ele><time>2026-04-26T09:37:07.606Z</time></trkpt><trkpt lat="40.55778702079214" lon="9.195562284457694"><ele>631.5</ele><time>2026-04-26T09:37:08.606Z</time></trkpt><trkpt lat="40.55759932092073" lon="9.195324180476373"><ele>627.0</ele><time>2026-04-26T09:37:09.606Z</time></trkpt><trkpt lat="40.557425412489884" lon="9.19507696769359"><ele>624.0</ele><time>2026-04-26T09:37:10.606Z</time></trkpt><trkpt lat="40.55727209110951" lon="9.194822762269261"><ele>621.0</ele><time>2026-04-26T09:37:11.606Z</time></trkpt><trkpt lat="40.55713459596492" lon="9.194546699280204"><ele>622.5</ele><time>2026-04-26T09:37:12.606Z</time></trkpt><trkpt lat="40.55701402557577" lon="9.194251676361272"><ele>624.0</ele><time>2026-04-26T09:37:13.606Z</time></trkpt><trkpt lat="40.55690626187738" lon="9.193941717367169"><ele>620.0</ele><time>2026-04-26T09:37:14.605Z</time></trkpt><trkpt lat="40.55681177347283" lon="9.193617369473559"><ele>616.0</ele><time>2026-04-26T09:37:15.605Z</time></trkpt><trkpt lat="40.556721112713504" lon="9.193293576190609"><ele>613.5</ele><time>2026-04-26T09:37:16.605Z</time></trkpt><trkpt lat="40.55663119329652" lon="9.192965271775407"><ele>611.0</ele><time>2026-04-26T09:37:17.605Z</time></trkpt><trkpt lat="40.55654163966546" lon="9.192641759747312"><ele>612.5</ele><time>2026-04-26T09:37:18.605Z</time></trkpt><trkpt lat="40.55644893424727" lon="9.1923231163278"><ele>614.0</ele><time>2026-04-26T09:37:19.605Z</time></trkpt><trkpt lat="40.55635678902339" lon="9.192007430572982"><ele>614.0</ele><time>2026-04-26T09:37:20.606Z</time></trkpt><trkpt lat="40.55626640847752" lon="9.1916943103355"><ele>614.0</ele><time>2026-04-26T09:37:21.606Z</time></trkpt><trkpt lat="40.55617759173697" lon="9.191385077649354"><ele>611.5</ele><time>2026-04-26T09:37:22.606Z</time></trkpt><trkpt lat="40.55608964358265" lon="9.191076771472913"><ele>609.0</ele><time>2026-04-26T09:37:23.606Z</time></trkpt><trkpt lat="40.556003450726" lon="9.190769349954884"><ele>612.0</ele><time>2026-04-26T09:37:24.606Z</time></trkpt><trkpt lat="40.55591590033905" lon="9.19046254574894"><ele>615.0</ele><time>2026-04-26T09:37:25.606Z</time></trkpt><trkpt lat="40.55583267456228" lon="9.190151312563684"><ele>618.0</ele><time>2026-04-26T09:37:26.606Z</time></trkpt><trkpt lat="40.5557488753348" lon="9.189840705606292"><ele>621.0</ele><time>2026-04-26T09:37:27.605Z</time></trkpt><trkpt lat="40.55566176421566" lon="9.189528693689434"><ele>621.0</ele><time>2026-04-26T09:37:28.605Z</time></trkpt><trkpt lat="40.55557299978939" lon="9.189216167315916"><ele>621.0</ele><time>2026-04-26T09:37:29.606Z</time></trkpt><trkpt lat="40.555483786406896" lon="9.188899521900778"><ele>622.0</ele><time>2026-04-26T09:37:30.606Z</time></trkpt><trkpt lat="40.555395762116945" lon="9.188583937905756"><ele>623.0</ele><time>2026-04-26T09:37:31.606Z</time></trkpt><trkpt lat="40.55530501746108" lon="9.188267646043936"><ele>619.0</ele><time>2026-04-26T09:37:32.605Z</time></trkpt><trkpt lat="40.55521091544798" lon="9.187952600116517"><ele>615.0</ele><time>2026-04-26T09:37:33.605Z</time></trkpt><trkpt lat="40.55511943810386" lon="9.187638828766213"><ele>616.0</ele><time>2026-04-26T09:37:34.605Z</time></trkpt><trkpt lat="40.55502943189056" lon="9.18732857775254"><ele>617.0</ele><time>2026-04-26T09:37:35.605Z</time></trkpt><trkpt lat="40.55494105267711" lon="9.18702190584309"><ele>617.0</ele><time>2026-04-26T09:37:36.605Z</time></trkpt><trkpt lat="40.554853678678" lon="9.1867211501885"><ele>617.0</ele><time>2026-04-26T09:37:37.605Z</time></trkpt><trkpt lat="40.55476595692069" lon="9.186424473217949"><ele>621.5</ele><time>2026-04-26T09:37:38.605Z</time></trkpt><trkpt lat="40.55467058637471" lon="9.186136258089725"><ele>626.0</ele><time>2026-04-26T09:37:39.605Z</time></trkpt><trkpt lat="40.55456793400869" lon="9.185862990933234"><ele>626.0</ele><time>2026-04-26T09:37:40.605Z</time></trkpt><trkpt lat="40.55445981293259" lon="9.185607709012332"><ele>626.0</ele><time>2026-04-26T09:37:41.605Z</time></trkpt><trkpt lat="40.55434490015896" lon="9.185362003516795"><ele>626.0</ele><time>2026-04-26T09:37:42.605Z</time></trkpt><trkpt lat="40.55422193877611" lon="9.18512962379746"><ele>626.0</ele><time>2026-04-26T09:37:43.605Z</time></trkpt><trkpt lat="40.55408962610001" lon="9.184915885297817"><ele>626.0</ele><time>2026-04-26T09:37:44.605Z</time></trkpt><trkpt lat="40.5539502906153" lon="9.184712678937208"><ele>626.0</ele><time>2026-04-26T09:37:45.605Z</time></trkpt><trkpt lat="40.55380520454901" lon="9.18452413100333"><ele>627.3333333333333</ele><time>2026-04-26T09:37:46.605Z</time></trkpt><trkpt lat="40.553655606434276" lon="9.184338484264629"><ele>628.6666666666666</ele><time>2026-04-26T09:37:47.605Z</time></trkpt><trkpt lat="40.55349975989966" lon="9.184159345428176"><ele>630.0</ele><time>2026-04-26T09:37:48.605Z</time></trkpt><trkpt lat="40.5533369327759" lon="9.183978166408384"><ele>630.0</ele><time>2026-04-26T09:37:49.605Z</time></trkpt><trkpt lat="40.55316597313942" lon="9.183797359697824"><ele>630.0</ele><time>2026-04-26T09:37:50.604Z</time></trkpt><trkpt lat="40.55299344711614" lon="9.183607356589746"><ele>630.0</ele><time>2026-04-26T09:37:51.604Z</time></trkpt><trkpt lat="40.552817176676996" lon="9.183410587859901"><ele>625.5</ele><time>2026-04-26T09:37:52.604Z</time></trkpt><trkpt lat="40.55264149066433" lon="9.18321030446053"><ele>621.0</ele><time>2026-04-26T09:37:53.604Z</time></trkpt><trkpt lat="40.55246165705432" lon="9.182999934071617"><ele>621.0</ele><time>2026-04-26T09:37:54.604Z</time></trkpt><trkpt lat="40.55227984529195" lon="9.182780789888476"><ele>621.0</ele><time>2026-04-26T09:37:55.604Z</time></trkpt><trkpt lat="40.55209551691905" lon="9.182561750206812"><ele>617.5</ele><time>2026-04-26T09:37:56.604Z</time></trkpt><trkpt lat="40.551909389244116" lon="9.182347802256507"><ele>614.0</ele><time>2026-04-26T09:37:57.604Z</time></trkpt><trkpt lat="40.55172674935455" lon="9.182111312475815"><ele>614.0</ele><time>2026-04-26T09:37:58.604Z</time></trkpt><trkpt lat="40.551539108658176" lon="9.181884595610441"><ele>614.0</ele><time>2026-04-26T09:37:59.604Z</time></trkpt><trkpt lat="40.551346910624794" lon="9.181664399555185"><ele>609.5</ele><time>2026-04-26T09:38:00.604Z</time></trkpt><trkpt lat="40.551146107475496" lon="9.181461334143645"><ele>605.0</ele><time>2026-04-26T09:38:01.604Z</time></trkpt><trkpt lat="40.55094274308154" lon="9.181273682870534"><ele>605.0</ele><time>2026-04-26T09:38:02.604Z</time></trkpt><trkpt lat="40.550736005935065" lon="9.18109200164823"><ele>605.0</ele><time>2026-04-26T09:38:03.604Z</time></trkpt><trkpt lat="40.550527704750465" lon="9.180910574794902"><ele>600.0</ele><time>2026-04-26T09:38:04.604Z</time></trkpt><trkpt lat="40.55031756030271" lon="9.18072857261199"><ele>595.0</ele><time>2026-04-26T09:38:05.604Z</time></trkpt><trkpt lat="40.55010798678846" lon="9.180544135033879"><ele>595.0</ele><time>2026-04-26T09:38:06.604Z</time></trkpt><trkpt lat="40.54989694131096" lon="9.180356912243745"><ele>595.0</ele><time>2026-04-26T09:38:07.604Z</time></trkpt><trkpt lat="40.54968258220495" lon="9.180167988122186"><ele>593.0</ele><time>2026-04-26T09:38:08.604Z</time></trkpt><trkpt lat="40.54947032830756" lon="9.179980336962654"><ele>591.0</ele><time>2026-04-26T09:38:09.604Z</time></trkpt><trkpt lat="40.5492537490531" lon="9.179793865657844"><ele>590.0</ele><time>2026-04-26T09:38:10.604Z</time></trkpt><trkpt lat="40.54904476914397" lon="9.179605671814954"><ele>589.0</ele><time>2026-04-26T09:38:11.604Z</time></trkpt><trkpt lat="40.548831541050724" lon="9.17941754793949"><ele>585.5</ele><time>2026-04-26T09:38:12.603Z</time></trkpt><trkpt lat="40.54861931724294" lon="9.179231774981039"><ele>582.0</ele><time>2026-04-26T09:38:13.603Z</time></trkpt><trkpt lat="40.548400261329675" lon="9.179039898543422"><ele>581.0</ele><time>2026-04-26T09:38:14.603Z</time></trkpt><trkpt lat="40.548181873427474" lon="9.178866063701182"><ele>580.0</ele><time>2026-04-26T09:38:15.603Z</time></trkpt><trkpt lat="40.547959211708886" lon="9.178715016700965"><ele>578.5</ele><time>2026-04-26T09:38:16.603Z</time></trkpt><trkpt lat="40.54772875618872" lon="9.178580895081385"><ele>577.0</ele><time>2026-04-26T09:38:17.603Z</time></trkpt><trkpt lat="40.54749372905906" lon="9.178465010104295"><ele>577.0</ele><time>2026-04-26T09:38:18.603Z</time></trkpt><trkpt lat="40.54725415325768" lon="9.178366915565666"><ele>577.0</ele><time>2026-04-26T09:38:19.603Z</time></trkpt><trkpt lat="40.547009742301995" lon="9.178285738463947"><ele>575.0</ele><time>2026-04-26T09:38:20.603Z</time></trkpt><trkpt lat="40.54676398762626" lon="9.178215075481013"><ele>573.0</ele><time>2026-04-26T09:38:21.603Z</time></trkpt><trkpt lat="40.54651773405224" lon="9.178152443253042"><ele>575.5</ele><time>2026-04-26T09:38:22.603Z</time></trkpt><trkpt lat="40.54627579774204" lon="9.178094797668809"><ele>578.0</ele><time>2026-04-26T09:38:23.603Z</time></trkpt><trkpt lat="40.54603647099396" lon="9.17803174264618"><ele>578.0</ele><time>2026-04-26T09:38:24.603Z</time></trkpt><trkpt lat="40.54580184532183" lon="9.17797035938227"><ele>578.0</ele><time>2026-04-26T09:38:25.603Z</time></trkpt><trkpt lat="40.54556742277669" lon="9.177907529084507"><ele>573.5</ele><time>2026-04-26T09:38:26.603Z</time></trkpt><trkpt lat="40.54533390708662" lon="9.177843996419115"><ele>569.0</ele><time>2026-04-26T09:38:27.603Z</time></trkpt><trkpt lat="40.5451002000912" lon="9.177778760460622"><ele>569.0</ele><time>2026-04-26T09:38:28.603Z</time></trkpt><trkpt lat="40.54486652163157" lon="9.177717701077208"><ele>569.0</ele><time>2026-04-26T09:38:29.603Z</time></trkpt><trkpt lat="40.544630352784075" lon="9.177654849645563"><ele>568.5</ele><time>2026-04-26T09:38:30.603Z</time></trkpt><trkpt lat="40.544397392515336" lon="9.177591725786264"><ele>568.0</ele><time>2026-04-26T09:38:31.603Z</time></trkpt><trkpt lat="40.54416283926841" lon="9.177527387973502"><ele>568.0</ele><time>2026-04-26T09:38:32.603Z</time></trkpt><trkpt lat="40.543928454143774" lon="9.177460674496762"><ele>568.0</ele><time>2026-04-26T09:38:33.603Z</time></trkpt><trkpt lat="40.54369747491962" lon="9.177382892098052"><ele>570.0</ele><time>2026-04-26T09:38:34.602Z</time></trkpt><trkpt lat="40.54346710716621" lon="9.177300453042218"><ele>572.0</ele><time>2026-04-26T09:38:35.602Z</time></trkpt><trkpt lat="40.54323709189969" lon="9.177217402065256"><ele>572.0</ele><time>2026-04-26T09:38:36.602Z</time></trkpt><trkpt lat="40.5430054297168" lon="9.177135683323973"><ele>572.0</ele><time>2026-04-26T09:38:37.602Z</time></trkpt><trkpt lat="40.54277471345725" lon="9.177055660400194"><ele>568.0</ele><time>2026-04-26T09:38:38.602Z</time></trkpt><trkpt lat="40.54254644352573" lon="9.176974047699906"><ele>564.0</ele><time>2026-04-26T09:38:39.602Z</time></trkpt><trkpt lat="40.54231800169982" lon="9.176895231432331"><ele>564.0</ele><time>2026-04-26T09:38:40.602Z</time></trkpt><trkpt lat="40.542088533455406" lon="9.17681800046062"><ele>564.0</ele><time>2026-04-26T09:38:41.602Z</time></trkpt><trkpt lat="40.5418611716216" lon="9.17674028519747"><ele>563.5</ele><time>2026-04-26T09:38:42.602Z</time></trkpt><trkpt lat="40.54163510706943" lon="9.176662076525224"><ele>563.0</ele><time>2026-04-26T09:38:43.602Z</time></trkpt><trkpt lat="40.541408655653576" lon="9.176580374004569"><ele>568.0</ele><time>2026-04-26T09:38:44.602Z</time></trkpt><trkpt lat="40.5411819476088" lon="9.176492321869874"><ele>573.0</ele><time>2026-04-26T09:38:45.602Z</time></trkpt><trkpt lat="40.54095542640788" lon="9.17640022731536"><ele>573.0</ele><time>2026-04-26T09:38:46.602Z</time></trkpt><trkpt lat="40.540732204183676" lon="9.176291692585306"><ele>573.0</ele><time>2026-04-26T09:38:47.602Z</time></trkpt><trkpt lat="40.54051294419134" lon="9.176169465889783"><ele>570.5</ele><time>2026-04-26T09:38:48.602Z</time></trkpt><trkpt lat="40.540294912683926" lon="9.176021132788286"><ele>568.0</ele><time>2026-04-26T09:38:49.602Z</time></trkpt><trkpt lat="40.540080908895604" lon="9.175860554394104"><ele>571.5</ele><time>2026-04-26T09:38:50.602Z</time></trkpt><trkpt lat="40.53987021052426" lon="9.175679982806772"><ele>575.0</ele><time>2026-04-26T09:38:51.602Z</time></trkpt><trkpt lat="40.53966615733599" lon="9.175490519252401"><ele>568.5</ele><time>2026-04-26T09:38:52.602Z</time></trkpt><trkpt lat="40.53946901020452" lon="9.175290593906377"><ele>562.0</ele><time>2026-04-26T09:38:53.602Z</time></trkpt><trkpt lat="40.53927490406753" lon="9.175096679487222"><ele>562.0</ele><time>2026-04-26T09:38:54.602Z</time></trkpt><trkpt lat="40.53908008744543" lon="9.174897957882724"><ele>562.0</ele><time>2026-04-26T09:38:55.601Z</time></trkpt><trkpt lat="40.53888261001504" lon="9.174701745827434"><ele>558.0</ele><time>2026-04-26T09:38:56.601Z</time></trkpt><trkpt lat="40.53868989258991" lon="9.174510858315564"><ele>554.0</ele><time>2026-04-26T09:38:57.601Z</time></trkpt><trkpt lat="40.538498070290025" lon="9.174317758021486"><ele>554.0</ele><time>2026-04-26T09:38:58.601Z</time></trkpt><trkpt lat="40.53830942081749" lon="9.174125225343733"><ele>554.0</ele><time>2026-04-26T09:38:59.601Z</time></trkpt><trkpt lat="40.53812341924201" lon="9.173934109727714"><ele>555.0</ele><time>2026-04-26T09:39:00.601Z</time></trkpt><trkpt lat="40.53793699169305" lon="9.17374549996224"><ele>556.0</ele><time>2026-04-26T09:39:01.601Z</time></trkpt><trkpt lat="40.537748882099095" lon="9.173563017885224"><ele>556.0</ele><time>2026-04-26T09:39:02.601Z</time></trkpt><trkpt lat="40.53755550340089" lon="9.173389334388588"><ele>556.0</ele><time>2026-04-26T09:39:03.601Z</time></trkpt><trkpt lat="40.53735565828465" lon="9.173226914262758"><ele>557.5</ele><time>2026-04-26T09:39:04.601Z</time></trkpt><trkpt lat="40.537150928510435" lon="9.17308452352237"><ele>559.0</ele><time>2026-04-26T09:39:05.601Z</time></trkpt><trkpt lat="40.53694412821867" lon="9.17296615567875"><ele>559.0</ele><time>2026-04-26T09:39:06.601Z</time></trkpt><trkpt lat="40.536726111761105" lon="9.172865937793958"><ele>559.0</ele><time>2026-04-26T09:39:07.601Z</time></trkpt><trkpt lat="40.536502695752525" lon="9.172773054557942"><ele>559.0</ele><time>2026-04-26T09:39:08.601Z</time></trkpt><trkpt lat="40.53627666608473" lon="9.172705890736964"><ele>559.0</ele><time>2026-04-26T09:39:09.601Z</time></trkpt><trkpt lat="40.536052392180935" lon="9.172638653724682"><ele>557.3333333333334</ele><time>2026-04-26T09:39:10.601Z</time></trkpt><trkpt lat="40.535832589967164" lon="9.172587493818785"><ele>555.6666666666666</ele><time>2026-04-26T09:39:11.601Z</time></trkpt><trkpt lat="40.53563859105011" lon="9.172531971211935"><ele>554.0</ele><time>2026-04-26T09:39:12.601Z</time></trkpt><trkpt lat="40.535479117159866" lon="9.172463213644505"><ele>555.0</ele><time>2026-04-26T09:39:13.601Z</time></trkpt><trkpt lat="40.535343472480726" lon="9.172394733556768"><ele>556.0</ele><time>2026-04-26T09:39:14.601Z</time></trkpt><trkpt lat="40.535220852533044" lon="9.172332375400964"><ele>557.0</ele><time>2026-04-26T09:39:15.601Z</time></trkpt><trkpt lat="40.535111135825034" lon="9.172266883837574"><ele>558.0</ele><time>2026-04-26T09:39:16.601Z</time></trkpt><trkpt lat="40.53501484248247" lon="9.172193778629056"><ele>558.0</ele><time>2026-04-26T09:39:17.6Z</time></trkpt><trkpt lat="40.53494143657417" lon="9.172094161094712"><ele>558.0</ele><time>2026-04-26T09:39:18.6Z</time></trkpt><trkpt lat="40.534888126115334" lon="9.171970516876058"><ele>558.0</ele><time>2026-04-26T09:39:19.6Z</time></trkpt><trkpt lat="40.53484258083992" lon="9.17182973180827"><ele>558.0</ele><time>2026-04-26T09:39:20.6Z</time></trkpt><trkpt lat="40.53478142122087" lon="9.171689045311833"><ele>558.0</ele><time>2026-04-26T09:39:21.6Z</time></trkpt><trkpt lat="40.53469545962377" lon="9.171567925867008"><ele>558.0</ele><time>2026-04-26T09:39:22.6Z</time></trkpt><trkpt lat="40.53459170828936" lon="9.171475716628496"><ele>558.0</ele><time>2026-04-26T09:39:23.6Z</time></trkpt><trkpt lat="40.53447168182048" lon="9.171425668370569"><ele>558.0</ele><time>2026-04-26T09:39:24.6Z</time></trkpt><trkpt lat="40.53434139402697" lon="9.171409737430023"><ele>560.0</ele><time>2026-04-26T09:39:25.6Z</time></trkpt><trkpt lat="40.534205953048286" lon="9.171398262457874"><ele>562.0</ele><time>2026-04-26T09:39:26.601Z</time></trkpt><trkpt lat="40.53406981829704" lon="9.171379085353284"><ele>564.0</ele><time>2026-04-26T09:39:27.601Z</time></trkpt><trkpt lat="40.53393627477691" lon="9.171351184564724"><ele>566.0</ele><time>2026-04-26T09:39:28.601Z</time></trkpt><trkpt lat="40.53381743919289" lon="9.171318259631363"><ele>566.4</ele><time>2026-04-26T09:39:29.601Z</time></trkpt><trkpt lat="40.53371242535481" lon="9.171268151231475"><ele>566.8</ele><time>2026-04-26T09:39:30.6Z</time></trkpt><trkpt lat="40.53363161684414" lon="9.171194157051133"><ele>567.1999999999999</ele><time>2026-04-26T09:39:31.6Z</time></trkpt><trkpt lat="40.53356494123976" lon="9.17110896365661"><ele>567.6</ele><time>2026-04-26T09:39:32.601Z</time></trkpt><trkpt lat="40.533514531376355" lon="9.171009312843022"><ele>568.0</ele><time>2026-04-26T09:39:33.601Z</time></trkpt><trkpt lat="40.53347488894014" lon="9.170899885600312"><ele>568.0</ele><time>2026-04-26T09:39:34.601Z</time></trkpt><trkpt lat="40.53344754601402" lon="9.170773169383361"><ele>568.0</ele><time>2026-04-26T09:39:35.601Z</time></trkpt><trkpt lat="40.533441953673794" lon="9.17063156962779"><ele>568.0</ele><time>2026-04-26T09:39:36.6Z</time></trkpt><trkpt lat="40.533461462730536" lon="9.170490232622894"><ele>568.0</ele><time>2026-04-26T09:39:37.6Z</time></trkpt><trkpt lat="40.53349545234857" lon="9.170369644818917"><ele>568.0</ele><time>2026-04-26T09:39:38.6Z</time></trkpt><trkpt lat="40.53352127923919" lon="9.170268444415578"><ele>568.6666666666667</ele><time>2026-04-26T09:39:39.6Z</time></trkpt><trkpt lat="40.533533977574244" lon="9.170181368224155"><ele>569.3333333333334</ele><time>2026-04-26T09:39:40.6Z</time></trkpt><trkpt lat="40.53353880946273" lon="9.170094009987787"><ele>570.0</ele><time>2026-04-26T09:39:42.6Z</time></trkpt><trkpt lat="40.53347683089973" lon="9.169995754803303"><ele>570.6666666666666</ele><time>2026-04-26T09:39:53.6Z</time></trkpt><trkpt lat="40.533414838045026" lon="9.169956884343655"><ele>571.3333333333333</ele><time>2026-04-26T09:39:54.6Z</time></trkpt><trkpt lat="40.53334971203016" lon="9.169933275028644"><ele>572.0</ele><time>2026-04-26T09:39:55.6Z</time></trkpt><trkpt lat="40.533248293396205" lon="9.169861109365625"><ele>572.4</ele><time>2026-04-26T09:39:57.599Z</time></trkpt><trkpt lat="40.53318062934398" lon="9.169773594782882"><ele>572.8000000000001</ele><time>2026-04-26T09:39:59.599Z</time></trkpt><trkpt lat="40.5331258205198" lon="9.169711115044766"><ele>573.2</ele><time>2026-04-26T09:40:02.599Z</time></trkpt><trkpt lat="40.53306403628763" lon="9.169685812713052"><ele>573.6</ele><time>2026-04-26T09:41:37.596Z</time></trkpt><trkpt lat="40.53297243152198" lon="9.169540124377884"><ele>574.0</ele><time>2026-04-26T09:41:39.596Z</time></trkpt><trkpt lat="40.532933274546366" lon="9.16941867499224"><ele>574.0</ele><time>2026-04-26T09:41:40.597Z</time></trkpt><trkpt lat="40.53291006417267" lon="9.169265777378756"><ele>574.0</ele><time>2026-04-26T09:41:41.596Z</time></trkpt><trkpt lat="40.532892790216685" lon="9.169101831341765"><ele>574.0</ele><time>2026-04-26T09:41:42.596Z</time></trkpt><trkpt lat="40.532865729117525" lon="9.168944744321948"><ele>574.0</ele><time>2026-04-26T09:41:43.596Z</time></trkpt><trkpt lat="40.5328350445287" lon="9.168764825803036"><ele>571.3333333333334</ele><time>2026-04-26T09:41:44.595Z</time></trkpt><trkpt lat="40.53280693354479" lon="9.168557602937897"><ele>568.6666666666666</ele><time>2026-04-26T09:41:45.595Z</time></trkpt><trkpt lat="40.53277821170227" lon="9.16832697976199"><ele>566.0</ele><time>2026-04-26T09:41:46.595Z</time></trkpt><trkpt lat="40.53274716168197" lon="9.168085651296279"><ele>566.0</ele><time>2026-04-26T09:41:47.595Z</time></trkpt><trkpt lat="40.53271625618939" lon="9.167830872539186"><ele>566.0</ele><time>2026-04-26T09:41:48.595Z</time></trkpt><trkpt lat="40.53268132160321" lon="9.167577047951948"><ele>566.0</ele><time>2026-04-26T09:41:49.595Z</time></trkpt><trkpt lat="40.532649564748745" lon="9.16734527363182"><ele>566.25</ele><time>2026-04-26T09:41:50.595Z</time></trkpt><trkpt lat="40.5326197319749" lon="9.167131947983384"><ele>566.5</ele><time>2026-04-26T09:41:51.595Z</time></trkpt><trkpt lat="40.53258898177163" lon="9.16695249447907"><ele>566.75</ele><time>2026-04-26T09:41:52.595Z</time></trkpt><trkpt lat="40.532537418240935" lon="9.166799149632057"><ele>567.0</ele><time>2026-04-26T09:41:53.595Z</time></trkpt><trkpt lat="40.53244439551003" lon="9.166687425849315"><ele>567.0</ele><time>2026-04-26T09:41:54.595Z</time></trkpt><trkpt lat="40.53233414721392" lon="9.166601348479244"><ele>567.0</ele><time>2026-04-26T09:41:55.595Z</time></trkpt><trkpt lat="40.53221828619514" lon="9.166534360435696"><ele>567.0</ele><time>2026-04-26T09:41:56.595Z</time></trkpt><trkpt lat="40.53210249038343" lon="9.166492479919933"><ele>567.0</ele><time>2026-04-26T09:41:57.595Z</time></trkpt><trkpt lat="40.53197884562258" lon="9.166519518762696"><ele>569.0</ele><time>2026-04-26T09:41:58.595Z</time></trkpt><trkpt lat="40.531867746028254" lon="9.166616486800585"><ele>571.0</ele><time>2026-04-26T09:41:59.595Z</time></trkpt><trkpt lat="40.53177738678067" lon="9.166741442339271"><ele>573.0</ele><time>2026-04-26T09:42:00.595Z</time></trkpt><trkpt lat="40.53167023314656" lon="9.166899226815787"><ele>575.0</ele><time>2026-04-26T09:42:01.595Z</time></trkpt><trkpt lat="40.53155462297497" lon="9.167059155514405"><ele>575.0</ele><time>2026-04-26T09:42:02.595Z</time></trkpt><trkpt lat="40.53142515860916" lon="9.167218205511647"><ele>575.0</ele><time>2026-04-26T09:42:03.595Z</time></trkpt><trkpt lat="40.53129419169711" lon="9.167343592701863"><ele>575.0</ele><time>2026-04-26T09:42:04.594Z</time></trkpt><trkpt lat="40.53115357386338" lon="9.167447514627193"><ele>575.0</ele><time>2026-04-26T09:42:05.594Z</time></trkpt><trkpt lat="40.53097401116017" lon="9.167493277016368"><ele>575.0</ele><time>2026-04-26T09:42:06.594Z</time></trkpt><trkpt lat="40.53078463138106" lon="9.16751054021942"><ele>575.0</ele><time>2026-04-26T09:42:07.594Z</time></trkpt><trkpt lat="40.53059743670828" lon="9.167515893954866"><ele>575.0</ele><time>2026-04-26T09:42:08.594Z</time></trkpt><trkpt lat="40.53042877805099" lon="9.167554282912848"><ele>575.0</ele><time>2026-04-26T09:42:09.594Z</time></trkpt><trkpt lat="40.53028545092534" lon="9.167627509037194"><ele>575.0</ele><time>2026-04-26T09:42:10.594Z</time></trkpt><trkpt lat="40.53016549546459" lon="9.167759854169972"><ele>577.0</ele><time>2026-04-26T09:42:11.594Z</time></trkpt><trkpt lat="40.53005931269889" lon="9.167927950554072"><ele>579.0</ele><time>2026-04-26T09:42:12.594Z</time></trkpt><trkpt lat="40.52996878892405" lon="9.168120333986161"><ele>581.0</ele><time>2026-04-26T09:42:13.594Z</time></trkpt><trkpt lat="40.529883875594315" lon="9.168305816606429"><ele>581.0</ele><time>2026-04-26T09:42:14.594Z</time></trkpt><trkpt lat="40.52977779594988" lon="9.168421478043555"><ele>581.0</ele><time>2026-04-26T09:42:15.594Z</time></trkpt><trkpt lat="40.5296348183691" lon="9.168469034700092"><ele>581.0</ele><time>2026-04-26T09:42:16.594Z</time></trkpt><trkpt lat="40.529468658605744" lon="9.168447116128203"><ele>581.6666666666666</ele><time>2026-04-26T09:42:17.594Z</time></trkpt><trkpt lat="40.52929445161859" lon="9.168391491458197"><ele>582.3333333333334</ele><time>2026-04-26T09:42:18.594Z</time></trkpt><trkpt lat="40.52911897401036" lon="9.168363183557082"><ele>583.0</ele><time>2026-04-26T09:42:19.594Z</time></trkpt><trkpt lat="40.52893571321068" lon="9.168378624673364"><ele>583.0</ele><time>2026-04-26T09:42:20.594Z</time></trkpt><trkpt lat="40.52877671469949" lon="9.168367895370645"><ele>583.0</ele><time>2026-04-26T09:42:21.594Z</time></trkpt><trkpt lat="40.528630651221164" lon="9.168414999963346"><ele>583.0</ele><time>2026-04-26T09:42:22.594Z</time></trkpt><trkpt lat="40.528493367213855" lon="9.168548610013117"><ele>583.0</ele><time>2026-04-26T09:42:23.594Z</time></trkpt><trkpt lat="40.528363662946724" lon="9.168731612685114"><ele>583.0</ele><time>2026-04-26T09:42:24.594Z</time></trkpt><trkpt lat="40.52822076597868" lon="9.168958224432338"><ele>583.0</ele><time>2026-04-26T09:42:25.594Z</time></trkpt><trkpt lat="40.528062980765945" lon="9.169194085996939"><ele>582.5</ele><time>2026-04-26T09:42:26.593Z</time></trkpt><trkpt lat="40.527900761737826" lon="9.169426931279643"><ele>582.0</ele><time>2026-04-26T09:42:27.593Z</time></trkpt><trkpt lat="40.52774332292062" lon="9.16961620647122"><ele>582.0</ele><time>2026-04-26T09:42:28.593Z</time></trkpt><trkpt lat="40.52757812039698" lon="9.169728334303771"><ele>582.0</ele><time>2026-04-26T09:42:29.593Z</time></trkpt><trkpt lat="40.52738212971614" lon="9.169763927293294"><ele>582.0</ele><time>2026-04-26T09:42:30.593Z</time></trkpt><trkpt lat="40.52717574856793" lon="9.169748176253004"><ele>581.0</ele><time>2026-04-26T09:42:31.593Z</time></trkpt><trkpt lat="40.526975942185985" lon="9.169679259273138"><ele>580.0</ele><time>2026-04-26T09:42:32.593Z</time></trkpt><trkpt lat="40.526766141240664" lon="9.169536883011535"><ele>579.0</ele><time>2026-04-26T09:42:33.593Z</time></trkpt><trkpt lat="40.52654032024062" lon="9.169372274572382"><ele>579.0</ele><time>2026-04-26T09:42:34.593Z</time></trkpt><trkpt lat="40.526295719809475" lon="9.16920548611819"><ele>579.0</ele><time>2026-04-26T09:42:35.593Z</time></trkpt><trkpt lat="40.52604851617768" lon="9.16902111553798"><ele>575.5</ele><time>2026-04-26T09:42:36.593Z</time></trkpt><trkpt lat="40.525812834809344" lon="9.168850375558076"><ele>572.0</ele><time>2026-04-26T09:42:37.593Z</time></trkpt><trkpt lat="40.52556624379577" lon="9.168687778021235"><ele>570.5</ele><time>2026-04-26T09:42:38.593Z</time></trkpt><trkpt lat="40.52530630667173" lon="9.168544618984479"><ele>569.0</ele><time>2026-04-26T09:42:39.593Z</time></trkpt><trkpt lat="40.52503001237131" lon="9.168430885327163"><ele>569.0</ele><time>2026-04-26T09:42:40.593Z</time></trkpt><trkpt lat="40.52475717173313" lon="9.168327118488456"><ele>569.0</ele><time>2026-04-26T09:42:41.593Z</time></trkpt><trkpt lat="40.52450227841479" lon="9.168226803368688"><ele>566.0</ele><time>2026-04-26T09:42:42.593Z</time></trkpt><trkpt lat="40.52426592346739" lon="9.168154783983868"><ele>563.0</ele><time>2026-04-26T09:42:43.593Z</time></trkpt><trkpt lat="40.52404493387332" lon="9.16813477533854"><ele>563.0</ele><time>2026-04-26T09:42:44.593Z</time></trkpt><trkpt lat="40.52383819093822" lon="9.168124981770966"><ele>563.0</ele><time>2026-04-26T09:42:45.593Z</time></trkpt><trkpt lat="40.52363143881638" lon="9.168086468259263"><ele>563.0</ele><time>2026-04-26T09:42:46.593Z</time></trkpt><trkpt lat="40.52341172949213" lon="9.167989094323831"><ele>561.6666666666666</ele><time>2026-04-26T09:42:47.593Z</time></trkpt><trkpt lat="40.52319037353113" lon="9.167901246065952"><ele>560.3333333333334</ele><time>2026-04-26T09:42:48.592Z</time></trkpt><trkpt lat="40.52302173179251" lon="9.16787704721516"><ele>559.0</ele><time>2026-04-26T09:42:49.592Z</time></trkpt><trkpt lat="40.522880429872934" lon="9.167808295389635"><ele>558.3333333333334</ele><time>2026-04-26T09:42:50.592Z</time></trkpt><trkpt lat="40.52275624522132" lon="9.167639010012666"><ele>557.6666666666666</ele><time>2026-04-26T09:42:51.592Z</time></trkpt><trkpt lat="40.522647911412896" lon="9.167492929137856"><ele>557.0</ele><time>2026-04-26T09:42:52.592Z</time></trkpt><trkpt lat="40.52251368072178" lon="9.167449928263286"><ele>557.0</ele><time>2026-04-26T09:42:53.592Z</time></trkpt><trkpt lat="40.522357856941696" lon="9.167470617136118"><ele>557.0</ele><time>2026-04-26T09:42:54.592Z</time></trkpt><trkpt lat="40.522189114133575" lon="9.167493098913953"><ele>557.0</ele><time>2026-04-26T09:42:55.592Z</time></trkpt><trkpt lat="40.52203684839445" lon="9.167431375034438"><ele>555.6666666666666</ele><time>2026-04-26T09:42:56.592Z</time></trkpt><trkpt lat="40.521911589779364" lon="9.167293463091825"><ele>554.3333333333334</ele><time>2026-04-26T09:42:57.592Z</time></trkpt><trkpt lat="40.52180580960827" lon="9.167085893943222"><ele>553.0</ele><time>2026-04-26T09:42:58.592Z</time></trkpt><trkpt lat="40.521688305346736" lon="9.166851730209846"><ele>553.0</ele><time>2026-04-26T09:42:59.592Z</time></trkpt><trkpt lat="40.521543966460165" lon="9.166645150087652"><ele>553.0</ele><time>2026-04-26T09:43:00.592Z</time></trkpt><trkpt lat="40.52138499755207" lon="9.166492614178674"><ele>553.0</ele><time>2026-04-26T09:43:01.592Z</time></trkpt><trkpt lat="40.521247113883334" lon="9.166367924864574"><ele>552.3333333333334</ele><time>2026-04-26T09:43:02.592Z</time></trkpt><trkpt lat="40.5211702106748" lon="9.166202754022972"><ele>551.6666666666666</ele><time>2026-04-26T09:43:03.592Z</time></trkpt><trkpt lat="40.521136843475304" lon="9.165979400914285"><ele>551.0</ele><time>2026-04-26T09:43:04.592Z</time></trkpt><trkpt lat="40.52108723351266" lon="9.165739420282605"><ele>547.3333333333333</ele><time>2026-04-26T09:43:05.592Z</time></trkpt><trkpt lat="40.520981886007746" lon="9.165517968637685"><ele>543.6666666666666</ele><time>2026-04-26T09:43:06.592Z</time></trkpt><trkpt lat="40.520857336065035" lon="9.165315102597363"><ele>540.0</ele><time>2026-04-26T09:43:07.592Z</time></trkpt><trkpt lat="40.520721120463335" lon="9.165150776903191"><ele>540.0</ele><time>2026-04-26T09:43:08.592Z</time></trkpt><trkpt lat="40.52055537953267" lon="9.165033482579187"><ele>540.0</ele><time>2026-04-26T09:43:09.592Z</time></trkpt><trkpt lat="40.52035617192478" lon="9.16498108009504"><ele>540.0</ele><time>2026-04-26T09:43:10.591Z</time></trkpt><trkpt lat="40.52013051142062" lon="9.164977082514259"><ele>539.0</ele><time>2026-04-26T09:43:11.591Z</time></trkpt><trkpt lat="40.51988340652272" lon="9.16502512089069"><ele>538.0</ele><time>2026-04-26T09:43:12.591Z</time></trkpt><trkpt lat="40.519656769812464" lon="9.165055907662607"><ele>537.0</ele><time>2026-04-26T09:43:13.591Z</time></trkpt><trkpt lat="40.5194489110207" lon="9.165026364863351"><ele>536.0</ele><time>2026-04-26T09:43:14.591Z</time></trkpt><trkpt lat="40.519255799097635" lon="9.164964317753363"><ele>535.0</ele><time>2026-04-26T09:43:15.591Z</time></trkpt><trkpt lat="40.51906819402313" lon="9.16495286009183"><ele>535.0</ele><time>2026-04-26T09:43:16.591Z</time></trkpt><trkpt lat="40.51888563565522" lon="9.165023479979283"><ele>535.0</ele><time>2026-04-26T09:43:17.591Z</time></trkpt><trkpt lat="40.5187213594019" lon="9.165105756841452"><ele>535.0</ele><time>2026-04-26T09:43:18.591Z</time></trkpt><trkpt lat="40.51858624178339" lon="9.165129218603052"><ele>535.0</ele><time>2026-04-26T09:43:19.591Z</time></trkpt><trkpt lat="40.51845995855001" lon="9.16506800453477"><ele>535.0</ele><time>2026-04-26T09:43:20.591Z</time></trkpt><trkpt lat="40.51834066268328" lon="9.164931555420695"><ele>535.0</ele><time>2026-04-26T09:43:21.591Z</time></trkpt><trkpt lat="40.518219996938285" lon="9.164757499077474"><ele>534.6666666666667</ele><time>2026-04-26T09:43:22.591Z</time></trkpt><trkpt lat="40.51808791405989" lon="9.164552059996794"><ele>534.3333333333334</ele><time>2026-04-26T09:43:23.591Z</time></trkpt><trkpt lat="40.51793113794898" lon="9.16435116056077"><ele>534.0</ele><time>2026-04-26T09:43:24.591Z</time></trkpt><trkpt lat="40.51776926121398" lon="9.16413557127612"><ele>527.0</ele><time>2026-04-26T09:43:25.591Z</time></trkpt><trkpt lat="40.51760874989234" lon="9.163922485868897"><ele>520.0</ele><time>2026-04-26T09:43:26.591Z</time></trkpt><trkpt lat="40.51745340596428" lon="9.163691890440068"><ele>520.0</ele><time>2026-04-26T09:43:27.591Z</time></trkpt><trkpt lat="40.51731406492607" lon="9.163436491990641"><ele>520.0</ele><time>2026-04-26T09:43:28.591Z</time></trkpt><trkpt lat="40.51718878366827" lon="9.163181437069353"><ele>519.3333333333334</ele><time>2026-04-26T09:43:29.591Z</time></trkpt><trkpt lat="40.517081660428026" lon="9.16294938132053"><ele>518.6666666666666</ele><time>2026-04-26T09:43:30.591Z</time></trkpt><trkpt lat="40.51701008129172" lon="9.162755811786472"><ele>518.0</ele><time>2026-04-26T09:43:31.591Z</time></trkpt><trkpt lat="40.51698359505868" lon="9.162572980866356"><ele>518.0</ele><time>2026-04-26T09:43:32.59Z</time></trkpt><trkpt lat="40.517016412879684" lon="9.162356096575396"><ele>518.0</ele><time>2026-04-26T09:43:33.59Z</time></trkpt><trkpt lat="40.51708967208561" lon="9.162105007591949"><ele>518.0</ele><time>2026-04-26T09:43:34.59Z</time></trkpt><trkpt lat="40.51716176323268" lon="9.161844872170523"><ele>518.0</ele><time>2026-04-26T09:43:35.59Z</time></trkpt><trkpt lat="40.51721816497354" lon="9.161598836686673"><ele>518.0</ele><time>2026-04-26T09:43:36.59Z</time></trkpt><trkpt lat="40.51726406859788" lon="9.161387118535918"><ele>518.0</ele><time>2026-04-26T09:43:37.592Z</time></trkpt><trkpt lat="40.51730830227861" lon="9.161189418964915"><ele>517.25</ele><time>2026-04-26T09:43:38.591Z</time></trkpt><trkpt lat="40.517319299569095" lon="9.160996515465902"><ele>516.5</ele><time>2026-04-26T09:43:39.591Z</time></trkpt><trkpt lat="40.517281703937556" lon="9.16081609767924"><ele>515.75</ele><time>2026-04-26T09:43:40.592Z</time></trkpt><trkpt lat="40.51719846575088" lon="9.16064845355594"><ele>515.0</ele><time>2026-04-26T09:43:41.591Z</time></trkpt><trkpt lat="40.51705848805895" lon="9.160512651182332"><ele>512.0</ele><time>2026-04-26T09:43:42.591Z</time></trkpt><trkpt lat="40.516891161985875" lon="9.160426426209792"><ele>509.0</ele><time>2026-04-26T09:43:43.591Z</time></trkpt><trkpt lat="40.516740018596195" lon="9.160347436683654"><ele>506.0</ele><time>2026-04-26T09:43:44.592Z</time></trkpt><trkpt lat="40.51664011035069" lon="9.160232719284595"><ele>506.0</ele><time>2026-04-26T09:43:45.592Z</time></trkpt><trkpt lat="40.516573274319015" lon="9.160061682979308"><ele>506.0</ele><time>2026-04-26T09:43:46.591Z</time></trkpt><trkpt lat="40.51652926805108" lon="9.159830052540821"><ele>506.0</ele><time>2026-04-26T09:43:47.591Z</time></trkpt><trkpt lat="40.51647738126915" lon="9.159598238641024"><ele>506.0</ele><time>2026-04-26T09:43:48.591Z</time></trkpt><trkpt lat="40.51636261040643" lon="9.159417924718724"><ele>506.0</ele><time>2026-04-26T09:43:49.591Z</time></trkpt><trkpt lat="40.51619938637881" lon="9.159288192332866"><ele>506.0</ele><time>2026-04-26T09:43:50.591Z</time></trkpt><trkpt lat="40.5160043553329" lon="9.159182618840166"><ele>500.66666666666663</ele><time>2026-04-26T09:43:51.591Z</time></trkpt><trkpt lat="40.51582008596503" lon="9.159024740626439"><ele>495.33333333333337</ele><time>2026-04-26T09:43:52.591Z</time></trkpt><trkpt lat="40.51565039147157" lon="9.158831451537404"><ele>490.0</ele><time>2026-04-26T09:43:53.591Z</time></trkpt><trkpt lat="40.515477054464434" lon="9.158671053651762"><ele>494.33333333333337</ele><time>2026-04-26T09:43:54.591Z</time></trkpt><trkpt lat="40.5152938988607" lon="9.158555593244484"><ele>498.66666666666663</ele><time>2026-04-26T09:43:55.591Z</time></trkpt><trkpt lat="40.51513870711265" lon="9.158453835614473"><ele>503.0</ele><time>2026-04-26T09:43:56.591Z</time></trkpt><trkpt lat="40.515009032421226" lon="9.158320003210395"><ele>499.3333333333333</ele><time>2026-04-26T09:43:57.591Z</time></trkpt><trkpt lat="40.514911830038045" lon="9.15815154048025"><ele>495.66666666666663</ele><time>2026-04-26T09:43:58.591Z</time></trkpt><trkpt lat="40.5148679872746" lon="9.157936990485188"><ele>492.0</ele><time>2026-04-26T09:43:59.591Z</time></trkpt><trkpt lat="40.514876623652555" lon="9.157720512528215"><ele>492.0</ele><time>2026-04-26T09:44:00.591Z</time></trkpt><trkpt lat="40.51490772122023" lon="9.15749200703198"><ele>492.0</ele><time>2026-04-26T09:44:01.591Z</time></trkpt><trkpt lat="40.51490502853557" lon="9.15724431290405"><ele>492.0</ele><time>2026-04-26T09:44:02.591Z</time></trkpt><trkpt lat="40.51485196697767" lon="9.157002738421596"><ele>491.66666666666663</ele><time>2026-04-26T09:44:03.591Z</time></trkpt><trkpt lat="40.51477436274712" lon="9.156800777216963"><ele>491.3333333333333</ele><time>2026-04-26T09:44:04.591Z</time></trkpt><trkpt lat="40.51467004640159" lon="9.156652398388662"><ele>491.0</ele><time>2026-04-26T09:44:05.591Z</time></trkpt><trkpt lat="40.51452734648241" lon="9.156578196350631"><ele>491.0</ele><time>2026-04-26T09:44:06.591Z</time></trkpt><trkpt lat="40.51435693470908" lon="9.156542477925619"><ele>491.0</ele><time>2026-04-26T09:44:07.591Z</time></trkpt><trkpt lat="40.5141730450878" lon="9.156519215980973"><ele>491.0</ele><time>2026-04-26T09:44:08.59Z</time></trkpt><trkpt lat="40.51401487486601" lon="9.156477683713517"><ele>488.75</ele><time>2026-04-26T09:44:09.59Z</time></trkpt><trkpt lat="40.51389962067722" lon="9.156375127091541"><ele>486.5</ele><time>2026-04-26T09:44:10.59Z</time></trkpt><trkpt lat="40.51383548713899" lon="9.156234948604743"><ele>484.25</ele><time>2026-04-26T09:44:11.59Z</time></trkpt><trkpt lat="40.51384374054389" lon="9.156082934439505"><ele>482.0</ele><time>2026-04-26T09:44:12.59Z</time></trkpt><trkpt lat="40.513918856784635" lon="9.155943972819"><ele>482.0</ele><time>2026-04-26T09:44:13.59Z</time></trkpt><trkpt lat="40.51401856351474" lon="9.15578703327746"><ele>482.0</ele><time>2026-04-26T09:44:14.59Z</time></trkpt><trkpt lat="40.5140705249893" lon="9.155585724040785"><ele>482.0</ele><time>2026-04-26T09:44:15.59Z</time></trkpt><trkpt lat="40.514083923869514" lon="9.155358951056115"><ele>479.66666666666663</ele><time>2026-04-26T09:44:16.59Z</time></trkpt><trkpt lat="40.51405086944237" lon="9.155151933420504"><ele>477.33333333333337</ele><time>2026-04-26T09:44:17.59Z</time></trkpt><trkpt lat="40.51396609642655" lon="9.154953723886551"><ele>475.0</ele><time>2026-04-26T09:44:18.59Z</time></trkpt><trkpt lat="40.51386726452131" lon="9.154730008061772"><ele>473.33333333333337</ele><time>2026-04-26T09:44:19.59Z</time></trkpt><trkpt lat="40.51378333364265" lon="9.154485180829273"><ele>471.66666666666663</ele><time>2026-04-26T09:44:20.59Z</time></trkpt><trkpt lat="40.51371021316513" lon="9.154213127817027"><ele>470.0</ele><time>2026-04-26T09:44:21.59Z</time></trkpt><trkpt lat="40.51363366164939" lon="9.15395232588685"><ele>470.0</ele><time>2026-04-26T09:44:22.59Z</time></trkpt><trkpt lat="40.513552493239374" lon="9.153698665974373"><ele>470.0</ele><time>2026-04-26T09:44:23.59Z</time></trkpt><trkpt lat="40.513490258936464" lon="9.153476790343824"><ele>470.0</ele><time>2026-04-26T09:44:24.59Z</time></trkpt><trkpt lat="40.51343123935009" lon="9.153314088377513"><ele>470.0</ele><time>2026-04-26T09:44:25.59Z</time></trkpt><trkpt lat="40.51336662072412" lon="9.153205237058913"><ele>470.0</ele><time>2026-04-26T09:44:26.59Z</time></trkpt><trkpt lat="40.513259795569176" lon="9.153167720395475"><ele>470.0</ele><time>2026-04-26T09:44:27.59Z</time></trkpt><trkpt lat="40.51313379245657" lon="9.153218259862852"><ele>470.0</ele><time>2026-04-26T09:44:28.59Z</time></trkpt><trkpt lat="40.51300554299573" lon="9.153337712874063"><ele>471.25</ele><time>2026-04-26T09:44:29.59Z</time></trkpt><trkpt lat="40.512869460834196" lon="9.153444291744332"><ele>472.5</ele><time>2026-04-26T09:44:30.589Z</time></trkpt><trkpt lat="40.51272507273525" lon="9.15346839118972"><ele>473.75</ele><time>2026-04-26T09:44:31.589Z</time></trkpt><trkpt lat="40.51260679408225" lon="9.153420514930064"><ele>475.0</ele><time>2026-04-26T09:44:32.589Z</time></trkpt><trkpt lat="40.51251603012114" lon="9.153295879307406"><ele>472.0</ele><time>2026-04-26T09:44:33.589Z</time></trkpt><trkpt lat="40.512435617963206" lon="9.153129533962115"><ele>469.0</ele><time>2026-04-26T09:44:34.589Z</time></trkpt><trkpt lat="40.51235998804735" lon="9.152961008807045"><ele>466.0</ele><time>2026-04-26T09:44:35.589Z</time></trkpt><trkpt lat="40.51229908953406" lon="9.152794731223358"><ele>463.0</ele><time>2026-04-26T09:44:36.589Z</time></trkpt><trkpt lat="40.512282527972225" lon="9.152612772095651"><ele>463.0</ele><time>2026-04-26T09:44:37.589Z</time></trkpt><trkpt lat="40.51233822079362" lon="9.15244181650169"><ele>463.0</ele><time>2026-04-26T09:44:38.589Z</time></trkpt><trkpt lat="40.51239614514581" lon="9.152264320343289"><ele>463.0</ele><time>2026-04-26T09:44:39.589Z</time></trkpt><trkpt lat="40.5124032743124" lon="9.15210708520226"><ele>463.0</ele><time>2026-04-26T09:44:40.589Z</time></trkpt><trkpt lat="40.51234119075947" lon="9.151965999333035"><ele>459.6666666666667</ele><time>2026-04-26T09:44:41.589Z</time></trkpt><trkpt lat="40.51221314325999" lon="9.151878468427354"><ele>456.33333333333337</ele><time>2026-04-26T09:44:42.589Z</time></trkpt><trkpt lat="40.512049519333566" lon="9.151816984500588"><ele>453.0</ele><time>2026-04-26T09:44:43.589Z</time></trkpt><trkpt lat="40.5119216037044" lon="9.151715144368664"><ele>457.33333333333337</ele><time>2026-04-26T09:44:44.589Z</time></trkpt><trkpt lat="40.51182212580049" lon="9.151551178307834"><ele>461.6666666666667</ele><time>2026-04-26T09:44:45.589Z</time></trkpt><trkpt lat="40.51177853492358" lon="9.15138205002795"><ele>466.0</ele><time>2026-04-26T09:44:46.589Z</time></trkpt><trkpt lat="40.51178128283529" lon="9.151173418539953"><ele>466.0</ele><time>2026-04-26T09:44:47.589Z</time></trkpt><trkpt lat="40.51181032046248" lon="9.150938780111298"><ele>466.0</ele><time>2026-04-26T09:44:48.589Z</time></trkpt><trkpt lat="40.511830905527546" lon="9.150694235711462"><ele>466.0</ele><time>2026-04-26T09:44:49.589Z</time></trkpt><trkpt lat="40.51184396733988" lon="9.150434086852085"><ele>463.33333333333337</ele><time>2026-04-26T09:44:50.589Z</time></trkpt><trkpt lat="40.51182810474023" lon="9.150181580006693"><ele>460.66666666666663</ele><time>2026-04-26T09:44:51.589Z</time></trkpt><trkpt lat="40.511784589358655" lon="9.149951393323548"><ele>458.0</ele><time>2026-04-26T09:44:52.588Z</time></trkpt><trkpt lat="40.51170958720869" lon="9.149756398366216"><ele>452.0</ele><time>2026-04-26T09:44:53.588Z</time></trkpt><trkpt lat="40.51157608122976" lon="9.149614366100227"><ele>446.0</ele><time>2026-04-26T09:44:54.588Z</time></trkpt><trkpt lat="40.51142665649656" lon="9.149519031488982"><ele>440.0</ele><time>2026-04-26T09:44:55.588Z</time></trkpt><trkpt lat="40.51128480906661" lon="9.149438176971719"><ele>443.0</ele><time>2026-04-26T09:44:56.588Z</time></trkpt><trkpt lat="40.51120512588627" lon="9.14930301570996"><ele>446.0</ele><time>2026-04-26T09:44:57.588Z</time></trkpt><trkpt lat="40.511198994584625" lon="9.14912824479123"><ele>449.0</ele><time>2026-04-26T09:44:58.588Z</time></trkpt><trkpt lat="40.51121598291341" lon="9.148934286924826"><ele>452.0</ele><time>2026-04-26T09:44:59.588Z</time></trkpt><trkpt lat="40.5112055046083" lon="9.148757627712506"><ele>452.0</ele><time>2026-04-26T09:45:00.588Z</time></trkpt><trkpt lat="40.51113997754341" lon="9.148602991348469"><ele>452.0</ele><time>2026-04-26T09:45:01.588Z</time></trkpt><trkpt lat="40.51103647191666" lon="9.148470667973541"><ele>452.0</ele><time>2026-04-26T09:45:02.588Z</time></trkpt><trkpt lat="40.51095597910531" lon="9.14832198384209"><ele>452.0</ele><time>2026-04-26T09:45:03.588Z</time></trkpt><trkpt lat="40.51093780261674" lon="9.148137010927485"><ele>448.25</ele><time>2026-04-26T09:45:04.588Z</time></trkpt><trkpt lat="40.51096360148202" lon="9.147943541785107"><ele>444.5</ele><time>2026-04-26T09:45:05.588Z</time></trkpt><trkpt lat="40.51095164653791" lon="9.147766254917807"><ele>440.75</ele><time>2026-04-26T09:45:06.588Z</time></trkpt><trkpt lat="40.51089103533637" lon="9.14760844629522"><ele>437.0</ele><time>2026-04-26T09:45:07.588Z</time></trkpt><trkpt lat="40.51077233531208" lon="9.147493833325782"><ele>437.0</ele><time>2026-04-26T09:45:08.588Z</time></trkpt><trkpt lat="40.51061033405722" lon="9.147412867588956"><ele>437.0</ele><time>2026-04-26T09:45:09.588Z</time></trkpt><trkpt lat="40.510427025071124" lon="9.147340108472262"><ele>437.0</ele><time>2026-04-26T09:45:10.588Z</time></trkpt><trkpt lat="40.51023338889034" lon="9.14726258225979"><ele>431.0</ele><time>2026-04-26T09:45:11.588Z</time></trkpt><trkpt lat="40.51003962041415" lon="9.147171379219584"><ele>425.0</ele><time>2026-04-26T09:45:12.588Z</time></trkpt><trkpt lat="40.50985825501471" lon="9.147094288837298"><ele>419.0</ele><time>2026-04-26T09:45:13.588Z</time></trkpt><trkpt lat="40.50967628797678" lon="9.147081041812463"><ele>416.3333333333333</ele><time>2026-04-26T09:45:14.587Z</time></trkpt><trkpt lat="40.50948908519437" lon="9.147136296658179"><ele>413.66666666666663</ele><time>2026-04-26T09:45:15.587Z</time></trkpt><trkpt lat="40.509294829584455" lon="9.14723983604612"><ele>411.0</ele><time>2026-04-26T09:45:16.587Z</time></trkpt><trkpt lat="40.50909499618498" lon="9.147368777030739"><ele>416.0</ele><time>2026-04-26T09:45:17.587Z</time></trkpt><trkpt lat="40.508891050000635" lon="9.14748303225238"><ele>421.0</ele><time>2026-04-26T09:45:18.587Z</time></trkpt><trkpt lat="40.50870364400585" lon="9.147573080859937"><ele>426.0</ele><time>2026-04-26T09:45:19.587Z</time></trkpt><trkpt lat="40.508537148430634" lon="9.147639721907876"><ele>426.0</ele><time>2026-04-26T09:45:20.587Z</time></trkpt><trkpt lat="40.50837880712344" lon="9.14765988860563"><ele>426.0</ele><time>2026-04-26T09:45:21.587Z</time></trkpt><trkpt lat="40.50824055432469" lon="9.14767588784868"><ele>426.0</ele><time>2026-04-26T09:45:22.587Z</time></trkpt><trkpt lat="40.50812622217621" lon="9.147765416859038"><ele>426.0</ele><time>2026-04-26T09:45:23.587Z</time></trkpt><trkpt lat="40.508052292926514" lon="9.147922442977213"><ele>426.0</ele><time>2026-04-26T09:45:24.587Z</time></trkpt><trkpt lat="40.50797604232471" lon="9.148105731495091"><ele>426.0</ele><time>2026-04-26T09:45:25.587Z</time></trkpt><trkpt lat="40.50784454253978" lon="9.14826709671098"><ele>426.0</ele><time>2026-04-26T09:45:26.587Z</time></trkpt><trkpt lat="40.50768026160771" lon="9.148394628616426"><ele>424.5</ele><time>2026-04-26T09:45:27.587Z</time></trkpt><trkpt lat="40.50755802402633" lon="9.14854026522817"><ele>423.0</ele><time>2026-04-26T09:45:28.587Z</time></trkpt><trkpt lat="40.50748709483218" lon="9.148705064847972"><ele>421.5</ele><time>2026-04-26T09:45:29.587Z</time></trkpt><trkpt lat="40.5074264269433" lon="9.148849061100863"><ele>420.0</ele><time>2026-04-26T09:45:30.587Z</time></trkpt><trkpt lat="40.50729597190035" lon="9.14889921645431"><ele>420.0</ele><time>2026-04-26T09:45:31.587Z</time></trkpt><trkpt lat="40.50716170759904" lon="9.14892010634965"><ele>420.0</ele><time>2026-04-26T09:45:32.587Z</time></trkpt><trkpt lat="40.50704250825206" lon="9.148910827862764"><ele>420.0</ele><time>2026-04-26T09:45:33.587Z</time></trkpt><trkpt lat="40.50694848682857" lon="9.148833128302728"><ele>420.0</ele><time>2026-04-26T09:45:34.587Z</time></trkpt><trkpt lat="40.50685292002718" lon="9.148715697759203"><ele>416.0</ele><time>2026-04-26T09:45:35.587Z</time></trkpt><trkpt lat="40.50671951979836" lon="9.148659445317424"><ele>412.0</ele><time>2026-04-26T09:45:36.586Z</time></trkpt><trkpt lat="40.506556380479104" lon="9.148666105749223"><ele>408.0</ele><time>2026-04-26T09:45:37.586Z</time></trkpt><trkpt lat="40.506377459362234" lon="9.148693657982172"><ele>409.25</ele><time>2026-04-26T09:45:38.586Z</time></trkpt><trkpt lat="40.50620004173834" lon="9.148707744916763"><ele>410.5</ele><time>2026-04-26T09:45:39.586Z</time></trkpt><trkpt lat="40.50606330047519" lon="9.148710653922127"><ele>411.75</ele><time>2026-04-26T09:45:40.586Z</time></trkpt><trkpt lat="40.50595677276063" lon="9.148658433473646"><ele>413.0</ele><time>2026-04-26T09:45:41.586Z</time></trkpt><trkpt lat="40.50588221863032" lon="9.148529422629217"><ele>413.0</ele><time>2026-04-26T09:45:42.586Z</time></trkpt><trkpt lat="40.505859737072875" lon="9.148348167627086"><ele>413.0</ele><time>2026-04-26T09:45:43.587Z</time></trkpt><trkpt lat="40.50584943869819" lon="9.148147690189745"><ele>413.0</ele><time>2026-04-26T09:45:44.586Z</time></trkpt><trkpt lat="40.50578489985514" lon="9.148006995954763"><ele>413.0</ele><time>2026-04-26T09:45:45.586Z</time></trkpt><trkpt lat="40.505673814682524" lon="9.147938979438631"><ele>407.0</ele><time>2026-04-26T09:45:46.587Z</time></trkpt><trkpt lat="40.505523687315396" lon="9.14794212364874"><ele>401.0</ele><time>2026-04-26T09:45:47.586Z</time></trkpt><trkpt lat="40.505363042264776" lon="9.147987995309348"><ele>395.0</ele><time>2026-04-26T09:45:48.586Z</time></trkpt><trkpt lat="40.5052037669885" lon="9.147988015981086"><ele>395.0</ele><time>2026-04-26T09:45:49.587Z</time></trkpt><trkpt lat="40.505042558770455" lon="9.14789422850062"><ele>395.0</ele><time>2026-04-26T09:45:50.587Z</time></trkpt><trkpt lat="40.50489640456546" lon="9.147761943577288"><ele>395.0</ele><time>2026-04-26T09:45:51.587Z</time></trkpt><trkpt lat="40.50472340106738" lon="9.147726241679193"><ele>396.3333333333333</ele><time>2026-04-26T09:45:52.586Z</time></trkpt><trkpt lat="40.50452601410085" lon="9.14770497850526"><ele>397.66666666666663</ele><time>2026-04-26T09:45:53.586Z</time></trkpt><trkpt lat="40.50433257958319" lon="9.147635228722642"><ele>399.0</ele><time>2026-04-26T09:45:54.586Z</time></trkpt><trkpt lat="40.50413875264065" lon="9.147588196083698"><ele>399.0</ele><time>2026-04-26T09:45:55.586Z</time></trkpt><trkpt lat="40.50397400309967" lon="9.147530978977905"><ele>399.0</ele><time>2026-04-26T09:45:56.586Z</time></trkpt><trkpt lat="40.50384048893869" lon="9.147418460218843"><ele>399.0</ele><time>2026-04-26T09:45:57.586Z</time></trkpt><trkpt lat="40.50375066432743" lon="9.14722439755617"><ele>396.33333333333337</ele><time>2026-04-26T09:45:58.586Z</time></trkpt><trkpt lat="40.50368194882875" lon="9.146991914345923"><ele>393.6666666666667</ele><time>2026-04-26T09:45:59.586Z</time></trkpt><trkpt lat="40.503601298273885" lon="9.146789310086593"><ele>391.0</ele><time>2026-04-26T09:46:00.586Z</time></trkpt><trkpt lat="40.503481295375394" lon="9.14664359099828"><ele>391.0</ele><time>2026-04-26T09:46:01.586Z</time></trkpt><trkpt lat="40.50331500019014" lon="9.146549067685912"><ele>391.0</ele><time>2026-04-26T09:46:02.586Z</time></trkpt><trkpt lat="40.503126678974915" lon="9.146487697140167"><ele>391.0</ele><time>2026-04-26T09:46:03.586Z</time></trkpt><trkpt lat="40.502916716269866" lon="9.14643360399656"><ele>385.6666666666667</ele><time>2026-04-26T09:46:04.586Z</time></trkpt><trkpt lat="40.5027469172717" lon="9.1463148729853"><ele>380.33333333333337</ele><time>2026-04-26T09:46:05.586Z</time></trkpt><trkpt lat="40.50258146182928" lon="9.146204190834473"><ele>375.0</ele><time>2026-04-26T09:46:06.585Z</time></trkpt><trkpt lat="40.502389526003846" lon="9.146148242450705"><ele>375.0</ele><time>2026-04-26T09:46:07.585Z</time></trkpt><trkpt lat="40.50217077948689" lon="9.146114801195909"><ele>375.0</ele><time>2026-04-26T09:46:08.585Z</time></trkpt><trkpt lat="40.501940361210416" lon="9.146090722156703"><ele>375.5</ele><time>2026-04-26T09:46:09.585Z</time></trkpt><trkpt lat="40.501709878290725" lon="9.146061264862022"><ele>376.0</ele><time>2026-04-26T09:46:10.585Z</time></trkpt><trkpt lat="40.50148507511726" lon="9.14602939879346"><ele>376.0</ele><time>2026-04-26T09:46:11.585Z</time></trkpt><trkpt lat="40.5012714123808" lon="9.145967217562543"><ele>376.0</ele><time>2026-04-26T09:46:12.585Z</time></trkpt><trkpt lat="40.501055086946366" lon="9.145848564600621"><ele>376.5</ele><time>2026-04-26T09:46:13.585Z</time></trkpt><trkpt lat="40.50083005966593" lon="9.145715023194652"><ele>377.0</ele><time>2026-04-26T09:46:14.585Z</time></trkpt><trkpt lat="40.50058395883691" lon="9.145621635303998"><ele>367.0</ele><time>2026-04-26T09:46:15.585Z</time></trkpt><trkpt lat="40.500330436713156" lon="9.145548096727195"><ele>357.0</ele><time>2026-04-26T09:46:16.585Z</time></trkpt><trkpt lat="40.50008176048772" lon="9.14547360558423"><ele>357.0</ele><time>2026-04-26T09:46:17.585Z</time></trkpt><trkpt lat="40.49984957792393" lon="9.145406565145116"><ele>357.0</ele><time>2026-04-26T09:46:18.585Z</time></trkpt><trkpt lat="40.499644200804134" lon="9.145363029863379"><ele>357.0</ele><time>2026-04-26T09:46:19.585Z</time></trkpt><trkpt lat="40.49944549428813" lon="9.145351876787963"><ele>356.6666666666667</ele><time>2026-04-26T09:46:20.585Z</time></trkpt><trkpt lat="40.499243227908394" lon="9.145406016796851"><ele>356.33333333333337</ele><time>2026-04-26T09:46:21.585Z</time></trkpt><trkpt lat="40.49904625902229" lon="9.145496515587032"><ele>356.0</ele><time>2026-04-26T09:46:22.585Z</time></trkpt><trkpt lat="40.49886607218794" lon="9.145600028277855"><ele>355.0</ele><time>2026-04-26T09:46:23.585Z</time></trkpt><trkpt lat="40.498702928087795" lon="9.145697366594076"><ele>354.0</ele><time>2026-04-26T09:46:24.585Z</time></trkpt><trkpt lat="40.49856778840747" lon="9.145838683978926"><ele>353.0</ele><time>2026-04-26T09:46:25.585Z</time></trkpt><trkpt lat="40.49846972809585" lon="9.146011621575612"><ele>353.0</ele><time>2026-04-26T09:46:26.585Z</time></trkpt><trkpt lat="40.498414582192" lon="9.146216537464904"><ele>353.0</ele><time>2026-04-26T09:46:27.585Z</time></trkpt><trkpt lat="40.4984094280162" lon="9.146443287705159"><ele>353.0</ele><time>2026-04-26T09:46:28.584Z</time></trkpt><trkpt lat="40.498446830656285" lon="9.146676383014228"><ele>353.75</ele><time>2026-04-26T09:46:29.584Z</time></trkpt><trkpt lat="40.49848570534815" lon="9.146897977253929"><ele>354.5</ele><time>2026-04-26T09:46:30.584Z</time></trkpt><trkpt lat="40.49848604779482" lon="9.147062069337903"><ele>355.25</ele><time>2026-04-26T09:46:31.584Z</time></trkpt><trkpt lat="40.498429077375775" lon="9.147194901864106"><ele>356.0</ele><time>2026-04-26T09:46:32.584Z</time></trkpt><trkpt lat="40.498320090911434" lon="9.147271514591878"><ele>356.0</ele><time>2026-04-26T09:46:33.584Z</time></trkpt><trkpt lat="40.49819873434032" lon="9.147255358386552"><ele>356.0</ele><time>2026-04-26T09:46:34.584Z</time></trkpt><trkpt lat="40.49807273211093" lon="9.14716677783066"><ele>356.0</ele><time>2026-04-26T09:46:35.584Z</time></trkpt><trkpt lat="40.49801335644183" lon="9.14703889850446"><ele>356.0</ele><time>2026-04-26T09:46:36.584Z</time></trkpt><trkpt lat="40.497962390182664" lon="9.146875293205492"><ele>356.0</ele><time>2026-04-26T09:46:37.584Z</time></trkpt><trkpt lat="40.49787524094871" lon="9.146667574949795"><ele>356.0</ele><time>2026-04-26T09:46:38.584Z</time></trkpt><trkpt lat="40.49777973043428" lon="9.146447442062627"><ele>356.0</ele><time>2026-04-26T09:46:39.584Z</time></trkpt><trkpt lat="40.49767993766766" lon="9.146215947170948"><ele>356.0</ele><time>2026-04-26T09:46:40.584Z</time></trkpt><trkpt lat="40.49757058476438" lon="9.14597571747912"><ele>356.0</ele><time>2026-04-26T09:46:41.584Z</time></trkpt><trkpt lat="40.49746617512681" lon="9.14573473907275"><ele>356.0</ele><time>2026-04-26T09:46:42.584Z</time></trkpt><trkpt lat="40.497365578107626" lon="9.14551483248916"><ele>358.0</ele><time>2026-04-26T09:46:43.584Z</time></trkpt><trkpt lat="40.49725997643016" lon="9.145304570416615"><ele>360.0</ele><time>2026-04-26T09:46:44.584Z</time></trkpt><trkpt lat="40.497143738585585" lon="9.145106114382942"><ele>362.0</ele><time>2026-04-26T09:46:45.584Z</time></trkpt><trkpt lat="40.49701197328105" lon="9.144904229752388"><ele>357.0</ele><time>2026-04-26T09:46:46.584Z</time></trkpt><trkpt lat="40.49687631963487" lon="9.144698876327883"><ele>352.0</ele><time>2026-04-26T09:46:47.584Z</time></trkpt><trkpt lat="40.49672661918976" lon="9.144487783341349"><ele>347.0</ele><time>2026-04-26T09:46:48.584Z</time></trkpt><trkpt lat="40.49658328359093" lon="9.144283076256295"><ele>347.0</ele><time>2026-04-26T09:46:49.584Z</time></trkpt><trkpt lat="40.4964554665329" lon="9.144103280172208"><ele>347.0</ele><time>2026-04-26T09:46:50.583Z</time></trkpt><trkpt lat="40.496349911916724" lon="9.14394112237143"><ele>347.0</ele><time>2026-04-26T09:46:51.583Z</time></trkpt><trkpt lat="40.49627137160379" lon="9.143799845810967"><ele>346.25</ele><time>2026-04-26T09:46:52.583Z</time></trkpt><trkpt lat="40.49625151953637" lon="9.143646123087512"><ele>345.5</ele><time>2026-04-26T09:46:53.583Z</time></trkpt><trkpt lat="40.49629005155985" lon="9.143471344043968"><ele>344.75</ele><time>2026-04-26T09:46:54.583Z</time></trkpt><trkpt lat="40.496353055197105" lon="9.143271746726068"><ele>344.0</ele><time>2026-04-26T09:46:55.583Z</time></trkpt><trkpt lat="40.49640812206615" lon="9.143039369902757"><ele>343.6666666666667</ele><time>2026-04-26T09:46:56.583Z</time></trkpt><trkpt lat="40.49645720120205" lon="9.14278359035638"><ele>343.3333333333333</ele><time>2026-04-26T09:46:57.583Z</time></trkpt><trkpt lat="40.49651438496919" lon="9.14253751636122"><ele>343.0</ele><time>2026-04-26T09:46:58.583Z</time></trkpt><trkpt lat="40.49656235762704" lon="9.14232169808319"><ele>341.3333333333333</ele><time>2026-04-26T09:46:59.583Z</time></trkpt><trkpt lat="40.496558604838164" lon="9.142112687926128"><ele>339.6666666666667</ele><time>2026-04-26T09:47:00.583Z</time></trkpt><trkpt lat="40.49650383225332" lon="9.141901016472607"><ele>338.0</ele><time>2026-04-26T09:47:01.583Z</time></trkpt><trkpt lat="40.496393163036714" lon="9.141683449857323"><ele>338.0</ele><time>2026-04-26T09:47:02.583Z</time></trkpt><trkpt lat="40.4962463320852" lon="9.141450395319024"><ele>338.0</ele><time>2026-04-26T09:47:03.583Z</time></trkpt><trkpt lat="40.49610278935681" lon="9.141214914450906"><ele>338.0</ele><time>2026-04-26T09:47:04.583Z</time></trkpt><trkpt lat="40.49598750543947" lon="9.141012255374779"><ele>338.0</ele><time>2026-04-26T09:47:05.583Z</time></trkpt><trkpt lat="40.495861570102406" lon="9.14085028541557"><ele>338.0</ele><time>2026-04-26T09:47:06.583Z</time></trkpt><trkpt lat="40.495707943020385" lon="9.140775741403997"><ele>338.0</ele><time>2026-04-26T09:47:07.583Z</time></trkpt><trkpt lat="40.49553535352241" lon="9.140765850453196"><ele>338.0</ele><time>2026-04-26T09:47:08.583Z</time></trkpt><trkpt lat="40.49532254525185" lon="9.140784200127994"><ele>338.0</ele><time>2026-04-26T09:47:09.583Z</time></trkpt><trkpt lat="40.495079015380284" lon="9.140802039327449"><ele>339.0</ele><time>2026-04-26T09:47:10.583Z</time></trkpt><trkpt lat="40.49482886639185" lon="9.14080896976704"><ele>340.0</ele><time>2026-04-26T09:47:11.583Z</time></trkpt><trkpt lat="40.494600413414425" lon="9.140813379160981"><ele>339.66666666666663</ele><time>2026-04-26T09:47:12.582Z</time></trkpt><trkpt lat="40.49440194780429" lon="9.140805292357559"><ele>339.3333333333333</ele><time>2026-04-26T09:47:13.582Z</time></trkpt><trkpt lat="40.49423554483536" lon="9.140740613374335"><ele>339.0</ele><time>2026-04-26T09:47:14.582Z</time></trkpt><trkpt lat="40.494090387192756" lon="9.14058661075036"><ele>339.0</ele><time>2026-04-26T09:47:15.582Z</time></trkpt><trkpt lat="40.49397314364924" lon="9.140368524185261"><ele>339.0</ele><time>2026-04-26T09:47:16.582Z</time></trkpt><trkpt lat="40.493854214407776" lon="9.140108771595186"><ele>339.0</ele><time>2026-04-26T09:47:17.582Z</time></trkpt><trkpt lat="40.493724927233615" lon="9.139872037105821"><ele>336.6666666666667</ele><time>2026-04-26T09:47:18.582Z</time></trkpt><trkpt lat="40.49361600435382" lon="9.139663973030304"><ele>334.33333333333337</ele><time>2026-04-26T09:47:19.582Z</time></trkpt><trkpt lat="40.49355641065434" lon="9.139422745244266"><ele>332.0</ele><time>2026-04-26T09:47:20.582Z</time></trkpt><trkpt lat="40.49353983677459" lon="9.139131280398775"><ele>333.5</ele><time>2026-04-26T09:47:21.582Z</time></trkpt><trkpt lat="40.493485682839435" lon="9.138827257157857"><ele>335.0</ele><time>2026-04-26T09:47:22.582Z</time></trkpt><trkpt lat="40.49335475817763" lon="9.138535835962067"><ele>335.0</ele><time>2026-04-26T09:47:23.582Z</time></trkpt><trkpt lat="40.49319333880692" lon="9.138234418871663"><ele>335.0</ele><time>2026-04-26T09:47:24.582Z</time></trkpt><trkpt lat="40.49303400294814" lon="9.137948878643408"><ele>333.6666666666667</ele><time>2026-04-26T09:47:25.582Z</time></trkpt><trkpt lat="40.49285881973894" lon="9.137729970892979"><ele>332.3333333333333</ele><time>2026-04-26T09:47:26.582Z</time></trkpt><trkpt lat="40.49268034155899" lon="9.137600999752701"><ele>331.0</ele><time>2026-04-26T09:47:27.582Z</time></trkpt><trkpt lat="40.49253273619867" lon="9.13752797796959"><ele>331.0</ele><time>2026-04-26T09:47:28.582Z</time></trkpt><trkpt lat="40.49240781083299" lon="9.137479137864654"><ele>331.0</ele><time>2026-04-26T09:47:29.582Z</time></trkpt><trkpt lat="40.49233715823129" lon="9.137429131390062"><ele>331.0</ele><time>2026-04-26T09:47:30.582Z</time></trkpt><trkpt lat="40.49226398418738" lon="9.137365361798926"><ele>331.0</ele><time>2026-04-26T09:47:31.582Z</time></trkpt><trkpt lat="40.49217426044023" lon="9.137319914304358"><ele>331.0</ele><time>2026-04-26T09:47:32.582Z</time></trkpt><trkpt lat="40.492086713162486" lon="9.137281167412912"><ele>330.25</ele><time>2026-04-26T09:47:33.582Z</time></trkpt><trkpt lat="40.49199232152874" lon="9.137240068952494"><ele>329.5</ele><time>2026-04-26T09:47:34.581Z</time></trkpt><trkpt lat="40.49189176711396" lon="9.137178564355064"><ele>328.75</ele><time>2026-04-26T09:47:35.581Z</time></trkpt><trkpt lat="40.49179293712892" lon="9.137097401351179"><ele>328.0</ele><time>2026-04-26T09:47:36.581Z</time></trkpt><trkpt lat="40.491692654278225" lon="9.136998510878986"><ele>328.0</ele><time>2026-04-26T09:47:37.581Z</time></trkpt><trkpt lat="40.49158605736214" lon="9.136868157214112"><ele>328.0</ele><time>2026-04-26T09:47:38.581Z</time></trkpt><trkpt lat="40.49147401077811" lon="9.136726233450727"><ele>328.0</ele><time>2026-04-26T09:47:39.581Z</time></trkpt><trkpt lat="40.49136313134168" lon="9.136568463436182"><ele>327.66666666666663</ele><time>2026-04-26T09:47:40.581Z</time></trkpt><trkpt lat="40.49124526752944" lon="9.136395567646412"><ele>327.3333333333333</ele><time>2026-04-26T09:47:41.581Z</time></trkpt><trkpt lat="40.491115826749116" lon="9.136222966521055"><ele>327.0</ele><time>2026-04-26T09:47:42.581Z</time></trkpt><trkpt lat="40.49097743998518" lon="9.136032482567003"><ele>327.0</ele><time>2026-04-26T09:47:43.581Z</time></trkpt><trkpt lat="40.490837128323044" lon="9.135831892944532"><ele>327.0</ele><time>2026-04-26T09:47:44.581Z</time></trkpt><trkpt lat="40.490692886849395" lon="9.135631677485748"><ele>327.0</ele><time>2026-04-26T09:47:45.581Z</time></trkpt><trkpt lat="40.49054240267006" lon="9.135425201560107"><ele>330.0</ele><time>2026-04-26T09:47:46.581Z</time></trkpt><trkpt lat="40.49036748927914" lon="9.135236864371794"><ele>333.0</ele><time>2026-04-26T09:47:47.581Z</time></trkpt><trkpt lat="40.490167825615266" lon="9.135077133061612"><ele>333.0</ele><time>2026-04-26T09:47:48.581Z</time></trkpt><trkpt lat="40.48996026127447" lon="9.134934049062593"><ele>333.0</ele><time>2026-04-26T09:47:49.582Z</time></trkpt><trkpt lat="40.48974973319382" lon="9.134801540873314"><ele>333.3333333333333</ele><time>2026-04-26T09:47:50.582Z</time></trkpt><trkpt lat="40.48954982185075" lon="9.13466423018177"><ele>333.66666666666663</ele><time>2026-04-26T09:47:51.582Z</time></trkpt><trkpt lat="40.48935734750389" lon="9.134529716775978"><ele>334.0</ele><time>2026-04-26T09:47:52.581Z</time></trkpt><trkpt lat="40.48917974449757" lon="9.13441918586278"><ele>334.0</ele><time>2026-04-26T09:47:53.581Z</time></trkpt><trkpt lat="40.48902567379454" lon="9.134310471358315"><ele>334.0</ele><time>2026-04-26T09:47:54.581Z</time></trkpt><trkpt lat="40.48888596579896" lon="9.134186378098493"><ele>334.0</ele><time>2026-04-26T09:47:55.582Z</time></trkpt><trkpt lat="40.48877590279606" lon="9.134059141004835"><ele>333.25</ele><time>2026-04-26T09:47:56.581Z</time></trkpt><trkpt lat="40.48868260974712" lon="9.133937219848779"><ele>332.5</ele><time>2026-04-26T09:47:57.581Z</time></trkpt><trkpt lat="40.48859761194653" lon="9.133814390035601"><ele>331.75</ele><time>2026-04-26T09:47:58.582Z</time></trkpt><trkpt lat="40.48851325608806" lon="9.133678829768828"><ele>331.0</ele><time>2026-04-26T09:47:59.581Z</time></trkpt><trkpt lat="40.48843511712562" lon="9.133528736117725"><ele>331.0</ele><time>2026-04-26T09:48:00.581Z</time></trkpt><trkpt lat="40.48835351797919" lon="9.13337561847167"><ele>331.0</ele><time>2026-04-26T09:48:01.582Z</time></trkpt><trkpt lat="40.48827498242117" lon="9.133225903515191"><ele>331.0</ele><time>2026-04-26T09:48:02.581Z</time></trkpt><trkpt lat="40.48820407458559" lon="9.133093345424255"><ele>331.0</ele><time>2026-04-26T09:48:03.581Z</time></trkpt><trkpt lat="40.48814350593668" lon="9.132969007457241"><ele>331.5</ele><time>2026-04-26T09:48:04.581Z</time></trkpt><trkpt lat="40.48807814252818" lon="9.132849392597706"><ele>332.0</ele><time>2026-04-26T09:48:05.581Z</time></trkpt><trkpt lat="40.48801100847223" lon="9.132717791542143"><ele>332.5</ele><time>2026-04-26T09:48:06.581Z</time></trkpt><trkpt lat="40.48793934301328" lon="9.132582512732382"><ele>333.0</ele><time>2026-04-26T09:48:07.581Z</time></trkpt><trkpt lat="40.48785998439473" lon="9.132441558669196"><ele>331.5</ele><time>2026-04-26T09:48:08.581Z</time></trkpt><trkpt lat="40.487779646852815" lon="9.132291405135563"><ele>330.0</ele><time>2026-04-26T09:48:09.581Z</time></trkpt><trkpt lat="40.48769784583879" lon="9.132138051977291"><ele>328.5</ele><time>2026-04-26T09:48:10.581Z</time></trkpt><trkpt lat="40.48761134664704" lon="9.131981077712924"><ele>327.0</ele><time>2026-04-26T09:48:11.581Z</time></trkpt><trkpt lat="40.487522898412635" lon="9.131824060074338"><ele>327.0</ele><time>2026-04-26T09:48:12.581Z</time></trkpt><trkpt lat="40.48743440450622" lon="9.131662423060616"><ele>327.0</ele><time>2026-04-26T09:48:13.581Z</time></trkpt><trkpt lat="40.487347283796154" lon="9.131499056379798"><ele>327.0</ele><time>2026-04-26T09:48:14.581Z</time></trkpt><trkpt lat="40.487263477075366" lon="9.131336517179403"><ele>326.75</ele><time>2026-04-26T09:48:15.581Z</time></trkpt><trkpt lat="40.48717700686725" lon="9.131175200391956"><ele>326.5</ele><time>2026-04-26T09:48:16.581Z</time></trkpt><trkpt lat="40.487089866135534" lon="9.131021070280257"><ele>326.25</ele><time>2026-04-26T09:48:17.581Z</time></trkpt><trkpt lat="40.48700690114617" lon="9.130867565670833"><ele>326.0</ele><time>2026-04-26T09:48:18.581Z</time></trkpt><trkpt lat="40.48692526007962" lon="9.13071523329523"><ele>326.0</ele><time>2026-04-26T09:48:19.581Z</time></trkpt><trkpt lat="40.48684381613793" lon="9.130562395521226"><ele>326.0</ele><time>2026-04-26T09:48:20.58Z</time></trkpt><trkpt lat="40.48676265051925" lon="9.130410291127925"><ele>326.0</ele><time>2026-04-26T09:48:21.58Z</time></trkpt><trkpt lat="40.486681718024485" lon="9.13025244242689"><ele>326.0</ele><time>2026-04-26T09:48:22.58Z</time></trkpt><trkpt lat="40.48660042778381" lon="9.13009012543736"><ele>326.0</ele><time>2026-04-26T09:48:23.58Z</time></trkpt><trkpt lat="40.48651490768437" lon="9.129926804946622"><ele>326.0</ele><time>2026-04-26T09:48:24.58Z</time></trkpt><trkpt lat="40.486424920291064" lon="9.129764764519589"><ele>326.0</ele><time>2026-04-26T09:48:25.58Z</time></trkpt><trkpt lat="40.4863386777584" lon="9.129608619812707"><ele>326.0</ele><time>2026-04-26T09:48:26.58Z</time></trkpt><trkpt lat="40.486255823105076" lon="9.12946313074527"><ele>326.0</ele><time>2026-04-26T09:48:27.58Z</time></trkpt><trkpt lat="40.48618399197221" lon="9.129318417489186"><ele>326.0</ele><time>2026-04-26T09:48:28.58Z</time></trkpt><trkpt lat="40.486108607831646" lon="9.129180872770782"><ele>326.0</ele><time>2026-04-26T09:48:29.58Z</time></trkpt><trkpt lat="40.48604082702161" lon="9.129058655831669"><ele>326.4</ele><time>2026-04-26T09:48:30.58Z</time></trkpt><trkpt lat="40.48597772203191" lon="9.12894235117247"><ele>326.8</ele><time>2026-04-26T09:48:31.58Z</time></trkpt><trkpt lat="40.48591584648895" lon="9.128825803206704"><ele>327.2</ele><time>2026-04-26T09:48:32.58Z</time></trkpt><trkpt lat="40.48585816883317" lon="9.128717194761633"><ele>327.59999999999997</ele><time>2026-04-26T09:48:33.58Z</time></trkpt><trkpt lat="40.485801005587476" lon="9.12861552365624"><ele>328.0</ele><time>2026-04-26T09:48:34.58Z</time></trkpt><trkpt lat="40.48573270937491" lon="9.12850308289444"><ele>328.0</ele><time>2026-04-26T09:48:35.58Z</time></trkpt><trkpt lat="40.48565366199764" lon="9.128372533588001"><ele>328.0</ele><time>2026-04-26T09:48:36.58Z</time></trkpt><trkpt lat="40.485568691893086" lon="9.128220248252484"><ele>328.0</ele><time>2026-04-26T09:48:37.58Z</time></trkpt><trkpt lat="40.485477585688365" lon="9.128047865839775"><ele>328.0</ele><time>2026-04-26T09:48:38.58Z</time></trkpt><trkpt lat="40.48538112598757" lon="9.12786183570093"><ele>326.3333333333333</ele><time>2026-04-26T09:48:39.58Z</time></trkpt><trkpt lat="40.48529080699384" lon="9.127687283140487"><ele>324.6666666666667</ele><time>2026-04-26T09:48:40.58Z</time></trkpt><trkpt lat="40.485191752463095" lon="9.127522067303444"><ele>323.0</ele><time>2026-04-26T09:48:41.58Z</time></trkpt><trkpt lat="40.485090371265045" lon="9.127371269783563"><ele>322.6666666666667</ele><time>2026-04-26T09:48:42.579Z</time></trkpt><trkpt lat="40.48496794022455" lon="9.12723466326508"><ele>322.3333333333333</ele><time>2026-04-26T09:48:43.579Z</time></trkpt><trkpt lat="40.48482371117023" lon="9.12713001450224"><ele>322.0</ele><time>2026-04-26T09:48:44.579Z</time></trkpt><trkpt lat="40.48467568637026" lon="9.127075693905052"><ele>320.5</ele><time>2026-04-26T09:48:45.579Z</time></trkpt><trkpt lat="40.4845327957508" lon="9.127033044682433"><ele>319.0</ele><time>2026-04-26T09:48:46.579Z</time></trkpt><trkpt lat="40.48439743965978" lon="9.127000580218024"><ele>317.5</ele><time>2026-04-26T09:48:47.579Z</time></trkpt><trkpt lat="40.48426488764768" lon="9.12694279388088"><ele>316.0</ele><time>2026-04-26T09:48:48.579Z</time></trkpt><trkpt lat="40.484149813289456" lon="9.126866380747442"><ele>316.0</ele><time>2026-04-26T09:48:49.579Z</time></trkpt><trkpt lat="40.484041534691976" lon="9.126772137817865"><ele>316.0</ele><time>2026-04-26T09:48:50.579Z</time></trkpt><trkpt lat="40.48394813560833" lon="9.126651197931377"><ele>316.0</ele><time>2026-04-26T09:48:51.579Z</time></trkpt><trkpt lat="40.48388013596502" lon="9.126509302850765"><ele>316.0</ele><time>2026-04-26T09:48:52.579Z</time></trkpt><trkpt lat="40.48382033944114" lon="9.1263440078164"><ele>315.0</ele><time>2026-04-26T09:48:53.579Z</time></trkpt><trkpt lat="40.48376385614478" lon="9.12616100816418"><ele>314.0</ele><time>2026-04-26T09:48:54.579Z</time></trkpt><trkpt lat="40.48370977419243" lon="9.125960528123969"><ele>313.0</ele><time>2026-04-26T09:48:55.579Z</time></trkpt><trkpt lat="40.483662548481966" lon="9.125756310532127"><ele>311.66666666666663</ele><time>2026-04-26T09:48:56.579Z</time></trkpt><trkpt lat="40.48361440583389" lon="9.125536866226618"><ele>310.3333333333333</ele><time>2026-04-26T09:48:57.579Z</time></trkpt><trkpt lat="40.483563369128525" lon="9.125318855446249"><ele>309.0</ele><time>2026-04-26T09:48:58.579Z</time></trkpt><trkpt lat="40.48351095170803" lon="9.125123641625047"><ele>309.0</ele><time>2026-04-26T09:48:59.579Z</time></trkpt><trkpt lat="40.48346030138915" lon="9.124945693050098"><ele>309.0</ele><time>2026-04-26T09:49:00.579Z</time></trkpt><trkpt lat="40.48341644210985" lon="9.124775698716405"><ele>309.0</ele><time>2026-04-26T09:49:01.579Z</time></trkpt><trkpt lat="40.48337365881888" lon="9.124607687685538"><ele>309.0</ele><time>2026-04-26T09:49:02.579Z</time></trkpt><trkpt lat="40.48333340871562" lon="9.124450380455357"><ele>308.75</ele><time>2026-04-26T09:49:03.579Z</time></trkpt><trkpt lat="40.48329367976502" lon="9.124294173313665"><ele>308.5</ele><time>2026-04-26T09:49:04.578Z</time></trkpt><trkpt lat="40.48325316734406" lon="9.124132675311603"><ele>308.25</ele><time>2026-04-26T09:49:05.578Z</time></trkpt><trkpt lat="40.483210636897276" lon="9.123968829680539"><ele>308.0</ele><time>2026-04-26T09:49:06.578Z</time></trkpt><trkpt lat="40.48316913884542" lon="9.123798823409567"><ele>308.25</ele><time>2026-04-26T09:49:07.578Z</time></trkpt><trkpt lat="40.48312762419958" lon="9.123625056238376"><ele>308.5</ele><time>2026-04-26T09:49:08.578Z</time></trkpt><trkpt lat="40.483080824053296" lon="9.123448700006879"><ele>308.75</ele><time>2026-04-26T09:49:09.578Z</time></trkpt><trkpt lat="40.483029625741246" lon="9.123269149798375"><ele>309.0</ele><time>2026-04-26T09:49:10.578Z</time></trkpt><trkpt lat="40.482970892102315" lon="9.123092504128998"><ele>308.5</ele><time>2026-04-26T09:49:11.578Z</time></trkpt><trkpt lat="40.4829006080403" lon="9.122921149689958"><ele>308.0</ele><time>2026-04-26T09:49:12.578Z</time></trkpt><trkpt lat="40.482818651272204" lon="9.122757520253781"><ele>307.5</ele><time>2026-04-26T09:49:13.578Z</time></trkpt><trkpt lat="40.48273112462616" lon="9.122600941165164"><ele>307.0</ele><time>2026-04-26T09:49:14.578Z</time></trkpt><trkpt lat="40.48264345253523" lon="9.122440597937077"><ele>308.5</ele><time>2026-04-26T09:49:15.578Z</time></trkpt><trkpt lat="40.48255823604928" lon="9.122279455942682"><ele>310.0</ele><time>2026-04-26T09:49:16.578Z</time></trkpt><trkpt lat="40.48247054338776" lon="9.122121816733879"><ele>311.5</ele><time>2026-04-26T09:49:17.578Z</time></trkpt><trkpt lat="40.48237853268505" lon="9.121966000823118"><ele>313.0</ele><time>2026-04-26T09:49:18.578Z</time></trkpt><trkpt lat="40.48229335114776" lon="9.121806641810963"><ele>313.0</ele><time>2026-04-26T09:49:19.578Z</time></trkpt><trkpt lat="40.48221208837696" lon="9.121650587731898"><ele>313.0</ele><time>2026-04-26T09:49:20.578Z</time></trkpt><trkpt lat="40.4821334455568" lon="9.121503724060942"><ele>313.0</ele><time>2026-04-26T09:49:21.578Z</time></trkpt><trkpt lat="40.48204982943334" lon="9.121380967410008"><ele>313.0</ele><time>2026-04-26T09:49:22.578Z</time></trkpt><trkpt lat="40.48195731839116" lon="9.121280319290486"><ele>312.6</ele><time>2026-04-26T09:49:23.578Z</time></trkpt><trkpt lat="40.48186937488662" lon="9.121195192888932"><ele>312.20000000000005</ele><time>2026-04-26T09:49:24.578Z</time></trkpt><trkpt lat="40.481777422701505" lon="9.121126507150946"><ele>311.8</ele><time>2026-04-26T09:49:25.578Z</time></trkpt><trkpt lat="40.48168791564703" lon="9.121074435012943"><ele>311.40000000000003</ele><time>2026-04-26T09:49:26.577Z</time></trkpt><trkpt lat="40.48160168670914" lon="9.121027482525031"><ele>311.0</ele><time>2026-04-26T09:49:27.577Z</time></trkpt><trkpt lat="40.48151841258753" lon="9.120985261026615"><ele>311.0</ele><time>2026-04-26T09:49:28.577Z</time></trkpt><trkpt lat="40.48143483325185" lon="9.12093804862639"><ele>311.0</ele><time>2026-04-26T09:49:29.577Z</time></trkpt><trkpt lat="40.48134406315218" lon="9.1208821418328"><ele>311.0</ele><time>2026-04-26T09:49:30.577Z</time></trkpt><trkpt lat="40.48124279362789" lon="9.120823913430264"><ele>311.0</ele><time>2026-04-26T09:49:31.577Z</time></trkpt><trkpt lat="40.48113210062526" lon="9.120761972869229"><ele>311.0</ele><time>2026-04-26T09:49:32.577Z</time></trkpt><trkpt lat="40.48101906156705" lon="9.120691071323227"><ele>310.25</ele><time>2026-04-26T09:49:33.577Z</time></trkpt><trkpt lat="40.480908806271145" lon="9.12060513539534"><ele>309.5</ele><time>2026-04-26T09:49:34.577Z</time></trkpt><trkpt lat="40.4808103321625" lon="9.120481604774174"><ele>308.75</ele><time>2026-04-26T09:49:35.577Z</time></trkpt><trkpt lat="40.4807343322913" lon="9.120327264976583"><ele>308.0</ele><time>2026-04-26T09:49:36.577Z</time></trkpt><trkpt lat="40.48067411146255" lon="9.120159445984672"><ele>308.0</ele><time>2026-04-26T09:49:37.577Z</time></trkpt><trkpt lat="40.48061332767714" lon="9.11999342265605"><ele>308.0</ele><time>2026-04-26T09:49:38.577Z</time></trkpt><trkpt lat="40.48054808754019" lon="9.11984160495438"><ele>308.0</ele><time>2026-04-26T09:49:39.577Z</time></trkpt><trkpt lat="40.480484384469115" lon="9.119693849923435"><ele>308.0</ele><time>2026-04-26T09:49:40.577Z</time></trkpt><trkpt lat="40.48042392266489" lon="9.11955232205859"><ele>308.6</ele><time>2026-04-26T09:49:41.577Z</time></trkpt><trkpt lat="40.48035780241508" lon="9.119417340178147"><ele>309.20000000000005</ele><time>2026-04-26T09:49:42.577Z</time></trkpt><trkpt lat="40.480306769886255" lon="9.119289845781969"><ele>309.8</ele><time>2026-04-26T09:49:43.577Z</time></trkpt><trkpt lat="40.48025739999291" lon="9.119167663427286"><ele>310.40000000000003</ele><time>2026-04-26T09:49:44.577Z</time></trkpt><trkpt lat="40.48021338069713" lon="9.119060428788607"><ele>311.0</ele><time>2026-04-26T09:49:45.577Z</time></trkpt><trkpt lat="40.48017389382245" lon="9.118955084666306"><ele>311.0</ele><time>2026-04-26T09:49:46.577Z</time></trkpt><trkpt lat="40.48013356365968" lon="9.118841509083211"><ele>311.0</ele><time>2026-04-26T09:49:47.576Z</time></trkpt><trkpt lat="40.480086716028275" lon="9.118717534801561"><ele>311.0</ele><time>2026-04-26T09:49:48.576Z</time></trkpt><trkpt lat="40.48004145566496" lon="9.118580286795813"><ele>311.0</ele><time>2026-04-26T09:49:49.576Z</time></trkpt><trkpt lat="40.47999485311048" lon="9.11842742643648"><ele>311.0</ele><time>2026-04-26T09:49:50.576Z</time></trkpt><trkpt lat="40.47994172114947" lon="9.118258022413254"><ele>310.0</ele><time>2026-04-26T09:49:51.576Z</time></trkpt><trkpt lat="40.479887123602076" lon="9.11808287458593"><ele>309.0</ele><time>2026-04-26T09:49:52.576Z</time></trkpt><trkpt lat="40.47982903523337" lon="9.11791674723383"><ele>308.0</ele><time>2026-04-26T09:49:53.576Z</time></trkpt><trkpt lat="40.479766841893046" lon="9.1177517047518"><ele>307.0</ele><time>2026-04-26T09:49:54.576Z</time></trkpt><trkpt lat="40.479696452997054" lon="9.11757759861371"><ele>307.0</ele><time>2026-04-26T09:49:55.577Z</time></trkpt><trkpt lat="40.47960926225166" lon="9.117402553334944"><ele>307.0</ele><time>2026-04-26T09:49:56.577Z</time></trkpt><trkpt lat="40.47951282320399" lon="9.117223138103245"><ele>307.0</ele><time>2026-04-26T09:49:57.577Z</time></trkpt><trkpt lat="40.479411941871724" lon="9.117046770632207"><ele>306.3333333333333</ele><time>2026-04-26T09:49:58.577Z</time></trkpt><trkpt lat="40.479315606284246" lon="9.11688578845438"><ele>305.6666666666667</ele><time>2026-04-26T09:49:59.576Z</time></trkpt><trkpt lat="40.47922639691501" lon="9.116720979014607"><ele>305.0</ele><time>2026-04-26T09:50:00.576Z</time></trkpt><trkpt lat="40.47914267677728" lon="9.116560652431106"><ele>304.5</ele><time>2026-04-26T09:50:01.577Z</time></trkpt><trkpt lat="40.47906457980155" lon="9.116411973431491"><ele>304.0</ele><time>2026-04-26T09:50:02.577Z</time></trkpt><trkpt lat="40.478992328854034" lon="9.116261426542643"><ele>303.5</ele><time>2026-04-26T09:50:03.577Z</time></trkpt><trkpt lat="40.47892537431374" lon="9.116118062315964"><ele>303.0</ele><time>2026-04-26T09:50:04.577Z</time></trkpt><trkpt lat="40.478863429543175" lon="9.115979316064376"><ele>303.0</ele><time>2026-04-26T09:50:05.577Z</time></trkpt><trkpt lat="40.47880562124581" lon="9.115841885018881"><ele>303.0</ele><time>2026-04-26T09:50:06.577Z</time></trkpt><trkpt lat="40.47875082694123" lon="9.115719003559876"><ele>303.0</ele><time>2026-04-26T09:50:07.577Z</time></trkpt><trkpt lat="40.47869542792399" lon="9.115600399786873"><ele>303.0</ele><time>2026-04-26T09:50:08.577Z</time></trkpt><trkpt lat="40.478635994294756" lon="9.115483180936286"><ele>303.0</ele><time>2026-04-26T09:50:09.576Z</time></trkpt><trkpt lat="40.478581374882474" lon="9.115360902726096"><ele>303.2</ele><time>2026-04-26T09:50:10.576Z</time></trkpt><trkpt lat="40.47852056797867" lon="9.115237840741829"><ele>303.4</ele><time>2026-04-26T09:50:11.576Z</time></trkpt><trkpt lat="40.47845777854125" lon="9.115116577119084"><ele>303.59999999999997</ele><time>2026-04-26T09:50:12.576Z</time></trkpt><trkpt lat="40.478389856902275" lon="9.114998484184559"><ele>303.8</ele><time>2026-04-26T09:50:13.576Z</time></trkpt><trkpt lat="40.4783185350845" lon="9.11488650104973"><ele>304.0</ele><time>2026-04-26T09:50:14.576Z</time></trkpt><trkpt lat="40.47824264760835" lon="9.114780930276233"><ele>304.0</ele><time>2026-04-26T09:50:15.576Z</time></trkpt><trkpt lat="40.478165501861625" lon="9.114678645218678"><ele>304.0</ele><time>2026-04-26T09:50:16.576Z</time></trkpt><trkpt lat="40.47808506280339" lon="9.114576416340647"><ele>304.0</ele><time>2026-04-26T09:50:17.576Z</time></trkpt><trkpt lat="40.4780016295513" lon="9.11447345442044"><ele>304.0</ele><time>2026-04-26T09:50:18.576Z</time></trkpt><trkpt lat="40.477919659892954" lon="9.114367328993218"><ele>304.5</ele><time>2026-04-26T09:50:19.576Z</time></trkpt><trkpt lat="40.47783748557915" lon="9.114258537664423"><ele>305.0</ele><time>2026-04-26T09:50:20.576Z</time></trkpt><trkpt lat="40.47775056512784" lon="9.114144432182512"><ele>305.5</ele><time>2026-04-26T09:50:21.576Z</time></trkpt><trkpt lat="40.47766324069695" lon="9.114038041155144"><ele>306.0</ele><time>2026-04-26T09:50:22.576Z</time></trkpt><trkpt lat="40.477575086954694" lon="9.113932628667863"><ele>307.5</ele><time>2026-04-26T09:50:23.576Z</time></trkpt><trkpt lat="40.47749070744632" lon="9.11382675015803"><ele>309.0</ele><time>2026-04-26T09:50:24.576Z</time></trkpt><trkpt lat="40.47740266822859" lon="9.113719680245813"><ele>310.5</ele><time>2026-04-26T09:50:25.576Z</time></trkpt><trkpt lat="40.47731312102934" lon="9.113610267926832"><ele>312.0</ele><time>2026-04-26T09:50:26.576Z</time></trkpt><trkpt lat="40.47722324471966" lon="9.113496872400582"><ele>312.0</ele><time>2026-04-26T09:50:27.576Z</time></trkpt><trkpt lat="40.477134954067076" lon="9.113381031208187"><ele>312.0</ele><time>2026-04-26T09:50:28.576Z</time></trkpt><trkpt lat="40.47704437983053" lon="9.113266230912147"><ele>312.0</ele><time>2026-04-26T09:50:29.576Z</time></trkpt><trkpt lat="40.47695238167991" lon="9.113148878717274"><ele>312.0</ele><time>2026-04-26T09:50:30.576Z</time></trkpt><trkpt lat="40.47686226471357" lon="9.113030693735114"><ele>312.5</ele><time>2026-04-26T09:50:31.575Z</time></trkpt><trkpt lat="40.47676997910057" lon="9.112913773269012"><ele>313.0</ele><time>2026-04-26T09:50:32.575Z</time></trkpt><trkpt lat="40.47667625742182" lon="9.112797550968404"><ele>313.5</ele><time>2026-04-26T09:50:33.575Z</time></trkpt><trkpt lat="40.47658207582978" lon="9.112675913813385"><ele>314.0</ele><time>2026-04-26T09:50:34.575Z</time></trkpt><trkpt lat="40.47648314648239" lon="9.112557044185603"><ele>314.0</ele><time>2026-04-26T09:50:35.575Z</time></trkpt><trkpt lat="40.47638372872176" lon="9.112426919705605"><ele>314.0</ele><time>2026-04-26T09:50:36.575Z</time></trkpt><trkpt lat="40.476283722700465" lon="9.112302316288499"><ele>314.0</ele><time>2026-04-26T09:50:37.575Z</time></trkpt><trkpt lat="40.47618358649796" lon="9.1121763060702"><ele>314.0</ele><time>2026-04-26T09:50:38.575Z</time></trkpt><trkpt lat="40.47608508166701" lon="9.112049375232244"><ele>310.0</ele><time>2026-04-26T09:50:39.575Z</time></trkpt><trkpt lat="40.47598672506594" lon="9.111922949198844"><ele>306.0</ele><time>2026-04-26T09:50:40.575Z</time></trkpt><trkpt lat="40.475484786871014" lon="9.111270860313706"><ele>306.3333333333333</ele><time>2026-04-26T09:50:45.575Z</time></trkpt><trkpt lat="40.47527768938869" lon="9.111004817197351"><ele>306.66666666666663</ele><time>2026-04-26T09:50:47.575Z</time></trkpt><trkpt lat="40.475169928264656" lon="9.110874524894822"><ele>307.0</ele><time>2026-04-26T09:50:48.575Z</time></trkpt><trkpt lat="40.47505749702529" lon="9.110759760692554"><ele>306.75</ele><time>2026-04-26T09:50:49.575Z</time></trkpt><trkpt lat="40.47493833592287" lon="9.110652910554814"><ele>306.5</ele><time>2026-04-26T09:50:50.575Z</time></trkpt><trkpt lat="40.474814872754145" lon="9.110557681162105"><ele>306.25</ele><time>2026-04-26T09:50:51.575Z</time></trkpt><trkpt lat="40.4746904893199" lon="9.110486704969787"><ele>306.0</ele><time>2026-04-26T09:50:52.575Z</time></trkpt><trkpt lat="40.47457273946935" lon="9.110429081272871"><ele>306.0</ele><time>2026-04-26T09:50:53.574Z</time></trkpt><trkpt lat="40.47445990405218" lon="9.110372282028488"><ele>306.0</ele><time>2026-04-26T09:50:54.574Z</time></trkpt><trkpt lat="40.474352851828016" lon="9.110315903123311"><ele>306.0</ele><time>2026-04-26T09:50:55.574Z</time></trkpt><trkpt lat="40.47425552678605" lon="9.110266962909309"><ele>306.0</ele><time>2026-04-26T09:50:56.574Z</time></trkpt><trkpt lat="40.47417515093704" lon="9.110225366294193"><ele>306.0</ele><time>2026-04-26T09:50:57.574Z</time></trkpt><trkpt lat="40.47411154452152" lon="9.110191466243712"><ele>306.0</ele><time>2026-04-26T09:50:58.574Z</time></trkpt><trkpt lat="40.47400907665674" lon="9.110144586244507"><ele>306.0</ele><time>2026-04-26T09:51:00.574Z</time></trkpt><trkpt lat="40.47392562763827" lon="9.110111100130933"><ele>306.0</ele><time>2026-04-26T09:51:02.574Z</time></trkpt><trkpt lat="40.47386536083224" lon="9.110083346646016"><ele>306.0</ele><time>2026-04-26T09:51:04.574Z</time></trkpt><trkpt lat="40.473777270469945" lon="9.110057401688103"><ele>306.0</ele><time>2026-04-26T09:51:57.572Z</time></trkpt><trkpt lat="40.47380174279552" lon="9.110150617274504"><ele>306.0</ele><time>2026-04-26T09:52:03.572Z</time></trkpt><trkpt lat="40.47392958155294" lon="9.110186195239466"><ele>306.0</ele><time>2026-04-26T09:52:05.572Z</time></trkpt><trkpt lat="40.47400278580184" lon="9.110219651152509"><ele>306.0</ele><time>2026-04-26T09:52:06.572Z</time></trkpt><trkpt lat="40.474087531451964" lon="9.110258287731924"><ele>306.0</ele><time>2026-04-26T09:52:07.572Z</time></trkpt><trkpt lat="40.47418026335954" lon="9.11030658774287"><ele>306.0</ele><time>2026-04-26T09:52:08.572Z</time></trkpt><trkpt lat="40.47428108120415" lon="9.110357140292717"><ele>306.0</ele><time>2026-04-26T09:52:09.572Z</time></trkpt><trkpt lat="40.474386681924" lon="9.110403766832189"><ele>306.0</ele><time>2026-04-26T09:52:10.572Z</time></trkpt><trkpt lat="40.47449420178135" lon="9.1104543557225"><ele>306.0</ele><time>2026-04-26T09:52:11.571Z</time></trkpt><trkpt lat="40.47460368188904" lon="9.110508772807073"><ele>306.0</ele><time>2026-04-26T09:52:12.571Z</time></trkpt><trkpt lat="40.47471648762495" lon="9.110568978550447"><ele>306.0</ele><time>2026-04-26T09:52:13.571Z</time></trkpt><trkpt lat="40.47482931767066" lon="9.110623867240106"><ele>306.25</ele><time>2026-04-26T09:52:14.571Z</time></trkpt><trkpt lat="40.474938613991945" lon="9.110696399209736"><ele>306.5</ele><time>2026-04-26T09:52:15.571Z</time></trkpt><trkpt lat="40.47503872343916" lon="9.110792715740317"><ele>306.75</ele><time>2026-04-26T09:52:16.571Z</time></trkpt><trkpt lat="40.47512824153826" lon="9.110900932501345"><ele>307.0</ele><time>2026-04-26T09:52:17.571Z</time></trkpt><trkpt lat="40.47521908692676" lon="9.111005276533717"><ele>307.0</ele><time>2026-04-26T09:52:18.571Z</time></trkpt><trkpt lat="40.47531388047776" lon="9.11110865671016"><ele>307.0</ele><time>2026-04-26T09:52:19.571Z</time></trkpt><trkpt lat="40.47539964484136" lon="9.111220794953656"><ele>307.0</ele><time>2026-04-26T09:52:20.571Z</time></trkpt><trkpt lat="40.4754877202117" lon="9.111331316285584"><ele>307.0</ele><time>2026-04-26T09:52:21.571Z</time></trkpt><trkpt lat="40.47558046431507" lon="9.111441857010654"><ele>306.75</ele><time>2026-04-26T09:52:22.571Z</time></trkpt><trkpt lat="40.47567345269072" lon="9.111548958971568"><ele>306.5</ele><time>2026-04-26T09:52:23.571Z</time></trkpt><trkpt lat="40.47576288503526" lon="9.111652616384937"><ele>306.25</ele><time>2026-04-26T09:52:24.571Z</time></trkpt><trkpt lat="40.475848102956896" lon="9.111762390642218"><ele>306.0</ele><time>2026-04-26T09:52:25.571Z</time></trkpt><trkpt lat="40.475933363694224" lon="9.111875618057718"><ele>305.75</ele><time>2026-04-26T09:52:26.571Z</time></trkpt><trkpt lat="40.476021187509986" lon="9.111988631381774"><ele>305.5</ele><time>2026-04-26T09:52:27.571Z</time></trkpt><trkpt lat="40.47610905736941" lon="9.112096430820413"><ele>305.25</ele><time>2026-04-26T09:52:28.571Z</time></trkpt><trkpt lat="40.47619835295165" lon="9.112207956160727"><ele>305.0</ele><time>2026-04-26T09:52:29.571Z</time></trkpt><trkpt lat="40.4762891375528" lon="9.11232044192389"><ele>307.25</ele><time>2026-04-26T09:52:30.571Z</time></trkpt><trkpt lat="40.476379571138025" lon="9.11243783324411"><ele>309.5</ele><time>2026-04-26T09:52:31.571Z</time></trkpt><trkpt lat="40.4764697045376" lon="9.112557825774328"><ele>311.75</ele><time>2026-04-26T09:52:32.571Z</time></trkpt><trkpt lat="40.47656346939193" lon="9.112679731108527"><ele>314.0</ele><time>2026-04-26T09:52:33.571Z</time></trkpt><trkpt lat="40.476755793245445" lon="9.112925824926798"><ele>314.0</ele><time>2026-04-26T09:52:35.571Z</time></trkpt><trkpt lat="40.47685375262647" lon="9.113051428367047"><ele>314.0</ele><time>2026-04-26T09:52:36.57Z</time></trkpt><trkpt lat="40.476954062966726" lon="9.11317188396154"><ele>314.0</ele><time>2026-04-26T09:52:37.57Z</time></trkpt><trkpt lat="40.47705388365126" lon="9.113303501729458"><ele>314.0</ele><time>2026-04-26T09:52:38.57Z</time></trkpt><trkpt lat="40.47715740517602" lon="9.113437682768039"><ele>313.33333333333337</ele><time>2026-04-26T09:52:39.57Z</time></trkpt><trkpt lat="40.477265413709375" lon="9.1135717322392"><ele>312.6666666666667</ele><time>2026-04-26T09:52:40.57Z</time></trkpt><trkpt lat="40.477378965793655" lon="9.113708364208701"><ele>312.0</ele><time>2026-04-26T09:52:41.57Z</time></trkpt><trkpt lat="40.47749120828289" lon="9.113854391212904"><ele>312.0</ele><time>2026-04-26T09:52:42.57Z</time></trkpt><trkpt lat="40.47760556096123" lon="9.114003715204408"><ele>312.0</ele><time>2026-04-26T09:52:43.57Z</time></trkpt><trkpt lat="40.477724854384185" lon="9.114149767675647"><ele>312.0</ele><time>2026-04-26T09:52:44.57Z</time></trkpt><trkpt lat="40.47784447630845" lon="9.114304024648273"><ele>309.3333333333333</ele><time>2026-04-26T09:52:45.57Z</time></trkpt><trkpt lat="40.47796944971678" lon="9.114461260594103"><ele>306.66666666666663</ele><time>2026-04-26T09:52:46.57Z</time></trkpt><trkpt lat="40.47809051369989" lon="9.114616559116255"><ele>304.0</ele><time>2026-04-26T09:52:47.57Z</time></trkpt><trkpt lat="40.47821351942059" lon="9.114777090489808"><ele>303.0</ele><time>2026-04-26T09:52:48.57Z</time></trkpt><trkpt lat="40.47833177064489" lon="9.114943544154244"><ele>302.0</ele><time>2026-04-26T09:52:49.57Z</time></trkpt><trkpt lat="40.47844024016349" lon="9.115116734313402"><ele>301.0</ele><time>2026-04-26T09:52:50.57Z</time></trkpt><trkpt lat="40.478530750726364" lon="9.115298768500118"><ele>301.0</ele><time>2026-04-26T09:52:51.57Z</time></trkpt><trkpt lat="40.478616147089895" lon="9.115484337967299"><ele>301.0</ele><time>2026-04-26T09:52:52.57Z</time></trkpt><trkpt lat="40.478698882479016" lon="9.115669025089128"><ele>301.0</ele><time>2026-04-26T09:52:53.57Z</time></trkpt><trkpt lat="40.47878391641311" lon="9.1158539202692"><ele>301.66666666666663</ele><time>2026-04-26T09:52:54.57Z</time></trkpt><trkpt lat="40.47886909993018" lon="9.11603617392996"><ele>302.3333333333333</ele><time>2026-04-26T09:52:55.57Z</time></trkpt><trkpt lat="40.478954271740534" lon="9.116216588022798"><ele>303.0</ele><time>2026-04-26T09:52:56.57Z</time></trkpt><trkpt lat="40.47904018979418" lon="9.116393468545564"><ele>303.0</ele><time>2026-04-26T09:52:57.57Z</time></trkpt><trkpt lat="40.47913064131405" lon="9.116561291319105"><ele>303.0</ele><time>2026-04-26T09:52:58.569Z</time></trkpt><trkpt lat="40.47922186910926" lon="9.116723673915551"><ele>303.0</ele><time>2026-04-26T09:52:59.569Z</time></trkpt><trkpt lat="40.479313975869495" lon="9.116884571775342"><ele>303.5</ele><time>2026-04-26T09:53:00.569Z</time></trkpt><trkpt lat="40.479403513419705" lon="9.117042898012269"><ele>304.0</ele><time>2026-04-26T09:53:01.569Z</time></trkpt><trkpt lat="40.47949235407419" lon="9.117197812314808"><ele>304.5</ele><time>2026-04-26T09:53:02.569Z</time></trkpt><trkpt lat="40.479573755283084" lon="9.117351568980286"><ele>305.0</ele><time>2026-04-26T09:53:03.569Z</time></trkpt><trkpt lat="40.479650443288456" lon="9.11750030556096"><ele>305.5</ele><time>2026-04-26T09:53:04.569Z</time></trkpt><trkpt lat="40.47971882507802" lon="9.117658411809998"><ele>306.0</ele><time>2026-04-26T09:53:05.569Z</time></trkpt><trkpt lat="40.47977585284778" lon="9.117823815660369"><ele>306.5</ele><time>2026-04-26T09:53:06.569Z</time></trkpt><trkpt lat="40.47982812145362" lon="9.117992318257706"><ele>307.0</ele><time>2026-04-26T09:53:07.569Z</time></trkpt><trkpt lat="40.47988075059031" lon="9.118148739577299"><ele>308.0</ele><time>2026-04-26T09:53:08.569Z</time></trkpt><trkpt lat="40.47993079218109" lon="9.118304230165814"><ele>309.0</ele><time>2026-04-26T09:53:09.569Z</time></trkpt><trkpt lat="40.47997905751328" lon="9.118457419530879"><ele>310.0</ele><time>2026-04-26T09:53:10.569Z</time></trkpt><trkpt lat="40.48003464905334" lon="9.118613760322337"><ele>311.0</ele><time>2026-04-26T09:53:11.569Z</time></trkpt><trkpt lat="40.480092408898805" lon="9.11877423390749"><ele>311.0</ele><time>2026-04-26T09:53:12.569Z</time></trkpt><trkpt lat="40.480149616614874" lon="9.118939600805376"><ele>311.0</ele><time>2026-04-26T09:53:13.569Z</time></trkpt><trkpt lat="40.480214450359185" lon="9.119106144625887"><ele>311.0</ele><time>2026-04-26T09:53:14.569Z</time></trkpt><trkpt lat="40.480288737828054" lon="9.119277973176121"><ele>311.0</ele><time>2026-04-26T09:53:15.569Z</time></trkpt><trkpt lat="40.48036278670242" lon="9.119459930707293"><ele>311.0</ele><time>2026-04-26T09:53:16.569Z</time></trkpt><trkpt lat="40.480438576060045" lon="9.119639785649998"><ele>311.0</ele><time>2026-04-26T09:53:17.569Z</time></trkpt><trkpt lat="40.48051889868802" lon="9.11984098657764"><ele>311.0</ele><time>2026-04-26T09:53:18.569Z</time></trkpt><trkpt lat="40.48059766767107" lon="9.120037731653763"><ele>310.0</ele><time>2026-04-26T09:53:19.568Z</time></trkpt><trkpt lat="40.480681562715986" lon="9.120232629663255"><ele>309.0</ele><time>2026-04-26T09:53:20.568Z</time></trkpt><trkpt lat="40.48077198100879" lon="9.120424562097408"><ele>308.0</ele><time>2026-04-26T09:53:21.568Z</time></trkpt><trkpt lat="40.48088464522258" lon="9.120590586690072"><ele>308.0</ele><time>2026-04-26T09:53:22.568Z</time></trkpt><trkpt lat="40.48102874753126" lon="9.120720508826906"><ele>308.0</ele><time>2026-04-26T09:53:23.568Z</time></trkpt><trkpt lat="40.481195036498484" lon="9.120811822796417"><ele>308.0</ele><time>2026-04-26T09:53:24.568Z</time></trkpt><trkpt lat="40.48135951241914" lon="9.120881437199786"><ele>309.0</ele><time>2026-04-26T09:53:25.568Z</time></trkpt><trkpt lat="40.481523397484786" lon="9.120971532032726"><ele>310.0</ele><time>2026-04-26T09:53:26.568Z</time></trkpt><trkpt lat="40.48169488672157" lon="9.121071036490811"><ele>311.0</ele><time>2026-04-26T09:53:27.568Z</time></trkpt><trkpt lat="40.481868112942834" lon="9.121162620535362"><ele>311.0</ele><time>2026-04-26T09:53:28.568Z</time></trkpt><trkpt lat="40.48199107759791" lon="9.121279901829496"><ele>311.0</ele><time>2026-04-26T09:53:29.568Z</time></trkpt><trkpt lat="40.48210153594762" lon="9.121421570738505"><ele>311.0</ele><time>2026-04-26T09:53:30.568Z</time></trkpt><trkpt lat="40.48220919696415" lon="9.121595858343635"><ele>311.6666666666667</ele><time>2026-04-26T09:53:31.568Z</time></trkpt><trkpt lat="40.48230841339798" lon="9.121785030377627"><ele>312.3333333333333</ele><time>2026-04-26T09:53:32.568Z</time></trkpt><trkpt lat="40.48240590324255" lon="9.121987868407418"><ele>313.0</ele><time>2026-04-26T09:53:33.568Z</time></trkpt><trkpt lat="40.48250533232478" lon="9.122191569092235"><ele>313.0</ele><time>2026-04-26T09:53:34.568Z</time></trkpt><trkpt lat="40.482618366933444" lon="9.122397431609764"><ele>313.0</ele><time>2026-04-26T09:53:35.568Z</time></trkpt><trkpt lat="40.482731130337015" lon="9.12261095318968"><ele>313.0</ele><time>2026-04-26T09:53:36.568Z</time></trkpt><trkpt lat="40.48283883976337" lon="9.122832970262982"><ele>311.66666666666663</ele><time>2026-04-26T09:53:37.568Z</time></trkpt><trkpt lat="40.482936336599266" lon="9.123065463263066"><ele>310.3333333333333</ele><time>2026-04-26T09:53:38.568Z</time></trkpt><trkpt lat="40.483008198381455" lon="9.123296726603439"><ele>309.0</ele><time>2026-04-26T09:53:39.568Z</time></trkpt><trkpt lat="40.4830729715841" lon="9.123550328082763"><ele>308.6666666666667</ele><time>2026-04-26T09:53:40.568Z</time></trkpt><trkpt lat="40.48313795509424" lon="9.123813914961447"><ele>308.33333333333337</ele><time>2026-04-26T09:53:41.567Z</time></trkpt><trkpt lat="40.48320588540423" lon="9.124079696496253"><ele>308.0</ele><time>2026-04-26T09:53:42.567Z</time></trkpt><trkpt lat="40.48328445501413" lon="9.124344421183753"><ele>308.0</ele><time>2026-04-26T09:53:43.567Z</time></trkpt><trkpt lat="40.48336520996153" lon="9.124614483783281"><ele>308.0</ele><time>2026-04-26T09:53:44.567Z</time></trkpt><trkpt lat="40.483445268254805" lon="9.124890878098839"><ele>308.0</ele><time>2026-04-26T09:53:45.567Z</time></trkpt><trkpt lat="40.48351921371362" lon="9.12516669623001"><ele>308.33333333333337</ele><time>2026-04-26T09:53:46.567Z</time></trkpt><trkpt lat="40.48358470913515" lon="9.125447316575167"><ele>308.6666666666667</ele><time>2026-04-26T09:53:47.567Z</time></trkpt><trkpt lat="40.483644668735494" lon="9.125729160035286"><ele>309.0</ele><time>2026-04-26T09:53:48.567Z</time></trkpt><trkpt lat="40.48371549624698" lon="9.12600409876399"><ele>310.3333333333333</ele><time>2026-04-26T09:53:49.567Z</time></trkpt><trkpt lat="40.483785405293936" lon="9.126262194270412"><ele>311.66666666666663</ele><time>2026-04-26T09:53:50.567Z</time></trkpt><trkpt lat="40.48385660313603" lon="9.126484384984277"><ele>313.0</ele><time>2026-04-26T09:53:51.567Z</time></trkpt><trkpt lat="40.48394619516341" lon="9.126678119915265"><ele>313.6</ele><time>2026-04-26T09:53:52.567Z</time></trkpt><trkpt lat="40.48404678593465" lon="9.126821078866934"><ele>314.20000000000005</ele><time>2026-04-26T09:53:53.567Z</time></trkpt><trkpt lat="40.48414946928592" lon="9.12691244184331"><ele>314.8</ele><time>2026-04-26T09:53:54.567Z</time></trkpt><trkpt lat="40.48421106431821" lon="9.126977230677836"><ele>315.40000000000003</ele><time>2026-04-26T09:53:55.567Z</time></trkpt><trkpt lat="40.48420163265636" lon="9.127067306872886"><ele>316.0</ele><time>2026-04-26T09:53:57.567Z</time></trkpt><trkpt lat="40.484102495892586" lon="9.127125925158754"><ele>316.0</ele><time>2026-04-26T09:53:59.567Z</time></trkpt><trkpt lat="40.48402983877961" lon="9.127142005514107"><ele>316.0</ele><time>2026-04-26T09:54:00.567Z</time></trkpt><trkpt lat="40.48394578146275" lon="9.12716730210375"><ele>316.0</ele><time>2026-04-26T09:54:01.567Z</time></trkpt><trkpt lat="40.48384744799262" lon="9.127178870754186"><ele>316.0</ele><time>2026-04-26T09:54:02.567Z</time></trkpt><trkpt lat="40.483747240212125" lon="9.12717318614929"><ele>316.0</ele><time>2026-04-26T09:54:03.566Z</time></trkpt><trkpt lat="40.483644812421524" lon="9.127141150311434"><ele>315.75</ele><time>2026-04-26T09:54:04.566Z</time></trkpt><trkpt lat="40.48353018678454" lon="9.12707932628355"><ele>315.5</ele><time>2026-04-26T09:54:05.566Z</time></trkpt><trkpt lat="40.48341593924651" lon="9.127008107611301"><ele>315.25</ele><time>2026-04-26T09:54:06.566Z</time></trkpt><trkpt lat="40.48328627737013" lon="9.126937775125567"><ele>315.0</ele><time>2026-04-26T09:54:07.568Z</time></trkpt><trkpt lat="40.483158812386044" lon="9.126875272229436"><ele>315.0</ele><time>2026-04-26T09:54:08.567Z</time></trkpt><trkpt lat="40.483037573750885" lon="9.126823812324155"><ele>315.0</ele><time>2026-04-26T09:54:09.567Z</time></trkpt><trkpt lat="40.482908675362395" lon="9.126769809924744"><ele>315.0</ele><time>2026-04-26T09:54:10.568Z</time></trkpt><trkpt lat="40.48278631827149" lon="9.126695050009376"><ele>315.0</ele><time>2026-04-26T09:54:11.567Z</time></trkpt><trkpt lat="40.48265351114422" lon="9.126629357400326"><ele>314.0</ele><time>2026-04-26T09:54:12.567Z</time></trkpt><trkpt lat="40.48250867299914" lon="9.126577362058281"><ele>313.0</ele><time>2026-04-26T09:54:13.567Z</time></trkpt><trkpt lat="40.48236695225233" lon="9.126507097168153"><ele>312.0</ele><time>2026-04-26T09:54:14.567Z</time></trkpt><trkpt lat="40.48222743199143" lon="9.12641148393548"><ele>311.75</ele><time>2026-04-26T09:54:15.567Z</time></trkpt><trkpt lat="40.48208525361578" lon="9.126369392133704"><ele>311.5</ele><time>2026-04-26T09:54:16.567Z</time></trkpt><trkpt lat="40.481952376823585" lon="9.12631536541186"><ele>311.25</ele><time>2026-04-26T09:54:17.567Z</time></trkpt><trkpt lat="40.481808419153644" lon="9.126288986941304"><ele>311.0</ele><time>2026-04-26T09:54:18.567Z</time></trkpt><trkpt lat="40.48166578450408" lon="9.12631982581546"><ele>311.0</ele><time>2026-04-26T09:54:19.566Z</time></trkpt><trkpt lat="40.48152603916117" lon="9.126381100359946"><ele>311.0</ele><time>2026-04-26T09:54:20.566Z</time></trkpt><trkpt lat="40.481404674265036" lon="9.126456794309846"><ele>311.0</ele><time>2026-04-26T09:54:21.566Z</time></trkpt><trkpt lat="40.481320786174976" lon="9.126535479523678"><ele>311.0</ele><time>2026-04-26T09:54:22.566Z</time></trkpt><trkpt lat="40.481241408895755" lon="9.126602950758077"><ele>310.0</ele><time>2026-04-26T09:54:23.566Z</time></trkpt><trkpt lat="40.48118143071355" lon="9.126653946384645"><ele>309.0</ele><time>2026-04-26T09:54:24.566Z</time></trkpt><trkpt lat="40.481104423700415" lon="9.126719276320806"><ele>308.0</ele><time>2026-04-26T09:54:26.566Z</time></trkpt><trkpt lat="40.481028487895216" lon="9.126767929925824"><ele>307.0</ele><time>2026-04-26T09:54:30.566Z</time></trkpt><trkpt lat="40.480950483822845" lon="9.126841824470501"><ele>306.0</ele><time>2026-04-26T09:54:33.566Z</time></trkpt><trkpt lat="40.480883315926796" lon="9.126905358572428"><ele>305.0</ele><time>2026-04-26T09:56:09.561Z</time></trkpt><trkpt lat="40.48080500667643" lon="9.12698001664157"><ele>305.0</ele><time>2026-04-26T09:56:11.561Z</time></trkpt><trkpt lat="40.480693081152765" lon="9.127070146734514"><ele>305.0</ele><time>2026-04-26T09:56:13.562Z</time></trkpt><trkpt lat="40.480627146322966" lon="9.127122257809006"><ele>305.0</ele><time>2026-04-26T09:56:14.562Z</time></trkpt><trkpt lat="40.48055792469459" lon="9.127180583507274"><ele>305.0</ele><time>2026-04-26T09:56:15.562Z</time></trkpt><trkpt lat="40.48048087439059" lon="9.12724147554311"><ele>305.0</ele><time>2026-04-26T09:56:16.561Z</time></trkpt><trkpt lat="40.48039314501944" lon="9.127304572540286"><ele>304.0</ele><time>2026-04-26T09:56:17.562Z</time></trkpt><trkpt lat="40.480303475182616" lon="9.12735539808306"><ele>303.0</ele><time>2026-04-26T09:56:18.562Z</time></trkpt><trkpt lat="40.48020333358451" lon="9.12740051984765"><ele>302.0</ele><time>2026-04-26T09:56:19.562Z</time></trkpt><trkpt lat="40.48009507812539" lon="9.127430192634407"><ele>301.0</ele><time>2026-04-26T09:56:20.561Z</time></trkpt><trkpt lat="40.47998862542806" lon="9.127468029632164"><ele>300.0</ele><time>2026-04-26T09:56:21.561Z</time></trkpt><trkpt lat="40.479882217836035" lon="9.127517341474812"><ele>298.75</ele><time>2026-04-26T09:56:22.562Z</time></trkpt><trkpt lat="40.47977789554169" lon="9.127581088677767"><ele>297.5</ele><time>2026-04-26T09:56:23.562Z</time></trkpt><trkpt lat="40.47967994609765" lon="9.127666987759625"><ele>296.25</ele><time>2026-04-26T09:56:24.562Z</time></trkpt><trkpt lat="40.479591456206705" lon="9.127767529638456"><ele>295.0</ele><time>2026-04-26T09:56:25.561Z</time></trkpt><trkpt lat="40.479494369687586" lon="9.127865398251648"><ele>294.25</ele><time>2026-04-26T09:56:26.561Z</time></trkpt><trkpt lat="40.47938487514198" lon="9.127946328495304"><ele>293.5</ele><time>2026-04-26T09:56:27.561Z</time></trkpt><trkpt lat="40.479283754519074" lon="9.128044696320998"><ele>292.75</ele><time>2026-04-26T09:56:28.561Z</time></trkpt><trkpt lat="40.4791961140013" lon="9.128155280017456"><ele>292.0</ele><time>2026-04-26T09:56:29.561Z</time></trkpt><trkpt lat="40.479086237978635" lon="9.128253948378058"><ele>291.25</ele><time>2026-04-26T09:56:30.561Z</time></trkpt><trkpt lat="40.47898277095555" lon="9.12834847450024"><ele>290.5</ele><time>2026-04-26T09:56:31.561Z</time></trkpt><trkpt lat="40.47888029039843" lon="9.12843370770213"><ele>289.75</ele><time>2026-04-26T09:56:32.561Z</time></trkpt><trkpt lat="40.47876284132832" lon="9.12846201039275"><ele>289.0</ele><time>2026-04-26T09:56:33.561Z</time></trkpt><trkpt lat="40.478649424140066" lon="9.128463383547777"><ele>288.5</ele><time>2026-04-26T09:56:34.561Z</time></trkpt><trkpt lat="40.47852240781741" lon="9.128452507519365"><ele>288.0</ele><time>2026-04-26T09:56:35.561Z</time></trkpt><trkpt lat="40.47838249256797" lon="9.12842364708074"><ele>287.5</ele><time>2026-04-26T09:56:36.56Z</time></trkpt><trkpt lat="40.47824637423678" lon="9.128367664005394"><ele>287.0</ele><time>2026-04-26T09:56:37.56Z</time></trkpt><trkpt lat="40.478113533058185" lon="9.128288347898442"><ele>287.0</ele><time>2026-04-26T09:56:38.56Z</time></trkpt><trkpt lat="40.477968360444585" lon="9.128227011141524"><ele>287.0</ele><time>2026-04-26T09:56:39.56Z</time></trkpt><trkpt lat="40.47779931991177" lon="9.128248158710399"><ele>287.0</ele><time>2026-04-26T09:56:40.56Z</time></trkpt><trkpt lat="40.477647012485114" lon="9.128209750673536"><ele>286.0</ele><time>2026-04-26T09:56:41.56Z</time></trkpt><trkpt lat="40.47748294160387" lon="9.128204739124067"><ele>285.0</ele><time>2026-04-26T09:56:42.56Z</time></trkpt><trkpt lat="40.47731558708296" lon="9.128243141474222"><ele>284.0</ele><time>2026-04-26T09:56:43.56Z</time></trkpt><trkpt lat="40.477143238438835" lon="9.128307342361458"><ele>281.0</ele><time>2026-04-26T09:56:44.56Z</time></trkpt><trkpt lat="40.476984432391724" lon="9.128390432512242"><ele>278.0</ele><time>2026-04-26T09:56:45.56Z</time></trkpt><trkpt lat="40.476826876487834" lon="9.128479334547558"><ele>275.0</ele><time>2026-04-26T09:56:46.56Z</time></trkpt><trkpt lat="40.47666593751841" lon="9.12855767732905"><ele>275.0</ele><time>2026-04-26T09:56:47.56Z</time></trkpt><trkpt lat="40.47650359259385" lon="9.128631871250388"><ele>275.0</ele><time>2026-04-26T09:56:48.56Z</time></trkpt><trkpt lat="40.476346107244" lon="9.128705220568394"><ele>275.0</ele><time>2026-04-26T09:56:49.56Z</time></trkpt><trkpt lat="40.47619159227239" lon="9.128776979674292"><ele>274.6666666666667</ele><time>2026-04-26T09:56:50.56Z</time></trkpt><trkpt lat="40.476048253629486" lon="9.128855844096003"><ele>274.3333333333333</ele><time>2026-04-26T09:56:51.56Z</time></trkpt><trkpt lat="40.475915829686244" lon="9.128963197480461"><ele>274.0</ele><time>2026-04-26T09:56:52.56Z</time></trkpt><trkpt lat="40.475797543009726" lon="9.129101278823562"><ele>276.0</ele><time>2026-04-26T09:56:53.56Z</time></trkpt><trkpt lat="40.475704179813036" lon="9.129270056341124"><ele>278.0</ele><time>2026-04-26T09:56:54.56Z</time></trkpt><trkpt lat="40.47562473698278" lon="9.129459392331864"><ele>280.0</ele><time>2026-04-26T09:56:55.56Z</time></trkpt><trkpt lat="40.475561173738136" lon="9.129660054916075"><ele>280.0</ele><time>2026-04-26T09:56:56.56Z</time></trkpt><trkpt lat="40.47549548185605" lon="9.129865995710945"><ele>280.0</ele><time>2026-04-26T09:56:57.56Z</time></trkpt><trkpt lat="40.47541995250257" lon="9.130069001011343"><ele>280.0</ele><time>2026-04-26T09:56:58.559Z</time></trkpt><trkpt lat="40.47534213059804" lon="9.130269115162497"><ele>281.66666666666663</ele><time>2026-04-26T09:56:59.559Z</time></trkpt><trkpt lat="40.47526357843848" lon="9.130466113250579"><ele>283.3333333333333</ele><time>2026-04-26T09:57:00.559Z</time></trkpt><trkpt lat="40.475191071629965" lon="9.130640437558275"><ele>285.0</ele><time>2026-04-26T09:57:01.559Z</time></trkpt><trkpt lat="40.475132243443944" lon="9.130792215477214"><ele>285.0</ele><time>2026-04-26T09:57:02.559Z</time></trkpt><trkpt lat="40.47508994930601" lon="9.13090706715031"><ele>285.0</ele><time>2026-04-26T09:57:03.559Z</time></trkpt><trkpt lat="40.47506582479967" lon="9.130987864489994"><ele>285.0</ele><time>2026-04-26T09:57:04.559Z</time></trkpt><trkpt lat="40.47502591069394" lon="9.131063892929756"><ele>285.0</ele><time>2026-04-26T09:57:24.558Z</time></trkpt><trkpt lat="40.47507250477486" lon="9.130942619831814"><ele>285.0</ele><time>2026-04-26T09:57:35.558Z</time></trkpt><trkpt lat="40.47511039269572" lon="9.13084653579618"><ele>285.0</ele><time>2026-04-26T09:57:36.558Z</time></trkpt><trkpt lat="40.47520555193409" lon="9.13067618765238"><ele>285.0</ele><time>2026-04-26T09:57:37.558Z</time></trkpt><trkpt lat="40.47525922671489" lon="9.130547040168784"><ele>285.0</ele><time>2026-04-26T09:57:38.558Z</time></trkpt><trkpt lat="40.47532085485909" lon="9.130397451740185"><ele>285.0</ele><time>2026-04-26T09:57:39.558Z</time></trkpt><trkpt lat="40.47539098218716" lon="9.130225646987151"><ele>285.0</ele><time>2026-04-26T09:57:40.558Z</time></trkpt><trkpt lat="40.47545802337538" lon="9.130045766750921"><ele>283.3333333333333</ele><time>2026-04-26T09:57:41.557Z</time></trkpt><trkpt lat="40.47552617584079" lon="9.129865463136603"><ele>281.66666666666663</ele><time>2026-04-26T09:57:42.557Z</time></trkpt><trkpt lat="40.475590537560635" lon="9.129679243861691"><ele>280.0</ele><time>2026-04-26T09:57:43.557Z</time></trkpt><trkpt lat="40.475649762385444" lon="9.129495326740448"><ele>280.0</ele><time>2026-04-26T09:57:44.557Z</time></trkpt><trkpt lat="40.4757149926269" lon="9.129330161488557"><ele>280.0</ele><time>2026-04-26T09:57:45.557Z</time></trkpt><trkpt lat="40.47580030393655" lon="9.129184370083642"><ele>280.0</ele><time>2026-04-26T09:57:46.557Z</time></trkpt><trkpt lat="40.47589639461727" lon="9.129049260047436"><ele>280.0</ele><time>2026-04-26T09:57:47.557Z</time></trkpt><trkpt lat="40.47600162135227" lon="9.12894482092848"><ele>279.0</ele><time>2026-04-26T09:57:48.557Z</time></trkpt><trkpt lat="40.47610050182561" lon="9.12887579785531"><ele>278.0</ele><time>2026-04-26T09:57:49.557Z</time></trkpt><trkpt lat="40.476194079670904" lon="9.12882297341749"><ele>277.0</ele><time>2026-04-26T09:57:50.557Z</time></trkpt><trkpt lat="40.47628314064506" lon="9.128777077568575"><ele>276.0</ele><time>2026-04-26T09:57:51.557Z</time></trkpt><trkpt lat="40.476371382733795" lon="9.128732024070413"><ele>275.0</ele><time>2026-04-26T09:57:52.557Z</time></trkpt><trkpt lat="40.47645382031905" lon="9.12868581292008"><ele>275.0</ele><time>2026-04-26T09:57:53.557Z</time></trkpt><trkpt lat="40.47653464453352" lon="9.128655247426497"><ele>275.0</ele><time>2026-04-26T09:57:54.557Z</time></trkpt><trkpt lat="40.47662212556505" lon="9.1286146705142"><ele>275.0</ele><time>2026-04-26T09:57:55.557Z</time></trkpt><trkpt lat="40.47669233523943" lon="9.128592355224319"><ele>275.0</ele><time>2026-04-26T09:57:56.557Z</time></trkpt><trkpt lat="40.47676414050617" lon="9.128555679703634"><ele>275.0</ele><time>2026-04-26T09:57:58.557Z</time></trkpt><trkpt lat="40.476722087812135" lon="9.128478394198824"><ele>275.0</ele><time>2026-04-26T09:58:01.557Z</time></trkpt><trkpt lat="40.476652498676" lon="9.128510256878066"><ele>275.0</ele><time>2026-04-26T09:58:02.557Z</time></trkpt><trkpt lat="40.476580854165114" lon="9.12859063006911"><ele>275.0</ele><time>2026-04-26T09:58:03.556Z</time></trkpt><trkpt lat="40.47648666729744" lon="9.128647006691866"><ele>275.0</ele><time>2026-04-26T09:58:04.556Z</time></trkpt><trkpt lat="40.47636922029897" lon="9.128706288794058"><ele>275.0</ele><time>2026-04-26T09:58:05.556Z</time></trkpt><trkpt lat="40.47625381009322" lon="9.128761221465"><ele>275.0</ele><time>2026-04-26T09:58:06.556Z</time></trkpt><trkpt lat="40.476132383199655" lon="9.128829024300632"><ele>274.75</ele><time>2026-04-26T09:58:07.556Z</time></trkpt><trkpt lat="40.4760038621138" lon="9.128908725828538"><ele>274.5</ele><time>2026-04-26T09:58:08.556Z</time></trkpt><trkpt lat="40.47587505859327" lon="9.1290162477983"><ele>274.25</ele><time>2026-04-26T09:58:09.556Z</time></trkpt><trkpt lat="40.47577829277239" lon="9.129159710829787"><ele>274.0</ele><time>2026-04-26T09:58:10.556Z</time></trkpt><trkpt lat="40.47569173151798" lon="9.12933382111564"><ele>276.0</ele><time>2026-04-26T09:58:11.556Z</time></trkpt><trkpt lat="40.47562125741146" lon="9.129531835650456"><ele>278.0</ele><time>2026-04-26T09:58:12.556Z</time></trkpt><trkpt lat="40.47555528887925" lon="9.129744460112182"><ele>280.0</ele><time>2026-04-26T09:58:13.556Z</time></trkpt><trkpt lat="40.475481707610065" lon="9.129957786991714"><ele>281.66666666666663</ele><time>2026-04-26T09:58:14.556Z</time></trkpt><trkpt lat="40.475384124852155" lon="9.13016000676346"><ele>283.3333333333333</ele><time>2026-04-26T09:58:15.556Z</time></trkpt><trkpt lat="40.475298837738016" lon="9.13037610541078"><ele>285.0</ele><time>2026-04-26T09:58:16.556Z</time></trkpt><trkpt lat="40.475211115752984" lon="9.130598028542172"><ele>286.3333333333333</ele><time>2026-04-26T09:58:17.556Z</time></trkpt><trkpt lat="40.47511934528305" lon="9.130824610837307"><ele>287.66666666666663</ele><time>2026-04-26T09:58:18.556Z</time></trkpt><trkpt lat="40.47504722766068" lon="9.13106757094117"><ele>289.0</ele><time>2026-04-26T09:58:19.557Z</time></trkpt><trkpt lat="40.474970522415646" lon="9.13130156164409"><ele>289.0</ele><time>2026-04-26T09:58:20.556Z</time></trkpt><trkpt lat="40.47492758882896" lon="9.13153942684427"><ele>289.0</ele><time>2026-04-26T09:58:21.556Z</time></trkpt><trkpt lat="40.474893198114316" lon="9.131787109187812"><ele>289.0</ele><time>2026-04-26T09:58:22.556Z</time></trkpt><trkpt lat="40.47486472395717" lon="9.132036858440975"><ele>290.0</ele><time>2026-04-26T09:58:23.556Z</time></trkpt><trkpt lat="40.47485012723076" lon="9.132293201816134"><ele>291.0</ele><time>2026-04-26T09:58:24.556Z</time></trkpt><trkpt lat="40.47481805216596" lon="9.132544873999008"><ele>292.0</ele><time>2026-04-26T09:58:25.557Z</time></trkpt><trkpt lat="40.47478609704641" lon="9.132801872023652"><ele>293.3333333333333</ele><time>2026-04-26T09:58:26.556Z</time></trkpt><trkpt lat="40.47475528765413" lon="9.133060059905459"><ele>294.6666666666667</ele><time>2026-04-26T09:58:27.556Z</time></trkpt><trkpt lat="40.47472101510155" lon="9.133316236764967"><ele>296.0</ele><time>2026-04-26T09:58:28.556Z</time></trkpt><trkpt lat="40.474674452940754" lon="9.133568332177223"><ele>298.6666666666667</ele><time>2026-04-26T09:58:29.556Z</time></trkpt><trkpt lat="40.474613578527325" lon="9.133812646823177"><ele>301.3333333333333</ele><time>2026-04-26T09:58:30.556Z</time></trkpt><trkpt lat="40.47453088833218" lon="9.134044715400497"><ele>304.0</ele><time>2026-04-26T09:58:31.556Z</time></trkpt><trkpt lat="40.47442871968373" lon="9.134263674932809"><ele>306.66666666666663</ele><time>2026-04-26T09:58:32.556Z</time></trkpt><trkpt lat="40.47429544393607" lon="9.134463488082819"><ele>309.3333333333333</ele><time>2026-04-26T09:58:33.556Z</time></trkpt><trkpt lat="40.4741860383445" lon="9.134688363019697"><ele>312.0</ele><time>2026-04-26T09:58:34.556Z</time></trkpt><trkpt lat="40.47405837214055" lon="9.134901168122637"><ele>313.3333333333333</ele><time>2026-04-26T09:58:35.556Z</time></trkpt><trkpt lat="40.47393334117889" lon="9.135120151061567"><ele>314.66666666666663</ele><time>2026-04-26T09:58:36.556Z</time></trkpt><trkpt lat="40.47380983705041" lon="9.13535019961677"><ele>316.0</ele><time>2026-04-26T09:58:37.556Z</time></trkpt><trkpt lat="40.47366842959549" lon="9.135563404510284"><ele>318.0</ele><time>2026-04-26T09:58:38.556Z</time></trkpt><trkpt lat="40.473537428322444" lon="9.13579006681544"><ele>320.0</ele><time>2026-04-26T09:58:39.556Z</time></trkpt><trkpt lat="40.473401883184046" lon="9.136019098597005"><ele>322.0</ele><time>2026-04-26T09:58:40.556Z</time></trkpt><trkpt lat="40.473276463665144" lon="9.136265957286255"><ele>322.0</ele><time>2026-04-26T09:58:41.555Z</time></trkpt><trkpt lat="40.47313730530723" lon="9.136498351788408"><ele>322.0</ele><time>2026-04-26T09:58:42.555Z</time></trkpt><trkpt lat="40.47299647217018" lon="9.136728703497928"><ele>323.0</ele><time>2026-04-26T09:58:43.555Z</time></trkpt><trkpt lat="40.47285370228991" lon="9.136959464194877"><ele>324.0</ele><time>2026-04-26T09:58:44.555Z</time></trkpt><trkpt lat="40.47271658741337" lon="9.13719929356455"><ele>324.0</ele><time>2026-04-26T09:58:45.555Z</time></trkpt><trkpt lat="40.4725786806152" lon="9.137442891867032"><ele>324.0</ele><time>2026-04-26T09:58:46.555Z</time></trkpt><trkpt lat="40.472440112095036" lon="9.137693761663831"><ele>324.0</ele><time>2026-04-26T09:58:47.555Z</time></trkpt><trkpt lat="40.47230375855782" lon="9.137947916845237"><ele>324.0</ele><time>2026-04-26T09:58:48.555Z</time></trkpt><trkpt lat="40.47216479116448" lon="9.138206352286812"><ele>324.5</ele><time>2026-04-26T09:58:49.555Z</time></trkpt><trkpt lat="40.472026937478404" lon="9.138471076537256"><ele>325.0</ele><time>2026-04-26T09:58:50.555Z</time></trkpt><trkpt lat="40.47188532926997" lon="9.138737386482642"><ele>325.0</ele><time>2026-04-26T09:58:51.555Z</time></trkpt><trkpt lat="40.471742716378316" lon="9.138996972732144"><ele>325.0</ele><time>2026-04-26T09:58:52.555Z</time></trkpt><trkpt lat="40.47160317234989" lon="9.13925825326408"><ele>325.0</ele><time>2026-04-26T09:58:53.555Z</time></trkpt><trkpt lat="40.471462616600675" lon="9.139518864065415"><ele>325.0</ele><time>2026-04-26T09:58:54.555Z</time></trkpt><trkpt lat="40.47132259133011" lon="9.139780699296598"><ele>327.0</ele><time>2026-04-26T09:58:55.555Z</time></trkpt><trkpt lat="40.47118326879077" lon="9.140039689793484"><ele>329.0</ele><time>2026-04-26T09:58:56.555Z</time></trkpt><trkpt lat="40.47104858335343" lon="9.140293172496843"><ele>329.0</ele><time>2026-04-26T09:58:57.555Z</time></trkpt><trkpt lat="40.470916197682755" lon="9.14052956753554"><ele>329.0</ele><time>2026-04-26T09:58:58.555Z</time></trkpt><trkpt lat="40.47080463006923" lon="9.140751853656221"><ele>329.0</ele><time>2026-04-26T09:58:59.555Z</time></trkpt><trkpt lat="40.470717365378775" lon="9.140963282237605"><ele>327.33333333333337</ele><time>2026-04-26T09:59:00.555Z</time></trkpt><trkpt lat="40.47065516440976" lon="9.141191754008949"><ele>325.6666666666667</ele><time>2026-04-26T09:59:01.555Z</time></trkpt><trkpt lat="40.470620544429934" lon="9.141446759725415"><ele>324.0</ele><time>2026-04-26T09:59:02.555Z</time></trkpt><trkpt lat="40.47056817477236" lon="9.14171201103685"><ele>322.6666666666667</ele><time>2026-04-26T09:59:03.554Z</time></trkpt><trkpt lat="40.47053122129439" lon="9.141991114669556"><ele>321.33333333333337</ele><time>2026-04-26T09:59:04.554Z</time></trkpt><trkpt lat="40.470502489724055" lon="9.142277939509018"><ele>320.0</ele><time>2026-04-26T09:59:05.554Z</time></trkpt><trkpt lat="40.47045370678458" lon="9.142570615694348"><ele>318.0</ele><time>2026-04-26T09:59:06.554Z</time></trkpt><trkpt lat="40.470400122134556" lon="9.142866729687833"><ele>316.0</ele><time>2026-04-26T09:59:07.554Z</time></trkpt><trkpt lat="40.470333686155946" lon="9.14316208242051"><ele>315.5</ele><time>2026-04-26T09:59:08.554Z</time></trkpt><trkpt lat="40.470255732758545" lon="9.143458786395914"><ele>315.0</ele><time>2026-04-26T09:59:09.554Z</time></trkpt><trkpt lat="40.47017184840581" lon="9.143756718269838"><ele>315.0</ele><time>2026-04-26T09:59:10.554Z</time></trkpt><trkpt lat="40.47008952236102" lon="9.14405462896941"><ele>315.0</ele><time>2026-04-26T09:59:11.554Z</time></trkpt><trkpt lat="40.470007028424305" lon="9.144354887045067"><ele>315.0</ele><time>2026-04-26T09:59:12.554Z</time></trkpt><trkpt lat="40.46991996739077" lon="9.14465075274434"><ele>315.0</ele><time>2026-04-26T09:59:13.554Z</time></trkpt><trkpt lat="40.4698215760405" lon="9.144936505852343"><ele>315.0</ele><time>2026-04-26T09:59:14.554Z</time></trkpt><trkpt lat="40.469704027141084" lon="9.145215272985903"><ele>315.0</ele><time>2026-04-26T09:59:15.554Z</time></trkpt><trkpt lat="40.469573827166904" lon="9.145478617950884"><ele>317.0</ele><time>2026-04-26T09:59:16.554Z</time></trkpt><trkpt lat="40.46943725339521" lon="9.145737079933495"><ele>319.0</ele><time>2026-04-26T09:59:17.554Z</time></trkpt><trkpt lat="40.46929992687403" lon="9.145995327764213"><ele>319.0</ele><time>2026-04-26T09:59:18.554Z</time></trkpt><trkpt lat="40.46916441520701" lon="9.146250487306261"><ele>319.0</ele><time>2026-04-26T09:59:19.554Z</time></trkpt><trkpt lat="40.46903810807353" lon="9.146494067632997"><ele>319.3333333333333</ele><time>2026-04-26T09:59:20.554Z</time></trkpt><trkpt lat="40.46893491226987" lon="9.146737067660982"><ele>319.6666666666667</ele><time>2026-04-26T09:59:21.554Z</time></trkpt><trkpt lat="40.468865029812164" lon="9.146985168238398"><ele>320.0</ele><time>2026-04-26T09:59:22.554Z</time></trkpt><trkpt lat="40.46881419682971" lon="9.147256736602577"><ele>320.0</ele><time>2026-04-26T09:59:23.554Z</time></trkpt><trkpt lat="40.46876792181777" lon="9.147539720296871"><ele>320.0</ele><time>2026-04-26T09:59:24.553Z</time></trkpt><trkpt lat="40.46871773912744" lon="9.147840364600862"><ele>320.0</ele><time>2026-04-26T09:59:25.553Z</time></trkpt><trkpt lat="40.4686694859751" lon="9.148148308362108"><ele>320.0</ele><time>2026-04-26T09:59:26.553Z</time></trkpt><trkpt lat="40.46862348933772" lon="9.1484656611423"><ele>320.0</ele><time>2026-04-26T09:59:27.553Z</time></trkpt><trkpt lat="40.468573100690776" lon="9.14879955242595"><ele>320.0</ele><time>2026-04-26T09:59:28.553Z</time></trkpt><trkpt lat="40.46851860692715" lon="9.149133937988715"><ele>318.5</ele><time>2026-04-26T09:59:29.553Z</time></trkpt><trkpt lat="40.468468560965206" lon="9.149474395892922"><ele>317.0</ele><time>2026-04-26T09:59:30.553Z</time></trkpt><trkpt lat="40.46841610138108" lon="9.14981585811065"><ele>318.0</ele><time>2026-04-26T09:59:31.553Z</time></trkpt><trkpt lat="40.46836586744091" lon="9.150158638268453"><ele>319.0</ele><time>2026-04-26T09:59:32.553Z</time></trkpt><trkpt lat="40.468318213860975" lon="9.150497512084234"><ele>321.0</ele><time>2026-04-26T09:59:33.553Z</time></trkpt><trkpt lat="40.468268575378715" lon="9.150832913341967"><ele>323.0</ele><time>2026-04-26T09:59:34.553Z</time></trkpt><trkpt lat="40.468215961818444" lon="9.15116295754067"><ele>323.0</ele><time>2026-04-26T09:59:35.553Z</time></trkpt><trkpt lat="40.46816461408215" lon="9.151497688405017"><ele>323.0</ele><time>2026-04-26T09:59:36.553Z</time></trkpt><trkpt lat="40.4681138380708" lon="9.151827163369349"><ele>324.5</ele><time>2026-04-26T09:59:37.553Z</time></trkpt><trkpt lat="40.46806016716484" lon="9.152148982119519"><ele>326.0</ele><time>2026-04-26T09:59:38.553Z</time></trkpt><trkpt lat="40.468013120598" lon="9.15246213535294"><ele>327.0</ele><time>2026-04-26T09:59:39.553Z</time></trkpt><trkpt lat="40.46798000329038" lon="9.152777479493373"><ele>328.0</ele><time>2026-04-26T09:59:40.553Z</time></trkpt><trkpt lat="40.46797127337522" lon="9.153093531152365"><ele>327.0</ele><time>2026-04-26T09:59:41.553Z</time></trkpt><trkpt lat="40.46796839071866" lon="9.153410757676033"><ele>326.0</ele><time>2026-04-26T09:59:42.553Z</time></trkpt><trkpt lat="40.46796626517481" lon="9.153731319305747"><ele>325.0</ele><time>2026-04-26T09:59:43.553Z</time></trkpt><trkpt lat="40.467960615470375" lon="9.154040770941354"><ele>324.0</ele><time>2026-04-26T09:59:44.553Z</time></trkpt><trkpt lat="40.46794333678548" lon="9.154314265016032"><ele>323.0</ele><time>2026-04-26T09:59:45.553Z</time></trkpt><trkpt lat="40.46790675597743" lon="9.154539448025577"><ele>323.0</ele><time>2026-04-26T09:59:46.552Z</time></trkpt><trkpt lat="40.46783372564585" lon="9.15473273262082"><ele>323.0</ele><time>2026-04-26T09:59:47.552Z</time></trkpt><trkpt lat="40.467725442958724" lon="9.154904855166734"><ele>323.0</ele><time>2026-04-26T09:59:48.552Z</time></trkpt><trkpt lat="40.46760049172427" lon="9.155081508758224"><ele>324.0</ele><time>2026-04-26T09:59:49.552Z</time></trkpt><trkpt lat="40.46747352128988" lon="9.155266234969998"><ele>325.0</ele><time>2026-04-26T09:59:50.552Z</time></trkpt><trkpt lat="40.46734173844966" lon="9.155462369232906"><ele>326.0</ele><time>2026-04-26T09:59:51.552Z</time></trkpt><trkpt lat="40.46720392194095" lon="9.155673716822495"><ele>325.6666666666667</ele><time>2026-04-26T09:59:52.552Z</time></trkpt><trkpt lat="40.46706046326265" lon="9.155895918893089"><ele>325.3333333333333</ele><time>2026-04-26T09:59:53.552Z</time></trkpt><trkpt lat="40.46691367444489" lon="9.156118844495714"><ele>325.0</ele><time>2026-04-26T09:59:54.552Z</time></trkpt><trkpt lat="40.46676721652291" lon="9.156333169633978"><ele>325.0</ele><time>2026-04-26T09:59:55.552Z</time></trkpt><trkpt lat="40.46663515069517" lon="9.15652063670417"><ele>325.0</ele><time>2026-04-26T09:59:56.552Z</time></trkpt><trkpt lat="40.46650725147132" lon="9.156696473007882"><ele>325.0</ele><time>2026-04-26T09:59:57.552Z</time></trkpt><trkpt lat="40.466370781030975" lon="9.156824933479504"><ele>327.0</ele><time>2026-04-26T09:59:58.552Z</time></trkpt><trkpt lat="40.46622210198439" lon="9.15688849179098"><ele>329.0</ele><time>2026-04-26T09:59:59.552Z</time></trkpt><trkpt lat="40.4660708413015" lon="9.15688972728931"><ele>331.0</ele><time>2026-04-26T10:00:00.552Z</time></trkpt><trkpt lat="40.46592634127542" lon="9.156869697767522"><ele>331.0</ele><time>2026-04-26T10:00:01.552Z</time></trkpt><trkpt lat="40.465789684287394" lon="9.156864644031893"><ele>331.0</ele><time>2026-04-26T10:00:02.552Z</time></trkpt><trkpt lat="40.46567455272658" lon="9.156876358819037"><ele>331.0</ele><time>2026-04-26T10:00:03.552Z</time></trkpt><trkpt lat="40.46557269779077" lon="9.156907006147648"><ele>331.0</ele><time>2026-04-26T10:00:04.552Z</time></trkpt><trkpt lat="40.465489544944866" lon="9.156969138235322"><ele>331.20000000000005</ele><time>2026-04-26T10:00:05.552Z</time></trkpt><trkpt lat="40.4654113735523" lon="9.157040632282646"><ele>331.40000000000003</ele><time>2026-04-26T10:00:06.552Z</time></trkpt><trkpt lat="40.46534409539582" lon="9.157134755030116"><ele>331.6</ele><time>2026-04-26T10:00:07.552Z</time></trkpt><trkpt lat="40.46529259795358" lon="9.157260574596354"><ele>331.8</ele><time>2026-04-26T10:00:08.551Z</time></trkpt><trkpt lat="40.465241146497135" lon="9.157394314862374"><ele>332.0</ele><time>2026-04-26T10:00:09.551Z</time></trkpt><trkpt lat="40.465182481654566" lon="9.157526495254254"><ele>333.8</ele><time>2026-04-26T10:00:10.551Z</time></trkpt><trkpt lat="40.46511604296139" lon="9.157649273419139"><ele>335.6</ele><time>2026-04-26T10:00:11.551Z</time></trkpt><trkpt lat="40.46506141019547" lon="9.157760507884555"><ele>337.40000000000003</ele><time>2026-04-26T10:00:12.551Z</time></trkpt><trkpt lat="40.465008086172155" lon="9.157865370886693"><ele>339.20000000000005</ele><time>2026-04-26T10:00:13.551Z</time></trkpt><trkpt lat="40.46495303330293" lon="9.15795611113096"><ele>341.0</ele><time>2026-04-26T10:00:14.551Z</time></trkpt><trkpt lat="40.46489079138368" lon="9.158046325134732"><ele>341.0</ele><time>2026-04-26T10:00:15.551Z</time></trkpt><trkpt lat="40.46481939513356" lon="9.158130495253596"><ele>341.0</ele><time>2026-04-26T10:00:16.551Z</time></trkpt><trkpt lat="40.464742846319" lon="9.158209498632516"><ele>341.0</ele><time>2026-04-26T10:00:17.551Z</time></trkpt><trkpt lat="40.46465293523525" lon="9.158278792399209"><ele>341.0</ele><time>2026-04-26T10:00:18.551Z</time></trkpt><trkpt lat="40.4645577542051" lon="9.158346684982108"><ele>341.0</ele><time>2026-04-26T10:00:19.551Z</time></trkpt><trkpt lat="40.46445663927708" lon="9.158423669652203"><ele>342.0</ele><time>2026-04-26T10:00:20.551Z</time></trkpt><trkpt lat="40.46435667914286" lon="9.15850585170414"><ele>343.0</ele><time>2026-04-26T10:00:21.551Z</time></trkpt><trkpt lat="40.46424986270619" lon="9.15859312239156"><ele>344.0</ele><time>2026-04-26T10:00:22.551Z</time></trkpt><trkpt lat="40.464133071261344" lon="9.158679437679162"><ele>345.0</ele><time>2026-04-26T10:00:23.551Z</time></trkpt><trkpt lat="40.46401205283679" lon="9.158767333522254"><ele>345.0</ele><time>2026-04-26T10:00:24.551Z</time></trkpt><trkpt lat="40.46388579810674" lon="9.158859028161029"><ele>345.0</ele><time>2026-04-26T10:00:25.552Z</time></trkpt><trkpt lat="40.46375712841767" lon="9.158939976241165"><ele>345.0</ele><time>2026-04-26T10:00:26.551Z</time></trkpt><trkpt lat="40.46362206703461" lon="9.158991782509599"><ele>345.0</ele><time>2026-04-26T10:00:27.551Z</time></trkpt><trkpt lat="40.46349895815218" lon="9.159005321892007"><ele>346.0</ele><time>2026-04-26T10:00:28.551Z</time></trkpt><trkpt lat="40.46338184088972" lon="9.159004383715535"><ele>347.0</ele><time>2026-04-26T10:00:29.551Z</time></trkpt><trkpt lat="40.46327550408067" lon="9.15899886365118"><ele>348.0</ele><time>2026-04-26T10:00:30.551Z</time></trkpt><trkpt lat="40.46317969076263" lon="9.159024397950356"><ele>349.0</ele><time>2026-04-26T10:00:31.551Z</time></trkpt><trkpt lat="40.46310073600274" lon="9.159077235382915"><ele>350.0</ele><time>2026-04-26T10:00:32.551Z</time></trkpt><trkpt lat="40.46303877243363" lon="9.159153912675148"><ele>350.6</ele><time>2026-04-26T10:00:33.551Z</time></trkpt><trkpt lat="40.463000996007544" lon="9.15926413510118"><ele>351.2</ele><time>2026-04-26T10:00:34.551Z</time></trkpt><trkpt lat="40.46298773056106" lon="9.159392183506583"><ele>351.79999999999995</ele><time>2026-04-26T10:00:35.55Z</time></trkpt><trkpt lat="40.46299739749731" lon="9.15953267231684"><ele>352.4</ele><time>2026-04-26T10:00:36.55Z</time></trkpt><trkpt lat="40.463016202731886" lon="9.159684222999655"><ele>353.0</ele><time>2026-04-26T10:00:37.55Z</time></trkpt><trkpt lat="40.463023139747776" lon="9.15984955216846"><ele>353.25</ele><time>2026-04-26T10:00:38.551Z</time></trkpt><trkpt lat="40.463018415521844" lon="9.160025682190545"><ele>353.5</ele><time>2026-04-26T10:00:39.551Z</time></trkpt><trkpt lat="40.46301504101454" lon="9.160204593375703"><ele>353.75</ele><time>2026-04-26T10:00:40.551Z</time></trkpt><trkpt lat="40.463012665121866" lon="9.16039482796354"><ele>354.0</ele><time>2026-04-26T10:00:41.551Z</time></trkpt><trkpt lat="40.46300916147811" lon="9.160583816954379"><ele>353.75</ele><time>2026-04-26T10:00:42.551Z</time></trkpt><trkpt lat="40.46300923433593" lon="9.160764981202508"><ele>353.5</ele><time>2026-04-26T10:00:43.551Z</time></trkpt><trkpt lat="40.4630125966891" lon="9.160937901867396"><ele>353.25</ele><time>2026-04-26T10:00:44.55Z</time></trkpt><trkpt lat="40.46301659841208" lon="9.161090503255458"><ele>353.0</ele><time>2026-04-26T10:00:45.55Z</time></trkpt><trkpt lat="40.4630133321244" lon="9.161231551869665"><ele>353.0</ele><time>2026-04-26T10:00:46.55Z</time></trkpt><trkpt lat="40.46300357010316" lon="9.161348969555666"><ele>353.0</ele><time>2026-04-26T10:00:47.55Z</time></trkpt><trkpt lat="40.462995904472535" lon="9.16145440943052"><ele>353.0</ele><time>2026-04-26T10:00:48.55Z</time></trkpt><trkpt lat="40.462976686155436" lon="9.161553270772323"><ele>353.0</ele><time>2026-04-26T10:00:49.55Z</time></trkpt><trkpt lat="40.462948207472344" lon="9.161641190218896"><ele>353.0</ele><time>2026-04-26T10:00:50.55Z</time></trkpt><trkpt lat="40.462906614412695" lon="9.161727618648428"><ele>353.0</ele><time>2026-04-26T10:00:51.55Z</time></trkpt><trkpt lat="40.46284964419486" lon="9.16181275674661"><ele>354.4</ele><time>2026-04-26T10:00:52.55Z</time></trkpt><trkpt lat="40.46278302766184" lon="9.161886994388896"><ele>355.79999999999995</ele><time>2026-04-26T10:00:53.55Z</time></trkpt><trkpt lat="40.46270265725005" lon="9.161964984495407"><ele>357.2</ele><time>2026-04-26T10:00:54.55Z</time></trkpt><trkpt lat="40.46261889339922" lon="9.162049283238153"><ele>358.6</ele><time>2026-04-26T10:00:55.55Z</time></trkpt><trkpt lat="40.462512062748374" lon="9.162126481088846"><ele>360.0</ele><time>2026-04-26T10:00:56.55Z</time></trkpt><trkpt lat="40.46240182321982" lon="9.16221660158483"><ele>360.0</ele><time>2026-04-26T10:00:57.55Z</time></trkpt><trkpt lat="40.46228348045883" lon="9.162306463148903"><ele>360.0</ele><time>2026-04-26T10:00:58.55Z</time></trkpt><trkpt lat="40.46216335795519" lon="9.16240856303782"><ele>360.0</ele><time>2026-04-26T10:00:59.55Z</time></trkpt><trkpt lat="40.46203640298411" lon="9.162512930264551"><ele>360.0</ele><time>2026-04-26T10:01:00.55Z</time></trkpt><trkpt lat="40.461902145511964" lon="9.162622968724465"><ele>361.0</ele><time>2026-04-26T10:01:01.55Z</time></trkpt><trkpt lat="40.46176684812027" lon="9.16273431542377"><ele>362.0</ele><time>2026-04-26T10:01:02.55Z</time></trkpt><trkpt lat="40.461635103012455" lon="9.162852330568917"><ele>363.0</ele><time>2026-04-26T10:01:03.55Z</time></trkpt><trkpt lat="40.46149681027826" lon="9.162966146592515"><ele>363.0</ele><time>2026-04-26T10:01:04.55Z</time></trkpt><trkpt lat="40.46135664599298" lon="9.1630795676411"><ele>363.0</ele><time>2026-04-26T10:01:05.55Z</time></trkpt><trkpt lat="40.461216231537826" lon="9.163190610610464"><ele>363.0</ele><time>2026-04-26T10:01:06.549Z</time></trkpt><trkpt lat="40.46108074982607" lon="9.163299199357345"><ele>364.75</ele><time>2026-04-26T10:01:07.549Z</time></trkpt><trkpt lat="40.460958234037626" lon="9.163405976554508"><ele>366.5</ele><time>2026-04-26T10:01:08.549Z</time></trkpt><trkpt lat="40.460836320830815" lon="9.163500498544762"><ele>368.25</ele><time>2026-04-26T10:01:09.549Z</time></trkpt><trkpt lat="40.460721071585944" lon="9.163588471143642"><ele>370.0</ele><time>2026-04-26T10:01:10.549Z</time></trkpt><trkpt lat="40.460604510706226" lon="9.163676719695044"><ele>370.0</ele><time>2026-04-26T10:01:11.549Z</time></trkpt><trkpt lat="40.46049675315125" lon="9.163763644731617"><ele>370.0</ele><time>2026-04-26T10:01:12.549Z</time></trkpt><trkpt lat="40.46038494982631" lon="9.163855682676516"><ele>370.0</ele><time>2026-04-26T10:01:13.549Z</time></trkpt><trkpt lat="40.46027068681816" lon="9.163954241993846"><ele>370.0</ele><time>2026-04-26T10:01:14.549Z</time></trkpt><trkpt lat="40.460155406068026" lon="9.164048732859106"><ele>370.5</ele><time>2026-04-26T10:01:15.549Z</time></trkpt><trkpt lat="40.460041803165495" lon="9.16414260242851"><ele>371.0</ele><time>2026-04-26T10:01:16.549Z</time></trkpt><trkpt lat="40.45992983853159" lon="9.164238575369238"><ele>371.5</ele><time>2026-04-26T10:01:17.549Z</time></trkpt><trkpt lat="40.459812144021136" lon="9.164330573334619"><ele>372.0</ele><time>2026-04-26T10:01:18.549Z</time></trkpt><trkpt lat="40.45969078394474" lon="9.164426210030731"><ele>372.25</ele><time>2026-04-26T10:01:19.549Z</time></trkpt><trkpt lat="40.45956132604225" lon="9.16451625283529"><ele>372.5</ele><time>2026-04-26T10:01:20.549Z</time></trkpt><trkpt lat="40.459437460395336" lon="9.16458878411666"><ele>372.75</ele><time>2026-04-26T10:01:21.549Z</time></trkpt><trkpt lat="40.4593108778124" lon="9.164647014449082"><ele>373.0</ele><time>2026-04-26T10:01:22.549Z</time></trkpt><trkpt lat="40.45917900655889" lon="9.164678442918321"><ele>373.0</ele><time>2026-04-26T10:01:23.549Z</time></trkpt><trkpt lat="40.45904854086962" lon="9.164686889043834"><ele>373.0</ele><time>2026-04-26T10:01:24.549Z</time></trkpt><trkpt lat="40.45892211070054" lon="9.16467769031669"><ele>373.0</ele><time>2026-04-26T10:01:25.549Z</time></trkpt><trkpt lat="40.45880372709037" lon="9.164679901949738"><ele>373.0</ele><time>2026-04-26T10:01:26.549Z</time></trkpt><trkpt lat="40.458711355110836" lon="9.164686018268304"><ele>374.16666666666663</ele><time>2026-04-26T10:01:27.548Z</time></trkpt><trkpt lat="40.45864805921325" lon="9.164684329439623"><ele>375.3333333333333</ele><time>2026-04-26T10:01:28.548Z</time></trkpt><trkpt lat="40.45855534610513" lon="9.164695343358282"><ele>376.5</ele><time>2026-04-26T10:01:30.548Z</time></trkpt><trkpt lat="40.45847884653824" lon="9.164700987583045"><ele>377.6666666666667</ele><time>2026-04-26T10:01:32.548Z</time></trkpt><trkpt lat="40.4583816968644" lon="9.164705661127735"><ele>378.83333333333337</ele><time>2026-04-26T10:01:34.548Z</time></trkpt><trkpt lat="40.45828764436963" lon="9.164708641245882"><ele>380.0</ele><time>2026-04-26T10:01:36.548Z</time></trkpt><trkpt lat="40.45822204538255" lon="9.16470646799996"><ele>380.0</ele><time>2026-04-26T10:01:39.548Z</time></trkpt><trkpt lat="40.45812815711144" lon="9.164709131583804"><ele>380.0</ele><time>2026-04-26T10:01:43.548Z</time></trkpt><trkpt lat="40.457998998158715" lon="9.164721376191547"><ele>380.0</ele><time>2026-04-26T10:01:45.548Z</time></trkpt><trkpt lat="40.457914551027535" lon="9.164724609605994"><ele>380.0</ele><time>2026-04-26T10:01:46.548Z</time></trkpt><trkpt lat="40.45782752122968" lon="9.164728176109687"><ele>380.0</ele><time>2026-04-26T10:01:47.548Z</time></trkpt><trkpt lat="40.45774217420748" lon="9.16473106711536"><ele>379.6</ele><time>2026-04-26T10:01:48.548Z</time></trkpt><trkpt lat="40.45765099017608" lon="9.164732226206112"><ele>379.2</ele><time>2026-04-26T10:01:49.547Z</time></trkpt><trkpt lat="40.45755619251838" lon="9.164736781160975"><ele>378.79999999999995</ele><time>2026-04-26T10:01:50.547Z</time></trkpt><trkpt lat="40.45746439349324" lon="9.16474869216628"><ele>378.4</ele><time>2026-04-26T10:01:51.547Z</time></trkpt><trkpt lat="40.45737283632345" lon="9.16477221801762"><ele>378.0</ele><time>2026-04-26T10:01:52.547Z</time></trkpt><trkpt lat="40.4572781520506" lon="9.164791348966576"><ele>378.0</ele><time>2026-04-26T10:01:53.547Z</time></trkpt><trkpt lat="40.45719548184702" lon="9.164841505899473"><ele>378.0</ele><time>2026-04-26T10:01:54.547Z</time></trkpt><trkpt lat="40.457131290031015" lon="9.164912701378688"><ele>378.0</ele><time>2026-04-26T10:01:55.547Z</time></trkpt><trkpt lat="40.457076392529714" lon="9.16496228687762"><ele>378.0</ele><time>2026-04-26T10:01:56.547Z</time></trkpt><trkpt lat="40.45702184081131" lon="9.16503132180403"><ele>378.0</ele><time>2026-04-26T10:01:58.547Z</time></trkpt><trkpt lat="40.45696534633994" lon="9.16507604546293"><ele>378.0</ele><time>2026-04-26T10:02:03.547Z</time></trkpt><trkpt lat="40.45691089999212" lon="9.16516136445831"><ele>378.0</ele><time>2026-04-26T10:02:08.547Z</time></trkpt><trkpt lat="40.4569701535024" lon="9.165395265127625"><ele>378.0</ele><time>2026-04-26T10:02:16.546Z</time></trkpt><trkpt lat="40.45704470073833" lon="9.16538077192329"><ele>378.0</ele><time>2026-04-26T10:02:19.546Z</time></trkpt><trkpt lat="40.45744166911074" lon="9.16470066513622"><ele>378.0</ele><time>2026-04-26T10:02:52.545Z</time></trkpt><trkpt lat="40.45738069829927" lon="9.164758788364713"><ele>378.0</ele><time>2026-04-26T10:03:03.545Z</time></trkpt><trkpt lat="40.457276881792666" lon="9.164790932747646"><ele>378.0</ele><time>2026-04-26T10:03:05.545Z</time></trkpt><trkpt lat="40.45716957205961" lon="9.164862806619333"><ele>378.0</ele><time>2026-04-26T10:03:07.545Z</time></trkpt><trkpt lat="40.4570949580039" lon="9.164936974166693"><ele>378.0</ele><time>2026-04-26T10:03:09.544Z</time></trkpt><trkpt lat="40.45704364935486" lon="9.1649989776502"><ele>378.5</ele><time>2026-04-26T10:03:12.544Z</time></trkpt><trkpt lat="40.45698107881749" lon="9.165085762038087"><ele>379.0</ele><time>2026-04-26T10:04:31.541Z</time></trkpt><trkpt lat="40.45692048314386" lon="9.165180879562655"><ele>379.5</ele><time>2026-04-26T10:04:33.541Z</time></trkpt><trkpt lat="40.456883966626286" lon="9.165255196900402"><ele>380.0</ele><time>2026-04-26T10:04:35.541Z</time></trkpt><trkpt lat="40.45684255762864" lon="9.165358031152445"><ele>380.5</ele><time>2026-04-26T10:04:38.54Z</time></trkpt><trkpt lat="40.456821492680554" lon="9.165460318658882"><ele>381.0</ele><time>2026-04-26T10:04:40.541Z</time></trkpt><trkpt lat="40.456804978815526" lon="9.165576306336856"><ele>381.0</ele><time>2026-04-26T10:04:43.541Z</time></trkpt><trkpt lat="40.45679823099987" lon="9.165670126897759"><ele>381.0</ele><time>2026-04-26T10:04:46.541Z</time></trkpt><trkpt lat="40.456799856120874" lon="9.16557242011912"><ele>381.0</ele><time>2026-04-26T10:04:51.54Z</time></trkpt><trkpt lat="40.45680645333226" lon="9.165470455785185"><ele>381.0</ele><time>2026-04-26T10:04:53.54Z</time></trkpt><trkpt lat="40.4568714514542" lon="9.165356818599221"><ele>381.0</ele><time>2026-04-26T10:04:55.54Z</time></trkpt><trkpt lat="40.45685566252351" lon="9.165255412138258"><ele>381.0</ele><time>2026-04-26T10:04:57.54Z</time></trkpt><trkpt lat="40.45683454951771" lon="9.165154847460194"><ele>381.0</ele><time>2026-04-26T10:04:59.54Z</time></trkpt><trkpt lat="40.45683222089824" lon="9.165044237767466"><ele>381.0</ele><time>2026-04-26T10:05:01.54Z</time></trkpt><trkpt lat="40.45683919438794" lon="9.164933766795519"><ele>381.0</ele><time>2026-04-26T10:05:03.54Z</time></trkpt><trkpt lat="40.45683894912975" lon="9.16484117660256"><ele>381.0</ele><time>2026-04-26T10:05:05.54Z</time></trkpt><trkpt lat="40.45683715696893" lon="9.164736164280697"><ele>381.0</ele><time>2026-04-26T10:05:08.54Z</time></trkpt><trkpt lat="40.45684145931847" lon="9.164642432566826"><ele>381.0</ele><time>2026-04-26T10:05:11.539Z</time></trkpt><trkpt lat="40.45684622862652" lon="9.164549772150629"><ele>380.5</ele><time>2026-04-26T10:05:14.539Z</time></trkpt><trkpt lat="40.45685292697002" lon="9.164441887575103"><ele>380.0</ele><time>2026-04-26T10:05:17.539Z</time></trkpt><trkpt lat="40.456860715521756" lon="9.164320981483215"><ele>379.5</ele><time>2026-04-26T10:05:20.539Z</time></trkpt><trkpt lat="40.4568696920808" lon="9.164233763410975"><ele>379.0</ele><time>2026-04-26T10:05:23.539Z</time></trkpt><trkpt lat="40.45684926950996" lon="9.164146119041854"><ele>378.5</ele><time>2026-04-26T10:06:46.535Z</time></trkpt><trkpt lat="40.456852363287" lon="9.164059754770514"><ele>378.0</ele><time>2026-04-26T10:06:48.535Z</time></trkpt><trkpt lat="40.45686216924763" lon="9.163909425751283"><ele>376.6666666666667</ele><time>2026-04-26T10:06:50.535Z</time></trkpt><trkpt lat="40.456862553582155" lon="9.163743926904534"><ele>375.3333333333333</ele><time>2026-04-26T10:06:52.535Z</time></trkpt><trkpt lat="40.456875192667376" lon="9.163658357261637"><ele>374.0</ele><time>2026-04-26T10:06:53.535Z</time></trkpt><trkpt lat="40.456870432356126" lon="9.163571210701429"><ele>372.66666666666663</ele><time>2026-04-26T10:06:54.535Z</time></trkpt><trkpt lat="40.45681998257825" lon="9.163426725568836"><ele>371.3333333333333</ele><time>2026-04-26T10:06:56.535Z</time></trkpt><trkpt lat="40.456765845581316" lon="9.16337525077949"><ele>370.0</ele><time>2026-04-26T10:06:57.535Z</time></trkpt><trkpt lat="40.45670001105588" lon="9.163344658303819"><ele>370.0</ele><time>2026-04-26T10:06:58.535Z</time></trkpt><trkpt lat="40.456615518900485" lon="9.163363655558843"><ele>370.0</ele><time>2026-04-26T10:06:59.535Z</time></trkpt><trkpt lat="40.456533073566376" lon="9.163354499857538"><ele>370.0</ele><time>2026-04-26T10:07:00.534Z</time></trkpt><trkpt lat="40.456443676566074" lon="9.163346113360332"><ele>370.0</ele><time>2026-04-26T10:07:01.534Z</time></trkpt><trkpt lat="40.456344551359884" lon="9.16333744336678"><ele>370.0</ele><time>2026-04-26T10:07:02.534Z</time></trkpt><trkpt lat="40.45624840616496" lon="9.163332348774901"><ele>370.6</ele><time>2026-04-26T10:07:03.534Z</time></trkpt><trkpt lat="40.456162945069785" lon="9.163329220314571"><ele>371.2</ele><time>2026-04-26T10:07:04.534Z</time></trkpt><trkpt lat="40.4560731714681" lon="9.163324511193034"><ele>371.79999999999995</ele><time>2026-04-26T10:07:05.534Z</time></trkpt><trkpt lat="40.4559756093398" lon="9.163311491365548"><ele>372.4</ele><time>2026-04-26T10:07:06.534Z</time></trkpt><trkpt lat="40.45587273571167" lon="9.163268624614014"><ele>373.0</ele><time>2026-04-26T10:07:07.534Z</time></trkpt><trkpt lat="40.45578673169268" lon="9.163204523458653"><ele>372.0</ele><time>2026-04-26T10:07:08.534Z</time></trkpt><trkpt lat="40.45572943038915" lon="9.16309435075512"><ele>371.0</ele><time>2026-04-26T10:07:09.534Z</time></trkpt><trkpt lat="40.45566611140055" lon="9.162979257179781"><ele>370.0</ele><time>2026-04-26T10:07:10.534Z</time></trkpt><trkpt lat="40.45559998594471" lon="9.162854620007755"><ele>369.0</ele><time>2026-04-26T10:07:11.534Z</time></trkpt><trkpt lat="40.45553109216188" lon="9.16272689290738"><ele>368.0</ele><time>2026-04-26T10:07:12.534Z</time></trkpt><trkpt lat="40.45545691361135" lon="9.162589572360055"><ele>369.0</ele><time>2026-04-26T10:07:13.534Z</time></trkpt><trkpt lat="40.45538161349424" lon="9.162448739145816"><ele>370.0</ele><time>2026-04-26T10:07:14.534Z</time></trkpt><trkpt lat="40.45530599080085" lon="9.16230725484525"><ele>371.0</ele><time>2026-04-26T10:07:15.534Z</time></trkpt><trkpt lat="40.455228365687574" lon="9.162160511378632"><ele>372.0</ele><time>2026-04-26T10:07:16.534Z</time></trkpt><trkpt lat="40.45515057272917" lon="9.1620131547443"><ele>372.0</ele><time>2026-04-26T10:07:17.534Z</time></trkpt><trkpt lat="40.45505769651147" lon="9.161868641108864"><ele>372.0</ele><time>2026-04-26T10:07:18.534Z</time></trkpt><trkpt lat="40.45494149315897" lon="9.16175411180541"><ele>372.0</ele><time>2026-04-26T10:07:19.534Z</time></trkpt><trkpt lat="40.4548152557926" lon="9.161666379540312"><ele>372.0</ele><time>2026-04-26T10:07:20.534Z</time></trkpt><trkpt lat="40.454674699749276" lon="9.161633354159532"><ele>372.5</ele><time>2026-04-26T10:07:21.534Z</time></trkpt><trkpt lat="40.45453997982298" lon="9.161595483224458"><ele>373.0</ele><time>2026-04-26T10:07:22.533Z</time></trkpt><trkpt lat="40.454406083258256" lon="9.161561899363258"><ele>373.5</ele><time>2026-04-26T10:07:23.533Z</time></trkpt><trkpt lat="40.454277191288256" lon="9.161523062542324"><ele>374.0</ele><time>2026-04-26T10:07:24.533Z</time></trkpt><trkpt lat="40.45415024613162" lon="9.16147016024768"><ele>374.0</ele><time>2026-04-26T10:07:25.533Z</time></trkpt><trkpt lat="40.454024600022045" lon="9.161409897971838"><ele>374.0</ele><time>2026-04-26T10:07:26.533Z</time></trkpt><trkpt lat="40.453905913605574" lon="9.161321881698623"><ele>374.0</ele><time>2026-04-26T10:07:27.533Z</time></trkpt><trkpt lat="40.453777401521485" lon="9.161251890075198"><ele>374.0</ele><time>2026-04-26T10:07:28.533Z</time></trkpt><trkpt lat="40.45365008482449" lon="9.161181326936045"><ele>374.75</ele><time>2026-04-26T10:07:29.533Z</time></trkpt><trkpt lat="40.453518833686864" lon="9.161110435460172"><ele>375.5</ele><time>2026-04-26T10:07:30.533Z</time></trkpt><trkpt lat="40.453378878749376" lon="9.161041877667326"><ele>376.25</ele><time>2026-04-26T10:07:31.533Z</time></trkpt><trkpt lat="40.45323857728891" lon="9.16098457224905"><ele>377.0</ele><time>2026-04-26T10:07:32.533Z</time></trkpt><trkpt lat="40.45310131076592" lon="9.160941215009066"><ele>377.0</ele><time>2026-04-26T10:07:33.533Z</time></trkpt><trkpt lat="40.45297213090224" lon="9.160914332019436"><ele>377.0</ele><time>2026-04-26T10:07:34.533Z</time></trkpt><trkpt lat="40.45285150623669" lon="9.160895583779242"><ele>377.0</ele><time>2026-04-26T10:07:35.533Z</time></trkpt><trkpt lat="40.45273409719862" lon="9.160878985605603"><ele>377.0</ele><time>2026-04-26T10:07:36.533Z</time></trkpt><trkpt lat="40.45261886789865" lon="9.160863405221278"><ele>376.75</ele><time>2026-04-26T10:07:37.533Z</time></trkpt><trkpt lat="40.45250677402973" lon="9.160860426134473"><ele>376.5</ele><time>2026-04-26T10:07:38.533Z</time></trkpt><trkpt lat="40.45240496077192" lon="9.160815960354759"><ele>376.25</ele><time>2026-04-26T10:07:39.533Z</time></trkpt><trkpt lat="40.4523112391361" lon="9.160723358399988"><ele>376.0</ele><time>2026-04-26T10:07:40.533Z</time></trkpt><trkpt lat="40.452192588127005" lon="9.160722191114868"><ele>374.5</ele><time>2026-04-26T10:07:41.533Z</time></trkpt><trkpt lat="40.452100417877425" lon="9.160701482752978"><ele>373.0</ele><time>2026-04-26T10:07:42.533Z</time></trkpt><trkpt lat="40.4519939527172" lon="9.160634416209719"><ele>371.5</ele><time>2026-04-26T10:07:43.532Z</time></trkpt><trkpt lat="40.4518791829616" lon="9.160564539053128"><ele>370.0</ele><time>2026-04-26T10:07:44.532Z</time></trkpt><trkpt lat="40.45176145190198" lon="9.160492858822101"><ele>369.25</ele><time>2026-04-26T10:07:45.532Z</time></trkpt><trkpt lat="40.45164353137953" lon="9.160421063419014"><ele>368.5</ele><time>2026-04-26T10:07:46.532Z</time></trkpt><trkpt lat="40.45153576324809" lon="9.160352103610332"><ele>367.75</ele><time>2026-04-26T10:07:47.532Z</time></trkpt><trkpt lat="40.45143409898749" lon="9.160283069174794"><ele>367.0</ele><time>2026-04-26T10:07:48.532Z</time></trkpt><trkpt lat="40.451338117017514" lon="9.160209151143901"><ele>366.0</ele><time>2026-04-26T10:07:49.532Z</time></trkpt><trkpt lat="40.45124610896858" lon="9.160132442186477"><ele>365.0</ele><time>2026-04-26T10:07:50.532Z</time></trkpt><trkpt lat="40.45117405967611" lon="9.160006548744736"><ele>364.0</ele><time>2026-04-26T10:07:51.532Z</time></trkpt><trkpt lat="40.45112530263002" lon="9.15988049213963"><ele>363.0</ele><time>2026-04-26T10:07:52.532Z</time></trkpt><trkpt lat="40.45109921235994" lon="9.1597385559165"><ele>362.0</ele><time>2026-04-26T10:07:53.532Z</time></trkpt><trkpt lat="40.45109528897845" lon="9.159579361280827"><ele>361.25</ele><time>2026-04-26T10:07:54.532Z</time></trkpt><trkpt lat="40.451108549515524" lon="9.159413531610872"><ele>360.5</ele><time>2026-04-26T10:07:55.532Z</time></trkpt><trkpt lat="40.451119731345386" lon="9.15925210346141"><ele>359.75</ele><time>2026-04-26T10:07:56.532Z</time></trkpt><trkpt lat="40.45113455843819" lon="9.15908549003155"><ele>359.0</ele><time>2026-04-26T10:07:57.532Z</time></trkpt><trkpt lat="40.45114606132009" lon="9.158917637006237"><ele>358.25</ele><time>2026-04-26T10:07:58.532Z</time></trkpt><trkpt lat="40.45115403561336" lon="9.158754274203668"><ele>357.5</ele><time>2026-04-26T10:07:59.532Z</time></trkpt><trkpt lat="40.45116329802908" lon="9.158600465653377"><ele>356.75</ele><time>2026-04-26T10:08:00.532Z</time></trkpt><trkpt lat="40.45117520957956" lon="9.158449985116787"><ele>356.0</ele><time>2026-04-26T10:08:01.532Z</time></trkpt><trkpt lat="40.451189869067484" lon="9.158297291715796"><ele>355.25</ele><time>2026-04-26T10:08:02.532Z</time></trkpt><trkpt lat="40.451204512122466" lon="9.158136383181438"><ele>354.5</ele><time>2026-04-26T10:08:03.532Z</time></trkpt><trkpt lat="40.45121671152981" lon="9.15796753490264"><ele>353.75</ele><time>2026-04-26T10:08:04.532Z</time></trkpt><trkpt lat="40.451228593350955" lon="9.157793149965745"><ele>353.0</ele><time>2026-04-26T10:08:05.531Z</time></trkpt><trkpt lat="40.45124488476875" lon="9.157612167606688"><ele>353.0</ele><time>2026-04-26T10:08:06.531Z</time></trkpt><trkpt lat="40.4512615410338" lon="9.157429792326692"><ele>353.0</ele><time>2026-04-26T10:08:07.531Z</time></trkpt><trkpt lat="40.4512736048613" lon="9.15724571715576"><ele>353.0</ele><time>2026-04-26T10:08:08.531Z</time></trkpt><trkpt lat="40.45128189966232" lon="9.157062381649693"><ele>353.0</ele><time>2026-04-26T10:08:09.531Z</time></trkpt><trkpt lat="40.45121331906798" lon="9.156871620495973"><ele>352.0</ele><time>2026-04-26T10:08:10.531Z</time></trkpt><trkpt lat="40.45112160474214" lon="9.156675087662592"><ele>351.0</ele><time>2026-04-26T10:08:11.531Z</time></trkpt><trkpt lat="40.45103141944845" lon="9.156464323144196"><ele>350.0</ele><time>2026-04-26T10:08:12.531Z</time></trkpt><trkpt lat="40.45092250964331" lon="9.156252150414971"><ele>349.6666666666667</ele><time>2026-04-26T10:08:13.531Z</time></trkpt><trkpt lat="40.45081766820566" lon="9.156046361156609"><ele>349.3333333333333</ele><time>2026-04-26T10:08:14.531Z</time></trkpt><trkpt lat="40.450716375018494" lon="9.155842213748944"><ele>349.0</ele><time>2026-04-26T10:08:15.531Z</time></trkpt><trkpt lat="40.450613139905855" lon="9.155640035214331"><ele>349.0</ele><time>2026-04-26T10:08:16.531Z</time></trkpt><trkpt lat="40.45050195501058" lon="9.155457819612575"><ele>349.0</ele><time>2026-04-26T10:08:17.531Z</time></trkpt><trkpt lat="40.45037073878952" lon="9.155327118837526"><ele>349.0</ele><time>2026-04-26T10:08:18.531Z</time></trkpt><trkpt lat="40.450226773166136" lon="9.155256798885446"><ele>347.66666666666663</ele><time>2026-04-26T10:08:19.531Z</time></trkpt><trkpt lat="40.45006509436471" lon="9.155273531798402"><ele>346.3333333333333</ele><time>2026-04-26T10:08:20.531Z</time></trkpt><trkpt lat="40.449902179705184" lon="9.155337130601218"><ele>345.0</ele><time>2026-04-26T10:08:21.531Z</time></trkpt><trkpt lat="40.44974503946295" lon="9.155451247274616"><ele>344.3333333333333</ele><time>2026-04-26T10:08:22.531Z</time></trkpt><trkpt lat="40.44958305677392" lon="9.155584496899252"><ele>343.66666666666663</ele><time>2026-04-26T10:08:23.531Z</time></trkpt><trkpt lat="40.44941774715856" lon="9.155713811240085"><ele>343.0</ele><time>2026-04-26T10:08:24.531Z</time></trkpt><trkpt lat="40.449249544295924" lon="9.155844221655688"><ele>343.0</ele><time>2026-04-26T10:08:25.531Z</time></trkpt><trkpt lat="40.44907090417381" lon="9.155970056737841"><ele>343.0</ele><time>2026-04-26T10:08:26.531Z</time></trkpt><trkpt lat="40.44889460176745" lon="9.15610691018097"><ele>343.0</ele><time>2026-04-26T10:08:27.53Z</time></trkpt><trkpt lat="40.448717554588065" lon="9.156245238954124"><ele>341.66666666666663</ele><time>2026-04-26T10:08:28.53Z</time></trkpt><trkpt lat="40.44853625245601" lon="9.156387334453665"><ele>340.3333333333333</ele><time>2026-04-26T10:08:29.53Z</time></trkpt><trkpt lat="40.448351347151196" lon="9.156532253997948"><ele>339.0</ele><time>2026-04-26T10:08:30.53Z</time></trkpt><trkpt lat="40.44816641341401" lon="9.156677196448317"><ele>339.0</ele><time>2026-04-26T10:08:31.53Z</time></trkpt><trkpt lat="40.447975737578965" lon="9.156823687558077"><ele>339.0</ele><time>2026-04-26T10:08:32.53Z</time></trkpt><trkpt lat="40.447791143598515" lon="9.15698651562305"><ele>339.0</ele><time>2026-04-26T10:08:33.53Z</time></trkpt><trkpt lat="40.44760450073339" lon="9.15712986752666"><ele>337.3333333333333</ele><time>2026-04-26T10:08:34.53Z</time></trkpt><trkpt lat="40.44741983326007" lon="9.15725196819091"><ele>335.66666666666663</ele><time>2026-04-26T10:08:35.53Z</time></trkpt><trkpt lat="40.44725314824567" lon="9.157380385876682"><ele>334.0</ele><time>2026-04-26T10:08:36.53Z</time></trkpt><trkpt lat="40.447085948760495" lon="9.157509128968078"><ele>332.66666666666663</ele><time>2026-04-26T10:08:37.53Z</time></trkpt><trkpt lat="40.44691624409892" lon="9.157641497736464"><ele>331.3333333333333</ele><time>2026-04-26T10:08:38.53Z</time></trkpt><trkpt lat="40.44675331962129" lon="9.15779127256593"><ele>330.0</ele><time>2026-04-26T10:08:39.53Z</time></trkpt><trkpt lat="40.446579490861346" lon="9.157925043073051"><ele>330.0</ele><time>2026-04-26T10:08:40.53Z</time></trkpt><trkpt lat="40.44640296810096" lon="9.158059293134906"><ele>330.0</ele><time>2026-04-26T10:08:41.53Z</time></trkpt><trkpt lat="40.44623619978107" lon="9.15818398368315"><ele>330.0</ele><time>2026-04-26T10:08:42.53Z</time></trkpt><trkpt lat="40.446074334975776" lon="9.158304861221275"><ele>328.3333333333333</ele><time>2026-04-26T10:08:43.53Z</time></trkpt><trkpt lat="40.44592455826577" lon="9.158412368336828"><ele>326.66666666666663</ele><time>2026-04-26T10:08:44.53Z</time></trkpt><trkpt lat="40.44576999745556" lon="9.158511058923635"><ele>325.0</ele><time>2026-04-26T10:08:45.53Z</time></trkpt><trkpt lat="40.44561017373928" lon="9.15857805309988"><ele>324.0</ele><time>2026-04-26T10:08:46.53Z</time></trkpt><trkpt lat="40.44544685761582" lon="9.158601673546496"><ele>323.0</ele><time>2026-04-26T10:08:47.53Z</time></trkpt><trkpt lat="40.44528020914173" lon="9.15859955179092"><ele>322.0</ele><time>2026-04-26T10:08:48.53Z</time></trkpt><trkpt lat="40.4451107013778" lon="9.158577558250165"><ele>322.0</ele><time>2026-04-26T10:08:49.53Z</time></trkpt><trkpt lat="40.4449383856096" lon="9.158550013811173"><ele>322.0</ele><time>2026-04-26T10:08:50.529Z</time></trkpt><trkpt lat="40.444762974261906" lon="9.158527439731659"><ele>322.0</ele><time>2026-04-26T10:08:51.529Z</time></trkpt><trkpt lat="40.44458244759496" lon="9.158501623690313"><ele>320.3333333333333</ele><time>2026-04-26T10:08:52.53Z</time></trkpt><trkpt lat="40.44440375482825" lon="9.158473073522485"><ele>318.6666666666667</ele><time>2026-04-26T10:08:53.53Z</time></trkpt><trkpt lat="40.44422290039758" lon="9.158443893611741"><ele>317.0</ele><time>2026-04-26T10:08:54.53Z</time></trkpt><trkpt lat="40.44404240553365" lon="9.158418168988305"><ele>317.0</ele><time>2026-04-26T10:08:55.529Z</time></trkpt><trkpt lat="40.443857678093366" lon="9.158400682656467"><ele>317.0</ele><time>2026-04-26T10:08:56.529Z</time></trkpt><trkpt lat="40.44367718965086" lon="9.158374337500588"><ele>317.0</ele><time>2026-04-26T10:08:57.529Z</time></trkpt><trkpt lat="40.4435070834955" lon="9.15835537688937"><ele>316.33333333333337</ele><time>2026-04-26T10:08:58.53Z</time></trkpt><trkpt lat="40.443346020242636" lon="9.158379101330517"><ele>315.6666666666667</ele><time>2026-04-26T10:08:59.529Z</time></trkpt><trkpt lat="40.44319321449602" lon="9.15844735813198"><ele>315.0</ele><time>2026-04-26T10:09:00.529Z</time></trkpt><trkpt lat="40.44305197281718" lon="9.158567304621949"><ele>313.6666666666667</ele><time>2026-04-26T10:09:01.53Z</time></trkpt><trkpt lat="40.44292522388161" lon="9.158717485534314"><ele>312.33333333333337</ele><time>2026-04-26T10:09:02.529Z</time></trkpt><trkpt lat="40.442801129990805" lon="9.158861873069718"><ele>311.0</ele><time>2026-04-26T10:09:03.529Z</time></trkpt><trkpt lat="40.44267049290479" lon="9.159005626425056"><ele>309.33333333333337</ele><time>2026-04-26T10:09:04.529Z</time></trkpt><trkpt lat="40.44254184538949" lon="9.15914378864793"><ele>307.6666666666667</ele><time>2026-04-26T10:09:05.529Z</time></trkpt><trkpt lat="40.44241316216541" lon="9.159282914030841"><ele>306.0</ele><time>2026-04-26T10:09:06.529Z</time></trkpt><trkpt lat="40.442287001080636" lon="9.159415638755751"><ele>306.0</ele><time>2026-04-26T10:09:07.529Z</time></trkpt><trkpt lat="40.442165507668776" lon="9.159544098364494"><ele>306.0</ele><time>2026-04-26T10:09:08.529Z</time></trkpt><trkpt lat="40.44204473276983" lon="9.159672736909723"><ele>306.0</ele><time>2026-04-26T10:09:09.529Z</time></trkpt><trkpt lat="40.441925501241485" lon="9.15980132242795"><ele>305.6666666666667</ele><time>2026-04-26T10:09:10.529Z</time></trkpt><trkpt lat="40.441803313898205" lon="9.159932880648352"><ele>305.33333333333337</ele><time>2026-04-26T10:09:11.529Z</time></trkpt><trkpt lat="40.44167300972132" lon="9.160068248845912"><ele>305.0</ele><time>2026-04-26T10:09:12.529Z</time></trkpt><trkpt lat="40.44154021807095" lon="9.16021288342806"><ele>305.0</ele><time>2026-04-26T10:09:13.529Z</time></trkpt><trkpt lat="40.44140388706" lon="9.16035912564405"><ele>305.0</ele><time>2026-04-26T10:09:14.528Z</time></trkpt><trkpt lat="40.44126319167252" lon="9.160508482483607"><ele>305.0</ele><time>2026-04-26T10:09:15.528Z</time></trkpt><trkpt lat="40.44112125326509" lon="9.160663784542495"><ele>304.33333333333337</ele><time>2026-04-26T10:09:16.528Z</time></trkpt><trkpt lat="40.44097694776164" lon="9.160821648484767"><ele>303.6666666666667</ele><time>2026-04-26T10:09:17.528Z</time></trkpt><trkpt lat="40.44083004637559" lon="9.16098678405087"><ele>303.0</ele><time>2026-04-26T10:09:18.528Z</time></trkpt><trkpt lat="40.44068037839979" lon="9.16115279625149"><ele>303.0</ele><time>2026-04-26T10:09:19.528Z</time></trkpt><trkpt lat="40.44053186574098" lon="9.16131910610344"><ele>303.0</ele><time>2026-04-26T10:09:20.528Z</time></trkpt><trkpt lat="40.440383475608485" lon="9.161485435814306"><ele>303.0</ele><time>2026-04-26T10:09:21.528Z</time></trkpt><trkpt lat="40.44023439321487" lon="9.161650376126053"><ele>302.3333333333333</ele><time>2026-04-26T10:09:22.528Z</time></trkpt><trkpt lat="40.440081718976764" lon="9.161817802393434"><ele>301.66666666666663</ele><time>2026-04-26T10:09:23.528Z</time></trkpt><trkpt lat="40.439934168695494" lon="9.16198209776414"><ele>301.0</ele><time>2026-04-26T10:09:24.528Z</time></trkpt><trkpt lat="40.43978935536459" lon="9.162135252796704"><ele>301.0</ele><time>2026-04-26T10:09:25.528Z</time></trkpt><trkpt lat="40.43965070295845" lon="9.162279435251467"><ele>301.0</ele><time>2026-04-26T10:09:26.528Z</time></trkpt><trkpt lat="40.43951514266824" lon="9.162420478702389"><ele>301.0</ele><time>2026-04-26T10:09:27.528Z</time></trkpt><trkpt lat="40.439382781137404" lon="9.162558016730669"><ele>299.66666666666663</ele><time>2026-04-26T10:09:28.528Z</time></trkpt><trkpt lat="40.4392505700758" lon="9.162688785496819"><ele>298.3333333333333</ele><time>2026-04-26T10:09:29.528Z</time></trkpt><trkpt lat="40.43910326935694" lon="9.162789358018891"><ele>297.0</ele><time>2026-04-26T10:09:30.528Z</time></trkpt><trkpt lat="40.43894834539312" lon="9.162845502487103"><ele>295.3333333333333</ele><time>2026-04-26T10:09:31.528Z</time></trkpt><trkpt lat="40.43878447433371" lon="9.162845180051649"><ele>293.66666666666663</ele><time>2026-04-26T10:09:32.528Z</time></trkpt><trkpt lat="40.43861237874195" lon="9.162879240629929"><ele>292.0</ele><time>2026-04-26T10:09:33.528Z</time></trkpt><trkpt lat="40.43843283297297" lon="9.162875829657054"><ele>292.0</ele><time>2026-04-26T10:09:34.528Z</time></trkpt><trkpt lat="40.43824918915535" lon="9.162878240299188"><ele>292.0</ele><time>2026-04-26T10:09:35.58Z</time></trkpt><trkpt lat="40.43806345163597" lon="9.162888293827345"><ele>292.0</ele><time>2026-04-26T10:09:36.58Z</time></trkpt><trkpt lat="40.43787333760435" lon="9.162893856887385"><ele>290.3333333333333</ele><time>2026-04-26T10:09:37.58Z</time></trkpt><trkpt lat="40.43768779493842" lon="9.162898363516412"><ele>288.6666666666667</ele><time>2026-04-26T10:09:38.58Z</time></trkpt><trkpt lat="40.43750074609348" lon="9.162903736394519"><ele>287.0</ele><time>2026-04-26T10:09:39.58Z</time></trkpt><trkpt lat="40.43731043728292" lon="9.162910480465806"><ele>286.33333333333337</ele><time>2026-04-26T10:09:40.58Z</time></trkpt><trkpt lat="40.43712638643921" lon="9.162920400746279"><ele>285.6666666666667</ele><time>2026-04-26T10:09:41.58Z</time></trkpt><trkpt lat="40.436956744352834" lon="9.162928318376842"><ele>285.0</ele><time>2026-04-26T10:09:42.58Z</time></trkpt><trkpt lat="40.436794277881425" lon="9.162933367047751"><ele>285.0</ele><time>2026-04-26T10:09:43.58Z</time></trkpt><trkpt lat="40.436637480136135" lon="9.162918263824249"><ele>285.0</ele><time>2026-04-26T10:09:44.58Z</time></trkpt><trkpt lat="40.43648511238009" lon="9.162923320733018"><ele>285.0</ele><time>2026-04-26T10:09:45.58Z</time></trkpt><trkpt lat="40.43634051354482" lon="9.162928119799924"><ele>284.0</ele><time>2026-04-26T10:09:46.58Z</time></trkpt><trkpt lat="40.43620511413618" lon="9.16293261357732"><ele>283.0</ele><time>2026-04-26T10:09:47.58Z</time></trkpt><trkpt lat="40.43608460965004" lon="9.162935895504557"><ele>282.0</ele><time>2026-04-26T10:09:48.58Z</time></trkpt><trkpt lat="40.435977583832084" lon="9.162938967647346"><ele>281.0</ele><time>2026-04-26T10:09:49.58Z</time></trkpt><trkpt lat="40.43587326982644" lon="9.162944499145476"><ele>281.0</ele><time>2026-04-26T10:09:50.58Z</time></trkpt><trkpt lat="40.435770918373535" lon="9.162950244812887"><ele>281.0</ele><time>2026-04-26T10:09:51.58Z</time></trkpt><trkpt lat="40.43566266166818" lon="9.16297402778043"><ele>281.0</ele><time>2026-04-26T10:09:52.58Z</time></trkpt><trkpt lat="40.43554517817606" lon="9.162972834421657"><ele>281.0</ele><time>2026-04-26T10:09:53.58Z</time></trkpt><trkpt lat="40.43542702241161" lon="9.162958133884441"><ele>281.0</ele><time>2026-04-26T10:09:54.58Z</time></trkpt><trkpt lat="40.43531486542686" lon="9.162923998128957"><ele>280.40000000000003</ele><time>2026-04-26T10:09:55.579Z</time></trkpt><trkpt lat="40.43520785689439" lon="9.162867670868259"><ele>279.8</ele><time>2026-04-26T10:09:56.579Z</time></trkpt><trkpt lat="40.43511003613045" lon="9.162793330763582"><ele>279.20000000000005</ele><time>2026-04-26T10:09:57.579Z</time></trkpt><trkpt lat="40.435039421183525" lon="9.162683528254394"><ele>278.6</ele><time>2026-04-26T10:09:58.579Z</time></trkpt><trkpt lat="40.43497126381801" lon="9.162586296755583"><ele>278.0</ele><time>2026-04-26T10:09:59.579Z</time></trkpt><trkpt lat="40.43490588086582" lon="9.162482463187283"><ele>278.0</ele><time>2026-04-26T10:10:00.579Z</time></trkpt><trkpt lat="40.43484478052232" lon="9.162371398352482"><ele>278.0</ele><time>2026-04-26T10:10:01.579Z</time></trkpt><trkpt lat="40.434769565995495" lon="9.16226442642958"><ele>278.0</ele><time>2026-04-26T10:10:02.579Z</time></trkpt><trkpt lat="40.434710690302644" lon="9.162146841580297"><ele>278.0</ele><time>2026-04-26T10:10:03.579Z</time></trkpt><trkpt lat="40.43465376819596" lon="9.16203142598504"><ele>278.0</ele><time>2026-04-26T10:10:04.579Z</time></trkpt><trkpt lat="40.43460487619662" lon="9.161908889238507"><ele>278.0</ele><time>2026-04-26T10:10:05.579Z</time></trkpt><trkpt lat="40.43454821873725" lon="9.161801094806206"><ele>278.0</ele><time>2026-04-26T10:10:06.579Z</time></trkpt><trkpt lat="40.43448860807237" lon="9.16169046931923"><ele>278.0</ele><time>2026-04-26T10:10:07.579Z</time></trkpt><trkpt lat="40.43442025877508" lon="9.161582825422691"><ele>278.0</ele><time>2026-04-26T10:10:08.579Z</time></trkpt><trkpt lat="40.434337298743" lon="9.161480658410564"><ele>278.0</ele><time>2026-04-26T10:10:09.579Z</time></trkpt><trkpt lat="40.434243160424906" lon="9.16138845205487"><ele>278.0</ele><time>2026-04-26T10:10:10.579Z</time></trkpt><trkpt lat="40.43413723279236" lon="9.161316413496637"><ele>278.0</ele><time>2026-04-26T10:10:11.579Z</time></trkpt><trkpt lat="40.4340179936281" lon="9.161270108444436"><ele>278.0</ele><time>2026-04-26T10:10:12.579Z</time></trkpt><trkpt lat="40.43389336777099" lon="9.16126093710243"><ele>278.0</ele><time>2026-04-26T10:10:13.579Z</time></trkpt><trkpt lat="40.43377146680155" lon="9.161238094261051"><ele>277.8</ele><time>2026-04-26T10:10:14.579Z</time></trkpt><trkpt lat="40.43365304014763" lon="9.161218920242488"><ele>277.6</ele><time>2026-04-26T10:10:15.579Z</time></trkpt><trkpt lat="40.433546895172256" lon="9.161203421657833"><ele>277.4</ele><time>2026-04-26T10:10:16.579Z</time></trkpt><trkpt lat="40.433451318864215" lon="9.161193497017994"><ele>277.2</ele><time>2026-04-26T10:10:17.579Z</time></trkpt><trkpt lat="40.433363427701956" lon="9.16118485027569"><ele>277.0</ele><time>2026-04-26T10:10:18.579Z</time></trkpt><trkpt lat="40.4332814683123" lon="9.16117693494444"><ele>277.0</ele><time>2026-04-26T10:10:19.579Z</time></trkpt><trkpt lat="40.433206311784645" lon="9.161168137843509"><ele>277.0</ele><time>2026-04-26T10:10:20.578Z</time></trkpt><trkpt lat="40.43313530409359" lon="9.161144000109388"><ele>277.0</ele><time>2026-04-26T10:10:21.578Z</time></trkpt><trkpt lat="40.43306727187143" lon="9.16113546294413"><ele>277.0</ele><time>2026-04-26T10:10:22.578Z</time></trkpt><trkpt lat="40.43296347933185" lon="9.161122513042882"><ele>277.0</ele><time>2026-04-26T10:10:24.578Z</time></trkpt><trkpt lat="40.43289468055754" lon="9.161123870654855"><ele>277.0</ele><time>2026-04-26T10:11:08.577Z</time></trkpt><trkpt lat="40.43276403869832" lon="9.161111603649116"><ele>277.5</ele><time>2026-04-26T10:11:10.577Z</time></trkpt><trkpt lat="40.43266771012986" lon="9.161104294635065"><ele>278.0</ele><time>2026-04-26T10:11:11.577Z</time></trkpt><trkpt lat="40.432553453693316" lon="9.161086745493563"><ele>278.5</ele><time>2026-04-26T10:11:12.577Z</time></trkpt><trkpt lat="40.432443686075885" lon="9.161050912547381"><ele>279.0</ele><time>2026-04-26T10:11:13.577Z</time></trkpt><trkpt lat="40.43231844704595" lon="9.161033321614054"><ele>279.0</ele><time>2026-04-26T10:11:14.577Z</time></trkpt><trkpt lat="40.432182911216806" lon="9.161014755032774"><ele>279.0</ele><time>2026-04-26T10:11:15.577Z</time></trkpt><trkpt lat="40.43204273092932" lon="9.160996655388132"><ele>279.0</ele><time>2026-04-26T10:11:16.577Z</time></trkpt><trkpt lat="40.43189387423598" lon="9.160977435484158"><ele>279.0</ele><time>2026-04-26T10:11:17.577Z</time></trkpt><trkpt lat="40.431739361227066" lon="9.160960648128425"><ele>279.6666666666667</ele><time>2026-04-26T10:11:18.577Z</time></trkpt><trkpt lat="40.431578446019486" lon="9.160943462184301"><ele>280.33333333333337</ele><time>2026-04-26T10:11:19.577Z</time></trkpt><trkpt lat="40.43140695097482" lon="9.160946207038588"><ele>281.0</ele><time>2026-04-26T10:11:20.577Z</time></trkpt><trkpt lat="40.4312328386788" lon="9.160921154164656"><ele>281.0</ele><time>2026-04-26T10:11:21.577Z</time></trkpt><trkpt lat="40.43105534377181" lon="9.16089170168025"><ele>281.0</ele><time>2026-04-26T10:11:22.577Z</time></trkpt><trkpt lat="40.43087042848374" lon="9.160865889529545"><ele>281.0</ele><time>2026-04-26T10:11:23.577Z</time></trkpt><trkpt lat="40.4306800033756" lon="9.160842203183142"><ele>281.0</ele><time>2026-04-26T10:11:24.577Z</time></trkpt><trkpt lat="40.43048689912589" lon="9.160824947197629"><ele>281.0</ele><time>2026-04-26T10:11:25.576Z</time></trkpt><trkpt lat="40.43029859972109" lon="9.160806557390526"><ele>281.0</ele><time>2026-04-26T10:11:26.576Z</time></trkpt><trkpt lat="40.43011685309067" lon="9.160765218488706"><ele>281.0</ele><time>2026-04-26T10:11:27.576Z</time></trkpt><trkpt lat="40.429930219574786" lon="9.160741997471098"><ele>281.0</ele><time>2026-04-26T10:11:28.576Z</time></trkpt><trkpt lat="40.42974417417005" lon="9.160718849628802"><ele>281.0</ele><time>2026-04-26T10:11:29.576Z</time></trkpt><trkpt lat="40.42955933448753" lon="9.160694347809041"><ele>282.33333333333337</ele><time>2026-04-26T10:11:30.576Z</time></trkpt><trkpt lat="40.4293789578431" lon="9.16067007605268"><ele>283.6666666666667</ele><time>2026-04-26T10:11:31.576Z</time></trkpt><trkpt lat="40.42920057736782" lon="9.160646763518798"><ele>285.0</ele><time>2026-04-26T10:11:32.576Z</time></trkpt><trkpt lat="40.429031452308735" lon="9.160625498060762"><ele>285.0</ele><time>2026-04-26T10:11:33.576Z</time></trkpt><trkpt lat="40.428868678681795" lon="9.160607277663198"><ele>285.0</ele><time>2026-04-26T10:11:34.576Z</time></trkpt><trkpt lat="40.42870142382937" lon="9.16060560025817"><ele>285.0</ele><time>2026-04-26T10:11:35.576Z</time></trkpt><trkpt lat="40.42853435773888" lon="9.160634442964211"><ele>285.0</ele><time>2026-04-26T10:11:36.576Z</time></trkpt><trkpt lat="40.42837343876542" lon="9.160700971663305"><ele>285.0</ele><time>2026-04-26T10:11:37.576Z</time></trkpt><trkpt lat="40.42820864956825" lon="9.160773672254766"><ele>285.0</ele><time>2026-04-26T10:11:38.576Z</time></trkpt><trkpt lat="40.428046849459065" lon="9.160847743850054"><ele>283.6666666666667</ele><time>2026-04-26T10:11:39.576Z</time></trkpt><trkpt lat="40.427886446372476" lon="9.160927790636947"><ele>282.33333333333337</ele><time>2026-04-26T10:11:40.576Z</time></trkpt><trkpt lat="40.42772136771561" lon="9.161009859541092"><ele>281.0</ele><time>2026-04-26T10:11:41.576Z</time></trkpt><trkpt lat="40.42755298336742" lon="9.161088877842419"><ele>281.0</ele><time>2026-04-26T10:11:42.576Z</time></trkpt><trkpt lat="40.4273838383526" lon="9.161171490339877"><ele>281.0</ele><time>2026-04-26T10:11:43.576Z</time></trkpt><trkpt lat="40.42720358653766" lon="9.161236164873397"><ele>281.0</ele><time>2026-04-26T10:11:44.576Z</time></trkpt><trkpt lat="40.42703154164604" lon="9.161318336295505"><ele>281.33333333333337</ele><time>2026-04-26T10:11:45.576Z</time></trkpt><trkpt lat="40.426859684423505" lon="9.161421916060043"><ele>281.6666666666667</ele><time>2026-04-26T10:11:46.576Z</time></trkpt><trkpt lat="40.42668434733475" lon="9.161505236993861"><ele>282.0</ele><time>2026-04-26T10:11:47.576Z</time></trkpt><trkpt lat="40.42650947719074" lon="9.161586827790071"><ele>283.0</ele><time>2026-04-26T10:11:48.576Z</time></trkpt><trkpt lat="40.426334427691366" lon="9.161667214969853"><ele>284.0</ele><time>2026-04-26T10:11:49.576Z</time></trkpt><trkpt lat="40.42615728120212" lon="9.161749096653496"><ele>285.0</ele><time>2026-04-26T10:11:50.575Z</time></trkpt><trkpt lat="40.42598534811123" lon="9.161829024554887"><ele>285.0</ele><time>2026-04-26T10:11:51.575Z</time></trkpt><trkpt lat="40.42581584084152" lon="9.161908493461935"><ele>285.0</ele><time>2026-04-26T10:11:52.575Z</time></trkpt><trkpt lat="40.42564876282366" lon="9.161986761542803"><ele>285.0</ele><time>2026-04-26T10:11:53.575Z</time></trkpt><trkpt lat="40.42548444588167" lon="9.162066649531265"><ele>286.3333333333333</ele><time>2026-04-26T10:11:54.575Z</time></trkpt><trkpt lat="40.4253192614671" lon="9.162146262251053"><ele>287.66666666666663</ele><time>2026-04-26T10:11:55.575Z</time></trkpt><trkpt lat="40.42515628474177" lon="9.16222371546824"><ele>289.0</ele><time>2026-04-26T10:11:56.575Z</time></trkpt><trkpt lat="40.424991925907136" lon="9.162299461591218"><ele>289.66666666666663</ele><time>2026-04-26T10:11:57.575Z</time></trkpt><trkpt lat="40.424828178802784" lon="9.162378415754212"><ele>290.3333333333333</ele><time>2026-04-26T10:11:58.575Z</time></trkpt><trkpt lat="40.42465927429545" lon="9.162434970134017"><ele>291.0</ele><time>2026-04-26T10:11:59.575Z</time></trkpt><trkpt lat="40.42449326312081" lon="9.162512035002104"><ele>291.3333333333333</ele><time>2026-04-26T10:12:00.575Z</time></trkpt><trkpt lat="40.42433054274776" lon="9.162589236927273"><ele>291.66666666666663</ele><time>2026-04-26T10:12:01.575Z</time></trkpt><trkpt lat="40.42416665362156" lon="9.162668819027042"><ele>292.0</ele><time>2026-04-26T10:12:02.575Z</time></trkpt><trkpt lat="40.4240081717655" lon="9.162767943133753"><ele>292.0</ele><time>2026-04-26T10:12:03.575Z</time></trkpt><trkpt lat="40.423841434746876" lon="9.162845719858108"><ele>292.0</ele><time>2026-04-26T10:12:04.575Z</time></trkpt><trkpt lat="40.423673355988015" lon="9.16292427356704"><ele>292.0</ele><time>2026-04-26T10:12:05.575Z</time></trkpt><trkpt lat="40.42350465991692" lon="9.16299541596385"><ele>292.66666666666663</ele><time>2026-04-26T10:12:06.575Z</time></trkpt><trkpt lat="40.423331063561676" lon="9.16304979382094"><ele>293.3333333333333</ele><time>2026-04-26T10:12:07.575Z</time></trkpt><trkpt lat="40.42315351105407" lon="9.163073748590822"><ele>294.0</ele><time>2026-04-26T10:12:08.575Z</time></trkpt><trkpt lat="40.42296965492878" lon="9.163079761020645"><ele>294.0</ele><time>2026-04-26T10:12:09.575Z</time></trkpt><trkpt lat="40.42278193147108" lon="9.163074192912473"><ele>294.0</ele><time>2026-04-26T10:12:10.575Z</time></trkpt><trkpt lat="40.42258904089377" lon="9.163078958138312"><ele>294.0</ele><time>2026-04-26T10:12:11.575Z</time></trkpt><trkpt lat="40.422395644489164" lon="9.163084988132887"><ele>294.0</ele><time>2026-04-26T10:12:12.575Z</time></trkpt><trkpt lat="40.422206410326865" lon="9.163084552904094"><ele>294.0</ele><time>2026-04-26T10:12:13.575Z</time></trkpt><trkpt lat="40.42202289445015" lon="9.16306283842496"><ele>294.0</ele><time>2026-04-26T10:12:14.575Z</time></trkpt><trkpt lat="40.421843247571054" lon="9.163086168558493"><ele>295.0</ele><time>2026-04-26T10:12:15.574Z</time></trkpt><trkpt lat="40.421670309449716" lon="9.163100345254572"><ele>296.0</ele><time>2026-04-26T10:12:16.574Z</time></trkpt><trkpt lat="40.421512232052415" lon="9.1631479394388"><ele>297.0</ele><time>2026-04-26T10:12:17.574Z</time></trkpt><trkpt lat="40.42138013235668" lon="9.163251817588733"><ele>297.0</ele><time>2026-04-26T10:12:18.574Z</time></trkpt><trkpt lat="40.421261503531035" lon="9.163398183436705"><ele>297.0</ele><time>2026-04-26T10:12:19.574Z</time></trkpt><trkpt lat="40.42113903620948" lon="9.163562286317532"><ele>297.0</ele><time>2026-04-26T10:12:20.574Z</time></trkpt><trkpt lat="40.42101784189131" lon="9.16372695006762"><ele>297.0</ele><time>2026-04-26T10:12:21.574Z</time></trkpt><trkpt lat="40.420879116335215" lon="9.163875666080115"><ele>297.0</ele><time>2026-04-26T10:12:22.574Z</time></trkpt><trkpt lat="40.42074493476983" lon="9.164041311259103"><ele>297.0</ele><time>2026-04-26T10:12:23.574Z</time></trkpt><trkpt lat="40.42060672569808" lon="9.164206925125137"><ele>296.3333333333333</ele><time>2026-04-26T10:12:24.574Z</time></trkpt><trkpt lat="40.42046720636658" lon="9.164367196771465"><ele>295.66666666666663</ele><time>2026-04-26T10:12:25.574Z</time></trkpt><trkpt lat="40.420316465983056" lon="9.164496701594958"><ele>295.0</ele><time>2026-04-26T10:12:26.574Z</time></trkpt><trkpt lat="40.42013671774371" lon="9.164572333250291"><ele>295.0</ele><time>2026-04-26T10:12:27.574Z</time></trkpt><trkpt lat="40.41994835826269" lon="9.164661255736815"><ele>295.0</ele><time>2026-04-26T10:12:28.574Z</time></trkpt><trkpt lat="40.419747155599296" lon="9.16471936918288"><ele>295.0</ele><time>2026-04-26T10:12:29.574Z</time></trkpt><trkpt lat="40.419544824431384" lon="9.16479110521278"><ele>299.3333333333333</ele><time>2026-04-26T10:12:30.574Z</time></trkpt><trkpt lat="40.41933762093267" lon="9.164871398763859"><ele>303.6666666666667</ele><time>2026-04-26T10:12:31.574Z</time></trkpt><trkpt lat="40.419135030581785" lon="9.164982351198388"><ele>308.0</ele><time>2026-04-26T10:12:32.574Z</time></trkpt><trkpt lat="40.41894043531651" lon="9.165104221281238"><ele>306.33333333333337</ele><time>2026-04-26T10:12:33.574Z</time></trkpt><trkpt lat="40.418768479741146" lon="9.165228872747178"><ele>304.6666666666667</ele><time>2026-04-26T10:12:34.574Z</time></trkpt><trkpt lat="40.418612384865824" lon="9.165372229073544"><ele>303.0</ele><time>2026-04-26T10:12:35.574Z</time></trkpt><trkpt lat="40.418491353572534" lon="9.165529269874762"><ele>304.3333333333333</ele><time>2026-04-26T10:12:36.574Z</time></trkpt><trkpt lat="40.41840260125809" lon="9.165712142815215"><ele>305.66666666666663</ele><time>2026-04-26T10:12:37.574Z</time></trkpt><trkpt lat="40.41833642980638" lon="9.165907813790374"><ele>307.0</ele><time>2026-04-26T10:12:38.574Z</time></trkpt><trkpt lat="40.418282619337106" lon="9.166103348799233"><ele>307.0</ele><time>2026-04-26T10:12:39.574Z</time></trkpt><trkpt lat="40.41820786765706" lon="9.166280329464302"><ele>307.0</ele><time>2026-04-26T10:12:40.574Z</time></trkpt><trkpt lat="40.41810610730713" lon="9.166426481582006"><ele>307.0</ele><time>2026-04-26T10:12:41.573Z</time></trkpt><trkpt lat="40.41799011244156" lon="9.166549118924701"><ele>303.0</ele><time>2026-04-26T10:12:42.573Z</time></trkpt><trkpt lat="40.417846991800204" lon="9.166631602462395"><ele>299.0</ele><time>2026-04-26T10:12:43.573Z</time></trkpt><trkpt lat="40.41769876847494" lon="9.166715654923417"><ele>295.0</ele><time>2026-04-26T10:12:44.573Z</time></trkpt><trkpt lat="40.41756125903793" lon="9.16680634399325"><ele>295.0</ele><time>2026-04-26T10:12:45.573Z</time></trkpt><trkpt lat="40.41741765678558" lon="9.16687894293783"><ele>295.0</ele><time>2026-04-26T10:12:46.573Z</time></trkpt><trkpt lat="40.41728139158838" lon="9.166946170854091"><ele>295.0</ele><time>2026-04-26T10:12:47.573Z</time></trkpt><trkpt lat="40.41714516145265" lon="9.166994348939875"><ele>295.0</ele><time>2026-04-26T10:12:48.573Z</time></trkpt><trkpt lat="40.41701269313353" lon="9.166994844543394"><ele>295.0</ele><time>2026-04-26T10:12:49.573Z</time></trkpt><trkpt lat="40.41688306300709" lon="9.166935971312022"><ele>295.0</ele><time>2026-04-26T10:12:50.573Z</time></trkpt><trkpt lat="40.41678030156304" lon="9.166808956747994"><ele>295.0</ele><time>2026-04-26T10:12:51.573Z</time></trkpt><trkpt lat="40.41667871939854" lon="9.166663657989483"><ele>295.0</ele><time>2026-04-26T10:12:52.573Z</time></trkpt><trkpt lat="40.41656189767371" lon="9.166509075378855"><ele>295.0</ele><time>2026-04-26T10:12:53.573Z</time></trkpt><trkpt lat="40.416436647646144" lon="9.1663445010976"><ele>295.0</ele><time>2026-04-26T10:12:54.573Z</time></trkpt><trkpt lat="40.41630320687488" lon="9.166172891106495"><ele>295.0</ele><time>2026-04-26T10:12:55.573Z</time></trkpt><trkpt lat="40.41614125481703" lon="9.166029317092082"><ele>296.0</ele><time>2026-04-26T10:12:56.573Z</time></trkpt><trkpt lat="40.415986856750095" lon="9.165859164554947"><ele>297.0</ele><time>2026-04-26T10:12:57.573Z</time></trkpt><trkpt lat="40.41581469551149" lon="9.165707630779613"><ele>298.0</ele><time>2026-04-26T10:12:58.573Z</time></trkpt><trkpt lat="40.41563227986342" lon="9.16557762769522"><ele>301.3333333333333</ele><time>2026-04-26T10:12:59.573Z</time></trkpt><trkpt lat="40.41545329988764" lon="9.16544537971912"><ele>304.6666666666667</ele><time>2026-04-26T10:13:00.573Z</time></trkpt><trkpt lat="40.41527063578292" lon="9.165334685170054"><ele>308.0</ele><time>2026-04-26T10:13:01.573Z</time></trkpt><trkpt lat="40.41508782877205" lon="9.16522109883135"><ele>308.0</ele><time>2026-04-26T10:13:02.572Z</time></trkpt><trkpt lat="40.414913687095236" lon="9.16511059071319"><ele>308.0</ele><time>2026-04-26T10:13:03.573Z</time></trkpt><trkpt lat="40.41473600397119" lon="9.165020996659475"><ele>308.0</ele><time>2026-04-26T10:13:04.572Z</time></trkpt><trkpt lat="40.414567893677685" lon="9.164918883213836"><ele>310.0</ele><time>2026-04-26T10:13:05.572Z</time></trkpt><trkpt lat="40.414391805937676" lon="9.164864415537945"><ele>312.0</ele><time>2026-04-26T10:13:06.573Z</time></trkpt><trkpt lat="40.414214236570444" lon="9.164844900303954"><ele>314.0</ele><time>2026-04-26T10:13:07.572Z</time></trkpt><trkpt lat="40.41404229474459" lon="9.164843638422502"><ele>310.33333333333337</ele><time>2026-04-26T10:13:08.572Z</time></trkpt><trkpt lat="40.41387220156877" lon="9.164847536691514"><ele>306.6666666666667</ele><time>2026-04-26T10:13:09.572Z</time></trkpt><trkpt lat="40.41370803696653" lon="9.164845264764994"><ele>303.0</ele><time>2026-04-26T10:13:10.572Z</time></trkpt><trkpt lat="40.413552126588385" lon="9.16486240961519"><ele>306.0</ele><time>2026-04-26T10:13:11.572Z</time></trkpt><trkpt lat="40.413412332229434" lon="9.164931804051172"><ele>309.0</ele><time>2026-04-26T10:13:12.573Z</time></trkpt><trkpt lat="40.413290534076125" lon="9.165050556224458"><ele>312.0</ele><time>2026-04-26T10:13:13.572Z</time></trkpt><trkpt lat="40.41318860846204" lon="9.165225359626984"><ele>312.0</ele><time>2026-04-26T10:13:14.572Z</time></trkpt><trkpt lat="40.41310498893878" lon="9.165423776581003"><ele>312.0</ele><time>2026-04-26T10:13:15.572Z</time></trkpt><trkpt lat="40.41306505785823" lon="9.165633634977004"><ele>312.0</ele><time>2026-04-26T10:13:16.572Z</time></trkpt><trkpt lat="40.41307867483508" lon="9.165830884450374"><ele>314.3333333333333</ele><time>2026-04-26T10:13:17.572Z</time></trkpt><trkpt lat="40.41311965364676" lon="9.166021342190758"><ele>316.66666666666663</ele><time>2026-04-26T10:13:18.572Z</time></trkpt><trkpt lat="40.41316848232426" lon="9.166212867888229"><ele>319.0</ele><time>2026-04-26T10:13:19.572Z</time></trkpt><trkpt lat="40.413243610769285" lon="9.166396557549314"><ele>318.3333333333333</ele><time>2026-04-26T10:13:20.572Z</time></trkpt><trkpt lat="40.41330752055818" lon="9.16659232390077"><ele>317.6666666666667</ele><time>2026-04-26T10:13:21.572Z</time></trkpt><trkpt lat="40.413344976854184" lon="9.166780382652487"><ele>317.0</ele><time>2026-04-26T10:13:22.572Z</time></trkpt><trkpt lat="40.413329810024514" lon="9.166964609042147"><ele>317.0</ele><time>2026-04-26T10:13:23.572Z</time></trkpt><trkpt lat="40.41327252171322" lon="9.167122887681584"><ele>317.0</ele><time>2026-04-26T10:13:24.572Z</time></trkpt><trkpt lat="40.41318266051086" lon="9.167241564735534"><ele>317.0</ele><time>2026-04-26T10:13:25.572Z</time></trkpt><trkpt lat="40.41306504909976" lon="9.167338803766159"><ele>317.0</ele><time>2026-04-26T10:13:26.572Z</time></trkpt><trkpt lat="40.41294004314679" lon="9.167437644276118"><ele>316.6666666666667</ele><time>2026-04-26T10:13:27.572Z</time></trkpt><trkpt lat="40.41280434985205" lon="9.167550308877795"><ele>316.3333333333333</ele><time>2026-04-26T10:13:28.572Z</time></trkpt><trkpt lat="40.41265120188799" lon="9.167654246419794"><ele>316.0</ele><time>2026-04-26T10:13:29.572Z</time></trkpt><trkpt lat="40.412495767845186" lon="9.16778038392379"><ele>316.0</ele><time>2026-04-26T10:13:30.572Z</time></trkpt><trkpt lat="40.41233613686601" lon="9.167909799152246"><ele>316.0</ele><time>2026-04-26T10:13:31.572Z</time></trkpt><trkpt lat="40.41217723905512" lon="9.168037406085933"><ele>316.0</ele><time>2026-04-26T10:13:32.571Z</time></trkpt><trkpt lat="40.412012847823874" lon="9.168167621318197"><ele>318.66666666666663</ele><time>2026-04-26T10:13:33.571Z</time></trkpt><trkpt lat="40.411851721943904" lon="9.16829843142351"><ele>321.3333333333333</ele><time>2026-04-26T10:13:34.571Z</time></trkpt><trkpt lat="40.411695720464905" lon="9.168425902838852"><ele>324.0</ele><time>2026-04-26T10:13:35.571Z</time></trkpt><trkpt lat="40.41152669497551" lon="9.168523679668382"><ele>324.0</ele><time>2026-04-26T10:13:36.571Z</time></trkpt><trkpt lat="40.41135542326393" lon="9.168575261392814"><ele>324.0</ele><time>2026-04-26T10:13:37.571Z</time></trkpt><trkpt lat="40.41118651504248" lon="9.168591326333226"><ele>324.0</ele><time>2026-04-26T10:13:38.571Z</time></trkpt><trkpt lat="40.41101721205329" lon="9.168618089508037"><ele>322.3333333333333</ele><time>2026-04-26T10:13:39.571Z</time></trkpt><trkpt lat="40.41085036498323" lon="9.168637487782547"><ele>320.66666666666663</ele><time>2026-04-26T10:13:40.571Z</time></trkpt><trkpt lat="40.41068717915505" lon="9.168657083951109"><ele>319.0</ele><time>2026-04-26T10:13:41.571Z</time></trkpt><trkpt lat="40.410525817298065" lon="9.168673526838585"><ele>320.0</ele><time>2026-04-26T10:13:42.571Z</time></trkpt><trkpt lat="40.410368547763326" lon="9.168690383643328"><ele>321.0</ele><time>2026-04-26T10:13:43.571Z</time></trkpt><trkpt lat="40.41020782921887" lon="9.168708205593186"><ele>322.0</ele><time>2026-04-26T10:13:44.571Z</time></trkpt><trkpt lat="40.41004653945115" lon="9.168729572669493"><ele>322.0</ele><time>2026-04-26T10:13:45.571Z</time></trkpt><trkpt lat="40.409884522642116" lon="9.168727670079186"><ele>322.0</ele><time>2026-04-26T10:13:46.571Z</time></trkpt><trkpt lat="40.40971675137812" lon="9.168743897903779"><ele>322.0</ele><time>2026-04-26T10:13:47.571Z</time></trkpt><trkpt lat="40.40954350075699" lon="9.16875807453368"><ele>321.66666666666663</ele><time>2026-04-26T10:13:48.571Z</time></trkpt><trkpt lat="40.40936134935664" lon="9.168773224706452"><ele>321.3333333333333</ele><time>2026-04-26T10:13:49.571Z</time></trkpt><trkpt lat="40.40917656555017" lon="9.168791660177899"><ele>321.0</ele><time>2026-04-26T10:13:50.571Z</time></trkpt><trkpt lat="40.40898742096309" lon="9.168810530707525"><ele>321.0</ele><time>2026-04-26T10:13:51.571Z</time></trkpt><trkpt lat="40.40879385805846" lon="9.168829843617605"><ele>321.0</ele><time>2026-04-26T10:13:52.571Z</time></trkpt><trkpt lat="40.40859801482692" lon="9.168849382447547"><ele>321.0</ele><time>2026-04-26T10:13:53.571Z</time></trkpt><trkpt lat="40.40840014504195" lon="9.168882417430654"><ele>321.0</ele><time>2026-04-26T10:13:54.571Z</time></trkpt><trkpt lat="40.40820058814807" lon="9.168889901990116"><ele>321.0</ele><time>2026-04-26T10:13:55.571Z</time></trkpt><trkpt lat="40.408000291715204" lon="9.168906007173426"><ele>321.0</ele><time>2026-04-26T10:13:56.571Z</time></trkpt><trkpt lat="40.407807535006306" lon="9.168931208121723"><ele>321.0</ele><time>2026-04-26T10:13:57.571Z</time></trkpt><trkpt lat="40.40762761425953" lon="9.168982339632361"><ele>321.0</ele><time>2026-04-26T10:13:58.57Z</time></trkpt><trkpt lat="40.4074612827175" lon="9.169087009246084"><ele>321.0</ele><time>2026-04-26T10:13:59.57Z</time></trkpt><trkpt lat="40.407302571780725" lon="9.169224105928691"><ele>323.0</ele><time>2026-04-26T10:14:00.57Z</time></trkpt><trkpt lat="40.40714700742453" lon="9.169372769026992"><ele>325.0</ele><time>2026-04-26T10:14:01.57Z</time></trkpt><trkpt lat="40.40699107208547" lon="9.169528929601759"><ele>327.0</ele><time>2026-04-26T10:14:02.57Z</time></trkpt><trkpt lat="40.40683422162622" lon="9.169688883217265"><ele>327.0</ele><time>2026-04-26T10:14:03.57Z</time></trkpt><trkpt lat="40.40668050652288" lon="9.16984887333278"><ele>327.0</ele><time>2026-04-26T10:14:04.57Z</time></trkpt><trkpt lat="40.40652285982094" lon="9.169975376923858"><ele>327.0</ele><time>2026-04-26T10:14:05.57Z</time></trkpt><trkpt lat="40.40637553673516" lon="9.170090566141917"><ele>329.5</ele><time>2026-04-26T10:14:06.57Z</time></trkpt><trkpt lat="40.406233542626836" lon="9.170178437665486"><ele>332.0</ele><time>2026-04-26T10:14:07.57Z</time></trkpt><trkpt lat="40.40609358233056" lon="9.170218942536152"><ele>334.5</ele><time>2026-04-26T10:14:08.57Z</time></trkpt><trkpt lat="40.40595086116172" lon="9.17018341968606"><ele>337.0</ele><time>2026-04-26T10:14:09.57Z</time></trkpt><trkpt lat="40.40580775054416" lon="9.170106790589088"><ele>337.0</ele><time>2026-04-26T10:14:10.57Z</time></trkpt><trkpt lat="40.4056810163004" lon="9.170016637890082"><ele>337.0</ele><time>2026-04-26T10:14:11.57Z</time></trkpt><trkpt lat="40.40559168682277" lon="9.169898496241274"><ele>337.0</ele><time>2026-04-26T10:14:12.57Z</time></trkpt><trkpt lat="40.40552016481587" lon="9.16974489191193"><ele>337.0</ele><time>2026-04-26T10:14:13.57Z</time></trkpt><trkpt lat="40.4054922862473" lon="9.169546693517447"><ele>342.3333333333333</ele><time>2026-04-26T10:14:14.57Z</time></trkpt><trkpt lat="40.40549235790231" lon="9.169332364312947"><ele>347.6666666666667</ele><time>2026-04-26T10:14:15.57Z</time></trkpt><trkpt lat="40.40547964571422" lon="9.16910828659118"><ele>353.0</ele><time>2026-04-26T10:14:16.57Z</time></trkpt><trkpt lat="40.40546855285407" lon="9.168877436435288"><ele>353.0</ele><time>2026-04-26T10:14:17.57Z</time></trkpt><trkpt lat="40.40543964349643" lon="9.168642309764444"><ele>353.0</ele><time>2026-04-26T10:14:18.57Z</time></trkpt><trkpt lat="40.405418665589295" lon="9.168389168980553"><ele>353.0</ele><time>2026-04-26T10:14:19.57Z</time></trkpt><trkpt lat="40.40539796521771" lon="9.168149478531486"><ele>351.0</ele><time>2026-04-26T10:14:20.57Z</time></trkpt><trkpt lat="40.405378109621836" lon="9.167927684559828"><ele>349.0</ele><time>2026-04-26T10:14:21.57Z</time></trkpt><trkpt lat="40.40535198545943" lon="9.167720799162298"><ele>347.0</ele><time>2026-04-26T10:14:22.57Z</time></trkpt><trkpt lat="40.405294762724346" lon="9.167539981423129"><ele>347.0</ele><time>2026-04-26T10:14:23.569Z</time></trkpt><trkpt lat="40.405214974859994" lon="9.167417475986209"><ele>347.0</ele><time>2026-04-26T10:14:24.569Z</time></trkpt><trkpt lat="40.40509523344308" lon="9.167347777565999"><ele>347.0</ele><time>2026-04-26T10:14:25.569Z</time></trkpt><trkpt lat="40.40495089539787" lon="9.167317584002772"><ele>347.0</ele><time>2026-04-26T10:14:26.569Z</time></trkpt><trkpt lat="40.40478803865922" lon="9.167351126266334"><ele>347.6666666666667</ele><time>2026-04-26T10:14:27.569Z</time></trkpt><trkpt lat="40.40462609500421" lon="9.167406129743169"><ele>348.3333333333333</ele><time>2026-04-26T10:14:28.569Z</time></trkpt><trkpt lat="40.404458184963325" lon="9.167446653603783"><ele>349.0</ele><time>2026-04-26T10:14:29.569Z</time></trkpt><trkpt lat="40.4042813279875" lon="9.167486302120716"><ele>349.0</ele><time>2026-04-26T10:14:30.569Z</time></trkpt><trkpt lat="40.404101095753894" lon="9.16752852384434"><ele>349.0</ele><time>2026-04-26T10:14:31.569Z</time></trkpt><trkpt lat="40.40392102582676" lon="9.167571088695201"><ele>349.0</ele><time>2026-04-26T10:14:32.569Z</time></trkpt><trkpt lat="40.40375401638961" lon="9.167609746132348"><ele>349.25</ele><time>2026-04-26T10:14:33.569Z</time></trkpt><trkpt lat="40.40360176456084" lon="9.16764876998443"><ele>349.5</ele><time>2026-04-26T10:14:34.569Z</time></trkpt><trkpt lat="40.403453594952" lon="9.167681050007241"><ele>349.75</ele><time>2026-04-26T10:14:35.569Z</time></trkpt><trkpt lat="40.403314243513265" lon="9.16768177962712"><ele>350.0</ele><time>2026-04-26T10:14:36.569Z</time></trkpt><trkpt lat="40.403185974223135" lon="9.16763162758312"><ele>350.0</ele><time>2026-04-26T10:14:37.569Z</time></trkpt><trkpt lat="40.40306649768638" lon="9.167542003857877"><ele>350.0</ele><time>2026-04-26T10:14:38.569Z</time></trkpt><trkpt lat="40.402934778669064" lon="9.167438359364319"><ele>350.0</ele><time>2026-04-26T10:14:39.569Z</time></trkpt><trkpt lat="40.40279224539727" lon="9.167337751315161"><ele>352.33333333333337</ele><time>2026-04-26T10:14:40.569Z</time></trkpt><trkpt lat="40.4026621743066" lon="9.167207816855278"><ele>354.6666666666667</ele><time>2026-04-26T10:14:41.569Z</time></trkpt><trkpt lat="40.402524185760676" lon="9.167104068119531"><ele>357.0</ele><time>2026-04-26T10:14:42.569Z</time></trkpt><trkpt lat="40.402401130272715" lon="9.16699244700166"><ele>357.0</ele><time>2026-04-26T10:14:43.569Z</time></trkpt><trkpt lat="40.40230646607581" lon="9.1668569180169"><ele>357.0</ele><time>2026-04-26T10:14:44.569Z</time></trkpt><trkpt lat="40.40222953072501" lon="9.166689463978306"><ele>357.0</ele><time>2026-04-26T10:14:45.569Z</time></trkpt><trkpt lat="40.40215652950114" lon="9.166517393029968"><ele>357.0</ele><time>2026-04-26T10:14:46.569Z</time></trkpt><trkpt lat="40.4020792257563" lon="9.166335123498651"><ele>357.3333333333333</ele><time>2026-04-26T10:14:47.569Z</time></trkpt><trkpt lat="40.401997710674294" lon="9.166142924391705"><ele>357.66666666666663</ele><time>2026-04-26T10:14:48.568Z</time></trkpt><trkpt lat="40.401913991067346" lon="9.165945527437438"><ele>358.0</ele><time>2026-04-26T10:14:49.568Z</time></trkpt><trkpt lat="40.40182695835824" lon="9.16574071166603"><ele>358.3333333333333</ele><time>2026-04-26T10:14:50.568Z</time></trkpt><trkpt lat="40.40173810282884" lon="9.165533874706378"><ele>358.6666666666667</ele><time>2026-04-26T10:14:51.568Z</time></trkpt><trkpt lat="40.401646714652564" lon="9.165321142240415"><ele>359.0</ele><time>2026-04-26T10:14:52.568Z</time></trkpt><trkpt lat="40.401553259770836" lon="9.165103599051527"><ele>359.0</ele><time>2026-04-26T10:14:53.568Z</time></trkpt><trkpt lat="40.401459636687584" lon="9.164885370638533"><ele>359.0</ele><time>2026-04-26T10:14:54.568Z</time></trkpt><trkpt lat="40.40135797721765" lon="9.164670626188238"><ele>359.0</ele><time>2026-04-26T10:14:55.568Z</time></trkpt><trkpt lat="40.40126604671108" lon="9.164455877486887"><ele>359.33333333333337</ele><time>2026-04-26T10:14:56.568Z</time></trkpt><trkpt lat="40.40117653373644" lon="9.164246285612705"><ele>359.6666666666667</ele><time>2026-04-26T10:14:57.568Z</time></trkpt><trkpt lat="40.401097761905255" lon="9.164032882879608"><ele>360.0</ele><time>2026-04-26T10:14:58.568Z</time></trkpt><trkpt lat="40.40099941153602" lon="9.163833199209677"><ele>360.0</ele><time>2026-04-26T10:14:59.568Z</time></trkpt><trkpt lat="40.40086285874748" lon="9.163672680554937"><ele>360.0</ele><time>2026-04-26T10:15:00.568Z</time></trkpt><trkpt lat="40.400729417964804" lon="9.163510902233826"><ele>360.0</ele><time>2026-04-26T10:15:01.568Z</time></trkpt><trkpt lat="40.40059096884188" lon="9.163354394662905"><ele>361.3333333333333</ele><time>2026-04-26T10:15:02.568Z</time></trkpt><trkpt lat="40.40045769048169" lon="9.163190907339864"><ele>362.66666666666663</ele><time>2026-04-26T10:15:03.568Z</time></trkpt><trkpt lat="40.40032157423433" lon="9.163029673676528"><ele>364.0</ele><time>2026-04-26T10:15:04.568Z</time></trkpt><trkpt lat="40.400188230934994" lon="9.16286526731024"><ele>364.0</ele><time>2026-04-26T10:15:05.568Z</time></trkpt><trkpt lat="40.400050297200174" lon="9.162708375515484"><ele>364.0</ele><time>2026-04-26T10:15:06.568Z</time></trkpt><trkpt lat="40.399925350220926" lon="9.162535342507487"><ele>364.0</ele><time>2026-04-26T10:15:07.568Z</time></trkpt><trkpt lat="40.3997834403638" lon="9.162388157596157"><ele>366.0</ele><time>2026-04-26T10:15:08.568Z</time></trkpt><trkpt lat="40.39965278682922" lon="9.16222243757524"><ele>368.0</ele><time>2026-04-26T10:15:09.568Z</time></trkpt><trkpt lat="40.39951742499405" lon="9.162062296751818"><ele>370.0</ele><time>2026-04-26T10:15:10.568Z</time></trkpt><trkpt lat="40.399382938179755" lon="9.161898567609125"><ele>370.0</ele><time>2026-04-26T10:15:11.568Z</time></trkpt><trkpt lat="40.39924995042147" lon="9.161735081237634"><ele>370.0</ele><time>2026-04-26T10:15:12.568Z</time></trkpt><trkpt lat="40.39911421615427" lon="9.161573241772189"><ele>370.0</ele><time>2026-04-26T10:15:13.568Z</time></trkpt><trkpt lat="40.39897615496165" lon="9.16141572772573"><ele>370.0</ele><time>2026-04-26T10:15:14.568Z</time></trkpt><trkpt lat="40.398840535254116" lon="9.161259673271845"><ele>370.0</ele><time>2026-04-26T10:15:15.568Z</time></trkpt><trkpt lat="40.39870646047871" lon="9.161100725203122"><ele>370.0</ele><time>2026-04-26T10:15:16.567Z</time></trkpt><trkpt lat="40.39857263014845" lon="9.1609398506759"><ele>371.66666666666663</ele><time>2026-04-26T10:15:17.567Z</time></trkpt><trkpt lat="40.39843834874669" lon="9.16077811497673"><ele>373.3333333333333</ele><time>2026-04-26T10:15:18.568Z</time></trkpt><trkpt lat="40.398307853919306" lon="9.160615677816198"><ele>375.0</ele><time>2026-04-26T10:15:19.568Z</time></trkpt><trkpt lat="40.39818851328891" lon="9.16043554304407"><ele>375.0</ele><time>2026-04-26T10:15:20.568Z</time></trkpt><trkpt lat="40.39805297354447" lon="9.160274886248413"><ele>375.0</ele><time>2026-04-26T10:15:21.568Z</time></trkpt><trkpt lat="40.39791743876103" lon="9.160114731169667"><ele>375.0</ele><time>2026-04-26T10:15:22.568Z</time></trkpt><trkpt lat="40.39778247948464" lon="9.159952115721577"><ele>377.6666666666667</ele><time>2026-04-26T10:15:23.567Z</time></trkpt><trkpt lat="40.39764643003673" lon="9.159787903180002"><ele>380.33333333333337</ele><time>2026-04-26T10:15:24.567Z</time></trkpt><trkpt lat="40.397512441218744" lon="9.159626178129505"><ele>383.0</ele><time>2026-04-26T10:15:25.567Z</time></trkpt><trkpt lat="40.39737903627452" lon="9.159465156632091"><ele>383.0</ele><time>2026-04-26T10:15:26.567Z</time></trkpt><trkpt lat="40.39725041583141" lon="9.159309911332148"><ele>383.0</ele><time>2026-04-26T10:15:27.567Z</time></trkpt><trkpt lat="40.39712160112487" lon="9.159154431015741"><ele>383.0</ele><time>2026-04-26T10:15:28.567Z</time></trkpt><trkpt lat="40.39698442025376" lon="9.159011125733533"><ele>384.33333333333337</ele><time>2026-04-26T10:15:29.567Z</time></trkpt><trkpt lat="40.39685877387267" lon="9.158851772802947"><ele>385.6666666666667</ele><time>2026-04-26T10:15:30.567Z</time></trkpt><trkpt lat="40.39672494757034" lon="9.158711184524378"><ele>387.0</ele><time>2026-04-26T10:15:31.567Z</time></trkpt><trkpt lat="40.39657733476378" lon="9.158596669981582"><ele>387.0</ele><time>2026-04-26T10:15:32.567Z</time></trkpt><trkpt lat="40.396417270854826" lon="9.158519409390312"><ele>387.0</ele><time>2026-04-26T10:15:33.567Z</time></trkpt><trkpt lat="40.39624082268215" lon="9.158488564179699"><ele>387.0</ele><time>2026-04-26T10:15:34.567Z</time></trkpt><trkpt lat="40.39606353213229" lon="9.158471072483769"><ele>387.66666666666663</ele><time>2026-04-26T10:15:35.567Z</time></trkpt><trkpt lat="40.395886939654176" lon="9.158444554190359"><ele>388.3333333333333</ele><time>2026-04-26T10:15:36.567Z</time></trkpt><trkpt lat="40.395708414131704" lon="9.15841903682084"><ele>389.0</ele><time>2026-04-26T10:15:37.567Z</time></trkpt><trkpt lat="40.39553100156923" lon="9.158373192795203"><ele>390.66666666666663</ele><time>2026-04-26T10:15:38.567Z</time></trkpt><trkpt lat="40.39535370074799" lon="9.158345405571518"><ele>392.33333333333337</ele><time>2026-04-26T10:15:39.567Z</time></trkpt><trkpt lat="40.395174914068704" lon="9.158317385464645"><ele>394.0</ele><time>2026-04-26T10:15:40.567Z</time></trkpt><trkpt lat="40.39499476221848" lon="9.15828915142007"><ele>394.0</ele><time>2026-04-26T10:15:41.567Z</time></trkpt><trkpt lat="40.394813753615516" lon="9.158260940319703"><ele>394.0</ele><time>2026-04-26T10:15:42.567Z</time></trkpt><trkpt lat="40.39463368596226" lon="9.158235381333366"><ele>394.0</ele><time>2026-04-26T10:15:43.567Z</time></trkpt><trkpt lat="40.394457686137876" lon="9.158210427995613"><ele>392.33333333333337</ele><time>2026-04-26T10:15:44.567Z</time></trkpt><trkpt lat="40.39428431069143" lon="9.158185744905605"><ele>390.66666666666663</ele><time>2026-04-26T10:15:45.567Z</time></trkpt><trkpt lat="40.39411222349061" lon="9.15817000801215"><ele>389.0</ele><time>2026-04-26T10:15:46.567Z</time></trkpt><trkpt lat="40.393948303516865" lon="9.15810986285535"><ele>392.66666666666663</ele><time>2026-04-26T10:15:47.567Z</time></trkpt><trkpt lat="40.39379464457185" lon="9.158019850726843"><ele>396.33333333333337</ele><time>2026-04-26T10:15:48.567Z</time></trkpt><trkpt lat="40.39364887016733" lon="9.157906983145129"><ele>400.0</ele><time>2026-04-26T10:15:49.566Z</time></trkpt><trkpt lat="40.393503813444035" lon="9.157792258045422"><ele>400.0</ele><time>2026-04-26T10:15:50.566Z</time></trkpt><trkpt lat="40.393356376420414" lon="9.157691494311154"><ele>400.0</ele><time>2026-04-26T10:15:51.566Z</time></trkpt><trkpt lat="40.39322389298234" lon="9.15758358668887"><ele>400.0</ele><time>2026-04-26T10:15:52.566Z</time></trkpt><trkpt lat="40.393077123192846" lon="9.157554555992586"><ele>401.5</ele><time>2026-04-26T10:15:53.566Z</time></trkpt><trkpt lat="40.392944187579474" lon="9.157573791763523"><ele>403.0</ele><time>2026-04-26T10:15:54.566Z</time></trkpt><trkpt lat="40.39280978320313" lon="9.157631586485628"><ele>404.5</ele><time>2026-04-26T10:15:55.566Z</time></trkpt><trkpt lat="40.392700387459435" lon="9.157776443681653"><ele>406.0</ele><time>2026-04-26T10:15:56.566Z</time></trkpt><trkpt lat="40.39259929747589" lon="9.157929505373534"><ele>406.0</ele><time>2026-04-26T10:15:57.566Z</time></trkpt><trkpt lat="40.39249689284057" lon="9.158092756016146"><ele>406.0</ele><time>2026-04-26T10:15:58.566Z</time></trkpt><trkpt lat="40.3923814735185" lon="9.158267257112863"><ele>406.0</ele><time>2026-04-26T10:15:59.566Z</time></trkpt><trkpt lat="40.39226623114099" lon="9.1584352486785"><ele>408.33333333333337</ele><time>2026-04-26T10:16:00.566Z</time></trkpt><trkpt lat="40.3921471965213" lon="9.158598877505465"><ele>410.66666666666663</ele><time>2026-04-26T10:16:01.566Z</time></trkpt><trkpt lat="40.39202508639215" lon="9.158754062375769"><ele>413.0</ele><time>2026-04-26T10:16:02.566Z</time></trkpt><trkpt lat="40.39188524743574" lon="9.15888801247398"><ele>413.0</ele><time>2026-04-26T10:16:03.566Z</time></trkpt><trkpt lat="40.39173126350079" lon="9.15899602111073"><ele>413.0</ele><time>2026-04-26T10:16:04.566Z</time></trkpt><trkpt lat="40.391585640522415" lon="9.159093000445322"><ele>413.0</ele><time>2026-04-26T10:16:05.566Z</time></trkpt><trkpt lat="40.39142905330486" lon="9.159196132583174"><ele>413.0</ele><time>2026-04-26T10:16:06.566Z</time></trkpt><trkpt lat="40.391284477327794" lon="9.159303053491785"><ele>413.0</ele><time>2026-04-26T10:16:07.566Z</time></trkpt><trkpt lat="40.391129355752184" lon="9.159407709044116"><ele>413.0</ele><time>2026-04-26T10:16:08.566Z</time></trkpt><trkpt lat="40.39096052340143" lon="9.159467259589512"><ele>413.0</ele><time>2026-04-26T10:16:09.566Z</time></trkpt><trkpt lat="40.39079759882319" lon="9.159524186027081"><ele>413.0</ele><time>2026-04-26T10:16:10.566Z</time></trkpt><trkpt lat="40.390638227351914" lon="9.159550084121692"><ele>413.0</ele><time>2026-04-26T10:16:11.566Z</time></trkpt><trkpt lat="40.39046923128021" lon="9.159546932936912"><ele>414.0</ele><time>2026-04-26T10:16:12.566Z</time></trkpt><trkpt lat="40.39029645833287" lon="9.159539171414975"><ele>415.0</ele><time>2026-04-26T10:16:13.566Z</time></trkpt><trkpt lat="40.39011962108457" lon="9.159530303546948"><ele>416.0</ele><time>2026-04-26T10:16:14.565Z</time></trkpt><trkpt lat="40.38994351961151" lon="9.159521472572276"><ele>416.0</ele><time>2026-04-26T10:16:15.565Z</time></trkpt><trkpt lat="40.38976662399349" lon="9.159512601764916"><ele>416.0</ele><time>2026-04-26T10:16:16.565Z</time></trkpt><trkpt lat="40.38959663850564" lon="9.159504079099777"><ele>416.0</ele><time>2026-04-26T10:16:17.565Z</time></trkpt><trkpt lat="40.3894414282998" lon="9.159496257119343"><ele>417.3333333333333</ele><time>2026-04-26T10:16:18.565Z</time></trkpt><trkpt lat="40.389287921334926" lon="9.15948852772144"><ele>418.66666666666663</ele><time>2026-04-26T10:16:19.565Z</time></trkpt><trkpt lat="40.389132592838514" lon="9.159480706609145"><ele>420.0</ele><time>2026-04-26T10:16:20.565Z</time></trkpt><trkpt lat="40.38897649637762" lon="9.159472846826441"><ele>421.0</ele><time>2026-04-26T10:16:21.565Z</time></trkpt><trkpt lat="40.38882580447023" lon="9.159465259173533"><ele>422.0</ele><time>2026-04-26T10:16:22.565Z</time></trkpt><trkpt lat="40.388680092692574" lon="9.159459921168736"><ele>423.0</ele><time>2026-04-26T10:16:23.565Z</time></trkpt><trkpt lat="40.38853760801841" lon="9.159455673376543"><ele>424.0</ele><time>2026-04-26T10:16:24.565Z</time></trkpt><trkpt lat="40.388393243064414" lon="9.159457507246897"><ele>424.0</ele><time>2026-04-26T10:16:25.565Z</time></trkpt><trkpt lat="40.38824344112515" lon="9.159494735717512"><ele>424.0</ele><time>2026-04-26T10:16:26.565Z</time></trkpt><trkpt lat="40.38810268287425" lon="9.159543465569271"><ele>424.0</ele><time>2026-04-26T10:16:27.565Z</time></trkpt><trkpt lat="40.38796129250165" lon="9.159593744192179"><ele>424.0</ele><time>2026-04-26T10:16:28.565Z</time></trkpt><trkpt lat="40.387817189805965" lon="9.159645973892998"><ele>425.6666666666667</ele><time>2026-04-26T10:16:29.565Z</time></trkpt><trkpt lat="40.3876699630591" lon="9.159701354134421"><ele>427.33333333333337</ele><time>2026-04-26T10:16:30.565Z</time></trkpt><trkpt lat="40.38752436081245" lon="9.159757779023003"><ele>429.0</ele><time>2026-04-26T10:16:31.565Z</time></trkpt><trkpt lat="40.387376108761536" lon="9.159813115551614"><ele>429.66666666666663</ele><time>2026-04-26T10:16:32.565Z</time></trkpt><trkpt lat="40.387231349738336" lon="9.159886894605737"><ele>430.3333333333333</ele><time>2026-04-26T10:16:33.565Z</time></trkpt><trkpt lat="40.38708177480959" lon="9.159938320689644"><ele>431.0</ele><time>2026-04-26T10:16:34.565Z</time></trkpt><trkpt lat="40.38692661885049" lon="9.15999016268138"><ele>432.3333333333333</ele><time>2026-04-26T10:16:35.565Z</time></trkpt><trkpt lat="40.38676158714726" lon="9.160018669866147"><ele>433.66666666666663</ele><time>2026-04-26T10:16:36.565Z</time></trkpt><trkpt lat="40.38659724929564" lon="9.160013700501116"><ele>435.0</ele><time>2026-04-26T10:16:37.565Z</time></trkpt><trkpt lat="40.38642195661417" lon="9.15999301894436"><ele>436.66666666666663</ele><time>2026-04-26T10:16:38.565Z</time></trkpt><trkpt lat="40.386235198105034" lon="9.159965633045704"><ele>438.3333333333333</ele><time>2026-04-26T10:16:39.565Z</time></trkpt><trkpt lat="40.38604715808051" lon="9.15994228906354"><ele>440.0</ele><time>2026-04-26T10:16:40.564Z</time></trkpt><trkpt lat="40.38585606108392" lon="9.159918424876597"><ele>440.0</ele><time>2026-04-26T10:16:41.564Z</time></trkpt><trkpt lat="40.385671097286604" lon="9.159897938600214"><ele>440.0</ele><time>2026-04-26T10:16:42.564Z</time></trkpt><trkpt lat="40.38549468894988" lon="9.159885118850198"><ele>440.0</ele><time>2026-04-26T10:16:43.564Z</time></trkpt><trkpt lat="40.385322670133164" lon="9.159891300617023"><ele>442.3333333333333</ele><time>2026-04-26T10:16:44.564Z</time></trkpt><trkpt lat="40.38515702082919" lon="9.15994457838509"><ele>444.66666666666663</ele><time>2026-04-26T10:16:45.564Z</time></trkpt><trkpt lat="40.3850014502619" lon="9.160044312439597"><ele>447.0</ele><time>2026-04-26T10:16:46.564Z</time></trkpt><trkpt lat="40.384851442270744" lon="9.160170747974881"><ele>447.0</ele><time>2026-04-26T10:16:47.564Z</time></trkpt><trkpt lat="40.38470080417723" lon="9.16030840726941"><ele>447.0</ele><time>2026-04-26T10:16:48.564Z</time></trkpt><trkpt lat="40.38454816260247" lon="9.160445832377341"><ele>447.0</ele><time>2026-04-26T10:16:49.564Z</time></trkpt><trkpt lat="40.38439221256947" lon="9.160582753212541"><ele>448.33333333333337</ele><time>2026-04-26T10:16:50.564Z</time></trkpt><trkpt lat="40.384213771484795" lon="9.160678706291824"><ele>449.6666666666667</ele><time>2026-04-26T10:16:51.564Z</time></trkpt><trkpt lat="40.38403868285658" lon="9.160796660626795"><ele>451.0</ele><time>2026-04-26T10:16:52.564Z</time></trkpt><trkpt lat="40.38384987887167" lon="9.16086306697195"><ele>452.6666666666667</ele><time>2026-04-26T10:16:53.564Z</time></trkpt><trkpt lat="40.38364915040654" lon="9.160886697840697"><ele>454.33333333333337</ele><time>2026-04-26T10:16:54.564Z</time></trkpt><trkpt lat="40.383453857739624" lon="9.160952788523772"><ele>456.0</ele><time>2026-04-26T10:16:55.564Z</time></trkpt><trkpt lat="40.38326067921229" lon="9.160996424885974"><ele>456.0</ele><time>2026-04-26T10:16:56.564Z</time></trkpt><trkpt lat="40.38308092652241" lon="9.161040603361918"><ele>456.0</ele><time>2026-04-26T10:16:57.564Z</time></trkpt><trkpt lat="40.38291075357986" lon="9.161083046778044"><ele>456.0</ele><time>2026-04-26T10:16:58.564Z</time></trkpt><trkpt lat="40.38274855047583" lon="9.161103505566642"><ele>457.25</ele><time>2026-04-26T10:16:59.564Z</time></trkpt><trkpt lat="40.38259767600568" lon="9.161142282092056"><ele>458.5</ele><time>2026-04-26T10:17:00.564Z</time></trkpt><trkpt lat="40.38245500205977" lon="9.161178944002902"><ele>459.75</ele><time>2026-04-26T10:17:01.564Z</time></trkpt><trkpt lat="40.382325075773814" lon="9.161211359903927"><ele>461.0</ele><time>2026-04-26T10:17:02.564Z</time></trkpt><trkpt lat="40.38218910903437" lon="9.161255664237046"><ele>462.0</ele><time>2026-04-26T10:17:03.564Z</time></trkpt><trkpt lat="40.38203644812433" lon="9.16129404371992"><ele>463.0</ele><time>2026-04-26T10:17:04.564Z</time></trkpt><trkpt lat="40.38188537229327" lon="9.161306657619955"><ele>464.0</ele><time>2026-04-26T10:17:05.563Z</time></trkpt><trkpt lat="40.38172880477784" lon="9.16132270604311"><ele>464.0</ele><time>2026-04-26T10:17:06.563Z</time></trkpt><trkpt lat="40.38155953877064" lon="9.161323026650848"><ele>464.0</ele><time>2026-04-26T10:17:07.563Z</time></trkpt><trkpt lat="40.3813907165602" lon="9.161310587858605"><ele>464.0</ele><time>2026-04-26T10:17:08.563Z</time></trkpt><trkpt lat="40.3812163941523" lon="9.16131565446196"><ele>464.3333333333333</ele><time>2026-04-26T10:17:09.563Z</time></trkpt><trkpt lat="40.381034236219236" lon="9.161302573448276"><ele>464.66666666666663</ele><time>2026-04-26T10:17:10.563Z</time></trkpt><trkpt lat="40.380845761347835" lon="9.161269036588548"><ele>465.0</ele><time>2026-04-26T10:17:11.563Z</time></trkpt><trkpt lat="40.38065569121605" lon="9.161253868241726"><ele>467.0</ele><time>2026-04-26T10:17:12.564Z</time></trkpt><trkpt lat="40.38046344714537" lon="9.161236859747842"><ele>469.0</ele><time>2026-04-26T10:17:13.564Z</time></trkpt><trkpt lat="40.38027181341703" lon="9.161219903751029"><ele>471.0</ele><time>2026-04-26T10:17:14.564Z</time></trkpt><trkpt lat="40.380073786514025" lon="9.16120238207484"><ele>471.0</ele><time>2026-04-26T10:17:15.563Z</time></trkpt><trkpt lat="40.37987633085541" lon="9.161186361324857"><ele>471.0</ele><time>2026-04-26T10:17:16.564Z</time></trkpt><trkpt lat="40.379676169862385" lon="9.161170546599571"><ele>471.0</ele><time>2026-04-26T10:17:17.564Z</time></trkpt><trkpt lat="40.37947670814014" lon="9.161154787121557"><ele>471.0</ele><time>2026-04-26T10:17:18.563Z</time></trkpt><trkpt lat="40.37927698186724" lon="9.161139006748382"><ele>471.0</ele><time>2026-04-26T10:17:19.563Z</time></trkpt><trkpt lat="40.379077914383664" lon="9.161123278418314"><ele>471.0</ele><time>2026-04-26T10:17:20.563Z</time></trkpt><trkpt lat="40.378883103754575" lon="9.161107886420492"><ele>470.0</ele><time>2026-04-26T10:17:21.563Z</time></trkpt><trkpt lat="40.37869003899153" lon="9.16109263237612"><ele>469.0</ele><time>2026-04-26T10:17:22.564Z</time></trkpt><trkpt lat="40.37849923689657" lon="9.161077557091565"><ele>468.0</ele><time>2026-04-26T10:17:23.564Z</time></trkpt><trkpt lat="40.378310732017646" lon="9.161062781210475"><ele>468.0</ele><time>2026-04-26T10:17:24.563Z</time></trkpt><trkpt lat="40.37813766028413" lon="9.1610534846857"><ele>468.0</ele><time>2026-04-26T10:17:25.563Z</time></trkpt><trkpt lat="40.37797085798052" lon="9.16106094212967"><ele>468.0</ele><time>2026-04-26T10:17:26.563Z</time></trkpt><trkpt lat="40.377824482618436" lon="9.161109551261083"><ele>468.25</ele><time>2026-04-26T10:17:27.563Z</time></trkpt><trkpt lat="40.37770600516028" lon="9.161206704824236"><ele>468.5</ele><time>2026-04-26T10:17:28.563Z</time></trkpt><trkpt lat="40.377611551293434" lon="9.161342766911703"><ele>468.75</ele><time>2026-04-26T10:17:29.563Z</time></trkpt><trkpt lat="40.377556004055634" lon="9.161530138330573"><ele>469.0</ele><time>2026-04-26T10:17:30.563Z</time></trkpt><trkpt lat="40.37751403676611" lon="9.161721671392291"><ele>469.0</ele><time>2026-04-26T10:17:31.563Z</time></trkpt><trkpt lat="40.37749458187596" lon="9.161929520645888"><ele>469.0</ele><time>2026-04-26T10:17:32.563Z</time></trkpt><trkpt lat="40.37747080409798" lon="9.162146987464471"><ele>469.0</ele><time>2026-04-26T10:17:33.563Z</time></trkpt><trkpt lat="40.37744800011439" lon="9.162371321556888"><ele>469.33333333333337</ele><time>2026-04-26T10:17:34.563Z</time></trkpt><trkpt lat="40.377429540471894" lon="9.162601227678271"><ele>469.66666666666663</ele><time>2026-04-26T10:17:35.563Z</time></trkpt><trkpt lat="40.3773983411365" lon="9.162835239513168"><ele>470.0</ele><time>2026-04-26T10:17:36.563Z</time></trkpt><trkpt lat="40.37736697145666" lon="9.163052049005245"><ele>471.3333333333333</ele><time>2026-04-26T10:17:37.563Z</time></trkpt><trkpt lat="40.37735370999903" lon="9.163273762348268"><ele>472.66666666666663</ele><time>2026-04-26T10:17:38.563Z</time></trkpt><trkpt lat="40.37736423532754" lon="9.163500647533223"><ele>474.0</ele><time>2026-04-26T10:17:39.563Z</time></trkpt><trkpt lat="40.37739989059176" lon="9.163728478665284"><ele>474.0</ele><time>2026-04-26T10:17:40.563Z</time></trkpt><trkpt lat="40.377452017407904" lon="9.163957897791212"><ele>474.0</ele><time>2026-04-26T10:17:41.563Z</time></trkpt><trkpt lat="40.377502953016055" lon="9.164192439553405"><ele>474.0</ele><time>2026-04-26T10:17:42.562Z</time></trkpt><trkpt lat="40.37755696106114" lon="9.16443790968395"><ele>474.66666666666663</ele><time>2026-04-26T10:17:43.562Z</time></trkpt><trkpt lat="40.37761273169494" lon="9.164676518756393"><ele>475.3333333333333</ele><time>2026-04-26T10:17:44.562Z</time></trkpt><trkpt lat="40.377668896325446" lon="9.164912587288663"><ele>476.0</ele><time>2026-04-26T10:17:45.562Z</time></trkpt><trkpt lat="40.377726283050464" lon="9.165149996288594"><ele>476.3333333333333</ele><time>2026-04-26T10:17:46.562Z</time></trkpt><trkpt lat="40.37778008349003" lon="9.16539155010798"><ele>476.66666666666663</ele><time>2026-04-26T10:17:47.562Z</time></trkpt><trkpt lat="40.377830632542825" lon="9.165634996246022"><ele>477.0</ele><time>2026-04-26T10:17:48.562Z</time></trkpt><trkpt lat="40.37787927390543" lon="9.165868766554725"><ele>478.66666666666663</ele><time>2026-04-26T10:17:49.562Z</time></trkpt><trkpt lat="40.377928344822855" lon="9.166097201426545"><ele>480.3333333333333</ele><time>2026-04-26T10:17:50.562Z</time></trkpt><trkpt lat="40.37797599002987" lon="9.16632423139474"><ele>482.0</ele><time>2026-04-26T10:17:51.562Z</time></trkpt><trkpt lat="40.37800758550597" lon="9.166549355961324"><ele>484.3333333333333</ele><time>2026-04-26T10:17:52.562Z</time></trkpt><trkpt lat="40.37802214683204" lon="9.166767227209393"><ele>486.66666666666663</ele><time>2026-04-26T10:17:53.562Z</time></trkpt><trkpt lat="40.37799861501947" lon="9.166985927822134"><ele>489.0</ele><time>2026-04-26T10:17:54.562Z</time></trkpt><trkpt lat="40.37797018580435" lon="9.167204298592177"><ele>489.66666666666663</ele><time>2026-04-26T10:17:55.562Z</time></trkpt><trkpt lat="40.377939934517215" lon="9.167422497678036"><ele>490.3333333333333</ele><time>2026-04-26T10:17:56.562Z</time></trkpt><trkpt lat="40.377910130346656" lon="9.167645614085263"><ele>491.0</ele><time>2026-04-26T10:17:57.562Z</time></trkpt><trkpt lat="40.3778800342281" lon="9.167871519071017"><ele>491.0</ele><time>2026-04-26T10:17:58.562Z</time></trkpt><trkpt lat="40.377850703115904" lon="9.16809788685932"><ele>491.0</ele><time>2026-04-26T10:17:59.562Z</time></trkpt><trkpt lat="40.37783772868421" lon="9.16832734343561"><ele>491.0</ele><time>2026-04-26T10:18:00.562Z</time></trkpt><trkpt lat="40.37780324514208" lon="9.16855885724956"><ele>491.66666666666663</ele><time>2026-04-26T10:18:01.562Z</time></trkpt><trkpt lat="40.377772129459636" lon="9.168787643840524"><ele>492.33333333333337</ele><time>2026-04-26T10:18:02.562Z</time></trkpt><trkpt lat="40.3777397673147" lon="9.169020156301682"><ele>493.0</ele><time>2026-04-26T10:18:03.562Z</time></trkpt><trkpt lat="40.377712014934076" lon="9.16925364322901"><ele>493.33333333333337</ele><time>2026-04-26T10:18:04.562Z</time></trkpt><trkpt lat="40.3776752190831" lon="9.169488625525725"><ele>493.66666666666663</ele><time>2026-04-26T10:18:05.562Z</time></trkpt><trkpt lat="40.37765003476819" lon="9.16972204084734"><ele>494.0</ele><time>2026-04-26T10:18:06.562Z</time></trkpt><trkpt lat="40.37762908087803" lon="9.16995900471564"><ele>493.0</ele><time>2026-04-26T10:18:07.562Z</time></trkpt><trkpt lat="40.37762390366337" lon="9.170192364692921"><ele>492.0</ele><time>2026-04-26T10:18:08.561Z</time></trkpt><trkpt lat="40.37762475151336" lon="9.170421584414743"><ele>491.0</ele><time>2026-04-26T10:18:09.561Z</time></trkpt><trkpt lat="40.377632480624804" lon="9.170641240354543"><ele>491.75</ele><time>2026-04-26T10:18:10.561Z</time></trkpt><trkpt lat="40.37763784109533" lon="9.170835055175912"><ele>492.5</ele><time>2026-04-26T10:18:11.561Z</time></trkpt><trkpt lat="40.37762115790704" lon="9.171017929497577"><ele>493.25</ele><time>2026-04-26T10:18:12.561Z</time></trkpt><trkpt lat="40.37756445149976" lon="9.171174917514477"><ele>494.0</ele><time>2026-04-26T10:18:13.561Z</time></trkpt><trkpt lat="40.377471861306375" lon="9.171305363083642"><ele>494.0</ele><time>2026-04-26T10:18:14.561Z</time></trkpt><trkpt lat="40.37734728768802" lon="9.171388443055195"><ele>494.0</ele><time>2026-04-26T10:18:15.561Z</time></trkpt><trkpt lat="40.377231075713986" lon="9.171506304629776"><ele>494.0</ele><time>2026-04-26T10:18:16.561Z</time></trkpt><trkpt lat="40.37710361753672" lon="9.171592399104098"><ele>494.0</ele><time>2026-04-26T10:18:17.561Z</time></trkpt><trkpt lat="40.37697276142311" lon="9.171640974131606"><ele>496.25</ele><time>2026-04-26T10:18:18.561Z</time></trkpt><trkpt lat="40.37684522597879" lon="9.17160368396774"><ele>498.5</ele><time>2026-04-26T10:18:19.561Z</time></trkpt><trkpt lat="40.376717088592564" lon="9.171551332766247"><ele>500.75</ele><time>2026-04-26T10:18:20.561Z</time></trkpt><trkpt lat="40.37658038811924" lon="9.171484881839095"><ele>503.0</ele><time>2026-04-26T10:18:21.561Z</time></trkpt><trkpt lat="40.376439050606876" lon="9.171415256056497"><ele>506.66666666666663</ele><time>2026-04-26T10:18:22.561Z</time></trkpt><trkpt lat="40.37629102055147" lon="9.171341753683086"><ele>510.33333333333337</ele><time>2026-04-26T10:18:23.561Z</time></trkpt><trkpt lat="40.37613653738373" lon="9.171283190987161"><ele>514.0</ele><time>2026-04-26T10:18:24.561Z</time></trkpt><trkpt lat="40.37599187017565" lon="9.171195092719945"><ele>514.0</ele><time>2026-04-26T10:18:25.561Z</time></trkpt><trkpt lat="40.37584546831478" lon="9.171121672294907"><ele>514.0</ele><time>2026-04-26T10:18:26.561Z</time></trkpt><trkpt lat="40.37570750128078" lon="9.171022693651176"><ele>514.0</ele><time>2026-04-26T10:18:27.561Z</time></trkpt><trkpt lat="40.37556829222325" lon="9.170907867281967"><ele>513.6666666666667</ele><time>2026-04-26T10:18:28.561Z</time></trkpt><trkpt lat="40.37545387585765" lon="9.170753951263123"><ele>513.3333333333334</ele><time>2026-04-26T10:18:29.561Z</time></trkpt><trkpt lat="40.37531115667983" lon="9.170642768662058"><ele>513.0</ele><time>2026-04-26T10:18:30.561Z</time></trkpt><trkpt lat="40.37514321793975" lon="9.170585819506368"><ele>521.3333333333334</ele><time>2026-04-26T10:18:31.561Z</time></trkpt><trkpt lat="40.37497119448118" lon="9.170587234048096"><ele>529.6666666666667</ele><time>2026-04-26T10:18:32.561Z</time></trkpt><trkpt lat="40.37480682910689" lon="9.170561816789588"><ele>538.0</ele><time>2026-04-26T10:18:33.56Z</time></trkpt><trkpt lat="40.374653293872555" lon="9.170584849833435"><ele>539.5</ele><time>2026-04-26T10:18:34.56Z</time></trkpt><trkpt lat="40.37452838552473" lon="9.170618391104316"><ele>541.0</ele><time>2026-04-26T10:18:35.56Z</time></trkpt><trkpt lat="40.37441701414745" lon="9.17070989078952"><ele>542.5</ele><time>2026-04-26T10:18:36.56Z</time></trkpt><trkpt lat="40.37433023472158" lon="9.170856130746191"><ele>544.0</ele><time>2026-04-26T10:18:37.56Z</time></trkpt><trkpt lat="40.37428239373311" lon="9.171049278239837"><ele>538.3333333333334</ele><time>2026-04-26T10:18:38.56Z</time></trkpt><trkpt lat="40.374266119600094" lon="9.1712504621846"><ele>532.6666666666666</ele><time>2026-04-26T10:18:39.56Z</time></trkpt><trkpt lat="40.374272908562155" lon="9.171457303480357"><ele>527.0</ele><time>2026-04-26T10:18:40.56Z</time></trkpt><trkpt lat="40.374303607328734" lon="9.171663607850448"><ele>527.0</ele><time>2026-04-26T10:18:41.56Z</time></trkpt><trkpt lat="40.374374784170506" lon="9.171841430660463"><ele>527.0</ele><time>2026-04-26T10:18:42.56Z</time></trkpt><trkpt lat="40.374478148060135" lon="9.172005653625364"><ele>527.0</ele><time>2026-04-26T10:18:43.56Z</time></trkpt><trkpt lat="40.37459990394255" lon="9.172163372617685"><ele>524.6666666666666</ele><time>2026-04-26T10:18:44.56Z</time></trkpt><trkpt lat="40.37472586740924" lon="9.172335431245338"><ele>522.3333333333334</ele><time>2026-04-26T10:18:45.56Z</time></trkpt><trkpt lat="40.374854632158815" lon="9.172498411097983"><ele>520.0</ele><time>2026-04-26T10:18:46.56Z</time></trkpt><trkpt lat="40.374979623061414" lon="9.172670018553946"><ele>520.0</ele><time>2026-04-26T10:18:47.56Z</time></trkpt><trkpt lat="40.375110774759214" lon="9.172842139636797"><ele>520.0</ele><time>2026-04-26T10:18:48.56Z</time></trkpt><trkpt lat="40.37524453885243" lon="9.173018833484472"><ele>520.0</ele><time>2026-04-26T10:18:49.56Z</time></trkpt><trkpt lat="40.375379339456856" lon="9.173199506214171"><ele>521.3333333333334</ele><time>2026-04-26T10:18:50.56Z</time></trkpt><trkpt lat="40.375515060784444" lon="9.173379785176062"><ele>522.6666666666666</ele><time>2026-04-26T10:18:51.56Z</time></trkpt><trkpt lat="40.37566340254272" lon="9.173544020723337"><ele>524.0</ele><time>2026-04-26T10:18:52.56Z</time></trkpt><trkpt lat="40.37582577107787" lon="9.17368162900581"><ele>524.0</ele><time>2026-04-26T10:18:53.56Z</time></trkpt><trkpt lat="40.37600864695463" lon="9.173800030594983"><ele>524.0</ele><time>2026-04-26T10:18:54.56Z</time></trkpt><trkpt lat="40.37619574863342" lon="9.173921489117575"><ele>524.0</ele><time>2026-04-26T10:18:55.56Z</time></trkpt><trkpt lat="40.37637469944041" lon="9.174045351458766"><ele>528.3333333333333</ele><time>2026-04-26T10:18:56.56Z</time></trkpt><trkpt lat="40.376541914235034" lon="9.174159256034935"><ele>532.6666666666666</ele><time>2026-04-26T10:18:57.56Z</time></trkpt><trkpt lat="40.3766953390524" lon="9.174263943261066"><ele>537.0</ele><time>2026-04-26T10:18:58.56Z</time></trkpt><trkpt lat="40.37684644180821" lon="9.174365709615932"><ele>537.0</ele><time>2026-04-26T10:18:59.559Z</time></trkpt><trkpt lat="40.37700394716217" lon="9.174454060013053"><ele>537.0</ele><time>2026-04-26T10:19:00.559Z</time></trkpt><trkpt lat="40.3771705915573" lon="9.174523346905234"><ele>537.0</ele><time>2026-04-26T10:19:01.559Z</time></trkpt><trkpt lat="40.37734544248873" lon="9.174564288707115"><ele>534.6666666666666</ele><time>2026-04-26T10:19:02.559Z</time></trkpt><trkpt lat="40.377523172040426" lon="9.174606778870094"><ele>532.3333333333333</ele><time>2026-04-26T10:19:03.559Z</time></trkpt><trkpt lat="40.3776963665844" lon="9.174651806526187"><ele>530.0</ele><time>2026-04-26T10:19:04.559Z</time></trkpt><trkpt lat="40.377847312171546" lon="9.174697293670546"><ele>530.0</ele><time>2026-04-26T10:19:05.559Z</time></trkpt><trkpt lat="40.37799151565437" lon="9.174754010142538"><ele>530.0</ele><time>2026-04-26T10:19:06.559Z</time></trkpt><trkpt lat="40.378128990743534" lon="9.174841491334671"><ele>530.0</ele><time>2026-04-26T10:19:07.559Z</time></trkpt><trkpt lat="40.37824038145436" lon="9.174970271912821"><ele>533.75</ele><time>2026-04-26T10:19:08.559Z</time></trkpt><trkpt lat="40.37832932057404" lon="9.175133691507861"><ele>537.5</ele><time>2026-04-26T10:19:09.559Z</time></trkpt><trkpt lat="40.37840411677001" lon="9.175305965831308"><ele>541.25</ele><time>2026-04-26T10:19:10.559Z</time></trkpt><trkpt lat="40.3784496299569" lon="9.175484132532173"><ele>545.0</ele><time>2026-04-26T10:19:11.559Z</time></trkpt><trkpt lat="40.37845164461555" lon="9.17566193375297"><ele>545.5</ele><time>2026-04-26T10:19:12.559Z</time></trkpt><trkpt lat="40.37841130396076" lon="9.175820649635856"><ele>546.0</ele><time>2026-04-26T10:19:13.559Z</time></trkpt><trkpt lat="40.37833704384027" lon="9.17596888901115"><ele>546.5</ele><time>2026-04-26T10:19:14.559Z</time></trkpt><trkpt lat="40.37823426528666" lon="9.176084375082757"><ele>547.0</ele><time>2026-04-26T10:19:15.559Z</time></trkpt><trkpt lat="40.37809622116411" lon="9.176133769938811"><ele>552.3333333333334</ele><time>2026-04-26T10:19:16.559Z</time></trkpt><trkpt lat="40.377945648052744" lon="9.176181697541214"><ele>557.6666666666666</ele><time>2026-04-26T10:19:17.559Z</time></trkpt><trkpt lat="40.377801875048156" lon="9.176269595992396"><ele>563.0</ele><time>2026-04-26T10:19:18.559Z</time></trkpt><trkpt lat="40.37766829201817" lon="9.176381208833332"><ele>559.3333333333333</ele><time>2026-04-26T10:19:19.559Z</time></trkpt><trkpt lat="40.37754884363396" lon="9.176539164906071"><ele>555.6666666666666</ele><time>2026-04-26T10:19:20.559Z</time></trkpt><trkpt lat="40.377447976792155" lon="9.176713711129711"><ele>552.0</ele><time>2026-04-26T10:19:21.559Z</time></trkpt><trkpt lat="40.37734414140395" lon="9.176903939012998"><ele>552.0</ele><time>2026-04-26T10:19:22.559Z</time></trkpt><trkpt lat="40.37723735462386" lon="9.177083045925986"><ele>552.0</ele><time>2026-04-26T10:19:23.559Z</time></trkpt><trkpt lat="40.37713617925226" lon="9.177252899275745"><ele>552.0</ele><time>2026-04-26T10:19:24.559Z</time></trkpt><trkpt lat="40.37703584249946" lon="9.177407318133099"><ele>553.5</ele><time>2026-04-26T10:19:25.558Z</time></trkpt><trkpt lat="40.37692192968405" lon="9.177516328437846"><ele>555.0</ele><time>2026-04-26T10:19:26.558Z</time></trkpt><trkpt lat="40.37678462723492" lon="9.177564357353326"><ele>556.5</ele><time>2026-04-26T10:19:27.559Z</time></trkpt><trkpt lat="40.37664006788864" lon="9.177569651341047"><ele>558.0</ele><time>2026-04-26T10:19:28.558Z</time></trkpt><trkpt lat="40.376493662227915" lon="9.177530355215136"><ele>561.3333333333334</ele><time>2026-04-26T10:19:29.558Z</time></trkpt><trkpt lat="40.37634652080097" lon="9.177490440187091"><ele>564.6666666666667</ele><time>2026-04-26T10:19:30.559Z</time></trkpt><trkpt lat="40.376192416483235" lon="9.1774639674673"><ele>568.0</ele><time>2026-04-26T10:19:31.558Z</time></trkpt><trkpt lat="40.37603132991292" lon="9.177440020241914"><ele>568.0</ele><time>2026-04-26T10:19:32.558Z</time></trkpt><trkpt lat="40.37586219508971" lon="9.177403482973403"><ele>568.0</ele><time>2026-04-26T10:19:33.558Z</time></trkpt><trkpt lat="40.37568864487509" lon="9.177394921708316"><ele>568.0</ele><time>2026-04-26T10:19:34.558Z</time></trkpt><trkpt lat="40.37551041467919" lon="9.17742621615044"><ele>573.3333333333334</ele><time>2026-04-26T10:19:35.558Z</time></trkpt><trkpt lat="40.375339658169025" lon="9.177481907172718"><ele>578.6666666666666</ele><time>2026-04-26T10:19:36.558Z</time></trkpt><trkpt lat="40.3751889121906" lon="9.177541314554018"><ele>584.0</ele><time>2026-04-26T10:19:37.558Z</time></trkpt><trkpt lat="40.37505047803781" lon="9.177642060662109"><ele>584.0</ele><time>2026-04-26T10:19:38.558Z</time></trkpt><trkpt lat="40.37493627017195" lon="9.177793105935619"><ele>584.0</ele><time>2026-04-26T10:19:39.558Z</time></trkpt><trkpt lat="40.37484087609193" lon="9.1779809296312"><ele>584.0</ele><time>2026-04-26T10:19:40.558Z</time></trkpt><trkpt lat="40.37475873378073" lon="9.178182813684234"><ele>590.3333333333333</ele><time>2026-04-26T10:19:41.558Z</time></trkpt><trkpt lat="40.37466600417657" lon="9.178377468554334"><ele>596.6666666666666</ele><time>2026-04-26T10:19:42.558Z</time></trkpt><trkpt lat="40.37456447599072" lon="9.178566013885323"><ele>603.0</ele><time>2026-04-26T10:19:43.558Z</time></trkpt><trkpt lat="40.37444654190614" lon="9.17874594181819"><ele>603.0</ele><time>2026-04-26T10:19:44.558Z</time></trkpt><trkpt lat="40.37434277985498" lon="9.178930778231289"><ele>603.0</ele><time>2026-04-26T10:19:45.558Z</time></trkpt><trkpt lat="40.374241132401444" lon="9.179104745733978"><ele>603.0</ele><time>2026-04-26T10:19:46.558Z</time></trkpt><trkpt lat="40.37413572082706" lon="9.179247391339992"><ele>604.6666666666666</ele><time>2026-04-26T10:19:47.558Z</time></trkpt><trkpt lat="40.37400411029065" lon="9.179338144692183"><ele>606.3333333333333</ele><time>2026-04-26T10:19:48.558Z</time></trkpt><trkpt lat="40.373850620790975" lon="9.179398215649455"><ele>608.0</ele><time>2026-04-26T10:19:49.558Z</time></trkpt><trkpt lat="40.37368927440507" lon="9.17937738072029"><ele>608.0</ele><time>2026-04-26T10:19:50.558Z</time></trkpt><trkpt lat="40.37353274364683" lon="9.17940645148399"><ele>608.0</ele><time>2026-04-26T10:19:51.558Z</time></trkpt><trkpt lat="40.37338955958007" lon="9.17946539862536"><ele>608.0</ele><time>2026-04-26T10:19:52.558Z</time></trkpt><trkpt lat="40.373259614467294" lon="9.179573405454175"><ele>608.0</ele><time>2026-04-26T10:19:53.558Z</time></trkpt><trkpt lat="40.37313394894637" lon="9.179710208929102"><ele>608.0</ele><time>2026-04-26T10:19:54.558Z</time></trkpt><trkpt lat="40.37300985146923" lon="9.179848732861148"><ele>608.0</ele><time>2026-04-26T10:19:55.557Z</time></trkpt><trkpt lat="40.3729158174018" lon="9.180015750741324"><ele>612.6666666666666</ele><time>2026-04-26T10:19:56.557Z</time></trkpt><trkpt lat="40.372873447099074" lon="9.180210103899158"><ele>617.3333333333334</ele><time>2026-04-26T10:19:57.557Z</time></trkpt><trkpt lat="40.37287339379052" lon="9.180421829972483"><ele>622.0</ele><time>2026-04-26T10:19:58.557Z</time></trkpt><trkpt lat="40.37290420651594" lon="9.180624704976283"><ele>622.0</ele><time>2026-04-26T10:19:59.557Z</time></trkpt><trkpt lat="40.37291549831142" lon="9.180823222564804"><ele>622.0</ele><time>2026-04-26T10:20:00.557Z</time></trkpt><trkpt lat="40.37287972431645" lon="9.181023676624072"><ele>622.0</ele><time>2026-04-26T10:20:01.557Z</time></trkpt><trkpt lat="40.372839294010575" lon="9.181222749099074"><ele>622.0</ele><time>2026-04-26T10:20:02.557Z</time></trkpt><trkpt lat="40.37284325108228" lon="9.181431551871515"><ele>622.0</ele><time>2026-04-26T10:20:03.557Z</time></trkpt><trkpt lat="40.37287467570739" lon="9.181645201058153"><ele>622.0</ele><time>2026-04-26T10:20:04.557Z</time></trkpt><trkpt lat="40.372910264653825" lon="9.181857464196913"><ele>621.0</ele><time>2026-04-26T10:20:05.557Z</time></trkpt><trkpt lat="40.37295238912125" lon="9.182076786683592"><ele>620.0</ele><time>2026-04-26T10:20:06.557Z</time></trkpt><trkpt lat="40.372993378412325" lon="9.182283003791227"><ele>619.0</ele><time>2026-04-26T10:20:07.557Z</time></trkpt><trkpt lat="40.373057415932976" lon="9.182469098740007"><ele>615.6666666666667</ele><time>2026-04-26T10:20:08.557Z</time></trkpt><trkpt lat="40.373161101535096" lon="9.182621350805206"><ele>612.3333333333334</ele><time>2026-04-26T10:20:09.557Z</time></trkpt><trkpt lat="40.37327096207081" lon="9.182763174043192"><ele>609.0</ele><time>2026-04-26T10:20:10.557Z</time></trkpt><trkpt lat="40.37336869641967" lon="9.182920001974354"><ele>609.0</ele><time>2026-04-26T10:20:11.557Z</time></trkpt><trkpt lat="40.37342607021485" lon="9.18309444382748"><ele>609.0</ele><time>2026-04-26T10:20:12.557Z</time></trkpt><trkpt lat="40.37341219131136" lon="9.183285048376348"><ele>609.0</ele><time>2026-04-26T10:20:13.557Z</time></trkpt><trkpt lat="40.37341204123595" lon="9.18346533860419"><ele>609.0</ele><time>2026-04-26T10:20:14.557Z</time></trkpt><trkpt lat="40.37341118585085" lon="9.18363709190988"><ele>611.75</ele><time>2026-04-26T10:20:15.557Z</time></trkpt><trkpt lat="40.37342081622003" lon="9.183807288771403"><ele>614.5</ele><time>2026-04-26T10:20:16.557Z</time></trkpt><trkpt lat="40.37341528854611" lon="9.183977070234402"><ele>617.25</ele><time>2026-04-26T10:20:17.557Z</time></trkpt><trkpt lat="40.37340761144927" lon="9.18415276183693"><ele>620.0</ele><time>2026-04-26T10:20:18.557Z</time></trkpt><trkpt lat="40.37340660102202" lon="9.184330560500431"><ele>621.25</ele><time>2026-04-26T10:20:19.557Z</time></trkpt><trkpt lat="40.373413052286175" lon="9.184518954607954"><ele>622.5</ele><time>2026-04-26T10:20:20.557Z</time></trkpt><trkpt lat="40.37344905731027" lon="9.184706769439344"><ele>623.75</ele><time>2026-04-26T10:20:21.556Z</time></trkpt><trkpt lat="40.373527631996694" lon="9.184880506112545"><ele>625.0</ele><time>2026-04-26T10:20:22.556Z</time></trkpt><trkpt lat="40.3736330746397" lon="9.185033659226974"><ele>624.75</ele><time>2026-04-26T10:20:23.556Z</time></trkpt><trkpt lat="40.37375070661474" lon="9.185157745688052"><ele>624.5</ele><time>2026-04-26T10:20:24.556Z</time></trkpt><trkpt lat="40.37388229439369" lon="9.185231827371384"><ele>624.25</ele><time>2026-04-26T10:20:25.556Z</time></trkpt><trkpt lat="40.37401266605062" lon="9.18523345011056"><ele>624.0</ele><time>2026-04-26T10:20:26.556Z</time></trkpt><trkpt lat="40.37414875787938" lon="9.18520488913704"><ele>624.0</ele><time>2026-04-26T10:20:27.556Z</time></trkpt><trkpt lat="40.37427312574355" lon="9.185227256097331"><ele>624.0</ele><time>2026-04-26T10:20:28.556Z</time></trkpt><trkpt lat="40.37437775360071" lon="9.185307158296917"><ele>624.0</ele><time>2026-04-26T10:20:29.556Z</time></trkpt><trkpt lat="40.374457893652696" lon="9.185432008244867"><ele>624.0</ele><time>2026-04-26T10:20:30.556Z</time></trkpt><trkpt lat="40.37450613705436" lon="9.185587128384272"><ele>627.5</ele><time>2026-04-26T10:20:31.556Z</time></trkpt><trkpt lat="40.3745265652963" lon="9.185763207525403"><ele>631.0</ele><time>2026-04-26T10:20:32.556Z</time></trkpt><trkpt lat="40.374548476078616" lon="9.185950700117843"><ele>634.5</ele><time>2026-04-26T10:20:33.556Z</time></trkpt><trkpt lat="40.37459213438427" lon="9.186135669075341"><ele>638.0</ele><time>2026-04-26T10:20:34.556Z</time></trkpt><trkpt lat="40.37466750366729" lon="9.186309250262166"><ele>638.6666666666666</ele><time>2026-04-26T10:20:35.556Z</time></trkpt><trkpt lat="40.37476080762167" lon="9.186480031004812"><ele>639.3333333333334</ele><time>2026-04-26T10:20:36.556Z</time></trkpt><trkpt lat="40.37486146893894" lon="9.186653735666951"><ele>640.0</ele><time>2026-04-26T10:20:37.556Z</time></trkpt><trkpt lat="40.37496107512711" lon="9.186831289661347"><ele>640.0</ele><time>2026-04-26T10:20:38.556Z</time></trkpt><trkpt lat="40.37506421061998" lon="9.187001088561344"><ele>640.0</ele><time>2026-04-26T10:20:39.556Z</time></trkpt><trkpt lat="40.375156769042874" lon="9.187163273531427"><ele>640.0</ele><time>2026-04-26T10:20:40.556Z</time></trkpt><trkpt lat="40.375242460435125" lon="9.187317083502357"><ele>641.5</ele><time>2026-04-26T10:20:41.556Z</time></trkpt><trkpt lat="40.375333603351635" lon="9.187456243925908"><ele>643.0</ele><time>2026-04-26T10:20:42.556Z</time></trkpt><trkpt lat="40.375413388671554" lon="9.187594110496546"><ele>644.5</ele><time>2026-04-26T10:20:43.556Z</time></trkpt><trkpt lat="40.37550518474673" lon="9.187699447312143"><ele>646.0</ele><time>2026-04-26T10:20:44.556Z</time></trkpt><trkpt lat="40.37559843523233" lon="9.18780376515822"><ele>646.1999999999999</ele><time>2026-04-26T10:20:45.556Z</time></trkpt><trkpt lat="40.37569488162782" lon="9.187907581340692"><ele>646.4</ele><time>2026-04-26T10:20:46.555Z</time></trkpt><trkpt lat="40.37578739418531" lon="9.188007163136094"><ele>646.6</ele><time>2026-04-26T10:20:47.555Z</time></trkpt><trkpt lat="40.37586523744485" lon="9.188097870244317"><ele>646.8</ele><time>2026-04-26T10:20:48.555Z</time></trkpt><trkpt lat="40.37593169582834" lon="9.188178215231867"><ele>647.0</ele><time>2026-04-26T10:20:49.555Z</time></trkpt><trkpt lat="40.375988191716075" lon="9.188253253388837"><ele>647.4000000000001</ele><time>2026-04-26T10:20:50.555Z</time></trkpt><trkpt lat="40.37604344097248" lon="9.188305908377988"><ele>647.8000000000001</ele><time>2026-04-26T10:20:51.555Z</time></trkpt><trkpt lat="40.37606605881043" lon="9.18838438004767"><ele>648.2</ele><time>2026-04-26T10:20:52.555Z</time></trkpt><trkpt lat="40.37608857273916" lon="9.18846587013278"><ele>648.6</ele><time>2026-04-26T10:20:54.555Z</time></trkpt><trkpt lat="40.37595364541413" lon="9.188626665300166"><ele>649.0</ele><time>2026-04-26T10:20:55.555Z</time></trkpt><trkpt lat="40.375881201072126" lon="9.188702828667"><ele>649.0</ele><time>2026-04-26T10:20:56.555Z</time></trkpt><trkpt lat="40.37579112912965" lon="9.188770568575498"><ele>649.0</ele><time>2026-04-26T10:20:57.555Z</time></trkpt><trkpt lat="40.37569279744196" lon="9.188846028275245"><ele>649.0</ele><time>2026-04-26T10:20:58.555Z</time></trkpt><trkpt lat="40.375584105671685" lon="9.188869612050336"><ele>649.0</ele><time>2026-04-26T10:20:59.555Z</time></trkpt><trkpt lat="40.375458314083126" lon="9.188858526225166"><ele>648.0</ele><time>2026-04-26T10:21:00.555Z</time></trkpt><trkpt lat="40.375329120759" lon="9.188824888383062"><ele>647.0</ele><time>2026-04-26T10:21:01.555Z</time></trkpt><trkpt lat="40.37518973099291" lon="9.188788520457743"><ele>646.0</ele><time>2026-04-26T10:21:02.555Z</time></trkpt><trkpt lat="40.37504898053787" lon="9.188751769312795"><ele>645.0</ele><time>2026-04-26T10:21:03.555Z</time></trkpt><trkpt lat="40.37489577179575" lon="9.188718828165362"><ele>645.0</ele><time>2026-04-26T10:21:04.555Z</time></trkpt><trkpt lat="40.374730126936534" lon="9.188705873382549"><ele>645.0</ele><time>2026-04-26T10:21:05.555Z</time></trkpt><trkpt lat="40.374567316978435" lon="9.188722106550264"><ele>645.0</ele><time>2026-04-26T10:21:06.555Z</time></trkpt><trkpt lat="40.37439722538743" lon="9.188744624231841"><ele>643.0</ele><time>2026-04-26T10:21:07.555Z</time></trkpt><trkpt lat="40.37422984290113" lon="9.188766885507617"><ele>641.0</ele><time>2026-04-26T10:21:08.555Z</time></trkpt><trkpt lat="40.37405735591485" lon="9.18879271993217"><ele>639.0</ele><time>2026-04-26T10:21:09.555Z</time></trkpt><trkpt lat="40.37389912789606" lon="9.188837144420916"><ele>639.6666666666666</ele><time>2026-04-26T10:21:10.555Z</time></trkpt><trkpt lat="40.37373859449958" lon="9.188871961547607"><ele>640.3333333333333</ele><time>2026-04-26T10:21:11.554Z</time></trkpt><trkpt lat="40.37358123868635" lon="9.188943523388872"><ele>641.0</ele><time>2026-04-26T10:21:12.554Z</time></trkpt><trkpt lat="40.37342492921797" lon="9.189032352972081"><ele>641.0</ele><time>2026-04-26T10:21:13.554Z</time></trkpt><trkpt lat="40.373264736474304" lon="9.189125078517405"><ele>641.0</ele><time>2026-04-26T10:21:14.554Z</time></trkpt><trkpt lat="40.37310739522375" lon="9.189231247368367"><ele>641.0</ele><time>2026-04-26T10:21:15.554Z</time></trkpt><trkpt lat="40.37295479839643" lon="9.189326748863596"><ele>639.5</ele><time>2026-04-26T10:21:16.554Z</time></trkpt><trkpt lat="40.372819979541" lon="9.189417037215398"><ele>638.0</ele><time>2026-04-26T10:21:17.554Z</time></trkpt><trkpt lat="40.372707008163985" lon="9.18952040655428"><ele>636.5</ele><time>2026-04-26T10:21:18.554Z</time></trkpt><trkpt lat="40.37260961740083" lon="9.189650304697654"><ele>635.0</ele><time>2026-04-26T10:21:19.554Z</time></trkpt><trkpt lat="40.37253735152469" lon="9.189814555544979"><ele>636.25</ele><time>2026-04-26T10:21:20.554Z</time></trkpt><trkpt lat="40.372472687458234" lon="9.189990527302797"><ele>637.5</ele><time>2026-04-26T10:21:21.554Z</time></trkpt><trkpt lat="40.37240849579934" lon="9.190163793225782"><ele>638.75</ele><time>2026-04-26T10:21:22.554Z</time></trkpt><trkpt lat="40.37234646003117" lon="9.190341820695101"><ele>640.0</ele><time>2026-04-26T10:21:23.554Z</time></trkpt><trkpt lat="40.37227120663867" lon="9.190501463849577"><ele>640.5</ele><time>2026-04-26T10:21:24.555Z</time></trkpt><trkpt lat="40.37217493688277" lon="9.190628985039766"><ele>641.0</ele><time>2026-04-26T10:21:25.555Z</time></trkpt><trkpt lat="40.37205037525256" lon="9.190687391340937"><ele>641.5</ele><time>2026-04-26T10:21:26.555Z</time></trkpt><trkpt lat="40.37192236982075" lon="9.190729161266567"><ele>642.0</ele><time>2026-04-26T10:21:27.555Z</time></trkpt><trkpt lat="40.3717856339871" lon="9.19073445993578"><ele>642.0</ele><time>2026-04-26T10:21:28.555Z</time></trkpt><trkpt lat="40.37164593333946" lon="9.190710439839677"><ele>642.0</ele><time>2026-04-26T10:21:29.555Z</time></trkpt><trkpt lat="40.37149939633665" lon="9.190683691533987"><ele>642.0</ele><time>2026-04-26T10:21:30.555Z</time></trkpt><trkpt lat="40.37134358758512" lon="9.19066912729721"><ele>642.0</ele><time>2026-04-26T10:21:31.554Z</time></trkpt><trkpt lat="40.371186779876176" lon="9.190697920070823"><ele>642.6666666666666</ele><time>2026-04-26T10:21:32.554Z</time></trkpt><trkpt lat="40.3710219365109" lon="9.19073011230386"><ele>643.3333333333333</ele><time>2026-04-26T10:21:33.554Z</time></trkpt><trkpt lat="40.37085075581319" lon="9.190783137758872"><ele>644.0</ele><time>2026-04-26T10:21:34.554Z</time></trkpt><trkpt lat="40.37067957083489" lon="9.19083543863468"><ele>644.6666666666666</ele><time>2026-04-26T10:21:35.554Z</time></trkpt><trkpt lat="40.370516196730165" lon="9.190929487667415"><ele>645.3333333333334</ele><time>2026-04-26T10:21:36.555Z</time></trkpt><trkpt lat="40.370351331598" lon="9.191028420238931"><ele>646.0</ele><time>2026-04-26T10:21:37.554Z</time></trkpt><trkpt lat="40.370182747692894" lon="9.191121792576931"><ele>646.0</ele><time>2026-04-26T10:21:38.554Z</time></trkpt><trkpt lat="40.37000747743605" lon="9.19121360761448"><ele>646.0</ele><time>2026-04-26T10:21:39.554Z</time></trkpt><trkpt lat="40.369820654939694" lon="9.191261473374949"><ele>646.0</ele><time>2026-04-26T10:21:40.554Z</time></trkpt><trkpt lat="40.36963339577888" lon="9.191279060719367"><ele>647.6666666666667</ele><time>2026-04-26T10:21:41.554Z</time></trkpt><trkpt lat="40.36946484381496" lon="9.19132880291487"><ele>649.3333333333334</ele><time>2026-04-26T10:21:42.554Z</time></trkpt><trkpt lat="40.36930954349488" lon="9.191323849420513"><ele>651.0</ele><time>2026-04-26T10:21:43.554Z</time></trkpt><trkpt lat="40.36917454733021" lon="9.191232692719314"><ele>651.0</ele><time>2026-04-26T10:21:44.553Z</time></trkpt><trkpt lat="40.36904909872124" lon="9.191142322048274"><ele>651.0</ele><time>2026-04-26T10:21:45.553Z</time></trkpt><trkpt lat="40.368917321306604" lon="9.191029980755372"><ele>651.0</ele><time>2026-04-26T10:21:46.553Z</time></trkpt><trkpt lat="40.36876944711004" lon="9.19092249975553"><ele>650.6666666666666</ele><time>2026-04-26T10:21:47.553Z</time></trkpt><trkpt lat="40.36859153304419" lon="9.190867399991017"><ele>650.3333333333333</ele><time>2026-04-26T10:21:48.553Z</time></trkpt><trkpt lat="40.36841996216812" lon="9.190778736308426"><ele>650.0</ele><time>2026-04-26T10:21:49.553Z</time></trkpt><trkpt lat="40.368243030666925" lon="9.190726834360065"><ele>646.0</ele><time>2026-04-26T10:21:50.553Z</time></trkpt><trkpt lat="40.36807410883171" lon="9.190657083136553"><ele>642.0</ele><time>2026-04-26T10:21:51.553Z</time></trkpt><trkpt lat="40.36790145061294" lon="9.190604093546405"><ele>638.0</ele><time>2026-04-26T10:21:52.553Z</time></trkpt><trkpt lat="40.36772290473139" lon="9.190575553093641"><ele>638.0</ele><time>2026-04-26T10:21:53.553Z</time></trkpt><trkpt lat="40.367541198791585" lon="9.190579160972792"><ele>638.0</ele><time>2026-04-26T10:21:54.553Z</time></trkpt><trkpt lat="40.367366390773896" lon="9.190618664669016"><ele>638.0</ele><time>2026-04-26T10:21:55.553Z</time></trkpt><trkpt lat="40.367201265944175" lon="9.19069325796479"><ele>639.0</ele><time>2026-04-26T10:21:56.553Z</time></trkpt><trkpt lat="40.36704508823082" lon="9.190786925503755"><ele>640.0</ele><time>2026-04-26T10:21:57.553Z</time></trkpt><trkpt lat="40.366900260093054" lon="9.190882060226011"><ele>641.0</ele><time>2026-04-26T10:21:58.553Z</time></trkpt><trkpt lat="40.36677236779998" lon="9.190997405723241"><ele>641.0</ele><time>2026-04-26T10:21:59.553Z</time></trkpt><trkpt lat="40.36667321256932" lon="9.191145215706294"><ele>641.0</ele><time>2026-04-26T10:22:00.553Z</time></trkpt><trkpt lat="40.366607356949" lon="9.191320454444682"><ele>641.0</ele><time>2026-04-26T10:22:01.553Z</time></trkpt><trkpt lat="40.36658304358523" lon="9.191507074154746"><ele>641.0</ele><time>2026-04-26T10:22:02.553Z</time></trkpt><trkpt lat="40.36659863686444" lon="9.191696601525564"><ele>642.25</ele><time>2026-04-26T10:22:03.553Z</time></trkpt><trkpt lat="40.36665400778474" lon="9.191878951098216"><ele>643.5</ele><time>2026-04-26T10:22:04.553Z</time></trkpt><trkpt lat="40.366708739438494" lon="9.19205933423789"><ele>644.75</ele><time>2026-04-26T10:22:05.553Z</time></trkpt><trkpt lat="40.366738440332334" lon="9.192241499733692"><ele>646.0</ele><time>2026-04-26T10:22:06.553Z</time></trkpt><trkpt lat="40.366757437909456" lon="9.19242928634476"><ele>646.25</ele><time>2026-04-26T10:22:07.553Z</time></trkpt><trkpt lat="40.36673551560513" lon="9.192606083072839"><ele>646.5</ele><time>2026-04-26T10:22:08.553Z</time></trkpt><trkpt lat="40.3666775909556" lon="9.192750925078204"><ele>646.75</ele><time>2026-04-26T10:22:09.553Z</time></trkpt><trkpt lat="40.36659044465093" lon="9.192843269645579"><ele>647.0</ele><time>2026-04-26T10:22:10.552Z</time></trkpt><trkpt lat="40.36647891424155" lon="9.192864451934277"><ele>647.0</ele><time>2026-04-26T10:22:11.552Z</time></trkpt><trkpt lat="40.3663620492821" lon="9.19280550379894"><ele>647.0</ele><time>2026-04-26T10:22:12.552Z</time></trkpt><trkpt lat="40.36626020740872" lon="9.192710151111388"><ele>647.0</ele><time>2026-04-26T10:22:13.552Z</time></trkpt><trkpt lat="40.36614040309419" lon="9.192594342615763"><ele>647.0</ele><time>2026-04-26T10:22:14.552Z</time></trkpt><trkpt lat="40.366011286101916" lon="9.192482953155842"><ele>645.5</ele><time>2026-04-26T10:22:15.552Z</time></trkpt><trkpt lat="40.36590221543544" lon="9.192359165745454"><ele>644.0</ele><time>2026-04-26T10:22:16.552Z</time></trkpt><trkpt lat="40.36578555341746" lon="9.192271522423045"><ele>642.5</ele><time>2026-04-26T10:22:17.552Z</time></trkpt><trkpt lat="40.36565975750498" lon="9.192250087049391"><ele>641.0</ele><time>2026-04-26T10:22:18.552Z</time></trkpt><trkpt lat="40.365525020928224" lon="9.192267100469447"><ele>638.0</ele><time>2026-04-26T10:22:19.552Z</time></trkpt><trkpt lat="40.36538549832822" lon="9.19224147192151"><ele>635.0</ele><time>2026-04-26T10:22:20.552Z</time></trkpt><trkpt lat="40.36524770696048" lon="9.19217710901226"><ele>632.0</ele><time>2026-04-26T10:22:21.552Z</time></trkpt><trkpt lat="40.36511814628356" lon="9.192077497293331"><ele>629.0</ele><time>2026-04-26T10:22:22.552Z</time></trkpt><trkpt lat="40.36498558111587" lon="9.191965910969227"><ele>629.0</ele><time>2026-04-26T10:22:23.552Z</time></trkpt><trkpt lat="40.36484965031262" lon="9.191853547771442"><ele>629.0</ele><time>2026-04-26T10:22:24.552Z</time></trkpt><trkpt lat="40.36470996524324" lon="9.191739494702087"><ele>629.0</ele><time>2026-04-26T10:22:25.552Z</time></trkpt><trkpt lat="40.36456915432262" lon="9.191620782889576"><ele>628.3333333333333</ele><time>2026-04-26T10:22:26.552Z</time></trkpt><trkpt lat="40.364429356951135" lon="9.191502390834536"><ele>627.6666666666666</ele><time>2026-04-26T10:22:27.552Z</time></trkpt><trkpt lat="40.3642941113529" lon="9.191387851998023"><ele>627.0</ele><time>2026-04-26T10:22:28.552Z</time></trkpt><trkpt lat="40.364152076272845" lon="9.191267563182258"><ele>627.0</ele><time>2026-04-26T10:22:29.552Z</time></trkpt><trkpt lat="40.36399868003473" lon="9.191161370656477"><ele>627.0</ele><time>2026-04-26T10:22:30.552Z</time></trkpt><trkpt lat="40.363853588747986" lon="9.191027950472213"><ele>627.0</ele><time>2026-04-26T10:22:31.552Z</time></trkpt><trkpt lat="40.36371884223668" lon="9.190899859781943"><ele>627.0</ele><time>2026-04-26T10:22:32.552Z</time></trkpt><trkpt lat="40.36361125763182" lon="9.190766233762522"><ele>627.0</ele><time>2026-04-26T10:22:33.552Z</time></trkpt><trkpt lat="40.363546740374616" lon="9.190601269844457"><ele>627.0</ele><time>2026-04-26T10:22:34.552Z</time></trkpt><trkpt lat="40.36352726714852" lon="9.19041876486835"><ele>627.0</ele><time>2026-04-26T10:22:35.551Z</time></trkpt><trkpt lat="40.36353638184824" lon="9.190219669320962"><ele>627.0</ele><time>2026-04-26T10:22:36.551Z</time></trkpt><trkpt lat="40.36353683238456" lon="9.190010142946022"><ele>627.0</ele><time>2026-04-26T10:22:37.551Z</time></trkpt><trkpt lat="40.36352543946024" lon="9.189804503422929"><ele>627.0</ele><time>2026-04-26T10:22:38.551Z</time></trkpt><trkpt lat="40.3634846647956" lon="9.189603427856225"><ele>623.3333333333334</ele><time>2026-04-26T10:22:39.551Z</time></trkpt><trkpt lat="40.36341057151753" lon="9.18941999679771"><ele>619.6666666666667</ele><time>2026-04-26T10:22:40.551Z</time></trkpt><trkpt lat="40.36331736751483" lon="9.189258883249874"><ele>616.0</ele><time>2026-04-26T10:22:41.551Z</time></trkpt><trkpt lat="40.36319134106484" lon="9.189137236031737"><ele>616.0</ele><time>2026-04-26T10:22:42.551Z</time></trkpt><trkpt lat="40.36303868057817" lon="9.189050250573827"><ele>616.0</ele><time>2026-04-26T10:22:43.551Z</time></trkpt><trkpt lat="40.36287553788198" lon="9.18896769741583"><ele>616.0</ele><time>2026-04-26T10:22:44.551Z</time></trkpt><trkpt lat="40.36271514352839" lon="9.188874196131794"><ele>612.0</ele><time>2026-04-26T10:22:45.551Z</time></trkpt><trkpt lat="40.36255708121592" lon="9.18880778880402"><ele>608.0</ele><time>2026-04-26T10:22:46.551Z</time></trkpt><trkpt lat="40.36239564349979" lon="9.188817954317553"><ele>604.0</ele><time>2026-04-26T10:22:47.551Z</time></trkpt><trkpt lat="40.36223191588257" lon="9.188865841027441"><ele>601.0</ele><time>2026-04-26T10:22:48.551Z</time></trkpt><trkpt lat="40.362068623665714" lon="9.188901249999352"><ele>598.0</ele><time>2026-04-26T10:22:49.551Z</time></trkpt><trkpt lat="40.36190711931532" lon="9.188930641232776"><ele>595.0</ele><time>2026-04-26T10:22:50.551Z</time></trkpt><trkpt lat="40.361758311186456" lon="9.18894589598775"><ele>595.0</ele><time>2026-04-26T10:22:51.551Z</time></trkpt><trkpt lat="40.36161388021917" lon="9.188888013286947"><ele>595.0</ele><time>2026-04-26T10:22:52.551Z</time></trkpt><trkpt lat="40.36148762064869" lon="9.18878412109904"><ele>595.0</ele><time>2026-04-26T10:22:53.551Z</time></trkpt><trkpt lat="40.36139731686698" lon="9.188641894593916"><ele>595.0</ele><time>2026-04-26T10:22:54.551Z</time></trkpt><trkpt lat="40.36129885231867" lon="9.18852643562001"><ele>595.25</ele><time>2026-04-26T10:22:55.551Z</time></trkpt><trkpt lat="40.361175952991395" lon="9.188482762442836"><ele>595.5</ele><time>2026-04-26T10:22:56.551Z</time></trkpt><trkpt lat="40.36103359179969" lon="9.188484786953317"><ele>595.75</ele><time>2026-04-26T10:22:57.551Z</time></trkpt><trkpt lat="40.360877806996214" lon="9.188511521772892"><ele>596.0</ele><time>2026-04-26T10:22:58.551Z</time></trkpt><trkpt lat="40.3607318475433" lon="9.188586927834198"><ele>596.0</ele><time>2026-04-26T10:22:59.551Z</time></trkpt><trkpt lat="40.36060635202988" lon="9.188684217762697"><ele>596.0</ele><time>2026-04-26T10:23:00.551Z</time></trkpt><trkpt lat="40.3604719308702" lon="9.188738653043718"><ele>596.0</ele><time>2026-04-26T10:23:01.55Z</time></trkpt><trkpt lat="40.360341824084465" lon="9.188711342036658"><ele>596.0</ele><time>2026-04-26T10:23:02.55Z</time></trkpt><trkpt lat="40.36022553140841" lon="9.18862339822231"><ele>595.25</ele><time>2026-04-26T10:23:03.55Z</time></trkpt><trkpt lat="40.3601030337445" lon="9.188548933772378"><ele>594.5</ele><time>2026-04-26T10:23:04.55Z</time></trkpt><trkpt lat="40.35996149976332" lon="9.188543167854705"><ele>593.75</ele><time>2026-04-26T10:23:05.55Z</time></trkpt><trkpt lat="40.35982062320942" lon="9.188589771932426"><ele>593.0</ele><time>2026-04-26T10:23:06.55Z</time></trkpt><trkpt lat="40.35968853662142" lon="9.188688844209597"><ele>593.25</ele><time>2026-04-26T10:23:07.55Z</time></trkpt><trkpt lat="40.359587795424325" lon="9.18883804115106"><ele>593.5</ele><time>2026-04-26T10:23:08.55Z</time></trkpt><trkpt lat="40.35950768767325" lon="9.188979951300514"><ele>593.75</ele><time>2026-04-26T10:23:09.55Z</time></trkpt><trkpt lat="40.35940313824924" lon="9.189077679077162"><ele>594.0</ele><time>2026-04-26T10:23:10.55Z</time></trkpt><trkpt lat="40.359275355302316" lon="9.189107794270281"><ele>594.0</ele><time>2026-04-26T10:23:11.55Z</time></trkpt><trkpt lat="40.35915208810982" lon="9.189068210461956"><ele>594.0</ele><time>2026-04-26T10:23:12.55Z</time></trkpt><trkpt lat="40.35904705567029" lon="9.188979453257575"><ele>594.0</ele><time>2026-04-26T10:23:13.55Z</time></trkpt><trkpt lat="40.35893216656119" lon="9.18892021094837"><ele>594.0</ele><time>2026-04-26T10:23:14.55Z</time></trkpt><trkpt lat="40.35879424575384" lon="9.188926933632098"><ele>592.6666666666666</ele><time>2026-04-26T10:23:15.55Z</time></trkpt><trkpt lat="40.358654902577356" lon="9.188977917690403"><ele>591.3333333333333</ele><time>2026-04-26T10:23:16.55Z</time></trkpt><trkpt lat="40.358511875374155" lon="9.189061691816521"><ele>590.0</ele><time>2026-04-26T10:23:17.55Z</time></trkpt><trkpt lat="40.358372659309616" lon="9.189151938489234"><ele>590.0</ele><time>2026-04-26T10:23:18.55Z</time></trkpt><trkpt lat="40.35822962015712" lon="9.18917520480924"><ele>590.0</ele><time>2026-04-26T10:23:19.55Z</time></trkpt><trkpt lat="40.35808668730489" lon="9.189121741794326"><ele>590.0</ele><time>2026-04-26T10:23:20.55Z</time></trkpt><trkpt lat="40.3579519777258" lon="9.18901593292613"><ele>584.0</ele><time>2026-04-26T10:23:21.55Z</time></trkpt><trkpt lat="40.357811605071376" lon="9.188902958979936"><ele>578.0</ele><time>2026-04-26T10:23:22.55Z</time></trkpt><trkpt lat="40.35765660426856" lon="9.188794540996998"><ele>572.0</ele><time>2026-04-26T10:23:23.55Z</time></trkpt><trkpt lat="40.357496421931955" lon="9.188693143340988"><ele>572.0</ele><time>2026-04-26T10:23:24.55Z</time></trkpt><trkpt lat="40.35732983372622" lon="9.188592466848505"><ele>572.0</ele><time>2026-04-26T10:23:25.55Z</time></trkpt><trkpt lat="40.35716490587413" lon="9.188518453549348"><ele>572.0</ele><time>2026-04-26T10:23:26.55Z</time></trkpt><trkpt lat="40.356993819043005" lon="9.188491398523352"><ele>572.0</ele><time>2026-04-26T10:23:27.549Z</time></trkpt><trkpt lat="40.35682084295426" lon="9.188498135797369"><ele>572.0</ele><time>2026-04-26T10:23:28.549Z</time></trkpt><trkpt lat="40.356649310792655" lon="9.188540299575758"><ele>572.0</ele><time>2026-04-26T10:23:29.549Z</time></trkpt><trkpt lat="40.356483353258575" lon="9.18860974650342"><ele>567.6666666666666</ele><time>2026-04-26T10:23:30.551Z</time></trkpt><trkpt lat="40.35631536797646" lon="9.188689252515307"><ele>563.3333333333334</ele><time>2026-04-26T10:23:31.55Z</time></trkpt><trkpt lat="40.35614910731509" lon="9.18876921015476"><ele>559.0</ele><time>2026-04-26T10:23:32.55Z</time></trkpt><trkpt lat="40.35599255450576" lon="9.18885300377378"><ele>559.0</ele><time>2026-04-26T10:23:33.55Z</time></trkpt><trkpt lat="40.35586058631" lon="9.18896912028912"><ele>559.0</ele><time>2026-04-26T10:23:34.551Z</time></trkpt><trkpt lat="40.3557428849376" lon="9.189111451625386"><ele>559.0</ele><time>2026-04-26T10:23:35.55Z</time></trkpt><trkpt lat="40.35561108717152" lon="9.189222440747654"><ele>561.6666666666667</ele><time>2026-04-26T10:23:36.55Z</time></trkpt><trkpt lat="40.35545524967962" lon="9.189267313969872"><ele>564.3333333333334</ele><time>2026-04-26T10:23:37.55Z</time></trkpt><trkpt lat="40.3552911999855" lon="9.189249747432193"><ele>567.0</ele><time>2026-04-26T10:23:38.55Z</time></trkpt><trkpt lat="40.35511209342639" lon="9.189228516752086"><ele>567.0</ele><time>2026-04-26T10:23:39.55Z</time></trkpt><trkpt lat="40.35492579181267" lon="9.189254843527836"><ele>567.0</ele><time>2026-04-26T10:23:40.55Z</time></trkpt><trkpt lat="40.35474049346632" lon="9.189332876505445"><ele>567.0</ele><time>2026-04-26T10:23:41.55Z</time></trkpt><trkpt lat="40.35456859897021" lon="9.189401558136147"><ele>566.5</ele><time>2026-04-26T10:23:42.55Z</time></trkpt><trkpt lat="40.35441846783151" lon="9.189468734406667"><ele>566.0</ele><time>2026-04-26T10:23:43.55Z</time></trkpt><trkpt lat="40.354299647379015" lon="9.189563080280694"><ele>565.5</ele><time>2026-04-26T10:23:44.55Z</time></trkpt><trkpt lat="40.35424031105303" lon="9.18971678781423"><ele>565.0</ele><time>2026-04-26T10:23:45.55Z</time></trkpt><trkpt lat="40.354228353961666" lon="9.189889125831131"><ele>565.0</ele><time>2026-04-26T10:23:46.55Z</time></trkpt><trkpt lat="40.35427632029236" lon="9.190053627348865"><ele>565.0</ele><time>2026-04-26T10:23:47.55Z</time></trkpt><trkpt lat="40.35437586671912" lon="9.190171688219118"><ele>565.0</ele><time>2026-04-26T10:23:48.55Z</time></trkpt><trkpt lat="40.354498799246585" lon="9.19026245346477"><ele>565.0</ele><time>2026-04-26T10:23:49.55Z</time></trkpt><trkpt lat="40.35463521444096" lon="9.190361715078863"><ele>565.6666666666667</ele><time>2026-04-26T10:23:50.55Z</time></trkpt><trkpt lat="40.35476775839624" lon="9.190478495105806"><ele>566.3333333333334</ele><time>2026-04-26T10:23:51.55Z</time></trkpt><trkpt lat="40.3548940761886" lon="9.190614291376248"><ele>567.0</ele><time>2026-04-26T10:23:52.549Z</time></trkpt><trkpt lat="40.35499602813608" lon="9.190768057703945"><ele>567.0</ele><time>2026-04-26T10:23:53.549Z</time></trkpt><trkpt lat="40.35506211900764" lon="9.190951683878101"><ele>567.0</ele><time>2026-04-26T10:23:54.549Z</time></trkpt><trkpt lat="40.35507729956825" lon="9.191151695136066"><ele>567.0</ele><time>2026-04-26T10:23:55.549Z</time></trkpt><trkpt lat="40.35504744060516" lon="9.19136111909156"><ele>565.0</ele><time>2026-04-26T10:23:56.549Z</time></trkpt><trkpt lat="40.35500400662145" lon="9.191576500993358"><ele>563.0</ele><time>2026-04-26T10:23:57.549Z</time></trkpt><trkpt lat="40.35498184125582" lon="9.1917821180284"><ele>561.0</ele><time>2026-04-26T10:23:58.549Z</time></trkpt><trkpt lat="40.35500799254885" lon="9.191979449261426"><ele>561.0</ele><time>2026-04-26T10:23:59.549Z</time></trkpt><trkpt lat="40.35504893645408" lon="9.192157366188058"><ele>561.0</ele><time>2026-04-26T10:24:00.549Z</time></trkpt><trkpt lat="40.355046492342865" lon="9.192320289042678"><ele>561.0</ele><time>2026-04-26T10:24:01.549Z</time></trkpt><trkpt lat="40.354985306871754" lon="9.192448771433613"><ele>561.0</ele><time>2026-04-26T10:24:02.549Z</time></trkpt><trkpt lat="40.35490248502956" lon="9.192519632458366"><ele>560.5</ele><time>2026-04-26T10:24:03.549Z</time></trkpt><trkpt lat="40.354804053262136" lon="9.192511945884979"><ele>560.0</ele><time>2026-04-26T10:24:04.549Z</time></trkpt><trkpt lat="40.35471077019215" lon="9.192432383280062"><ele>559.5</ele><time>2026-04-26T10:24:05.549Z</time></trkpt><trkpt lat="40.354649051894626" lon="9.192299725802583"><ele>559.0</ele><time>2026-04-26T10:24:06.549Z</time></trkpt><trkpt lat="40.35460742760356" lon="9.192145267498853"><ele>556.75</ele><time>2026-04-26T10:24:07.549Z</time></trkpt><trkpt lat="40.35456418878555" lon="9.191982283003389"><ele>554.5</ele><time>2026-04-26T10:24:08.549Z</time></trkpt><trkpt lat="40.35450481328961" lon="9.19181409174068"><ele>552.25</ele><time>2026-04-26T10:24:09.549Z</time></trkpt><trkpt lat="40.35442884122745" lon="9.191668970371953"><ele>550.0</ele><time>2026-04-26T10:24:10.549Z</time></trkpt><trkpt lat="40.354313044377626" lon="9.191572077916486"><ele>550.0</ele><time>2026-04-26T10:24:11.549Z</time></trkpt><trkpt lat="40.3541743897104" lon="9.191521234800502"><ele>550.0</ele><time>2026-04-26T10:24:12.549Z</time></trkpt><trkpt lat="40.354014248000176" lon="9.191513599519764"><ele>550.0</ele><time>2026-04-26T10:24:13.549Z</time></trkpt><trkpt lat="40.353840928476124" lon="9.191495224980779"><ele>549.3333333333334</ele><time>2026-04-26T10:24:14.549Z</time></trkpt><trkpt lat="40.353665925172706" lon="9.191476133188004"><ele>548.6666666666666</ele><time>2026-04-26T10:24:15.549Z</time></trkpt><trkpt lat="40.35349950607316" lon="9.191489595540368"><ele>548.0</ele><time>2026-04-26T10:24:16.549Z</time></trkpt><trkpt lat="40.353345818924495" lon="9.19154036110093"><ele>547.0</ele><time>2026-04-26T10:24:17.549Z</time></trkpt><trkpt lat="40.35321982637348" lon="9.19157773505527"><ele>546.0</ele><time>2026-04-26T10:24:18.548Z</time></trkpt><trkpt lat="40.35311952081357" lon="9.19159014638206"><ele>545.0</ele><time>2026-04-26T10:24:19.548Z</time></trkpt><trkpt lat="40.35303030020918" lon="9.191568707039178"><ele>544.0</ele><time>2026-04-26T10:24:20.548Z</time></trkpt><trkpt lat="40.35294964409131" lon="9.191531404469917"><ele>543.0</ele><time>2026-04-26T10:24:21.548Z</time></trkpt><trkpt lat="40.35288267890268" lon="9.191453167982615"><ele>542.75</ele><time>2026-04-26T10:24:22.548Z</time></trkpt><trkpt lat="40.352818297537944" lon="9.19134592183946"><ele>542.5</ele><time>2026-04-26T10:24:23.548Z</time></trkpt><trkpt lat="40.35274552367091" lon="9.191217230367482"><ele>542.25</ele><time>2026-04-26T10:24:24.548Z</time></trkpt><trkpt lat="40.35265213852747" lon="9.191077166869611"><ele>542.0</ele><time>2026-04-26T10:24:25.548Z</time></trkpt><trkpt lat="40.35255203926222" lon="9.190929573328184"><ele>542.0</ele><time>2026-04-26T10:24:26.548Z</time></trkpt><trkpt lat="40.3524509905001" lon="9.190761045385134"><ele>542.0</ele><time>2026-04-26T10:24:27.548Z</time></trkpt><trkpt lat="40.352358407848236" lon="9.190570830612202"><ele>542.0</ele><time>2026-04-26T10:24:28.548Z</time></trkpt><trkpt lat="40.352275399383466" lon="9.19037252114081"><ele>541.6666666666666</ele><time>2026-04-26T10:24:29.548Z</time></trkpt><trkpt lat="40.35219248937706" lon="9.190168064531138"><ele>541.3333333333334</ele><time>2026-04-26T10:24:30.548Z</time></trkpt><trkpt lat="40.35211584127681" lon="9.189956892199254"><ele>541.0</ele><time>2026-04-26T10:24:31.548Z</time></trkpt><trkpt lat="40.35203727043899" lon="9.189746806678821"><ele>541.0</ele><time>2026-04-26T10:24:32.548Z</time></trkpt><trkpt lat="40.35196757499962" lon="9.189546246717773"><ele>541.0</ele><time>2026-04-26T10:24:33.548Z</time></trkpt><trkpt lat="40.35190434255175" lon="9.189342058351894"><ele>541.0</ele><time>2026-04-26T10:24:34.548Z</time></trkpt><trkpt lat="40.35187146708923" lon="9.189161652411391"><ele>537.75</ele><time>2026-04-26T10:24:35.548Z</time></trkpt><trkpt lat="40.351882267927316" lon="9.188970256395825"><ele>534.5</ele><time>2026-04-26T10:24:36.548Z</time></trkpt><trkpt lat="40.35191664292783" lon="9.188775478351616"><ele>531.25</ele><time>2026-04-26T10:24:37.548Z</time></trkpt><trkpt lat="40.351938057512186" lon="9.188591726123855"><ele>528.0</ele><time>2026-04-26T10:24:38.548Z</time></trkpt><trkpt lat="40.35191987212327" lon="9.188423847418244"><ele>528.0</ele><time>2026-04-26T10:24:39.548Z</time></trkpt><trkpt lat="40.35183621812934" lon="9.18827745188627"><ele>528.0</ele><time>2026-04-26T10:24:40.548Z</time></trkpt><trkpt lat="40.35172592750134" lon="9.188169485414356"><ele>528.0</ele><time>2026-04-26T10:24:41.548Z</time></trkpt><trkpt lat="40.35159182525185" lon="9.18810356233967"><ele>528.0</ele><time>2026-04-26T10:24:42.548Z</time></trkpt><trkpt lat="40.351449100851184" lon="9.18806915492198"><ele>526.6666666666666</ele><time>2026-04-26T10:24:43.547Z</time></trkpt><trkpt lat="40.351304705364576" lon="9.188028854456649"><ele>525.3333333333333</ele><time>2026-04-26T10:24:44.547Z</time></trkpt><trkpt lat="40.35116248336155" lon="9.187951452085837"><ele>524.0</ele><time>2026-04-26T10:24:45.547Z</time></trkpt><trkpt lat="40.351036126339814" lon="9.187830486368327"><ele>524.0</ele><time>2026-04-26T10:24:46.547Z</time></trkpt><trkpt lat="40.35091509051732" lon="9.187700142200962"><ele>524.0</ele><time>2026-04-26T10:24:47.547Z</time></trkpt><trkpt lat="40.35079689496392" lon="9.187564057150537"><ele>524.0</ele><time>2026-04-26T10:24:48.547Z</time></trkpt><trkpt lat="40.35067800064082" lon="9.187416698372022"><ele>524.0</ele><time>2026-04-26T10:24:49.547Z</time></trkpt><trkpt lat="40.350565471399" lon="9.187258483674107"><ele>524.0</ele><time>2026-04-26T10:24:50.547Z</time></trkpt><trkpt lat="40.35046749931542" lon="9.187087590120068"><ele>524.0</ele><time>2026-04-26T10:24:51.547Z</time></trkpt><trkpt lat="40.35038273390675" lon="9.186901551682935"><ele>524.3333333333333</ele><time>2026-04-26T10:24:52.547Z</time></trkpt><trkpt lat="40.350305083524965" lon="9.18670538665506"><ele>524.6666666666666</ele><time>2026-04-26T10:24:53.547Z</time></trkpt><trkpt lat="40.350226882392036" lon="9.186513108626277"><ele>525.0</ele><time>2026-04-26T10:24:54.547Z</time></trkpt><trkpt lat="40.35016368891777" lon="9.186308327306692"><ele>525.0</ele><time>2026-04-26T10:24:55.547Z</time></trkpt><trkpt lat="40.350121438867454" lon="9.18608659610447"><ele>525.0</ele><time>2026-04-26T10:24:56.547Z</time></trkpt><trkpt lat="40.35009305521177" lon="9.18586866852607"><ele>525.0</ele><time>2026-04-26T10:24:57.547Z</time></trkpt><trkpt lat="40.35006364333967" lon="9.18566011449305"><ele>523.0</ele><time>2026-04-26T10:24:58.547Z</time></trkpt><trkpt lat="40.35003174879543" lon="9.185443395856034"><ele>521.0</ele><time>2026-04-26T10:24:59.547Z</time></trkpt><trkpt lat="40.349961444699346" lon="9.18525551618483"><ele>519.0</ele><time>2026-04-26T10:25:00.547Z</time></trkpt><trkpt lat="40.3498702014097" lon="9.185072798345844"><ele>519.0</ele><time>2026-04-26T10:25:01.547Z</time></trkpt><trkpt lat="40.3497584213153" lon="9.184920409912092"><ele>519.0</ele><time>2026-04-26T10:25:02.547Z</time></trkpt><trkpt lat="40.349617201474835" lon="9.18481606439961"><ele>519.0</ele><time>2026-04-26T10:25:03.547Z</time></trkpt><trkpt lat="40.349457377587214" lon="9.184748536463903"><ele>518.75</ele><time>2026-04-26T10:25:04.547Z</time></trkpt><trkpt lat="40.34929713827213" lon="9.184731187312952"><ele>518.5</ele><time>2026-04-26T10:25:05.547Z</time></trkpt><trkpt lat="40.34915765707956" lon="9.184776637183072"><ele>518.25</ele><time>2026-04-26T10:25:06.547Z</time></trkpt><trkpt lat="40.34906035846935" lon="9.184864905836932"><ele>518.0</ele><time>2026-04-26T10:25:07.547Z</time></trkpt><trkpt lat="40.348992451898475" lon="9.185010727035188"><ele>518.0</ele><time>2026-04-26T10:25:08.547Z</time></trkpt><trkpt lat="40.348957593550274" lon="9.185188167779682"><ele>518.0</ele><time>2026-04-26T10:25:09.546Z</time></trkpt><trkpt lat="40.34892988266605" lon="9.185358705167161"><ele>518.0</ele><time>2026-04-26T10:25:10.546Z</time></trkpt><trkpt lat="40.34888018483121" lon="9.185517373155399"><ele>518.0</ele><time>2026-04-26T10:25:11.546Z</time></trkpt><trkpt lat="40.348803371975066" lon="9.18563232453903"><ele>518.25</ele><time>2026-04-26T10:25:12.546Z</time></trkpt><trkpt lat="40.348703008909084" lon="9.185698379575134"><ele>518.5</ele><time>2026-04-26T10:25:13.546Z</time></trkpt><trkpt lat="40.34858941222339" lon="9.185693252791927"><ele>518.75</ele><time>2026-04-26T10:25:14.546Z</time></trkpt><trkpt lat="40.3484814752009" lon="9.185610452391638"><ele>519.0</ele><time>2026-04-26T10:25:15.546Z</time></trkpt><trkpt lat="40.34839990470948" lon="9.185465934219502"><ele>514.0</ele><time>2026-04-26T10:25:16.546Z</time></trkpt><trkpt lat="40.348332210557395" lon="9.185297990103416"><ele>509.0</ele><time>2026-04-26T10:25:17.546Z</time></trkpt><trkpt lat="40.348244892658506" lon="9.185122287482898"><ele>504.0</ele><time>2026-04-26T10:25:18.546Z</time></trkpt><trkpt lat="40.348129628098675" lon="9.184967058300801"><ele>498.0</ele><time>2026-04-26T10:25:19.546Z</time></trkpt><trkpt lat="40.347998327083225" lon="9.18484331287327"><ele>492.0</ele><time>2026-04-26T10:25:20.546Z</time></trkpt><trkpt lat="40.3478613186202" lon="9.184763742256122"><ele>486.0</ele><time>2026-04-26T10:25:21.546Z</time></trkpt><trkpt lat="40.347710641" lon="9.184751456733514"><ele>486.0</ele><time>2026-04-26T10:25:22.546Z</time></trkpt><trkpt lat="40.34753761548967" lon="9.184796322412781"><ele>486.0</ele><time>2026-04-26T10:25:23.546Z</time></trkpt><trkpt lat="40.347373403854924" lon="9.184854420924609"><ele>486.0</ele><time>2026-04-26T10:25:24.546Z</time></trkpt><trkpt lat="40.34720589550259" lon="9.184889601698254"><ele>488.25</ele><time>2026-04-26T10:25:25.546Z</time></trkpt><trkpt lat="40.3470584242352" lon="9.184852698218332"><ele>490.5</ele><time>2026-04-26T10:25:26.546Z</time></trkpt><trkpt lat="40.346921545244896" lon="9.184759377512012"><ele>492.75</ele><time>2026-04-26T10:25:27.546Z</time></trkpt><trkpt lat="40.34683131771327" lon="9.184623427463046"><ele>495.0</ele><time>2026-04-26T10:25:28.546Z</time></trkpt><trkpt lat="40.34678410179529" lon="9.184454052293956"><ele>495.0</ele><time>2026-04-26T10:25:29.546Z</time></trkpt><trkpt lat="40.34680295621577" lon="9.184264985999567"><ele>495.0</ele><time>2026-04-26T10:25:30.546Z</time></trkpt><trkpt lat="40.34683463150945" lon="9.184079492426253"><ele>495.0</ele><time>2026-04-26T10:25:31.546Z</time></trkpt><trkpt lat="40.34681043098807" lon="9.18389160647733"><ele>495.0</ele><time>2026-04-26T10:25:32.546Z</time></trkpt><trkpt lat="40.34673035161556" lon="9.183693089864319"><ele>493.33333333333337</ele><time>2026-04-26T10:25:33.546Z</time></trkpt><trkpt lat="40.34663104627395" lon="9.183522096695503"><ele>491.6666666666667</ele><time>2026-04-26T10:25:34.545Z</time></trkpt><trkpt lat="40.34651420184168" lon="9.183359597842255"><ele>490.0</ele><time>2026-04-26T10:25:35.545Z</time></trkpt><trkpt lat="40.34636605429944" lon="9.183203867398872"><ele>485.6666666666667</ele><time>2026-04-26T10:25:36.547Z</time></trkpt><trkpt lat="40.34620274591538" lon="9.183087611293814"><ele>481.33333333333337</ele><time>2026-04-26T10:25:37.546Z</time></trkpt><trkpt lat="40.34605997378658" lon="9.183004107401473"><ele>477.0</ele><time>2026-04-26T10:25:38.546Z</time></trkpt><trkpt lat="40.34593184974" lon="9.182965796907263"><ele>477.0</ele><time>2026-04-26T10:25:39.546Z</time></trkpt><trkpt lat="40.34580745651049" lon="9.182986548038052"><ele>477.0</ele><time>2026-04-26T10:25:40.546Z</time></trkpt><trkpt lat="40.34570339993299" lon="9.183076597440914"><ele>477.0</ele><time>2026-04-26T10:25:41.546Z</time></trkpt><trkpt lat="40.3456108932845" lon="9.183210464557924"><ele>477.0</ele><time>2026-04-26T10:25:42.546Z</time></trkpt><trkpt lat="40.34551035584644" lon="9.183365694278972"><ele>479.0</ele><time>2026-04-26T10:25:43.546Z</time></trkpt><trkpt lat="40.34539658963111" lon="9.18349428515361"><ele>481.0</ele><time>2026-04-26T10:25:44.546Z</time></trkpt><trkpt lat="40.34525823051405" lon="9.183563498297529"><ele>483.0</ele><time>2026-04-26T10:25:45.546Z</time></trkpt><trkpt lat="40.34511300150735" lon="9.183570524087491"><ele>485.0</ele><time>2026-04-26T10:25:46.546Z</time></trkpt><trkpt lat="40.344968747672766" lon="9.183514167422688"><ele>485.0</ele><time>2026-04-26T10:25:47.546Z</time></trkpt><trkpt lat="40.3448422321435" lon="9.183443375020373"><ele>485.0</ele><time>2026-04-26T10:25:48.546Z</time></trkpt><trkpt lat="40.344743742544146" lon="9.18332680947121"><ele>485.0</ele><time>2026-04-26T10:25:49.546Z</time></trkpt><trkpt lat="40.3446816210784" lon="9.183190009660903"><ele>485.0</ele><time>2026-04-26T10:25:50.546Z</time></trkpt><trkpt lat="40.34465884980582" lon="9.18302998845926"><ele>484.75</ele><time>2026-04-26T10:25:51.546Z</time></trkpt><trkpt lat="40.34467525641282" lon="9.182843395034789"><ele>484.5</ele><time>2026-04-26T10:25:52.546Z</time></trkpt><trkpt lat="40.34467353229693" lon="9.182646995025683"><ele>484.25</ele><time>2026-04-26T10:25:53.546Z</time></trkpt><trkpt lat="40.34464507534829" lon="9.182451716681191"><ele>484.0</ele><time>2026-04-26T10:25:54.546Z</time></trkpt><trkpt lat="40.34460154697388" lon="9.182248842909102"><ele>484.0</ele><time>2026-04-26T10:25:55.546Z</time></trkpt><trkpt lat="40.34455577195307" lon="9.182038772303128"><ele>484.0</ele><time>2026-04-26T10:25:56.546Z</time></trkpt><trkpt lat="40.34450467774852" lon="9.181830857340636"><ele>484.0</ele><time>2026-04-26T10:25:57.546Z</time></trkpt><trkpt lat="40.34444984384198" lon="9.181655400064232"><ele>484.0</ele><time>2026-04-26T10:25:58.546Z</time></trkpt><trkpt lat="40.34437108528581" lon="9.181516929303324"><ele>484.0</ele><time>2026-04-26T10:25:59.546Z</time></trkpt><trkpt lat="40.34425767561129" lon="9.181436126056628"><ele>484.0</ele><time>2026-04-26T10:26:00.546Z</time></trkpt><trkpt lat="40.344115347660185" lon="9.18139654444528"><ele>484.0</ele><time>2026-04-26T10:26:01.546Z</time></trkpt><trkpt lat="40.34396679948595" lon="9.181398948989514"><ele>482.4</ele><time>2026-04-26T10:26:02.546Z</time></trkpt><trkpt lat="40.34383834307283" lon="9.181414732681743"><ele>480.79999999999995</ele><time>2026-04-26T10:26:03.546Z</time></trkpt><trkpt lat="40.34373072415503" lon="9.181416231907214"><ele>479.20000000000005</ele><time>2026-04-26T10:26:04.546Z</time></trkpt><trkpt lat="40.343633421709065" lon="9.181411745880034"><ele>477.6</ele><time>2026-04-26T10:26:05.545Z</time></trkpt><trkpt lat="40.343551486363154" lon="9.181390002787444"><ele>476.0</ele><time>2026-04-26T10:26:06.545Z</time></trkpt><trkpt lat="40.343480591719" lon="9.18134038476462"><ele>476.0</ele><time>2026-04-26T10:26:07.545Z</time></trkpt><trkpt lat="40.34340967694049" lon="9.18128133189419"><ele>476.0</ele><time>2026-04-26T10:26:08.545Z</time></trkpt><trkpt lat="40.34333404284985" lon="9.181202824457891"><ele>476.0</ele><time>2026-04-26T10:26:09.545Z</time></trkpt><trkpt lat="40.34325440479466" lon="9.18110657498013"><ele>476.0</ele><time>2026-04-26T10:26:10.545Z</time></trkpt><trkpt lat="40.343169645491336" lon="9.180999789783048"><ele>476.0</ele><time>2026-04-26T10:26:11.545Z</time></trkpt><trkpt lat="40.34308481532438" lon="9.180880495827548"><ele>478.75</ele><time>2026-04-26T10:26:12.545Z</time></trkpt><trkpt lat="40.343015102648835" lon="9.18074873186497"><ele>481.5</ele><time>2026-04-26T10:26:13.545Z</time></trkpt><trkpt lat="40.342982771445016" lon="9.180609537509245"><ele>484.25</ele><time>2026-04-26T10:26:14.545Z</time></trkpt><trkpt lat="40.34298153906809" lon="9.180467856401634"><ele>487.0</ele><time>2026-04-26T10:26:15.545Z</time></trkpt><trkpt lat="40.34301055377609" lon="9.18031566847367"><ele>487.75</ele><time>2026-04-26T10:26:16.545Z</time></trkpt><trkpt lat="40.34304559995931" lon="9.18015286821923"><ele>488.5</ele><time>2026-04-26T10:26:17.545Z</time></trkpt><trkpt lat="40.3430716169085" lon="9.179976843568951"><ele>489.25</ele><time>2026-04-26T10:26:18.545Z</time></trkpt><trkpt lat="40.343085449663086" lon="9.179789552919694"><ele>490.0</ele><time>2026-04-26T10:26:19.545Z</time></trkpt><trkpt lat="40.34306281906423" lon="9.179599091519975"><ele>488.0</ele><time>2026-04-26T10:26:20.545Z</time></trkpt><trkpt lat="40.34301255563779" lon="9.17939734958032"><ele>486.0</ele><time>2026-04-26T10:26:21.545Z</time></trkpt><trkpt lat="40.34296420670823" lon="9.17918275271849"><ele>484.0</ele><time>2026-04-26T10:26:22.545Z</time></trkpt><trkpt lat="40.3429146749866" lon="9.17896074630811"><ele>482.0</ele><time>2026-04-26T10:26:23.545Z</time></trkpt><trkpt lat="40.342866235232584" lon="9.178740755116277"><ele>480.0</ele><time>2026-04-26T10:26:24.545Z</time></trkpt><trkpt lat="40.34282066653146" lon="9.178541509868802"><ele>478.0</ele><time>2026-04-26T10:26:25.545Z</time></trkpt><trkpt lat="40.34277305196072" lon="9.17836317208766"><ele>478.0</ele><time>2026-04-26T10:26:26.545Z</time></trkpt><trkpt lat="40.34269523583178" lon="9.17822148563627"><ele>478.0</ele><time>2026-04-26T10:26:27.545Z</time></trkpt><trkpt lat="40.34258754091461" lon="9.178127642376715"><ele>478.0</ele><time>2026-04-26T10:26:28.545Z</time></trkpt><trkpt lat="40.342455582703415" lon="9.178088985043424"><ele>478.0</ele><time>2026-04-26T10:26:29.545Z</time></trkpt><trkpt lat="40.342307459622575" lon="9.178100846975939"><ele>475.0</ele><time>2026-04-26T10:26:30.544Z</time></trkpt><trkpt lat="40.34214938646837" lon="9.178137915845062"><ele>472.0</ele><time>2026-04-26T10:26:31.544Z</time></trkpt><trkpt lat="40.34198547763307" lon="9.178163918035661"><ele>469.0</ele><time>2026-04-26T10:26:32.544Z</time></trkpt><trkpt lat="40.34181776699506" lon="9.178181963900995"><ele>469.0</ele><time>2026-04-26T10:26:33.544Z</time></trkpt><trkpt lat="40.341662320508256" lon="9.178156137305047"><ele>469.0</ele><time>2026-04-26T10:26:34.544Z</time></trkpt><trkpt lat="40.341526692585816" lon="9.178072463575468"><ele>469.0</ele><time>2026-04-26T10:26:35.544Z</time></trkpt><trkpt lat="40.34142472581167" lon="9.177927275823038"><ele>469.33333333333337</ele><time>2026-04-26T10:26:36.544Z</time></trkpt><trkpt lat="40.34132695022736" lon="9.177767212121953"><ele>469.66666666666663</ele><time>2026-04-26T10:26:37.544Z</time></trkpt><trkpt lat="40.34121472621055" lon="9.177650340414964"><ele>470.0</ele><time>2026-04-26T10:26:38.544Z</time></trkpt><trkpt lat="40.341071535232736" lon="9.177581952342388"><ele>470.0</ele><time>2026-04-26T10:26:39.544Z</time></trkpt><trkpt lat="40.340922245975335" lon="9.177538837484644"><ele>470.0</ele><time>2026-04-26T10:26:40.544Z</time></trkpt><trkpt lat="40.34076086973198" lon="9.177501808900132"><ele>470.0</ele><time>2026-04-26T10:26:41.544Z</time></trkpt><trkpt lat="40.340613129613274" lon="9.177465545348138"><ele>469.25</ele><time>2026-04-26T10:26:42.544Z</time></trkpt><trkpt lat="40.34047541146544" lon="9.177451163456617"><ele>468.5</ele><time>2026-04-26T10:26:43.544Z</time></trkpt><trkpt lat="40.340348392274834" lon="9.177500592264607"><ele>467.75</ele><time>2026-04-26T10:26:44.544Z</time></trkpt><trkpt lat="40.340219804808314" lon="9.177589056730104"><ele>467.0</ele><time>2026-04-26T10:26:45.544Z</time></trkpt><trkpt lat="40.340087905178876" lon="9.177678613941131"><ele>467.0</ele><time>2026-04-26T10:26:46.544Z</time></trkpt><trkpt lat="40.339957090027525" lon="9.177724146897956"><ele>467.0</ele><time>2026-04-26T10:26:47.544Z</time></trkpt><trkpt lat="40.339821875635124" lon="9.177700514780856"><ele>467.0</ele><time>2026-04-26T10:26:48.544Z</time></trkpt><trkpt lat="40.33969224313724" lon="9.177617716109584"><ele>467.0</ele><time>2026-04-26T10:26:49.544Z</time></trkpt><trkpt lat="40.33956271915181" lon="9.177515757380538"><ele>467.25</ele><time>2026-04-26T10:26:50.544Z</time></trkpt><trkpt lat="40.339454943987775" lon="9.177392275152588"><ele>467.5</ele><time>2026-04-26T10:26:51.544Z</time></trkpt><trkpt lat="40.33937284834119" lon="9.177270004685628"><ele>467.75</ele><time>2026-04-26T10:26:52.544Z</time></trkpt><trkpt lat="40.33931196591993" lon="9.177158721909095"><ele>468.0</ele><time>2026-04-26T10:26:53.544Z</time></trkpt><trkpt lat="40.33927015645018" lon="9.177046341673448"><ele>467.4</ele><time>2026-04-26T10:26:54.544Z</time></trkpt><trkpt lat="40.3392351421948" lon="9.176940694545168"><ele>466.79999999999995</ele><time>2026-04-26T10:26:55.544Z</time></trkpt><trkpt lat="40.33920585273785" lon="9.176824741097109"><ele>466.2</ele><time>2026-04-26T10:26:56.543Z</time></trkpt><trkpt lat="40.339165222214824" lon="9.17669430434429"><ele>465.6</ele><time>2026-04-26T10:26:57.543Z</time></trkpt><trkpt lat="40.33912573873944" lon="9.1765651129459"><ele>465.0</ele><time>2026-04-26T10:26:58.543Z</time></trkpt><trkpt lat="40.339077529315944" lon="9.176423214238742"><ele>465.0</ele><time>2026-04-26T10:26:59.543Z</time></trkpt><trkpt lat="40.33903345807903" lon="9.176276745003234"><ele>465.0</ele><time>2026-04-26T10:27:00.543Z</time></trkpt><trkpt lat="40.33897541943951" lon="9.17612839352297"><ele>465.0</ele><time>2026-04-26T10:27:01.543Z</time></trkpt><trkpt lat="40.338902771415995" lon="9.17598279224868"><ele>465.0</ele><time>2026-04-26T10:27:02.543Z</time></trkpt><trkpt lat="40.338804155108214" lon="9.175840573860624"><ele>465.0</ele><time>2026-04-26T10:27:03.543Z</time></trkpt><trkpt lat="40.338693122061194" lon="9.175714430125334"><ele>465.0</ele><time>2026-04-26T10:27:04.543Z</time></trkpt><trkpt lat="40.33857051134902" lon="9.17561019728945"><ele>465.0</ele><time>2026-04-26T10:27:05.543Z</time></trkpt><trkpt lat="40.33844802124481" lon="9.175498975930756"><ele>465.0</ele><time>2026-04-26T10:27:06.543Z</time></trkpt><trkpt lat="40.33831599453821" lon="9.175386017055885"><ele>463.33333333333337</ele><time>2026-04-26T10:27:07.543Z</time></trkpt><trkpt lat="40.33817184166842" lon="9.17528583175947"><ele>461.6666666666667</ele><time>2026-04-26T10:27:08.543Z</time></trkpt><trkpt lat="40.338020100084435" lon="9.175183021369977"><ele>460.0</ele><time>2026-04-26T10:27:09.543Z</time></trkpt><trkpt lat="40.33786745005023" lon="9.17507446352313"><ele>460.0</ele><time>2026-04-26T10:27:10.543Z</time></trkpt><trkpt lat="40.33772046114394" lon="9.174947422204347"><ele>460.0</ele><time>2026-04-26T10:27:11.543Z</time></trkpt><trkpt lat="40.33757823086925" lon="9.174802670027335"><ele>460.0</ele><time>2026-04-26T10:27:12.543Z</time></trkpt><trkpt lat="40.33744524617025" lon="9.174639160132527"><ele>458.6666666666667</ele><time>2026-04-26T10:27:13.543Z</time></trkpt><trkpt lat="40.33731620793493" lon="9.174472775160803"><ele>457.33333333333337</ele><time>2026-04-26T10:27:14.543Z</time></trkpt><trkpt lat="40.337175742311395" lon="9.17432556393414"><ele>456.0</ele><time>2026-04-26T10:27:15.543Z</time></trkpt><trkpt lat="40.33701891305716" lon="9.174202031135087"><ele>456.0</ele><time>2026-04-26T10:27:16.543Z</time></trkpt><trkpt lat="40.33685481179927" lon="9.174100709179276"><ele>456.0</ele><time>2026-04-26T10:27:17.543Z</time></trkpt><trkpt lat="40.33668796416113" lon="9.174002641297307"><ele>456.0</ele><time>2026-04-26T10:27:18.543Z</time></trkpt><trkpt lat="40.33652462041752" lon="9.173903971317856"><ele>455.66666666666663</ele><time>2026-04-26T10:27:19.543Z</time></trkpt><trkpt lat="40.336362472415324" lon="9.17379717726979"><ele>455.3333333333333</ele><time>2026-04-26T10:27:20.543Z</time></trkpt><trkpt lat="40.33619281439928" lon="9.173694728739285"><ele>455.0</ele><time>2026-04-26T10:27:21.542Z</time></trkpt><trkpt lat="40.336025957253035" lon="9.173590763873941"><ele>455.0</ele><time>2026-04-26T10:27:22.542Z</time></trkpt><trkpt lat="40.33585904065366" lon="9.17349749251205"><ele>455.0</ele><time>2026-04-26T10:27:23.542Z</time></trkpt><trkpt lat="40.33568934704236" lon="9.173428082040767"><ele>455.0</ele><time>2026-04-26T10:27:24.542Z</time></trkpt><trkpt lat="40.33552371223163" lon="9.173380791657658"><ele>453.75</ele><time>2026-04-26T10:27:25.542Z</time></trkpt><trkpt lat="40.33536636683621" lon="9.173336951795708"><ele>452.5</ele><time>2026-04-26T10:27:26.542Z</time></trkpt><trkpt lat="40.335215537653184" lon="9.173303116526693"><ele>451.25</ele><time>2026-04-26T10:27:27.542Z</time></trkpt><trkpt lat="40.33508601716167" lon="9.173274862513356"><ele>450.0</ele><time>2026-04-26T10:27:28.542Z</time></trkpt><trkpt lat="40.334971310114526" lon="9.173295522893481"><ele>450.0</ele><time>2026-04-26T10:27:29.542Z</time></trkpt><trkpt lat="40.33488042364879" lon="9.173383103109382"><ele>450.0</ele><time>2026-04-26T10:27:30.542Z</time></trkpt><trkpt lat="40.334799628182374" lon="9.173513975788834"><ele>450.0</ele><time>2026-04-26T10:27:31.542Z</time></trkpt><trkpt lat="40.334697525932135" lon="9.173657042978865"><ele>450.0</ele><time>2026-04-26T10:27:32.542Z</time></trkpt><trkpt lat="40.33456504204564" lon="9.173769817046765"><ele>444.0</ele><time>2026-04-26T10:27:33.542Z</time></trkpt><trkpt lat="40.33438990145644" lon="9.17382860761937"><ele>438.0</ele><time>2026-04-26T10:27:34.542Z</time></trkpt><trkpt lat="40.33421495564621" lon="9.173914817410207"><ele>432.0</ele><time>2026-04-26T10:27:35.542Z</time></trkpt><trkpt lat="40.33405588705532" lon="9.174017148575642"><ele>432.33333333333337</ele><time>2026-04-26T10:27:36.542Z</time></trkpt><trkpt lat="40.333895263181496" lon="9.174112359377212"><ele>432.6666666666667</ele><time>2026-04-26T10:27:37.542Z</time></trkpt><trkpt lat="40.33373562221394" lon="9.174228311190527"><ele>433.0</ele><time>2026-04-26T10:27:38.542Z</time></trkpt><trkpt lat="40.33356824509131" lon="9.174361361299285"><ele>433.0</ele><time>2026-04-26T10:27:39.542Z</time></trkpt><trkpt lat="40.33339756940361" lon="9.174515858688263"><ele>433.0</ele><time>2026-04-26T10:27:40.542Z</time></trkpt><trkpt lat="40.333215544051" lon="9.174647233498531"><ele>433.0</ele><time>2026-04-26T10:27:41.542Z</time></trkpt><trkpt lat="40.3330372323485" lon="9.174796679178806"><ele>432.0</ele><time>2026-04-26T10:27:42.542Z</time></trkpt><trkpt lat="40.33285389052217" lon="9.174940299705552"><ele>431.0</ele><time>2026-04-26T10:27:43.542Z</time></trkpt><trkpt lat="40.33267319481295" lon="9.175076083016439"><ele>430.0</ele><time>2026-04-26T10:27:44.542Z</time></trkpt><trkpt lat="40.33246740312966" lon="9.175137854625737"><ele>430.0</ele><time>2026-04-26T10:27:45.542Z</time></trkpt><trkpt lat="40.33227807021154" lon="9.17521987870383"><ele>430.0</ele><time>2026-04-26T10:27:46.542Z</time></trkpt><trkpt lat="40.33209063242689" lon="9.175287095242137"><ele>430.0</ele><time>2026-04-26T10:27:47.542Z</time></trkpt><trkpt lat="40.33191631530731" lon="9.175384716985123"><ele>430.0</ele><time>2026-04-26T10:27:48.543Z</time></trkpt><trkpt lat="40.33175283351424" lon="9.175507517378714"><ele>430.0</ele><time>2026-04-26T10:27:49.542Z</time></trkpt><trkpt lat="40.331605242309024" lon="9.175679171375673"><ele>430.0</ele><time>2026-04-26T10:27:50.542Z</time></trkpt><trkpt lat="40.331475776226924" lon="9.175837855230583"><ele>427.0</ele><time>2026-04-26T10:27:51.542Z</time></trkpt><trkpt lat="40.3313585131586" lon="9.175980084688364"><ele>424.0</ele><time>2026-04-26T10:27:52.542Z</time></trkpt><trkpt lat="40.331243249006185" lon="9.176099801881417"><ele>421.0</ele><time>2026-04-26T10:27:53.542Z</time></trkpt><trkpt lat="40.33111867292207" lon="9.176170044727407"><ele>418.0</ele><time>2026-04-26T10:27:54.542Z</time></trkpt><trkpt lat="40.330987554471825" lon="9.176161276344196"><ele>418.0</ele><time>2026-04-26T10:27:55.542Z</time></trkpt><trkpt lat="40.33083530959958" lon="9.176103702353362"><ele>418.0</ele><time>2026-04-26T10:27:56.542Z</time></trkpt><trkpt lat="40.33067016398806" lon="9.176035997205688"><ele>418.0</ele><time>2026-04-26T10:27:57.542Z</time></trkpt><trkpt lat="40.33049769429621" lon="9.175966366614922"><ele>418.0</ele><time>2026-04-26T10:27:58.542Z</time></trkpt><trkpt lat="40.33032374591227" lon="9.17589600493008"><ele>418.0</ele><time>2026-04-26T10:27:59.542Z</time></trkpt><trkpt lat="40.330156895883434" lon="9.17582851585659"><ele>418.0</ele><time>2026-04-26T10:28:00.542Z</time></trkpt><trkpt lat="40.32999727009405" lon="9.175787127594731"><ele>418.0</ele><time>2026-04-26T10:28:01.542Z</time></trkpt><trkpt lat="40.32984304602398" lon="9.175726451960164"><ele>418.0</ele><time>2026-04-26T10:28:02.542Z</time></trkpt><trkpt lat="40.32968455399948" lon="9.175684090776146"><ele>418.0</ele><time>2026-04-26T10:28:03.542Z</time></trkpt><trkpt lat="40.32952857749697" lon="9.175693032343302"><ele>416.6666666666667</ele><time>2026-04-26T10:28:04.541Z</time></trkpt><trkpt lat="40.329367650811946" lon="9.175760186518136"><ele>415.33333333333337</ele><time>2026-04-26T10:28:05.541Z</time></trkpt><trkpt lat="40.329203855513384" lon="9.17587705039808"><ele>414.0</ele><time>2026-04-26T10:28:06.541Z</time></trkpt><trkpt lat="40.329028755801126" lon="9.176000903977753"><ele>409.66666666666663</ele><time>2026-04-26T10:28:07.541Z</time></trkpt><trkpt lat="40.32883735213441" lon="9.176104829021325"><ele>405.3333333333333</ele><time>2026-04-26T10:28:08.541Z</time></trkpt><trkpt lat="40.32865065854063" lon="9.176226636979044"><ele>401.0</ele><time>2026-04-26T10:28:09.541Z</time></trkpt><trkpt lat="40.32846584292299" lon="9.176347434067589"><ele>401.0</ele><time>2026-04-26T10:28:10.541Z</time></trkpt><trkpt lat="40.32828019668596" lon="9.176468778165551"><ele>401.0</ele><time>2026-04-26T10:28:11.541Z</time></trkpt><trkpt lat="40.3281008966168" lon="9.176587232066613"><ele>401.0</ele><time>2026-04-26T10:28:12.541Z</time></trkpt><trkpt lat="40.327924725567755" lon="9.17670361876282"><ele>401.66666666666663</ele><time>2026-04-26T10:28:13.541Z</time></trkpt><trkpt lat="40.327757674456784" lon="9.176809885956551"><ele>402.33333333333337</ele><time>2026-04-26T10:28:14.541Z</time></trkpt><trkpt lat="40.32759790519634" lon="9.176875297005164"><ele>403.0</ele><time>2026-04-26T10:28:15.541Z</time></trkpt><trkpt lat="40.327429802176624" lon="9.176896765555279"><ele>403.0</ele><time>2026-04-26T10:28:16.541Z</time></trkpt><trkpt lat="40.32725113299488" lon="9.17686644549706"><ele>403.0</ele><time>2026-04-26T10:28:17.541Z</time></trkpt><trkpt lat="40.32706151106286" lon="9.17681379110827"><ele>403.0</ele><time>2026-04-26T10:28:18.541Z</time></trkpt><trkpt lat="40.326863543304746" lon="9.176759241953533"><ele>403.33333333333337</ele><time>2026-04-26T10:28:19.541Z</time></trkpt><trkpt lat="40.32666247344909" lon="9.176688232050568"><ele>403.66666666666663</ele><time>2026-04-26T10:28:20.541Z</time></trkpt><trkpt lat="40.326470652365416" lon="9.176577678116177"><ele>404.0</ele><time>2026-04-26T10:28:21.541Z</time></trkpt><trkpt lat="40.32628336005395" lon="9.176428924735193"><ele>400.5</ele><time>2026-04-26T10:28:22.541Z</time></trkpt><trkpt lat="40.32608413425371" lon="9.176277211554746"><ele>397.0</ele><time>2026-04-26T10:28:23.541Z</time></trkpt><trkpt lat="40.32588674522862" lon="9.176124138772032"><ele>397.0</ele><time>2026-04-26T10:28:24.541Z</time></trkpt><trkpt lat="40.3256882382908" lon="9.17596523894562"><ele>397.0</ele><time>2026-04-26T10:28:25.541Z</time></trkpt><trkpt lat="40.32550384226592" lon="9.175821085567597"><ele>397.0</ele><time>2026-04-26T10:28:26.541Z</time></trkpt><trkpt lat="40.32531975788809" lon="9.175706070572126"><ele>396.6666666666667</ele><time>2026-04-26T10:28:27.541Z</time></trkpt><trkpt lat="40.32513067646096" lon="9.175675491406714"><ele>396.33333333333337</ele><time>2026-04-26T10:28:28.541Z</time></trkpt><trkpt lat="40.32493440232827" lon="9.175659048736195"><ele>396.0</ele><time>2026-04-26T10:28:29.541Z</time></trkpt><trkpt lat="40.32472591284281" lon="9.175629614454225"><ele>396.0</ele><time>2026-04-26T10:28:30.54Z</time></trkpt><trkpt lat="40.32451370983809" lon="9.17561003097882"><ele>396.0</ele><time>2026-04-26T10:28:31.54Z</time></trkpt><trkpt lat="40.32429673575045" lon="9.175590007196503"><ele>396.0</ele><time>2026-04-26T10:28:32.54Z</time></trkpt><trkpt lat="40.32407489994253" lon="9.1755684608637"><ele>395.0</ele><time>2026-04-26T10:28:33.54Z</time></trkpt><trkpt lat="40.32385092184389" lon="9.175546211610824"><ele>394.0</ele><time>2026-04-26T10:28:34.54Z</time></trkpt><trkpt lat="40.323629858589136" lon="9.175543940279079"><ele>393.0</ele><time>2026-04-26T10:28:35.54Z</time></trkpt><trkpt lat="40.32340755784526" lon="9.175516985895543"><ele>393.0</ele><time>2026-04-26T10:28:36.54Z</time></trkpt><trkpt lat="40.32318998802883" lon="9.175502724479767"><ele>393.0</ele><time>2026-04-26T10:28:37.54Z</time></trkpt><trkpt lat="40.32297705026312" lon="9.17552572498149"><ele>393.0</ele><time>2026-04-26T10:28:38.54Z</time></trkpt><trkpt lat="40.32276554214663" lon="9.175581783231252"><ele>392.33333333333337</ele><time>2026-04-26T10:28:39.54Z</time></trkpt><trkpt lat="40.322547046289195" lon="9.175645482327663"><ele>391.6666666666667</ele><time>2026-04-26T10:28:40.54Z</time></trkpt><trkpt lat="40.322327903407285" lon="9.175704330377608"><ele>391.0</ele><time>2026-04-26T10:28:41.54Z</time></trkpt><trkpt lat="40.32210720427424" lon="9.175768621521001"><ele>390.6666666666667</ele><time>2026-04-26T10:28:42.54Z</time></trkpt><trkpt lat="40.32189095356492" lon="9.175830786949348"><ele>390.33333333333337</ele><time>2026-04-26T10:28:43.54Z</time></trkpt><trkpt lat="40.32168991030128" lon="9.175890241991562"><ele>390.0</ele><time>2026-04-26T10:28:44.54Z</time></trkpt><trkpt lat="40.321496113567036" lon="9.175950295257396"><ele>389.0</ele><time>2026-04-26T10:28:45.54Z</time></trkpt><trkpt lat="40.3213168119194" lon="9.175999844500756"><ele>388.0</ele><time>2026-04-26T10:28:46.54Z</time></trkpt><trkpt lat="40.321146023423736" lon="9.176044305363687"><ele>387.0</ele><time>2026-04-26T10:28:47.54Z</time></trkpt><trkpt lat="40.320985796034755" lon="9.176090083393445"><ele>387.0</ele><time>2026-04-26T10:28:48.54Z</time></trkpt><trkpt lat="40.32082689241709" lon="9.176131708145132"><ele>387.0</ele><time>2026-04-26T10:28:49.54Z</time></trkpt><trkpt lat="40.32068876800905" lon="9.176176375334151"><ele>387.0</ele><time>2026-04-26T10:28:50.54Z</time></trkpt><trkpt lat="40.32058716200488" lon="9.176248074799684"><ele>387.0</ele><time>2026-04-26T10:28:51.54Z</time></trkpt><trkpt lat="40.32052413095733" lon="9.176369964212313"><ele>387.0</ele><time>2026-04-26T10:28:52.54Z</time></trkpt><trkpt lat="40.32050450667743" lon="9.176520339815523"><ele>387.0</ele><time>2026-04-26T10:28:53.54Z</time></trkpt><trkpt lat="40.32052862626369" lon="9.176693031636828"><ele>387.0</ele><time>2026-04-26T10:28:54.54Z</time></trkpt><trkpt lat="40.32057366499019" lon="9.176882352468816"><ele>387.0</ele><time>2026-04-26T10:28:55.539Z</time></trkpt><trkpt lat="40.320610988779904" lon="9.177091043401877"><ele>389.25</ele><time>2026-04-26T10:28:56.539Z</time></trkpt><trkpt lat="40.32065716374387" lon="9.17728677698408"><ele>391.5</ele><time>2026-04-26T10:28:57.539Z</time></trkpt><trkpt lat="40.32070039949113" lon="9.177461482817725"><ele>393.75</ele><time>2026-04-26T10:28:58.539Z</time></trkpt><trkpt lat="40.32068825943961" lon="9.177612910123077"><ele>396.0</ele><time>2026-04-26T10:28:59.539Z</time></trkpt><trkpt lat="40.320648710620034" lon="9.17773683729715"><ele>396.20000000000005</ele><time>2026-04-26T10:29:00.539Z</time></trkpt><trkpt lat="40.32057615101881" lon="9.177834386575027"><ele>396.40000000000003</ele><time>2026-04-26T10:29:01.539Z</time></trkpt><trkpt lat="40.32048114084422" lon="9.1778851341347"><ele>396.6</ele><time>2026-04-26T10:29:02.539Z</time></trkpt><trkpt lat="40.3203877027477" lon="9.17787316651022"><ele>396.8</ele><time>2026-04-26T10:29:03.539Z</time></trkpt><trkpt lat="40.3203187243253" lon="9.177809564731628"><ele>397.0</ele><time>2026-04-26T10:29:04.539Z</time></trkpt><trkpt lat="40.32026818427121" lon="9.17769493457837"><ele>395.75</ele><time>2026-04-26T10:29:05.539Z</time></trkpt><trkpt lat="40.32018708106166" lon="9.177578612896097"><ele>394.5</ele><time>2026-04-26T10:29:06.539Z</time></trkpt><trkpt lat="40.320111221716196" lon="9.177429493410946"><ele>393.25</ele><time>2026-04-26T10:29:07.539Z</time></trkpt><trkpt lat="40.32002818182662" lon="9.177271453441817"><ele>392.0</ele><time>2026-04-26T10:29:08.539Z</time></trkpt><trkpt lat="40.31993549174676" lon="9.177099544914741"><ele>390.3333333333333</ele><time>2026-04-26T10:29:09.539Z</time></trkpt><trkpt lat="40.31984610549884" lon="9.176929672245558"><ele>388.66666666666663</ele><time>2026-04-26T10:29:10.539Z</time></trkpt><trkpt lat="40.3197492407179" lon="9.176787270994538"><ele>387.0</ele><time>2026-04-26T10:29:11.539Z</time></trkpt><trkpt lat="40.319621310966035" lon="9.17668784255049"><ele>387.0</ele><time>2026-04-26T10:29:12.539Z</time></trkpt><trkpt lat="40.319467899626815" lon="9.176616227630294"><ele>387.0</ele><time>2026-04-26T10:29:13.539Z</time></trkpt><trkpt lat="40.31930078039281" lon="9.176542067766249"><ele>387.0</ele><time>2026-04-26T10:29:14.539Z</time></trkpt><trkpt lat="40.319137046350676" lon="9.176452234440376"><ele>385.3333333333333</ele><time>2026-04-26T10:29:15.539Z</time></trkpt><trkpt lat="40.31898300110236" lon="9.176368495836531"><ele>383.66666666666663</ele><time>2026-04-26T10:29:16.539Z</time></trkpt><trkpt lat="40.318832800235" lon="9.17632086036414"><ele>382.0</ele><time>2026-04-26T10:29:17.539Z</time></trkpt><trkpt lat="40.318677920713874" lon="9.17630007395157"><ele>382.0</ele><time>2026-04-26T10:29:18.539Z</time></trkpt><trkpt lat="40.318522370004544" lon="9.176304856127837"><ele>382.0</ele><time>2026-04-26T10:29:19.539Z</time></trkpt><trkpt lat="40.31837587717848" lon="9.176303690737136"><ele>382.0</ele><time>2026-04-26T10:29:20.539Z</time></trkpt><trkpt lat="40.31823738497493" lon="9.17622627970885"><ele>382.0</ele><time>2026-04-26T10:29:21.538Z</time></trkpt><trkpt lat="40.318117626054594" lon="9.176099965673753"><ele>382.0</ele><time>2026-04-26T10:29:22.538Z</time></trkpt><trkpt lat="40.31798299461911" lon="9.175963878680179"><ele>382.0</ele><time>2026-04-26T10:29:23.538Z</time></trkpt><trkpt lat="40.31783483999121" lon="9.175839706424696"><ele>383.66666666666663</ele><time>2026-04-26T10:29:24.538Z</time></trkpt><trkpt lat="40.317667752859144" lon="9.175724865559514"><ele>385.3333333333333</ele><time>2026-04-26T10:29:25.538Z</time></trkpt><trkpt lat="40.31749808680369" lon="9.175615413990707"><ele>387.0</ele><time>2026-04-26T10:29:26.538Z</time></trkpt><trkpt lat="40.31733979868198" lon="9.17552038456641"><ele>385.0</ele><time>2026-04-26T10:29:27.538Z</time></trkpt><trkpt lat="40.31717792752651" lon="9.175449088569762"><ele>383.0</ele><time>2026-04-26T10:29:28.538Z</time></trkpt><trkpt lat="40.31699937337494" lon="9.17540490277504"><ele>381.0</ele><time>2026-04-26T10:29:29.538Z</time></trkpt><trkpt lat="40.31681437541535" lon="9.175378131580329"><ele>381.0</ele><time>2026-04-26T10:29:30.538Z</time></trkpt><trkpt lat="40.31663360135798" lon="9.175351117928924"><ele>381.0</ele><time>2026-04-26T10:29:31.538Z</time></trkpt><trkpt lat="40.31646397667094" lon="9.17532438007888"><ele>381.0</ele><time>2026-04-26T10:29:32.538Z</time></trkpt><trkpt lat="40.31629900131709" lon="9.175300099717996"><ele>380.5</ele><time>2026-04-26T10:29:33.538Z</time></trkpt><trkpt lat="40.3161449734043" lon="9.175277362460328"><ele>380.0</ele><time>2026-04-26T10:29:34.538Z</time></trkpt><trkpt lat="40.31599606523091" lon="9.175255228629345"><ele>379.5</ele><time>2026-04-26T10:29:35.538Z</time></trkpt><trkpt lat="40.315864698693325" lon="9.175228727801553"><ele>379.0</ele><time>2026-04-26T10:29:36.538Z</time></trkpt><trkpt lat="40.31576031280358" lon="9.17520887896115"><ele>379.0</ele><time>2026-04-26T10:29:37.538Z</time></trkpt><trkpt lat="40.31568461891895" lon="9.175191908091875"><ele>379.0</ele><time>2026-04-26T10:29:38.538Z</time></trkpt><trkpt lat="40.315592773948964" lon="9.175172689946384"><ele>379.0</ele><time>2026-04-26T10:29:40.538Z</time></trkpt><trkpt lat="40.31550020411227" lon="9.175139296358786"><ele>379.0</ele><time>2026-04-26T10:29:43.538Z</time></trkpt><trkpt lat="40.31542285380601" lon="9.175149407517381"><ele>379.0</ele><time>2026-04-26T10:29:47.537Z</time></trkpt><trkpt lat="40.31535355060856" lon="9.175158466772704"><ele>379.0</ele><time>2026-04-26T10:29:50.538Z</time></trkpt><trkpt lat="40.31534197974096" lon="9.175268630499035"><ele>378.8333333333333</ele><time>2026-04-26T10:29:51.538Z</time></trkpt><trkpt lat="40.31532202029771" lon="9.175403993477204"><ele>378.66666666666663</ele><time>2026-04-26T10:29:54.538Z</time></trkpt><trkpt lat="40.31530051861831" lon="9.17555944643098"><ele>378.5</ele><time>2026-04-26T10:29:56.538Z</time></trkpt><trkpt lat="40.31528707298248" lon="9.175640465353199"><ele>378.3333333333333</ele><time>2026-04-26T10:29:57.539Z</time></trkpt><trkpt lat="40.31527783094043" lon="9.175724985785"><ele>378.1666666666667</ele><time>2026-04-26T10:29:58.537Z</time></trkpt><trkpt lat="40.31526141788166" lon="9.175811674775181"><ele>378.0</ele><time>2026-04-26T10:29:59.537Z</time></trkpt><trkpt lat="40.31524706434314" lon="9.175897583705865"><ele>377.8333333333333</ele><time>2026-04-26T10:30:00.538Z</time></trkpt><trkpt lat="40.315222635522005" lon="9.175977583000076"><ele>377.6666666666667</ele><time>2026-04-26T10:30:01.538Z</time></trkpt><trkpt lat="40.31516611244289" lon="9.176047054283325"><ele>377.5</ele><time>2026-04-26T10:30:03.537Z</time></trkpt><trkpt lat="40.31511660330513" lon="9.17612705825822"><ele>377.33333333333337</ele><time>2026-04-26T10:31:14.535Z</time></trkpt><trkpt lat="40.31505597304097" lon="9.176175552817577"><ele>377.1666666666667</ele><time>2026-04-26T10:31:15.535Z</time></trkpt><trkpt lat="40.31498064550264" lon="9.176259541330781"><ele>377.0</ele><time>2026-04-26T10:31:16.535Z</time></trkpt><trkpt lat="40.31491501955136" lon="9.176403900034812"><ele>375.6666666666667</ele><time>2026-04-26T10:31:17.535Z</time></trkpt><trkpt lat="40.31483343083731" lon="9.176573003684828"><ele>374.3333333333333</ele><time>2026-04-26T10:31:18.534Z</time></trkpt><trkpt lat="40.31472157482062" lon="9.176753953265452"><ele>373.0</ele><time>2026-04-26T10:31:19.534Z</time></trkpt><trkpt lat="40.31457633185008" lon="9.176942767589141"><ele>372.5</ele><time>2026-04-26T10:31:20.534Z</time></trkpt><trkpt lat="40.3143973506634" lon="9.177131515525815"><ele>372.0</ele><time>2026-04-26T10:31:21.534Z</time></trkpt><trkpt lat="40.314188097404305" lon="9.177298611098855"><ele>370.5</ele><time>2026-04-26T10:31:22.534Z</time></trkpt><trkpt lat="40.313953424775704" lon="9.1774274444255"><ele>369.0</ele><time>2026-04-26T10:31:23.534Z</time></trkpt><trkpt lat="40.31369949874684" lon="9.17751217549715"><ele>367.0</ele><time>2026-04-26T10:31:24.534Z</time></trkpt><trkpt lat="40.313433194783094" lon="9.177570982399569"><ele>365.0</ele><time>2026-04-26T10:31:25.534Z</time></trkpt><trkpt lat="40.31317616366346" lon="9.177636115655009"><ele>363.0</ele><time>2026-04-26T10:31:26.534Z</time></trkpt><trkpt lat="40.31293222353941" lon="9.177691906122156"><ele>361.0</ele><time>2026-04-26T10:31:27.534Z</time></trkpt><trkpt lat="40.31269513743333" lon="9.177736896564117"><ele>361.0</ele><time>2026-04-26T10:31:28.534Z</time></trkpt><trkpt lat="40.31246313993641" lon="9.177785037283519"><ele>361.0</ele><time>2026-04-26T10:31:29.534Z</time></trkpt><trkpt lat="40.31223122759301" lon="9.17783910836718"><ele>359.0</ele><time>2026-04-26T10:31:30.534Z</time></trkpt><trkpt lat="40.31199937665283" lon="9.177889285588074"><ele>357.0</ele><time>2026-04-26T10:31:31.534Z</time></trkpt><trkpt lat="40.31176907956496" lon="9.177941810577927"><ele>357.0</ele><time>2026-04-26T10:31:32.534Z</time></trkpt><trkpt lat="40.311538592303776" lon="9.177991271036376"><ele>357.0</ele><time>2026-04-26T10:31:33.534Z</time></trkpt><trkpt lat="40.31131073699125" lon="9.178043545764584"><ele>353.5</ele><time>2026-04-26T10:31:34.534Z</time></trkpt><trkpt lat="40.31108305741102" lon="9.178099092800169"><ele>350.0</ele><time>2026-04-26T10:31:35.534Z</time></trkpt><trkpt lat="40.3108573983209" lon="9.178142877528694"><ele>350.0</ele><time>2026-04-26T10:31:36.534Z</time></trkpt><trkpt lat="40.31063937940607" lon="9.178178984259496"><ele>350.0</ele><time>2026-04-26T10:31:37.534Z</time></trkpt><trkpt lat="40.31042765636037" lon="9.178219747254445"><ele>350.0</ele><time>2026-04-26T10:31:38.534Z</time></trkpt><trkpt lat="40.31022724627407" lon="9.17826946627962"><ele>350.6666666666667</ele><time>2026-04-26T10:31:39.534Z</time></trkpt><trkpt lat="40.31003365264665" lon="9.178323264389585"><ele>351.3333333333333</ele><time>2026-04-26T10:31:40.534Z</time></trkpt><trkpt lat="40.30985908090841" lon="9.178393547032472"><ele>352.0</ele><time>2026-04-26T10:31:41.534Z</time></trkpt><trkpt lat="40.309704493903375" lon="9.178492066012408"><ele>352.66666666666663</ele><time>2026-04-26T10:31:42.534Z</time></trkpt><trkpt lat="40.3095676033702" lon="9.178603081802096"><ele>353.3333333333333</ele><time>2026-04-26T10:31:43.534Z</time></trkpt><trkpt lat="40.30944573473146" lon="9.178719080807415"><ele>354.0</ele><time>2026-04-26T10:31:44.533Z</time></trkpt><trkpt lat="40.3093393502034" lon="9.178837115358768"><ele>354.0</ele><time>2026-04-26T10:31:45.533Z</time></trkpt><trkpt lat="40.309246988058064" lon="9.178951511924437"><ele>354.0</ele><time>2026-04-26T10:31:46.533Z</time></trkpt><trkpt lat="40.30917734600548" lon="9.179048028214146"><ele>354.0</ele><time>2026-04-26T10:31:47.533Z</time></trkpt><trkpt lat="40.309122753882114" lon="9.179130203834406"><ele>354.0</ele><time>2026-04-26T10:31:48.533Z</time></trkpt><trkpt lat="40.30907846099647" lon="9.179196604756939"><ele>354.0</ele><time>2026-04-26T10:31:49.533Z</time></trkpt><trkpt lat="40.308996378886036" lon="9.179254635027268"><ele>354.2</ele><time>2026-04-26T10:31:51.533Z</time></trkpt><trkpt lat="40.30891368284525" lon="9.179144433662687"><ele>354.4</ele><time>2026-04-26T10:31:53.533Z</time></trkpt><trkpt lat="40.3088375502586" lon="9.179065766691311"><ele>354.6</ele><time>2026-04-26T10:31:54.534Z</time></trkpt><trkpt lat="40.30874615385426" lon="9.178971327797083"><ele>354.8</ele><time>2026-04-26T10:31:55.535Z</time></trkpt><trkpt lat="40.308654681704255" lon="9.178876810657089"><ele>355.0</ele><time>2026-04-26T10:31:56.535Z</time></trkpt><trkpt lat="40.30854661750674" lon="9.178765149111209"><ele>355.0</ele><time>2026-04-26T10:31:57.534Z</time></trkpt><trkpt lat="40.308427778151355" lon="9.178640422551688"><ele>355.0</ele><time>2026-04-26T10:31:58.534Z</time></trkpt><trkpt lat="40.30831189837039" lon="9.178518221305238"><ele>355.0</ele><time>2026-04-26T10:31:59.534Z</time></trkpt><trkpt lat="40.30818523086231" lon="9.178385783158076"><ele>355.66666666666663</ele><time>2026-04-26T10:32:00.535Z</time></trkpt><trkpt lat="40.30804506822047" lon="9.178241064480032"><ele>356.3333333333333</ele><time>2026-04-26T10:32:01.534Z</time></trkpt><trkpt lat="40.30790670277771" lon="9.178104124702367"><ele>357.0</ele><time>2026-04-26T10:32:02.534Z</time></trkpt><trkpt lat="40.30776077093417" lon="9.177969951059675"><ele>354.6666666666667</ele><time>2026-04-26T10:32:03.534Z</time></trkpt><trkpt lat="40.30759717570557" lon="9.177845620653624"><ele>352.33333333333337</ele><time>2026-04-26T10:32:04.533Z</time></trkpt><trkpt lat="40.30742162452364" lon="9.177732801937719"><ele>350.0</ele><time>2026-04-26T10:32:05.533Z</time></trkpt><trkpt lat="40.30723716220257" lon="9.177633251248452"><ele>350.0</ele><time>2026-04-26T10:32:06.534Z</time></trkpt><trkpt lat="40.307042893030264" lon="9.177546636588787"><ele>350.0</ele><time>2026-04-26T10:32:07.533Z</time></trkpt><trkpt lat="40.306846869636814" lon="9.177482810972611"><ele>350.0</ele><time>2026-04-26T10:32:08.533Z</time></trkpt><trkpt lat="40.30665165846839" lon="9.177454032399293"><ele>350.0</ele><time>2026-04-26T10:32:09.533Z</time></trkpt><trkpt lat="40.30644845638358" lon="9.177456785378427"><ele>350.0</ele><time>2026-04-26T10:32:10.533Z</time></trkpt><trkpt lat="40.30624302854114" lon="9.177492847443371"><ele>350.0</ele><time>2026-04-26T10:32:11.533Z</time></trkpt><trkpt lat="40.30604786398212" lon="9.177560446198017"><ele>349.6666666666667</ele><time>2026-04-26T10:32:12.533Z</time></trkpt><trkpt lat="40.30585245424886" lon="9.177653365118713"><ele>349.3333333333333</ele><time>2026-04-26T10:32:13.533Z</time></trkpt><trkpt lat="40.30565569543725" lon="9.177750274908252"><ele>349.0</ele><time>2026-04-26T10:32:14.533Z</time></trkpt><trkpt lat="40.30546704862086" lon="9.177845428737225"><ele>348.3333333333333</ele><time>2026-04-26T10:32:15.533Z</time></trkpt><trkpt lat="40.30527869807642" lon="9.177940433131985"><ele>347.6666666666667</ele><time>2026-04-26T10:32:16.533Z</time></trkpt><trkpt lat="40.30509664903612" lon="9.178027888572533"><ele>347.0</ele><time>2026-04-26T10:32:17.533Z</time></trkpt><trkpt lat="40.304917533217264" lon="9.178099069910745"><ele>348.0</ele><time>2026-04-26T10:32:18.533Z</time></trkpt><trkpt lat="40.304725562217065" lon="9.178149216587071"><ele>349.0</ele><time>2026-04-26T10:32:19.533Z</time></trkpt><trkpt lat="40.30452428418533" lon="9.178171250996495"><ele>350.0</ele><time>2026-04-26T10:32:20.533Z</time></trkpt><trkpt lat="40.30432535207938" lon="9.178156678855258"><ele>350.0</ele><time>2026-04-26T10:32:21.533Z</time></trkpt><trkpt lat="40.304118019691046" lon="9.178105692559456"><ele>350.0</ele><time>2026-04-26T10:32:22.533Z</time></trkpt><trkpt lat="40.30390109114699" lon="9.178068871532478"><ele>350.0</ele><time>2026-04-26T10:32:23.533Z</time></trkpt><trkpt lat="40.30368795375698" lon="9.177990114555222"><ele>351.0</ele><time>2026-04-26T10:32:24.533Z</time></trkpt><trkpt lat="40.303473372135514" lon="9.177913171468118"><ele>352.0</ele><time>2026-04-26T10:32:25.533Z</time></trkpt><trkpt lat="40.303255837164286" lon="9.177802051401335"><ele>353.66666666666663</ele><time>2026-04-26T10:32:26.533Z</time></trkpt><trkpt lat="40.30303216307582" lon="9.177754729992566"><ele>355.3333333333333</ele><time>2026-04-26T10:32:27.533Z</time></trkpt><trkpt lat="40.302830054434274" lon="9.177705989057609"><ele>357.0</ele><time>2026-04-26T10:32:28.533Z</time></trkpt><trkpt lat="40.30264288528468" lon="9.177660850937352"><ele>357.0</ele><time>2026-04-26T10:32:29.533Z</time></trkpt><trkpt lat="40.30246798033392" lon="9.177618670491592"><ele>357.0</ele><time>2026-04-26T10:32:30.533Z</time></trkpt><trkpt lat="40.30231694145454" lon="9.177582245643526"><ele>357.0</ele><time>2026-04-26T10:32:31.533Z</time></trkpt><trkpt lat="40.30217930808333" lon="9.177549053678867"><ele>358.3333333333333</ele><time>2026-04-26T10:32:32.532Z</time></trkpt><trkpt lat="40.30203499564054" lon="9.177514250977751"><ele>359.66666666666663</ele><time>2026-04-26T10:32:33.532Z</time></trkpt><trkpt lat="40.301883493470626" lon="9.177477714404702"><ele>361.0</ele><time>2026-04-26T10:32:34.532Z</time></trkpt><trkpt lat="40.30173531761346" lon="9.17744198000039"><ele>361.0</ele><time>2026-04-26T10:32:35.532Z</time></trkpt><trkpt lat="40.30155381745627" lon="9.17739215344054"><ele>361.0</ele><time>2026-04-26T10:32:36.532Z</time></trkpt><trkpt lat="40.30139899859754" lon="9.177419979541268"><ele>361.0</ele><time>2026-04-26T10:32:37.532Z</time></trkpt><trkpt lat="40.301233655863676" lon="9.17731883303608"><ele>362.0</ele><time>2026-04-26T10:32:38.532Z</time></trkpt><trkpt lat="40.30106586819966" lon="9.177183084760804"><ele>363.0</ele><time>2026-04-26T10:32:39.532Z</time></trkpt><trkpt lat="40.3008970496779" lon="9.1770194197505"><ele>364.0</ele><time>2026-04-26T10:32:40.532Z</time></trkpt><trkpt lat="40.30071950472866" lon="9.176838819461398"><ele>363.66666666666663</ele><time>2026-04-26T10:32:41.532Z</time></trkpt><trkpt lat="40.30054653294283" lon="9.176667727881805"><ele>363.3333333333333</ele><time>2026-04-26T10:32:42.532Z</time></trkpt><trkpt lat="40.3003835986062" lon="9.176534257678417"><ele>363.0</ele><time>2026-04-26T10:32:43.532Z</time></trkpt><trkpt lat="40.300214197171805" lon="9.17644048458448"><ele>362.0</ele><time>2026-04-26T10:32:44.532Z</time></trkpt><trkpt lat="40.300046941190764" lon="9.176352689106997"><ele>361.0</ele><time>2026-04-26T10:32:45.532Z</time></trkpt><trkpt lat="40.29987647542457" lon="9.176325134154325"><ele>360.0</ele><time>2026-04-26T10:32:46.532Z</time></trkpt><trkpt lat="40.29970337603843" lon="9.176340653352984"><ele>359.0</ele><time>2026-04-26T10:32:47.532Z</time></trkpt><trkpt lat="40.29953697340944" lon="9.176384459927064"><ele>358.0</ele><time>2026-04-26T10:32:48.532Z</time></trkpt><trkpt lat="40.29937141162747" lon="9.176486002302886"><ele>357.0</ele><time>2026-04-26T10:32:49.532Z</time></trkpt><trkpt lat="40.29920085712123" lon="9.17660862374922"><ele>357.0</ele><time>2026-04-26T10:32:50.532Z</time></trkpt><trkpt lat="40.2990112876173" lon="9.176700751676167"><ele>357.0</ele><time>2026-04-26T10:32:51.532Z</time></trkpt><trkpt lat="40.29881198770299" lon="9.176768235342005"><ele>357.0</ele><time>2026-04-26T10:32:52.532Z</time></trkpt><trkpt lat="40.29861047765512" lon="9.176730473827087"><ele>357.0</ele><time>2026-04-26T10:32:53.532Z</time></trkpt><trkpt lat="40.2984175282886" lon="9.176664171700065"><ele>357.0</ele><time>2026-04-26T10:32:54.532Z</time></trkpt><trkpt lat="40.29823537591819" lon="9.17654171970405"><ele>357.0</ele><time>2026-04-26T10:32:55.532Z</time></trkpt><trkpt lat="40.29805281388144" lon="9.176393693359225"><ele>358.3333333333333</ele><time>2026-04-26T10:32:56.532Z</time></trkpt><trkpt lat="40.29787284735593" lon="9.176243763274023"><ele>359.66666666666663</ele><time>2026-04-26T10:32:57.531Z</time></trkpt><trkpt lat="40.29768885530031" lon="9.17613727056274"><ele>361.0</ele><time>2026-04-26T10:32:58.531Z</time></trkpt><trkpt lat="40.29751942282447" lon="9.176042812640633"><ele>361.0</ele><time>2026-04-26T10:32:59.531Z</time></trkpt><trkpt lat="40.29734081689378" lon="9.176047641945226"><ele>361.0</ele><time>2026-04-26T10:33:00.531Z</time></trkpt><trkpt lat="40.29716907662931" lon="9.176121200323049"><ele>361.0</ele><time>2026-04-26T10:33:01.531Z</time></trkpt><trkpt lat="40.29700887111115" lon="9.176266610349398"><ele>361.0</ele><time>2026-04-26T10:33:02.531Z</time></trkpt><trkpt lat="40.29687676433566" lon="9.176479665447019"><ele>361.0</ele><time>2026-04-26T10:33:03.531Z</time></trkpt><trkpt lat="40.29675340348028" lon="9.176718798586643"><ele>361.0</ele><time>2026-04-26T10:33:04.531Z</time></trkpt><trkpt lat="40.29659505234424" lon="9.176889084869998"><ele>361.0</ele><time>2026-04-26T10:33:05.531Z</time></trkpt><trkpt lat="40.296440779359564" lon="9.177017473328263"><ele>361.0</ele><time>2026-04-26T10:33:06.531Z</time></trkpt><trkpt lat="40.296290282390174" lon="9.177075890730102"><ele>361.0</ele><time>2026-04-26T10:33:07.531Z</time></trkpt><trkpt lat="40.29615235742643" lon="9.17705794820364"><ele>361.66666666666663</ele><time>2026-04-26T10:33:08.531Z</time></trkpt><trkpt lat="40.296025740939776" lon="9.17697349812207"><ele>362.3333333333333</ele><time>2026-04-26T10:33:09.531Z</time></trkpt><trkpt lat="40.295899611460854" lon="9.1768286222352"><ele>363.0</ele><time>2026-04-26T10:33:10.531Z</time></trkpt><trkpt lat="40.29576911467001" lon="9.176645336616298"><ele>362.3333333333333</ele><time>2026-04-26T10:33:11.531Z</time></trkpt><trkpt lat="40.29564387750883" lon="9.176447137632778"><ele>361.66666666666663</ele><time>2026-04-26T10:33:12.531Z</time></trkpt><trkpt lat="40.29551541977097" lon="9.176244722076667"><ele>361.0</ele><time>2026-04-26T10:33:13.531Z</time></trkpt><trkpt lat="40.295393089513574" lon="9.17606220913384"><ele>362.66666666666663</ele><time>2026-04-26T10:33:14.531Z</time></trkpt><trkpt lat="40.295279355464885" lon="9.175912613166583"><ele>364.3333333333333</ele><time>2026-04-26T10:33:15.531Z</time></trkpt><trkpt lat="40.295137715375944" lon="9.175839252199122"><ele>366.0</ele><time>2026-04-26T10:33:16.531Z</time></trkpt><trkpt lat="40.2949751821266" lon="9.175836544453501"><ele>366.0</ele><time>2026-04-26T10:33:17.531Z</time></trkpt><trkpt lat="40.294810750720515" lon="9.175925995247992"><ele>366.0</ele><time>2026-04-26T10:33:18.531Z</time></trkpt><trkpt lat="40.29465370016868" lon="9.17608038202238"><ele>366.0</ele><time>2026-04-26T10:33:19.531Z</time></trkpt><trkpt lat="40.294506922451" lon="9.176245081981197"><ele>363.3333333333333</ele><time>2026-04-26T10:33:20.531Z</time></trkpt><trkpt lat="40.2943451821662" lon="9.17635284481643"><ele>360.66666666666663</ele><time>2026-04-26T10:33:21.531Z</time></trkpt><trkpt lat="40.29419531713762" lon="9.17643002215728"><ele>358.0</ele><time>2026-04-26T10:33:22.531Z</time></trkpt><trkpt lat="40.29403969425946" lon="9.176485941130633"><ele>357.66666666666663</ele><time>2026-04-26T10:33:23.53Z</time></trkpt><trkpt lat="40.293888351838945" lon="9.176480844438915"><ele>357.3333333333333</ele><time>2026-04-26T10:33:24.53Z</time></trkpt><trkpt lat="40.293735251733125" lon="9.17648964174804"><ele>357.0</ele><time>2026-04-26T10:33:25.53Z</time></trkpt><trkpt lat="40.29358464591382" lon="9.176498503695196"><ele>357.0</ele><time>2026-04-26T10:33:26.53Z</time></trkpt><trkpt lat="40.293449351133354" lon="9.17649913901656"><ele>357.0</ele><time>2026-04-26T10:33:27.53Z</time></trkpt><trkpt lat="40.29334252788766" lon="9.17648396518022"><ele>357.0</ele><time>2026-04-26T10:33:28.53Z</time></trkpt><trkpt lat="40.293256776519854" lon="9.176453054238216"><ele>357.0</ele><time>2026-04-26T10:33:29.53Z</time></trkpt><trkpt lat="40.2931815250734" lon="9.176416233047346"><ele>357.0</ele><time>2026-04-26T10:33:30.53Z</time></trkpt><trkpt lat="40.293106791690924" lon="9.176373141517223"><ele>357.3333333333333</ele><time>2026-04-26T10:33:31.53Z</time></trkpt><trkpt lat="40.29303939147434" lon="9.176323097700331"><ele>357.6666666666667</ele><time>2026-04-26T10:33:32.53Z</time></trkpt><trkpt lat="40.29298339709668" lon="9.176269000182632"><ele>358.0</ele><time>2026-04-26T10:33:33.53Z</time></trkpt><trkpt lat="40.29292907431059" lon="9.176209982414308"><ele>358.33333333333337</ele><time>2026-04-26T10:33:34.53Z</time></trkpt><trkpt lat="40.29287568049668" lon="9.176145257391841"><ele>358.6666666666667</ele><time>2026-04-26T10:33:35.53Z</time></trkpt><trkpt lat="40.292823080080595" lon="9.176069486766776"><ele>359.0</ele><time>2026-04-26T10:33:36.53Z</time></trkpt><trkpt lat="40.29276511306848" lon="9.17596602852092"><ele>359.0</ele><time>2026-04-26T10:33:37.53Z</time></trkpt><trkpt lat="40.2926956923472" lon="9.175828022502424"><ele>359.0</ele><time>2026-04-26T10:33:38.53Z</time></trkpt><trkpt lat="40.29261810930085" lon="9.175671372641922"><ele>359.0</ele><time>2026-04-26T10:33:39.53Z</time></trkpt><trkpt lat="40.29253475849333" lon="9.175503092378209"><ele>359.0</ele><time>2026-04-26T10:33:40.53Z</time></trkpt><trkpt lat="40.29244384028975" lon="9.175321164488123"><ele>358.33333333333337</ele><time>2026-04-26T10:33:41.53Z</time></trkpt><trkpt lat="40.2923344048829" lon="9.175135516246055"><ele>357.6666666666667</ele><time>2026-04-26T10:33:42.53Z</time></trkpt><trkpt lat="40.292232862371144" lon="9.174926190619292"><ele>357.0</ele><time>2026-04-26T10:33:43.53Z</time></trkpt><trkpt lat="40.29211865901409" lon="9.174718370441417"><ele>354.3333333333333</ele><time>2026-04-26T10:33:44.53Z</time></trkpt><trkpt lat="40.29201075386639" lon="9.174507515654891"><ele>351.66666666666663</ele><time>2026-04-26T10:33:45.53Z</time></trkpt><trkpt lat="40.29189895854318" lon="9.17430153914465"><ele>349.0</ele><time>2026-04-26T10:33:46.53Z</time></trkpt><trkpt lat="40.291768962859095" lon="9.174085366985699"><ele>347.3333333333333</ele><time>2026-04-26T10:33:47.53Z</time></trkpt><trkpt lat="40.29163355835648" lon="9.173884368282534"><ele>345.6666666666667</ele><time>2026-04-26T10:33:48.529Z</time></trkpt><trkpt lat="40.29149266699449" lon="9.173712220325394"><ele>344.0</ele><time>2026-04-26T10:33:49.529Z</time></trkpt><trkpt lat="40.2913569319124" lon="9.173559986629526"><ele>342.0</ele><time>2026-04-26T10:33:50.529Z</time></trkpt><trkpt lat="40.29120199704787" lon="9.173464736848347"><ele>340.0</ele><time>2026-04-26T10:33:51.529Z</time></trkpt><trkpt lat="40.29103477740301" lon="9.173437096296626"><ele>338.0</ele><time>2026-04-26T10:33:52.529Z</time></trkpt><trkpt lat="40.29085914800046" lon="9.173470927274982"><ele>338.0</ele><time>2026-04-26T10:33:53.529Z</time></trkpt><trkpt lat="40.290693929287556" lon="9.173564651905057"><ele>338.0</ele><time>2026-04-26T10:33:54.529Z</time></trkpt><trkpt lat="40.2905312920606" lon="9.173568409734663"><ele>338.0</ele><time>2026-04-26T10:33:55.529Z</time></trkpt><trkpt lat="40.2903853122856" lon="9.173512652601646"><ele>338.0</ele><time>2026-04-26T10:33:56.529Z</time></trkpt><trkpt lat="40.2902493326062" lon="9.173403568848789"><ele>338.0</ele><time>2026-04-26T10:33:57.529Z</time></trkpt><trkpt lat="40.29011278151141" lon="9.17324879979957"><ele>338.0</ele><time>2026-04-26T10:33:58.529Z</time></trkpt><trkpt lat="40.28999810791472" lon="9.173063487191232"><ele>336.6666666666667</ele><time>2026-04-26T10:33:59.529Z</time></trkpt><trkpt lat="40.289898885098495" lon="9.172854206357279"><ele>335.3333333333333</ele><time>2026-04-26T10:34:00.53Z</time></trkpt><trkpt lat="40.289803401268394" lon="9.172623369349425"><ele>334.0</ele><time>2026-04-26T10:34:01.53Z</time></trkpt><trkpt lat="40.289710390260645" lon="9.172395045325377"><ele>335.3333333333333</ele><time>2026-04-26T10:34:02.53Z</time></trkpt><trkpt lat="40.2896169539632" lon="9.172165676936766"><ele>336.6666666666667</ele><time>2026-04-26T10:34:03.53Z</time></trkpt><trkpt lat="40.28950868584748" lon="9.171944464989046"><ele>338.0</ele><time>2026-04-26T10:34:04.53Z</time></trkpt><trkpt lat="40.28942645968329" lon="9.171696034232788"><ele>335.33333333333337</ele><time>2026-04-26T10:34:05.53Z</time></trkpt><trkpt lat="40.28933075524174" lon="9.171458767199443"><ele>332.6666666666667</ele><time>2026-04-26T10:34:06.53Z</time></trkpt><trkpt lat="40.28922351760784" lon="9.171234193929731"><ele>330.0</ele><time>2026-04-26T10:34:07.53Z</time></trkpt><trkpt lat="40.28912323857313" lon="9.17101497402431"><ele>330.0</ele><time>2026-04-26T10:34:08.53Z</time></trkpt><trkpt lat="40.289006199298484" lon="9.170818445703748"><ele>330.0</ele><time>2026-04-26T10:34:09.53Z</time></trkpt><trkpt lat="40.28888025337525" lon="9.17066825073343"><ele>330.0</ele><time>2026-04-26T10:34:10.53Z</time></trkpt><trkpt lat="40.288735566050825" lon="9.170570945052987"><ele>327.3333333333333</ele><time>2026-04-26T10:34:11.53Z</time></trkpt><trkpt lat="40.28857912155188" lon="9.170534222544331"><ele>324.66666666666663</ele><time>2026-04-26T10:34:12.53Z</time></trkpt><trkpt lat="40.28838915746949" lon="9.170567768563956"><ele>322.0</ele><time>2026-04-26T10:34:13.53Z</time></trkpt><trkpt lat="40.28820237211675" lon="9.170666754328792"><ele>325.66666666666663</ele><time>2026-04-26T10:34:14.53Z</time></trkpt><trkpt lat="40.28800858659901" lon="9.17072459129096"><ele>329.3333333333333</ele><time>2026-04-26T10:34:15.529Z</time></trkpt><trkpt lat="40.287810947635165" lon="9.170779913706555"><ele>333.0</ele><time>2026-04-26T10:34:16.529Z</time></trkpt><trkpt lat="40.287619131848174" lon="9.170797844877251"><ele>333.0</ele><time>2026-04-26T10:34:17.529Z</time></trkpt><trkpt lat="40.28743003531626" lon="9.170775155743044"><ele>333.0</ele><time>2026-04-26T10:34:18.529Z</time></trkpt><trkpt lat="40.287233747204205" lon="9.170730301124296"><ele>333.0</ele><time>2026-04-26T10:34:19.529Z</time></trkpt><trkpt lat="40.28703308107875" lon="9.170699355271921"><ele>331.6666666666667</ele><time>2026-04-26T10:34:20.529Z</time></trkpt><trkpt lat="40.2868413631136" lon="9.170675523188347"><ele>330.33333333333337</ele><time>2026-04-26T10:34:21.529Z</time></trkpt><trkpt lat="40.28665906154412" lon="9.17070553073607"><ele>329.0</ele><time>2026-04-26T10:34:22.529Z</time></trkpt><trkpt lat="40.28648597721028" lon="9.170793277508745"><ele>328.6666666666667</ele><time>2026-04-26T10:34:23.529Z</time></trkpt><trkpt lat="40.28631532074731" lon="9.170902241698368"><ele>328.3333333333333</ele><time>2026-04-26T10:34:24.529Z</time></trkpt><trkpt lat="40.28613498969031" lon="9.171001299915112"><ele>328.0</ele><time>2026-04-26T10:34:25.529Z</time></trkpt><trkpt lat="40.285936792779495" lon="9.171024217175423"><ele>328.0</ele><time>2026-04-26T10:34:26.529Z</time></trkpt><trkpt lat="40.28573739449874" lon="9.171069330039156"><ele>328.0</ele><time>2026-04-26T10:34:27.529Z</time></trkpt><trkpt lat="40.28553947677134" lon="9.171100365594164"><ele>328.0</ele><time>2026-04-26T10:34:28.529Z</time></trkpt><trkpt lat="40.28534018026435" lon="9.171106344872506"><ele>330.3333333333333</ele><time>2026-04-26T10:34:29.529Z</time></trkpt><trkpt lat="40.28513846828356" lon="9.171098280401804"><ele>332.6666666666667</ele><time>2026-04-26T10:34:30.529Z</time></trkpt><trkpt lat="40.28494457947648" lon="9.171115496328522"><ele>335.0</ele><time>2026-04-26T10:34:31.529Z</time></trkpt><trkpt lat="40.28476109656445" lon="9.171168274557882"><ele>338.33333333333337</ele><time>2026-04-26T10:34:32.529Z</time></trkpt><trkpt lat="40.28457661599936" lon="9.171278885766508"><ele>341.6666666666667</ele><time>2026-04-26T10:34:33.529Z</time></trkpt><trkpt lat="40.284389932576865" lon="9.171370095249967"><ele>345.0</ele><time>2026-04-26T10:34:34.529Z</time></trkpt><trkpt lat="40.28420514494001" lon="9.171365311038437"><ele>345.0</ele><time>2026-04-26T10:34:35.529Z</time></trkpt><trkpt lat="40.28400828011095" lon="9.171356272419793"><ele>345.0</ele><time>2026-04-26T10:34:36.529Z</time></trkpt><trkpt lat="40.28384816377175" lon="9.171375841490104"><ele>345.0</ele><time>2026-04-26T10:34:37.529Z</time></trkpt><trkpt lat="40.28371265401986" lon="9.171457661290116"><ele>344.0</ele><time>2026-04-26T10:34:38.529Z</time></trkpt><trkpt lat="40.28360778747368" lon="9.171627385752664"><ele>343.0</ele><time>2026-04-26T10:34:39.529Z</time></trkpt><trkpt lat="40.2835096791315" lon="9.17183616385034"><ele>342.0</ele><time>2026-04-26T10:34:40.529Z</time></trkpt><trkpt lat="40.283370390275074" lon="9.171897584346183"><ele>342.0</ele><time>2026-04-26T10:34:41.528Z</time></trkpt><trkpt lat="40.28322484826534" lon="9.17188964648458"><ele>342.0</ele><time>2026-04-26T10:34:42.528Z</time></trkpt><trkpt lat="40.28308899158714" lon="9.171759541736805"><ele>342.0</ele><time>2026-04-26T10:34:43.528Z</time></trkpt><trkpt lat="40.28292892370689" lon="9.171652915283708"><ele>342.6666666666667</ele><time>2026-04-26T10:34:44.528Z</time></trkpt><trkpt lat="40.28275384984881" lon="9.171551781455898"><ele>343.33333333333337</ele><time>2026-04-26T10:34:45.528Z</time></trkpt><trkpt lat="40.282584479413124" lon="9.171445450976377"><ele>344.0</ele><time>2026-04-26T10:34:46.528Z</time></trkpt><trkpt lat="40.2824206454823" lon="9.171332905557552"><ele>345.0</ele><time>2026-04-26T10:34:47.528Z</time></trkpt><trkpt lat="40.28230365935104" lon="9.17118851891631"><ele>346.0</ele><time>2026-04-26T10:34:48.528Z</time></trkpt><trkpt lat="40.282227022628" lon="9.171035871842584"><ele>347.0</ele><time>2026-04-26T10:34:49.528Z</time></trkpt><trkpt lat="40.28219282715066" lon="9.170864713937748"><ele>348.0</ele><time>2026-04-26T10:34:50.528Z</time></trkpt><trkpt lat="40.282165515504076" lon="9.170683696080243"><ele>349.5</ele><time>2026-04-26T10:34:51.528Z</time></trkpt><trkpt lat="40.2821426109763" lon="9.170543784533807"><ele>351.0</ele><time>2026-04-26T10:34:52.528Z</time></trkpt><trkpt lat="40.28211092773429" lon="9.170426339572241"><ele>352.5</ele><time>2026-04-26T10:34:53.528Z</time></trkpt><trkpt lat="40.28205856896449" lon="9.170291130356569"><ele>354.0</ele><time>2026-04-26T10:34:54.528Z</time></trkpt><trkpt lat="40.28196490695371" lon="9.170161902916789"><ele>354.0</ele><time>2026-04-26T10:34:55.528Z</time></trkpt><trkpt lat="40.28186959990089" lon="9.170042549883005"><ele>354.0</ele><time>2026-04-26T10:34:56.528Z</time></trkpt><trkpt lat="40.281758001226336" lon="9.169921407956592"><ele>354.0</ele><time>2026-04-26T10:34:57.528Z</time></trkpt><trkpt lat="40.281643608754855" lon="9.169787914108667"><ele>354.0</ele><time>2026-04-26T10:34:58.528Z</time></trkpt><trkpt lat="40.28151802868792" lon="9.1696740937837"><ele>355.0</ele><time>2026-04-26T10:34:59.528Z</time></trkpt><trkpt lat="40.28138296204872" lon="9.169546005875466"><ele>356.0</ele><time>2026-04-26T10:35:00.528Z</time></trkpt><trkpt lat="40.28125723057466" lon="9.169424936844772"><ele>357.0</ele><time>2026-04-26T10:35:01.528Z</time></trkpt><trkpt lat="40.281163827946855" lon="9.169298305422725"><ele>357.0</ele><time>2026-04-26T10:35:02.528Z</time></trkpt><trkpt lat="40.28109863660104" lon="9.169163580434688"><ele>357.0</ele><time>2026-04-26T10:35:03.528Z</time></trkpt><trkpt lat="40.28107546973824" lon="9.169007148929431"><ele>357.0</ele><time>2026-04-26T10:35:04.528Z</time></trkpt><trkpt lat="40.28108626463515" lon="9.168835614366621"><ele>357.0</ele><time>2026-04-26T10:35:05.528Z</time></trkpt><trkpt lat="40.28107322926158" lon="9.168626258724213"><ele>358.75</ele><time>2026-04-26T10:35:06.527Z</time></trkpt><trkpt lat="40.281038560597764" lon="9.16843948354802"><ele>360.5</ele><time>2026-04-26T10:35:07.527Z</time></trkpt><trkpt lat="40.280969276828216" lon="9.168278337326454"><ele>362.25</ele><time>2026-04-26T10:35:08.527Z</time></trkpt><trkpt lat="40.28085786758663" lon="9.168190178144858"><ele>364.0</ele><time>2026-04-26T10:35:09.527Z</time></trkpt><trkpt lat="40.28073072543558" lon="9.168165308073856"><ele>364.0</ele><time>2026-04-26T10:35:10.527Z</time></trkpt><trkpt lat="40.28059497558465" lon="9.168183583061257"><ele>364.0</ele><time>2026-04-26T10:35:11.527Z</time></trkpt><trkpt lat="40.28046578469778" lon="9.168203165387613"><ele>364.0</ele><time>2026-04-26T10:35:12.527Z</time></trkpt><trkpt lat="40.280337462906395" lon="9.168185845613884"><ele>364.0</ele><time>2026-04-26T10:35:13.527Z</time></trkpt><trkpt lat="40.280233525917374" lon="9.168093058721876"><ele>366.0</ele><time>2026-04-26T10:35:14.527Z</time></trkpt><trkpt lat="40.28012472045178" lon="9.167986828259023"><ele>368.0</ele><time>2026-04-26T10:35:15.527Z</time></trkpt><trkpt lat="40.28000749922167" lon="9.167874067075026"><ele>370.0</ele><time>2026-04-26T10:35:16.527Z</time></trkpt><trkpt lat="40.279915297675416" lon="9.167729738502015"><ele>372.0</ele><time>2026-04-26T10:35:17.527Z</time></trkpt><trkpt lat="40.27985819611486" lon="9.167571778682756"><ele>372.0</ele><time>2026-04-26T10:35:18.527Z</time></trkpt><trkpt lat="40.279854785988704" lon="9.167407178755665"><ele>372.0</ele><time>2026-04-26T10:35:19.527Z</time></trkpt><trkpt lat="40.27989793010152" lon="9.167235022873639"><ele>372.0</ele><time>2026-04-26T10:35:20.527Z</time></trkpt><trkpt lat="40.27999317444052" lon="9.167100120350725"><ele>372.0</ele><time>2026-04-26T10:35:21.527Z</time></trkpt><trkpt lat="40.280090881190766" lon="9.16695293689122"><ele>374.0</ele><time>2026-04-26T10:35:22.527Z</time></trkpt><trkpt lat="40.280218884803155" lon="9.166827109189239"><ele>376.0</ele><time>2026-04-26T10:35:23.527Z</time></trkpt><trkpt lat="40.28033259019896" lon="9.166703467661932"><ele>378.0</ele><time>2026-04-26T10:35:24.527Z</time></trkpt><trkpt lat="40.28042588686249" lon="9.166589616047528"><ele>380.0</ele><time>2026-04-26T10:35:25.527Z</time></trkpt><trkpt lat="40.28048333256717" lon="9.166456949228818"><ele>381.25</ele><time>2026-04-26T10:35:26.527Z</time></trkpt><trkpt lat="40.28048682467221" lon="9.166290218290543"><ele>382.5</ele><time>2026-04-26T10:35:27.527Z</time></trkpt><trkpt lat="40.280429393698476" lon="9.1661296845175"><ele>383.75</ele><time>2026-04-26T10:35:28.527Z</time></trkpt><trkpt lat="40.28032451314881" lon="9.165989991266715"><ele>385.0</ele><time>2026-04-26T10:35:29.527Z</time></trkpt><trkpt lat="40.280187964099696" lon="9.16588274208647"><ele>385.0</ele><time>2026-04-26T10:35:30.527Z</time></trkpt><trkpt lat="40.28004568028677" lon="9.165828999236062"><ele>385.0</ele><time>2026-04-26T10:35:31.527Z</time></trkpt><trkpt lat="40.27989464028131" lon="9.165855506973204"><ele>385.0</ele><time>2026-04-26T10:35:32.526Z</time></trkpt><trkpt lat="40.279752313150915" lon="9.165952135131407"><ele>387.0</ele><time>2026-04-26T10:35:33.526Z</time></trkpt><trkpt lat="40.2796138181806" lon="9.166063720864836"><ele>389.0</ele><time>2026-04-26T10:35:34.526Z</time></trkpt><trkpt lat="40.27946888798495" lon="9.166095561624637"><ele>391.0</ele><time>2026-04-26T10:35:35.526Z</time></trkpt><trkpt lat="40.279300747732556" lon="9.166108390487127"><ele>391.0</ele><time>2026-04-26T10:35:36.526Z</time></trkpt><trkpt lat="40.279119416955325" lon="9.166154223390965"><ele>391.0</ele><time>2026-04-26T10:35:37.526Z</time></trkpt><trkpt lat="40.27895558477651" lon="9.166223027946586"><ele>391.0</ele><time>2026-04-26T10:35:38.526Z</time></trkpt><trkpt lat="40.278814814093806" lon="9.166331432636289"><ele>393.33333333333337</ele><time>2026-04-26T10:35:39.526Z</time></trkpt><trkpt lat="40.27866232920418" lon="9.166359058515727"><ele>395.66666666666663</ele><time>2026-04-26T10:35:40.526Z</time></trkpt><trkpt lat="40.27850706095366" lon="9.166345612989758"><ele>398.0</ele><time>2026-04-26T10:35:41.526Z</time></trkpt><trkpt lat="40.27834143815427" lon="9.16629954284234"><ele>398.0</ele><time>2026-04-26T10:35:42.526Z</time></trkpt><trkpt lat="40.27816689898122" lon="9.166243101114384"><ele>398.0</ele><time>2026-04-26T10:35:43.526Z</time></trkpt><trkpt lat="40.277984033258896" lon="9.166205318512652"><ele>398.0</ele><time>2026-04-26T10:35:44.526Z</time></trkpt><trkpt lat="40.27779436524409" lon="9.16620922765008"><ele>400.66666666666663</ele><time>2026-04-26T10:35:45.526Z</time></trkpt><trkpt lat="40.27763634055358" lon="9.166282529623349"><ele>403.33333333333337</ele><time>2026-04-26T10:35:46.526Z</time></trkpt><trkpt lat="40.27748946860884" lon="9.166286157795824"><ele>406.0</ele><time>2026-04-26T10:35:47.526Z</time></trkpt><trkpt lat="40.27734954194149" lon="9.166203011855504"><ele>406.0</ele><time>2026-04-26T10:35:48.526Z</time></trkpt><trkpt lat="40.27724556320048" lon="9.166032330913831"><ele>406.0</ele><time>2026-04-26T10:35:49.526Z</time></trkpt><trkpt lat="40.2771121175586" lon="9.165887165905339"><ele>406.0</ele><time>2026-04-26T10:35:50.526Z</time></trkpt><trkpt lat="40.2769668218399" lon="9.165775847831235"><ele>406.0</ele><time>2026-04-26T10:35:51.526Z</time></trkpt><trkpt lat="40.27680593152399" lon="9.165738688984698"><ele>406.0</ele><time>2026-04-26T10:35:52.526Z</time></trkpt><trkpt lat="40.27664459744497" lon="9.165786037608331"><ele>406.0</ele><time>2026-04-26T10:35:53.526Z</time></trkpt><trkpt lat="40.27649565687699" lon="9.165905910541014"><ele>407.33333333333337</ele><time>2026-04-26T10:35:54.526Z</time></trkpt><trkpt lat="40.27633716019012" lon="9.166032477566901"><ele>408.66666666666663</ele><time>2026-04-26T10:35:55.526Z</time></trkpt><trkpt lat="40.276162376289335" lon="9.166033949136215"><ele>410.0</ele><time>2026-04-26T10:35:56.526Z</time></trkpt><trkpt lat="40.275978019664464" lon="9.166028348061598"><ele>410.0</ele><time>2026-04-26T10:35:57.525Z</time></trkpt><trkpt lat="40.27579908068273" lon="9.166083226003542"><ele>410.0</ele><time>2026-04-26T10:35:58.525Z</time></trkpt><trkpt lat="40.27566857481766" lon="9.16616049223497"><ele>410.0</ele><time>2026-04-26T10:35:59.525Z</time></trkpt><trkpt lat="40.27553846891129" lon="9.166124858131894"><ele>409.5</ele><time>2026-04-26T10:36:00.525Z</time></trkpt><trkpt lat="40.275435640955735" lon="9.166009053068096"><ele>409.0</ele><time>2026-04-26T10:36:01.525Z</time></trkpt><trkpt lat="40.27536032123034" lon="9.165837890776704"><ele>408.5</ele><time>2026-04-26T10:36:02.525Z</time></trkpt><trkpt lat="40.27530450383751" lon="9.165640572738887"><ele>408.0</ele><time>2026-04-26T10:36:03.525Z</time></trkpt><trkpt lat="40.27523991102345" lon="9.165430536749556"><ele>411.66666666666663</ele><time>2026-04-26T10:36:04.525Z</time></trkpt><trkpt lat="40.275162890762125" lon="9.165222707020671"><ele>415.3333333333333</ele><time>2026-04-26T10:36:05.525Z</time></trkpt><trkpt lat="40.27505673538794" lon="9.165032169183883"><ele>419.0</ele><time>2026-04-26T10:36:06.526Z</time></trkpt><trkpt lat="40.274917169876645" lon="9.16485774610084"><ele>421.66666666666663</ele><time>2026-04-26T10:36:07.526Z</time></trkpt><trkpt lat="40.274764949522144" lon="9.164699561627897"><ele>424.33333333333337</ele><time>2026-04-26T10:36:08.526Z</time></trkpt><trkpt lat="40.27459113898578" lon="9.164550467271924"><ele>427.0</ele><time>2026-04-26T10:36:09.526Z</time></trkpt><trkpt lat="40.27441692831583" lon="9.164405086248063"><ele>427.0</ele><time>2026-04-26T10:36:10.526Z</time></trkpt><trkpt lat="40.2742363569937" lon="9.164249894591212"><ele>427.0</ele><time>2026-04-26T10:36:11.526Z</time></trkpt><trkpt lat="40.27405845898176" lon="9.16408828083444"><ele>427.0</ele><time>2026-04-26T10:36:12.525Z</time></trkpt><trkpt lat="40.273903466886296" lon="9.163922927150209"><ele>429.0</ele><time>2026-04-26T10:36:13.525Z</time></trkpt><trkpt lat="40.27375131191189" lon="9.163788370351496"><ele>431.0</ele><time>2026-04-26T10:36:14.525Z</time></trkpt><trkpt lat="40.273654683038" lon="9.163594914571739"><ele>433.0</ele><time>2026-04-26T10:36:15.525Z</time></trkpt><trkpt lat="40.27357212184683" lon="9.16338685902219"><ele>437.33333333333337</ele><time>2026-04-26T10:36:16.526Z</time></trkpt><trkpt lat="40.27351705226114" lon="9.163176498672737"><ele>441.66666666666663</ele><time>2026-04-26T10:36:17.526Z</time></trkpt><trkpt lat="40.27345402676406" lon="9.163002785850576"><ele>446.0</ele><time>2026-04-26T10:36:18.526Z</time></trkpt><trkpt lat="40.27334352862265" lon="9.162883215313729"><ele>446.0</ele><time>2026-04-26T10:36:19.526Z</time></trkpt><trkpt lat="40.27318122304859" lon="9.162869649689735"><ele>446.0</ele><time>2026-04-26T10:36:20.526Z</time></trkpt><trkpt lat="40.27305075256531" lon="9.162978481076753"><ele>446.0</ele><time>2026-04-26T10:36:21.526Z</time></trkpt><trkpt lat="40.27297451731739" lon="9.163093644179236"><ele>446.0</ele><time>2026-04-26T10:36:22.526Z</time></trkpt><trkpt lat="40.272901010555074" lon="9.163253795259152"><ele>446.0</ele><time>2026-04-26T10:36:23.525Z</time></trkpt><trkpt lat="40.27283524762078" lon="9.16343869755964"><ele>446.0</ele><time>2026-04-26T10:36:24.525Z</time></trkpt><trkpt lat="40.27275902887797" lon="9.163631443010233"><ele>446.0</ele><time>2026-04-26T10:36:25.525Z</time></trkpt><trkpt lat="40.27268063363629" lon="9.163837596561665"><ele>444.66666666666663</ele><time>2026-04-26T10:36:26.525Z</time></trkpt><trkpt lat="40.27260879753882" lon="9.164053486380398"><ele>443.33333333333337</ele><time>2026-04-26T10:36:27.525Z</time></trkpt><trkpt lat="40.27254583380646" lon="9.164289566155947"><ele>442.0</ele><time>2026-04-26T10:36:28.525Z</time></trkpt><trkpt lat="40.272498574950156" lon="9.164537312266816"><ele>442.0</ele><time>2026-04-26T10:36:29.525Z</time></trkpt><trkpt lat="40.27245645122237" lon="9.16478400854283"><ele>442.0</ele><time>2026-04-26T10:36:30.525Z</time></trkpt><trkpt lat="40.272430765630574" lon="9.16500883177318"><ele>442.0</ele><time>2026-04-26T10:36:31.525Z</time></trkpt><trkpt lat="40.27237756108419" lon="9.165213216035946"><ele>441.6666666666667</ele><time>2026-04-26T10:36:32.525Z</time></trkpt><trkpt lat="40.272284614460304" lon="9.165384128801875"><ele>441.33333333333337</ele><time>2026-04-26T10:36:33.525Z</time></trkpt><trkpt lat="40.27215431804527" lon="9.165539810790113"><ele>441.0</ele><time>2026-04-26T10:36:34.525Z</time></trkpt><trkpt lat="40.27200922087826" lon="9.165679926232611"><ele>446.66666666666663</ele><time>2026-04-26T10:36:35.525Z</time></trkpt><trkpt lat="40.27186870286237" lon="9.165822191788227"><ele>452.3333333333333</ele><time>2026-04-26T10:36:36.525Z</time></trkpt><trkpt lat="40.271765148218854" lon="9.165974628077493"><ele>458.0</ele><time>2026-04-26T10:36:37.525Z</time></trkpt><trkpt lat="40.27170304972132" lon="9.166151761033293"><ele>458.0</ele><time>2026-04-26T10:36:38.525Z</time></trkpt><trkpt lat="40.27170018822772" lon="9.16635076071579"><ele>458.0</ele><time>2026-04-26T10:36:39.525Z</time></trkpt><trkpt lat="40.27174542418249" lon="9.166551472739831"><ele>458.0</ele><time>2026-04-26T10:36:40.525Z</time></trkpt><trkpt lat="40.2717974613966" lon="9.166746490230688"><ele>457.5</ele><time>2026-04-26T10:36:41.525Z</time></trkpt><trkpt lat="40.27181928956566" lon="9.166929952288001"><ele>457.0</ele><time>2026-04-26T10:36:42.525Z</time></trkpt><trkpt lat="40.271812252908205" lon="9.16709660617373"><ele>456.5</ele><time>2026-04-26T10:36:43.525Z</time></trkpt><trkpt lat="40.27177465648435" lon="9.167258161991402"><ele>456.0</ele><time>2026-04-26T10:36:44.525Z</time></trkpt><trkpt lat="40.27170078562176" lon="9.167416236015972"><ele>456.0</ele><time>2026-04-26T10:36:45.525Z</time></trkpt><trkpt lat="40.2716320060051" lon="9.167586078166536"><ele>456.0</ele><time>2026-04-26T10:36:46.525Z</time></trkpt><trkpt lat="40.27158109472347" lon="9.167759716805262"><ele>456.0</ele><time>2026-04-26T10:36:47.525Z</time></trkpt><trkpt lat="40.27156085631026" lon="9.16792247871388"><ele>456.0</ele><time>2026-04-26T10:36:48.525Z</time></trkpt><trkpt lat="40.27158539977083" lon="9.1680566061975"><ele>456.0</ele><time>2026-04-26T10:36:49.524Z</time></trkpt><trkpt lat="40.27161393159809" lon="9.168146898248086"><ele>456.0</ele><time>2026-04-26T10:36:50.524Z</time></trkpt><trkpt lat="40.271651053847705" lon="9.168244896045369"><ele>456.0</ele><time>2026-04-26T10:36:52.524Z</time></trkpt><trkpt lat="40.27170315656765" lon="9.16835606437197"><ele>456.0</ele><time>2026-04-26T10:36:54.524Z</time></trkpt><trkpt lat="40.27174933942096" lon="9.168430217775812"><ele>456.0</ele><time>2026-04-26T10:36:55.524Z</time></trkpt><trkpt lat="40.271806316547874" lon="9.16851565540731"><ele>456.0</ele><time>2026-04-26T10:36:56.524Z</time></trkpt><trkpt lat="40.27186689325251" lon="9.16861028826321"><ele>457.4</ele><time>2026-04-26T10:36:57.524Z</time></trkpt><trkpt lat="40.271925193388576" lon="9.168710349501929"><ele>458.8</ele><time>2026-04-26T10:36:58.524Z</time></trkpt><trkpt lat="40.271991880785265" lon="9.168818551021106"><ele>460.19999999999993</ele><time>2026-04-26T10:36:59.524Z</time></trkpt><trkpt lat="40.27206346006812" lon="9.168912745516028"><ele>461.59999999999997</ele><time>2026-04-26T10:37:00.524Z</time></trkpt><trkpt lat="40.272154975304154" lon="9.168985927028652"><ele>463.0</ele><time>2026-04-26T10:37:01.524Z</time></trkpt><trkpt lat="40.27225329249136" lon="9.169029441318532"><ele>463.2</ele><time>2026-04-26T10:37:02.524Z</time></trkpt><trkpt lat="40.272353700983196" lon="9.169042892265196"><ele>463.4</ele><time>2026-04-26T10:37:03.524Z</time></trkpt><trkpt lat="40.2724567940879" lon="9.169051674422665"><ele>463.59999999999997</ele><time>2026-04-26T10:37:04.524Z</time></trkpt><trkpt lat="40.27255389910965" lon="9.169062385956293"><ele>463.79999999999995</ele><time>2026-04-26T10:37:05.524Z</time></trkpt><trkpt lat="40.27264551469117" lon="9.169070219672395"><ele>464.0</ele><time>2026-04-26T10:37:06.524Z</time></trkpt><trkpt lat="40.27271636718453" lon="9.169091647217547"><ele>463.99999999999994</ele><time>2026-04-26T10:37:07.524Z</time></trkpt><trkpt lat="40.27275868089993" lon="9.169154643489208"><ele>464.0</ele><time>2026-04-26T10:37:08.524Z</time></trkpt><trkpt lat="40.27278379788566" lon="9.169239118608886"><ele>464.0</ele><time>2026-04-26T10:37:09.524Z</time></trkpt><trkpt lat="40.272788108525674" lon="9.16934230709222"><ele>464.0</ele><time>2026-04-26T10:37:10.524Z</time></trkpt><trkpt lat="40.2727790128467" lon="9.169449246669865"><ele>463.99999999999994</ele><time>2026-04-26T10:37:11.524Z</time></trkpt><trkpt lat="40.27275814417216" lon="9.169551184565599"><ele>464.0</ele><time>2026-04-26T10:37:12.524Z</time></trkpt><trkpt lat="40.27269605955768" lon="9.169612907151027"><ele>463.99999999999994</ele><time>2026-04-26T10:37:13.524Z</time></trkpt><trkpt lat="40.272649921992375" lon="9.169674040613732"><ele>464.0</ele><time>2026-04-26T10:37:14.523Z</time></trkpt><trkpt lat="40.27258856512355" lon="9.169728618201674"><ele>464.0</ele><time>2026-04-26T10:37:15.523Z</time></trkpt><trkpt lat="40.27252043451948" lon="9.169778243797763"><ele>464.0</ele><time>2026-04-26T10:37:16.523Z</time></trkpt><trkpt lat="40.27245337022542" lon="9.16982305103351"><ele>463.99999999999994</ele><time>2026-04-26T10:37:17.523Z</time></trkpt><trkpt lat="40.272383939824074" lon="9.169881857303666"><ele>464.0</ele><time>2026-04-26T10:37:18.523Z</time></trkpt><trkpt lat="40.27230873285871" lon="9.169891604848052"><ele>464.8333333333333</ele><time>2026-04-26T10:37:19.523Z</time></trkpt><trkpt lat="40.27223383085236" lon="9.169871907954972"><ele>465.66666666666663</ele><time>2026-04-26T10:37:20.523Z</time></trkpt><trkpt lat="40.272157282067795" lon="9.169877302409937"><ele>466.5</ele><time>2026-04-26T10:37:21.523Z</time></trkpt><trkpt lat="40.27207615364644" lon="9.16992179003197"><ele>467.33333333333337</ele><time>2026-04-26T10:37:22.523Z</time></trkpt><trkpt lat="40.2719968665592" lon="9.169908488546614"><ele>468.1666666666667</ele><time>2026-04-26T10:37:23.523Z</time></trkpt><trkpt lat="40.271923618902505" lon="9.169867521649529"><ele>469.0</ele><time>2026-04-26T10:37:24.523Z</time></trkpt><trkpt lat="40.271855377444574" lon="9.169825073107189"><ele>469.50000000000006</ele><time>2026-04-26T10:37:25.523Z</time></trkpt><trkpt lat="40.27183433139208" lon="9.16972126560214"><ele>470.0</ele><time>2026-04-26T10:37:26.523Z</time></trkpt><trkpt lat="40.27178627650592" lon="9.169663064100982"><ele>470.5</ele><time>2026-04-26T10:37:27.523Z</time></trkpt><trkpt lat="40.271717934927196" lon="9.169542113998848"><ele>471.0</ele><time>2026-04-26T10:37:29.523Z</time></trkpt><trkpt lat="40.27167873207549" lon="9.169461943497948"><ele>471.50000000000006</ele><time>2026-04-26T10:37:30.523Z</time></trkpt><trkpt lat="40.2716153175896" lon="9.16937512741333"><ele>472.0</ele><time>2026-04-26T10:37:31.523Z</time></trkpt><trkpt lat="40.27153814236691" lon="9.16931330058759"><ele>472.0</ele><time>2026-04-26T10:37:32.523Z</time></trkpt><trkpt lat="40.271448232234754" lon="9.169294224817046"><ele>472.00000000000006</ele><time>2026-04-26T10:37:33.523Z</time></trkpt><trkpt lat="40.271377763855824" lon="9.169295649828333"><ele>472.00000000000006</ele><time>2026-04-26T10:37:34.523Z</time></trkpt><trkpt lat="40.27130670087029" lon="9.169309148315701"><ele>472.0</ele><time>2026-04-26T10:37:35.523Z</time></trkpt><trkpt lat="40.27118585205411" lon="9.16930911998065"><ele>472.0</ele><time>2026-04-26T10:37:37.523Z</time></trkpt><trkpt lat="40.27108701855972" lon="9.169264746167713"><ele>473.33333333333337</ele><time>2026-04-26T10:37:39.522Z</time></trkpt><trkpt lat="40.2709807474571" lon="9.169197028383316"><ele>474.6666666666667</ele><time>2026-04-26T10:37:41.522Z</time></trkpt><trkpt lat="40.270917011974554" lon="9.169160456054014"><ele>476.0</ele><time>2026-04-26T10:37:42.522Z</time></trkpt><trkpt lat="40.27084869965271" lon="9.169127322132526"><ele>477.33333333333337</ele><time>2026-04-26T10:37:43.522Z</time></trkpt><trkpt lat="40.27077512454023" lon="9.169098351239015"><ele>478.6666666666667</ele><time>2026-04-26T10:37:44.522Z</time></trkpt><trkpt lat="40.27069796485222" lon="9.169079050788506"><ele>480.0</ele><time>2026-04-26T10:37:45.522Z</time></trkpt><trkpt lat="40.27061766151121" lon="9.169071186775971"><ele>481.6666666666667</ele><time>2026-04-26T10:37:46.522Z</time></trkpt><trkpt lat="40.27053380691241" lon="9.169076120785004"><ele>483.33333333333337</ele><time>2026-04-26T10:37:47.522Z</time></trkpt><trkpt lat="40.27045215164171" lon="9.169091668619297"><ele>485.0</ele><time>2026-04-26T10:37:48.522Z</time></trkpt><trkpt lat="40.27036976467078" lon="9.169110708698279"><ele>486.6666666666667</ele><time>2026-04-26T10:37:49.522Z</time></trkpt><trkpt lat="40.27029062843717" lon="9.169134473461767"><ele>488.33333333333337</ele><time>2026-04-26T10:37:50.522Z</time></trkpt><trkpt lat="40.270213237735454" lon="9.169159167100913"><ele>490.0</ele><time>2026-04-26T10:37:51.522Z</time></trkpt><trkpt lat="40.27013997514222" lon="9.169188074984913"><ele>490.0</ele><time>2026-04-26T10:37:52.522Z</time></trkpt><trkpt lat="40.270065268307285" lon="9.1692201650113"><ele>490.0</ele><time>2026-04-26T10:37:53.522Z</time></trkpt><trkpt lat="40.269991938671915" lon="9.169255126379445"><ele>490.0</ele><time>2026-04-26T10:37:54.522Z</time></trkpt><trkpt lat="40.26992009757962" lon="9.169289833491021"><ele>490.0</ele><time>2026-04-26T10:37:55.522Z</time></trkpt><trkpt lat="40.26985654779264" lon="9.169328093155505"><ele>490.0</ele><time>2026-04-26T10:37:56.522Z</time></trkpt><trkpt lat="40.269789338707675" lon="9.169379749855953"><ele>490.0</ele><time>2026-04-26T10:37:58.522Z</time></trkpt></trkseg><trkseg><trkpt lat="40.269883685281755" lon="9.169548345918539"><ele>490.00000000000006</ele><time>2026-04-26T11:44:02.658Z</time></trkpt><trkpt lat="40.26982386175302" lon="9.169445910584509"><ele>490.0</ele><time>2026-04-26T11:44:15Z</time></trkpt><trkpt lat="40.26975890273105" lon="9.169440385988477"><ele>490.0</ele><time>2026-04-26T11:45:42.001Z</time></trkpt><trkpt lat="40.26970340598772" lon="9.169506844641973"><ele>490.0</ele><time>2026-04-26T11:45:47.001Z</time></trkpt><trkpt lat="40.269618162868255" lon="9.169612800948354"><ele>490.00000000000006</ele><time>2026-04-26T11:45:49.001Z</time></trkpt><trkpt lat="40.269572052987755" lon="9.169679927162356"><ele>490.0</ele><time>2026-04-26T11:45:50.001Z</time></trkpt><trkpt lat="40.269523821798856" lon="9.169739523639535"><ele>490.8</ele><time>2026-04-26T11:45:51.001Z</time></trkpt><trkpt lat="40.2694663606532" lon="9.169791193853616"><ele>491.6</ele><time>2026-04-26T11:45:52.001Z</time></trkpt><trkpt lat="40.26939937741208" lon="9.169900881027285"><ele>492.4</ele><time>2026-04-26T11:45:54.001Z</time></trkpt><trkpt lat="40.26932650042022" lon="9.16999108717197"><ele>493.2</ele><time>2026-04-26T11:45:56.001Z</time></trkpt><trkpt lat="40.2692309955076" lon="9.170101846658621"><ele>494.0</ele><time>2026-04-26T11:45:58.001Z</time></trkpt><trkpt lat="40.2691715205086" lon="9.170152216762345"><ele>493.99999999999994</ele><time>2026-04-26T11:45:59.001Z</time></trkpt><trkpt lat="40.26909795407917" lon="9.170190830806687"><ele>494.0</ele><time>2026-04-26T11:46:00.001Z</time></trkpt><trkpt lat="40.26902737637956" lon="9.170246945553293"><ele>494.0</ele><time>2026-04-26T11:46:01.001Z</time></trkpt><trkpt lat="40.26896331048411" lon="9.170297002018046"><ele>494.0</ele><time>2026-04-26T11:46:02.001Z</time></trkpt><trkpt lat="40.268909435035575" lon="9.170362659768728"><ele>493.99999999999994</ele><time>2026-04-26T11:46:03.001Z</time></trkpt><trkpt lat="40.26884143889971" lon="9.170414648581351"><ele>494.0</ele><time>2026-04-26T11:46:04.001Z</time></trkpt><trkpt lat="40.26877093691459" lon="9.170476665741095"><ele>494.8333333333333</ele><time>2026-04-26T11:46:05.001Z</time></trkpt><trkpt lat="40.268702499486" lon="9.170540882074569"><ele>495.66666666666663</ele><time>2026-04-26T11:46:06.001Z</time></trkpt><trkpt lat="40.26863324588299" lon="9.1706036209537"><ele>496.5</ele><time>2026-04-26T11:46:07.001Z</time></trkpt><trkpt lat="40.268565465357355" lon="9.170671191829102"><ele>497.33333333333337</ele><time>2026-04-26T11:46:08.001Z</time></trkpt><trkpt lat="40.26849729156028" lon="9.170739748109098"><ele>498.1666666666667</ele><time>2026-04-26T11:46:09.001Z</time></trkpt><trkpt lat="40.26842937704542" lon="9.170810733971846"><ele>499.0</ele><time>2026-04-26T11:46:10.001Z</time></trkpt><trkpt lat="40.26836070469316" lon="9.170879971943535"><ele>499.0</ele><time>2026-04-26T11:46:11.001Z</time></trkpt><trkpt lat="40.268292834526704" lon="9.170953380011655"><ele>499.0</ele><time>2026-04-26T11:46:12.001Z</time></trkpt><trkpt lat="40.268225320588584" lon="9.17102958113753"><ele>499.0</ele><time>2026-04-26T11:46:13.001Z</time></trkpt><trkpt lat="40.2681630506859" lon="9.17111464709419"><ele>499.0</ele><time>2026-04-26T11:46:14.001Z</time></trkpt><trkpt lat="40.26810715716969" lon="9.171212519754224"><ele>499.0</ele><time>2026-04-26T11:46:15.001Z</time></trkpt><trkpt lat="40.26806709035406" lon="9.171321439677936"><ele>502.79999999999995</ele><time>2026-04-26T11:46:16.001Z</time></trkpt><trkpt lat="40.26804695939574" lon="9.171443505429773"><ele>506.59999999999997</ele><time>2026-04-26T11:46:17.001Z</time></trkpt><trkpt lat="40.26803016415115" lon="9.171568389955183"><ele>510.4</ele><time>2026-04-26T11:46:18.001Z</time></trkpt><trkpt lat="40.26802674637624" lon="9.171692458564882"><ele>514.1999999999999</ele><time>2026-04-26T11:46:19.001Z</time></trkpt><trkpt lat="40.268032184333464" lon="9.171820659177374"><ele>518.0</ele><time>2026-04-26T11:46:20.001Z</time></trkpt><trkpt lat="40.26802624964028" lon="9.17195717158139"><ele>518.0</ele><time>2026-04-26T11:46:21.002Z</time></trkpt><trkpt lat="40.26801583918127" lon="9.172086157522067"><ele>518.0</ele><time>2026-04-26T11:46:22.002Z</time></trkpt><trkpt lat="40.2680197698248" lon="9.172216223238024"><ele>518.0</ele><time>2026-04-26T11:46:23.002Z</time></trkpt><trkpt lat="40.26801730743433" lon="9.172347898767198"><ele>518.0</ele><time>2026-04-26T11:46:24.002Z</time></trkpt><trkpt lat="40.2680072159024" lon="9.172477458077855"><ele>518.0</ele><time>2026-04-26T11:46:25.002Z</time></trkpt><trkpt lat="40.26798191902309" lon="9.172606917844698"><ele>518.0</ele><time>2026-04-26T11:46:26.002Z</time></trkpt><trkpt lat="40.267946770251044" lon="9.172732086654865"><ele>518.0</ele><time>2026-04-26T11:46:27.002Z</time></trkpt><trkpt lat="40.267901056299635" lon="9.172849092429939"><ele>518.0</ele><time>2026-04-26T11:46:28.002Z</time></trkpt><trkpt lat="40.26782275862284" lon="9.17294044507292"><ele>518.0</ele><time>2026-04-26T11:46:29.002Z</time></trkpt><trkpt lat="40.26775437782142" lon="9.17304305959894"><ele>518.0</ele><time>2026-04-26T11:46:30.002Z</time></trkpt><trkpt lat="40.26767356715124" lon="9.17313332186098"><ele>516.8</ele><time>2026-04-26T11:46:31.002Z</time></trkpt><trkpt lat="40.26759191494656" lon="9.173223293146583"><ele>515.5999999999999</ele><time>2026-04-26T11:46:32.002Z</time></trkpt><trkpt lat="40.26751137589067" lon="9.173313276305583"><ele>514.4000000000001</ele><time>2026-04-26T11:46:33.002Z</time></trkpt><trkpt lat="40.267430991953624" lon="9.173406519512909"><ele>513.2</ele><time>2026-04-26T11:46:34.002Z</time></trkpt><trkpt lat="40.26734498548012" lon="9.17349318876531"><ele>512.0</ele><time>2026-04-26T11:46:35.002Z</time></trkpt><trkpt lat="40.267258207170855" lon="9.173570735566999"><ele>517.0</ele><time>2026-04-26T11:46:36.002Z</time></trkpt><trkpt lat="40.26716622403509" lon="9.173637163282578"><ele>522.0</ele><time>2026-04-26T11:46:37.002Z</time></trkpt><trkpt lat="40.267064070932726" lon="9.173704373643059"><ele>527.0</ele><time>2026-04-26T11:46:38.002Z</time></trkpt><trkpt lat="40.26695610383078" lon="9.173773848444046"><ele>532.0</ele><time>2026-04-26T11:46:39.002Z</time></trkpt><trkpt lat="40.26684674411225" lon="9.17384014354017"><ele>532.0</ele><time>2026-04-26T11:46:40.002Z</time></trkpt><trkpt lat="40.266733108465694" lon="9.173916621280656"><ele>532.0</ele><time>2026-04-26T11:46:41.002Z</time></trkpt><trkpt lat="40.266604483307745" lon="9.173962377708039"><ele>532.0</ele><time>2026-04-26T11:46:42.002Z</time></trkpt><trkpt lat="40.26648131464929" lon="9.174051685366896"><ele>532.0</ele><time>2026-04-26T11:46:43.002Z</time></trkpt><trkpt lat="40.26636448029287" lon="9.174126765825074"><ele>531.5</ele><time>2026-04-26T11:46:44.002Z</time></trkpt><trkpt lat="40.266255275340804" lon="9.17422424811127"><ele>531.0</ele><time>2026-04-26T11:46:45.002Z</time></trkpt><trkpt lat="40.26615023653769" lon="9.174336479197628"><ele>530.5</ele><time>2026-04-26T11:46:46.002Z</time></trkpt><trkpt lat="40.26606246741993" lon="9.174489645895829"><ele>530.0</ele><time>2026-04-26T11:46:47.002Z</time></trkpt><trkpt lat="40.26598155991662" lon="9.174644692568517"><ele>530.0</ele><time>2026-04-26T11:46:48.002Z</time></trkpt><trkpt lat="40.26592698259927" lon="9.174821854131356"><ele>530.0</ele><time>2026-04-26T11:46:49.002Z</time></trkpt><trkpt lat="40.265886271102076" lon="9.17500417467653"><ele>530.0</ele><time>2026-04-26T11:46:50.002Z</time></trkpt><trkpt lat="40.26583601482029" lon="9.175161260073374"><ele>530.0</ele><time>2026-04-26T11:46:51.002Z</time></trkpt><trkpt lat="40.265745753175196" lon="9.17526278537623"><ele>530.25</ele><time>2026-04-26T11:46:52.002Z</time></trkpt><trkpt lat="40.265644070240434" lon="9.175338440509945"><ele>530.5</ele><time>2026-04-26T11:46:53.002Z</time></trkpt><trkpt lat="40.265523111029594" lon="9.175340367023123"><ele>530.75</ele><time>2026-04-26T11:46:54.002Z</time></trkpt><trkpt lat="40.26542198018899" lon="9.175205191267757"><ele>531.0</ele><time>2026-04-26T11:46:55.002Z</time></trkpt><trkpt lat="40.26530117335252" lon="9.175140966766683"><ele>531.0</ele><time>2026-04-26T11:46:56.002Z</time></trkpt><trkpt lat="40.265193550729634" lon="9.175058749718419"><ele>531.0</ele><time>2026-04-26T11:46:57.002Z</time></trkpt><trkpt lat="40.265064420506356" lon="9.17502521205228"><ele>531.0</ele><time>2026-04-26T11:46:58.002Z</time></trkpt><trkpt lat="40.26492894512048" lon="9.175021979019471"><ele>531.0</ele><time>2026-04-26T11:46:59.002Z</time></trkpt><trkpt lat="40.264782297044135" lon="9.175044247705102"><ele>535.0</ele><time>2026-04-26T11:47:00.002Z</time></trkpt><trkpt lat="40.26464115082862" lon="9.175085623184064"><ele>539.0</ele><time>2026-04-26T11:47:01.002Z</time></trkpt><trkpt lat="40.264491095317396" lon="9.175125118381128"><ele>543.0</ele><time>2026-04-26T11:47:02.002Z</time></trkpt><trkpt lat="40.26434249128701" lon="9.175178378197957"><ele>543.0</ele><time>2026-04-26T11:47:03.002Z</time></trkpt><trkpt lat="40.26419667212113" lon="9.175235081157565"><ele>543.0</ele><time>2026-04-26T11:47:04.002Z</time></trkpt><trkpt lat="40.26405596459932" lon="9.17528760248625"><ele>543.0</ele><time>2026-04-26T11:47:05.002Z</time></trkpt><trkpt lat="40.26391636306553" lon="9.175355008601604"><ele>543.0</ele><time>2026-04-26T11:47:06.002Z</time></trkpt><trkpt lat="40.26379171022615" lon="9.175422845012328"><ele>544.5</ele><time>2026-04-26T11:47:07.002Z</time></trkpt><trkpt lat="40.263662222137334" lon="9.17546483988736"><ele>546.0</ele><time>2026-04-26T11:47:08.002Z</time></trkpt><trkpt lat="40.26353377730999" lon="9.175438572027838"><ele>547.5</ele><time>2026-04-26T11:47:09.002Z</time></trkpt><trkpt lat="40.263403106517984" lon="9.175384181729143"><ele>549.0</ele><time>2026-04-26T11:47:10.002Z</time></trkpt><trkpt lat="40.26326740721231" lon="9.1753370524332"><ele>549.0</ele><time>2026-04-26T11:47:11.002Z</time></trkpt><trkpt lat="40.26314624872357" lon="9.175270713300598"><ele>549.0</ele><time>2026-04-26T11:47:12.002Z</time></trkpt><trkpt lat="40.26302285255277" lon="9.175255970286857"><ele>549.0</ele><time>2026-04-26T11:47:13.002Z</time></trkpt><trkpt lat="40.26290283402188" lon="9.175311747519556"><ele>549.0</ele><time>2026-04-26T11:47:14.002Z</time></trkpt><trkpt lat="40.262795140314964" lon="9.175426304696204"><ele>549.25</ele><time>2026-04-26T11:47:15.002Z</time></trkpt><trkpt lat="40.262731710541985" lon="9.175575146753577"><ele>549.5</ele><time>2026-04-26T11:47:16.002Z</time></trkpt><trkpt lat="40.26271710106867" lon="9.175752446552025"><ele>549.75</ele><time>2026-04-26T11:47:17.002Z</time></trkpt><trkpt lat="40.262779863700814" lon="9.175916445485875"><ele>550.0</ele><time>2026-04-26T11:47:18.002Z</time></trkpt><trkpt lat="40.2628667171772" lon="9.176058866987269"><ele>550.0</ele><time>2026-04-26T11:47:19.002Z</time></trkpt><trkpt lat="40.26294242642522" lon="9.17619025957986"><ele>550.0</ele><time>2026-04-26T11:47:20.002Z</time></trkpt><trkpt lat="40.262992723613756" lon="9.176350992477266"><ele>550.0</ele><time>2026-04-26T11:47:21.003Z</time></trkpt><trkpt lat="40.262964060945" lon="9.176517690200551"><ele>550.0</ele><time>2026-04-26T11:47:22.003Z</time></trkpt><trkpt lat="40.26291711989387" lon="9.176666871944498"><ele>550.25</ele><time>2026-04-26T11:47:23.003Z</time></trkpt><trkpt lat="40.262851058755075" lon="9.176815052141851"><ele>550.5</ele><time>2026-04-26T11:47:24.003Z</time></trkpt><trkpt lat="40.26277906884031" lon="9.176968145427141"><ele>550.75</ele><time>2026-04-26T11:47:25.003Z</time></trkpt><trkpt lat="40.2627001499285" lon="9.177114395022855"><ele>551.0</ele><time>2026-04-26T11:47:26.003Z</time></trkpt><trkpt lat="40.26261225686291" lon="9.177249787801868"><ele>550.0</ele><time>2026-04-26T11:47:27.003Z</time></trkpt><trkpt lat="40.26253511254331" lon="9.177408059023064"><ele>549.0</ele><time>2026-04-26T11:47:28.003Z</time></trkpt><trkpt lat="40.26244134314103" lon="9.177560892810597"><ele>548.0</ele><time>2026-04-26T11:47:29.003Z</time></trkpt><trkpt lat="40.2623813239107" lon="9.177728844127087"><ele>547.0</ele><time>2026-04-26T11:47:30.003Z</time></trkpt><trkpt lat="40.262338500413" lon="9.177918227871523"><ele>547.0</ele><time>2026-04-26T11:47:31.003Z</time></trkpt><trkpt lat="40.262304251309565" lon="9.178108050654354"><ele>547.0</ele><time>2026-04-26T11:47:32.003Z</time></trkpt><trkpt lat="40.262250739426726" lon="9.178290680231875"><ele>547.0</ele><time>2026-04-26T11:47:33.003Z</time></trkpt><trkpt lat="40.26221149795795" lon="9.17848394988405"><ele>555.6666666666667</ele><time>2026-04-26T11:47:34.003Z</time></trkpt><trkpt lat="40.26217179319128" lon="9.178679404541262"><ele>564.3333333333334</ele><time>2026-04-26T11:47:35.003Z</time></trkpt><trkpt lat="40.26213214683246" lon="9.178868482761166"><ele>573.0</ele><time>2026-04-26T11:47:36.003Z</time></trkpt><trkpt lat="40.26209021290923" lon="9.179070709312372"><ele>573.0</ele><time>2026-04-26T11:47:37.003Z</time></trkpt><trkpt lat="40.26206659045917" lon="9.179270948422225"><ele>573.0</ele><time>2026-04-26T11:47:38.003Z</time></trkpt><trkpt lat="40.26201926839117" lon="9.179473354183282"><ele>573.0</ele><time>2026-04-26T11:47:39.003Z</time></trkpt><trkpt lat="40.261976886597694" lon="9.179675663401602"><ele>571.6666666666666</ele><time>2026-04-26T11:47:40.003Z</time></trkpt><trkpt lat="40.26191577695106" lon="9.179869271660573"><ele>570.3333333333333</ele><time>2026-04-26T11:47:41.003Z</time></trkpt><trkpt lat="40.2618567703968" lon="9.180062976093259"><ele>569.0</ele><time>2026-04-26T11:47:42.003Z</time></trkpt><trkpt lat="40.261785731548386" lon="9.180250692903986"><ele>569.0</ele><time>2026-04-26T11:47:43.003Z</time></trkpt><trkpt lat="40.261707842453504" lon="9.180440422975272"><ele>569.0</ele><time>2026-04-26T11:47:44.003Z</time></trkpt><trkpt lat="40.26162979069258" lon="9.180636152018616"><ele>569.0</ele><time>2026-04-26T11:47:45.003Z</time></trkpt><trkpt lat="40.26154816205203" lon="9.1808265939383"><ele>567.6666666666666</ele><time>2026-04-26T11:47:46.003Z</time></trkpt><trkpt lat="40.26146082787977" lon="9.18101327359634"><ele>566.3333333333334</ele><time>2026-04-26T11:47:47.003Z</time></trkpt><trkpt lat="40.261357231534895" lon="9.181184688231188"><ele>565.0</ele><time>2026-04-26T11:47:48.003Z</time></trkpt><trkpt lat="40.261234324565855" lon="9.181323282756988"><ele>566.3333333333334</ele><time>2026-04-26T11:47:49.003Z</time></trkpt><trkpt lat="40.26110047366006" lon="9.181432659589113"><ele>567.6666666666666</ele><time>2026-04-26T11:47:50.003Z</time></trkpt><trkpt lat="40.2609471176668" lon="9.181518200768032"><ele>569.0</ele><time>2026-04-26T11:47:51.003Z</time></trkpt><trkpt lat="40.26079378780578" lon="9.181565421933264"><ele>569.0</ele><time>2026-04-26T11:47:52.003Z</time></trkpt><trkpt lat="40.260631588100026" lon="9.181587800697486"><ele>569.0</ele><time>2026-04-26T11:47:53.003Z</time></trkpt><trkpt lat="40.26046340876417" lon="9.181604245195578"><ele>569.0</ele><time>2026-04-26T11:47:54.003Z</time></trkpt><trkpt lat="40.260297691644745" lon="9.181620631034308"><ele>570.75</ele><time>2026-04-26T11:47:55.003Z</time></trkpt><trkpt lat="40.2601426562332" lon="9.181639999048889"><ele>572.5</ele><time>2026-04-26T11:47:56.003Z</time></trkpt><trkpt lat="40.260007019581735" lon="9.181682462856235"><ele>574.25</ele><time>2026-04-26T11:47:57.003Z</time></trkpt><trkpt lat="40.25990038920894" lon="9.181761494633033"><ele>576.0</ele><time>2026-04-26T11:47:58.003Z</time></trkpt><trkpt lat="40.259843837926915" lon="9.181887068937517"><ele>576.0</ele><time>2026-04-26T11:47:59.003Z</time></trkpt><trkpt lat="40.2598110299718" lon="9.182059315706306"><ele>576.0</ele><time>2026-04-26T11:48:00.003Z</time></trkpt><trkpt lat="40.25979239044562" lon="9.182239793219894"><ele>576.0</ele><time>2026-04-26T11:48:01.003Z</time></trkpt><trkpt lat="40.25975152416539" lon="9.182415773583578"><ele>576.0</ele><time>2026-04-26T11:48:02.003Z</time></trkpt><trkpt lat="40.259685312040496" lon="9.182602854081562"><ele>581.6666666666666</ele><time>2026-04-26T11:48:03.003Z</time></trkpt><trkpt lat="40.25961219066309" lon="9.182788050028442"><ele>587.3333333333333</ele><time>2026-04-26T11:48:04.003Z</time></trkpt><trkpt lat="40.25952834084083" lon="9.18296583570763"><ele>593.0</ele><time>2026-04-26T11:48:05.003Z</time></trkpt><trkpt lat="40.25943626617426" lon="9.183137606501628"><ele>590.6666666666666</ele><time>2026-04-26T11:48:06.003Z</time></trkpt><trkpt lat="40.259343981511186" lon="9.183308225139115"><ele>588.3333333333334</ele><time>2026-04-26T11:48:07.003Z</time></trkpt><trkpt lat="40.25924678998293" lon="9.183461161081183"><ele>586.0</ele><time>2026-04-26T11:48:08.003Z</time></trkpt><trkpt lat="40.2591172182103" lon="9.183550105737474"><ele>586.0</ele><time>2026-04-26T11:48:09.003Z</time></trkpt><trkpt lat="40.258997949809554" lon="9.183615900287034"><ele>586.0</ele><time>2026-04-26T11:48:10.003Z</time></trkpt><trkpt lat="40.25886034548193" lon="9.183681083890656"><ele>586.0</ele><time>2026-04-26T11:48:11.003Z</time></trkpt><trkpt lat="40.25872383997958" lon="9.183754315523167"><ele>586.0</ele><time>2026-04-26T11:48:12.003Z</time></trkpt><trkpt lat="40.2585915549997" lon="9.183818931592997"><ele>586.75</ele><time>2026-04-26T11:48:13.003Z</time></trkpt><trkpt lat="40.25845914107338" lon="9.183869245027907"><ele>587.5</ele><time>2026-04-26T11:48:14.003Z</time></trkpt><trkpt lat="40.25833270639606" lon="9.183942790740799"><ele>588.25</ele><time>2026-04-26T11:48:15.003Z</time></trkpt><trkpt lat="40.25820279175467" lon="9.184013184027933"><ele>589.0</ele><time>2026-04-26T11:48:16.003Z</time></trkpt><trkpt lat="40.25807115483824" lon="9.184074641566514"><ele>589.0</ele><time>2026-04-26T11:48:17.003Z</time></trkpt><trkpt lat="40.257946059901826" lon="9.184129734409167"><ele>589.0</ele><time>2026-04-26T11:48:18.003Z</time></trkpt><trkpt lat="40.25782686739521" lon="9.18416496692762"><ele>589.0</ele><time>2026-04-26T11:48:19.003Z</time></trkpt><trkpt lat="40.2577097181629" lon="9.184172326460805"><ele>589.0</ele><time>2026-04-26T11:48:20.003Z</time></trkpt><trkpt lat="40.257593526925604" lon="9.184162503016791"><ele>589.0</ele><time>2026-04-26T11:48:21.003Z</time></trkpt><trkpt lat="40.25748659179846" lon="9.184108611807478"><ele>589.0</ele><time>2026-04-26T11:48:22.003Z</time></trkpt><trkpt lat="40.25737794194572" lon="9.184052799062743"><ele>589.0</ele><time>2026-04-26T11:48:23.003Z</time></trkpt><trkpt lat="40.25726816762517" lon="9.183981734532386"><ele>589.0</ele><time>2026-04-26T11:48:24.003Z</time></trkpt><trkpt lat="40.25715737215113" lon="9.183915800578777"><ele>587.5</ele><time>2026-04-26T11:48:25.003Z</time></trkpt><trkpt lat="40.25704612850528" lon="9.18383827399045"><ele>586.0</ele><time>2026-04-26T11:48:26.003Z</time></trkpt><trkpt lat="40.25693829819929" lon="9.18377288502997"><ele>584.5</ele><time>2026-04-26T11:48:27.004Z</time></trkpt><trkpt lat="40.25682428196545" lon="9.183717897434033"><ele>583.0</ele><time>2026-04-26T11:48:28.004Z</time></trkpt><trkpt lat="40.256695665753725" lon="9.18366118011798"><ele>583.0</ele><time>2026-04-26T11:48:29.004Z</time></trkpt><trkpt lat="40.256574767262244" lon="9.183626104853113"><ele>583.0</ele><time>2026-04-26T11:48:30.004Z</time></trkpt><trkpt lat="40.25644657295598" lon="9.18361528639142"><ele>583.0</ele><time>2026-04-26T11:48:31.004Z</time></trkpt><trkpt lat="40.256334171582125" lon="9.183639298055544"><ele>583.0</ele><time>2026-04-26T11:48:32.004Z</time></trkpt><trkpt lat="40.25624094250422" lon="9.18370710100841"><ele>581.8</ele><time>2026-04-26T11:48:33.004Z</time></trkpt><trkpt lat="40.256174544802164" lon="9.183819203932606"><ele>580.5999999999999</ele><time>2026-04-26T11:48:34.004Z</time></trkpt><trkpt lat="40.25611624985168" lon="9.183935542871096"><ele>579.4000000000001</ele><time>2026-04-26T11:48:35.004Z</time></trkpt><trkpt lat="40.25607399886469" lon="9.184067247981462"><ele>578.2</ele><time>2026-04-26T11:48:36.004Z</time></trkpt><trkpt lat="40.25603159047405" lon="9.184194890505982"><ele>577.0</ele><time>2026-04-26T11:48:37.004Z</time></trkpt><trkpt lat="40.25599377705322" lon="9.184292546385944"><ele>577.0</ele><time>2026-04-26T11:48:38.004Z</time></trkpt><trkpt lat="40.25593763719884" lon="9.18436419241376"><ele>577.0</ele><time>2026-04-26T11:48:39.004Z</time></trkpt><trkpt lat="40.255874488700094" lon="9.184394002914306"><ele>577.0</ele><time>2026-04-26T11:48:40.004Z</time></trkpt><trkpt lat="40.25580475297324" lon="9.184379982295356"><ele>577.0</ele><time>2026-04-26T11:48:41.004Z</time></trkpt><trkpt lat="40.25574692405719" lon="9.18432248816471"><ele>577.0</ele><time>2026-04-26T11:48:42.004Z</time></trkpt><trkpt lat="40.25572307572962" lon="9.184234246886154"><ele>577.0</ele><time>2026-04-26T11:48:43.004Z</time></trkpt><trkpt lat="40.255722761639646" lon="9.184143341181583"><ele>577.0</ele><time>2026-04-26T11:48:44.004Z</time></trkpt><trkpt lat="40.25574407516984" lon="9.18404996314373"><ele>575.8571428571429</ele><time>2026-04-26T11:48:45.004Z</time></trkpt><trkpt lat="40.255778623969725" lon="9.183960080825731"><ele>574.7142857142858</ele><time>2026-04-26T11:48:46.004Z</time></trkpt><trkpt lat="40.255797696833696" lon="9.183871123960541"><ele>573.5714285714287</ele><time>2026-04-26T11:48:47.004Z</time></trkpt><trkpt lat="40.255779211246846" lon="9.18379152621167"><ele>572.4285714285714</ele><time>2026-04-26T11:48:48.004Z</time></trkpt><trkpt lat="40.255735066325144" lon="9.183732313824528"><ele>571.2857142857143</ele><time>2026-04-26T11:48:49.004Z</time></trkpt><trkpt lat="40.255672953221264" lon="9.18370471225989"><ele>570.1428571428572</ele><time>2026-04-26T11:48:50.004Z</time></trkpt><trkpt lat="40.25560328176655" lon="9.183704401817538"><ele>569.0</ele><time>2026-04-26T11:48:51.004Z</time></trkpt><trkpt lat="40.25554243162951" lon="9.183750077109199"><ele>569.0</ele><time>2026-04-26T11:48:52.004Z</time></trkpt><trkpt lat="40.255465616851694" lon="9.183746376421531"><ele>569.0</ele><time>2026-04-26T11:48:53.004Z</time></trkpt><trkpt lat="40.2554048877514" lon="9.1837920057553"><ele>569.0</ele><time>2026-04-26T11:48:54.004Z</time></trkpt><trkpt lat="40.255354032069064" lon="9.18386818812823"><ele>569.0</ele><time>2026-04-26T11:48:55.004Z</time></trkpt><trkpt lat="40.255306312327335" lon="9.183949480242715"><ele>569.0</ele><time>2026-04-26T11:48:56.004Z</time></trkpt><trkpt lat="40.25525377270912" lon="9.184039041757332"><ele>569.0</ele><time>2026-04-26T11:48:57.004Z</time></trkpt><trkpt lat="40.25520877183711" lon="9.184138171140166"><ele>569.0</ele><time>2026-04-26T11:48:58.004Z</time></trkpt><trkpt lat="40.255160137541985" lon="9.184241766993486"><ele>569.0</ele><time>2026-04-26T11:48:59.004Z</time></trkpt><trkpt lat="40.255101824056965" lon="9.1843355248957"><ele>569.0</ele><time>2026-04-26T11:49:00.004Z</time></trkpt><trkpt lat="40.255016329159055" lon="9.184407903266361"><ele>569.0</ele><time>2026-04-26T11:49:01.004Z</time></trkpt><trkpt lat="40.25492290560412" lon="9.184468731673926"><ele>569.0</ele><time>2026-04-26T11:49:02.004Z</time></trkpt><trkpt lat="40.25482361227668" lon="9.184536078186989"><ele>570.0</ele><time>2026-04-26T11:49:03.004Z</time></trkpt><trkpt lat="40.254730188124135" lon="9.184619338024659"><ele>571.0</ele><time>2026-04-26T11:49:04.004Z</time></trkpt><trkpt lat="40.25462316976228" lon="9.184693233547579"><ele>572.0</ele><time>2026-04-26T11:49:05.004Z</time></trkpt><trkpt lat="40.25451799737625" lon="9.184781712524627"><ele>573.0</ele><time>2026-04-26T11:49:06.004Z</time></trkpt><trkpt lat="40.25441259788522" lon="9.184875780408372"><ele>573.0</ele><time>2026-04-26T11:49:07.004Z</time></trkpt><trkpt lat="40.25430973757678" lon="9.184968507541367"><ele>573.0</ele><time>2026-04-26T11:49:08.004Z</time></trkpt><trkpt lat="40.25420583845553" lon="9.185063590806612"><ele>573.0</ele><time>2026-04-26T11:49:09.004Z</time></trkpt><trkpt lat="40.25410517984136" lon="9.185161391282017"><ele>573.0</ele><time>2026-04-26T11:49:10.004Z</time></trkpt><trkpt lat="40.25399180483833" lon="9.185264339636898"><ele>568.75</ele><time>2026-04-26T11:49:11.004Z</time></trkpt><trkpt lat="40.2538621495834" lon="9.185344607568084"><ele>564.5</ele><time>2026-04-26T11:49:12.004Z</time></trkpt><trkpt lat="40.25372016570966" lon="9.18537159695337"><ele>560.25</ele><time>2026-04-26T11:49:13.004Z</time></trkpt><trkpt lat="40.25357555167576" lon="9.185429905642028"><ele>556.0</ele><time>2026-04-26T11:49:14.004Z</time></trkpt><trkpt lat="40.25341933350236" lon="9.185453991310556"><ele>556.0</ele><time>2026-04-26T11:49:15.004Z</time></trkpt><trkpt lat="40.25325637056141" lon="9.185493668052823"><ele>556.0</ele><time>2026-04-26T11:49:16.004Z</time></trkpt><trkpt lat="40.25309389908952" lon="9.18555361905223"><ele>556.0</ele><time>2026-04-26T11:49:17.004Z</time></trkpt><trkpt lat="40.2529223730411" lon="9.185627126042453"><ele>557.6666666666667</ele><time>2026-04-26T11:49:18.004Z</time></trkpt><trkpt lat="40.25275183892794" lon="9.185707829570923"><ele>559.3333333333334</ele><time>2026-04-26T11:49:19.004Z</time></trkpt><trkpt lat="40.2525827147928" lon="9.185806070785263"><ele>561.0</ele><time>2026-04-26T11:49:20.004Z</time></trkpt><trkpt lat="40.25241020275545" lon="9.185916331472601"><ele>555.3333333333334</ele><time>2026-04-26T11:49:21.004Z</time></trkpt><trkpt lat="40.25224127077114" lon="9.18603782445177"><ele>549.6666666666667</ele><time>2026-04-26T11:49:22.004Z</time></trkpt><trkpt lat="40.25206538095148" lon="9.186150879146876"><ele>544.0</ele><time>2026-04-26T11:49:23.004Z</time></trkpt><trkpt lat="40.25188981123136" lon="9.186263276650601"><ele>544.0</ele><time>2026-04-26T11:49:24.004Z</time></trkpt><trkpt lat="40.25172562281591" lon="9.186375489842012"><ele>544.0</ele><time>2026-04-26T11:49:25.004Z</time></trkpt><trkpt lat="40.25157427394157" lon="9.186508168723131"><ele>544.0</ele><time>2026-04-26T11:49:26.004Z</time></trkpt><trkpt lat="40.251421220810954" lon="9.186639918211409"><ele>542.6666666666667</ele><time>2026-04-26T11:49:27.004Z</time></trkpt><trkpt lat="40.25127248762223" lon="9.18676439973365"><ele>541.3333333333334</ele><time>2026-04-26T11:49:28.004Z</time></trkpt><trkpt lat="40.25112394777147" lon="9.186856485750322"><ele>540.0</ele><time>2026-04-26T11:49:29.004Z</time></trkpt><trkpt lat="40.2509637646856" lon="9.186920141600492"><ele>540.0</ele><time>2026-04-26T11:49:30.004Z</time></trkpt><trkpt lat="40.250808770915874" lon="9.186974397221114"><ele>540.0</ele><time>2026-04-26T11:49:31.004Z</time></trkpt><trkpt lat="40.2506711610377" lon="9.187066509947652"><ele>540.0</ele><time>2026-04-26T11:49:32.004Z</time></trkpt><trkpt lat="40.25057577231191" lon="9.187199248991776"><ele>539.0</ele><time>2026-04-26T11:49:33.004Z</time></trkpt><trkpt lat="40.250505186358275" lon="9.187356702858796"><ele>538.0</ele><time>2026-04-26T11:49:34.004Z</time></trkpt><trkpt lat="40.25042801999289" lon="9.187493349522452"><ele>537.0</ele><time>2026-04-26T11:49:35.005Z</time></trkpt><trkpt lat="40.250321426404746" lon="9.187580482511876"><ele>536.0</ele><time>2026-04-26T11:49:36.005Z</time></trkpt><trkpt lat="40.250200970937016" lon="9.187622220016836"><ele>536.0</ele><time>2026-04-26T11:49:37.005Z</time></trkpt><trkpt lat="40.25007619156443" lon="9.187613874768175"><ele>536.0</ele><time>2026-04-26T11:49:38.005Z</time></trkpt><trkpt lat="40.24995161772772" lon="9.187563198156719"><ele>536.0</ele><time>2026-04-26T11:49:39.005Z</time></trkpt><trkpt lat="40.24983762875583" lon="9.187478334563767"><ele>536.0</ele><time>2026-04-26T11:49:40.005Z</time></trkpt><trkpt lat="40.24974534466471" lon="9.187365960877148"><ele>532.0</ele><time>2026-04-26T11:49:41.005Z</time></trkpt><trkpt lat="40.249674877303015" lon="9.187221261312052"><ele>528.0</ele><time>2026-04-26T11:49:42.005Z</time></trkpt><trkpt lat="40.2496181859094" lon="9.187061417195826"><ele>524.0</ele><time>2026-04-26T11:49:43.005Z</time></trkpt><trkpt lat="40.24956211960222" lon="9.186889265527094"><ele>520.0</ele><time>2026-04-26T11:49:44.005Z</time></trkpt><trkpt lat="40.24949705643319" lon="9.186722683501925"><ele>520.0</ele><time>2026-04-26T11:49:45.005Z</time></trkpt><trkpt lat="40.24949657068441" lon="9.186566235127545"><ele>520.0</ele><time>2026-04-26T11:49:46.005Z</time></trkpt><trkpt lat="40.24950843219928" lon="9.18643094184285"><ele>520.0</ele><time>2026-04-26T11:49:47.005Z</time></trkpt><trkpt lat="40.249595019659495" lon="9.186305231011422"><ele>520.0</ele><time>2026-04-26T11:49:48.005Z</time></trkpt><trkpt lat="40.24964561037213" lon="9.186138300715628"><ele>520.0</ele><time>2026-04-26T11:49:49.005Z</time></trkpt><trkpt lat="40.249687834108755" lon="9.185973432631172"><ele>520.0</ele><time>2026-04-26T11:49:50.005Z</time></trkpt><trkpt lat="40.24971147079164" lon="9.185808616599678"><ele>520.0</ele><time>2026-04-26T11:49:51.005Z</time></trkpt><trkpt lat="40.24973402574993" lon="9.185636051202692"><ele>520.0</ele><time>2026-04-26T11:49:52.005Z</time></trkpt><trkpt lat="40.249748081076774" lon="9.185482494608426"><ele>519.5</ele><time>2026-04-26T11:49:53.005Z</time></trkpt><trkpt lat="40.24973091205088" lon="9.18534886105984"><ele>519.0</ele><time>2026-04-26T11:49:54.005Z</time></trkpt><trkpt lat="40.24970846075893" lon="9.185239150875448"><ele>518.5</ele><time>2026-04-26T11:49:55.005Z</time></trkpt><trkpt lat="40.24969105247496" lon="9.185154757742625"><ele>518.0</ele><time>2026-04-26T11:49:56.005Z</time></trkpt><trkpt lat="40.24964119040387" lon="9.185021306842586"><ele>517.5</ele><time>2026-04-26T11:49:58.005Z</time></trkpt><trkpt lat="40.24960453108554" lon="9.18494129977732"><ele>517.0</ele><time>2026-04-26T11:49:59.005Z</time></trkpt><trkpt lat="40.24957426545396" lon="9.184843426159944"><ele>515.6</ele><time>2026-04-26T11:50:00.005Z</time></trkpt><trkpt lat="40.24953950568938" lon="9.18473537268389"><ele>514.2</ele><time>2026-04-26T11:50:01.005Z</time></trkpt><trkpt lat="40.249505865779874" lon="9.184622004001893"><ele>512.8</ele><time>2026-04-26T11:50:02.005Z</time></trkpt><trkpt lat="40.249470161125124" lon="9.184506171379132"><ele>511.4</ele><time>2026-04-26T11:50:03.005Z</time></trkpt><trkpt lat="40.24943508152258" lon="9.184384568625775"><ele>510.0</ele><time>2026-04-26T11:50:04.005Z</time></trkpt><trkpt lat="40.249407738105845" lon="9.184261825603445"><ele>510.0</ele><time>2026-04-26T11:50:05.005Z</time></trkpt><trkpt lat="40.24940562691994" lon="9.184149352396927"><ele>510.0</ele><time>2026-04-26T11:50:06.005Z</time></trkpt><trkpt lat="40.24939656241347" lon="9.184060644733187"><ele>510.0</ele><time>2026-04-26T11:50:07.005Z</time></trkpt><trkpt lat="40.2493874613054" lon="9.183923936666945"><ele>510.0</ele><time>2026-04-26T11:50:09.005Z</time></trkpt><trkpt lat="40.24938665675883" lon="9.18376815713939"><ele>510.0</ele><time>2026-04-26T11:50:11.005Z</time></trkpt><trkpt lat="40.24939230843271" lon="9.183665457865906"><ele>508.6</ele><time>2026-04-26T11:50:12.005Z</time></trkpt><trkpt lat="40.2494158088425" lon="9.183549390104398"><ele>507.2</ele><time>2026-04-26T11:50:13.005Z</time></trkpt><trkpt lat="40.249441367400124" lon="9.18343136509083"><ele>505.79999999999995</ele><time>2026-04-26T11:50:14.005Z</time></trkpt><trkpt lat="40.24948018356483" lon="9.183310747437693"><ele>504.4</ele><time>2026-04-26T11:50:15.005Z</time></trkpt><trkpt lat="40.24952774390766" lon="9.183195098051282"><ele>503.0</ele><time>2026-04-26T11:50:16.005Z</time></trkpt><trkpt lat="40.24957727921739" lon="9.183085602680809"><ele>502.49999999999994</ele><time>2026-04-26T11:50:17.005Z</time></trkpt><trkpt lat="40.24962792935566" lon="9.182973516942486"><ele>502.0</ele><time>2026-04-26T11:50:18.005Z</time></trkpt><trkpt lat="40.249662783093534" lon="9.182872856850068"><ele>501.5</ele><time>2026-04-26T11:50:19.005Z</time></trkpt><trkpt lat="40.24973590324643" lon="9.182805134012431"><ele>501.0</ele><time>2026-04-26T11:50:20.005Z</time></trkpt><trkpt lat="40.2497795425456" lon="9.182734489484695"><ele>500.49999999999994</ele><time>2026-04-26T11:50:21.005Z</time></trkpt><trkpt lat="40.24983577042967" lon="9.182678940223903"><ele>500.0</ele><time>2026-04-26T11:50:22.005Z</time></trkpt><trkpt lat="40.24990090523456" lon="9.1826338995997"><ele>500.0</ele><time>2026-04-26T11:50:23.005Z</time></trkpt><trkpt lat="40.24998012782876" lon="9.182540424335658"><ele>500.0</ele><time>2026-04-26T11:50:25.005Z</time></trkpt><trkpt lat="40.24992715484472" lon="9.18238724724659"><ele>500.0</ele><time>2026-04-26T11:50:27.005Z</time></trkpt><trkpt lat="40.24986464695896" lon="9.18232339953892"><ele>500.0</ele><time>2026-04-26T11:50:28.005Z</time></trkpt><trkpt lat="40.24980176108638" lon="9.182252306987603"><ele>500.0</ele><time>2026-04-26T11:50:29.005Z</time></trkpt><trkpt lat="40.249750116981815" lon="9.182156677954934"><ele>499.49999999999994</ele><time>2026-04-26T11:50:30.005Z</time></trkpt><trkpt lat="40.24969329726587" lon="9.182063412676461"><ele>499.0</ele><time>2026-04-26T11:50:31.005Z</time></trkpt><trkpt lat="40.24964310185664" lon="9.181965024470227"><ele>498.5</ele><time>2026-04-26T11:50:32.005Z</time></trkpt><trkpt lat="40.24959681823354" lon="9.181870232019246"><ele>498.0</ele><time>2026-04-26T11:50:33.005Z</time></trkpt><trkpt lat="40.249559672357144" lon="9.181790633260226"><ele>497.49999999999994</ele><time>2026-04-26T11:50:34.005Z</time></trkpt><trkpt lat="40.249513758363264" lon="9.181671618042227"><ele>497.0</ele><time>2026-04-26T11:50:36.005Z</time></trkpt><trkpt lat="40.249488377895695" lon="9.181578965813475"><ele>496.66666666666663</ele><time>2026-04-26T11:50:37.005Z</time></trkpt><trkpt lat="40.24945981668731" lon="9.181480237649604"><ele>496.3333333333333</ele><time>2026-04-26T11:50:38.005Z</time></trkpt><trkpt lat="40.249423219324214" lon="9.181385014395712"><ele>496.0</ele><time>2026-04-26T11:50:39.005Z</time></trkpt><trkpt lat="40.24938430442763" lon="9.181283112344053"><ele>495.66666666666663</ele><time>2026-04-26T11:50:40.005Z</time></trkpt><trkpt lat="40.249353942670595" lon="9.181173096984061"><ele>495.3333333333333</ele><time>2026-04-26T11:50:41.005Z</time></trkpt><trkpt lat="40.24929459772148" lon="9.181079291428736"><ele>495.0</ele><time>2026-04-26T11:50:42.006Z</time></trkpt><trkpt lat="40.24924292171362" lon="9.180975132903493"><ele>495.0</ele><time>2026-04-26T11:50:43.006Z</time></trkpt><trkpt lat="40.249199286329045" lon="9.180879022059074"><ele>495.0</ele><time>2026-04-26T11:50:44.006Z</time></trkpt><trkpt lat="40.249140639787456" lon="9.18078309044223"><ele>495.0</ele><time>2026-04-26T11:50:45.006Z</time></trkpt><trkpt lat="40.24909313226033" lon="9.180693311500962"><ele>495.0</ele><time>2026-04-26T11:50:46.006Z</time></trkpt><trkpt lat="40.2490345578703" lon="9.18061291699134"><ele>495.0</ele><time>2026-04-26T11:50:47.006Z</time></trkpt><trkpt lat="40.24898232627392" lon="9.18052481378383"><ele>495.0</ele><time>2026-04-26T11:50:48.006Z</time></trkpt><trkpt lat="40.24894181099114" lon="9.180429108565463"><ele>494.1666666666667</ele><time>2026-04-26T11:50:49.006Z</time></trkpt><trkpt lat="40.248896667851874" lon="9.180340818323227"><ele>493.33333333333337</ele><time>2026-04-26T11:50:50.006Z</time></trkpt><trkpt lat="40.24885415713456" lon="9.180262160144345"><ele>492.5</ele><time>2026-04-26T11:50:51.006Z</time></trkpt><trkpt lat="40.2487969022959" lon="9.18021423890976"><ele>491.6666666666667</ele><time>2026-04-26T11:50:52.006Z</time></trkpt><trkpt lat="40.24872865934654" lon="9.180182800084522"><ele>490.83333333333337</ele><time>2026-04-26T11:50:53.006Z</time></trkpt><trkpt lat="40.24866099109129" lon="9.180193056509351"><ele>490.0</ele><time>2026-04-26T11:50:54.006Z</time></trkpt><trkpt lat="40.248601652494884" lon="9.180302430535908"><ele>490.00000000000006</ele><time>2026-04-26T11:50:55.006Z</time></trkpt><trkpt lat="40.248535192026836" lon="9.180333648442266"><ele>490.0</ele><time>2026-04-26T11:50:56.006Z</time></trkpt><trkpt lat="40.24846434609476" lon="9.18034688277607"><ele>490.0</ele><time>2026-04-26T11:50:57.006Z</time></trkpt><trkpt lat="40.248394030113154" lon="9.180336769383082"><ele>490.0</ele><time>2026-04-26T11:50:58.006Z</time></trkpt><trkpt lat="40.248316551205534" lon="9.180302324214088"><ele>490.00000000000006</ele><time>2026-04-26T11:50:59.006Z</time></trkpt><trkpt lat="40.24824456596696" lon="9.180241078643363"><ele>490.0</ele><time>2026-04-26T11:51:00.006Z</time></trkpt><trkpt lat="40.24816702511204" lon="9.180161493619142"><ele>489.2</ele><time>2026-04-26T11:51:01.006Z</time></trkpt><trkpt lat="40.24809150981051" lon="9.180077700750283"><ele>488.4</ele><time>2026-04-26T11:51:02.006Z</time></trkpt><trkpt lat="40.248006159928124" lon="9.179996928590489"><ele>487.6</ele><time>2026-04-26T11:51:03.006Z</time></trkpt><trkpt lat="40.24792049908611" lon="9.17991934269373"><ele>486.8</ele><time>2026-04-26T11:51:04.006Z</time></trkpt><trkpt lat="40.24782992813116" lon="9.179838116889714"><ele>486.0</ele><time>2026-04-26T11:51:05.006Z</time></trkpt><trkpt lat="40.24772300252888" lon="9.179778089699107"><ele>486.0</ele><time>2026-04-26T11:51:06.006Z</time></trkpt><trkpt lat="40.247622102959944" lon="9.17971589604661"><ele>486.0</ele><time>2026-04-26T11:51:07.006Z</time></trkpt><trkpt lat="40.24752139054316" lon="9.179660724143123"><ele>486.0</ele><time>2026-04-26T11:51:08.006Z</time></trkpt><trkpt lat="40.24743009099277" lon="9.179607740462215"><ele>486.0</ele><time>2026-04-26T11:51:09.006Z</time></trkpt><trkpt lat="40.24735270360873" lon="9.179540644225613"><ele>486.0</ele><time>2026-04-26T11:51:10.006Z</time></trkpt><trkpt lat="40.247290778113246" lon="9.179465940882336"><ele>496.0</ele><time>2026-04-26T11:51:11.006Z</time></trkpt><trkpt lat="40.24724341931658" lon="9.179394199522106"><ele>496.0</ele><time>2026-04-26T11:51:12.006Z</time></trkpt><trkpt lat="40.24718985508818" lon="9.17933727478323"><ele>496.0</ele><time>2026-04-26T11:51:13.006Z</time></trkpt><trkpt lat="40.247098204968765" lon="9.179279316735766"><ele>496.0</ele><time>2026-04-26T11:51:15.006Z</time></trkpt></trkseg><trkseg><trkpt lat="40.24700780105976" lon="9.17927128573014"><ele>496.0</ele><time>2026-04-26T12:02:46.016Z</time></trkpt><trkpt lat="40.24693138754973" lon="9.17924560031103"><ele>496.0</ele><time>2026-04-26T12:02:50.016Z</time></trkpt><trkpt lat="40.24684628641609" lon="9.179223418592557"><ele>496.0</ele><time>2026-04-26T12:02:54.016Z</time></trkpt><trkpt lat="40.2467722368908" lon="9.179155563417632"><ele>496.0</ele><time>2026-04-26T12:02:56.016Z</time></trkpt><trkpt lat="40.24668745980843" lon="9.179070871340512"><ele>496.0</ele><time>2026-04-26T12:02:58.016Z</time></trkpt><trkpt lat="40.246606777824326" lon="9.178982996715103"><ele>496.8</ele><time>2026-04-26T12:03:00.016Z</time></trkpt><trkpt lat="40.24651810253257" lon="9.178894231619338"><ele>497.6</ele><time>2026-04-26T12:03:02.017Z</time></trkpt><trkpt lat="40.246433737423445" lon="9.178794984663044"><ele>498.4</ele><time>2026-04-26T12:03:04.017Z</time></trkpt><trkpt lat="40.24632718214533" lon="9.178713251477374"><ele>499.2</ele><time>2026-04-26T12:03:06.017Z</time></trkpt><trkpt lat="40.2462707049698" lon="9.178673786691625"><ele>500.0</ele><time>2026-04-26T12:03:07.017Z</time></trkpt><trkpt lat="40.246211356893774" lon="9.178634878094245"><ele>499.99999999999994</ele><time>2026-04-26T12:03:08.017Z</time></trkpt><trkpt lat="40.246151222131665" lon="9.178599379439989"><ele>500.0</ele><time>2026-04-26T12:03:09.017Z</time></trkpt><trkpt lat="40.246087309989434" lon="9.1785658796713"><ele>500.0</ele><time>2026-04-26T12:03:10.017Z</time></trkpt><trkpt lat="40.24600312720686" lon="9.178524656690664"><ele>500.0</ele><time>2026-04-26T12:03:11.017Z</time></trkpt><trkpt lat="40.245915818738204" lon="9.178483640405444"><ele>499.99999999999994</ele><time>2026-04-26T12:03:12.017Z</time></trkpt><trkpt lat="40.24582185631014" lon="9.178446633260739"><ele>500.0</ele><time>2026-04-26T12:03:13.017Z</time></trkpt><trkpt lat="40.245723384197255" lon="9.178407152818691"><ele>500.0</ele><time>2026-04-26T12:03:14.017Z</time></trkpt><trkpt lat="40.2456312120367" lon="9.178364043492126"><ele>500.0</ele><time>2026-04-26T12:03:15.017Z</time></trkpt><trkpt lat="40.245582312830884" lon="9.178269265104992"><ele>500.0</ele><time>2026-04-26T12:03:16.017Z</time></trkpt><trkpt lat="40.24557816222941" lon="9.17812250455024"><ele>500.0</ele><time>2026-04-26T12:03:17.017Z</time></trkpt><trkpt lat="40.24562002709245" lon="9.17799802177323"><ele>500.0</ele><time>2026-04-26T12:03:18.017Z</time></trkpt><trkpt lat="40.24571216708742" lon="9.177901510651099"><ele>499.0</ele><time>2026-04-26T12:03:19.017Z</time></trkpt><trkpt lat="40.24579630500847" lon="9.177784693321263"><ele>498.0</ele><time>2026-04-26T12:03:20.017Z</time></trkpt><trkpt lat="40.24583914559149" lon="9.177640736416997"><ele>497.0</ele><time>2026-04-26T12:03:21.017Z</time></trkpt><trkpt lat="40.24583504022475" lon="9.17746852467817"><ele>496.0</ele><time>2026-04-26T12:03:22.017Z</time></trkpt><trkpt lat="40.24577432170826" lon="9.177294904232632"><ele>494.0</ele><time>2026-04-26T12:03:23.017Z</time></trkpt><trkpt lat="40.24566783643111" lon="9.177140890387493"><ele>492.0</ele><time>2026-04-26T12:03:24.017Z</time></trkpt><trkpt lat="40.245580140701385" lon="9.176984647611977"><ele>490.0</ele><time>2026-04-26T12:03:25.017Z</time></trkpt><trkpt lat="40.2455189987788" lon="9.176809127354606"><ele>495.0</ele><time>2026-04-26T12:03:26.017Z</time></trkpt><trkpt lat="40.24544260043338" lon="9.17665374078385"><ele>500.0</ele><time>2026-04-26T12:03:27.017Z</time></trkpt><trkpt lat="40.245332747489485" lon="9.176528373197723"><ele>505.0</ele><time>2026-04-26T12:03:28.017Z</time></trkpt><trkpt lat="40.24519792393823" lon="9.176454988422448"><ele>510.0</ele><time>2026-04-26T12:03:29.017Z</time></trkpt><trkpt lat="40.2450805282865" lon="9.176387752653635"><ele>510.0</ele><time>2026-04-26T12:03:30.017Z</time></trkpt><trkpt lat="40.24499135814942" lon="9.17632632907489"><ele>510.0</ele><time>2026-04-26T12:03:31.017Z</time></trkpt><trkpt lat="40.24493707548811" lon="9.176207898340785"><ele>510.0</ele><time>2026-04-26T12:03:32.017Z</time></trkpt><trkpt lat="40.24490598172199" lon="9.176048057219319"><ele>510.0</ele><time>2026-04-26T12:03:33.017Z</time></trkpt><trkpt lat="40.24489421875696" lon="9.175872386324619"><ele>507.0</ele><time>2026-04-26T12:03:34.017Z</time></trkpt><trkpt lat="40.244901143428734" lon="9.175678810056398"><ele>504.0</ele><time>2026-04-26T12:03:35.017Z</time></trkpt><trkpt lat="40.24489395525522" lon="9.17547114520321"><ele>501.0</ele><time>2026-04-26T12:03:36.017Z</time></trkpt><trkpt lat="40.244898528363485" lon="9.175264547292558"><ele>501.0</ele><time>2026-04-26T12:03:37.017Z</time></trkpt><trkpt lat="40.24488848123593" lon="9.175084672485019"><ele>501.0</ele><time>2026-04-26T12:03:38.017Z</time></trkpt><trkpt lat="40.244867437987814" lon="9.174938063877898"><ele>501.0</ele><time>2026-04-26T12:03:39.017Z</time></trkpt><trkpt lat="40.24482505444978" lon="9.174801217137766"><ele>501.0</ele><time>2026-04-26T12:03:40.017Z</time></trkpt><trkpt lat="40.24475493444164" lon="9.174683076048067"><ele>503.5</ele><time>2026-04-26T12:03:41.017Z</time></trkpt><trkpt lat="40.24462546266863" lon="9.174681144413594"><ele>506.0</ele><time>2026-04-26T12:03:42.017Z</time></trkpt><trkpt lat="40.244517046258345" lon="9.17471445789525"><ele>508.5</ele><time>2026-04-26T12:03:43.017Z</time></trkpt><trkpt lat="40.24438704685035" lon="9.174787919054346"><ele>511.0</ele><time>2026-04-26T12:03:44.017Z</time></trkpt><trkpt lat="40.244243179232726" lon="9.174863691101248"><ele>511.0</ele><time>2026-04-26T12:03:45.017Z</time></trkpt><trkpt lat="40.24409616274864" lon="9.174938225730207"><ele>511.0</ele><time>2026-04-26T12:03:46.017Z</time></trkpt><trkpt lat="40.24395684994955" lon="9.175027494844462"><ele>511.0</ele><time>2026-04-26T12:03:47.017Z</time></trkpt><trkpt lat="40.24383024902921" lon="9.175153809867156"><ele>512.6666666666667</ele><time>2026-04-26T12:03:48.017Z</time></trkpt><trkpt lat="40.24371433670776" lon="9.175319630743092"><ele>514.3333333333334</ele><time>2026-04-26T12:03:49.017Z</time></trkpt><trkpt lat="40.243609705578784" lon="9.175504794928699"><ele>516.0</ele><time>2026-04-26T12:03:50.017Z</time></trkpt><trkpt lat="40.24350482799442" lon="9.175689130417314"><ele>516.0</ele><time>2026-04-26T12:03:51.017Z</time></trkpt><trkpt lat="40.24340830862055" lon="9.175868374290351"><ele>516.0</ele><time>2026-04-26T12:03:52.017Z</time></trkpt><trkpt lat="40.24334159733583" lon="9.17607035373559"><ele>516.0</ele><time>2026-04-26T12:03:53.017Z</time></trkpt><trkpt lat="40.243285252262886" lon="9.176280730260338"><ele>516.0</ele><time>2026-04-26T12:03:54.017Z</time></trkpt><trkpt lat="40.243252510677756" lon="9.176498465864556"><ele>516.0</ele><time>2026-04-26T12:03:55.017Z</time></trkpt><trkpt lat="40.24322099316063" lon="9.176707840193204"><ele>516.0</ele><time>2026-04-26T12:03:56.017Z</time></trkpt><trkpt lat="40.24312081742149" lon="9.17688267309999"><ele>517.3333333333334</ele><time>2026-04-26T12:03:57.017Z</time></trkpt><trkpt lat="40.242993505285725" lon="9.177019798144265"><ele>518.6666666666667</ele><time>2026-04-26T12:03:58.017Z</time></trkpt><trkpt lat="40.242851718111865" lon="9.177144658119522"><ele>520.0</ele><time>2026-04-26T12:03:59.017Z</time></trkpt><trkpt lat="40.24271879958957" lon="9.177280063921474"><ele>523.0</ele><time>2026-04-26T12:04:00.017Z</time></trkpt><trkpt lat="40.24260574846022" lon="9.177440551969244"><ele>526.0</ele><time>2026-04-26T12:04:01.017Z</time></trkpt><trkpt lat="40.2425136682923" lon="9.177627348977214"><ele>529.0</ele><time>2026-04-26T12:04:02.017Z</time></trkpt><trkpt lat="40.24244412699015" lon="9.177846933308924"><ele>529.0</ele><time>2026-04-26T12:04:03.017Z</time></trkpt><trkpt lat="40.24238457577053" lon="9.178065487627682"><ele>529.0</ele><time>2026-04-26T12:04:04.017Z</time></trkpt><trkpt lat="40.24229278809294" lon="9.17825410586452"><ele>529.0</ele><time>2026-04-26T12:04:05.017Z</time></trkpt><trkpt lat="40.24215807738973" lon="9.178418684647104"><ele>531.0</ele><time>2026-04-26T12:04:06.017Z</time></trkpt><trkpt lat="40.24201374021333" lon="9.178568406658902"><ele>533.0</ele><time>2026-04-26T12:04:07.017Z</time></trkpt><trkpt lat="40.24188695776031" lon="9.17871729470963"><ele>535.0</ele><time>2026-04-26T12:04:08.018Z</time></trkpt><trkpt lat="40.24175888867873" lon="9.178849113983356"><ele>535.0</ele><time>2026-04-26T12:04:09.018Z</time></trkpt><trkpt lat="40.24163919612915" lon="9.178943670147955"><ele>535.0</ele><time>2026-04-26T12:04:10.018Z</time></trkpt><trkpt lat="40.24151193275482" lon="9.178951394996087"><ele>535.0</ele><time>2026-04-26T12:04:11.018Z</time></trkpt><trkpt lat="40.24140077346102" lon="9.178861539576351"><ele>535.0</ele><time>2026-04-26T12:04:12.018Z</time></trkpt><trkpt lat="40.24135917894611" lon="9.178745898336551"><ele>539.75</ele><time>2026-04-26T12:04:13.018Z</time></trkpt><trkpt lat="40.24137545935636" lon="9.1786080875105"><ele>544.5</ele><time>2026-04-26T12:04:14.018Z</time></trkpt><trkpt lat="40.24140501582655" lon="9.178435019547814"><ele>549.25</ele><time>2026-04-26T12:04:15.018Z</time></trkpt><trkpt lat="40.241433613911724" lon="9.178211985367938"><ele>554.0</ele><time>2026-04-26T12:04:16.018Z</time></trkpt><trkpt lat="40.24146545219874" lon="9.177966891601054"><ele>551.6666666666666</ele><time>2026-04-26T12:04:17.018Z</time></trkpt><trkpt lat="40.24151139065393" lon="9.17772630299692"><ele>549.3333333333334</ele><time>2026-04-26T12:04:18.018Z</time></trkpt><trkpt lat="40.241589898256166" lon="9.177498887620319"><ele>547.0</ele><time>2026-04-26T12:04:19.018Z</time></trkpt><trkpt lat="40.24168468026314" lon="9.177275837687747"><ele>547.0</ele><time>2026-04-26T12:04:20.018Z</time></trkpt><trkpt lat="40.241788285142064" lon="9.17708992945606"><ele>547.0</ele><time>2026-04-26T12:04:21.029Z</time></trkpt><trkpt lat="40.24188260842698" lon="9.176940508668972"><ele>547.0</ele><time>2026-04-26T12:04:22.029Z</time></trkpt><trkpt lat="40.241950905813795" lon="9.176780436314782"><ele>547.0</ele><time>2026-04-26T12:04:23.029Z</time></trkpt><trkpt lat="40.24193990734665" lon="9.176603658517227"><ele>547.0</ele><time>2026-04-26T12:04:24.029Z</time></trkpt><trkpt lat="40.24184991770155" lon="9.176481749091156"><ele>547.0</ele><time>2026-04-26T12:04:25.029Z</time></trkpt><trkpt lat="40.241738364588294" lon="9.176372709358445"><ele>547.0</ele><time>2026-04-26T12:04:26.029Z</time></trkpt><trkpt lat="40.241606983594075" lon="9.176255958250723"><ele>546.75</ele><time>2026-04-26T12:04:27.029Z</time></trkpt><trkpt lat="40.24148129029214" lon="9.176118675163044"><ele>546.5</ele><time>2026-04-26T12:04:28.029Z</time></trkpt><trkpt lat="40.2414011003904" lon="9.175944342001015"><ele>546.25</ele><time>2026-04-26T12:04:29.03Z</time></trkpt><trkpt lat="40.24133901989297" lon="9.175802432565874"><ele>546.0</ele><time>2026-04-26T12:04:30.03Z</time></trkpt><trkpt lat="40.24135762371921" lon="9.175664607738467"><ele>550.25</ele><time>2026-04-26T12:04:31.03Z</time></trkpt><trkpt lat="40.24145064359276" lon="9.175581696187884"><ele>554.5</ele><time>2026-04-26T12:04:32.03Z</time></trkpt><trkpt lat="40.24157010223237" lon="9.175554105540057"><ele>558.75</ele><time>2026-04-26T12:04:33.03Z</time></trkpt><trkpt lat="40.24172786855001" lon="9.175520061065045"><ele>563.0</ele><time>2026-04-26T12:04:34.03Z</time></trkpt><trkpt lat="40.24189875800634" lon="9.175498317711773"><ele>563.0</ele><time>2026-04-26T12:04:35.03Z</time></trkpt><trkpt lat="40.24202203290105" lon="9.175421260395717"><ele>563.0</ele><time>2026-04-26T12:04:36.03Z</time></trkpt><trkpt lat="40.24210456752554" lon="9.175273684700489"><ele>563.0</ele><time>2026-04-26T12:04:37.03Z</time></trkpt><trkpt lat="40.242154343040895" lon="9.17508579421221"><ele>563.0</ele><time>2026-04-26T12:04:38.03Z</time></trkpt><trkpt lat="40.242194132621435" lon="9.174874089477658"><ele>568.3333333333333</ele><time>2026-04-26T12:04:39.03Z</time></trkpt><trkpt lat="40.242225546317286" lon="9.174604165969637"><ele>573.6666666666666</ele><time>2026-04-26T12:04:40.03Z</time></trkpt><trkpt lat="40.24226418618518" lon="9.17433778203732"><ele>579.0</ele><time>2026-04-26T12:04:41.03Z</time></trkpt><trkpt lat="40.24231016637314" lon="9.174062538776056"><ele>581.3333333333334</ele><time>2026-04-26T12:04:42.03Z</time></trkpt><trkpt lat="40.24232930258803" lon="9.173803683668604"><ele>583.6666666666667</ele><time>2026-04-26T12:04:43.03Z</time></trkpt><trkpt lat="40.242307393196334" lon="9.173585315682049"><ele>586.0</ele><time>2026-04-26T12:04:44.03Z</time></trkpt><trkpt lat="40.24227602604333" lon="9.173378226666415"><ele>579.3333333333334</ele><time>2026-04-26T12:04:45.03Z</time></trkpt><trkpt lat="40.242342934245904" lon="9.173166642861844"><ele>572.6666666666666</ele><time>2026-04-26T12:04:46.03Z</time></trkpt><trkpt lat="40.24252355041034" lon="9.17303393456778"><ele>566.0</ele><time>2026-04-26T12:04:47.03Z</time></trkpt><trkpt lat="40.24266481941844" lon="9.17293204005675"><ele>566.0</ele><time>2026-04-26T12:04:48.03Z</time></trkpt><trkpt lat="40.24278263972816" lon="9.17282690768569"><ele>566.0</ele><time>2026-04-26T12:04:49.03Z</time></trkpt><trkpt lat="40.24279979193171" lon="9.172732556495937"><ele>566.0</ele><time>2026-04-26T12:04:50.03Z</time></trkpt><trkpt lat="40.242760644518214" lon="9.17264453085589"><ele>566.0</ele><time>2026-04-26T12:04:51.03Z</time></trkpt><trkpt lat="40.242711835079255" lon="9.172496715642882"><ele>566.0</ele><time>2026-04-26T12:04:52.03Z</time></trkpt><trkpt lat="40.242634529358895" lon="9.172301265924519"><ele>566.6666666666666</ele><time>2026-04-26T12:04:53.03Z</time></trkpt><trkpt lat="40.24258250088692" lon="9.172043416811793"><ele>567.3333333333334</ele><time>2026-04-26T12:04:54.03Z</time></trkpt><trkpt lat="40.24258861423464" lon="9.171778618097733"><ele>568.0</ele><time>2026-04-26T12:04:55.03Z</time></trkpt><trkpt lat="40.24260691873444" lon="9.171536862153081"><ele>567.3333333333334</ele><time>2026-04-26T12:04:56.03Z</time></trkpt><trkpt lat="40.24259531407529" lon="9.171334690121318"><ele>566.6666666666666</ele><time>2026-04-26T12:04:57.03Z</time></trkpt><trkpt lat="40.24255012435701" lon="9.171142934457908"><ele>566.0</ele><time>2026-04-26T12:04:58.03Z</time></trkpt><trkpt lat="40.24244748886138" lon="9.17090973256484"><ele>566.0</ele><time>2026-04-26T12:04:59.03Z</time></trkpt><trkpt lat="40.242305103416264" lon="9.170691477461505"><ele>566.0</ele><time>2026-04-26T12:05:00.03Z</time></trkpt><trkpt lat="40.24219918085198" lon="9.170460360145222"><ele>566.0</ele><time>2026-04-26T12:05:01.03Z</time></trkpt><trkpt lat="40.242110505218676" lon="9.170214347365379"><ele>571.3333333333333</ele><time>2026-04-26T12:05:02.03Z</time></trkpt><trkpt lat="40.242062654768105" lon="9.169965628270893"><ele>576.6666666666666</ele><time>2026-04-26T12:05:03.03Z</time></trkpt><trkpt lat="40.24206758622023" lon="9.16972454745118"><ele>582.0</ele><time>2026-04-26T12:05:04.03Z</time></trkpt><trkpt lat="40.2421200790825" lon="9.169499150036465"><ele>582.0</ele><time>2026-04-26T12:05:05.03Z</time></trkpt><trkpt lat="40.24219171776029" lon="9.169312528075324"><ele>582.0</ele><time>2026-04-26T12:05:06.031Z</time></trkpt><trkpt lat="40.242223057242086" lon="9.169162694703344"><ele>582.0</ele><time>2026-04-26T12:05:07.031Z</time></trkpt><trkpt lat="40.24216482373825" lon="9.16902190183906"><ele>582.0</ele><time>2026-04-26T12:05:08.031Z</time></trkpt><trkpt lat="40.242049682689036" lon="9.168928758596675"><ele>578.6666666666666</ele><time>2026-04-26T12:05:09.031Z</time></trkpt><trkpt lat="40.2418678041594" lon="9.168893255978835"><ele>575.3333333333333</ele><time>2026-04-26T12:05:10.031Z</time></trkpt><trkpt lat="40.24166746694432" lon="9.168918711855909"><ele>572.0</ele><time>2026-04-26T12:05:11.031Z</time></trkpt><trkpt lat="40.24146140500679" lon="9.168902491514954"><ele>572.0</ele><time>2026-04-26T12:05:12.031Z</time></trkpt><trkpt lat="40.24124670990303" lon="9.168879593454852"><ele>572.0</ele><time>2026-04-26T12:05:13.031Z</time></trkpt><trkpt lat="40.241032237882415" lon="9.168839598530806"><ele>572.0</ele><time>2026-04-26T12:05:14.031Z</time></trkpt><trkpt lat="40.240824320956435" lon="9.168759897714137"><ele>572.0</ele><time>2026-04-26T12:05:15.032Z</time></trkpt><trkpt lat="40.2406481271832" lon="9.168610330519915"><ele>572.0</ele><time>2026-04-26T12:05:16.031Z</time></trkpt><trkpt lat="40.24046933641708" lon="9.168454021317485"><ele>572.0</ele><time>2026-04-26T12:05:17.031Z</time></trkpt><trkpt lat="40.240258887769855" lon="9.168352055762664"><ele>571.3333333333333</ele><time>2026-04-26T12:05:18.031Z</time></trkpt><trkpt lat="40.24004504336336" lon="9.168267750709138"><ele>570.6666666666666</ele><time>2026-04-26T12:05:19.031Z</time></trkpt><trkpt lat="40.239842833083294" lon="9.168164547582855"><ele>570.0</ele><time>2026-04-26T12:05:20.031Z</time></trkpt><trkpt lat="40.23966666004832" lon="9.168027436704715"><ele>581.0</ele><time>2026-04-26T12:05:21.031Z</time></trkpt><trkpt lat="40.23950964552023" lon="9.167887001769719"><ele>592.0</ele><time>2026-04-26T12:05:22.031Z</time></trkpt><trkpt lat="40.23938179563974" lon="9.167759270974141"><ele>603.0</ele><time>2026-04-26T12:05:23.031Z</time></trkpt><trkpt lat="40.239304514202146" lon="9.167609985816679"><ele>603.0</ele><time>2026-04-26T12:05:24.031Z</time></trkpt><trkpt lat="40.2393029681596" lon="9.167404544863292"><ele>603.0</ele><time>2026-04-26T12:05:25.031Z</time></trkpt><trkpt lat="40.239296813542474" lon="9.16716198465258"><ele>603.0</ele><time>2026-04-26T12:05:26.031Z</time></trkpt><trkpt lat="40.23929018456195" lon="9.166892299419263"><ele>603.0</ele><time>2026-04-26T12:05:27.031Z</time></trkpt><trkpt lat="40.239289455771384" lon="9.16661407200927"><ele>603.0</ele><time>2026-04-26T12:05:28.031Z</time></trkpt><trkpt lat="40.23932642826053" lon="9.166339111243042"><ele>603.0</ele><time>2026-04-26T12:05:29.031Z</time></trkpt><trkpt lat="40.23934143351477" lon="9.166058787755825"><ele>603.6666666666666</ele><time>2026-04-26T12:05:30.031Z</time></trkpt><trkpt lat="40.23928844193953" lon="9.165791529572553"><ele>604.3333333333333</ele><time>2026-04-26T12:05:31.031Z</time></trkpt><trkpt lat="40.239238969585216" lon="9.165557304682745"><ele>605.0</ele><time>2026-04-26T12:05:32.031Z</time></trkpt><trkpt lat="40.2392492355643" lon="9.165351402652767"><ele>606.3333333333333</ele><time>2026-04-26T12:05:33.031Z</time></trkpt><trkpt lat="40.239299883229634" lon="9.165138163645796"><ele>607.6666666666666</ele><time>2026-04-26T12:05:34.031Z</time></trkpt><trkpt lat="40.23937710157822" lon="9.164902669758389"><ele>609.0</ele><time>2026-04-26T12:05:35.031Z</time></trkpt><trkpt lat="40.23945889928924" lon="9.164645834370747"><ele>613.3333333333334</ele><time>2026-04-26T12:05:36.032Z</time></trkpt><trkpt lat="40.23950741792891" lon="9.164376188870524"><ele>617.6666666666667</ele><time>2026-04-26T12:05:37.032Z</time></trkpt><trkpt lat="40.23951033555806" lon="9.164120525495735"><ele>622.0</ele><time>2026-04-26T12:05:38.032Z</time></trkpt><trkpt lat="40.239550491316606" lon="9.163886812501255"><ele>624.6666666666667</ele><time>2026-04-26T12:05:39.032Z</time></trkpt><trkpt lat="40.23962699223735" lon="9.163646924720174"><ele>627.3333333333334</ele><time>2026-04-26T12:05:40.032Z</time></trkpt><trkpt lat="40.239760735319614" lon="9.163433635514071"><ele>630.0</ele><time>2026-04-26T12:05:41.032Z</time></trkpt><trkpt lat="40.2398932507767" lon="9.163206263416852"><ele>625.3333333333334</ele><time>2026-04-26T12:05:42.032Z</time></trkpt><trkpt lat="40.24004152720031" lon="9.16299943204101"><ele>620.6666666666667</ele><time>2026-04-26T12:05:43.032Z</time></trkpt><trkpt lat="40.240168270706384" lon="9.16280657206433"><ele>616.0</ele><time>2026-04-26T12:05:44.032Z</time></trkpt><trkpt lat="40.24026843836382" lon="9.16261446630636"><ele>616.0</ele><time>2026-04-26T12:05:45.032Z</time></trkpt><trkpt lat="40.240331683378265" lon="9.162415238393132"><ele>616.0</ele><time>2026-04-26T12:05:46.032Z</time></trkpt><trkpt lat="40.24032326271704" lon="9.162209555188142"><ele>616.0</ele><time>2026-04-26T12:05:47.032Z</time></trkpt><trkpt lat="40.24026230967428" lon="9.161994867971062"><ele>612.6666666666667</ele><time>2026-04-26T12:05:48.032Z</time></trkpt><trkpt lat="40.24015888868395" lon="9.161774301259294"><ele>609.3333333333334</ele><time>2026-04-26T12:05:49.032Z</time></trkpt><trkpt lat="40.240032787503" lon="9.161546890949463"><ele>606.0</ele><time>2026-04-26T12:05:50.032Z</time></trkpt><trkpt lat="40.23989341123878" lon="9.161323419161636"><ele>610.5</ele><time>2026-04-26T12:05:51.032Z</time></trkpt><trkpt lat="40.23972829076037" lon="9.161113729980245"><ele>615.0</ele><time>2026-04-26T12:05:52.032Z</time></trkpt><trkpt lat="40.2395370927559" lon="9.160922335271506"><ele>615.0</ele><time>2026-04-26T12:05:53.032Z</time></trkpt><trkpt lat="40.23934374958983" lon="9.160743075920854"><ele>615.0</ele><time>2026-04-26T12:05:54.032Z</time></trkpt><trkpt lat="40.23917702383936" lon="9.160535842932878"><ele>616.3333333333334</ele><time>2026-04-26T12:05:55.032Z</time></trkpt><trkpt lat="40.23903231575748" lon="9.160312904022103"><ele>617.6666666666667</ele><time>2026-04-26T12:05:56.032Z</time></trkpt><trkpt lat="40.238898938945724" lon="9.160091298289252"><ele>619.0</ele><time>2026-04-26T12:05:57.032Z</time></trkpt><trkpt lat="40.23876182632689" lon="9.159872192598355"><ele>616.3333333333334</ele><time>2026-04-26T12:05:58.032Z</time></trkpt><trkpt lat="40.23863915214682" lon="9.159674431576537"><ele>613.6666666666666</ele><time>2026-04-26T12:05:59.032Z</time></trkpt><trkpt lat="40.23853198758122" lon="9.159502072343354"><ele>611.0</ele><time>2026-04-26T12:06:00.032Z</time></trkpt><trkpt lat="40.23843786084369" lon="9.159359646417204"><ele>611.0</ele><time>2026-04-26T12:06:01.032Z</time></trkpt><trkpt lat="40.23834006833906" lon="9.159269826613423"><ele>611.0</ele><time>2026-04-26T12:06:02.032Z</time></trkpt><trkpt lat="40.23822568537086" lon="9.15925249024544"><ele>611.0</ele><time>2026-04-26T12:06:03.032Z</time></trkpt><trkpt lat="40.23811112509027" lon="9.15930469095542"><ele>611.0</ele><time>2026-04-26T12:06:04.032Z</time></trkpt><trkpt lat="40.23801845435083" lon="9.159415497368881"><ele>611.5</ele><time>2026-04-26T12:06:05.032Z</time></trkpt><trkpt lat="40.2379644071831" lon="9.159572988648158"><ele>612.0</ele><time>2026-04-26T12:06:06.032Z</time></trkpt><trkpt lat="40.23793205410553" lon="9.159758024087141"><ele>612.5</ele><time>2026-04-26T12:06:07.032Z</time></trkpt><trkpt lat="40.23787628500902" lon="9.159936468803426"><ele>613.0</ele><time>2026-04-26T12:06:08.032Z</time></trkpt><trkpt lat="40.23781030594595" lon="9.160101242959838"><ele>613.0</ele><time>2026-04-26T12:06:09.032Z</time></trkpt><trkpt lat="40.23772233091645" lon="9.160228199633995"><ele>613.0</ele><time>2026-04-26T12:06:10.032Z</time></trkpt><trkpt lat="40.23761369488949" lon="9.160317253393343"><ele>613.0</ele><time>2026-04-26T12:06:11.032Z</time></trkpt><trkpt lat="40.23748828081933" lon="9.16036680289207"><ele>613.0</ele><time>2026-04-26T12:06:12.032Z</time></trkpt><trkpt lat="40.23735291262668" lon="9.160377562018388"><ele>611.5</ele><time>2026-04-26T12:06:13.032Z</time></trkpt><trkpt lat="40.237222685647076" lon="9.16034794475305"><ele>610.0</ele><time>2026-04-26T12:06:14.032Z</time></trkpt><trkpt lat="40.23709575846119" lon="9.160313235803828"><ele>608.5</ele><time>2026-04-26T12:06:15.032Z</time></trkpt><trkpt lat="40.23697613001814" lon="9.160310276385557"><ele>607.0</ele><time>2026-04-26T12:06:16.032Z</time></trkpt><trkpt lat="40.23685648694662" lon="9.160367558184687"><ele>607.0</ele><time>2026-04-26T12:06:17.032Z</time></trkpt><trkpt lat="40.23676196800887" lon="9.160501784596104"><ele>607.0</ele><time>2026-04-26T12:06:18.032Z</time></trkpt><trkpt lat="40.23668619846996" lon="9.160667385379035"><ele>607.0</ele><time>2026-04-26T12:06:19.032Z</time></trkpt><trkpt lat="40.23661417530186" lon="9.160843195119108"><ele>607.0</ele><time>2026-04-26T12:06:20.032Z</time></trkpt><trkpt lat="40.236538340732615" lon="9.161033208940607"><ele>606.0</ele><time>2026-04-26T12:06:21.032Z</time></trkpt><trkpt lat="40.23645855513778" lon="9.161233122629818"><ele>605.0</ele><time>2026-04-26T12:06:22.032Z</time></trkpt><trkpt lat="40.23637817310339" lon="9.161416888442718"><ele>604.0</ele><time>2026-04-26T12:06:23.032Z</time></trkpt><trkpt lat="40.23630228362586" lon="9.161563611222205"><ele>607.2</ele><time>2026-04-26T12:06:24.032Z</time></trkpt><trkpt lat="40.236212064396604" lon="9.161637092334393"><ele>610.4</ele><time>2026-04-26T12:06:25.032Z</time></trkpt><trkpt lat="40.23611625833133" lon="9.16168990603906"><ele>613.6</ele><time>2026-04-26T12:06:26.032Z</time></trkpt><trkpt lat="40.23602119606768" lon="9.16162792203497"><ele>616.8</ele><time>2026-04-26T12:06:27.032Z</time></trkpt><trkpt lat="40.23590706517364" lon="9.161581509824245"><ele>620.0</ele><time>2026-04-26T12:06:28.032Z</time></trkpt><trkpt lat="40.235785799464075" lon="9.161544516573953"><ele>620.0</ele><time>2026-04-26T12:06:29.032Z</time></trkpt><trkpt lat="40.235666749691084" lon="9.161538299279274"><ele>620.0</ele><time>2026-04-26T12:06:30.032Z</time></trkpt><trkpt lat="40.23555425738996" lon="9.161606310358291"><ele>620.0</ele><time>2026-04-26T12:06:31.032Z</time></trkpt><trkpt lat="40.2354555433338" lon="9.161707029242471"><ele>620.0</ele><time>2026-04-26T12:06:32.032Z</time></trkpt><trkpt lat="40.235355302498874" lon="9.161777678451719"><ele>618.25</ele><time>2026-04-26T12:06:33.032Z</time></trkpt><trkpt lat="40.235244400883474" lon="9.161811105629731"><ele>616.5</ele><time>2026-04-26T12:06:34.032Z</time></trkpt><trkpt lat="40.23511947050639" lon="9.16178934384937"><ele>614.75</ele><time>2026-04-26T12:06:35.032Z</time></trkpt><trkpt lat="40.23500029016526" lon="9.161755053582521"><ele>613.0</ele><time>2026-04-26T12:06:36.032Z</time></trkpt><trkpt lat="40.23487259645116" lon="9.161750538901376"><ele>611.0</ele><time>2026-04-26T12:06:37.032Z</time></trkpt><trkpt lat="40.234737445214805" lon="9.161762044747803"><ele>609.0</ele><time>2026-04-26T12:06:38.032Z</time></trkpt><trkpt lat="40.23460807744833" lon="9.161799074739099"><ele>607.0</ele><time>2026-04-26T12:06:39.032Z</time></trkpt><trkpt lat="40.234473077492034" lon="9.161857543690004"><ele>605.0</ele><time>2026-04-26T12:06:40.032Z</time></trkpt><trkpt lat="40.23435555230467" lon="9.161934827089604"><ele>605.0</ele><time>2026-04-26T12:06:41.032Z</time></trkpt><trkpt lat="40.23422992418428" lon="9.161986244488935"><ele>605.0</ele><time>2026-04-26T12:06:42.032Z</time></trkpt><trkpt lat="40.23410316843702" lon="9.162004883914781"><ele>605.0</ele><time>2026-04-26T12:06:43.032Z</time></trkpt><trkpt lat="40.23398238160915" lon="9.16202287361812"><ele>605.0</ele><time>2026-04-26T12:06:44.033Z</time></trkpt><trkpt lat="40.23387271543148" lon="9.162083444826994"><ele>604.0</ele><time>2026-04-26T12:06:45.033Z</time></trkpt><trkpt lat="40.23378723417718" lon="9.162195574242226"><ele>603.0</ele><time>2026-04-26T12:06:46.033Z</time></trkpt><trkpt lat="40.23370670208125" lon="9.162309196761104"><ele>602.0</ele><time>2026-04-26T12:06:47.033Z</time></trkpt><trkpt lat="40.23360948484831" lon="9.162386609530298"><ele>601.0</ele><time>2026-04-26T12:06:48.033Z</time></trkpt><trkpt lat="40.23349165476413" lon="9.16240908062033"><ele>601.0</ele><time>2026-04-26T12:06:49.033Z</time></trkpt><trkpt lat="40.233365280967305" lon="9.162383554628047"><ele>601.0</ele><time>2026-04-26T12:06:50.033Z</time></trkpt><trkpt lat="40.2332502550954" lon="9.162346763888888"><ele>601.0</ele><time>2026-04-26T12:06:51.033Z</time></trkpt><trkpt lat="40.233133823584794" lon="9.162337000621072"><ele>601.0</ele><time>2026-04-26T12:06:52.033Z</time></trkpt><trkpt lat="40.23301978247892" lon="9.162373022627198"><ele>602.5</ele><time>2026-04-26T12:06:53.033Z</time></trkpt><trkpt lat="40.23291637246865" lon="9.162453169162017"><ele>604.0</ele><time>2026-04-26T12:06:54.033Z</time></trkpt><trkpt lat="40.23281324805556" lon="9.162544495730197"><ele>605.5</ele><time>2026-04-26T12:06:55.033Z</time></trkpt><trkpt lat="40.232712190547595" lon="9.162635553243312"><ele>607.0</ele><time>2026-04-26T12:06:56.033Z</time></trkpt><trkpt lat="40.23260788349973" lon="9.16272165633828"><ele>607.0</ele><time>2026-04-26T12:06:57.033Z</time></trkpt><trkpt lat="40.2325076370728" lon="9.162800773376192"><ele>607.0</ele><time>2026-04-26T12:06:58.033Z</time></trkpt><trkpt lat="40.23240970255046" lon="9.162876952964988"><ele>607.0</ele><time>2026-04-26T12:06:59.033Z</time></trkpt><trkpt lat="40.232309413481076" lon="9.162966460808539"><ele>607.0</ele><time>2026-04-26T12:07:00.033Z</time></trkpt><trkpt lat="40.232200283472345" lon="9.163027107804279"><ele>605.5</ele><time>2026-04-26T12:07:01.033Z</time></trkpt><trkpt lat="40.2320788591827" lon="9.163041483000613"><ele>604.0</ele><time>2026-04-26T12:07:02.033Z</time></trkpt><trkpt lat="40.231961633839866" lon="9.16302096478813"><ele>602.5</ele><time>2026-04-26T12:07:03.033Z</time></trkpt><trkpt lat="40.231846148582186" lon="9.162985069905659"><ele>601.0</ele><time>2026-04-26T12:07:04.033Z</time></trkpt><trkpt lat="40.23173102344653" lon="9.162964399376072"><ele>601.0</ele><time>2026-04-26T12:07:05.033Z</time></trkpt><trkpt lat="40.23161581373336" lon="9.16297024245211"><ele>601.0</ele><time>2026-04-26T12:07:06.033Z</time></trkpt><trkpt lat="40.23150030884646" lon="9.162991398355965"><ele>601.0</ele><time>2026-04-26T12:07:07.033Z</time></trkpt><trkpt lat="40.2313829573899" lon="9.163016988053405"><ele>601.0</ele><time>2026-04-26T12:07:08.033Z</time></trkpt><trkpt lat="40.23124578939092" lon="9.163047675197575"><ele>601.25</ele><time>2026-04-26T12:07:09.033Z</time></trkpt><trkpt lat="40.23111628913006" lon="9.163084145296596"><ele>601.5</ele><time>2026-04-26T12:07:10.033Z</time></trkpt><trkpt lat="40.23097929064425" lon="9.163121235621631"><ele>601.75</ele><time>2026-04-26T12:07:11.033Z</time></trkpt><trkpt lat="40.2308502915336" lon="9.163162473808674"><ele>602.0</ele><time>2026-04-26T12:07:12.034Z</time></trkpt><trkpt lat="40.23072830586798" lon="9.163197231841814"><ele>603.25</ele><time>2026-04-26T12:07:13.033Z</time></trkpt><trkpt lat="40.230606987208986" lon="9.1632360708675"><ele>604.5</ele><time>2026-04-26T12:07:14.033Z</time></trkpt><trkpt lat="40.230487305185505" lon="9.163270242359713"><ele>605.75</ele><time>2026-04-26T12:07:15.034Z</time></trkpt><trkpt lat="40.23037548224995" lon="9.163300539769763"><ele>607.0</ele><time>2026-04-26T12:07:16.033Z</time></trkpt><trkpt lat="40.23025703749863" lon="9.16333198931259"><ele>607.0</ele><time>2026-04-26T12:07:17.033Z</time></trkpt><trkpt lat="40.23013691607378" lon="9.16336030213937"><ele>607.0</ele><time>2026-04-26T12:07:18.034Z</time></trkpt><trkpt lat="40.230014403939876" lon="9.163387551585132"><ele>607.0</ele><time>2026-04-26T12:07:19.033Z</time></trkpt><trkpt lat="40.22989516946245" lon="9.163416501212128"><ele>607.0</ele><time>2026-04-26T12:07:20.033Z</time></trkpt><trkpt lat="40.229780138485175" lon="9.163436588006814"><ele>605.25</ele><time>2026-04-26T12:07:21.033Z</time></trkpt><trkpt lat="40.229660912461" lon="9.163460423589783"><ele>603.5</ele><time>2026-04-26T12:07:22.033Z</time></trkpt><trkpt lat="40.2295378347386" lon="9.163489056610421"><ele>601.75</ele><time>2026-04-26T12:07:23.033Z</time></trkpt><trkpt lat="40.2294271870676" lon="9.163514940721328"><ele>600.0</ele><time>2026-04-26T12:07:24.033Z</time></trkpt><trkpt lat="40.22932028897631" lon="9.163550280841246"><ele>600.0</ele><time>2026-04-26T12:07:25.034Z</time></trkpt><trkpt lat="40.22921824919445" lon="9.16357794414639"><ele>600.0</ele><time>2026-04-26T12:07:26.034Z</time></trkpt><trkpt lat="40.22911405374858" lon="9.163609985076835"><ele>600.0</ele><time>2026-04-26T12:07:27.034Z</time></trkpt><trkpt lat="40.229020859078304" lon="9.163644962959088"><ele>600.0</ele><time>2026-04-26T12:07:28.034Z</time></trkpt><trkpt lat="40.22895065800322" lon="9.163724283595025"><ele>600.0</ele><time>2026-04-26T12:07:29.034Z</time></trkpt><trkpt lat="40.22888809227694" lon="9.163866409697313"><ele>600.0</ele><time>2026-04-26T12:07:30.034Z</time></trkpt><trkpt lat="40.228822155077445" lon="9.163977566782375"><ele>600.0</ele><time>2026-04-26T12:07:31.034Z</time></trkpt><trkpt lat="40.22876872434586" lon="9.164082195667444"><ele>600.0</ele><time>2026-04-26T12:07:32.034Z</time></trkpt><trkpt lat="40.228697936646036" lon="9.164156308671416"><ele>600.0</ele><time>2026-04-26T12:07:33.034Z</time></trkpt><trkpt lat="40.22861198973753" lon="9.164244993005548"><ele>600.0</ele><time>2026-04-26T12:07:34.034Z</time></trkpt><trkpt lat="40.22853019660701" lon="9.164327986950884"><ele>600.0</ele><time>2026-04-26T12:07:35.034Z</time></trkpt><trkpt lat="40.22844599501141" lon="9.164413421295508"><ele>600.0</ele><time>2026-04-26T12:07:36.034Z</time></trkpt><trkpt lat="40.228365264278644" lon="9.164490641515266"><ele>600.0</ele><time>2026-04-26T12:07:37.034Z</time></trkpt><trkpt lat="40.22828276567934" lon="9.16456100663136"><ele>600.0</ele><time>2026-04-26T12:07:38.034Z</time></trkpt><trkpt lat="40.22820154227059" lon="9.164634718972563"><ele>600.0</ele><time>2026-04-26T12:07:39.034Z</time></trkpt><trkpt lat="40.22811764361227" lon="9.164710856145495"><ele>599.4</ele><time>2026-04-26T12:07:40.034Z</time></trkpt><trkpt lat="40.22804967259206" lon="9.16482110771633"><ele>598.8</ele><time>2026-04-26T12:07:41.034Z</time></trkpt><trkpt lat="40.227955987876356" lon="9.164900697553406"><ele>598.2</ele><time>2026-04-26T12:07:42.034Z</time></trkpt><trkpt lat="40.22786326124534" lon="9.164977642066992"><ele>597.6</ele><time>2026-04-26T12:07:43.034Z</time></trkpt><trkpt lat="40.22777917943254" lon="9.165053417392768"><ele>597.0</ele><time>2026-04-26T12:07:44.034Z</time></trkpt><trkpt lat="40.22768344934931" lon="9.165127501064427"><ele>597.0</ele><time>2026-04-26T12:07:45.034Z</time></trkpt><trkpt lat="40.22758378395246" lon="9.16521238440448"><ele>597.0</ele><time>2026-04-26T12:07:46.034Z</time></trkpt><trkpt lat="40.227496418978525" lon="9.165309803950713"><ele>597.0</ele><time>2026-04-26T12:07:47.034Z</time></trkpt><trkpt lat="40.2274023997537" lon="9.165389175780536"><ele>597.0</ele><time>2026-04-26T12:07:48.034Z</time></trkpt><trkpt lat="40.22730922710173" lon="9.165485896347846"><ele>596.2</ele><time>2026-04-26T12:07:49.034Z</time></trkpt><trkpt lat="40.22722605786528" lon="9.165589083254195"><ele>595.4000000000001</ele><time>2026-04-26T12:07:50.034Z</time></trkpt><trkpt lat="40.227146227613076" lon="9.165689042355535"><ele>594.5999999999999</ele><time>2026-04-26T12:07:51.034Z</time></trkpt><trkpt lat="40.227067630344074" lon="9.165779691859807"><ele>593.8</ele><time>2026-04-26T12:07:52.034Z</time></trkpt><trkpt lat="40.226994366721236" lon="9.165868260565166"><ele>593.0</ele><time>2026-04-26T12:07:53.034Z</time></trkpt><trkpt lat="40.22690019313056" lon="9.165913933541013"><ele>593.0</ele><time>2026-04-26T12:07:54.034Z</time></trkpt><trkpt lat="40.22680498406064" lon="9.165946957805767"><ele>593.0</ele><time>2026-04-26T12:07:55.034Z</time></trkpt><trkpt lat="40.226706370956364" lon="9.165982921086455"><ele>593.0</ele><time>2026-04-26T12:07:56.034Z</time></trkpt><trkpt lat="40.22660479039337" lon="9.166042049286297"><ele>593.0</ele><time>2026-04-26T12:07:57.034Z</time></trkpt><trkpt lat="40.226510707430826" lon="9.166126703426835"><ele>593.0</ele><time>2026-04-26T12:07:58.034Z</time></trkpt><trkpt lat="40.22642585143405" lon="9.166236605158817"><ele>594.0</ele><time>2026-04-26T12:07:59.034Z</time></trkpt><trkpt lat="40.226359632665925" lon="9.166363781684817"><ele>595.0</ele><time>2026-04-26T12:08:00.034Z</time></trkpt><trkpt lat="40.226299148305486" lon="9.166498080588893"><ele>596.0</ele><time>2026-04-26T12:08:01.034Z</time></trkpt><trkpt lat="40.22621435418204" lon="9.166614779383286"><ele>597.0</ele><time>2026-04-26T12:08:02.034Z</time></trkpt><trkpt lat="40.22614965286831" lon="9.166734411369998"><ele>597.0</ele><time>2026-04-26T12:08:03.034Z</time></trkpt><trkpt lat="40.22607159878506" lon="9.16680792808071"><ele>597.0</ele><time>2026-04-26T12:08:04.034Z</time></trkpt><trkpt lat="40.22600008704586" lon="9.166821709743495"><ele>597.0</ele><time>2026-04-26T12:08:05.034Z</time></trkpt><trkpt lat="40.225905609506796" lon="9.166745017719943"><ele>597.0</ele><time>2026-04-26T12:08:06.034Z</time></trkpt><trkpt lat="40.22582817930663" lon="9.16665244414948"><ele>597.0</ele><time>2026-04-26T12:08:07.034Z</time></trkpt><trkpt lat="40.22580728266178" lon="9.166521911524157"><ele>597.0</ele><time>2026-04-26T12:08:08.034Z</time></trkpt><trkpt lat="40.22582563906351" lon="9.166383327014762"><ele>597.0</ele><time>2026-04-26T12:08:09.034Z</time></trkpt><trkpt lat="40.22586760532848" lon="9.16623945646478"><ele>597.0</ele><time>2026-04-26T12:08:10.034Z</time></trkpt><trkpt lat="40.225924271261775" lon="9.166104270226107"><ele>597.0</ele><time>2026-04-26T12:08:11.034Z</time></trkpt><trkpt lat="40.22595859377597" lon="9.165967130583532"><ele>597.0</ele><time>2026-04-26T12:08:12.034Z</time></trkpt><trkpt lat="40.22600669984735" lon="9.16583327484732"><ele>597.0</ele><time>2026-04-26T12:08:13.034Z</time></trkpt><trkpt lat="40.226057799047126" lon="9.165698942378217"><ele>597.0</ele><time>2026-04-26T12:08:14.034Z</time></trkpt><trkpt lat="40.22610314681131" lon="9.165556902828243"><ele>597.0</ele><time>2026-04-26T12:08:15.034Z</time></trkpt><trkpt lat="40.226139168361804" lon="9.165425634511317"><ele>597.0</ele><time>2026-04-26T12:08:16.034Z</time></trkpt><trkpt lat="40.226147226593746" lon="9.165301383757583"><ele>597.0</ele><time>2026-04-26T12:08:17.034Z</time></trkpt><trkpt lat="40.22611685845208" lon="9.165165459327133"><ele>597.0</ele><time>2026-04-26T12:08:18.034Z</time></trkpt><trkpt lat="40.22604912910932" lon="9.165043621825697"><ele>597.0</ele><time>2026-04-26T12:08:19.034Z</time></trkpt><trkpt lat="40.22595405874862" lon="9.164950505234417"><ele>597.0</ele><time>2026-04-26T12:08:20.034Z</time></trkpt><trkpt lat="40.225853897898574" lon="9.164862721202992"><ele>594.75</ele><time>2026-04-26T12:08:21.034Z</time></trkpt><trkpt lat="40.22576097204455" lon="9.164758172968432"><ele>592.5</ele><time>2026-04-26T12:08:22.034Z</time></trkpt><trkpt lat="40.2256816943371" lon="9.164638487173507"><ele>590.25</ele><time>2026-04-26T12:08:23.034Z</time></trkpt><trkpt lat="40.22561398227746" lon="9.16449102647891"><ele>588.0</ele><time>2026-04-26T12:08:24.034Z</time></trkpt><trkpt lat="40.225548160844376" lon="9.164333222613283"><ele>589.5</ele><time>2026-04-26T12:08:25.034Z</time></trkpt><trkpt lat="40.22548642397605" lon="9.164165628340188"><ele>591.0</ele><time>2026-04-26T12:08:26.034Z</time></trkpt><trkpt lat="40.22542025154773" lon="9.164003287043016"><ele>592.5</ele><time>2026-04-26T12:08:27.035Z</time></trkpt><trkpt lat="40.22534683614544" lon="9.163840871149553"><ele>594.0</ele><time>2026-04-26T12:08:28.035Z</time></trkpt><trkpt lat="40.2252696451972" lon="9.163680840526471"><ele>594.0</ele><time>2026-04-26T12:08:29.035Z</time></trkpt><trkpt lat="40.22519084398435" lon="9.163536149037997"><ele>594.0</ele><time>2026-04-26T12:08:30.035Z</time></trkpt><trkpt lat="40.22509479570332" lon="9.163400203317504"><ele>594.0</ele><time>2026-04-26T12:08:31.035Z</time></trkpt><trkpt lat="40.22500296674331" lon="9.163220796842067"><ele>594.0</ele><time>2026-04-26T12:08:32.035Z</time></trkpt><trkpt lat="40.224813458958714" lon="9.163297322572362"><ele>596.3333333333334</ele><time>2026-04-26T12:08:33.035Z</time></trkpt><trkpt lat="40.22466357716948" lon="9.163288919241905"><ele>598.6666666666667</ele><time>2026-04-26T12:08:34.035Z</time></trkpt><trkpt lat="40.22451128462695" lon="9.163288659612945"><ele>601.0</ele><time>2026-04-26T12:08:35.035Z</time></trkpt><trkpt lat="40.22435928475874" lon="9.163311032332235"><ele>601.0</ele><time>2026-04-26T12:08:36.035Z</time></trkpt><trkpt lat="40.22421746215764" lon="9.163360528020098"><ele>601.0</ele><time>2026-04-26T12:08:37.035Z</time></trkpt><trkpt lat="40.22407967916413" lon="9.163437418706568"><ele>601.0</ele><time>2026-04-26T12:08:38.035Z</time></trkpt><trkpt lat="40.223955531240414" lon="9.163531853650968"><ele>601.0</ele><time>2026-04-26T12:08:39.035Z</time></trkpt><trkpt lat="40.22383911682367" lon="9.163598154240166"><ele>602.0</ele><time>2026-04-26T12:08:40.035Z</time></trkpt><trkpt lat="40.22371562218317" lon="9.1636116160328"><ele>603.0</ele><time>2026-04-26T12:08:41.035Z</time></trkpt><trkpt lat="40.22359283828868" lon="9.163561411553081"><ele>604.0</ele><time>2026-04-26T12:08:42.035Z</time></trkpt><trkpt lat="40.223480514506896" lon="9.163467628309746"><ele>605.0</ele><time>2026-04-26T12:08:43.035Z</time></trkpt><trkpt lat="40.22337788971941" lon="9.163363047437825"><ele>605.0</ele><time>2026-04-26T12:08:44.035Z</time></trkpt><trkpt lat="40.223255567776526" lon="9.163283921591928"><ele>605.0</ele><time>2026-04-26T12:08:45.035Z</time></trkpt><trkpt lat="40.22312162184362" lon="9.163242500581452"><ele>605.0</ele><time>2026-04-26T12:08:46.035Z</time></trkpt><trkpt lat="40.22297283660116" lon="9.163248216064652"><ele>605.0</ele><time>2026-04-26T12:08:47.035Z</time></trkpt><trkpt lat="40.22282130847538" lon="9.163284203836758"><ele>606.6666666666666</ele><time>2026-04-26T12:08:48.035Z</time></trkpt><trkpt lat="40.22265672241493" lon="9.163318480384431"><ele>608.3333333333334</ele><time>2026-04-26T12:08:49.035Z</time></trkpt><trkpt lat="40.222485606335724" lon="9.163354538765626"><ele>610.0</ele><time>2026-04-26T12:08:50.035Z</time></trkpt><trkpt lat="40.22230728461827" lon="9.16338668253737"><ele>611.3333333333334</ele><time>2026-04-26T12:08:51.035Z</time></trkpt><trkpt lat="40.222147893346914" lon="9.163419608035497"><ele>612.6666666666666</ele><time>2026-04-26T12:08:52.035Z</time></trkpt><trkpt lat="40.222002465224165" lon="9.163446476040244"><ele>614.0</ele><time>2026-04-26T12:08:53.035Z</time></trkpt><trkpt lat="40.22186219678053" lon="9.163469699092397"><ele>614.0</ele><time>2026-04-26T12:08:54.035Z</time></trkpt><trkpt lat="40.22170824841984" lon="9.163517721967063"><ele>614.0</ele><time>2026-04-26T12:08:55.035Z</time></trkpt><trkpt lat="40.221540312661226" lon="9.163563608695261"><ele>614.0</ele><time>2026-04-26T12:08:56.035Z</time></trkpt><trkpt lat="40.22136937761176" lon="9.163613886377272"><ele>612.0</ele><time>2026-04-26T12:08:57.035Z</time></trkpt><trkpt lat="40.221191874035604" lon="9.163662490422453"><ele>610.0</ele><time>2026-04-26T12:08:58.035Z</time></trkpt><trkpt lat="40.22102693581482" lon="9.163700223391507"><ele>608.0</ele><time>2026-04-26T12:08:59.035Z</time></trkpt><trkpt lat="40.220883771828134" lon="9.163746402119756"><ele>608.0</ele><time>2026-04-26T12:09:00.035Z</time></trkpt><trkpt lat="40.22075022677102" lon="9.163835036376788"><ele>608.0</ele><time>2026-04-26T12:09:01.035Z</time></trkpt><trkpt lat="40.22064705113482" lon="9.163984804762077"><ele>608.0</ele><time>2026-04-26T12:09:02.035Z</time></trkpt><trkpt lat="40.22054920351047" lon="9.164172017413605"><ele>607.6666666666666</ele><time>2026-04-26T12:09:03.035Z</time></trkpt><trkpt lat="40.220446280535356" lon="9.164374144022357"><ele>607.3333333333334</ele><time>2026-04-26T12:09:04.035Z</time></trkpt><trkpt lat="40.220332817484405" lon="9.16458677113362"><ele>607.0</ele><time>2026-04-26T12:09:05.035Z</time></trkpt><trkpt lat="40.22022470636876" lon="9.164815299074943"><ele>610.3333333333334</ele><time>2026-04-26T12:09:06.035Z</time></trkpt><trkpt lat="40.2201262442518" lon="9.165067901652305"><ele>613.6666666666666</ele><time>2026-04-26T12:09:07.035Z</time></trkpt><trkpt lat="40.22002716550644" lon="9.165330797410059"><ele>617.0</ele><time>2026-04-26T12:09:08.035Z</time></trkpt><trkpt lat="40.2199382534266" lon="9.165574717480004"><ele>616.6666666666666</ele><time>2026-04-26T12:09:09.035Z</time></trkpt><trkpt lat="40.21985366404772" lon="9.165796029281546"><ele>616.3333333333334</ele><time>2026-04-26T12:09:10.035Z</time></trkpt><trkpt lat="40.219752506529474" lon="9.16598655434047"><ele>616.0</ele><time>2026-04-26T12:09:11.035Z</time></trkpt><trkpt lat="40.219623245348124" lon="9.166140197224498"><ele>616.0</ele><time>2026-04-26T12:09:12.035Z</time></trkpt><trkpt lat="40.21947514343904" lon="9.166257429271054"><ele>616.0</ele><time>2026-04-26T12:09:13.035Z</time></trkpt><trkpt lat="40.219310568178784" lon="9.166284704551215"><ele>616.0</ele><time>2026-04-26T12:09:14.035Z</time></trkpt><trkpt lat="40.21912983893291" lon="9.166236286411111"><ele>619.0</ele><time>2026-04-26T12:09:15.035Z</time></trkpt><trkpt lat="40.218939187729255" lon="9.16616237585113"><ele>622.0</ele><time>2026-04-26T12:09:16.035Z</time></trkpt><trkpt lat="40.21874539378766" lon="9.166090197217766"><ele>625.0</ele><time>2026-04-26T12:09:17.035Z</time></trkpt><trkpt lat="40.21853939977235" lon="9.166017216189259"><ele>625.0</ele><time>2026-04-26T12:09:18.036Z</time></trkpt><trkpt lat="40.218332857365205" lon="9.165918361403238"><ele>625.0</ele><time>2026-04-26T12:09:19.036Z</time></trkpt><trkpt lat="40.21813473618006" lon="9.165797974607136"><ele>625.0</ele><time>2026-04-26T12:09:20.036Z</time></trkpt><trkpt lat="40.21792115132977" lon="9.165683540855545"><ele>621.0</ele><time>2026-04-26T12:09:21.036Z</time></trkpt><trkpt lat="40.217700448165225" lon="9.16556768312722"><ele>617.0</ele><time>2026-04-26T12:09:22.036Z</time></trkpt><trkpt lat="40.21748357862408" lon="9.165453086179646"><ele>621.0</ele><time>2026-04-26T12:09:23.036Z</time></trkpt><trkpt lat="40.21729265591625" lon="9.165331343580139"><ele>625.0</ele><time>2026-04-26T12:09:24.036Z</time></trkpt><trkpt lat="40.217137374928946" lon="9.165175801686825"><ele>629.0</ele><time>2026-04-26T12:09:25.036Z</time></trkpt><trkpt lat="40.21700043271333" lon="9.165015153608909"><ele>629.0</ele><time>2026-04-26T12:09:26.036Z</time></trkpt><trkpt lat="40.21687997908217" lon="9.164894849130516"><ele>629.0</ele><time>2026-04-26T12:09:27.036Z</time></trkpt><trkpt lat="40.21674364837053" lon="9.16482977999133"><ele>629.0</ele><time>2026-04-26T12:09:28.036Z</time></trkpt><trkpt lat="40.21658505341884" lon="9.164850521903345"><ele>625.0</ele><time>2026-04-26T12:09:29.036Z</time></trkpt><trkpt lat="40.21642255655095" lon="9.164930147426228"><ele>621.0</ele><time>2026-04-26T12:09:30.037Z</time></trkpt><trkpt lat="40.21627319641775" lon="9.165053089200482"><ele>617.0</ele><time>2026-04-26T12:09:31.036Z</time></trkpt><trkpt lat="40.216173046584835" lon="9.165230190598331"><ele>617.0</ele><time>2026-04-26T12:09:32.036Z</time></trkpt><trkpt lat="40.21612390407976" lon="9.165449252071285"><ele>617.0</ele><time>2026-04-26T12:09:33.036Z</time></trkpt><trkpt lat="40.21614126936671" lon="9.165655771968497"><ele>617.0</ele><time>2026-04-26T12:09:34.036Z</time></trkpt><trkpt lat="40.21622721416768" lon="9.16584657709194"><ele>618.6666666666666</ele><time>2026-04-26T12:09:35.036Z</time></trkpt><trkpt lat="40.21634895431367" lon="9.166007487817367"><ele>620.3333333333334</ele><time>2026-04-26T12:09:36.036Z</time></trkpt><trkpt lat="40.216486061641774" lon="9.16616771272013"><ele>622.0</ele><time>2026-04-26T12:09:37.036Z</time></trkpt><trkpt lat="40.21661476899017" lon="9.16634313171696"><ele>626.0</ele><time>2026-04-26T12:09:38.036Z</time></trkpt><trkpt lat="40.216755777907814" lon="9.166512181818057"><ele>630.0</ele><time>2026-04-26T12:09:39.036Z</time></trkpt><trkpt lat="40.21691479632571" lon="9.166657753655103"><ele>634.0</ele><time>2026-04-26T12:09:40.036Z</time></trkpt><trkpt lat="40.21707584106062" lon="9.166796438308657"><ele>634.0</ele><time>2026-04-26T12:09:41.036Z</time></trkpt><trkpt lat="40.2172136704662" lon="9.16696242277866"><ele>634.0</ele><time>2026-04-26T12:09:42.036Z</time></trkpt><trkpt lat="40.21734362104539" lon="9.16714365331667"><ele>634.0</ele><time>2026-04-26T12:09:43.036Z</time></trkpt><trkpt lat="40.217472519554946" lon="9.167329859064866"><ele>637.3333333333334</ele><time>2026-04-26T12:09:44.036Z</time></trkpt><trkpt lat="40.21755725551312" lon="9.167538591032203"><ele>640.6666666666666</ele><time>2026-04-26T12:09:45.036Z</time></trkpt><trkpt lat="40.21761511966613" lon="9.167733705999504"><ele>644.0</ele><time>2026-04-26T12:09:46.036Z</time></trkpt><trkpt lat="40.217624752952304" lon="9.167923522397702"><ele>644.0</ele><time>2026-04-26T12:09:47.036Z</time></trkpt><trkpt lat="40.217580849715944" lon="9.168118894548478"><ele>644.0</ele><time>2026-04-26T12:09:48.036Z</time></trkpt><trkpt lat="40.21749325038664" lon="9.168312426527043"><ele>644.0</ele><time>2026-04-26T12:09:49.036Z</time></trkpt><trkpt lat="40.217409921760634" lon="9.168498175364755"><ele>645.3333333333333</ele><time>2026-04-26T12:09:50.036Z</time></trkpt><trkpt lat="40.21733401992229" lon="9.168722051180456"><ele>646.6666666666666</ele><time>2026-04-26T12:09:51.036Z</time></trkpt><trkpt lat="40.21726288961549" lon="9.168936890181104"><ele>648.0</ele><time>2026-04-26T12:09:52.036Z</time></trkpt><trkpt lat="40.21718083483632" lon="9.169154886984032"><ele>648.0</ele><time>2026-04-26T12:09:53.036Z</time></trkpt><trkpt lat="40.217089498908074" lon="9.169342674255638"><ele>648.0</ele><time>2026-04-26T12:09:54.036Z</time></trkpt><trkpt lat="40.21694544257373" lon="9.169448904096686"><ele>648.0</ele><time>2026-04-26T12:09:55.036Z</time></trkpt><trkpt lat="40.216786459484354" lon="9.169520189350385"><ele>648.0</ele><time>2026-04-26T12:09:56.036Z</time></trkpt><trkpt lat="40.21660825224594" lon="9.169540018456008"><ele>648.0</ele><time>2026-04-26T12:09:57.036Z</time></trkpt><trkpt lat="40.21641870204311" lon="9.169518005939484"><ele>648.0</ele><time>2026-04-26T12:09:58.036Z</time></trkpt><trkpt lat="40.21623055615465" lon="9.169485652509591"><ele>648.6666666666666</ele><time>2026-04-26T12:09:59.036Z</time></trkpt><trkpt lat="40.216032042521356" lon="9.169459253589606"><ele>649.3333333333333</ele><time>2026-04-26T12:10:00.036Z</time></trkpt><trkpt lat="40.21581940271517" lon="9.169453968350753"><ele>650.0</ele><time>2026-04-26T12:10:01.036Z</time></trkpt><trkpt lat="40.21561169308433" lon="9.169481817863003"><ele>652.6666666666666</ele><time>2026-04-26T12:10:02.036Z</time></trkpt><trkpt lat="40.21541606338393" lon="9.169534755526579"><ele>655.3333333333334</ele><time>2026-04-26T12:10:03.036Z</time></trkpt><trkpt lat="40.2152270274051" lon="9.169589612712318"><ele>658.0</ele><time>2026-04-26T12:10:04.036Z</time></trkpt><trkpt lat="40.21506163172015" lon="9.169665621473998"><ele>658.0</ele><time>2026-04-26T12:10:05.036Z</time></trkpt><trkpt lat="40.21491474627027" lon="9.169742540684723"><ele>658.0</ele><time>2026-04-26T12:10:06.036Z</time></trkpt><trkpt lat="40.21481301432193" lon="9.169881244996844"><ele>658.0</ele><time>2026-04-26T12:10:07.036Z</time></trkpt><trkpt lat="40.21472778241853" lon="9.17005877781675"><ele>655.0</ele><time>2026-04-26T12:10:08.036Z</time></trkpt><trkpt lat="40.21464842151794" lon="9.170257595621889"><ele>652.0</ele><time>2026-04-26T12:10:09.036Z</time></trkpt><trkpt lat="40.21459268708277" lon="9.170456201811001"><ele>649.0</ele><time>2026-04-26T12:10:10.036Z</time></trkpt><trkpt lat="40.21460599212766" lon="9.170658575826916"><ele>648.6666666666667</ele><time>2026-04-26T12:10:11.036Z</time></trkpt><trkpt lat="40.21468640828566" lon="9.170874833177065"><ele>648.3333333333334</ele><time>2026-04-26T12:10:12.036Z</time></trkpt><trkpt lat="40.214800415014224" lon="9.171077627720598"><ele>648.0</ele><time>2026-04-26T12:10:13.036Z</time></trkpt><trkpt lat="40.214954021151264" lon="9.171245418378964"><ele>648.6666666666666</ele><time>2026-04-26T12:10:14.036Z</time></trkpt><trkpt lat="40.215139363692806" lon="9.171384884393133"><ele>649.3333333333333</ele><time>2026-04-26T12:10:15.036Z</time></trkpt><trkpt lat="40.215314952844324" lon="9.17151803495413"><ele>650.0</ele><time>2026-04-26T12:10:16.036Z</time></trkpt><trkpt lat="40.21543609519572" lon="9.171687705699503"><ele>650.0</ele><time>2026-04-26T12:10:17.036Z</time></trkpt><trkpt lat="40.21555489676176" lon="9.17182517120485"><ele>650.0</ele><time>2026-04-26T12:10:18.036Z</time></trkpt><trkpt lat="40.215697588416" lon="9.17189484204633"><ele>650.0</ele><time>2026-04-26T12:10:19.036Z</time></trkpt><trkpt lat="40.215841515905154" lon="9.171902766781326"><ele>652.5</ele><time>2026-04-26T12:10:20.036Z</time></trkpt><trkpt lat="40.21597713610907" lon="9.171906779145948"><ele>655.0</ele><time>2026-04-26T12:10:21.036Z</time></trkpt><trkpt lat="40.216075508466005" lon="9.171987688465562"><ele>657.5</ele><time>2026-04-26T12:10:22.036Z</time></trkpt><trkpt lat="40.21612430751506" lon="9.172158630032524"><ele>660.0</ele><time>2026-04-26T12:10:23.036Z</time></trkpt><trkpt lat="40.21611954087845" lon="9.172346696824123"><ele>657.5</ele><time>2026-04-26T12:10:24.036Z</time></trkpt><trkpt lat="40.2161180383089" lon="9.172546995048423"><ele>655.0</ele><time>2026-04-26T12:10:25.036Z</time></trkpt><trkpt lat="40.21611651350692" lon="9.17274153744015"><ele>652.5</ele><time>2026-04-26T12:10:26.036Z</time></trkpt><trkpt lat="40.21611390150146" lon="9.172932121157046"><ele>650.0</ele><time>2026-04-26T12:10:27.036Z</time></trkpt><trkpt lat="40.21611029066399" lon="9.17311297225847"><ele>650.5</ele><time>2026-04-26T12:10:28.036Z</time></trkpt><trkpt lat="40.2160402386278" lon="9.173257406000108"><ele>651.0</ele><time>2026-04-26T12:10:29.036Z</time></trkpt><trkpt lat="40.21593250831805" lon="9.173355890390274"><ele>651.5</ele><time>2026-04-26T12:10:30.036Z</time></trkpt><trkpt lat="40.215809545755135" lon="9.1733996259003"><ele>652.0</ele><time>2026-04-26T12:10:31.036Z</time></trkpt><trkpt lat="40.21567971439325" lon="9.17343574011699"><ele>651.3333333333334</ele><time>2026-04-26T12:10:32.036Z</time></trkpt><trkpt lat="40.21555394354196" lon="9.173531549614513"><ele>650.6666666666666</ele><time>2026-04-26T12:10:33.036Z</time></trkpt><trkpt lat="40.215444524170486" lon="9.173745312337145"><ele>650.0</ele><time>2026-04-26T12:10:34.036Z</time></trkpt><trkpt lat="40.21541262147716" lon="9.173967534011437"><ele>651.6</ele><time>2026-04-26T12:10:35.036Z</time></trkpt><trkpt lat="40.2153953030611" lon="9.174174924957022"><ele>653.2</ele><time>2026-04-26T12:10:36.036Z</time></trkpt><trkpt lat="40.21537546670445" lon="9.174302124853432"><ele>654.8</ele><time>2026-04-26T12:10:37.037Z</time></trkpt><trkpt lat="40.21533411241945" lon="9.174390916210951"><ele>656.4</ele><time>2026-04-26T12:10:38.037Z</time></trkpt><trkpt lat="40.21527756009265" lon="9.174451468555644"><ele>658.0</ele><time>2026-04-26T12:10:39.037Z</time></trkpt><trkpt lat="40.21519366616656" lon="9.174482309072031"><ele>658.0</ele><time>2026-04-26T12:10:40.037Z</time></trkpt><trkpt lat="40.215097893183426" lon="9.174404723586049"><ele>658.0</ele><time>2026-04-26T12:10:41.037Z</time></trkpt><trkpt lat="40.215018695631066" lon="9.17429424584177"><ele>658.0</ele><time>2026-04-26T12:10:42.037Z</time></trkpt><trkpt lat="40.214957814996524" lon="9.17416562812821"><ele>658.0</ele><time>2026-04-26T12:10:43.037Z</time></trkpt><trkpt lat="40.21491596165466" lon="9.17402249028831"><ele>656.0</ele><time>2026-04-26T12:10:44.037Z</time></trkpt><trkpt lat="40.21489331948054" lon="9.173857845311524"><ele>654.0</ele><time>2026-04-26T12:10:45.037Z</time></trkpt><trkpt lat="40.214888596145144" lon="9.173680017040747"><ele>652.0</ele><time>2026-04-26T12:10:46.037Z</time></trkpt><trkpt lat="40.21488900188198" lon="9.17351406968494"><ele>650.0</ele><time>2026-04-26T12:10:47.037Z</time></trkpt><trkpt lat="40.214860098430556" lon="9.17335431680107"><ele>649.3333333333333</ele><time>2026-04-26T12:10:48.037Z</time></trkpt><trkpt lat="40.21476297442964" lon="9.173220699876692"><ele>648.6666666666666</ele><time>2026-04-26T12:10:49.037Z</time></trkpt><trkpt lat="40.21462359275032" lon="9.173122664492082"><ele>648.0</ele><time>2026-04-26T12:10:50.037Z</time></trkpt><trkpt lat="40.21445977492079" lon="9.173041518252779"><ele>648.0</ele><time>2026-04-26T12:10:51.037Z</time></trkpt><trkpt lat="40.214290186343774" lon="9.172958051925477"><ele>648.0</ele><time>2026-04-26T12:10:52.037Z</time></trkpt><trkpt lat="40.21412481931133" lon="9.17284444877912"><ele>648.0</ele><time>2026-04-26T12:10:53.037Z</time></trkpt><trkpt lat="40.21396512041513" lon="9.172735017950975"><ele>650.6666666666666</ele><time>2026-04-26T12:10:54.037Z</time></trkpt><trkpt lat="40.21382020750294" lon="9.172665379929827"><ele>653.3333333333333</ele><time>2026-04-26T12:10:55.037Z</time></trkpt><trkpt lat="40.21367535443126" lon="9.172673146371716"><ele>656.0</ele><time>2026-04-26T12:10:56.037Z</time></trkpt><trkpt lat="40.213523836925035" lon="9.172788404771637"><ele>656.0</ele><time>2026-04-26T12:10:57.037Z</time></trkpt><trkpt lat="40.21335954720881" lon="9.17292928570025"><ele>656.0</ele><time>2026-04-26T12:10:58.037Z</time></trkpt><trkpt lat="40.21319339058841" lon="9.173060754652921"><ele>656.0</ele><time>2026-04-26T12:10:59.037Z</time></trkpt><trkpt lat="40.21304040600701" lon="9.17314442706862"><ele>657.3333333333333</ele><time>2026-04-26T12:11:00.037Z</time></trkpt><trkpt lat="40.212859441026694" lon="9.173127982459373"><ele>658.6666666666666</ele><time>2026-04-26T12:11:01.037Z</time></trkpt><trkpt lat="40.21267468062706" lon="9.173042541985346"><ele>660.0</ele><time>2026-04-26T12:11:02.037Z</time></trkpt><trkpt lat="40.212500965560714" lon="9.172922632671515"><ele>663.3333333333334</ele><time>2026-04-26T12:11:03.037Z</time></trkpt><trkpt lat="40.212314352364" lon="9.172807424405386"><ele>666.6666666666667</ele><time>2026-04-26T12:11:04.037Z</time></trkpt><trkpt lat="40.212122050210404" lon="9.172711148561413"><ele>670.0</ele><time>2026-04-26T12:11:05.037Z</time></trkpt><trkpt lat="40.21191754012519" lon="9.172645400977483"><ele>670.0</ele><time>2026-04-26T12:11:06.037Z</time></trkpt><trkpt lat="40.21170282739908" lon="9.172622764030626"><ele>670.0</ele><time>2026-04-26T12:11:07.037Z</time></trkpt><trkpt lat="40.21148967895629" lon="9.172658124467933"><ele>670.0</ele><time>2026-04-26T12:11:08.037Z</time></trkpt><trkpt lat="40.21126685646961" lon="9.17272445629335"><ele>671.0</ele><time>2026-04-26T12:11:09.037Z</time></trkpt><trkpt lat="40.21104366585181" lon="9.17274780574847"><ele>672.0</ele><time>2026-04-26T12:11:10.037Z</time></trkpt><trkpt lat="40.21083260856997" lon="9.172712833583423"><ele>673.0</ele><time>2026-04-26T12:11:11.037Z</time></trkpt><trkpt lat="40.21062690076242" lon="9.172621023491606"><ele>673.0</ele><time>2026-04-26T12:11:12.037Z</time></trkpt><trkpt lat="40.21043351943314" lon="9.172557761939604"><ele>673.0</ele><time>2026-04-26T12:11:13.037Z</time></trkpt><trkpt lat="40.210231656152786" lon="9.172542313269009"><ele>673.0</ele><time>2026-04-26T12:11:14.037Z</time></trkpt><trkpt lat="40.21003379302812" lon="9.172597670787875"><ele>673.0</ele><time>2026-04-26T12:11:15.037Z</time></trkpt><trkpt lat="40.209837569656486" lon="9.17270041764675"><ele>673.0</ele><time>2026-04-26T12:11:16.037Z</time></trkpt><trkpt lat="40.209634236685304" lon="9.172801623057785"><ele>673.0</ele><time>2026-04-26T12:11:17.037Z</time></trkpt><trkpt lat="40.20943092048322" lon="9.172891051692405"><ele>673.6666666666667</ele><time>2026-04-26T12:11:18.037Z</time></trkpt><trkpt lat="40.20922306446797" lon="9.172950526287881"><ele>674.3333333333334</ele><time>2026-04-26T12:11:19.037Z</time></trkpt><trkpt lat="40.20900588384959" lon="9.172993648871934"><ele>675.0</ele><time>2026-04-26T12:11:20.037Z</time></trkpt><trkpt lat="40.20879154599004" lon="9.173026876227938"><ele>676.0</ele><time>2026-04-26T12:11:21.037Z</time></trkpt><trkpt lat="40.208589539694096" lon="9.173082554325477"><ele>677.0</ele><time>2026-04-26T12:11:22.037Z</time></trkpt><trkpt lat="40.2083911894989" lon="9.173170845813486"><ele>678.0</ele><time>2026-04-26T12:11:23.037Z</time></trkpt><trkpt lat="40.20819121228075" lon="9.173288002585647"><ele>681.0</ele><time>2026-04-26T12:11:24.038Z</time></trkpt><trkpt lat="40.207986591211665" lon="9.173399826608536"><ele>684.0</ele><time>2026-04-26T12:11:25.038Z</time></trkpt><trkpt lat="40.20779796013938" lon="9.173498773436215"><ele>687.0</ele><time>2026-04-26T12:11:26.038Z</time></trkpt><trkpt lat="40.20764191655146" lon="9.17363793393018"><ele>687.0</ele><time>2026-04-26T12:11:27.039Z</time></trkpt><trkpt lat="40.207506592776284" lon="9.173821533662066"><ele>687.0</ele><time>2026-04-26T12:11:28.038Z</time></trkpt><trkpt lat="40.20738565768408" lon="9.174008870820447"><ele>687.0</ele><time>2026-04-26T12:11:29.038Z</time></trkpt><trkpt lat="40.207226133675775" lon="9.174134054541359"><ele>689.6666666666666</ele><time>2026-04-26T12:11:30.039Z</time></trkpt><trkpt lat="40.20705249237404" lon="9.17420706480287"><ele>692.3333333333333</ele><time>2026-04-26T12:11:31.038Z</time></trkpt><trkpt lat="40.20691181653438" lon="9.174306026151275"><ele>695.0</ele><time>2026-04-26T12:11:32.038Z</time></trkpt><trkpt lat="40.20679429943295" lon="9.174451861988278"><ele>695.0</ele><time>2026-04-26T12:11:33.039Z</time></trkpt><trkpt lat="40.20670003141733" lon="9.17466059256362"><ele>695.0</ele><time>2026-04-26T12:11:34.039Z</time></trkpt><trkpt lat="40.20660262267904" lon="9.174870341869944"><ele>695.0</ele><time>2026-04-26T12:11:35.039Z</time></trkpt><trkpt lat="40.20649593396097" lon="9.175079072293773"><ele>695.3333333333333</ele><time>2026-04-26T12:11:36.039Z</time></trkpt><trkpt lat="40.2064076170457" lon="9.175300626253513"><ele>695.6666666666666</ele><time>2026-04-26T12:11:37.038Z</time></trkpt><trkpt lat="40.20635683887851" lon="9.175541221001902"><ele>696.0</ele><time>2026-04-26T12:11:38.038Z</time></trkpt><trkpt lat="40.20631312146126" lon="9.175792302356404"><ele>696.3333333333334</ele><time>2026-04-26T12:11:39.038Z</time></trkpt><trkpt lat="40.20629522653972" lon="9.176056545459405"><ele>696.6666666666667</ele><time>2026-04-26T12:11:40.038Z</time></trkpt><trkpt lat="40.20630295334102" lon="9.17631454452478"><ele>697.0</ele><time>2026-04-26T12:11:41.038Z</time></trkpt><trkpt lat="40.20633638399059" lon="9.176577562874359"><ele>698.3333333333334</ele><time>2026-04-26T12:11:42.038Z</time></trkpt><trkpt lat="40.206361850516096" lon="9.176822959767836"><ele>699.6666666666666</ele><time>2026-04-26T12:11:43.038Z</time></trkpt><trkpt lat="40.206378683484274" lon="9.177044406991186"><ele>701.0</ele><time>2026-04-26T12:11:44.038Z</time></trkpt><trkpt lat="40.206385419781554" lon="9.177257820337243"><ele>701.6666666666666</ele><time>2026-04-26T12:11:45.038Z</time></trkpt><trkpt lat="40.20636470954817" lon="9.177484409510882"><ele>702.3333333333334</ele><time>2026-04-26T12:11:46.038Z</time></trkpt><trkpt lat="40.20633092552589" lon="9.177709739426108"><ele>703.0</ele><time>2026-04-26T12:11:47.038Z</time></trkpt><trkpt lat="40.20628308758805" lon="9.17794701360699"><ele>704.0</ele><time>2026-04-26T12:11:48.038Z</time></trkpt><trkpt lat="40.20624464733347" lon="9.178190384232316"><ele>705.0</ele><time>2026-04-26T12:11:49.038Z</time></trkpt><trkpt lat="40.20622251241997" lon="9.178449553503304"><ele>706.0</ele><time>2026-04-26T12:11:50.038Z</time></trkpt><trkpt lat="40.206228594172316" lon="9.178715434813286"><ele>706.0</ele><time>2026-04-26T12:11:51.038Z</time></trkpt><trkpt lat="40.20624279025959" lon="9.178993707034316"><ele>706.0</ele><time>2026-04-26T12:11:52.038Z</time></trkpt><trkpt lat="40.20626029775006" lon="9.179274442488895"><ele>706.0</ele><time>2026-04-26T12:11:53.038Z</time></trkpt><trkpt lat="40.20627766969588" lon="9.179554433212136"><ele>706.3333333333334</ele><time>2026-04-26T12:11:54.038Z</time></trkpt><trkpt lat="40.206287837845686" lon="9.179808512132944"><ele>706.6666666666666</ele><time>2026-04-26T12:11:55.038Z</time></trkpt><trkpt lat="40.20626362793305" lon="9.180061612256528"><ele>707.0</ele><time>2026-04-26T12:11:56.039Z</time></trkpt><trkpt lat="40.20619279984086" lon="9.180318231216235"><ele>708.0</ele><time>2026-04-26T12:11:57.039Z</time></trkpt><trkpt lat="40.20611158201843" lon="9.180591125417427"><ele>709.0</ele><time>2026-04-26T12:11:58.039Z</time></trkpt><trkpt lat="40.206078300580415" lon="9.180913575041806"><ele>711.0</ele><time>2026-04-26T12:11:59.039Z</time></trkpt><trkpt lat="40.20603635213754" lon="9.181271470358105"><ele>713.0</ele><time>2026-04-26T12:12:00.039Z</time></trkpt><trkpt lat="40.20600957417287" lon="9.181651860257308"><ele>714.5</ele><time>2026-04-26T12:12:01.039Z</time></trkpt><trkpt lat="40.20598113943856" lon="9.182046832769712"><ele>716.0</ele><time>2026-04-26T12:12:02.039Z</time></trkpt><trkpt lat="40.20595232425197" lon="9.182441208766846"><ele>718.0</ele><time>2026-04-26T12:12:03.039Z</time></trkpt><trkpt lat="40.20592370740996" lon="9.18282965891725"><ele>720.0</ele><time>2026-04-26T12:12:04.039Z</time></trkpt><trkpt lat="40.20589555847824" lon="9.18321175805431"><ele>722.0</ele><time>2026-04-26T12:12:05.039Z</time></trkpt><trkpt lat="40.20586865922945" lon="9.183584348186809"><ele>724.0</ele><time>2026-04-26T12:12:06.039Z</time></trkpt><trkpt lat="40.205843632064685" lon="9.183950498149992"><ele>725.5</ele><time>2026-04-26T12:12:07.039Z</time></trkpt><trkpt lat="40.20581857602637" lon="9.184321531183832"><ele>727.0</ele><time>2026-04-26T12:12:08.039Z</time></trkpt><trkpt lat="40.20579486323153" lon="9.18467267830757"><ele>727.5</ele><time>2026-04-26T12:12:09.039Z</time></trkpt><trkpt lat="40.20577336595462" lon="9.184991028006522"><ele>728.0</ele><time>2026-04-26T12:12:10.039Z</time></trkpt><trkpt lat="40.20575510363309" lon="9.185261471777691"><ele>728.0</ele><time>2026-04-26T12:12:11.039Z</time></trkpt><trkpt lat="40.20575922490289" lon="9.185501806242607"><ele>728.0</ele><time>2026-04-26T12:12:12.039Z</time></trkpt><trkpt lat="40.205718055052266" lon="9.185706406672638"><ele>728.0</ele><time>2026-04-26T12:12:13.039Z</time></trkpt><trkpt lat="40.20562756944983" lon="9.185866976901698"><ele>728.6666666666666</ele><time>2026-04-26T12:12:14.039Z</time></trkpt><trkpt lat="40.20548420109974" lon="9.186000818835833"><ele>729.3333333333334</ele><time>2026-04-26T12:12:15.039Z</time></trkpt><trkpt lat="40.205305597418516" lon="9.186066019037343"><ele>730.0</ele><time>2026-04-26T12:12:16.039Z</time></trkpt><trkpt lat="40.20513112973485" lon="9.186033808001424"><ele>730.0</ele><time>2026-04-26T12:12:17.039Z</time></trkpt><trkpt lat="40.204985349515944" lon="9.185909865039271"><ele>730.0</ele><time>2026-04-26T12:12:18.039Z</time></trkpt><trkpt lat="40.20486357037563" lon="9.185691864856377"><ele>730.0</ele><time>2026-04-26T12:12:19.039Z</time></trkpt><trkpt lat="40.20475503320656" lon="9.185405173208096"><ele>735.5</ele><time>2026-04-26T12:12:20.039Z</time></trkpt><trkpt lat="40.20461179517148" lon="9.185115263728644"><ele>741.0</ele><time>2026-04-26T12:12:21.039Z</time></trkpt><trkpt lat="40.20444826466577" lon="9.1849174198726"><ele>741.3333333333334</ele><time>2026-04-26T12:12:22.039Z</time></trkpt><trkpt lat="40.20430337189898" lon="9.184784711047413"><ele>741.6666666666667</ele><time>2026-04-26T12:12:23.039Z</time></trkpt><trkpt lat="40.20421122009348" lon="9.184647308852327"><ele>742.0</ele><time>2026-04-26T12:12:24.039Z</time></trkpt><trkpt lat="40.204197266216184" lon="9.184459847959847"><ele>742.0</ele><time>2026-04-26T12:12:25.039Z</time></trkpt><trkpt lat="40.204235213304884" lon="9.184246296250098"><ele>742.0</ele><time>2026-04-26T12:12:26.039Z</time></trkpt><trkpt lat="40.20426468094067" lon="9.184015048513803"><ele>742.0</ele><time>2026-04-26T12:12:27.039Z</time></trkpt><trkpt lat="40.2042224528319" lon="9.183777643963555"><ele>741.0</ele><time>2026-04-26T12:12:28.039Z</time></trkpt><trkpt lat="40.20411781550467" lon="9.183531226514953"><ele>740.0</ele><time>2026-04-26T12:12:29.039Z</time></trkpt><trkpt lat="40.20401104567296" lon="9.183252762239077"><ele>751.5</ele><time>2026-04-26T12:12:30.039Z</time></trkpt><trkpt lat="40.20389392342227" lon="9.182955215788903"><ele>763.0</ele><time>2026-04-26T12:12:31.039Z</time></trkpt><trkpt lat="40.203753214536334" lon="9.182688394854395"><ele>763.0</ele><time>2026-04-26T12:12:32.039Z</time></trkpt><trkpt lat="40.20367261626757" lon="9.182456476247518"><ele>763.0</ele><time>2026-04-26T12:12:33.039Z</time></trkpt><trkpt lat="40.203694066994615" lon="9.182223361986539"><ele>763.0</ele><time>2026-04-26T12:12:34.039Z</time></trkpt><trkpt lat="40.20374448286601" lon="9.18194235837379"><ele>765.5</ele><time>2026-04-26T12:12:35.039Z</time></trkpt><trkpt lat="40.203775270618145" lon="9.181628183963063"><ele>768.0</ele><time>2026-04-26T12:12:36.039Z</time></trkpt><trkpt lat="40.20380591563487" lon="9.181250084531493"><ele>769.0</ele><time>2026-04-26T12:12:37.039Z</time></trkpt><trkpt lat="40.203798306111466" lon="9.180840445521584"><ele>770.0</ele><time>2026-04-26T12:12:38.039Z</time></trkpt><trkpt lat="40.20379030883387" lon="9.180446997995507"><ele>767.6666666666667</ele><time>2026-04-26T12:12:39.039Z</time></trkpt><trkpt lat="40.20377760043076" lon="9.180163650260594"><ele>765.3333333333334</ele><time>2026-04-26T12:12:40.039Z</time></trkpt><trkpt lat="40.203756002061176" lon="9.179948620686968"><ele>763.0</ele><time>2026-04-26T12:12:41.039Z</time></trkpt><trkpt lat="40.20369901975763" lon="9.179766749124065"><ele>759.0</ele><time>2026-04-26T12:12:42.039Z</time></trkpt><trkpt lat="40.20353069950608" lon="9.17955755910677"><ele>755.0</ele><time>2026-04-26T12:12:43.039Z</time></trkpt><trkpt lat="40.203337823985905" lon="9.179415031095944"><ele>758.0</ele><time>2026-04-26T12:12:44.039Z</time></trkpt><trkpt lat="40.20309423943405" lon="9.179338258317069"><ele>761.0</ele><time>2026-04-26T12:12:45.039Z</time></trkpt><trkpt lat="40.20284000477699" lon="9.179299596293948"><ele>761.0</ele><time>2026-04-26T12:12:46.039Z</time></trkpt><trkpt lat="40.20262293107531" lon="9.179290278770283"><ele>761.0</ele><time>2026-04-26T12:12:47.039Z</time></trkpt><trkpt lat="40.20244852794152" lon="9.179319803567106"><ele>761.0</ele><time>2026-04-26T12:12:48.039Z</time></trkpt><trkpt lat="40.202276904960364" lon="9.179434608120696"><ele>761.0</ele><time>2026-04-26T12:12:49.039Z</time></trkpt><trkpt lat="40.202148203438135" lon="9.179643945860946"><ele>761.0</ele><time>2026-04-26T12:12:50.039Z</time></trkpt><trkpt lat="40.20207908194684" lon="9.17991900118095"><ele>761.0</ele><time>2026-04-26T12:12:51.039Z</time></trkpt><trkpt lat="40.20206966143632" lon="9.180242685694532"><ele>761.0</ele><time>2026-04-26T12:12:52.039Z</time></trkpt><trkpt lat="40.20209443161034" lon="9.180625591112332"><ele>761.0</ele><time>2026-04-26T12:12:53.039Z</time></trkpt><trkpt lat="40.20209916100596" lon="9.181040840346183"><ele>762.3333333333333</ele><time>2026-04-26T12:12:54.039Z</time></trkpt><trkpt lat="40.202089154924586" lon="9.181368450382585"><ele>763.6666666666666</ele><time>2026-04-26T12:12:55.039Z</time></trkpt><trkpt lat="40.202062949016096" lon="9.181609672255457"><ele>765.0</ele><time>2026-04-26T12:12:56.039Z</time></trkpt><trkpt lat="40.20198005572922" lon="9.181772218400745"><ele>768.6666666666667</ele><time>2026-04-26T12:12:57.039Z</time></trkpt><trkpt lat="40.20186872656457" lon="9.181896864650529"><ele>772.3333333333334</ele><time>2026-04-26T12:12:58.039Z</time></trkpt><trkpt lat="40.20171574178229" lon="9.182009761121167"><ele>776.0</ele><time>2026-04-26T12:12:59.039Z</time></trkpt><trkpt lat="40.20156748865293" lon="9.182055443372203"><ele>779.6666666666667</ele><time>2026-04-26T12:13:00.039Z</time></trkpt><trkpt lat="40.20138662373876" lon="9.182052473408708"><ele>783.3333333333333</ele><time>2026-04-26T12:13:01.039Z</time></trkpt><trkpt lat="40.20120451153449" lon="9.181965567078636"><ele>787.0</ele><time>2026-04-26T12:13:02.039Z</time></trkpt><trkpt lat="40.201014534075426" lon="9.181958446320738"><ele>776.0</ele><time>2026-04-26T12:13:03.04Z</time></trkpt><trkpt lat="40.200799657248886" lon="9.18139281915055"><ele>783.0</ele><time>2026-04-26T12:13:04.04Z</time></trkpt><trkpt lat="40.20055634175582" lon="9.181110482290132"><ele>790.0</ele><time>2026-04-26T12:13:05.04Z</time></trkpt><trkpt lat="40.20030933404258" lon="9.180868877281927"><ele>785.5</ele><time>2026-04-26T12:13:06.04Z</time></trkpt><trkpt lat="40.20005607907972" lon="9.180654243321877"><ele>781.0</ele><time>2026-04-26T12:13:07.04Z</time></trkpt><trkpt lat="40.19980003234755" lon="9.180520204191092"><ele>781.0</ele><time>2026-04-26T12:13:08.04Z</time></trkpt><trkpt lat="40.1995527304055" lon="9.1804347600022"><ele>781.0</ele><time>2026-04-26T12:13:09.04Z</time></trkpt><trkpt lat="40.199288682996524" lon="9.180382252577123"><ele>780.5</ele><time>2026-04-26T12:13:10.04Z</time></trkpt><trkpt lat="40.198994288436936" lon="9.180391167802012"><ele>780.0</ele><time>2026-04-26T12:13:11.04Z</time></trkpt><trkpt lat="40.19871445944553" lon="9.180423738445263"><ele>780.0</ele><time>2026-04-26T12:13:12.04Z</time></trkpt><trkpt lat="40.19847250497187" lon="9.180442002274127"><ele>780.0</ele><time>2026-04-26T12:13:13.04Z</time></trkpt><trkpt lat="40.198232788633376" lon="9.180501057875853"><ele>776.0</ele><time>2026-04-26T12:13:14.04Z</time></trkpt><trkpt lat="40.19799471079155" lon="9.180614556515946"><ele>772.0</ele><time>2026-04-26T12:13:15.04Z</time></trkpt><trkpt lat="40.19775389589031" lon="9.18078931260715"><ele>778.5</ele><time>2026-04-26T12:13:16.04Z</time></trkpt><trkpt lat="40.19750806408598" lon="9.180939160719815"><ele>785.0</ele><time>2026-04-26T12:13:17.04Z</time></trkpt><trkpt lat="40.19732092215146" lon="9.181080349697616"><ele>785.0</ele><time>2026-04-26T12:13:18.04Z</time></trkpt><trkpt lat="40.19713100243908" lon="9.181198782835953"><ele>785.0</ele><time>2026-04-26T12:13:19.04Z</time></trkpt><trkpt lat="40.19694100438658" lon="9.181277140117375"><ele>785.0</ele><time>2026-04-26T12:13:20.04Z</time></trkpt><trkpt lat="40.19672735343604" lon="9.181296912499269"><ele>785.0</ele><time>2026-04-26T12:13:21.04Z</time></trkpt><trkpt lat="40.19651909813788" lon="9.181358536921367"><ele>785.0</ele><time>2026-04-26T12:13:22.04Z</time></trkpt><trkpt lat="40.19631633665161" lon="9.181489017719818"><ele>785.0</ele><time>2026-04-26T12:13:23.04Z</time></trkpt><trkpt lat="40.19614172833218" lon="9.181655542990582"><ele>789.0</ele><time>2026-04-26T12:13:24.04Z</time></trkpt><trkpt lat="40.19603805045194" lon="9.181871748407513"><ele>793.0</ele><time>2026-04-26T12:13:25.04Z</time></trkpt><trkpt lat="40.19598579744311" lon="9.182141269762118"><ele>797.0</ele><time>2026-04-26T12:13:26.04Z</time></trkpt><trkpt lat="40.19596333989841" lon="9.182428990344238"><ele>798.3333333333334</ele><time>2026-04-26T12:13:27.04Z</time></trkpt><trkpt lat="40.195903114110166" lon="9.182658760133004"><ele>799.6666666666667</ele><time>2026-04-26T12:13:28.04Z</time></trkpt><trkpt lat="40.19580719600088" lon="9.182814425369193"><ele>801.0</ele><time>2026-04-26T12:13:29.04Z</time></trkpt><trkpt lat="40.195667516404775" lon="9.182910988002842"><ele>801.0</ele><time>2026-04-26T12:13:30.041Z</time></trkpt><trkpt lat="40.195462057452936" lon="9.18299925785605"><ele>801.0</ele><time>2026-04-26T12:13:31.041Z</time></trkpt><trkpt lat="40.19526052016908" lon="9.183097708539497"><ele>801.0</ele><time>2026-04-26T12:13:32.041Z</time></trkpt><trkpt lat="40.19506774262589" lon="9.183086292113147"><ele>801.0</ele><time>2026-04-26T12:13:33.041Z</time></trkpt><trkpt lat="40.19486964853226" lon="9.183013659464386"><ele>801.0</ele><time>2026-04-26T12:13:34.04Z</time></trkpt><trkpt lat="40.19466763936591" lon="9.182930445724788"><ele>801.0</ele><time>2026-04-26T12:13:35.04Z</time></trkpt><trkpt lat="40.19445635244067" lon="9.182905932381555"><ele>802.3333333333333</ele><time>2026-04-26T12:13:36.041Z</time></trkpt><trkpt lat="40.19424780542967" lon="9.182921286223426"><ele>803.6666666666666</ele><time>2026-04-26T12:13:37.04Z</time></trkpt><trkpt lat="40.19404309419616" lon="9.182964703809684"><ele>805.0</ele><time>2026-04-26T12:13:38.04Z</time></trkpt><trkpt lat="40.19385634158374" lon="9.183046876274854"><ele>806.3333333333333</ele><time>2026-04-26T12:13:39.041Z</time></trkpt><trkpt lat="40.193682706179956" lon="9.183179206385455"><ele>807.6666666666667</ele><time>2026-04-26T12:13:40.041Z</time></trkpt><trkpt lat="40.19352171544817" lon="9.183320617256893"><ele>809.0</ele><time>2026-04-26T12:13:41.041Z</time></trkpt><trkpt lat="40.19335182918726" lon="9.183368496294257"><ele>811.6666666666667</ele><time>2026-04-26T12:13:42.041Z</time></trkpt><trkpt lat="40.193191378515415" lon="9.183322557303095"><ele>814.3333333333333</ele><time>2026-04-26T12:13:43.04Z</time></trkpt><trkpt lat="40.19302788269622" lon="9.1831830035921"><ele>817.0</ele><time>2026-04-26T12:13:44.04Z</time></trkpt><trkpt lat="40.19281768899839" lon="9.183037314939117"><ele>817.0</ele><time>2026-04-26T12:13:45.04Z</time></trkpt><trkpt lat="40.1925824508288" lon="9.182920911705011"><ele>817.0</ele><time>2026-04-26T12:13:46.04Z</time></trkpt><trkpt lat="40.19232917256916" lon="9.182871924800311"><ele>822.0</ele><time>2026-04-26T12:13:47.04Z</time></trkpt><trkpt lat="40.192065142368605" lon="9.182869841104793"><ele>827.0</ele><time>2026-04-26T12:13:48.041Z</time></trkpt><trkpt lat="40.191839386596655" lon="9.182900784717344"><ele>827.0</ele><time>2026-04-26T12:13:49.041Z</time></trkpt><trkpt lat="40.19168144239214" lon="9.182978899066432"><ele>827.0</ele><time>2026-04-26T12:13:50.041Z</time></trkpt><trkpt lat="40.191581874515116" lon="9.183108123850488"><ele>827.0</ele><time>2026-04-26T12:13:51.041Z</time></trkpt><trkpt lat="40.1915509577807" lon="9.183300451313485"><ele>829.75</ele><time>2026-04-26T12:13:52.041Z</time></trkpt><trkpt lat="40.19154731110007" lon="9.183501367278032"><ele>832.5</ele><time>2026-04-26T12:13:53.041Z</time></trkpt><trkpt lat="40.19150257125615" lon="9.183647731206376"><ele>835.25</ele><time>2026-04-26T12:13:54.041Z</time></trkpt><trkpt lat="40.19139645143592" lon="9.183688283403798"><ele>838.0</ele><time>2026-04-26T12:13:55.041Z</time></trkpt><trkpt lat="40.19123335848443" lon="9.183655358821992"><ele>838.0</ele><time>2026-04-26T12:13:56.041Z</time></trkpt><trkpt lat="40.191025755731424" lon="9.183636966467649"><ele>838.0</ele><time>2026-04-26T12:13:57.041Z</time></trkpt><trkpt lat="40.19081651973035" lon="9.183604618277036"><ele>838.0</ele><time>2026-04-26T12:13:58.041Z</time></trkpt><trkpt lat="40.190636523292646" lon="9.183587386101287"><ele>842.0</ele><time>2026-04-26T12:13:59.041Z</time></trkpt><trkpt lat="40.19046842223593" lon="9.183599665101815"><ele>846.0</ele><time>2026-04-26T12:14:00.041Z</time></trkpt><trkpt lat="40.19030861070579" lon="9.1836485069762"><ele>850.0</ele><time>2026-04-26T12:14:01.041Z</time></trkpt><trkpt lat="40.19014491928084" lon="9.183735603764799"><ele>850.0</ele><time>2026-04-26T12:14:02.041Z</time></trkpt><trkpt lat="40.18998254792973" lon="9.183844202276674"><ele>850.0</ele><time>2026-04-26T12:14:03.041Z</time></trkpt><trkpt lat="40.18982428022034" lon="9.183950748679319"><ele>850.0</ele><time>2026-04-26T12:14:04.041Z</time></trkpt><trkpt lat="40.189671471253455" lon="9.184045386227071"><ele>850.3333333333333</ele><time>2026-04-26T12:14:05.041Z</time></trkpt><trkpt lat="40.189504690366114" lon="9.184128451064845"><ele>850.6666666666667</ele><time>2026-04-26T12:14:06.041Z</time></trkpt><trkpt lat="40.18935042856707" lon="9.184214043465273"><ele>851.0</ele><time>2026-04-26T12:14:07.041Z</time></trkpt><trkpt lat="40.18920876045295" lon="9.18429200893959"><ele>851.0</ele><time>2026-04-26T12:14:08.041Z</time></trkpt><trkpt lat="40.18907665430521" lon="9.18436208609937"><ele>851.0</ele><time>2026-04-26T12:14:09.041Z</time></trkpt><trkpt lat="40.18895836377689" lon="9.184411592690296"><ele>851.0</ele><time>2026-04-26T12:14:10.041Z</time></trkpt><trkpt lat="40.18885988134388" lon="9.184476628887934"><ele>851.0</ele><time>2026-04-26T12:14:11.041Z</time></trkpt><trkpt lat="40.18876855864544" lon="9.184500674662782"><ele>850.6666666666667</ele><time>2026-04-26T12:14:12.041Z</time></trkpt><trkpt lat="40.18869608100888" lon="9.184535036932031"><ele>850.3333333333334</ele><time>2026-04-26T12:14:13.041Z</time></trkpt><trkpt lat="40.188630802385454" lon="9.18456257975111"><ele>850.0</ele><time>2026-04-26T12:14:14.041Z</time></trkpt><trkpt lat="40.188570122228775" lon="9.184585696788037"><ele>849.6666666666667</ele><time>2026-04-26T12:14:15.041Z</time></trkpt><trkpt lat="40.18846147675536" lon="9.184621465392643"><ele>849.3333333333334</ele><time>2026-04-26T12:14:17.041Z</time></trkpt><trkpt lat="40.18837320141096" lon="9.18466293998587"><ele>849.0</ele><time>2026-04-26T12:14:19.041Z</time></trkpt><trkpt lat="40.18829235049973" lon="9.18468198098965"><ele>849.0</ele><time>2026-04-26T12:14:21.041Z</time></trkpt><trkpt lat="40.18822316994382" lon="9.184684127239844"><ele>849.0</ele><time>2026-04-26T12:14:23.041Z</time></trkpt><trkpt lat="40.18812954140041" lon="9.184689006917226"><ele>849.0</ele><time>2026-04-26T12:14:25.041Z</time></trkpt><trkpt lat="40.18802306147312" lon="9.184714055633888"><ele>849.0</ele><time>2026-04-26T12:14:27.041Z</time></trkpt><trkpt lat="40.18796147274572" lon="9.184735849413464"><ele>849.0</ele><time>2026-04-26T12:14:28.041Z</time></trkpt><trkpt lat="40.18783620010824" lon="9.184798973040383"><ele>847.0</ele><time>2026-04-26T12:14:30.041Z</time></trkpt><trkpt lat="40.18774740996125" lon="9.18485061827829"><ele>845.0</ele><time>2026-04-26T12:14:31.041Z</time></trkpt><trkpt lat="40.187636775880556" lon="9.18490209430194"><ele>843.0</ele><time>2026-04-26T12:14:32.041Z</time></trkpt><trkpt lat="40.187508539561186" lon="9.184956198603295"><ele>841.0</ele><time>2026-04-26T12:14:33.041Z</time></trkpt><trkpt lat="40.18736519802359" lon="9.185007642691533"><ele>841.0</ele><time>2026-04-26T12:14:34.041Z</time></trkpt><trkpt lat="40.18720531070118" lon="9.18504973576387"><ele>841.0</ele><time>2026-04-26T12:14:35.041Z</time></trkpt><trkpt lat="40.18704401019127" lon="9.185050878837359"><ele>841.0</ele><time>2026-04-26T12:14:36.041Z</time></trkpt><trkpt lat="40.18688019814329" lon="9.184984785720479"><ele>841.0</ele><time>2026-04-26T12:14:37.041Z</time></trkpt><trkpt lat="40.18669421818132" lon="9.184894390657574"><ele>841.0</ele><time>2026-04-26T12:14:38.041Z</time></trkpt><trkpt lat="40.186491447500686" lon="9.184806980125764"><ele>841.0</ele><time>2026-04-26T12:14:39.041Z</time></trkpt><trkpt lat="40.18628358522744" lon="9.184735236851267"><ele>842.3333333333333</ele><time>2026-04-26T12:14:40.041Z</time></trkpt><trkpt lat="40.186072656078665" lon="9.184663320561553"><ele>843.6666666666667</ele><time>2026-04-26T12:14:41.041Z</time></trkpt><trkpt lat="40.1858621819927" lon="9.184559237746647"><ele>845.0</ele><time>2026-04-26T12:14:42.041Z</time></trkpt><trkpt lat="40.18563843724866" lon="9.184461084337986"><ele>837.5</ele><time>2026-04-26T12:14:43.041Z</time></trkpt><trkpt lat="40.18540443070228" lon="9.184366849807464"><ele>830.0</ele><time>2026-04-26T12:14:44.041Z</time></trkpt><trkpt lat="40.18516331469514" lon="9.184269937440288"><ele>830.0</ele><time>2026-04-26T12:14:45.041Z</time></trkpt><trkpt lat="40.18491864906539" lon="9.184171166575696"><ele>830.0</ele><time>2026-04-26T12:14:46.041Z</time></trkpt><trkpt lat="40.18466523247956" lon="9.184088367124852"><ele>833.0</ele><time>2026-04-26T12:14:47.041Z</time></trkpt><trkpt lat="40.18441708513385" lon="9.183980881548107"><ele>836.0</ele><time>2026-04-26T12:14:48.041Z</time></trkpt><trkpt lat="40.18417259514184" lon="9.183870267234754"><ele>834.5</ele><time>2026-04-26T12:14:49.041Z</time></trkpt><trkpt lat="40.18393460301903" lon="9.183747699169"><ele>833.0</ele><time>2026-04-26T12:14:50.041Z</time></trkpt><trkpt lat="40.18369999021361" lon="9.183636181666316"><ele>833.0</ele><time>2026-04-26T12:14:51.041Z</time></trkpt><trkpt lat="40.183471748651925" lon="9.183559432859832"><ele>833.0</ele><time>2026-04-26T12:14:52.041Z</time></trkpt><trkpt lat="40.18325119440507" lon="9.183494519367235"><ele>833.5</ele><time>2026-04-26T12:14:53.041Z</time></trkpt><trkpt lat="40.183022822968404" lon="9.183510416401"><ele>834.0</ele><time>2026-04-26T12:14:54.041Z</time></trkpt><trkpt lat="40.18280119282955" lon="9.183586709944542"><ele>834.0</ele><time>2026-04-26T12:14:55.042Z</time></trkpt><trkpt lat="40.18259741754383" lon="9.183663334873401"><ele>834.0</ele><time>2026-04-26T12:14:56.042Z</time></trkpt><trkpt lat="40.18238582067385" lon="9.183630314872119"><ele>834.0</ele><time>2026-04-26T12:14:57.042Z</time></trkpt><trkpt lat="40.182214474706086" lon="9.183553695068388"><ele>833.6666666666667</ele><time>2026-04-26T12:14:58.042Z</time></trkpt><trkpt lat="40.182042362109506" lon="9.183506342335297"><ele>833.3333333333334</ele><time>2026-04-26T12:14:59.042Z</time></trkpt><trkpt lat="40.18188082626786" lon="9.183543402894145"><ele>833.0</ele><time>2026-04-26T12:15:00.042Z</time></trkpt><trkpt lat="40.18172660430627" lon="9.183662332425135"><ele>833.0</ele><time>2026-04-26T12:15:01.042Z</time></trkpt><trkpt lat="40.18163130606074" lon="9.183864124248098"><ele>833.0</ele><time>2026-04-26T12:15:02.042Z</time></trkpt><trkpt lat="40.18156153298817" lon="9.18409919844208"><ele>833.0</ele><time>2026-04-26T12:15:03.042Z</time></trkpt><trkpt lat="40.181494045784" lon="9.184303655255716"><ele>832.0</ele><time>2026-04-26T12:15:04.042Z</time></trkpt><trkpt lat="40.18138751490896" lon="9.184395056599389"><ele>831.0</ele><time>2026-04-26T12:15:05.042Z</time></trkpt><trkpt lat="40.181262898934996" lon="9.184467167775985"><ele>830.0</ele><time>2026-04-26T12:15:06.042Z</time></trkpt><trkpt lat="40.18109420830687" lon="9.184557089938512"><ele>829.0</ele><time>2026-04-26T12:15:07.042Z</time></trkpt><trkpt lat="40.18089634455744" lon="9.184657171121"><ele>829.0</ele><time>2026-04-26T12:15:08.042Z</time></trkpt><trkpt lat="40.18068279515361" lon="9.184767141943368"><ele>829.0</ele><time>2026-04-26T12:15:09.042Z</time></trkpt><trkpt lat="40.180478837393245" lon="9.184864487810637"><ele>829.0</ele><time>2026-04-26T12:15:10.042Z</time></trkpt><trkpt lat="40.18027106883717" lon="9.184922437671739"><ele>826.0</ele><time>2026-04-26T12:15:11.042Z</time></trkpt><trkpt lat="40.18005206660448" lon="9.18493803594104"><ele>823.0</ele><time>2026-04-26T12:15:12.042Z</time></trkpt><trkpt lat="40.179847073037216" lon="9.184957764993218"><ele>820.0</ele><time>2026-04-26T12:15:13.042Z</time></trkpt><trkpt lat="40.17968121590951" lon="9.18499861616888"><ele>820.0</ele><time>2026-04-26T12:15:14.042Z</time></trkpt><trkpt lat="40.179558054013164" lon="9.185129755326054"><ele>820.0</ele><time>2026-04-26T12:15:15.042Z</time></trkpt><trkpt lat="40.17946301902393" lon="9.185326674817755"><ele>820.0</ele><time>2026-04-26T12:15:16.042Z</time></trkpt><trkpt lat="40.179425161602765" lon="9.1855562165048"><ele>817.6666666666666</ele><time>2026-04-26T12:15:17.042Z</time></trkpt><trkpt lat="40.17936655842022" lon="9.185782536698015"><ele>815.3333333333333</ele><time>2026-04-26T12:15:18.042Z</time></trkpt><trkpt lat="40.179261195523296" lon="9.185935385030573"><ele>813.0</ele><time>2026-04-26T12:15:19.042Z</time></trkpt><trkpt lat="40.17912469273359" lon="9.186049546021106"><ele>812.0</ele><time>2026-04-26T12:15:20.042Z</time></trkpt><trkpt lat="40.17894888273911" lon="9.186107295114883"><ele>811.0</ele><time>2026-04-26T12:15:21.042Z</time></trkpt><trkpt lat="40.178740520307485" lon="9.186048803760452"><ele>810.0</ele><time>2026-04-26T12:15:22.042Z</time></trkpt><trkpt lat="40.17851288842656" lon="9.185991723874562"><ele>810.0</ele><time>2026-04-26T12:15:23.042Z</time></trkpt><trkpt lat="40.17829860745936" lon="9.185977893022807"><ele>810.0</ele><time>2026-04-26T12:15:24.042Z</time></trkpt><trkpt lat="40.178107066051915" lon="9.186045800267772"><ele>810.0</ele><time>2026-04-26T12:15:25.042Z</time></trkpt><trkpt lat="40.17793012392692" lon="9.18619971059431"><ele>810.0</ele><time>2026-04-26T12:15:26.042Z</time></trkpt><trkpt lat="40.17775111342794" lon="9.186415518523674"><ele>810.0</ele><time>2026-04-26T12:15:27.042Z</time></trkpt><trkpt lat="40.1775682620907" lon="9.18664973506138"><ele>808.6666666666667</ele><time>2026-04-26T12:15:28.042Z</time></trkpt><trkpt lat="40.177402201664265" lon="9.18685703543404"><ele>807.3333333333334</ele><time>2026-04-26T12:15:29.042Z</time></trkpt><trkpt lat="40.1772760207662" lon="9.187087225371105"><ele>806.0</ele><time>2026-04-26T12:15:30.042Z</time></trkpt><trkpt lat="40.17719796371161" lon="9.187316419588964"><ele>809.0</ele><time>2026-04-26T12:15:31.042Z</time></trkpt><trkpt lat="40.177173722240695" lon="9.187546768882802"><ele>812.0</ele><time>2026-04-26T12:15:32.042Z</time></trkpt><trkpt lat="40.17721987752913" lon="9.187803301171046"><ele>815.0</ele><time>2026-04-26T12:15:33.042Z</time></trkpt><trkpt lat="40.17730167769821" lon="9.188064787226807"><ele>813.3333333333334</ele><time>2026-04-26T12:15:34.042Z</time></trkpt><trkpt lat="40.17736883577974" lon="9.188321695394025"><ele>811.6666666666667</ele><time>2026-04-26T12:15:35.042Z</time></trkpt><trkpt lat="40.17735263307113" lon="9.188564218556339"><ele>810.0</ele><time>2026-04-26T12:15:36.043Z</time></trkpt><trkpt lat="40.177257953217726" lon="9.188782179558125"><ele>810.0</ele><time>2026-04-26T12:15:37.044Z</time></trkpt><trkpt lat="40.17715819125126" lon="9.188972238817632"><ele>810.0</ele><time>2026-04-26T12:15:38.044Z</time></trkpt><trkpt lat="40.17705415647418" lon="9.189118933870096"><ele>810.0</ele><time>2026-04-26T12:15:39.044Z</time></trkpt><trkpt lat="40.176943013087644" lon="9.18922576136762"><ele>809.5</ele><time>2026-04-26T12:15:40.043Z</time></trkpt><trkpt lat="40.176813290894025" lon="9.18930921953983"><ele>809.0</ele><time>2026-04-26T12:15:41.043Z</time></trkpt><trkpt lat="40.17667707116132" lon="9.189385275907926"><ele>808.5</ele><time>2026-04-26T12:15:42.043Z</time></trkpt><trkpt lat="40.17653518673704" lon="9.189456594446197"><ele>808.0</ele><time>2026-04-26T12:15:43.043Z</time></trkpt><trkpt lat="40.176390327022006" lon="9.18953389462501"><ele>808.0</ele><time>2026-04-26T12:15:44.043Z</time></trkpt><trkpt lat="40.176253939150904" lon="9.189613209130647"><ele>808.0</ele><time>2026-04-26T12:15:45.044Z</time></trkpt><trkpt lat="40.176123660964834" lon="9.18968312142134"><ele>808.0</ele><time>2026-04-26T12:15:46.044Z</time></trkpt><trkpt lat="40.175984036221394" lon="9.189782544091438"><ele>808.0</ele><time>2026-04-26T12:15:47.044Z</time></trkpt><trkpt lat="40.175817141424325" lon="9.189880917509996"><ele>805.6666666666666</ele><time>2026-04-26T12:15:48.044Z</time></trkpt><trkpt lat="40.175631298643815" lon="9.189977589283306"><ele>803.3333333333333</ele><time>2026-04-26T12:15:49.044Z</time></trkpt><trkpt lat="40.17544454363927" lon="9.190109152075312"><ele>801.0</ele><time>2026-04-26T12:15:50.044Z</time></trkpt><trkpt lat="40.17525124267944" lon="9.19024480738817"><ele>801.0</ele><time>2026-04-26T12:15:51.044Z</time></trkpt><trkpt lat="40.175036320276284" lon="9.190359616064178"><ele>801.0</ele><time>2026-04-26T12:15:52.044Z</time></trkpt><trkpt lat="40.17480816104446" lon="9.190450814780325"><ele>801.5</ele><time>2026-04-26T12:15:53.044Z</time></trkpt><trkpt lat="40.174580370904714" lon="9.190528882505571"><ele>802.0</ele><time>2026-04-26T12:15:54.044Z</time></trkpt><trkpt lat="40.174338649217034" lon="9.190589934764686"><ele>802.0</ele><time>2026-04-26T12:15:55.044Z</time></trkpt><trkpt lat="40.174083894301305" lon="9.190649505889539"><ele>802.0</ele><time>2026-04-26T12:15:56.044Z</time></trkpt><trkpt lat="40.17383653642714" lon="9.190712600705968"><ele>797.5</ele><time>2026-04-26T12:15:57.044Z</time></trkpt><trkpt lat="40.17358251815404" lon="9.190775207121996"><ele>793.0</ele><time>2026-04-26T12:15:58.044Z</time></trkpt><trkpt lat="40.17332600038921" lon="9.190812603245044"><ele>794.5</ele><time>2026-04-26T12:15:59.044Z</time></trkpt><trkpt lat="40.17307722992433" lon="9.190870234307381"><ele>796.0</ele><time>2026-04-26T12:16:00.044Z</time></trkpt><trkpt lat="40.172843953178756" lon="9.190920676112517"><ele>796.0</ele><time>2026-04-26T12:16:01.044Z</time></trkpt><trkpt lat="40.17262840195267" lon="9.190993476650203"><ele>796.0</ele><time>2026-04-26T12:16:02.044Z</time></trkpt><trkpt lat="40.17243274216898" lon="9.191121884879877"><ele>796.0</ele><time>2026-04-26T12:16:03.044Z</time></trkpt><trkpt lat="40.17226605056034" lon="9.191301863243611"><ele>800.0</ele><time>2026-04-26T12:16:04.044Z</time></trkpt><trkpt lat="40.17210223795216" lon="9.191505332886436"><ele>804.0</ele><time>2026-04-26T12:16:05.044Z</time></trkpt><trkpt lat="40.1719331150549" lon="9.191699648255497"><ele>798.0</ele><time>2026-04-26T12:16:06.044Z</time></trkpt><trkpt lat="40.171738256484346" lon="9.191806210927602"><ele>792.0</ele><time>2026-04-26T12:16:07.044Z</time></trkpt><trkpt lat="40.17152251619488" lon="9.191857230063526"><ele>786.0</ele><time>2026-04-26T12:16:08.044Z</time></trkpt><trkpt lat="40.17128417791797" lon="9.191879398256628"><ele>786.0</ele><time>2026-04-26T12:16:09.044Z</time></trkpt><trkpt lat="40.17103113048371" lon="9.191892683499523"><ele>786.0</ele><time>2026-04-26T12:16:10.044Z</time></trkpt><trkpt lat="40.17077391165599" lon="9.191917883311126"><ele>788.0</ele><time>2026-04-26T12:16:11.044Z</time></trkpt><trkpt lat="40.1705259423577" lon="9.191950039845809"><ele>790.0</ele><time>2026-04-26T12:16:12.044Z</time></trkpt><trkpt lat="40.170302992742876" lon="9.192024852931283"><ele>790.0</ele><time>2026-04-26T12:16:13.044Z</time></trkpt><trkpt lat="40.17009602175108" lon="9.192105478446619"><ele>790.0</ele><time>2026-04-26T12:16:14.044Z</time></trkpt><trkpt lat="40.1698858343765" lon="9.192151588653408"><ele>790.0</ele><time>2026-04-26T12:16:15.044Z</time></trkpt><trkpt lat="40.16967176404438" lon="9.192111577977933"><ele>790.3333333333333</ele><time>2026-04-26T12:16:16.044Z</time></trkpt><trkpt lat="40.169453461789004" lon="9.19205820055392"><ele>790.6666666666667</ele><time>2026-04-26T12:16:17.044Z</time></trkpt><trkpt lat="40.16923646069438" lon="9.192010414065555"><ele>791.0</ele><time>2026-04-26T12:16:18.044Z</time></trkpt><trkpt lat="40.16901197691055" lon="9.192048605501682"><ele>793.0</ele><time>2026-04-26T12:16:19.044Z</time></trkpt><trkpt lat="40.16878986471777" lon="9.192129987897102"><ele>795.0</ele><time>2026-04-26T12:16:20.044Z</time></trkpt><trkpt lat="40.16857195569398" lon="9.192221789396845"><ele>795.0</ele><time>2026-04-26T12:16:21.044Z</time></trkpt><trkpt lat="40.16837050129363" lon="9.192298286100609"><ele>795.0</ele><time>2026-04-26T12:16:22.044Z</time></trkpt><trkpt lat="40.16817464911704" lon="9.192335098334341"><ele>795.0</ele><time>2026-04-26T12:16:23.044Z</time></trkpt><trkpt lat="40.167971059490384" lon="9.19230751024793"><ele>794.6666666666667</ele><time>2026-04-26T12:16:24.044Z</time></trkpt><trkpt lat="40.167769513087045" lon="9.192225286964463"><ele>794.3333333333334</ele><time>2026-04-26T12:16:25.044Z</time></trkpt><trkpt lat="40.16759495812724" lon="9.192132911367437"><ele>794.0</ele><time>2026-04-26T12:16:26.044Z</time></trkpt><trkpt lat="40.16743689403691" lon="9.192090409902638"><ele>796.6666666666667</ele><time>2026-04-26T12:16:27.044Z</time></trkpt><trkpt lat="40.167281770545436" lon="9.192154598317739"><ele>799.3333333333333</ele><time>2026-04-26T12:16:28.044Z</time></trkpt><trkpt lat="40.16713534491128" lon="9.192309967164068"><ele>802.0</ele><time>2026-04-26T12:16:29.044Z</time></trkpt><trkpt lat="40.167001453153794" lon="9.192498907534683"><ele>794.3333333333333</ele><time>2026-04-26T12:16:30.044Z</time></trkpt><trkpt lat="40.16686475279579" lon="9.1926698368826"><ele>786.6666666666667</ele><time>2026-04-26T12:16:31.044Z</time></trkpt><trkpt lat="40.166714163109866" lon="9.192794162194595"><ele>779.0</ele><time>2026-04-26T12:16:32.044Z</time></trkpt><trkpt lat="40.16653815711156" lon="9.19285912016246"><ele>780.6666666666667</ele><time>2026-04-26T12:16:33.044Z</time></trkpt><trkpt lat="40.166356749889175" lon="9.192920922252222"><ele>782.3333333333333</ele><time>2026-04-26T12:16:34.044Z</time></trkpt><trkpt lat="40.16618851538408" lon="9.193043141027863"><ele>784.0</ele><time>2026-04-26T12:16:35.044Z</time></trkpt><trkpt lat="40.166056947171946" lon="9.19320297057632"><ele>778.6666666666666</ele><time>2026-04-26T12:16:36.044Z</time></trkpt><trkpt lat="40.165945839241836" lon="9.193371493349744"><ele>773.3333333333333</ele><time>2026-04-26T12:16:37.044Z</time></trkpt><trkpt lat="40.165833035061986" lon="9.193508973332571"><ele>768.0</ele><time>2026-04-26T12:16:38.044Z</time></trkpt><trkpt lat="40.16569792348125" lon="9.193605508926682"><ele>765.0</ele><time>2026-04-26T12:16:39.044Z</time></trkpt><trkpt lat="40.16554945831854" lon="9.193634281584576"><ele>762.0</ele><time>2026-04-26T12:16:40.044Z</time></trkpt><trkpt lat="40.16538905684598" lon="9.193596801400904"><ele>759.0</ele><time>2026-04-26T12:16:41.044Z</time></trkpt><trkpt lat="40.16524062634398" lon="9.1935609178194"><ele>759.0</ele><time>2026-04-26T12:16:42.044Z</time></trkpt><trkpt lat="40.16512047979191" lon="9.193508598343794"><ele>759.0</ele><time>2026-04-26T12:16:43.044Z</time></trkpt><trkpt lat="40.16508724706683" lon="9.193370104358785"><ele>759.0</ele><time>2026-04-26T12:16:44.044Z</time></trkpt><trkpt lat="40.16508354398861" lon="9.193228210813604"><ele>759.0</ele><time>2026-04-26T12:16:45.044Z</time></trkpt><trkpt lat="40.16506662313027" lon="9.193074043028139"><ele>760.5</ele><time>2026-04-26T12:16:46.044Z</time></trkpt><trkpt lat="40.165033015702875" lon="9.192924170398873"><ele>762.0</ele><time>2026-04-26T12:16:47.044Z</time></trkpt><trkpt lat="40.16497247812799" lon="9.192784706276843"><ele>763.5</ele><time>2026-04-26T12:16:48.044Z</time></trkpt><trkpt lat="40.16487417524867" lon="9.192678718262624"><ele>765.0</ele><time>2026-04-26T12:16:49.044Z</time></trkpt><trkpt lat="40.164750375115666" lon="9.192629292505245"><ele>765.0</ele><time>2026-04-26T12:16:50.045Z</time></trkpt><trkpt lat="40.164631760932956" lon="9.192653506431759"><ele>765.0</ele><time>2026-04-26T12:16:51.045Z</time></trkpt><trkpt lat="40.16451419927212" lon="9.19264990335738"><ele>765.0</ele><time>2026-04-26T12:16:52.045Z</time></trkpt><trkpt lat="40.16442233146699" lon="9.192687162999906"><ele>765.0</ele><time>2026-04-26T12:16:53.045Z</time></trkpt><trkpt lat="40.16432358064825" lon="9.192694156560199"><ele>765.0</ele><time>2026-04-26T12:16:54.045Z</time></trkpt><trkpt lat="40.1642167460581" lon="9.192702586497465"><ele>765.0</ele><time>2026-04-26T12:16:55.045Z</time></trkpt><trkpt lat="40.16410565661893" lon="9.192676144394051"><ele>765.0</ele><time>2026-04-26T12:16:56.045Z</time></trkpt><trkpt lat="40.164004166546675" lon="9.192636393508495"><ele>765.0</ele><time>2026-04-26T12:16:57.045Z</time></trkpt><trkpt lat="40.16391518523283" lon="9.192568829706312"><ele>765.0</ele><time>2026-04-26T12:16:58.045Z</time></trkpt><trkpt lat="40.16382783506582" lon="9.192482312822714"><ele>765.0</ele><time>2026-04-26T12:16:59.045Z</time></trkpt><trkpt lat="40.16374845222962" lon="9.19238369977073"><ele>768.75</ele><time>2026-04-26T12:17:00.045Z</time></trkpt><trkpt lat="40.16366021378137" lon="9.192284568374827"><ele>772.5</ele><time>2026-04-26T12:17:01.045Z</time></trkpt><trkpt lat="40.16356504645588" lon="9.19221022094555"><ele>776.25</ele><time>2026-04-26T12:17:02.045Z</time></trkpt><trkpt lat="40.16345986523106" lon="9.192158407216501"><ele>780.0</ele><time>2026-04-26T12:17:03.045Z</time></trkpt><trkpt lat="40.16334573246719" lon="9.192124172446624"><ele>780.0</ele><time>2026-04-26T12:17:04.045Z</time></trkpt><trkpt lat="40.16323475406764" lon="9.192108457540952"><ele>780.0</ele><time>2026-04-26T12:17:05.045Z</time></trkpt><trkpt lat="40.163126658080664" lon="9.192105782267324"><ele>780.0</ele><time>2026-04-26T12:17:06.045Z</time></trkpt><trkpt lat="40.16302228808831" lon="9.192134026135264"><ele>780.0</ele><time>2026-04-26T12:17:07.045Z</time></trkpt><trkpt lat="40.16292217394371" lon="9.192184214869895"><ele>780.0</ele><time>2026-04-26T12:17:08.045Z</time></trkpt><trkpt lat="40.162829511732575" lon="9.192243244899384"><ele>778.6</ele><time>2026-04-26T12:17:09.045Z</time></trkpt><trkpt lat="40.1627530891682" lon="9.192314470249148"><ele>777.2</ele><time>2026-04-26T12:17:10.045Z</time></trkpt><trkpt lat="40.16271549662453" lon="9.192419220714516"><ele>775.8</ele><time>2026-04-26T12:17:11.045Z</time></trkpt><trkpt lat="40.162709440990966" lon="9.19253477844975"><ele>774.4</ele><time>2026-04-26T12:17:12.045Z</time></trkpt><trkpt lat="40.16275363736741" lon="9.192660336304906"><ele>773.0</ele><time>2026-04-26T12:17:13.045Z</time></trkpt><trkpt lat="40.162813752941545" lon="9.192767870056285"><ele>773.0</ele><time>2026-04-26T12:17:14.045Z</time></trkpt><trkpt lat="40.162874298377204" lon="9.192875391974775"><ele>773.0</ele><time>2026-04-26T12:17:15.045Z</time></trkpt><trkpt lat="40.16293343370959" lon="9.192984295796812"><ele>773.0</ele><time>2026-04-26T12:17:16.045Z</time></trkpt><trkpt lat="40.162978424005466" lon="9.193097193613829"><ele>773.0</ele><time>2026-04-26T12:17:17.045Z</time></trkpt><trkpt lat="40.16302240637057" lon="9.19321969559824"><ele>773.0</ele><time>2026-04-26T12:17:18.045Z</time></trkpt><trkpt lat="40.16306459362786" lon="9.19334853976628"><ele>772.5999999999999</ele><time>2026-04-26T12:17:19.045Z</time></trkpt><trkpt lat="40.1631015450827" lon="9.193480760967203"><ele>772.1999999999999</ele><time>2026-04-26T12:17:20.045Z</time></trkpt><trkpt lat="40.163115320332516" lon="9.193607123182174"><ele>771.8</ele><time>2026-04-26T12:17:21.045Z</time></trkpt><trkpt lat="40.163105927741434" lon="9.193749718576797"><ele>771.4</ele><time>2026-04-26T12:17:22.045Z</time></trkpt><trkpt lat="40.163083283600585" lon="9.193894286153247"><ele>771.0</ele><time>2026-04-26T12:17:23.045Z</time></trkpt><trkpt lat="40.16305608175514" lon="9.194037971375042"><ele>771.0</ele><time>2026-04-26T12:17:24.045Z</time></trkpt><trkpt lat="40.16303052048419" lon="9.194183697215072"><ele>771.0</ele><time>2026-04-26T12:17:25.045Z</time></trkpt><trkpt lat="40.16301896692892" lon="9.194332762048251"><ele>771.0</ele><time>2026-04-26T12:17:26.045Z</time></trkpt><trkpt lat="40.1629745045456" lon="9.194469672389063"><ele>771.0</ele><time>2026-04-26T12:17:27.045Z</time></trkpt><trkpt lat="40.162931191495744" lon="9.19459735063593"><ele>771.0</ele><time>2026-04-26T12:17:28.045Z</time></trkpt><trkpt lat="40.16285843890129" lon="9.194687402673397"><ele>771.0</ele><time>2026-04-26T12:17:29.045Z</time></trkpt><trkpt lat="40.162779367327545" lon="9.194813115174599"><ele>771.0</ele><time>2026-04-26T12:17:30.045Z</time></trkpt><trkpt lat="40.16271861736125" lon="9.194941127255134"><ele>771.0</ele><time>2026-04-26T12:17:31.045Z</time></trkpt><trkpt lat="40.162651906582354" lon="9.195047324879729"><ele>771.0</ele><time>2026-04-26T12:17:32.045Z</time></trkpt><trkpt lat="40.16257237106855" lon="9.195132779652969"><ele>771.0</ele><time>2026-04-26T12:17:33.045Z</time></trkpt><trkpt lat="40.16250173752172" lon="9.195219978371814"><ele>770.8</ele><time>2026-04-26T12:17:34.045Z</time></trkpt><trkpt lat="40.16243001631447" lon="9.195292288041975"><ele>770.5999999999999</ele><time>2026-04-26T12:17:35.045Z</time></trkpt><trkpt lat="40.162345226896434" lon="9.195355523295712"><ele>770.4</ele><time>2026-04-26T12:17:36.045Z</time></trkpt><trkpt lat="40.16225734779486" lon="9.195421656589195"><ele>770.2</ele><time>2026-04-26T12:17:37.045Z</time></trkpt><trkpt lat="40.16216062914871" lon="9.195472217272277"><ele>770.0</ele><time>2026-04-26T12:17:38.045Z</time></trkpt><trkpt lat="40.16209027973993" lon="9.195536834454007"><ele>770.0000000000001</ele><time>2026-04-26T12:17:39.045Z</time></trkpt><trkpt lat="40.162021900784744" lon="9.19555286066932"><ele>770.0</ele><time>2026-04-26T12:17:40.045Z</time></trkpt><trkpt lat="40.16192720877464" lon="9.195521349218392"><ele>770.0</ele><time>2026-04-26T12:17:42.046Z</time></trkpt><trkpt lat="40.16184927021675" lon="9.195492156455707"><ele>770.0</ele><time>2026-04-26T12:17:44.046Z</time></trkpt><trkpt lat="40.16178202013385" lon="9.195447045882515"><ele>770.0000000000001</ele><time>2026-04-26T12:17:46.046Z</time></trkpt><trkpt lat="40.16171724706922" lon="9.19540142735296"><ele>770.0</ele><time>2026-04-26T12:17:48.046Z</time></trkpt><trkpt lat="40.161634001667856" lon="9.195371019957209"><ele>770.0</ele><time>2026-04-26T12:17:50.047Z</time></trkpt><trkpt lat="40.161540403939924" lon="9.195331444477949"><ele>770.0</ele><time>2026-04-26T12:17:52.047Z</time></trkpt><trkpt lat="40.16144335703695" lon="9.195303634959348"><ele>770.0</ele><time>2026-04-26T12:17:54.047Z</time></trkpt><trkpt lat="40.16133426755003" lon="9.195244298973504"><ele>770.0</ele><time>2026-04-26T12:17:56.047Z</time></trkpt><trkpt lat="40.16122799812604" lon="9.195190543679741"><ele>770.0</ele><time>2026-04-26T12:17:58.047Z</time></trkpt><trkpt lat="40.161139785450644" lon="9.195135677988631"><ele>769.2</ele><time>2026-04-26T12:18:00.047Z</time></trkpt><trkpt lat="40.161023360160385" lon="9.195084876341676"><ele>768.4</ele><time>2026-04-26T12:18:02.047Z</time></trkpt><trkpt lat="40.16098694075419" lon="9.194953024402038"><ele>767.5999999999999</ele><time>2026-04-26T12:18:04.047Z</time></trkpt><trkpt lat="40.16094240317429" lon="9.194822926852403"><ele>766.8</ele><time>2026-04-26T12:18:06.047Z</time></trkpt><trkpt lat="40.16085357822754" lon="9.194749201516686"><ele>766.0</ele><time>2026-04-26T12:18:08.047Z</time></trkpt><trkpt lat="40.160753251196375" lon="9.194695658302045"><ele>769.8</ele><time>2026-04-26T12:18:10.047Z</time></trkpt><trkpt lat="40.160685667628286" lon="9.194660875949976"><ele>773.5999999999999</ele><time>2026-04-26T12:18:13.047Z</time></trkpt><trkpt lat="40.160589969901366" lon="9.194608089036741"><ele>777.4</ele><time>2026-04-26T12:18:18.047Z</time></trkpt><trkpt lat="40.160508307989836" lon="9.194569899751674"><ele>781.2</ele><time>2026-04-26T12:18:19.047Z</time></trkpt><trkpt lat="40.160436267688745" lon="9.194523933971272"><ele>785.0</ele><time>2026-04-26T12:18:20.047Z</time></trkpt><trkpt lat="40.16029935015759" lon="9.19448317285565"><ele>785.0</ele><time>2026-04-26T12:18:22.047Z</time></trkpt><trkpt lat="40.16018075742788" lon="9.194449252946061"><ele>785.0</ele><time>2026-04-26T12:18:24.047Z</time></trkpt><trkpt lat="40.16010831566265" lon="9.194420707560175"><ele>785.0</ele><time>2026-04-26T12:18:25.047Z</time></trkpt><trkpt lat="40.159994382165806" lon="9.194381143489585"><ele>785.0</ele><time>2026-04-26T12:18:27.047Z</time></trkpt><trkpt lat="40.159900902567955" lon="9.19435247589821"><ele>785.0</ele><time>2026-04-26T12:18:29.047Z</time></trkpt><trkpt lat="40.15982619478723" lon="9.194343082038841"><ele>784.0</ele><time>2026-04-26T12:18:31.047Z</time></trkpt><trkpt lat="40.1597515332145" lon="9.19430582950317"><ele>783.0</ele><time>2026-04-26T12:18:34.047Z</time></trkpt><trkpt lat="40.15965921937882" lon="9.194297190784988"><ele>782.0</ele><time>2026-04-26T12:18:37.047Z</time></trkpt><trkpt lat="40.159566675739875" lon="9.194325440081057"><ele>781.0</ele><time>2026-04-26T12:18:39.047Z</time></trkpt><trkpt lat="40.159446865347746" lon="9.19435910541346"><ele>780.0</ele><time>2026-04-26T12:18:41.047Z</time></trkpt><trkpt lat="40.159383496793396" lon="9.19436077743774"><ele>780.0</ele><time>2026-04-26T12:18:43.047Z</time></trkpt><trkpt lat="40.159240720746645" lon="9.194226953075896"><ele>780.0</ele><time>2026-04-26T12:18:45.047Z</time></trkpt><trkpt lat="40.15919860330595" lon="9.194100753721454"><ele>780.0</ele><time>2026-04-26T12:18:47.047Z</time></trkpt><trkpt lat="40.15915979191552" lon="9.194009480979323"><ele>780.0</ele><time>2026-04-26T12:18:49.047Z</time></trkpt><trkpt lat="40.15912300773752" lon="9.193902891135002"><ele>780.8</ele><time>2026-04-26T12:18:52.048Z</time></trkpt><trkpt lat="40.15908058195964" lon="9.193785157828781"><ele>781.6</ele><time>2026-04-26T12:18:54.048Z</time></trkpt><trkpt lat="40.15902174647389" lon="9.193691560663325"><ele>782.4000000000001</ele><time>2026-04-26T12:18:57.048Z</time></trkpt><trkpt lat="40.15893459428708" lon="9.193628526434184"><ele>783.2</ele><time>2026-04-26T12:18:59.048Z</time></trkpt><trkpt lat="40.15884992408869" lon="9.193536070540738"><ele>784.0</ele><time>2026-04-26T12:19:01.048Z</time></trkpt><trkpt lat="40.15875871596512" lon="9.19344480342311"><ele>783.8000000000001</ele><time>2026-04-26T12:19:03.048Z</time></trkpt><trkpt lat="40.15871707960363" lon="9.193376618003212"><ele>783.6</ele><time>2026-04-26T12:19:04.048Z</time></trkpt><trkpt lat="40.158662551495325" lon="9.193327202003276"><ele>783.4</ele><time>2026-04-26T12:19:05.048Z</time></trkpt><trkpt lat="40.158556639125834" lon="9.193259887523864"><ele>783.2</ele><time>2026-04-26T12:19:07.048Z</time></trkpt><trkpt lat="40.15845482302372" lon="9.193192333576027"><ele>783.0</ele><time>2026-04-26T12:19:09.048Z</time></trkpt><trkpt lat="40.158375809982935" lon="9.19310691389248"><ele>783.0</ele><time>2026-04-26T12:19:11.048Z</time></trkpt><trkpt lat="40.158303653730925" lon="9.19304369452959"><ele>783.0</ele><time>2026-04-26T12:19:13.048Z</time></trkpt><trkpt lat="40.15824112658999" lon="9.19302194841919"><ele>783.0</ele><time>2026-04-26T12:19:15.048Z</time></trkpt><trkpt lat="40.15816481201975" lon="9.193021499577624"><ele>783.0</ele><time>2026-04-26T12:19:16.048Z</time></trkpt><trkpt lat="40.158127786578284" lon="9.193094350221081"><ele>783.0</ele><time>2026-04-26T12:19:17.048Z</time></trkpt><trkpt lat="40.158066218863326" lon="9.193135689153896"><ele>783.0</ele><time>2026-04-26T12:19:19.048Z</time></trkpt><trkpt lat="40.15798489235892" lon="9.19310538079053"><ele>783.0</ele><time>2026-04-26T12:19:21.048Z</time></trkpt><trkpt lat="40.15791082828192" lon="9.193090624524471"><ele>783.5999999999999</ele><time>2026-04-26T12:19:23.048Z</time></trkpt><trkpt lat="40.15784939668335" lon="9.193111222185584"><ele>784.1999999999999</ele><time>2026-04-26T12:19:27.048Z</time></trkpt><trkpt lat="40.15791077248102" lon="9.193090643275417"><ele>784.8</ele><time>2026-04-26T12:19:29.048Z</time></trkpt><trkpt lat="40.15798245331793" lon="9.193066609122134"><ele>785.4</ele><time>2026-04-26T12:19:30.048Z</time></trkpt><trkpt lat="40.15804110357777" lon="9.193025040668429"><ele>786.0</ele><time>2026-04-26T12:19:31.048Z</time></trkpt><trkpt lat="40.15761819273999" lon="9.193027883838486"><ele>786.0</ele><time>2026-04-26T12:19:32.048Z</time></trkpt><trkpt lat="40.15813025770142" lon="9.192844345136672"><ele>785.5</ele><time>2026-04-26T12:19:34.048Z</time></trkpt><trkpt lat="40.15820805277866" lon="9.192816391962575"><ele>785.0</ele><time>2026-04-26T12:19:36.048Z</time></trkpt><trkpt lat="40.158308509282726" lon="9.192765204906507"><ele>784.5</ele><time>2026-04-26T12:19:38.048Z</time></trkpt><trkpt lat="40.15836612151894" lon="9.192715628045443"><ele>784.0</ele><time>2026-04-26T12:19:40.048Z</time></trkpt><trkpt lat="40.15839561812676" lon="9.192627928157494"><ele>783.5</ele><time>2026-04-26T12:19:44.048Z</time></trkpt><trkpt lat="40.15831278767018" lon="9.192587484877173"><ele>783.0</ele><time>2026-04-26T12:19:47.049Z</time></trkpt><trkpt lat="40.158259940541456" lon="9.192531594701004"><ele>783.0</ele><time>2026-04-26T12:19:49.049Z</time></trkpt><trkpt lat="40.158186441934404" lon="9.192510289956791"><ele>786.0</ele><time>2026-04-26T12:19:51.049Z</time></trkpt><trkpt lat="40.15813295435424" lon="9.19245063262191"><ele>786.0</ele><time>2026-04-26T12:19:54.049Z</time></trkpt></trkseg><trkseg><trkpt lat="40.15820705338054" lon="9.192503848325321"><ele>784.0</ele><time>2026-04-26T14:49:47.866Z</time></trkpt><trkpt lat="40.15906142005622" lon="9.19362995332046"><ele>781.1666666666666</ele><time>2026-04-26T14:52:00.863Z</time></trkpt><trkpt lat="40.15898716609832" lon="9.193589762984459"><ele>778.3333333333333</ele><time>2026-04-26T14:52:07.863Z</time></trkpt><trkpt lat="40.15892003840769" lon="9.193574164420577"><ele>775.5</ele><time>2026-04-26T14:52:09.863Z</time></trkpt><trkpt lat="40.1588524436859" lon="9.193525703232545"><ele>772.6666666666666</ele><time>2026-04-26T14:52:12.863Z</time></trkpt><trkpt lat="40.15879028940495" lon="9.193427806779768"><ele>769.8333333333333</ele><time>2026-04-26T14:52:14.863Z</time></trkpt><trkpt lat="40.158697695076846" lon="9.19337347784701"><ele>767.0</ele><time>2026-04-26T14:52:16.862Z</time></trkpt><trkpt lat="40.1586156242416" lon="9.193295064300516"><ele>767.0</ele><time>2026-04-26T14:52:18.862Z</time></trkpt><trkpt lat="40.15854647166408" lon="9.193198806705247"><ele>767.0</ele><time>2026-04-26T14:52:20.862Z</time></trkpt><trkpt lat="40.158490291574985" lon="9.19325201263922"><ele>767.0</ele><time>2026-04-26T14:52:23.862Z</time></trkpt><trkpt lat="40.15843070056057" lon="9.19335899938578"><ele>767.0</ele><time>2026-04-26T14:52:26.862Z</time></trkpt><trkpt lat="40.158363434966105" lon="9.193381667016244"><ele>767.0</ele><time>2026-04-26T14:52:31.862Z</time></trkpt><trkpt lat="40.158245533478905" lon="9.19330417351843"><ele>766.5</ele><time>2026-04-26T14:52:33.862Z</time></trkpt><trkpt lat="40.158158255870234" lon="9.19331644427466"><ele>766.0</ele><time>2026-04-26T14:52:34.862Z</time></trkpt><trkpt lat="40.15806015963497" lon="9.193337261047722"><ele>765.5</ele><time>2026-04-26T14:52:35.862Z</time></trkpt><trkpt lat="40.15798298774986" lon="9.193367664150792"><ele>765.0</ele><time>2026-04-26T14:52:36.862Z</time></trkpt><trkpt lat="40.157903370810104" lon="9.193396048092445"><ele>764.5</ele><time>2026-04-26T14:52:37.862Z</time></trkpt><trkpt lat="40.157831261251694" lon="9.1934555058413"><ele>764.0</ele><time>2026-04-26T14:52:38.862Z</time></trkpt><trkpt lat="40.15774761908332" lon="9.193514463710713"><ele>764.0</ele><time>2026-04-26T14:52:39.862Z</time></trkpt><trkpt lat="40.157660507727336" lon="9.193551182022698"><ele>764.0</ele><time>2026-04-26T14:52:40.862Z</time></trkpt><trkpt lat="40.15756609297223" lon="9.193576849679289"><ele>764.0</ele><time>2026-04-26T14:52:41.862Z</time></trkpt><trkpt lat="40.15748243395177" lon="9.193596171675699"><ele>764.0</ele><time>2026-04-26T14:52:42.862Z</time></trkpt><trkpt lat="40.15739555573769" lon="9.193620227173533"><ele>764.0</ele><time>2026-04-26T14:52:43.862Z</time></trkpt><trkpt lat="40.157305136222334" lon="9.19363678748173"><ele>765.3333333333333</ele><time>2026-04-26T14:52:44.862Z</time></trkpt><trkpt lat="40.15722273504144" lon="9.193632695588951"><ele>766.6666666666666</ele><time>2026-04-26T14:52:45.861Z</time></trkpt><trkpt lat="40.15712447313515" lon="9.193634090265007"><ele>768.0</ele><time>2026-04-26T14:52:46.861Z</time></trkpt><trkpt lat="40.15704488354232" lon="9.193654984763338"><ele>769.3333333333333</ele><time>2026-04-26T14:52:47.861Z</time></trkpt><trkpt lat="40.15695446678593" lon="9.193678072998495"><ele>770.6666666666666</ele><time>2026-04-26T14:52:48.861Z</time></trkpt><trkpt lat="40.1568712703582" lon="9.193734328778735"><ele>772.0</ele><time>2026-04-26T14:52:49.861Z</time></trkpt><trkpt lat="40.15158942884773" lon="9.195383508112895"><ele>758.5</ele><time>2026-04-26T14:53:50.86Z</time></trkpt><trkpt lat="40.15147105124423" lon="9.19533774230472"><ele>745.0</ele><time>2026-04-26T14:53:51.86Z</time></trkpt><trkpt lat="40.151345054041734" lon="9.195366874120014"><ele>731.5</ele><time>2026-04-26T14:53:52.86Z</time></trkpt><trkpt lat="40.151234460327096" lon="9.195480361677797"><ele>718.0</ele><time>2026-04-26T14:53:53.86Z</time></trkpt><trkpt lat="40.15113968545998" lon="9.195621317831353"><ele>713.5</ele><time>2026-04-26T14:53:54.86Z</time></trkpt><trkpt lat="40.15100913839099" lon="9.195699528049873"><ele>709.0</ele><time>2026-04-26T14:53:55.86Z</time></trkpt><trkpt lat="40.15086273150485" lon="9.195708958686028"><ele>704.5</ele><time>2026-04-26T14:53:56.86Z</time></trkpt><trkpt lat="40.15072393301345" lon="9.195760006233881"><ele>700.0</ele><time>2026-04-26T14:53:57.86Z</time></trkpt><trkpt lat="40.15060572803099" lon="9.195879202487664"><ele>699.0</ele><time>2026-04-26T14:53:58.86Z</time></trkpt><trkpt lat="40.15047227605252" lon="9.195950757592104"><ele>698.0</ele><time>2026-04-26T14:53:59.86Z</time></trkpt><trkpt lat="40.15031792323347" lon="9.195928775291764"><ele>697.0</ele><time>2026-04-26T14:54:00.86Z</time></trkpt><trkpt lat="40.15018097107137" lon="9.195844010966137"><ele>697.0</ele><time>2026-04-26T14:54:01.86Z</time></trkpt><trkpt lat="40.15005537781809" lon="9.195745961420188"><ele>697.0</ele><time>2026-04-26T14:54:02.86Z</time></trkpt><trkpt lat="40.14992379272619" lon="9.195699463221079"><ele>697.0</ele><time>2026-04-26T14:54:03.86Z</time></trkpt><trkpt lat="40.14977129053205" lon="9.195731364577371"><ele>697.0</ele><time>2026-04-26T14:54:04.86Z</time></trkpt><trkpt lat="40.1496260562527" lon="9.195824023804143"><ele>700.0</ele><time>2026-04-26T14:54:05.86Z</time></trkpt><trkpt lat="40.14950130304043" lon="9.195963150046207"><ele>703.0</ele><time>2026-04-26T14:54:06.859Z</time></trkpt><trkpt lat="40.149413580527344" lon="9.196140224755645"><ele>706.0</ele><time>2026-04-26T14:54:07.859Z</time></trkpt><trkpt lat="40.149371825418925" lon="9.196338152418646"><ele>703.3333333333334</ele><time>2026-04-26T14:54:08.859Z</time></trkpt><trkpt lat="40.1493770422307" lon="9.196543166731706"><ele>700.6666666666666</ele><time>2026-04-26T14:54:09.859Z</time></trkpt><trkpt lat="40.14940773480345" lon="9.196749778308574"><ele>698.0</ele><time>2026-04-26T14:54:10.859Z</time></trkpt><trkpt lat="40.14942367462064" lon="9.196944538657455"><ele>698.0</ele><time>2026-04-26T14:54:11.859Z</time></trkpt><trkpt lat="40.14940276435856" lon="9.197127768414703"><ele>698.0</ele><time>2026-04-26T14:54:12.859Z</time></trkpt><trkpt lat="40.149327442341274" lon="9.197250942629287"><ele>698.0</ele><time>2026-04-26T14:54:13.859Z</time></trkpt><trkpt lat="40.14918819309278" lon="9.197290334666667"><ele>698.0</ele><time>2026-04-26T14:54:14.859Z</time></trkpt><trkpt lat="40.14905132105622" lon="9.197354892205208"><ele>693.3333333333333</ele><time>2026-04-26T14:54:15.859Z</time></trkpt><trkpt lat="40.14890289903599" lon="9.197413816961967"><ele>688.6666666666666</ele><time>2026-04-26T14:54:16.859Z</time></trkpt><trkpt lat="40.14874219725095" lon="9.197458620955917"><ele>684.0</ele><time>2026-04-26T14:54:17.859Z</time></trkpt><trkpt lat="40.148579188656356" lon="9.197477269348834"><ele>684.0</ele><time>2026-04-26T14:54:18.859Z</time></trkpt><trkpt lat="40.148408012425094" lon="9.197482149180214"><ele>684.0</ele><time>2026-04-26T14:54:19.859Z</time></trkpt><trkpt lat="40.148239389377984" lon="9.19744108614458"><ele>684.0</ele><time>2026-04-26T14:54:20.859Z</time></trkpt><trkpt lat="40.14808787840476" lon="9.197427930141714"><ele>685.0</ele><time>2026-04-26T14:54:21.859Z</time></trkpt><trkpt lat="40.14795833398383" lon="9.197498966263064"><ele>686.0</ele><time>2026-04-26T14:54:22.859Z</time></trkpt><trkpt lat="40.147834048377646" lon="9.197583294594164"><ele>687.0</ele><time>2026-04-26T14:54:23.859Z</time></trkpt><trkpt lat="40.14768118916841" lon="9.197588048564745"><ele>688.0</ele><time>2026-04-26T14:54:24.859Z</time></trkpt><trkpt lat="40.147542883000014" lon="9.19758399737975"><ele>688.0</ele><time>2026-04-26T14:54:25.859Z</time></trkpt><trkpt lat="40.147437132563816" lon="9.197636078911328"><ele>688.0</ele><time>2026-04-26T14:54:26.859Z</time></trkpt><trkpt lat="40.1473903049962" lon="9.197768184209659"><ele>688.0</ele><time>2026-04-26T14:54:27.859Z</time></trkpt><trkpt lat="40.14741042000603" lon="9.197919492814576"><ele>688.0</ele><time>2026-04-26T14:54:28.859Z</time></trkpt><trkpt lat="40.14744053526289" lon="9.19808577700908"><ele>686.0</ele><time>2026-04-26T14:54:29.859Z</time></trkpt><trkpt lat="40.1473921523416" lon="9.198233468859208"><ele>684.0</ele><time>2026-04-26T14:54:30.859Z</time></trkpt><trkpt lat="40.14728525214029" lon="9.198342078998142"><ele>682.0</ele><time>2026-04-26T14:54:31.859Z</time></trkpt><trkpt lat="40.1472200295198" lon="9.198496696426053"><ele>680.0</ele><time>2026-04-26T14:54:32.859Z</time></trkpt><trkpt lat="40.14724805363013" lon="9.1986845461608"><ele>680.0</ele><time>2026-04-26T14:54:33.859Z</time></trkpt><trkpt lat="40.147299379397516" lon="9.19885528403367"><ele>680.0</ele><time>2026-04-26T14:54:34.859Z</time></trkpt><trkpt lat="40.14735097063804" lon="9.199018425932485"><ele>680.0</ele><time>2026-04-26T14:54:35.859Z</time></trkpt><trkpt lat="40.14738533193768" lon="9.199168632850464"><ele>680.0</ele><time>2026-04-26T14:54:36.858Z</time></trkpt><trkpt lat="40.14733665668138" lon="9.19930171714708"><ele>676.0</ele><time>2026-04-26T14:54:37.858Z</time></trkpt><trkpt lat="40.147227980739316" lon="9.199383416797701"><ele>672.0</ele><time>2026-04-26T14:54:38.858Z</time></trkpt><trkpt lat="40.147081090966296" lon="9.199404945372851"><ele>668.0</ele><time>2026-04-26T14:54:39.858Z</time></trkpt><trkpt lat="40.146928566936225" lon="9.199466591779148"><ele>664.0</ele><time>2026-04-26T14:54:40.858Z</time></trkpt><trkpt lat="40.146766812597605" lon="9.199482453496024"><ele>664.0</ele><time>2026-04-26T14:54:41.858Z</time></trkpt><trkpt lat="40.14660764132916" lon="9.199455833773413"><ele>664.0</ele><time>2026-04-26T14:54:42.858Z</time></trkpt><trkpt lat="40.14644492321509" lon="9.19942114684757"><ele>664.0</ele><time>2026-04-26T14:54:43.858Z</time></trkpt><trkpt lat="40.14627565268267" lon="9.199400784083748"><ele>663.0</ele><time>2026-04-26T14:54:44.858Z</time></trkpt><trkpt lat="40.14610167265039" lon="9.199429817853277"><ele>662.0</ele><time>2026-04-26T14:54:45.858Z</time></trkpt><trkpt lat="40.145933204152335" lon="9.199499690398211"><ele>661.0</ele><time>2026-04-26T14:54:46.858Z</time></trkpt><trkpt lat="40.14576919174758" lon="9.199585845758591"><ele>658.0</ele><time>2026-04-26T14:54:47.858Z</time></trkpt><trkpt lat="40.14561237235324" lon="9.199644654750498"><ele>655.0</ele><time>2026-04-26T14:54:48.858Z</time></trkpt><trkpt lat="40.14549469322588" lon="9.199734398487237"><ele>652.0</ele><time>2026-04-26T14:54:49.858Z</time></trkpt><trkpt lat="40.13628391304339" lon="9.205694870055023"><ele>647.5</ele><time>2026-04-26T14:55:50.858Z</time></trkpt><trkpt lat="40.13628712142689" lon="9.206026748925472"><ele>643.0</ele><time>2026-04-26T14:55:51.858Z</time></trkpt><trkpt lat="40.136249355159855" lon="9.206297079928365"><ele>646.0</ele><time>2026-04-26T14:55:52.858Z</time></trkpt><trkpt lat="40.13613699167617" lon="9.206510384666451"><ele>649.0</ele><time>2026-04-26T14:55:53.858Z</time></trkpt><trkpt lat="40.13598531731897" lon="9.206748640217974"><ele>652.0</ele><time>2026-04-26T14:55:54.858Z</time></trkpt><trkpt lat="40.13583642419111" lon="9.207004683394475"><ele>652.0</ele><time>2026-04-26T14:55:55.858Z</time></trkpt><trkpt lat="40.13564906843109" lon="9.207215697369808"><ele>652.0</ele><time>2026-04-26T14:55:56.858Z</time></trkpt><trkpt lat="40.13544350341217" lon="9.207377874639729"><ele>652.0</ele><time>2026-04-26T14:55:57.858Z</time></trkpt><trkpt lat="40.13521309773613" lon="9.207525282511494"><ele>652.0</ele><time>2026-04-26T14:55:58.858Z</time></trkpt><trkpt lat="40.134988104057854" lon="9.207671636536025"><ele>646.0</ele><time>2026-04-26T14:55:59.858Z</time></trkpt><trkpt lat="40.13475870713723" lon="9.207812666466229"><ele>640.0</ele><time>2026-04-26T14:56:00.858Z</time></trkpt><trkpt lat="40.134541205401995" lon="9.207945832803341"><ele>640.0</ele><time>2026-04-26T14:56:01.858Z</time></trkpt><trkpt lat="40.13435069704249" lon="9.208069679111654"><ele>640.0</ele><time>2026-04-26T14:56:02.858Z</time></trkpt><trkpt lat="40.13421246780203" lon="9.208217281822836"><ele>640.0</ele><time>2026-04-26T14:56:03.858Z</time></trkpt><trkpt lat="40.134146602303204" lon="9.208414126065403"><ele>644.3333333333334</ele><time>2026-04-26T14:56:04.858Z</time></trkpt><trkpt lat="40.134132454336424" lon="9.208648703367214"><ele>648.6666666666666</ele><time>2026-04-26T14:56:05.858Z</time></trkpt><trkpt lat="40.13419421990755" lon="9.208956729744761"><ele>653.0</ele><time>2026-04-26T14:56:06.858Z</time></trkpt><trkpt lat="40.134297991944216" lon="9.209277283833423"><ele>654.0</ele><time>2026-04-26T14:56:07.858Z</time></trkpt><trkpt lat="40.13440509529202" lon="9.209604997676108"><ele>655.0</ele><time>2026-04-26T14:56:08.857Z</time></trkpt><trkpt lat="40.13450318484993" lon="9.209920686792602"><ele>651.5</ele><time>2026-04-26T14:56:09.857Z</time></trkpt><trkpt lat="40.13462367480256" lon="9.210213015536509"><ele>648.0</ele><time>2026-04-26T14:56:10.857Z</time></trkpt><trkpt lat="40.13475828375526" lon="9.210459519604267"><ele>647.6666666666666</ele><time>2026-04-26T14:56:11.857Z</time></trkpt><trkpt lat="40.13487126493849" lon="9.210676292004004"><ele>647.3333333333333</ele><time>2026-04-26T14:56:12.857Z</time></trkpt><trkpt lat="40.134917062695735" lon="9.210920173636167"><ele>647.0</ele><time>2026-04-26T14:56:13.857Z</time></trkpt><trkpt lat="40.13489136487391" lon="9.211175481625233"><ele>647.0</ele><time>2026-04-26T14:56:14.857Z</time></trkpt><trkpt lat="40.134788481814304" lon="9.21142718357384"><ele>647.0</ele><time>2026-04-26T14:56:15.857Z</time></trkpt><trkpt lat="40.1346357365924" lon="9.211665777511747"><ele>647.5</ele><time>2026-04-26T14:56:16.857Z</time></trkpt><trkpt lat="40.1344801728651" lon="9.211924921349677"><ele>648.0</ele><time>2026-04-26T14:56:17.857Z</time></trkpt><trkpt lat="40.134319462782265" lon="9.212132292409649"><ele>651.0</ele><time>2026-04-26T14:56:18.857Z</time></trkpt><trkpt lat="40.13419603586647" lon="9.212356173609482"><ele>654.0</ele><time>2026-04-26T14:56:19.857Z</time></trkpt><trkpt lat="40.1341143583761" lon="9.21260549402773"><ele>657.0</ele><time>2026-04-26T14:56:20.857Z</time></trkpt><trkpt lat="40.134057438655894" lon="9.21287017833816"><ele>651.0</ele><time>2026-04-26T14:56:21.857Z</time></trkpt><trkpt lat="40.13398963056693" lon="9.213101322033758"><ele>645.0</ele><time>2026-04-26T14:56:22.857Z</time></trkpt><trkpt lat="40.133898593986096" lon="9.213253396725623"><ele>639.0</ele><time>2026-04-26T14:56:23.857Z</time></trkpt><trkpt lat="40.13378923750594" lon="9.213345378568413"><ele>639.0</ele><time>2026-04-26T14:56:24.857Z</time></trkpt><trkpt lat="40.133659426811136" lon="9.213414618008375"><ele>639.0</ele><time>2026-04-26T14:56:25.857Z</time></trkpt><trkpt lat="40.133492913918786" lon="9.213357841476974"><ele>639.0</ele><time>2026-04-26T14:56:26.857Z</time></trkpt><trkpt lat="40.133325931704064" lon="9.213333146820467"><ele>639.3333333333334</ele><time>2026-04-26T14:56:27.857Z</time></trkpt><trkpt lat="40.13315360801472" lon="9.213324396649302"><ele>639.6666666666667</ele><time>2026-04-26T14:56:28.857Z</time></trkpt><trkpt lat="40.132975999281676" lon="9.213300511445858"><ele>640.0</ele><time>2026-04-26T14:56:29.857Z</time></trkpt><trkpt lat="40.132803430393146" lon="9.21327952201629"><ele>640.0</ele><time>2026-04-26T14:56:30.857Z</time></trkpt><trkpt lat="40.13262833172723" lon="9.213260558754142"><ele>640.0</ele><time>2026-04-26T14:56:31.857Z</time></trkpt><trkpt lat="40.13245083756189" lon="9.213237229740923"><ele>640.0</ele><time>2026-04-26T14:56:32.857Z</time></trkpt><trkpt lat="40.13227266075953" lon="9.213197975298176"><ele>645.0</ele><time>2026-04-26T14:56:33.857Z</time></trkpt><trkpt lat="40.1321050987608" lon="9.21318622145097"><ele>650.0</ele><time>2026-04-26T14:56:34.857Z</time></trkpt><trkpt lat="40.13195955584779" lon="9.213160050676787"><ele>655.0</ele><time>2026-04-26T14:56:35.857Z</time></trkpt><trkpt lat="40.13183032745121" lon="9.21308658992393"><ele>655.0</ele><time>2026-04-26T14:56:36.857Z</time></trkpt><trkpt lat="40.13173042777364" lon="9.21288980396616"><ele>655.0</ele><time>2026-04-26T14:56:37.856Z</time></trkpt><trkpt lat="40.13159583748255" lon="9.212697168988846"><ele>655.0</ele><time>2026-04-26T14:56:38.856Z</time></trkpt><trkpt lat="40.13144950123401" lon="9.212515697520445"><ele>654.3333333333334</ele><time>2026-04-26T14:56:39.856Z</time></trkpt><trkpt lat="40.13131671572553" lon="9.212325678898553"><ele>653.6666666666666</ele><time>2026-04-26T14:56:40.856Z</time></trkpt><trkpt lat="40.131158176795395" lon="9.212141778084579"><ele>653.0</ele><time>2026-04-26T14:56:41.856Z</time></trkpt><trkpt lat="40.13097845188527" lon="9.211997469125203"><ele>653.0</ele><time>2026-04-26T14:56:42.856Z</time></trkpt><trkpt lat="40.130786281512584" lon="9.211908167671167"><ele>653.0</ele><time>2026-04-26T14:56:43.856Z</time></trkpt><trkpt lat="40.130571306987335" lon="9.211886485409797"><ele>653.0</ele><time>2026-04-26T14:56:44.856Z</time></trkpt><trkpt lat="40.13032853658827" lon="9.211958495212473"><ele>653.3333333333333</ele><time>2026-04-26T14:56:45.856Z</time></trkpt><trkpt lat="40.13010458903347" lon="9.212043356780383"><ele>653.6666666666666</ele><time>2026-04-26T14:56:46.856Z</time></trkpt><trkpt lat="40.129909271473316" lon="9.212037624460034"><ele>654.0</ele><time>2026-04-26T14:56:47.856Z</time></trkpt><trkpt lat="40.12973779099057" lon="9.2120301576997"><ele>653.5</ele><time>2026-04-26T14:56:48.856Z</time></trkpt><trkpt lat="40.12957033781039" lon="9.211920243469574"><ele>653.0</ele><time>2026-04-26T14:56:49.856Z</time></trkpt><trkpt lat="40.11856722228177" lon="9.207392114418461"><ele>649.5</ele><time>2026-04-26T14:57:50.855Z</time></trkpt><trkpt lat="40.118413143181556" lon="9.20715284792386"><ele>646.0</ele><time>2026-04-26T14:57:51.855Z</time></trkpt><trkpt lat="40.11826346805122" lon="9.20687988357827"><ele>642.0</ele><time>2026-04-26T14:57:52.855Z</time></trkpt><trkpt lat="40.118094253208575" lon="9.20654169033602"><ele>638.0</ele><time>2026-04-26T14:57:53.855Z</time></trkpt><trkpt lat="40.117918846523544" lon="9.206197130918289"><ele>638.0</ele><time>2026-04-26T14:57:54.855Z</time></trkpt><trkpt lat="40.1177371393034" lon="9.20586582717921"><ele>638.0</ele><time>2026-04-26T14:57:55.855Z</time></trkpt><trkpt lat="40.117591858352995" lon="9.205552506891749"><ele>643.5</ele><time>2026-04-26T14:57:56.855Z</time></trkpt><trkpt lat="40.117451360226845" lon="9.205282094335345"><ele>649.0</ele><time>2026-04-26T14:57:57.855Z</time></trkpt><trkpt lat="40.11731296105258" lon="9.205053580989896"><ele>654.6666666666667</ele><time>2026-04-26T14:57:58.855Z</time></trkpt><trkpt lat="40.117224766045155" lon="9.20485477934542"><ele>660.3333333333334</ele><time>2026-04-26T14:57:59.855Z</time></trkpt><trkpt lat="40.11716450355169" lon="9.204678074498293"><ele>666.0</ele><time>2026-04-26T14:58:00.855Z</time></trkpt><trkpt lat="40.11717246017173" lon="9.204470375636797"><ele>666.0</ele><time>2026-04-26T14:58:01.855Z</time></trkpt><trkpt lat="40.117237204599704" lon="9.204221126240096"><ele>666.0</ele><time>2026-04-26T14:58:02.854Z</time></trkpt><trkpt lat="40.11737238236778" lon="9.203963800746862"><ele>666.0</ele><time>2026-04-26T14:58:03.854Z</time></trkpt><trkpt lat="40.117534739301604" lon="9.203707615898606"><ele>666.0</ele><time>2026-04-26T14:58:04.854Z</time></trkpt><trkpt lat="40.117673203337255" lon="9.203466832758128"><ele>666.0</ele><time>2026-04-26T14:58:05.854Z</time></trkpt><trkpt lat="40.117857617824484" lon="9.203404636605317"><ele>666.0</ele><time>2026-04-26T14:58:06.854Z</time></trkpt><trkpt lat="40.11807066094185" lon="9.20338176853616"><ele>664.5</ele><time>2026-04-26T14:58:07.854Z</time></trkpt><trkpt lat="40.118351230799206" lon="9.203373366645284"><ele>663.0</ele><time>2026-04-26T14:58:08.854Z</time></trkpt><trkpt lat="40.11865081282365" lon="9.203353405752907"><ele>663.0</ele><time>2026-04-26T14:58:09.854Z</time></trkpt><trkpt lat="40.118923079839035" lon="9.20332543914656"><ele>663.0</ele><time>2026-04-26T14:58:10.854Z</time></trkpt><trkpt lat="40.11918165086157" lon="9.203195842595134"><ele>675.0</ele><time>2026-04-26T14:58:11.854Z</time></trkpt><trkpt lat="40.11948256956277" lon="9.202963037745018"><ele>687.0</ele><time>2026-04-26T14:58:12.854Z</time></trkpt><trkpt lat="40.11978995751885" lon="9.20273668711749"><ele>680.5</ele><time>2026-04-26T14:58:13.854Z</time></trkpt><trkpt lat="40.120075770035534" lon="9.202614352869073"><ele>674.0</ele><time>2026-04-26T14:58:14.854Z</time></trkpt><trkpt lat="40.12037305253077" lon="9.202502662654165"><ele>674.0</ele><time>2026-04-26T14:58:15.854Z</time></trkpt><trkpt lat="40.12065636255561" lon="9.202430489848402"><ele>674.0</ele><time>2026-04-26T14:58:16.854Z</time></trkpt><trkpt lat="40.12089205143192" lon="9.202464752435258"><ele>671.0</ele><time>2026-04-26T14:58:17.854Z</time></trkpt><trkpt lat="40.12115012589667" lon="9.202552572325036"><ele>668.0</ele><time>2026-04-26T14:58:18.854Z</time></trkpt><trkpt lat="40.121430500770764" lon="9.202636808530274"><ele>669.0</ele><time>2026-04-26T14:58:19.854Z</time></trkpt><trkpt lat="40.121707485095314" lon="9.202673620025807"><ele>670.0</ele><time>2026-04-26T14:58:20.854Z</time></trkpt><trkpt lat="40.12195022201332" lon="9.20261031986637"><ele>670.0</ele><time>2026-04-26T14:58:21.854Z</time></trkpt><trkpt lat="40.122174312509784" lon="9.20248817240097"><ele>670.0</ele><time>2026-04-26T14:58:22.854Z</time></trkpt><trkpt lat="40.122392387619975" lon="9.20242187291051"><ele>669.0</ele><time>2026-04-26T14:58:23.854Z</time></trkpt><trkpt lat="40.12262242503435" lon="9.202443224640342"><ele>668.0</ele><time>2026-04-26T14:58:24.854Z</time></trkpt><trkpt lat="40.12291017238255" lon="9.20248251415208"><ele>668.0</ele><time>2026-04-26T14:58:25.854Z</time></trkpt><trkpt lat="40.12319734245076" lon="9.202507423566187"><ele>668.0</ele><time>2026-04-26T14:58:26.854Z</time></trkpt><trkpt lat="40.12350501978077" lon="9.202459090409569"><ele>667.5</ele><time>2026-04-26T14:58:27.854Z</time></trkpt><trkpt lat="40.123833040266064" lon="9.202380660099601"><ele>667.0</ele><time>2026-04-26T14:58:28.854Z</time></trkpt><trkpt lat="40.12416361853311" lon="9.202303907954285"><ele>672.0</ele><time>2026-04-26T14:58:29.854Z</time></trkpt><trkpt lat="40.12444627718683" lon="9.202242285395753"><ele>677.0</ele><time>2026-04-26T14:58:30.854Z</time></trkpt><trkpt lat="40.12468617638015" lon="9.20221818437388"><ele>672.0</ele><time>2026-04-26T14:58:31.853Z</time></trkpt><trkpt lat="40.12491041655987" lon="9.202269359941795"><ele>667.0</ele><time>2026-04-26T14:58:32.853Z</time></trkpt><trkpt lat="40.125135757640315" lon="9.202363082867778"><ele>667.0</ele><time>2026-04-26T14:58:33.853Z</time></trkpt><trkpt lat="40.12536127301725" lon="9.202456630704038"><ele>667.0</ele><time>2026-04-26T14:58:34.853Z</time></trkpt><trkpt lat="40.12559104139684" lon="9.202545737529674"><ele>670.5</ele><time>2026-04-26T14:58:35.853Z</time></trkpt><trkpt lat="40.12581842059245" lon="9.202634392571847"><ele>674.0</ele><time>2026-04-26T14:58:36.853Z</time></trkpt><trkpt lat="40.126032803851885" lon="9.20272871474598"><ele>674.0</ele><time>2026-04-26T14:58:37.853Z</time></trkpt><trkpt lat="40.126246177016604" lon="9.202783588739697"><ele>674.0</ele><time>2026-04-26T14:58:38.853Z</time></trkpt><trkpt lat="40.12646588152853" lon="9.202775769021958"><ele>674.0</ele><time>2026-04-26T14:58:39.853Z</time></trkpt><trkpt lat="40.12670645595974" lon="9.202722469860323"><ele>674.5</ele><time>2026-04-26T14:58:40.853Z</time></trkpt><trkpt lat="40.1269479193577" lon="9.202650398313635"><ele>675.0</ele><time>2026-04-26T14:58:41.853Z</time></trkpt><trkpt lat="40.12720053486985" lon="9.202586455134588"><ele>673.0</ele><time>2026-04-26T14:58:42.853Z</time></trkpt><trkpt lat="40.12746626745608" lon="9.20253616168913"><ele>671.0</ele><time>2026-04-26T14:58:43.853Z</time></trkpt><trkpt lat="40.12773725691585" lon="9.20246801370114"><ele>671.0</ele><time>2026-04-26T14:58:44.853Z</time></trkpt><trkpt lat="40.128011800250064" lon="9.202398973616244"><ele>671.0</ele><time>2026-04-26T14:58:45.853Z</time></trkpt><trkpt lat="40.128289543789506" lon="9.202320368454401"><ele>681.5</ele><time>2026-04-26T14:58:46.853Z</time></trkpt><trkpt lat="40.12856397263789" lon="9.202216799048136"><ele>692.0</ele><time>2026-04-26T14:58:47.853Z</time></trkpt><trkpt lat="40.12884045471956" lon="9.202111065163086"><ele>686.0</ele><time>2026-04-26T14:58:48.853Z</time></trkpt><trkpt lat="40.129117657991436" lon="9.202002200855988"><ele>680.0</ele><time>2026-04-26T14:58:49.853Z</time></trkpt><trkpt lat="40.12739383158109" lon="9.187259514763577"><ele>701.6666666666666</ele><time>2026-04-26T14:59:50.852Z</time></trkpt><trkpt lat="40.127364820755716" lon="9.18704201451362"><ele>723.3333333333334</ele><time>2026-04-26T14:59:51.853Z</time></trkpt><trkpt lat="40.127412330245804" lon="9.186887837491323"><ele>745.0</ele><time>2026-04-26T14:59:52.852Z</time></trkpt><trkpt lat="40.127524971816904" lon="9.186748140993586"><ele>745.0</ele><time>2026-04-26T14:59:53.852Z</time></trkpt><trkpt lat="40.12763996387747" lon="9.186515126617735"><ele>745.0</ele><time>2026-04-26T14:59:54.852Z</time></trkpt><trkpt lat="40.12767738983082" lon="9.18628434484503"><ele>745.0</ele><time>2026-04-26T14:59:55.852Z</time></trkpt><trkpt lat="40.12777391106921" lon="9.186106073689205"><ele>746.6666666666667</ele><time>2026-04-26T14:59:56.852Z</time></trkpt><trkpt lat="40.12789501827205" lon="9.185950986815739"><ele>748.3333333333334</ele><time>2026-04-26T14:59:57.852Z</time></trkpt><trkpt lat="40.12796675098608" lon="9.185792002467664"><ele>750.0</ele><time>2026-04-26T14:59:58.852Z</time></trkpt><trkpt lat="40.127986269358004" lon="9.185588508174568"><ele>751.3333333333334</ele><time>2026-04-26T14:59:59.852Z</time></trkpt><trkpt lat="40.12792390411194" lon="9.185377714726481"><ele>752.6666666666667</ele><time>2026-04-26T15:00:00.852Z</time></trkpt><trkpt lat="40.127809796638694" lon="9.185166178842165"><ele>754.0</ele><time>2026-04-26T15:00:01.852Z</time></trkpt><trkpt lat="40.12772720835112" lon="9.18493444382411"><ele>755.3333333333334</ele><time>2026-04-26T15:00:02.852Z</time></trkpt><trkpt lat="40.127717974547856" lon="9.184662271286776"><ele>756.6666666666666</ele><time>2026-04-26T15:00:03.852Z</time></trkpt><trkpt lat="40.12773986527709" lon="9.184375211708609"><ele>758.0</ele><time>2026-04-26T15:00:04.852Z</time></trkpt><trkpt lat="40.12774860343604" lon="9.184094540748363"><ele>755.6666666666666</ele><time>2026-04-26T15:00:05.852Z</time></trkpt><trkpt lat="40.12773486742923" lon="9.18385461048077"><ele>753.3333333333334</ele><time>2026-04-26T15:00:06.852Z</time></trkpt><trkpt lat="40.127642121180074" lon="9.183620530247694"><ele>751.0</ele><time>2026-04-26T15:00:07.852Z</time></trkpt><trkpt lat="40.12749724845326" lon="9.183361256757852"><ele>752.5</ele><time>2026-04-26T15:00:08.851Z</time></trkpt><trkpt lat="40.12734259737901" lon="9.183111861802987"><ele>754.0</ele><time>2026-04-26T15:00:09.851Z</time></trkpt><trkpt lat="40.12718122298552" lon="9.182885115873356"><ele>754.0</ele><time>2026-04-26T15:00:10.851Z</time></trkpt><trkpt lat="40.12702037317654" lon="9.182732189141143"><ele>754.0</ele><time>2026-04-26T15:00:11.851Z</time></trkpt><trkpt lat="40.126788880900015" lon="9.182624338113504"><ele>754.0</ele><time>2026-04-26T15:00:12.851Z</time></trkpt><trkpt lat="40.126537282429226" lon="9.182508442045762"><ele>754.5</ele><time>2026-04-26T15:00:13.851Z</time></trkpt><trkpt lat="40.126308938845845" lon="9.182316018188246"><ele>755.0</ele><time>2026-04-26T15:00:14.851Z</time></trkpt><trkpt lat="40.12608160075702" lon="9.1821130789456"><ele>755.0</ele><time>2026-04-26T15:00:15.851Z</time></trkpt><trkpt lat="40.125810614548435" lon="9.181979411215263"><ele>755.0</ele><time>2026-04-26T15:00:16.851Z</time></trkpt><trkpt lat="40.12554140809904" lon="9.181826023140818"><ele>758.5</ele><time>2026-04-26T15:00:17.851Z</time></trkpt><trkpt lat="40.1253049113682" lon="9.181621807612336"><ele>762.0</ele><time>2026-04-26T15:00:18.851Z</time></trkpt><trkpt lat="40.1250977912299" lon="9.181369191760112"><ele>762.0</ele><time>2026-04-26T15:00:19.851Z</time></trkpt><trkpt lat="40.12494521501697" lon="9.181100883944943"><ele>762.0</ele><time>2026-04-26T15:00:20.851Z</time></trkpt><trkpt lat="40.12477316445565" lon="9.180887692462273"><ele>764.0</ele><time>2026-04-26T15:00:21.851Z</time></trkpt><trkpt lat="40.124551979068194" lon="9.18071450927564"><ele>766.0</ele><time>2026-04-26T15:00:22.851Z</time></trkpt><trkpt lat="40.12434671114366" lon="9.180529141914151"><ele>766.0</ele><time>2026-04-26T15:00:23.851Z</time></trkpt><trkpt lat="40.124165705055844" lon="9.180360709509396"><ele>766.0</ele><time>2026-04-26T15:00:24.851Z</time></trkpt><trkpt lat="40.12396361655316" lon="9.180255587995559"><ele>766.0</ele><time>2026-04-26T15:00:25.851Z</time></trkpt><trkpt lat="40.12372684587289" lon="9.180199970776753"><ele>772.6666666666667</ele><time>2026-04-26T15:00:26.851Z</time></trkpt><trkpt lat="40.12351153634493" lon="9.180152445165357"><ele>779.3333333333334</ele><time>2026-04-26T15:00:27.851Z</time></trkpt><trkpt lat="40.123357645126774" lon="9.180038693284091"><ele>786.0</ele><time>2026-04-26T15:00:28.851Z</time></trkpt><trkpt lat="40.123259827869774" lon="9.179863087030173"><ele>785.0</ele><time>2026-04-26T15:00:29.851Z</time></trkpt><trkpt lat="40.1231974964111" lon="9.179649009119444"><ele>784.0</ele><time>2026-04-26T15:00:30.851Z</time></trkpt><trkpt lat="40.12319005904556" lon="9.179423236057849"><ele>783.0</ele><time>2026-04-26T15:00:31.851Z</time></trkpt><trkpt lat="40.12323142486944" lon="9.179179884107336"><ele>783.0</ele><time>2026-04-26T15:00:32.851Z</time></trkpt><trkpt lat="40.12329933090823" lon="9.17895465742833"><ele>783.0</ele><time>2026-04-26T15:00:33.851Z</time></trkpt><trkpt lat="40.123315259031784" lon="9.178757575827904"><ele>783.0</ele><time>2026-04-26T15:00:34.851Z</time></trkpt><trkpt lat="40.1232638238493" lon="9.178546876728706"><ele>792.0</ele><time>2026-04-26T15:00:35.851Z</time></trkpt><trkpt lat="40.12316886152775" lon="9.178315773082108"><ele>801.0</ele><time>2026-04-26T15:00:36.851Z</time></trkpt><trkpt lat="40.123059415888065" lon="9.17808263226499"><ele>810.0</ele><time>2026-04-26T15:00:37.851Z</time></trkpt><trkpt lat="40.12294153356318" lon="9.177841396255442"><ele>810.0</ele><time>2026-04-26T15:00:38.85Z</time></trkpt><trkpt lat="40.12284919637232" lon="9.17757633781666"><ele>810.0</ele><time>2026-04-26T15:00:39.85Z</time></trkpt><trkpt lat="40.122765001374596" lon="9.177334888147913"><ele>810.0</ele><time>2026-04-26T15:00:40.85Z</time></trkpt><trkpt lat="40.12265590321113" lon="9.177121026088976"><ele>812.3333333333333</ele><time>2026-04-26T15:00:41.85Z</time></trkpt><trkpt lat="40.12251134236107" lon="9.176923671248694"><ele>814.6666666666666</ele><time>2026-04-26T15:00:42.85Z</time></trkpt><trkpt lat="40.12234373186651" lon="9.176746598410178"><ele>817.0</ele><time>2026-04-26T15:00:43.85Z</time></trkpt><trkpt lat="40.122185356658925" lon="9.176609180584979"><ele>814.6666666666666</ele><time>2026-04-26T15:00:44.85Z</time></trkpt><trkpt lat="40.12206545201588" lon="9.176464189520878"><ele>812.3333333333333</ele><time>2026-04-26T15:00:45.85Z</time></trkpt><trkpt lat="40.12201127925513" lon="9.17625240719935"><ele>810.0</ele><time>2026-04-26T15:00:46.85Z</time></trkpt><trkpt lat="40.122016442952344" lon="9.176029953203338"><ele>810.0</ele><time>2026-04-26T15:00:47.85Z</time></trkpt><trkpt lat="40.12203806472893" lon="9.17579829995534"><ele>810.0</ele><time>2026-04-26T15:00:48.85Z</time></trkpt><trkpt lat="40.12203533043165" lon="9.175618641984585"><ele>810.0</ele><time>2026-04-26T15:00:49.85Z</time></trkpt><trkpt lat="40.11477497935492" lon="9.184889856953166"><ele>818.6666666666667</ele><time>2026-04-26T15:01:50.866Z</time></trkpt><trkpt lat="40.11464099888496" lon="9.184840813479706"><ele>827.3333333333334</ele><time>2026-04-26T15:01:51.866Z</time></trkpt><trkpt lat="40.11452058036409" lon="9.184720625874725"><ele>836.0</ele><time>2026-04-26T15:01:52.866Z</time></trkpt><trkpt lat="40.114449509253866" lon="9.184515284330494"><ele>836.0</ele><time>2026-04-26T15:01:53.866Z</time></trkpt><trkpt lat="40.11442249562818" lon="9.184283319891374"><ele>836.0</ele><time>2026-04-26T15:01:54.865Z</time></trkpt><trkpt lat="40.11440432463896" lon="9.184025207975578"><ele>836.0</ele><time>2026-04-26T15:01:55.865Z</time></trkpt><trkpt lat="40.1143542253374" lon="9.183769246213304"><ele>831.5</ele><time>2026-04-26T15:01:56.865Z</time></trkpt><trkpt lat="40.114250717348256" lon="9.183507877331207"><ele>827.0</ele><time>2026-04-26T15:01:57.866Z</time></trkpt><trkpt lat="40.11411803185801" lon="9.183266490539141"><ele>831.0</ele><time>2026-04-26T15:01:58.866Z</time></trkpt><trkpt lat="40.113971973934376" lon="9.183039161909313"><ele>835.0</ele><time>2026-04-26T15:01:59.866Z</time></trkpt><trkpt lat="40.113816365326464" lon="9.182837250382944"><ele>839.0</ele><time>2026-04-26T15:02:00.866Z</time></trkpt><trkpt lat="40.113648502497966" lon="9.182645929331592"><ele>839.0</ele><time>2026-04-26T15:02:01.866Z</time></trkpt><trkpt lat="40.113478775943626" lon="9.182473753149695"><ele>839.0</ele><time>2026-04-26T15:02:02.866Z</time></trkpt><trkpt lat="40.11335105565243" lon="9.18229163919547"><ele>839.0</ele><time>2026-04-26T15:02:03.866Z</time></trkpt><trkpt lat="40.11327517439855" lon="9.182078986177578"><ele>843.0</ele><time>2026-04-26T15:02:04.866Z</time></trkpt><trkpt lat="40.1132297351985" lon="9.18180397438081"><ele>847.0</ele><time>2026-04-26T15:02:05.866Z</time></trkpt><trkpt lat="40.11320976457583" lon="9.181563683479958"><ele>851.0</ele><time>2026-04-26T15:02:06.866Z</time></trkpt><trkpt lat="40.11326060329698" lon="9.181337259809414"><ele>846.6666666666667</ele><time>2026-04-26T15:02:07.866Z</time></trkpt><trkpt lat="40.11332471053906" lon="9.181138303382564"><ele>842.3333333333333</ele><time>2026-04-26T15:02:08.866Z</time></trkpt><trkpt lat="40.11332306903011" lon="9.180928789948418"><ele>838.0</ele><time>2026-04-26T15:02:09.866Z</time></trkpt><trkpt lat="40.1132327277049" lon="9.18072619542527"><ele>834.6666666666666</ele><time>2026-04-26T15:02:10.866Z</time></trkpt><trkpt lat="40.11310610393343" lon="9.18048788043303"><ele>831.3333333333333</ele><time>2026-04-26T15:02:11.866Z</time></trkpt><trkpt lat="40.112973499622996" lon="9.180288481134534"><ele>828.0</ele><time>2026-04-26T15:02:12.866Z</time></trkpt><trkpt lat="40.11281187251162" lon="9.180186077282455"><ele>828.0</ele><time>2026-04-26T15:02:13.866Z</time></trkpt><trkpt lat="40.112630452961575" lon="9.180127321394108"><ele>828.0</ele><time>2026-04-26T15:02:14.866Z</time></trkpt><trkpt lat="40.11243052749482" lon="9.18007247283486"><ele>828.0</ele><time>2026-04-26T15:02:15.866Z</time></trkpt><trkpt lat="40.11224854536528" lon="9.180022546941688"><ele>827.6666666666667</ele><time>2026-04-26T15:02:16.866Z</time></trkpt><trkpt lat="40.11211321281522" lon="9.179889634648532"><ele>827.3333333333334</ele><time>2026-04-26T15:02:17.866Z</time></trkpt><trkpt lat="40.112000151993726" lon="9.179653454826079"><ele>827.0</ele><time>2026-04-26T15:02:18.865Z</time></trkpt><trkpt lat="40.1118677588418" lon="9.179392221234083"><ele>827.0</ele><time>2026-04-26T15:02:19.865Z</time></trkpt><trkpt lat="40.11177688710931" lon="9.179143017306629"><ele>827.0</ele><time>2026-04-26T15:02:20.865Z</time></trkpt><trkpt lat="40.11173902429612" lon="9.178884309571933"><ele>827.0</ele><time>2026-04-26T15:02:21.865Z</time></trkpt><trkpt lat="40.11171532861392" lon="9.178641707214487"><ele>826.0</ele><time>2026-04-26T15:02:22.865Z</time></trkpt><trkpt lat="40.11166303042696" lon="9.17847037362014"><ele>825.0</ele><time>2026-04-26T15:02:23.865Z</time></trkpt><trkpt lat="40.111550119201304" lon="9.178368276969165"><ele>824.0</ele><time>2026-04-26T15:02:24.865Z</time></trkpt><trkpt lat="40.11138103176327" lon="9.178341947819057"><ele>823.0</ele><time>2026-04-26T15:02:25.865Z</time></trkpt><trkpt lat="40.111156955383414" lon="9.178389321848293"><ele>822.0</ele><time>2026-04-26T15:02:26.865Z</time></trkpt><trkpt lat="40.11089925262549" lon="9.178469499732785"><ele>821.0</ele><time>2026-04-26T15:02:27.865Z</time></trkpt><trkpt lat="40.11061478444054" lon="9.178576243508758"><ele>813.0</ele><time>2026-04-26T15:02:28.865Z</time></trkpt><trkpt lat="40.11037138549479" lon="9.17867105960178"><ele>805.0</ele><time>2026-04-26T15:02:29.865Z</time></trkpt><trkpt lat="40.110158447828844" lon="9.178799423942905"><ele>805.0</ele><time>2026-04-26T15:02:30.865Z</time></trkpt><trkpt lat="40.10996370538759" lon="9.178955006087202"><ele>805.0</ele><time>2026-04-26T15:02:31.865Z</time></trkpt><trkpt lat="40.10975983475537" lon="9.179119247996283"><ele>807.5</ele><time>2026-04-26T15:02:32.865Z</time></trkpt><trkpt lat="40.10955584741256" lon="9.179290553931708"><ele>810.0</ele><time>2026-04-26T15:02:33.865Z</time></trkpt><trkpt lat="40.10934712566824" lon="9.179453846465451"><ele>810.0</ele><time>2026-04-26T15:02:34.865Z</time></trkpt><trkpt lat="40.10914557646688" lon="9.17963577878239"><ele>810.0</ele><time>2026-04-26T15:02:35.865Z</time></trkpt><trkpt lat="40.10895285869478" lon="9.1798354512054"><ele>813.5</ele><time>2026-04-26T15:02:36.865Z</time></trkpt><trkpt lat="40.10877226655705" lon="9.180054481357494"><ele>817.0</ele><time>2026-04-26T15:02:37.865Z</time></trkpt><trkpt lat="40.108625340965474" lon="9.180273725727606"><ele>817.0</ele><time>2026-04-26T15:02:38.865Z</time></trkpt><trkpt lat="40.108505976150994" lon="9.18045528632118"><ele>817.0</ele><time>2026-04-26T15:02:39.865Z</time></trkpt><trkpt lat="40.108387573290436" lon="9.180546230748709"><ele>817.0</ele><time>2026-04-26T15:02:40.865Z</time></trkpt><trkpt lat="40.10823799984858" lon="9.180515788343582"><ele>816.5</ele><time>2026-04-26T15:02:41.865Z</time></trkpt><trkpt lat="40.10811366018413" lon="9.180376976224505"><ele>816.0</ele><time>2026-04-26T15:02:42.865Z</time></trkpt><trkpt lat="40.10805637408347" lon="9.180182720112622"><ele>815.5</ele><time>2026-04-26T15:02:43.865Z</time></trkpt><trkpt lat="40.108006233303264" lon="9.180050402031064"><ele>815.0</ele><time>2026-04-26T15:02:44.865Z</time></trkpt><trkpt lat="40.10788460020797" lon="9.179962473937696"><ele>815.0</ele><time>2026-04-26T15:02:45.865Z</time></trkpt><trkpt lat="40.10770725138977" lon="9.179971846188701"><ele>815.0</ele><time>2026-04-26T15:02:46.865Z</time></trkpt><trkpt lat="40.107524164432924" lon="9.180075888220001"><ele>815.0</ele><time>2026-04-26T15:02:47.865Z</time></trkpt><trkpt lat="40.10734823696339" lon="9.180256551650974"><ele>813.5</ele><time>2026-04-26T15:02:48.865Z</time></trkpt><trkpt lat="40.10720077646776" lon="9.180501538383519"><ele>812.0</ele><time>2026-04-26T15:02:49.865Z</time></trkpt><trkpt lat="40.09827489187116" lon="9.176420364904862"><ele>811.3333333333334</ele><time>2026-04-26T15:03:50.863Z</time></trkpt><trkpt lat="40.09810049186574" lon="9.176349216764276"><ele>810.6666666666667</ele><time>2026-04-26T15:03:51.864Z</time></trkpt><trkpt lat="40.097918625578735" lon="9.176282313329352"><ele>810.0</ele><time>2026-04-26T15:03:52.864Z</time></trkpt><trkpt lat="40.09773475379679" lon="9.176223190558638"><ele>810.0</ele><time>2026-04-26T15:03:53.863Z</time></trkpt><trkpt lat="40.097553825631444" lon="9.176168632323034"><ele>810.0</ele><time>2026-04-26T15:03:54.864Z</time></trkpt><trkpt lat="40.097380877565435" lon="9.176117776487724"><ele>810.0</ele><time>2026-04-26T15:03:55.863Z</time></trkpt><trkpt lat="40.09720635060764" lon="9.176062417480333"><ele>807.75</ele><time>2026-04-26T15:03:56.863Z</time></trkpt><trkpt lat="40.097066881298126" lon="9.175993375118443"><ele>805.5</ele><time>2026-04-26T15:03:57.864Z</time></trkpt><trkpt lat="40.09697973046997" lon="9.175894891332971"><ele>803.25</ele><time>2026-04-26T15:03:58.864Z</time></trkpt><trkpt lat="40.09696363880637" lon="9.175758461067948"><ele>801.0</ele><time>2026-04-26T15:03:59.864Z</time></trkpt><trkpt lat="40.09695338771004" lon="9.175562120082365"><ele>800.5</ele><time>2026-04-26T15:04:00.863Z</time></trkpt><trkpt lat="40.09692851956555" lon="9.17535219040404"><ele>800.0</ele><time>2026-04-26T15:04:01.863Z</time></trkpt><trkpt lat="40.09690582228558" lon="9.175184607856526"><ele>799.5</ele><time>2026-04-26T15:04:02.863Z</time></trkpt><trkpt lat="40.096829265074916" lon="9.17503854806342"><ele>799.0</ele><time>2026-04-26T15:04:03.863Z</time></trkpt><trkpt lat="40.09669648354756" lon="9.174938334974637"><ele>796.5</ele><time>2026-04-26T15:04:04.863Z</time></trkpt><trkpt lat="40.096538311224755" lon="9.174883618831354"><ele>794.0</ele><time>2026-04-26T15:04:05.863Z</time></trkpt><trkpt lat="40.09641469621912" lon="9.174770095049738"><ele>791.5</ele><time>2026-04-26T15:04:06.863Z</time></trkpt><trkpt lat="40.09633354820429" lon="9.174629867469871"><ele>789.0</ele><time>2026-04-26T15:04:07.863Z</time></trkpt><trkpt lat="40.09629977547564" lon="9.17446580626714"><ele>788.75</ele><time>2026-04-26T15:04:08.863Z</time></trkpt><trkpt lat="40.096312314154204" lon="9.174308407336339"><ele>788.5</ele><time>2026-04-26T15:04:09.863Z</time></trkpt><trkpt lat="40.096400152991485" lon="9.174176622966787"><ele>788.25</ele><time>2026-04-26T15:04:10.863Z</time></trkpt><trkpt lat="40.096514714108835" lon="9.174058376885453"><ele>788.0</ele><time>2026-04-26T15:04:11.863Z</time></trkpt><trkpt lat="40.096613745570885" lon="9.173891321251123"><ele>789.0</ele><time>2026-04-26T15:04:12.863Z</time></trkpt><trkpt lat="40.096686002744185" lon="9.17369748321406"><ele>790.0</ele><time>2026-04-26T15:04:13.863Z</time></trkpt><trkpt lat="40.096725497665176" lon="9.17348411424065"><ele>791.0</ele><time>2026-04-26T15:04:14.863Z</time></trkpt><trkpt lat="40.09676783311265" lon="9.173283039538891"><ele>790.5</ele><time>2026-04-26T15:04:15.863Z</time></trkpt><trkpt lat="40.096807952812135" lon="9.17309125922937"><ele>790.0</ele><time>2026-04-26T15:04:16.863Z</time></trkpt><trkpt lat="40.09681419302712" lon="9.17292121112323"><ele>789.5</ele><time>2026-04-26T15:04:17.863Z</time></trkpt><trkpt lat="40.09676738420885" lon="9.172765250532072"><ele>789.0</ele><time>2026-04-26T15:04:18.863Z</time></trkpt><trkpt lat="40.09668770706843" lon="9.172627550931923"><ele>787.25</ele><time>2026-04-26T15:04:19.863Z</time></trkpt><trkpt lat="40.09658574772959" lon="9.172491966692657"><ele>785.5</ele><time>2026-04-26T15:04:20.863Z</time></trkpt><trkpt lat="40.096497914416055" lon="9.172343381382504"><ele>783.75</ele><time>2026-04-26T15:04:21.862Z</time></trkpt><trkpt lat="40.09644950749464" lon="9.172179077581244"><ele>782.0</ele><time>2026-04-26T15:04:22.862Z</time></trkpt><trkpt lat="40.096397579360215" lon="9.171978685657708"><ele>782.0</ele><time>2026-04-26T15:04:23.862Z</time></trkpt><trkpt lat="40.09629631895972" lon="9.171830370451719"><ele>782.0</ele><time>2026-04-26T15:04:24.862Z</time></trkpt><trkpt lat="40.096174526963075" lon="9.171692828484934"><ele>782.0</ele><time>2026-04-26T15:04:25.862Z</time></trkpt><trkpt lat="40.09601020669782" lon="9.171598304622485"><ele>781.3333333333334</ele><time>2026-04-26T15:04:26.862Z</time></trkpt><trkpt lat="40.09587244709523" lon="9.171458021828856"><ele>780.6666666666667</ele><time>2026-04-26T15:04:27.862Z</time></trkpt><trkpt lat="40.095715705651074" lon="9.171357248686654"><ele>780.0</ele><time>2026-04-26T15:04:28.862Z</time></trkpt><trkpt lat="40.09556091730019" lon="9.171251560498556"><ele>780.0</ele><time>2026-04-26T15:04:29.862Z</time></trkpt><trkpt lat="40.09537972891835" lon="9.171207295869175"><ele>780.0</ele><time>2026-04-26T15:04:30.862Z</time></trkpt><trkpt lat="40.09519972620393" lon="9.17117307773098"><ele>780.0</ele><time>2026-04-26T15:04:31.862Z</time></trkpt><trkpt lat="40.09502698952773" lon="9.171137806593336"><ele>774.6666666666666</ele><time>2026-04-26T15:04:32.862Z</time></trkpt><trkpt lat="40.09486270066877" lon="9.171075202103514"><ele>769.3333333333333</ele><time>2026-04-26T15:04:33.862Z</time></trkpt><trkpt lat="40.09470465500802" lon="9.170956892331514"><ele>764.0</ele><time>2026-04-26T15:04:34.862Z</time></trkpt><trkpt lat="40.09454915625575" lon="9.170831179883793"><ele>764.0</ele><time>2026-04-26T15:04:35.862Z</time></trkpt><trkpt lat="40.0943966035038" lon="9.170702864366099"><ele>764.0</ele><time>2026-04-26T15:04:36.862Z</time></trkpt><trkpt lat="40.09426775596636" lon="9.170541452368397"><ele>764.0</ele><time>2026-04-26T15:04:37.862Z</time></trkpt><trkpt lat="40.094170767940405" lon="9.170354514662002"><ele>760.6666666666666</ele><time>2026-04-26T15:04:38.862Z</time></trkpt><trkpt lat="40.09407734993263" lon="9.170143839928796"><ele>757.3333333333334</ele><time>2026-04-26T15:04:39.862Z</time></trkpt><trkpt lat="40.09398249846111" lon="9.169928708409104"><ele>754.0</ele><time>2026-04-26T15:04:40.862Z</time></trkpt><trkpt lat="40.0938960884649" lon="9.169711260978922"><ele>754.0</ele><time>2026-04-26T15:04:41.862Z</time></trkpt><trkpt lat="40.09382422155467" lon="9.169480009287282"><ele>754.0</ele><time>2026-04-26T15:04:42.862Z</time></trkpt><trkpt lat="40.093768985709566" lon="9.169239714452173"><ele>754.0</ele><time>2026-04-26T15:04:43.862Z</time></trkpt><trkpt lat="40.093724222903205" lon="9.169013609174817"><ele>755.25</ele><time>2026-04-26T15:04:44.862Z</time></trkpt><trkpt lat="40.093686177298096" lon="9.168806600122666"><ele>756.5</ele><time>2026-04-26T15:04:45.862Z</time></trkpt><trkpt lat="40.09367710529252" lon="9.168633504337716"><ele>757.75</ele><time>2026-04-26T15:04:46.862Z</time></trkpt><trkpt lat="40.09371510707195" lon="9.168481632764822"><ele>759.0</ele><time>2026-04-26T15:04:47.862Z</time></trkpt><trkpt lat="40.09380864049475" lon="9.168338084610626"><ele>756.0</ele><time>2026-04-26T15:04:48.862Z</time></trkpt><trkpt lat="40.093932320091156" lon="9.168191206200303"><ele>753.0</ele><time>2026-04-26T15:04:49.862Z</time></trkpt><trkpt lat="40.09473397526718" lon="9.159757270585178"><ele>745.6666666666666</ele><time>2026-04-26T15:05:50.86Z</time></trkpt><trkpt lat="40.09467554465517" lon="9.159623586140972"><ele>738.3333333333334</ele><time>2026-04-26T15:05:52.86Z</time></trkpt><trkpt lat="40.094639927424595" lon="9.159542209803751"><ele>731.0</ele><time>2026-04-26T15:05:53.86Z</time></trkpt><trkpt lat="40.09460766597413" lon="9.159466888150838"><ele>723.6666666666667</ele><time>2026-04-26T15:05:54.86Z</time></trkpt><trkpt lat="40.09457655433602" lon="9.159392868590988"><ele>716.3333333333334</ele><time>2026-04-26T15:05:55.859Z</time></trkpt><trkpt lat="40.09454790839317" lon="9.159315684303271"><ele>709.0</ele><time>2026-04-26T15:05:56.859Z</time></trkpt><trkpt lat="40.09451211691045" lon="9.159178117372742"><ele>709.0</ele><time>2026-04-26T15:05:58.861Z</time></trkpt><trkpt lat="40.09451383690128" lon="9.15906104874328"><ele>709.0</ele><time>2026-04-26T15:06:00.861Z</time></trkpt><trkpt lat="40.09452084827642" lon="9.158953686105773"><ele>709.0</ele><time>2026-04-26T15:06:02.861Z</time></trkpt><trkpt lat="40.094540464721526" lon="9.15878746463138"><ele>709.0</ele><time>2026-04-26T15:06:04.861Z</time></trkpt><trkpt lat="40.094553267353916" lon="9.158687899985344"><ele>709.0</ele><time>2026-04-26T15:06:05.861Z</time></trkpt><trkpt lat="40.09457077046219" lon="9.158564318791742"><ele>709.2</ele><time>2026-04-26T15:06:06.861Z</time></trkpt><trkpt lat="40.09458772547825" lon="9.158444161683748"><ele>709.4000000000001</ele><time>2026-04-26T15:06:07.861Z</time></trkpt><trkpt lat="40.09460433907274" lon="9.15832339153715"><ele>709.6</ele><time>2026-04-26T15:06:08.861Z</time></trkpt><trkpt lat="40.09461936689325" lon="9.158203003013856"><ele>709.8</ele><time>2026-04-26T15:06:09.861Z</time></trkpt><trkpt lat="40.09462810227075" lon="9.158082479584815"><ele>710.0</ele><time>2026-04-26T15:06:10.861Z</time></trkpt><trkpt lat="40.094617857700264" lon="9.157951483535582"><ele>710.0</ele><time>2026-04-26T15:06:11.861Z</time></trkpt><trkpt lat="40.09462716457511" lon="9.157838766450537"><ele>710.0</ele><time>2026-04-26T15:06:12.861Z</time></trkpt><trkpt lat="40.09461640703528" lon="9.157723869732578"><ele>710.0</ele><time>2026-04-26T15:06:13.861Z</time></trkpt><trkpt lat="40.09459867818594" lon="9.157598493596886"><ele>710.0</ele><time>2026-04-26T15:06:14.861Z</time></trkpt><trkpt lat="40.094578723681174" lon="9.15747753869998"><ele>710.0</ele><time>2026-04-26T15:06:15.861Z</time></trkpt><trkpt lat="40.09455231241116" lon="9.157368819316055"><ele>707.0</ele><time>2026-04-26T15:06:16.861Z</time></trkpt><trkpt lat="40.09450335711025" lon="9.157256842007081"><ele>704.0</ele><time>2026-04-26T15:06:17.861Z</time></trkpt><trkpt lat="40.09442818711862" lon="9.157170833324537"><ele>701.0</ele><time>2026-04-26T15:06:18.86Z</time></trkpt><trkpt lat="40.094327422331176" lon="9.157123140432121"><ele>698.0</ele><time>2026-04-26T15:06:19.86Z</time></trkpt><trkpt lat="40.094242828953995" lon="9.157092516198023"><ele>695.0</ele><time>2026-04-26T15:06:20.86Z</time></trkpt><trkpt lat="40.094161478450914" lon="9.157043493988148"><ele>696.1666666666666</ele><time>2026-04-26T15:06:21.86Z</time></trkpt><trkpt lat="40.094073057281626" lon="9.1569821114904"><ele>697.3333333333333</ele><time>2026-04-26T15:06:22.86Z</time></trkpt><trkpt lat="40.09400120611783" lon="9.156923038624404"><ele>698.5</ele><time>2026-04-26T15:06:23.86Z</time></trkpt><trkpt lat="40.09393475677121" lon="9.156866278739763"><ele>699.6666666666666</ele><time>2026-04-26T15:06:24.86Z</time></trkpt><trkpt lat="40.09387772296165" lon="9.156830333514167"><ele>700.8333333333334</ele><time>2026-04-26T15:06:25.86Z</time></trkpt><trkpt lat="40.09382441697687" lon="9.156775220180123"><ele>702.0</ele><time>2026-04-26T15:06:27.86Z</time></trkpt><trkpt lat="40.088402302811204" lon="9.154582712634179"><ele>702.0</ele><time>2026-04-26T15:11:50.853Z</time></trkpt><trkpt lat="40.08838990323278" lon="9.15435579690517"><ele>702.0</ele><time>2026-04-26T15:11:51.853Z</time></trkpt><trkpt lat="40.08838082067532" lon="9.154121056006868"><ele>702.0</ele><time>2026-04-26T15:11:52.853Z</time></trkpt><trkpt lat="40.08837392137764" lon="9.153883566791553"><ele>703.3333333333334</ele><time>2026-04-26T15:11:53.853Z</time></trkpt><trkpt lat="40.088372963610944" lon="9.153647442639269"><ele>704.6666666666667</ele><time>2026-04-26T15:11:54.853Z</time></trkpt><trkpt lat="40.08839837062608" lon="9.153428895775166"><ele>706.0</ele><time>2026-04-26T15:11:55.853Z</time></trkpt><trkpt lat="40.08846363349471" lon="9.153248667581725"><ele>709.6666666666667</ele><time>2026-04-26T15:11:56.853Z</time></trkpt><trkpt lat="40.08856934689624" lon="9.153108830412783"><ele>713.3333333333334</ele><time>2026-04-26T15:11:57.853Z</time></trkpt><trkpt lat="40.08869228835575" lon="9.152946395613338"><ele>717.0</ele><time>2026-04-26T15:11:58.853Z</time></trkpt><trkpt lat="40.08882230058028" lon="9.152776452347243"><ele>717.0</ele><time>2026-04-26T15:11:59.853Z</time></trkpt><trkpt lat="40.08895843454583" lon="9.152598507144099"><ele>717.0</ele><time>2026-04-26T15:12:00.853Z</time></trkpt><trkpt lat="40.08910861584166" lon="9.152437342381877"><ele>717.0</ele><time>2026-04-26T15:12:01.853Z</time></trkpt><trkpt lat="40.0892858119197" lon="9.152301358707959"><ele>717.3333333333334</ele><time>2026-04-26T15:12:02.853Z</time></trkpt><trkpt lat="40.08947873015668" lon="9.152166111973033"><ele>717.6666666666667</ele><time>2026-04-26T15:12:03.853Z</time></trkpt><trkpt lat="40.08966951175363" lon="9.15202990068445"><ele>718.0</ele><time>2026-04-26T15:12:04.853Z</time></trkpt><trkpt lat="40.08986237678954" lon="9.151892201912556"><ele>710.0</ele><time>2026-04-26T15:12:05.853Z</time></trkpt><trkpt lat="40.090059742629535" lon="9.151745781564442"><ele>702.0</ele><time>2026-04-26T15:12:06.853Z</time></trkpt><trkpt lat="40.09025478011109" lon="9.151597088451101"><ele>702.0</ele><time>2026-04-26T15:12:07.853Z</time></trkpt><trkpt lat="40.0904510822099" lon="9.151447323910471"><ele>702.0</ele><time>2026-04-26T15:12:08.853Z</time></trkpt><trkpt lat="40.09063188386576" lon="9.151287278103865"><ele>702.0</ele><time>2026-04-26T15:12:09.853Z</time></trkpt><trkpt lat="40.0908016358456" lon="9.151150513702408"><ele>702.0</ele><time>2026-04-26T15:12:10.853Z</time></trkpt><trkpt lat="40.09092119284341" lon="9.151002003149223"><ele>702.0</ele><time>2026-04-26T15:12:11.853Z</time></trkpt><trkpt lat="40.09098138447563" lon="9.150829398078493"><ele>702.0</ele><time>2026-04-26T15:12:12.853Z</time></trkpt><trkpt lat="40.09099295003804" lon="9.150629308694329"><ele>700.0</ele><time>2026-04-26T15:12:13.853Z</time></trkpt><trkpt lat="40.0909398381415" lon="9.150399003493872"><ele>698.0</ele><time>2026-04-26T15:12:14.853Z</time></trkpt><trkpt lat="40.09084173260216" lon="9.150167965802392"><ele>696.0</ele><time>2026-04-26T15:12:15.853Z</time></trkpt><trkpt lat="40.09070782583225" lon="9.14996071758693"><ele>700.6666666666666</ele><time>2026-04-26T15:12:16.853Z</time></trkpt><trkpt lat="40.09061408859754" lon="9.149724796610462"><ele>705.3333333333333</ele><time>2026-04-26T15:12:17.853Z</time></trkpt><trkpt lat="40.09053759905414" lon="9.149474980404824"><ele>710.0</ele><time>2026-04-26T15:12:18.854Z</time></trkpt><trkpt lat="40.09048553276612" lon="9.149223600935104"><ele>708.6666666666666</ele><time>2026-04-26T15:12:19.853Z</time></trkpt><trkpt lat="40.09047047132487" lon="9.148971814415296"><ele>707.3333333333334</ele><time>2026-04-26T15:12:20.853Z</time></trkpt><trkpt lat="40.0905036112254" lon="9.148732767403414"><ele>706.0</ele><time>2026-04-26T15:12:21.854Z</time></trkpt><trkpt lat="40.090548940041366" lon="9.148500414810782"><ele>706.0</ele><time>2026-04-26T15:12:22.854Z</time></trkpt><trkpt lat="40.09055993490347" lon="9.148283582531578"><ele>706.0</ele><time>2026-04-26T15:12:23.854Z</time></trkpt><trkpt lat="40.09053352840849" lon="9.148083323889544"><ele>706.0</ele><time>2026-04-26T15:12:24.853Z</time></trkpt><trkpt lat="40.090443287082714" lon="9.147873787675742"><ele>701.3333333333334</ele><time>2026-04-26T15:12:25.854Z</time></trkpt><trkpt lat="40.09031126246007" lon="9.14767944454732"><ele>696.6666666666666</ele><time>2026-04-26T15:12:26.854Z</time></trkpt><trkpt lat="40.09014272750535" lon="9.147534724542703"><ele>692.0</ele><time>2026-04-26T15:12:27.853Z</time></trkpt><trkpt lat="40.08993529525804" lon="9.147414898970881"><ele>688.0</ele><time>2026-04-26T15:12:28.853Z</time></trkpt><trkpt lat="40.08972324703484" lon="9.147322140047578"><ele>684.0</ele><time>2026-04-26T15:12:29.853Z</time></trkpt><trkpt lat="40.08951212375037" lon="9.147245046390633"><ele>680.0</ele><time>2026-04-26T15:12:30.853Z</time></trkpt><trkpt lat="40.08930814037651" lon="9.147165179245757"><ele>680.0</ele><time>2026-04-26T15:12:31.853Z</time></trkpt><trkpt lat="40.089146854651176" lon="9.147003111666773"><ele>680.0</ele><time>2026-04-26T15:12:32.853Z</time></trkpt><trkpt lat="40.0890090032883" lon="9.146821319677791"><ele>680.0</ele><time>2026-04-26T15:12:33.853Z</time></trkpt><trkpt lat="40.08889084584074" lon="9.146601597505558"><ele>674.3333333333333</ele><time>2026-04-26T15:12:34.853Z</time></trkpt><trkpt lat="40.08876025552666" lon="9.146393577837008"><ele>668.6666666666666</ele><time>2026-04-26T15:12:35.853Z</time></trkpt><trkpt lat="40.088619578237726" lon="9.146211820990624"><ele>663.0</ele><time>2026-04-26T15:12:36.853Z</time></trkpt><trkpt lat="40.08841850464549" lon="9.146102702784527"><ele>659.3333333333334</ele><time>2026-04-26T15:12:37.853Z</time></trkpt><trkpt lat="40.08822595927054" lon="9.146005496371092"><ele>655.6666666666667</ele><time>2026-04-26T15:12:38.853Z</time></trkpt><trkpt lat="40.08804631464062" lon="9.145949658237678"><ele>652.0</ele><time>2026-04-26T15:12:39.853Z</time></trkpt><trkpt lat="40.08785416720586" lon="9.145984243773452"><ele>652.0</ele><time>2026-04-26T15:12:40.853Z</time></trkpt><trkpt lat="40.08764987589817" lon="9.146087919036978"><ele>652.0</ele><time>2026-04-26T15:12:41.853Z</time></trkpt><trkpt lat="40.08746030919585" lon="9.146251742239118"><ele>652.0</ele><time>2026-04-26T15:12:42.853Z</time></trkpt><trkpt lat="40.08730303606993" lon="9.146419166749917"><ele>650.3333333333334</ele><time>2026-04-26T15:12:43.853Z</time></trkpt><trkpt lat="40.087171018071395" lon="9.146530429775263"><ele>648.6666666666666</ele><time>2026-04-26T15:12:44.853Z</time></trkpt><trkpt lat="40.08703779430761" lon="9.146451792884225"><ele>647.0</ele><time>2026-04-26T15:12:45.853Z</time></trkpt><trkpt lat="40.086878944593785" lon="9.146341889389786"><ele>647.0</ele><time>2026-04-26T15:12:46.853Z</time></trkpt><trkpt lat="40.086684482367666" lon="9.1463060048013"><ele>647.0</ele><time>2026-04-26T15:12:47.853Z</time></trkpt><trkpt lat="40.08649584034731" lon="9.146223610339659"><ele>647.0</ele><time>2026-04-26T15:12:48.853Z</time></trkpt><trkpt lat="40.08638222738209" lon="9.146090941504072"><ele>583.0</ele><time>2026-04-26T15:12:49.853Z</time></trkpt><trkpt lat="40.07564736195399" lon="9.146358368811834"><ele>583.0</ele><time>2026-04-26T15:13:50.851Z</time></trkpt><trkpt lat="40.075523766099536" lon="9.146409658084574"><ele>583.0</ele><time>2026-04-26T15:13:51.851Z</time></trkpt><trkpt lat="40.075436796679696" lon="9.146577813659423"><ele>583.0</ele><time>2026-04-26T15:13:52.851Z</time></trkpt><trkpt lat="40.07539884629322" lon="9.146824066211327"><ele>588.25</ele><time>2026-04-26T15:13:53.851Z</time></trkpt><trkpt lat="40.07534398887677" lon="9.146994592194764"><ele>593.5</ele><time>2026-04-26T15:13:54.851Z</time></trkpt><trkpt lat="40.07524314849976" lon="9.147032504587731"><ele>598.75</ele><time>2026-04-26T15:13:55.851Z</time></trkpt><trkpt lat="40.07509737547848" lon="9.146949331517975"><ele>604.0</ele><time>2026-04-26T15:13:56.851Z</time></trkpt><trkpt lat="40.07497591124774" lon="9.14677873830262"><ele>602.0</ele><time>2026-04-26T15:13:57.851Z</time></trkpt><trkpt lat="40.07486014771376" lon="9.146595370531356"><ele>600.0</ele><time>2026-04-26T15:13:58.851Z</time></trkpt><trkpt lat="40.07470580670843" lon="9.146477600098654"><ele>598.0</ele><time>2026-04-26T15:13:59.851Z</time></trkpt><trkpt lat="40.07449454486625" lon="9.14644747793959"><ele>592.3333333333334</ele><time>2026-04-26T15:14:00.851Z</time></trkpt><trkpt lat="40.07427232907151" lon="9.146454266647007"><ele>586.6666666666666</ele><time>2026-04-26T15:14:01.85Z</time></trkpt><trkpt lat="40.0740682660835" lon="9.146501404853959"><ele>581.0</ele><time>2026-04-26T15:14:02.85Z</time></trkpt><trkpt lat="40.073879080348966" lon="9.146627373600522"><ele>581.0</ele><time>2026-04-26T15:14:03.85Z</time></trkpt><trkpt lat="40.07369287869771" lon="9.146783214632254"><ele>581.0</ele><time>2026-04-26T15:14:04.85Z</time></trkpt><trkpt lat="40.073491322447694" lon="9.146917194622233"><ele>581.0</ele><time>2026-04-26T15:14:05.85Z</time></trkpt><trkpt lat="40.073286323623165" lon="9.147030670632006"><ele>577.6666666666666</ele><time>2026-04-26T15:14:06.85Z</time></trkpt><trkpt lat="40.07307907349245" lon="9.147086729984515"><ele>574.3333333333334</ele><time>2026-04-26T15:14:07.85Z</time></trkpt><trkpt lat="40.07286239278379" lon="9.147075441883874"><ele>571.0</ele><time>2026-04-26T15:14:08.85Z</time></trkpt><trkpt lat="40.072655340765984" lon="9.14709724325339"><ele>571.0</ele><time>2026-04-26T15:14:09.85Z</time></trkpt><trkpt lat="40.07245068299795" lon="9.147164930574405"><ele>571.0</ele><time>2026-04-26T15:14:10.85Z</time></trkpt><trkpt lat="40.072259070528965" lon="9.147243325954246"><ele>571.0</ele><time>2026-04-26T15:14:11.85Z</time></trkpt><trkpt lat="40.072078649198836" lon="9.147312224909989"><ele>571.3333333333334</ele><time>2026-04-26T15:14:12.85Z</time></trkpt><trkpt lat="40.071908674767485" lon="9.1473637234651"><ele>571.6666666666666</ele><time>2026-04-26T15:14:13.85Z</time></trkpt><trkpt lat="40.07174530201562" lon="9.147420813630227"><ele>572.0</ele><time>2026-04-26T15:14:14.85Z</time></trkpt><trkpt lat="40.07158366474165" lon="9.147454645149383"><ele>572.0</ele><time>2026-04-26T15:14:15.85Z</time></trkpt><trkpt lat="40.071422601693136" lon="9.14746554535317"><ele>572.0</ele><time>2026-04-26T15:14:16.85Z</time></trkpt><trkpt lat="40.07126505538528" lon="9.147498503244337"><ele>572.0</ele><time>2026-04-26T15:14:17.85Z</time></trkpt><trkpt lat="40.07111323369317" lon="9.147551202388996"><ele>572.0</ele><time>2026-04-26T15:14:18.85Z</time></trkpt><trkpt lat="40.07095925502472" lon="9.147628202375325"><ele>572.0</ele><time>2026-04-26T15:14:19.85Z</time></trkpt><trkpt lat="40.070807314844274" lon="9.147700203976823"><ele>572.0</ele><time>2026-04-26T15:14:20.85Z</time></trkpt><trkpt lat="40.07067162796538" lon="9.147787988123104"><ele>570.75</ele><time>2026-04-26T15:14:21.851Z</time></trkpt><trkpt lat="40.07053994205779" lon="9.147861211452062"><ele>569.5</ele><time>2026-04-26T15:14:22.851Z</time></trkpt><trkpt lat="40.07041867697408" lon="9.147905901358044"><ele>568.25</ele><time>2026-04-26T15:14:23.851Z</time></trkpt><trkpt lat="40.070299125722606" lon="9.147928062910022"><ele>567.0</ele><time>2026-04-26T15:14:24.851Z</time></trkpt><trkpt lat="40.07019537909406" lon="9.147849082926996"><ele>567.0</ele><time>2026-04-26T15:14:25.851Z</time></trkpt><trkpt lat="40.07007835261314" lon="9.147789479913975"><ele>567.0</ele><time>2026-04-26T15:14:26.851Z</time></trkpt><trkpt lat="40.069959694009775" lon="9.147755785388505"><ele>567.0</ele><time>2026-04-26T15:14:27.85Z</time></trkpt><trkpt lat="40.06984211809726" lon="9.147688594970553"><ele>567.0</ele><time>2026-04-26T15:14:28.85Z</time></trkpt><trkpt lat="40.069720176073524" lon="9.147633690939225"><ele>566.5</ele><time>2026-04-26T15:14:29.85Z</time></trkpt><trkpt lat="40.06958997899154" lon="9.14758060591954"><ele>566.0</ele><time>2026-04-26T15:14:30.85Z</time></trkpt><trkpt lat="40.0694710260911" lon="9.147535904260145"><ele>565.5</ele><time>2026-04-26T15:14:31.85Z</time></trkpt><trkpt lat="40.06935355717692" lon="9.147499315061465"><ele>565.0</ele><time>2026-04-26T15:14:32.85Z</time></trkpt><trkpt lat="40.06924298009954" lon="9.14748505921417"><ele>565.0</ele><time>2026-04-26T15:14:33.85Z</time></trkpt><trkpt lat="40.069149786087685" lon="9.147547948924636"><ele>565.0</ele><time>2026-04-26T15:14:34.85Z</time></trkpt><trkpt lat="40.06907471420349" lon="9.147604671608601"><ele>565.0</ele><time>2026-04-26T15:14:35.85Z</time></trkpt><trkpt lat="40.06899826201956" lon="9.147637266057048"><ele>565.0</ele><time>2026-04-26T15:14:36.85Z</time></trkpt><trkpt lat="40.068926730302536" lon="9.147683084863383"><ele>565.0</ele><time>2026-04-26T15:14:37.85Z</time></trkpt><trkpt lat="40.06886048645123" lon="9.14772357774013"><ele>565.0</ele><time>2026-04-26T15:14:38.85Z</time></trkpt><trkpt lat="40.0687962529322" lon="9.14774919178145"><ele>564.1666666666667</ele><time>2026-04-26T15:14:39.85Z</time></trkpt><trkpt lat="40.068716319651486" lon="9.147757506062952"><ele>563.3333333333334</ele><time>2026-04-26T15:14:40.85Z</time></trkpt><trkpt lat="40.068631440404346" lon="9.147790962962082"><ele>562.5</ele><time>2026-04-26T15:14:41.85Z</time></trkpt><trkpt lat="40.06855449065029" lon="9.147734508506126"><ele>561.6666666666666</ele><time>2026-04-26T15:14:42.85Z</time></trkpt><trkpt lat="40.06848290316722" lon="9.147678902975567"><ele>560.8333333333333</ele><time>2026-04-26T15:14:43.85Z</time></trkpt><trkpt lat="40.06841132055533" lon="9.147641221219287"><ele>560.0</ele><time>2026-04-26T15:14:44.85Z</time></trkpt><trkpt lat="40.06834457094907" lon="9.147589797316403"><ele>558.0</ele><time>2026-04-26T15:14:45.85Z</time></trkpt><trkpt lat="40.068268581009605" lon="9.147603796297107"><ele>556.0</ele><time>2026-04-26T15:14:46.85Z</time></trkpt><trkpt lat="40.06819070074365" lon="9.147653810481849"><ele>554.0</ele><time>2026-04-26T15:14:47.85Z</time></trkpt><trkpt lat="40.0681323916071" lon="9.147724229357552"><ele>552.0</ele><time>2026-04-26T15:14:48.85Z</time></trkpt><trkpt lat="40.06809500253114" lon="9.147819910445422"><ele>550.0</ele><time>2026-04-26T15:14:49.85Z</time></trkpt><trkpt lat="40.06364320688386" lon="9.149888726375922"><ele>549.6666666666667</ele><time>2026-04-26T15:15:50.848Z</time></trkpt><trkpt lat="40.063501011156035" lon="9.149831001640417"><ele>549.3333333333334</ele><time>2026-04-26T15:15:51.848Z</time></trkpt><trkpt lat="40.0633580312769" lon="9.149794920484409"><ele>549.0</ele><time>2026-04-26T15:15:52.848Z</time></trkpt><trkpt lat="40.0632010914109" lon="9.149771150847979"><ele>549.0</ele><time>2026-04-26T15:15:53.848Z</time></trkpt><trkpt lat="40.0630416393586" lon="9.149757766183784"><ele>549.0</ele><time>2026-04-26T15:15:54.848Z</time></trkpt><trkpt lat="40.06287866162977" lon="9.149737881373815"><ele>549.0</ele><time>2026-04-26T15:15:55.848Z</time></trkpt><trkpt lat="40.0627125135505" lon="9.149715885728941"><ele>549.0</ele><time>2026-04-26T15:15:56.848Z</time></trkpt><trkpt lat="40.06254906261349" lon="9.149702417829957"><ele>549.0</ele><time>2026-04-26T15:15:57.848Z</time></trkpt><trkpt lat="40.06238291369554" lon="9.149704388765565"><ele>549.0</ele><time>2026-04-26T15:15:58.848Z</time></trkpt><trkpt lat="40.062225018165236" lon="9.149761259486228"><ele>545.3333333333334</ele><time>2026-04-26T15:15:59.848Z</time></trkpt><trkpt lat="40.062078473414324" lon="9.149870330151424"><ele>541.6666666666667</ele><time>2026-04-26T15:16:00.848Z</time></trkpt><trkpt lat="40.061952949327456" lon="9.150024773031122"><ele>538.0</ele><time>2026-04-26T15:16:01.848Z</time></trkpt><trkpt lat="40.06182243316526" lon="9.150179949394479"><ele>539.3333333333334</ele><time>2026-04-26T15:16:02.848Z</time></trkpt><trkpt lat="40.061664534022306" lon="9.150289569776147"><ele>540.6666666666666</ele><time>2026-04-26T15:16:03.848Z</time></trkpt><trkpt lat="40.06150093147168" lon="9.150395582383942"><ele>542.0</ele><time>2026-04-26T15:16:04.848Z</time></trkpt><trkpt lat="40.06134047586529" lon="9.150506835226507"><ele>542.0</ele><time>2026-04-26T15:16:05.847Z</time></trkpt><trkpt lat="40.06119498255268" lon="9.150641033652184"><ele>542.0</ele><time>2026-04-26T15:16:06.847Z</time></trkpt><trkpt lat="40.06107080202316" lon="9.1507870759424"><ele>542.0</ele><time>2026-04-26T15:16:07.847Z</time></trkpt><trkpt lat="40.060949531146065" lon="9.150880543835287"><ele>544.0</ele><time>2026-04-26T15:16:08.847Z</time></trkpt><trkpt lat="40.060809622303296" lon="9.150884880931407"><ele>546.0</ele><time>2026-04-26T15:16:09.847Z</time></trkpt><trkpt lat="40.060660946704445" lon="9.150945190041652"><ele>548.0</ele><time>2026-04-26T15:16:10.847Z</time></trkpt><trkpt lat="40.060492052486694" lon="9.151023422057708"><ele>548.0</ele><time>2026-04-26T15:16:11.847Z</time></trkpt><trkpt lat="40.060325348200905" lon="9.151106888014198"><ele>548.0</ele><time>2026-04-26T15:16:12.847Z</time></trkpt><trkpt lat="40.06015734507044" lon="9.151191004285067"><ele>548.0</ele><time>2026-04-26T15:16:13.847Z</time></trkpt><trkpt lat="40.05999588171669" lon="9.15128356336313"><ele>551.0</ele><time>2026-04-26T15:16:14.847Z</time></trkpt><trkpt lat="40.059849890249176" lon="9.151419531738016"><ele>554.0</ele><time>2026-04-26T15:16:15.847Z</time></trkpt><trkpt lat="40.05972667944918" lon="9.151588363215177"><ele>557.0</ele><time>2026-04-26T15:16:16.847Z</time></trkpt><trkpt lat="40.05960195645105" lon="9.151733557939245"><ele>557.0</ele><time>2026-04-26T15:16:17.847Z</time></trkpt><trkpt lat="40.05946092936667" lon="9.151826447344268"><ele>557.0</ele><time>2026-04-26T15:16:18.847Z</time></trkpt><trkpt lat="40.05930100785381" lon="9.151879561421984"><ele>557.0</ele><time>2026-04-26T15:16:19.847Z</time></trkpt><trkpt lat="40.05915462129346" lon="9.151999520583368"><ele>555.6666666666666</ele><time>2026-04-26T15:16:20.847Z</time></trkpt><trkpt lat="40.059029732016164" lon="9.15214418690426"><ele>554.3333333333334</ele><time>2026-04-26T15:16:21.847Z</time></trkpt><trkpt lat="40.058922236328186" lon="9.152314222552656"><ele>553.0</ele><time>2026-04-26T15:16:22.847Z</time></trkpt><trkpt lat="40.05881425043115" lon="9.152497159666067"><ele>553.0</ele><time>2026-04-26T15:16:23.847Z</time></trkpt><trkpt lat="40.05870809231545" lon="9.152687473791326"><ele>553.0</ele><time>2026-04-26T15:16:24.847Z</time></trkpt><trkpt lat="40.05858094342908" lon="9.152842074634592"><ele>553.0</ele><time>2026-04-26T15:16:25.847Z</time></trkpt><trkpt lat="40.05845593829943" lon="9.153006334728893"><ele>553.0</ele><time>2026-04-26T15:16:26.847Z</time></trkpt><trkpt lat="40.05832561172047" lon="9.153177587234584"><ele>553.0</ele><time>2026-04-26T15:16:27.848Z</time></trkpt><trkpt lat="40.05819329951519" lon="9.153355021038326"><ele>553.0</ele><time>2026-04-26T15:16:28.848Z</time></trkpt><trkpt lat="40.05807035734439" lon="9.153550007169741"><ele>555.0</ele><time>2026-04-26T15:16:29.847Z</time></trkpt><trkpt lat="40.057960232869846" lon="9.153770094648108"><ele>557.0</ele><time>2026-04-26T15:16:30.847Z</time></trkpt><trkpt lat="40.05786522058368" lon="9.153998671703544"><ele>559.0</ele><time>2026-04-26T15:16:31.847Z</time></trkpt><trkpt lat="40.05776755332622" lon="9.154215071107618"><ele>561.3333333333334</ele><time>2026-04-26T15:16:32.847Z</time></trkpt><trkpt lat="40.05766037375609" lon="9.154430974789694"><ele>563.6666666666666</ele><time>2026-04-26T15:16:33.848Z</time></trkpt><trkpt lat="40.05755325966742" lon="9.15462494497395"><ele>566.0</ele><time>2026-04-26T15:16:34.847Z</time></trkpt><trkpt lat="40.057452198702954" lon="9.154802250499063"><ele>565.3333333333333</ele><time>2026-04-26T15:16:35.847Z</time></trkpt><trkpt lat="40.05738631128723" lon="9.154990968959591"><ele>564.6666666666666</ele><time>2026-04-26T15:16:36.847Z</time></trkpt><trkpt lat="40.057399567356356" lon="9.155199464500079"><ele>564.0</ele><time>2026-04-26T15:16:37.847Z</time></trkpt><trkpt lat="40.057433862966725" lon="9.155404247782196"><ele>565.0</ele><time>2026-04-26T15:16:38.846Z</time></trkpt><trkpt lat="40.057453663947896" lon="9.155611508434477"><ele>566.0</ele><time>2026-04-26T15:16:39.847Z</time></trkpt><trkpt lat="40.057454668264036" lon="9.155776409670025"><ele>567.0</ele><time>2026-04-26T15:16:40.847Z</time></trkpt><trkpt lat="40.0574024830095" lon="9.155885550233577"><ele>568.0</ele><time>2026-04-26T15:16:41.846Z</time></trkpt><trkpt lat="40.057291318658486" lon="9.155975430516218"><ele>568.0</ele><time>2026-04-26T15:16:42.846Z</time></trkpt><trkpt lat="40.057213445690365" lon="9.156144768877367"><ele>568.0</ele><time>2026-04-26T15:16:43.846Z</time></trkpt><trkpt lat="40.057206052554804" lon="9.156363757135882"><ele>568.0</ele><time>2026-04-26T15:16:44.846Z</time></trkpt><trkpt lat="40.057192765206324" lon="9.156583549466449"><ele>570.3333333333334</ele><time>2026-04-26T15:16:45.846Z</time></trkpt><trkpt lat="40.05715956067204" lon="9.156803431758556"><ele>572.6666666666666</ele><time>2026-04-26T15:16:46.846Z</time></trkpt><trkpt lat="40.057098370965534" lon="9.157009080744007"><ele>575.0</ele><time>2026-04-26T15:16:47.846Z</time></trkpt><trkpt lat="40.057018684570885" lon="9.15721344334735"><ele>578.5</ele><time>2026-04-26T15:16:48.846Z</time></trkpt><trkpt lat="40.05693609566685" lon="9.157419885573976"><ele>582.0</ele><time>2026-04-26T15:16:49.847Z</time></trkpt><trkpt lat="40.05667522179523" lon="9.149927328818185"><ele>618.0</ele><time>2026-04-26T15:17:50.853Z</time></trkpt><trkpt lat="40.05677564934661" lon="9.149656351864925"><ele>654.0</ele><time>2026-04-26T15:17:51.853Z</time></trkpt><trkpt lat="40.05689109598111" lon="9.149390129991346"><ele>654.0</ele><time>2026-04-26T15:17:52.853Z</time></trkpt><trkpt lat="40.057019650601575" lon="9.149142953389886"><ele>654.0</ele><time>2026-04-26T15:17:53.853Z</time></trkpt><trkpt lat="40.05713645355633" lon="9.14889274147374"><ele>659.0</ele><time>2026-04-26T15:17:54.853Z</time></trkpt><trkpt lat="40.05720636289544" lon="9.148611173182323"><ele>664.0</ele><time>2026-04-26T15:17:55.853Z</time></trkpt><trkpt lat="40.05726774141333" lon="9.148332743798244"><ele>669.0</ele><time>2026-04-26T15:17:56.853Z</time></trkpt><trkpt lat="40.05734404963149" lon="9.148057809265092"><ele>676.0</ele><time>2026-04-26T15:17:57.853Z</time></trkpt><trkpt lat="40.05744509314742" lon="9.147785624390686"><ele>683.0</ele><time>2026-04-26T15:17:58.853Z</time></trkpt><trkpt lat="40.05759582453068" lon="9.147567170171678"><ele>673.0</ele><time>2026-04-26T15:17:59.853Z</time></trkpt><trkpt lat="40.05769952074468" lon="9.14732960347642"><ele>663.0</ele><time>2026-04-26T15:18:00.853Z</time></trkpt><trkpt lat="40.05777874502086" lon="9.147118626859788"><ele>653.0</ele><time>2026-04-26T15:18:01.853Z</time></trkpt><trkpt lat="40.0578206621548" lon="9.146941721088186"><ele>653.0</ele><time>2026-04-26T15:18:02.853Z</time></trkpt><trkpt lat="40.057830368962016" lon="9.146787903149587"><ele>653.0</ele><time>2026-04-26T15:18:03.853Z</time></trkpt><trkpt lat="40.057730967757735" lon="9.146632519909714"><ele>653.0</ele><time>2026-04-26T15:18:04.853Z</time></trkpt><trkpt lat="40.05755688857828" lon="9.146536590991978"><ele>658.6666666666666</ele><time>2026-04-26T15:18:05.853Z</time></trkpt><trkpt lat="40.05740667944675" lon="9.146416888543419"><ele>664.3333333333334</ele><time>2026-04-26T15:18:06.853Z</time></trkpt><trkpt lat="40.05726014126573" lon="9.146250010252468"><ele>670.0</ele><time>2026-04-26T15:18:07.853Z</time></trkpt><trkpt lat="40.057106430947975" lon="9.146067669402951"><ele>670.0</ele><time>2026-04-26T15:18:08.853Z</time></trkpt><trkpt lat="40.056947863417186" lon="9.145877632248615"><ele>670.0</ele><time>2026-04-26T15:18:09.853Z</time></trkpt><trkpt lat="40.056798100763594" lon="9.145685246159884"><ele>670.0</ele><time>2026-04-26T15:18:10.853Z</time></trkpt><trkpt lat="40.05667545054005" lon="9.145497944645626"><ele>680.3333333333334</ele><time>2026-04-26T15:18:11.853Z</time></trkpt><trkpt lat="40.05657315004985" lon="9.145314418233715"><ele>690.6666666666666</ele><time>2026-04-26T15:18:12.853Z</time></trkpt><trkpt lat="40.0565126105039" lon="9.145151456094046"><ele>701.0</ele><time>2026-04-26T15:18:13.853Z</time></trkpt><trkpt lat="40.05648847456007" lon="9.1449565269476"><ele>700.0</ele><time>2026-04-26T15:18:14.853Z</time></trkpt><trkpt lat="40.05651298011044" lon="9.144754593970058"><ele>699.0</ele><time>2026-04-26T15:18:15.853Z</time></trkpt><trkpt lat="40.05658772756451" lon="9.144544269440573"><ele>698.0</ele><time>2026-04-26T15:18:16.853Z</time></trkpt><trkpt lat="40.0567003730043" lon="9.144336068115821"><ele>692.0</ele><time>2026-04-26T15:18:17.853Z</time></trkpt><trkpt lat="40.05680200039704" lon="9.144113026112288"><ele>686.0</ele><time>2026-04-26T15:18:18.852Z</time></trkpt><trkpt lat="40.05692057630205" lon="9.143938644751545"><ele>680.0</ele><time>2026-04-26T15:18:19.852Z</time></trkpt><trkpt lat="40.05703131474321" lon="9.14380718607567"><ele>680.0</ele><time>2026-04-26T15:18:20.852Z</time></trkpt><trkpt lat="40.05711259922022" lon="9.143669022896095"><ele>680.0</ele><time>2026-04-26T15:18:21.852Z</time></trkpt><trkpt lat="40.057130754382214" lon="9.143454811192441"><ele>680.0</ele><time>2026-04-26T15:18:22.852Z</time></trkpt><trkpt lat="40.05712137862831" lon="9.143230056730705"><ele>674.0</ele><time>2026-04-26T15:18:23.852Z</time></trkpt><trkpt lat="40.057075198663426" lon="9.142994309512504"><ele>668.0</ele><time>2026-04-26T15:18:24.852Z</time></trkpt><trkpt lat="40.05698495886281" lon="9.142815335612006"><ele>662.0</ele><time>2026-04-26T15:18:25.852Z</time></trkpt><trkpt lat="40.056927467655214" lon="9.142672640212178"><ele>662.0</ele><time>2026-04-26T15:18:26.852Z</time></trkpt><trkpt lat="40.05680758925129" lon="9.142603258818976"><ele>662.0</ele><time>2026-04-26T15:18:27.852Z</time></trkpt><trkpt lat="40.05666369070858" lon="9.14263592899308"><ele>662.0</ele><time>2026-04-26T15:18:28.852Z</time></trkpt><trkpt lat="40.056539684422404" lon="9.142812626781334"><ele>666.3333333333333</ele><time>2026-04-26T15:18:29.852Z</time></trkpt><trkpt lat="40.05640530525155" lon="9.14299887744033"><ele>670.6666666666666</ele><time>2026-04-26T15:18:30.852Z</time></trkpt><trkpt lat="40.056247957240224" lon="9.143182470088352"><ele>675.0</ele><time>2026-04-26T15:18:31.852Z</time></trkpt><trkpt lat="40.05608403199801" lon="9.143352220949806"><ele>675.0</ele><time>2026-04-26T15:18:32.852Z</time></trkpt><trkpt lat="40.05590118913261" lon="9.143442869330878"><ele>675.0</ele><time>2026-04-26T15:18:33.853Z</time></trkpt><trkpt lat="40.05571369546963" lon="9.14353447774172"><ele>675.0</ele><time>2026-04-26T15:18:34.852Z</time></trkpt><trkpt lat="40.055541417831485" lon="9.143653542581415"><ele>678.0</ele><time>2026-04-26T15:18:35.852Z</time></trkpt><trkpt lat="40.05540730229603" lon="9.1438383139496"><ele>681.0</ele><time>2026-04-26T15:18:36.852Z</time></trkpt><trkpt lat="40.05528337816393" lon="9.144050677633532"><ele>684.0</ele><time>2026-04-26T15:18:37.853Z</time></trkpt><trkpt lat="40.05514393376038" lon="9.144233017988183"><ele>684.0</ele><time>2026-04-26T15:18:38.853Z</time></trkpt><trkpt lat="40.05498027956996" lon="9.144396235147"><ele>684.0</ele><time>2026-04-26T15:18:39.852Z</time></trkpt><trkpt lat="40.05480561507058" lon="9.144543275452238"><ele>684.0</ele><time>2026-04-26T15:18:40.852Z</time></trkpt><trkpt lat="40.05462892783873" lon="9.14469203719441"><ele>686.3333333333334</ele><time>2026-04-26T15:18:41.852Z</time></trkpt><trkpt lat="40.0544483454426" lon="9.144801172805817"><ele>688.6666666666667</ele><time>2026-04-26T15:18:42.853Z</time></trkpt><trkpt lat="40.0542701970076" lon="9.144832111265595"><ele>691.0</ele><time>2026-04-26T15:18:43.852Z</time></trkpt><trkpt lat="40.054122572143946" lon="9.144886877842822"><ele>681.0</ele><time>2026-04-26T15:18:44.852Z</time></trkpt><trkpt lat="40.05401623624497" lon="9.14504567729327"><ele>671.0</ele><time>2026-04-26T15:18:45.852Z</time></trkpt><trkpt lat="40.053926851014864" lon="9.145256256932305"><ele>661.0</ele><time>2026-04-26T15:18:46.853Z</time></trkpt><trkpt lat="40.05382849699398" lon="9.145493536758227"><ele>666.0</ele><time>2026-04-26T15:18:47.853Z</time></trkpt><trkpt lat="40.05376246571845" lon="9.145724759608365"><ele>671.0</ele><time>2026-04-26T15:18:48.853Z</time></trkpt><trkpt lat="40.05375680845339" lon="9.145974628797603"><ele>676.0</ele><time>2026-04-26T15:18:49.853Z</time></trkpt><trkpt lat="40.04733104080274" lon="9.157131765156961"><ele>700.0</ele><time>2026-04-26T15:19:50.851Z</time></trkpt><trkpt lat="40.047268006707164" lon="9.157382780941383"><ele>724.0</ele><time>2026-04-26T15:19:51.851Z</time></trkpt><trkpt lat="40.04717585831552" lon="9.15761161455773"><ele>748.0</ele><time>2026-04-26T15:19:52.851Z</time></trkpt><trkpt lat="40.0470925748993" lon="9.157808947281085"><ele>748.0</ele><time>2026-04-26T15:19:53.851Z</time></trkpt><trkpt lat="40.04705062751883" lon="9.157980123795042"><ele>748.0</ele><time>2026-04-26T15:19:54.851Z</time></trkpt><trkpt lat="40.0470744942247" lon="9.158159430446895"><ele>748.0</ele><time>2026-04-26T15:19:55.851Z</time></trkpt><trkpt lat="40.04714635376285" lon="9.158393329574796"><ele>746.6666666666667</ele><time>2026-04-26T15:19:56.85Z</time></trkpt><trkpt lat="40.04713315069473" lon="9.15864449687208"><ele>745.3333333333334</ele><time>2026-04-26T15:19:57.85Z</time></trkpt><trkpt lat="40.04710756535541" lon="9.158876457169018"><ele>744.0</ele><time>2026-04-26T15:19:58.85Z</time></trkpt><trkpt lat="40.04705570412835" lon="9.159030038045307"><ele>747.0</ele><time>2026-04-26T15:19:59.85Z</time></trkpt><trkpt lat="40.047005102419874" lon="9.159152989541044"><ele>750.0</ele><time>2026-04-26T15:20:00.85Z</time></trkpt><trkpt lat="40.04685240371273" lon="9.159106149360518"><ele>753.0</ele><time>2026-04-26T15:20:01.85Z</time></trkpt><trkpt lat="40.04666993168906" lon="9.159164823408325"><ele>752.3333333333334</ele><time>2026-04-26T15:20:02.85Z</time></trkpt><trkpt lat="40.046495389566395" lon="9.159252162197738"><ele>751.6666666666667</ele><time>2026-04-26T15:20:03.85Z</time></trkpt><trkpt lat="40.04630405348783" lon="9.15935366230567"><ele>751.0</ele><time>2026-04-26T15:20:04.85Z</time></trkpt><trkpt lat="40.0461180476727" lon="9.159494843704366"><ele>751.0</ele><time>2026-04-26T15:20:05.85Z</time></trkpt><trkpt lat="40.0459339907929" lon="9.159656447172226"><ele>751.0</ele><time>2026-04-26T15:20:06.85Z</time></trkpt><trkpt lat="40.045754844714715" lon="9.159782092892478"><ele>751.0</ele><time>2026-04-26T15:20:07.85Z</time></trkpt><trkpt lat="40.045599843974564" lon="9.159866315595465"><ele>752.0</ele><time>2026-04-26T15:20:08.85Z</time></trkpt><trkpt lat="40.04546711563712" lon="9.159920557144147"><ele>753.0</ele><time>2026-04-26T15:20:09.85Z</time></trkpt><trkpt lat="40.04536265505515" lon="9.160003854360312"><ele>754.0</ele><time>2026-04-26T15:20:10.85Z</time></trkpt><trkpt lat="40.04530169293093" lon="9.16012311702958"><ele>755.0</ele><time>2026-04-26T15:20:11.85Z</time></trkpt><trkpt lat="40.0452458916146" lon="9.160286375130623"><ele>755.0</ele><time>2026-04-26T15:20:12.85Z</time></trkpt><trkpt lat="40.04519123676874" lon="9.160443114148102"><ele>755.0</ele><time>2026-04-26T15:20:13.85Z</time></trkpt><trkpt lat="40.04511844392054" lon="9.160576854530444"><ele>755.0</ele><time>2026-04-26T15:20:14.85Z</time></trkpt><trkpt lat="40.04503527156332" lon="9.1606187326955"><ele>755.0</ele><time>2026-04-26T15:20:15.85Z</time></trkpt><trkpt lat="40.04491343750197" lon="9.160609007569942"><ele>762.3333333333333</ele><time>2026-04-26T15:20:16.85Z</time></trkpt><trkpt lat="40.04484834512829" lon="9.160599850244761"><ele>769.6666666666666</ele><time>2026-04-26T15:20:17.85Z</time></trkpt><trkpt lat="40.044773265907786" lon="9.160282543004149"><ele>777.0</ele><time>2026-04-26T15:20:18.85Z</time></trkpt><trkpt lat="40.04474520961939" lon="9.16005869299649"><ele>777.0</ele><time>2026-04-26T15:20:19.85Z</time></trkpt><trkpt lat="40.0446448612032" lon="9.159874754924363"><ele>777.0</ele><time>2026-04-26T15:20:20.85Z</time></trkpt><trkpt lat="40.04448517035955" lon="9.159749071052866"><ele>777.0</ele><time>2026-04-26T15:20:21.85Z</time></trkpt><trkpt lat="40.0443062271538" lon="9.159571698570549"><ele>780.5</ele><time>2026-04-26T15:20:22.85Z</time></trkpt><trkpt lat="40.04414805313111" lon="9.159354952746922"><ele>784.0</ele><time>2026-04-26T15:20:23.85Z</time></trkpt><trkpt lat="40.04401473878953" lon="9.159120381441046"><ele>776.6666666666666</ele><time>2026-04-26T15:20:24.85Z</time></trkpt><trkpt lat="40.043876261797095" lon="9.158922479372945"><ele>769.3333333333333</ele><time>2026-04-26T15:20:25.85Z</time></trkpt><trkpt lat="40.04373065394336" lon="9.158779034014486"><ele>762.0</ele><time>2026-04-26T15:20:26.85Z</time></trkpt><trkpt lat="40.04354899822741" lon="9.158681529694825"><ele>762.0</ele><time>2026-04-26T15:20:27.85Z</time></trkpt><trkpt lat="40.043346905595186" lon="9.158618253172348"><ele>762.0</ele><time>2026-04-26T15:20:28.849Z</time></trkpt><trkpt lat="40.043125791192736" lon="9.158561989546307"><ele>762.0</ele><time>2026-04-26T15:20:29.849Z</time></trkpt><trkpt lat="40.042909239644516" lon="9.158481394000857"><ele>764.0</ele><time>2026-04-26T15:20:30.849Z</time></trkpt><trkpt lat="40.04270174125263" lon="9.158381508284512"><ele>766.0</ele><time>2026-04-26T15:20:31.849Z</time></trkpt><trkpt lat="40.042512411101434" lon="9.158283210144903"><ele>768.0</ele><time>2026-04-26T15:20:32.849Z</time></trkpt><trkpt lat="40.042342778427376" lon="9.158209274879612"><ele>770.3333333333333</ele><time>2026-04-26T15:20:33.849Z</time></trkpt><trkpt lat="40.04218821111423" lon="9.158202843122329"><ele>772.6666666666666</ele><time>2026-04-26T15:20:34.849Z</time></trkpt><trkpt lat="40.04204793269632" lon="9.15828615423987"><ele>775.0</ele><time>2026-04-26T15:20:35.849Z</time></trkpt><trkpt lat="40.04192948848299" lon="9.158465690518216"><ele>775.0</ele><time>2026-04-26T15:20:36.849Z</time></trkpt><trkpt lat="40.04181544573126" lon="9.158682005556887"><ele>775.0</ele><time>2026-04-26T15:20:37.849Z</time></trkpt><trkpt lat="40.04171367675212" lon="9.158857191710403"><ele>775.0</ele><time>2026-04-26T15:20:38.849Z</time></trkpt><trkpt lat="40.041619731706014" lon="9.158975067949873"><ele>784.75</ele><time>2026-04-26T15:20:39.85Z</time></trkpt><trkpt lat="40.041495070123055" lon="9.159004615359871"><ele>794.5</ele><time>2026-04-26T15:20:40.849Z</time></trkpt><trkpt lat="40.04138791652906" lon="9.158962929949586"><ele>804.25</ele><time>2026-04-26T15:20:41.849Z</time></trkpt><trkpt lat="40.04133842246943" lon="9.158837793894689"><ele>814.0</ele><time>2026-04-26T15:20:42.849Z</time></trkpt><trkpt lat="40.0413532697828" lon="9.158657721870146"><ele>814.0</ele><time>2026-04-26T15:20:43.849Z</time></trkpt><trkpt lat="40.04139820762004" lon="9.158441378178779"><ele>814.0</ele><time>2026-04-26T15:20:44.849Z</time></trkpt><trkpt lat="40.04147612133949" lon="9.158207811490376"><ele>814.0</ele><time>2026-04-26T15:20:45.849Z</time></trkpt><trkpt lat="40.041553670626314" lon="9.158011263142166"><ele>808.3333333333333</ele><time>2026-04-26T15:20:46.849Z</time></trkpt><trkpt lat="40.041585415628816" lon="9.157810495178062"><ele>802.6666666666667</ele><time>2026-04-26T15:20:47.849Z</time></trkpt><trkpt lat="40.04155890580159" lon="9.15760490581144"><ele>797.0</ele><time>2026-04-26T15:20:48.849Z</time></trkpt><trkpt lat="40.04146270233588" lon="9.157422578483622"><ele>799.0</ele><time>2026-04-26T15:20:49.849Z</time></trkpt><trkpt lat="40.032838464508984" lon="9.162656251215077"><ele>799.0</ele><time>2026-04-26T15:21:50.847Z</time></trkpt><trkpt lat="40.03272720680442" lon="9.162639425426226"><ele>799.0</ele><time>2026-04-26T15:21:51.847Z</time></trkpt><trkpt lat="40.03263092612574" lon="9.162557506360471"><ele>799.0</ele><time>2026-04-26T15:21:52.847Z</time></trkpt><trkpt lat="40.03257804769101" lon="9.162424690946505"><ele>799.0</ele><time>2026-04-26T15:21:53.846Z</time></trkpt><trkpt lat="40.03251221796025" lon="9.16230611363693"><ele>801.6</ele><time>2026-04-26T15:21:54.846Z</time></trkpt><trkpt lat="40.03247384739931" lon="9.162195723959211"><ele>804.2</ele><time>2026-04-26T15:21:55.846Z</time></trkpt><trkpt lat="40.03248065927703" lon="9.162080558506393"><ele>806.8000000000001</ele><time>2026-04-26T15:21:57.846Z</time></trkpt><trkpt lat="40.03231648905483" lon="9.162069859640626"><ele>809.4000000000001</ele><time>2026-04-26T15:22:00.846Z</time></trkpt><trkpt lat="40.032305626545224" lon="9.162177406666101"><ele>812.0</ele><time>2026-04-26T15:22:02.846Z</time></trkpt><trkpt lat="40.03235999771346" lon="9.162219604564834"><ele>809.4000000000001</ele><time>2026-04-26T15:22:05.846Z</time></trkpt><trkpt lat="40.03241362453196" lon="9.162269861664388"><ele>806.8000000000001</ele><time>2026-04-26T15:22:37.845Z</time></trkpt><trkpt lat="40.03250303746404" lon="9.162380475433617"><ele>804.2</ele><time>2026-04-26T15:22:39.845Z</time></trkpt><trkpt lat="40.032554547065395" lon="9.162496545555861"><ele>801.6</ele><time>2026-04-26T15:22:41.845Z</time></trkpt><trkpt lat="40.03262647523041" lon="9.162587111800464"><ele>799.0</ele><time>2026-04-26T15:22:43.845Z</time></trkpt><trkpt lat="40.032706419478004" lon="9.162646241610407"><ele>799.0</ele><time>2026-04-26T15:22:45.846Z</time></trkpt><trkpt lat="40.03276965630988" lon="9.162702267681144"><ele>799.0</ele><time>2026-04-26T15:22:47.847Z</time></trkpt><trkpt lat="40.03288444180601" lon="9.162689600708642"><ele>799.0</ele><time>2026-04-26T15:22:49.846Z</time></trkpt><trkpt lat="40.04105814859135" lon="9.157111050230958"><ele>798.3333333333333</ele><time>2026-04-26T15:23:50.844Z</time></trkpt><trkpt lat="40.0412525988828" lon="9.157276875760607"><ele>797.6666666666667</ele><time>2026-04-26T15:23:51.844Z</time></trkpt><trkpt lat="40.0414046233834" lon="9.157436228469418"><ele>797.0</ele><time>2026-04-26T15:23:52.844Z</time></trkpt><trkpt lat="40.041508790194996" lon="9.15761280554465"><ele>797.0</ele><time>2026-04-26T15:23:53.844Z</time></trkpt><trkpt lat="40.0415457387795" lon="9.15783138757642"><ele>797.0</ele><time>2026-04-26T15:23:54.844Z</time></trkpt><trkpt lat="40.04152000324912" lon="9.15806654978228"><ele>797.0</ele><time>2026-04-26T15:23:55.844Z</time></trkpt><trkpt lat="40.04142135208844" lon="9.158297272037112"><ele>802.6666666666667</ele><time>2026-04-26T15:23:56.844Z</time></trkpt><trkpt lat="40.04135872743451" lon="9.15853856022082"><ele>808.3333333333333</ele><time>2026-04-26T15:23:57.844Z</time></trkpt><trkpt lat="40.041332380008214" lon="9.158769006536264"><ele>814.0</ele><time>2026-04-26T15:23:58.844Z</time></trkpt><trkpt lat="40.041356267758545" lon="9.158934935256426"><ele>814.5</ele><time>2026-04-26T15:23:59.844Z</time></trkpt><trkpt lat="40.04142479533775" lon="9.15903617859019"><ele>815.0</ele><time>2026-04-26T15:24:00.844Z</time></trkpt><trkpt lat="40.041548297070655" lon="9.159083527862382"><ele>815.5</ele><time>2026-04-26T15:24:01.844Z</time></trkpt><trkpt lat="40.04169141291367" lon="9.159011803676597"><ele>816.0</ele><time>2026-04-26T15:24:02.844Z</time></trkpt><trkpt lat="40.041826417964344" lon="9.158855968079337"><ele>802.3333333333333</ele><time>2026-04-26T15:24:03.844Z</time></trkpt><trkpt lat="40.04193706993863" lon="9.158624169248734"><ele>788.6666666666666</ele><time>2026-04-26T15:24:04.844Z</time></trkpt><trkpt lat="40.0420407356806" lon="9.15840957952382"><ele>775.0</ele><time>2026-04-26T15:24:05.843Z</time></trkpt><trkpt lat="40.04215217244658" lon="9.158263541580915"><ele>775.0</ele><time>2026-04-26T15:24:06.843Z</time></trkpt><trkpt lat="40.04230365688848" lon="9.158240348652345"><ele>775.0</ele><time>2026-04-26T15:24:07.843Z</time></trkpt><trkpt lat="40.042462823675976" lon="9.158300863580644"><ele>775.0</ele><time>2026-04-26T15:24:08.843Z</time></trkpt><trkpt lat="40.04267063749121" lon="9.158404440421386"><ele>771.5</ele><time>2026-04-26T15:24:09.843Z</time></trkpt><trkpt lat="40.042901992734095" lon="9.158507329883024"><ele>768.0</ele><time>2026-04-26T15:24:10.843Z</time></trkpt><trkpt lat="40.04315355640601" lon="9.1585893775375"><ele>765.0</ele><time>2026-04-26T15:24:11.843Z</time></trkpt><trkpt lat="40.04338644377661" lon="9.15865093242249"><ele>762.0</ele><time>2026-04-26T15:24:12.843Z</time></trkpt><trkpt lat="40.04359382064316" lon="9.15872649895019"><ele>762.0</ele><time>2026-04-26T15:24:13.843Z</time></trkpt><trkpt lat="40.04378415661551" lon="9.158826742639894"><ele>762.0</ele><time>2026-04-26T15:24:14.843Z</time></trkpt><trkpt lat="40.04394150316934" lon="9.159049167937725"><ele>762.0</ele><time>2026-04-26T15:24:15.843Z</time></trkpt><trkpt lat="40.04408247262851" lon="9.15925162844906"><ele>760.5</ele><time>2026-04-26T15:24:16.843Z</time></trkpt><trkpt lat="40.044243253118914" lon="9.159482438513821"><ele>759.0</ele><time>2026-04-26T15:24:17.843Z</time></trkpt><trkpt lat="40.0444318018069" lon="9.159686982130417"><ele>759.0</ele><time>2026-04-26T15:24:18.843Z</time></trkpt><trkpt lat="40.044605429764545" lon="9.159851739627245"><ele>759.0</ele><time>2026-04-26T15:24:19.843Z</time></trkpt><trkpt lat="40.044694941285606" lon="9.159999004135843"><ele>759.0</ele><time>2026-04-26T15:24:20.843Z</time></trkpt><trkpt lat="40.04474523200442" lon="9.160222764655904"><ele>761.0</ele><time>2026-04-26T15:24:21.843Z</time></trkpt><trkpt lat="40.04479053970113" lon="9.160448289182966"><ele>763.0</ele><time>2026-04-26T15:24:22.843Z</time></trkpt><trkpt lat="40.044875716331596" lon="9.16061721591816"><ele>765.0</ele><time>2026-04-26T15:24:23.843Z</time></trkpt><trkpt lat="40.044976765615495" lon="9.160722999313673"><ele>765.0</ele><time>2026-04-26T15:24:24.843Z</time></trkpt><trkpt lat="40.04507239176665" lon="9.160719276120284"><ele>765.0</ele><time>2026-04-26T15:24:25.843Z</time></trkpt><trkpt lat="40.04520636431418" lon="9.16067108416723"><ele>765.0</ele><time>2026-04-26T15:24:26.843Z</time></trkpt><trkpt lat="40.04529310680403" lon="9.160464484324816"><ele>765.0</ele><time>2026-04-26T15:24:27.843Z</time></trkpt><trkpt lat="40.04533779125214" lon="9.160211815227902"><ele>761.6666666666666</ele><time>2026-04-26T15:24:28.843Z</time></trkpt><trkpt lat="40.04544346805037" lon="9.160015182513648"><ele>758.3333333333333</ele><time>2026-04-26T15:24:29.843Z</time></trkpt><trkpt lat="40.04556417879126" lon="9.159911047118237"><ele>755.0</ele><time>2026-04-26T15:24:30.843Z</time></trkpt><trkpt lat="40.04573724040064" lon="9.15986388463114"><ele>753.6666666666666</ele><time>2026-04-26T15:24:31.843Z</time></trkpt><trkpt lat="40.04593098629282" lon="9.159751138788074"><ele>752.3333333333334</ele><time>2026-04-26T15:24:32.843Z</time></trkpt><trkpt lat="40.046101798151476" lon="9.15957612402251"><ele>751.0</ele><time>2026-04-26T15:24:33.843Z</time></trkpt><trkpt lat="40.04629211900697" lon="9.159409262762791"><ele>751.0</ele><time>2026-04-26T15:24:34.843Z</time></trkpt><trkpt lat="40.04649615844366" lon="9.15928489307596"><ele>751.0</ele><time>2026-04-26T15:24:35.843Z</time></trkpt><trkpt lat="40.04669860461546" lon="9.159177719968152"><ele>751.0</ele><time>2026-04-26T15:24:36.843Z</time></trkpt><trkpt lat="40.04690333800902" lon="9.159143551035282"><ele>751.5</ele><time>2026-04-26T15:24:37.842Z</time></trkpt><trkpt lat="40.04705800555816" lon="9.159067402489127"><ele>752.0</ele><time>2026-04-26T15:24:38.842Z</time></trkpt><trkpt lat="40.04718126869977" lon="9.15899650192738"><ele>752.5</ele><time>2026-04-26T15:24:39.842Z</time></trkpt><trkpt lat="40.04723534910036" lon="9.15883227758744"><ele>753.0</ele><time>2026-04-26T15:24:40.842Z</time></trkpt><trkpt lat="40.047235891785824" lon="9.158598391951367"><ele>751.3333333333334</ele><time>2026-04-26T15:24:41.842Z</time></trkpt><trkpt lat="40.04723943136701" lon="9.158332779501947"><ele>749.6666666666667</ele><time>2026-04-26T15:24:42.842Z</time></trkpt><trkpt lat="40.04722219465466" lon="9.158087702644545"><ele>748.0</ele><time>2026-04-26T15:24:43.842Z</time></trkpt><trkpt lat="40.0471621385048" lon="9.15789080551783"><ele>748.0</ele><time>2026-04-26T15:24:44.842Z</time></trkpt><trkpt lat="40.047129468308796" lon="9.157732050064391"><ele>748.0</ele><time>2026-04-26T15:24:45.842Z</time></trkpt><trkpt lat="40.04723185977719" lon="9.157572595455862"><ele>748.0</ele><time>2026-04-26T15:24:46.842Z</time></trkpt><trkpt lat="40.04731571290993" lon="9.157348043406042"><ele>749.3333333333334</ele><time>2026-04-26T15:24:47.842Z</time></trkpt><trkpt lat="40.04738709435379" lon="9.15709301551084"><ele>750.6666666666666</ele><time>2026-04-26T15:24:48.842Z</time></trkpt><trkpt lat="40.04740774799717" lon="9.156821228681656"><ele>752.0</ele><time>2026-04-26T15:24:49.842Z</time></trkpt><trkpt lat="40.05400749276762" lon="9.14519356982845"><ele>722.3333333333333</ele><time>2026-04-26T15:25:50.841Z</time></trkpt><trkpt lat="40.054108554476024" lon="9.144983416103837"><ele>692.6666666666666</ele><time>2026-04-26T15:25:51.841Z</time></trkpt><trkpt lat="40.05421318407531" lon="9.144859377464929"><ele>663.0</ele><time>2026-04-26T15:25:52.841Z</time></trkpt><trkpt lat="40.05434084599656" lon="9.144849106524791"><ele>663.0</ele><time>2026-04-26T15:25:53.841Z</time></trkpt><trkpt lat="40.054538662288245" lon="9.144795782228757"><ele>663.0</ele><time>2026-04-26T15:25:54.841Z</time></trkpt><trkpt lat="40.05472059116711" lon="9.144635613086717"><ele>663.0</ele><time>2026-04-26T15:25:55.841Z</time></trkpt><trkpt lat="40.054918555376744" lon="9.144487300790741"><ele>659.0</ele><time>2026-04-26T15:25:56.84Z</time></trkpt><trkpt lat="40.05510571367124" lon="9.144322226037648"><ele>655.0</ele><time>2026-04-26T15:25:57.84Z</time></trkpt><trkpt lat="40.05526634994821" lon="9.144145200976757"><ele>651.0</ele><time>2026-04-26T15:25:58.84Z</time></trkpt><trkpt lat="40.055383729277835" lon="9.143950681729043"><ele>651.0</ele><time>2026-04-26T15:25:59.84Z</time></trkpt><trkpt lat="40.05550453322721" lon="9.143761830560582"><ele>651.0</ele><time>2026-04-26T15:26:00.84Z</time></trkpt><trkpt lat="40.05565013728671" lon="9.143602714043082"><ele>651.0</ele><time>2026-04-26T15:26:01.84Z</time></trkpt><trkpt lat="40.05583362872487" lon="9.143505736356552"><ele>647.6666666666666</ele><time>2026-04-26T15:26:02.84Z</time></trkpt><trkpt lat="40.05605096823754" lon="9.143407458832813"><ele>644.3333333333333</ele><time>2026-04-26T15:26:03.84Z</time></trkpt><trkpt lat="40.05621628125704" lon="9.143220215335612"><ele>641.0</ele><time>2026-04-26T15:26:04.84Z</time></trkpt><trkpt lat="40.056385272191775" lon="9.14302711355717"><ele>641.0</ele><time>2026-04-26T15:26:05.84Z</time></trkpt><trkpt lat="40.056554745187036" lon="9.142859983910421"><ele>641.0</ele><time>2026-04-26T15:26:06.84Z</time></trkpt><trkpt lat="40.05668231897173" lon="9.142716903550278"><ele>641.0</ele><time>2026-04-26T15:26:07.84Z</time></trkpt><trkpt lat="40.056776879738244" lon="9.142628023342303"><ele>646.25</ele><time>2026-04-26T15:26:08.84Z</time></trkpt><trkpt lat="40.05686468086872" lon="9.142659878514333"><ele>651.5</ele><time>2026-04-26T15:26:09.84Z</time></trkpt><trkpt lat="40.05696252602296" lon="9.142745717063745"><ele>656.75</ele><time>2026-04-26T15:26:10.84Z</time></trkpt><trkpt lat="40.057027700116386" lon="9.142966473835974"><ele>662.0</ele><time>2026-04-26T15:26:11.84Z</time></trkpt><trkpt lat="40.057092553332666" lon="9.143233435807355"><ele>668.0</ele><time>2026-04-26T15:26:12.84Z</time></trkpt><trkpt lat="40.05709645074937" lon="9.143509790060941"><ele>674.0</ele><time>2026-04-26T15:26:13.84Z</time></trkpt><trkpt lat="40.05706368855944" lon="9.143715866565584"><ele>680.0</ele><time>2026-04-26T15:26:14.84Z</time></trkpt><trkpt lat="40.056981691579956" lon="9.14386010987071"><ele>680.0</ele><time>2026-04-26T15:26:15.84Z</time></trkpt><trkpt lat="40.056820117041546" lon="9.144033697721273"><ele>680.0</ele><time>2026-04-26T15:26:16.84Z</time></trkpt><trkpt lat="40.056692834210736" lon="9.144236976758263"><ele>680.0</ele><time>2026-04-26T15:26:17.84Z</time></trkpt><trkpt lat="40.0565783899996" lon="9.144439229287695"><ele>686.0</ele><time>2026-04-26T15:26:18.84Z</time></trkpt><trkpt lat="40.05648302634681" lon="9.144645818600871"><ele>692.0</ele><time>2026-04-26T15:26:19.84Z</time></trkpt><trkpt lat="40.05642816208964" lon="9.144855690214204"><ele>698.0</ele><time>2026-04-26T15:26:20.84Z</time></trkpt><trkpt lat="40.05642414267896" lon="9.14507217254798"><ele>699.0</ele><time>2026-04-26T15:26:21.84Z</time></trkpt><trkpt lat="40.05647175285532" lon="9.145278092818227"><ele>700.0</ele><time>2026-04-26T15:26:22.84Z</time></trkpt><trkpt lat="40.05656717325215" lon="9.145483657062538"><ele>701.0</ele><time>2026-04-26T15:26:23.84Z</time></trkpt><trkpt lat="40.05671728425059" lon="9.145685481706506"><ele>685.5</ele><time>2026-04-26T15:26:24.84Z</time></trkpt><trkpt lat="40.05687799411375" lon="9.145907005722798"><ele>670.0</ele><time>2026-04-26T15:26:25.84Z</time></trkpt><trkpt lat="40.05704765067477" lon="9.146105150659901"><ele>670.0</ele><time>2026-04-26T15:26:26.84Z</time></trkpt><trkpt lat="40.05720839508864" lon="9.146294688381863"><ele>670.0</ele><time>2026-04-26T15:26:27.84Z</time></trkpt><trkpt lat="40.05736173578431" lon="9.146467235829062"><ele>670.0</ele><time>2026-04-26T15:26:28.84Z</time></trkpt><trkpt lat="40.057513600004874" lon="9.146585424939227"><ele>665.75</ele><time>2026-04-26T15:26:29.839Z</time></trkpt><trkpt lat="40.057652066360774" lon="9.146659218483238"><ele>661.5</ele><time>2026-04-26T15:26:30.839Z</time></trkpt><trkpt lat="40.05776788957914" lon="9.146745944284406"><ele>657.25</ele><time>2026-04-26T15:26:31.839Z</time></trkpt><trkpt lat="40.05781402518407" lon="9.14688210629507"><ele>653.0</ele><time>2026-04-26T15:26:32.839Z</time></trkpt><trkpt lat="40.05776910340685" lon="9.14706511793675"><ele>653.0</ele><time>2026-04-26T15:26:33.839Z</time></trkpt><trkpt lat="40.05767767674533" lon="9.147301629914116"><ele>653.0</ele><time>2026-04-26T15:26:34.839Z</time></trkpt><trkpt lat="40.057559253661644" lon="9.147563463769934"><ele>653.0</ele><time>2026-04-26T15:26:35.839Z</time></trkpt><trkpt lat="40.05743094394247" lon="9.147783926140246"><ele>658.3333333333333</ele><time>2026-04-26T15:26:36.839Z</time></trkpt><trkpt lat="40.05731511654687" lon="9.147993094158151"><ele>663.6666666666666</ele><time>2026-04-26T15:26:37.839Z</time></trkpt><trkpt lat="40.05722785626489" lon="9.148231141741174"><ele>669.0</ele><time>2026-04-26T15:26:38.839Z</time></trkpt><trkpt lat="40.05717315907823" lon="9.148497979553452"><ele>669.0</ele><time>2026-04-26T15:26:39.839Z</time></trkpt><trkpt lat="40.057124432566646" lon="9.14878099042771"><ele>669.0</ele><time>2026-04-26T15:26:40.839Z</time></trkpt><trkpt lat="40.05704742462232" lon="9.149054532525707"><ele>669.0</ele><time>2026-04-26T15:26:41.839Z</time></trkpt><trkpt lat="40.05690112985619" lon="9.149287506088177"><ele>673.3333333333334</ele><time>2026-04-26T15:26:42.839Z</time></trkpt><trkpt lat="40.05679268142654" lon="9.149547823355274"><ele>677.6666666666667</ele><time>2026-04-26T15:26:43.839Z</time></trkpt><trkpt lat="40.056667198396596" lon="9.14976801380934"><ele>682.0</ele><time>2026-04-26T15:26:44.839Z</time></trkpt><trkpt lat="40.056595083693885" lon="9.149983684508703"><ele>682.0</ele><time>2026-04-26T15:26:45.839Z</time></trkpt><trkpt lat="40.05653460128623" lon="9.150160949638197"><ele>682.0</ele><time>2026-04-26T15:26:46.839Z</time></trkpt><trkpt lat="40.0564886058906" lon="9.150330091865854"><ele>682.0</ele><time>2026-04-26T15:26:47.839Z</time></trkpt><trkpt lat="40.056445010185385" lon="9.150498864012684"><ele>682.0</ele><time>2026-04-26T15:26:48.839Z</time></trkpt><trkpt lat="40.05641130909879" lon="9.150679681869123"><ele>568.0</ele><time>2026-04-26T15:26:49.839Z</time></trkpt><trkpt lat="40.057237712440674" lon="9.15614846237236"><ele>568.0</ele><time>2026-04-26T15:27:50.838Z</time></trkpt><trkpt lat="40.05731916194937" lon="9.155984710336096"><ele>568.0</ele><time>2026-04-26T15:27:51.838Z</time></trkpt><trkpt lat="40.057435452372495" lon="9.155860116411237"><ele>568.0</ele><time>2026-04-26T15:27:52.838Z</time></trkpt><trkpt lat="40.05750766501754" lon="9.155726820286608"><ele>568.0</ele><time>2026-04-26T15:27:53.838Z</time></trkpt><trkpt lat="40.057498342196354" lon="9.15552869410028"><ele>566.6666666666667</ele><time>2026-04-26T15:27:54.837Z</time></trkpt><trkpt lat="40.05744497655855" lon="9.15529398629424"><ele>565.3333333333334</ele><time>2026-04-26T15:27:55.837Z</time></trkpt><trkpt lat="40.05742308178249" lon="9.155096295514234"><ele>564.0</ele><time>2026-04-26T15:27:56.837Z</time></trkpt><trkpt lat="40.05746813298919" lon="9.154911400458692"><ele>566.0</ele><time>2026-04-26T15:27:57.837Z</time></trkpt><trkpt lat="40.05757588633088" lon="9.1547386381824"><ele>568.0</ele><time>2026-04-26T15:27:58.837Z</time></trkpt><trkpt lat="40.05767805942669" lon="9.154549756714987"><ele>570.0</ele><time>2026-04-26T15:27:59.837Z</time></trkpt><trkpt lat="40.05778759035108" lon="9.154331618516395"><ele>570.0</ele><time>2026-04-26T15:28:00.837Z</time></trkpt><trkpt lat="40.05789166693842" lon="9.154089264948484"><ele>570.0</ele><time>2026-04-26T15:28:01.837Z</time></trkpt><trkpt lat="40.05799528640694" lon="9.153840573954959"><ele>570.0</ele><time>2026-04-26T15:28:02.837Z</time></trkpt><trkpt lat="40.05810266347216" lon="9.15359886717353"><ele>566.3333333333334</ele><time>2026-04-26T15:28:03.837Z</time></trkpt><trkpt lat="40.05824436878666" lon="9.153367938489957"><ele>562.6666666666667</ele><time>2026-04-26T15:28:04.837Z</time></trkpt><trkpt lat="40.058394003453536" lon="9.153161395281336"><ele>559.0</ele><time>2026-04-26T15:28:05.837Z</time></trkpt><trkpt lat="40.05855150713694" lon="9.152960110317514"><ele>557.0</ele><time>2026-04-26T15:28:06.837Z</time></trkpt><trkpt lat="40.05870259779768" lon="9.152750065591462"><ele>555.0</ele><time>2026-04-26T15:28:07.837Z</time></trkpt><trkpt lat="40.05884283793245" lon="9.152527955012081"><ele>553.0</ele><time>2026-04-26T15:28:08.837Z</time></trkpt><trkpt lat="40.05896379179428" lon="9.152316356844645"><ele>554.3333333333334</ele><time>2026-04-26T15:28:09.837Z</time></trkpt><trkpt lat="40.05908253654753" lon="9.152121949217587"><ele>555.6666666666666</ele><time>2026-04-26T15:28:10.837Z</time></trkpt><trkpt lat="40.059214584827835" lon="9.151973560290402"><ele>557.0</ele><time>2026-04-26T15:28:11.837Z</time></trkpt><trkpt lat="40.05938884820878" lon="9.151891534710614"><ele>557.0</ele><time>2026-04-26T15:28:12.837Z</time></trkpt><trkpt lat="40.05957098169604" lon="9.15180324255439"><ele>557.0</ele><time>2026-04-26T15:28:13.837Z</time></trkpt><trkpt lat="40.05972958870526" lon="9.151641210796782"><ele>557.0</ele><time>2026-04-26T15:28:14.837Z</time></trkpt><trkpt lat="40.059874227036595" lon="9.151444920419303"><ele>554.0</ele><time>2026-04-26T15:28:15.837Z</time></trkpt><trkpt lat="40.06005942661537" lon="9.15129103022819"><ele>551.0</ele><time>2026-04-26T15:28:16.837Z</time></trkpt><trkpt lat="40.060266531112276" lon="9.151170470032621"><ele>548.0</ele><time>2026-04-26T15:28:17.837Z</time></trkpt><trkpt lat="40.060472997474264" lon="9.151079683634103"><ele>548.0</ele><time>2026-04-26T15:28:18.837Z</time></trkpt><trkpt lat="40.06067265100081" lon="9.151002785072166"><ele>548.0</ele><time>2026-04-26T15:28:19.837Z</time></trkpt><trkpt lat="40.06086046671048" lon="9.150931983399165"><ele>548.0</ele><time>2026-04-26T15:28:20.837Z</time></trkpt><trkpt lat="40.061037059013984" lon="9.15085846776867"><ele>546.0</ele><time>2026-04-26T15:28:21.837Z</time></trkpt><trkpt lat="40.06119694845271" lon="9.150711998859867"><ele>544.0</ele><time>2026-04-26T15:28:22.837Z</time></trkpt><trkpt lat="40.06137368573218" lon="9.150549686760371"><ele>542.0</ele><time>2026-04-26T15:28:23.837Z</time></trkpt><trkpt lat="40.0615776386498" lon="9.150403973006789"><ele>548.3333333333333</ele><time>2026-04-26T15:28:24.837Z</time></trkpt><trkpt lat="40.06177471862533" lon="9.150262781440485"><ele>554.6666666666666</ele><time>2026-04-26T15:28:25.837Z</time></trkpt><trkpt lat="40.06194859357051" lon="9.150098788063211"><ele>561.0</ele><time>2026-04-26T15:28:26.837Z</time></trkpt><trkpt lat="40.06210441771202" lon="9.14991858408045"><ele>557.0</ele><time>2026-04-26T15:28:27.837Z</time></trkpt><trkpt lat="40.06227204328371" lon="9.149788608746452"><ele>553.0</ele><time>2026-04-26T15:28:28.836Z</time></trkpt><trkpt lat="40.06247855410517" lon="9.149746523659518"><ele>549.0</ele><time>2026-04-26T15:28:29.836Z</time></trkpt><trkpt lat="40.062693583270665" lon="9.149764714951361"><ele>549.0</ele><time>2026-04-26T15:28:30.836Z</time></trkpt><trkpt lat="40.06291596752643" lon="9.149795027294248"><ele>549.0</ele><time>2026-04-26T15:28:31.836Z</time></trkpt><trkpt lat="40.06312155092822" lon="9.149821493314422"><ele>549.0</ele><time>2026-04-26T15:28:32.836Z</time></trkpt><trkpt lat="40.06330809790327" lon="9.149842719456279"><ele>557.6666666666666</ele><time>2026-04-26T15:28:33.836Z</time></trkpt><trkpt lat="40.06348176212319" lon="9.149883341073958"><ele>566.3333333333333</ele><time>2026-04-26T15:28:34.836Z</time></trkpt><trkpt lat="40.063649338086336" lon="9.1499470736676"><ele>575.0</ele><time>2026-04-26T15:28:35.836Z</time></trkpt><trkpt lat="40.063811424202854" lon="9.150011396967917"><ele>575.0</ele><time>2026-04-26T15:28:36.836Z</time></trkpt><trkpt lat="40.063967578018946" lon="9.150062566061345"><ele>575.0</ele><time>2026-04-26T15:28:37.836Z</time></trkpt><trkpt lat="40.064108084181335" lon="9.150091564335877"><ele>575.0</ele><time>2026-04-26T15:28:38.836Z</time></trkpt><trkpt lat="40.064229709532185" lon="9.150138132200548"><ele>575.0</ele><time>2026-04-26T15:28:39.836Z</time></trkpt><trkpt lat="40.06432393445413" lon="9.150220156462712"><ele>576.0</ele><time>2026-04-26T15:28:40.836Z</time></trkpt><trkpt lat="40.0643841429744" lon="9.150338592756622"><ele>577.0</ele><time>2026-04-26T15:28:41.836Z</time></trkpt><trkpt lat="40.06442056333279" lon="9.150492466873436"><ele>578.0</ele><time>2026-04-26T15:28:42.836Z</time></trkpt><trkpt lat="40.064462089384655" lon="9.150664097963226"><ele>579.0</ele><time>2026-04-26T15:28:43.836Z</time></trkpt><trkpt lat="40.06450950987637" lon="9.150843092028662"><ele>579.0</ele><time>2026-04-26T15:28:44.836Z</time></trkpt><trkpt lat="40.064555446815866" lon="9.151020382558189"><ele>579.0</ele><time>2026-04-26T15:28:45.836Z</time></trkpt><trkpt lat="40.06460967681518" lon="9.151182321968772"><ele>579.0</ele><time>2026-04-26T15:28:46.836Z</time></trkpt><trkpt lat="40.06469755093858" lon="9.151318886100793"><ele>579.0</ele><time>2026-04-26T15:28:47.836Z</time></trkpt><trkpt lat="40.06479415780677" lon="9.151429537376112"><ele>579.0</ele><time>2026-04-26T15:28:48.836Z</time></trkpt><trkpt lat="40.06488927082573" lon="9.151490928236573"><ele>579.0</ele><time>2026-04-26T15:28:49.836Z</time></trkpt><trkpt lat="40.07019731305995" lon="9.147911940994579"><ele>576.0</ele><time>2026-04-26T15:29:50.835Z</time></trkpt><trkpt lat="40.07031705177261" lon="9.14794084490755"><ele>573.0</ele><time>2026-04-26T15:29:51.835Z</time></trkpt><trkpt lat="40.07044584465952" lon="9.147927625646275"><ele>570.0</ele><time>2026-04-26T15:29:52.835Z</time></trkpt><trkpt lat="40.070576356987985" lon="9.14784888904836"><ele>567.0</ele><time>2026-04-26T15:29:53.835Z</time></trkpt><trkpt lat="40.07071094686116" lon="9.147779909457416"><ele>568.6666666666666</ele><time>2026-04-26T15:29:54.835Z</time></trkpt><trkpt lat="40.070847278763075" lon="9.147691539276032"><ele>570.3333333333333</ele><time>2026-04-26T15:29:55.835Z</time></trkpt><trkpt lat="40.0709975666441" lon="9.147630617228145"><ele>572.0</ele><time>2026-04-26T15:29:56.835Z</time></trkpt><trkpt lat="40.07115117896397" lon="9.147567532711163"><ele>572.0</ele><time>2026-04-26T15:29:57.835Z</time></trkpt><trkpt lat="40.07131024296219" lon="9.147511915026458"><ele>572.0</ele><time>2026-04-26T15:29:58.835Z</time></trkpt><trkpt lat="40.07148024929431" lon="9.147481818685806"><ele>572.0</ele><time>2026-04-26T15:29:59.835Z</time></trkpt><trkpt lat="40.07165326329615" lon="9.1474629852407"><ele>568.0</ele><time>2026-04-26T15:30:00.835Z</time></trkpt><trkpt lat="40.07182967885831" lon="9.147438052081014"><ele>564.0</ele><time>2026-04-26T15:30:01.834Z</time></trkpt><trkpt lat="40.07200613892849" lon="9.14739516358351"><ele>560.0</ele><time>2026-04-26T15:30:02.834Z</time></trkpt><trkpt lat="40.07218420004296" lon="9.147330803479692"><ele>560.0</ele><time>2026-04-26T15:30:03.834Z</time></trkpt><trkpt lat="40.072369667121336" lon="9.147260621161436"><ele>560.0</ele><time>2026-04-26T15:30:04.834Z</time></trkpt><trkpt lat="40.07255790824143" lon="9.147194081769454"><ele>560.0</ele><time>2026-04-26T15:30:05.834Z</time></trkpt><trkpt lat="40.07275303763197" lon="9.147133411290447"><ele>563.6666666666666</ele><time>2026-04-26T15:30:06.834Z</time></trkpt><trkpt lat="40.072953336232935" lon="9.147104113719749"><ele>567.3333333333334</ele><time>2026-04-26T15:30:07.834Z</time></trkpt><trkpt lat="40.07315190770283" lon="9.147076967399219"><ele>571.0</ele><time>2026-04-26T15:30:08.834Z</time></trkpt><trkpt lat="40.07334491125335" lon="9.147011863161325"><ele>574.3333333333334</ele><time>2026-04-26T15:30:09.834Z</time></trkpt><trkpt lat="40.07352921596448" lon="9.146907222849581"><ele>577.6666666666666</ele><time>2026-04-26T15:30:10.834Z</time></trkpt><trkpt lat="40.07372378056152" lon="9.14680614691612"><ele>581.0</ele><time>2026-04-26T15:30:11.834Z</time></trkpt><trkpt lat="40.07390455090837" lon="9.146694967692916"><ele>581.0</ele><time>2026-04-26T15:30:12.834Z</time></trkpt><trkpt lat="40.07407283966361" lon="9.1465944855622"><ele>581.0</ele><time>2026-04-26T15:30:13.834Z</time></trkpt><trkpt lat="40.074223441204104" lon="9.146514633171272"><ele>581.0</ele><time>2026-04-26T15:30:14.834Z</time></trkpt><trkpt lat="40.07438726620892" lon="9.146501846144078"><ele>579.0</ele><time>2026-04-26T15:30:15.834Z</time></trkpt><trkpt lat="40.074559281987085" lon="9.146524074301524"><ele>577.0</ele><time>2026-04-26T15:30:16.834Z</time></trkpt><trkpt lat="40.07472674294463" lon="9.146560328752678"><ele>575.0</ele><time>2026-04-26T15:30:17.834Z</time></trkpt><trkpt lat="40.07486062780923" lon="9.14663542199571"><ele>582.25</ele><time>2026-04-26T15:30:18.834Z</time></trkpt><trkpt lat="40.07497933968582" lon="9.14676809768642"><ele>589.5</ele><time>2026-04-26T15:30:19.834Z</time></trkpt><trkpt lat="40.07507127721984" lon="9.146909942949945"><ele>596.75</ele><time>2026-04-26T15:30:20.834Z</time></trkpt><trkpt lat="40.07517161775692" lon="9.146984336243076"><ele>604.0</ele><time>2026-04-26T15:30:21.834Z</time></trkpt><trkpt lat="40.07529476434849" lon="9.146995022375402"><ele>604.0</ele><time>2026-04-26T15:30:22.834Z</time></trkpt><trkpt lat="40.07544334812397" lon="9.146883383166593"><ele>604.0</ele><time>2026-04-26T15:30:23.834Z</time></trkpt><trkpt lat="40.07551684577509" lon="9.146685621206327"><ele>604.0</ele><time>2026-04-26T15:30:24.834Z</time></trkpt><trkpt lat="40.0755855644046" lon="9.146528682601245"><ele>601.25</ele><time>2026-04-26T15:30:25.834Z</time></trkpt><trkpt lat="40.07567663516611" lon="9.146421762101456"><ele>598.5</ele><time>2026-04-26T15:30:26.834Z</time></trkpt><trkpt lat="40.075802660831386" lon="9.146384511431044"><ele>595.75</ele><time>2026-04-26T15:30:27.834Z</time></trkpt><trkpt lat="40.07597959884436" lon="9.146382335676071"><ele>593.0</ele><time>2026-04-26T15:30:28.834Z</time></trkpt><trkpt lat="40.076159711531304" lon="9.1463586575561"><ele>593.0</ele><time>2026-04-26T15:30:29.834Z</time></trkpt><trkpt lat="40.0763083235764" lon="9.146368670473633"><ele>593.0</ele><time>2026-04-26T15:30:30.834Z</time></trkpt><trkpt lat="40.076434271442636" lon="9.146361920959427"><ele>593.0</ele><time>2026-04-26T15:30:31.834Z</time></trkpt><trkpt lat="40.076540262267876" lon="9.146370985951345"><ele>593.0</ele><time>2026-04-26T15:30:32.834Z</time></trkpt><trkpt lat="40.076621293200205" lon="9.146372429396393"><ele>596.0</ele><time>2026-04-26T15:30:33.833Z</time></trkpt><trkpt lat="40.07670785917529" lon="9.1463794243807"><ele>599.0</ele><time>2026-04-26T15:30:35.833Z</time></trkpt><trkpt lat="40.084019821974564" lon="9.145537046908965"><ele>611.3333333333333</ele><time>2026-04-26T15:31:50.832Z</time></trkpt><trkpt lat="40.08419504359366" lon="9.145402725459801"><ele>623.6666666666666</ele><time>2026-04-26T15:31:51.832Z</time></trkpt><trkpt lat="40.084400176481246" lon="9.145340884173303"><ele>636.0</ele><time>2026-04-26T15:31:52.832Z</time></trkpt><trkpt lat="40.08464172679047" lon="9.145384844283239"><ele>636.0</ele><time>2026-04-26T15:31:53.832Z</time></trkpt><trkpt lat="40.08490341166832" lon="9.14543047110096"><ele>636.0</ele><time>2026-04-26T15:31:54.832Z</time></trkpt><trkpt lat="40.08511317323726" lon="9.14536298467526"><ele>636.6666666666666</ele><time>2026-04-26T15:31:55.832Z</time></trkpt><trkpt lat="40.08531058353867" lon="9.145387542529672"><ele>637.3333333333333</ele><time>2026-04-26T15:31:56.832Z</time></trkpt><trkpt lat="40.085523629026895" lon="9.145510941205973"><ele>638.0</ele><time>2026-04-26T15:31:57.832Z</time></trkpt><trkpt lat="40.085760824808716" lon="9.145662004806642"><ele>653.5</ele><time>2026-04-26T15:31:58.832Z</time></trkpt><trkpt lat="40.08599421312376" lon="9.145787163917262"><ele>669.0</ele><time>2026-04-26T15:31:59.832Z</time></trkpt><trkpt lat="40.086189804067814" lon="9.145946746488809"><ele>669.0</ele><time>2026-04-26T15:32:00.832Z</time></trkpt><trkpt lat="40.086352126958694" lon="9.146134167858785"><ele>669.0</ele><time>2026-04-26T15:32:01.832Z</time></trkpt><trkpt lat="40.08652340584678" lon="9.146293028758778"><ele>669.0</ele><time>2026-04-26T15:32:02.832Z</time></trkpt><trkpt lat="40.08675103905741" lon="9.146372556502664"><ele>661.6666666666666</ele><time>2026-04-26T15:32:03.832Z</time></trkpt><trkpt lat="40.08697089466112" lon="9.146450826591378"><ele>654.3333333333333</ele><time>2026-04-26T15:32:04.832Z</time></trkpt><trkpt lat="40.087152081234116" lon="9.146518385933394"><ele>647.0</ele><time>2026-04-26T15:32:05.832Z</time></trkpt><trkpt lat="40.087312587831434" lon="9.14649425033684"><ele>648.6666666666666</ele><time>2026-04-26T15:32:06.832Z</time></trkpt><trkpt lat="40.087473198768286" lon="9.1463669833699"><ele>650.3333333333334</ele><time>2026-04-26T15:32:07.831Z</time></trkpt><trkpt lat="40.08764809317396" lon="9.146184903986741"><ele>652.0</ele><time>2026-04-26T15:32:08.831Z</time></trkpt><trkpt lat="40.087873057273946" lon="9.146078144819583"><ele>652.0</ele><time>2026-04-26T15:32:09.831Z</time></trkpt><trkpt lat="40.08807252669946" lon="9.146035821514428"><ele>652.0</ele><time>2026-04-26T15:32:10.831Z</time></trkpt><trkpt lat="40.08825333195087" lon="9.14608451658682"><ele>652.0</ele><time>2026-04-26T15:32:11.831Z</time></trkpt><trkpt lat="40.0884418389065" lon="9.146207393032547"><ele>657.5</ele><time>2026-04-26T15:32:12.831Z</time></trkpt><trkpt lat="40.08865378000375" lon="9.146366312267567"><ele>663.0</ele><time>2026-04-26T15:32:13.831Z</time></trkpt><trkpt lat="40.088836173526495" lon="9.146571002865954"><ele>671.5</ele><time>2026-04-26T15:32:14.831Z</time></trkpt><trkpt lat="40.08898271799771" lon="9.146843433137743"><ele>680.0</ele><time>2026-04-26T15:32:15.831Z</time></trkpt><trkpt lat="40.08917785158386" lon="9.14707294709885"><ele>680.0</ele><time>2026-04-26T15:32:16.831Z</time></trkpt><trkpt lat="40.089396405840596" lon="9.147263485585093"><ele>680.0</ele><time>2026-04-26T15:32:17.831Z</time></trkpt><trkpt lat="40.08967932045183" lon="9.147354797152557"><ele>686.0</ele><time>2026-04-26T15:32:18.831Z</time></trkpt><trkpt lat="40.0899392316231" lon="9.147489781477185"><ele>692.0</ele><time>2026-04-26T15:32:19.831Z</time></trkpt><trkpt lat="40.090139067153984" lon="9.147639359999607"><ele>692.0</ele><time>2026-04-26T15:32:20.831Z</time></trkpt><trkpt lat="40.090312198880405" lon="9.147789545823297"><ele>692.0</ele><time>2026-04-26T15:32:21.831Z</time></trkpt><trkpt lat="40.090430259463744" lon="9.147951789471279"><ele>692.0</ele><time>2026-04-26T15:32:22.831Z</time></trkpt><trkpt lat="40.09050058252733" lon="9.148149974881088"><ele>696.6666666666666</ele><time>2026-04-26T15:32:23.831Z</time></trkpt><trkpt lat="40.09053549211437" lon="9.14837250081153"><ele>701.3333333333334</ele><time>2026-04-26T15:32:24.831Z</time></trkpt><trkpt lat="40.09050745180014" lon="9.14860466711451"><ele>706.0</ele><time>2026-04-26T15:32:25.831Z</time></trkpt><trkpt lat="40.09045303993472" lon="9.148843453909427"><ele>707.3333333333334</ele><time>2026-04-26T15:32:26.831Z</time></trkpt><trkpt lat="40.09043582938858" lon="9.149095787604024"><ele>708.6666666666666</ele><time>2026-04-26T15:32:27.831Z</time></trkpt><trkpt lat="40.09048300345818" lon="9.14939543628564"><ele>710.0</ele><time>2026-04-26T15:32:28.831Z</time></trkpt><trkpt lat="40.09056237267645" lon="9.149692943936316"><ele>714.0</ele><time>2026-04-26T15:32:29.831Z</time></trkpt><trkpt lat="40.090678106358695" lon="9.149975486057597"><ele>718.0</ele><time>2026-04-26T15:32:30.831Z</time></trkpt><trkpt lat="40.09080494248529" lon="9.150217114857695"><ele>712.6666666666667</ele><time>2026-04-26T15:32:31.831Z</time></trkpt><trkpt lat="40.09089351887726" lon="9.150459606455945"><ele>707.3333333333334</ele><time>2026-04-26T15:32:32.831Z</time></trkpt><trkpt lat="40.09092155278479" lon="9.150693285503673"><ele>702.0</ele><time>2026-04-26T15:32:33.831Z</time></trkpt><trkpt lat="40.09088585843411" lon="9.15089857210754"><ele>702.0</ele><time>2026-04-26T15:32:34.831Z</time></trkpt><trkpt lat="40.09077690823061" lon="9.151083158232153"><ele>702.0</ele><time>2026-04-26T15:32:35.831Z</time></trkpt><trkpt lat="40.09061782364781" lon="9.151235851322758"><ele>702.0</ele><time>2026-04-26T15:32:36.831Z</time></trkpt><trkpt lat="40.09043614674175" lon="9.151387909795577"><ele>702.0</ele><time>2026-04-26T15:32:37.831Z</time></trkpt><trkpt lat="40.09024155928676" lon="9.151537210114968"><ele>702.0</ele><time>2026-04-26T15:32:38.831Z</time></trkpt><trkpt lat="40.09003379152519" lon="9.15169921044068"><ele>710.0</ele><time>2026-04-26T15:32:39.831Z</time></trkpt><trkpt lat="40.08981730909051" lon="9.151877567065325"><ele>718.0</ele><time>2026-04-26T15:32:40.83Z</time></trkpt><trkpt lat="40.08958683196934" lon="9.152043571508795"><ele>718.0</ele><time>2026-04-26T15:32:41.83Z</time></trkpt><trkpt lat="40.089358149725555" lon="9.15219904664926"><ele>718.0</ele><time>2026-04-26T15:32:42.83Z</time></trkpt><trkpt lat="40.08915313596632" lon="9.152352025074865"><ele>717.5</ele><time>2026-04-26T15:32:43.83Z</time></trkpt><trkpt lat="40.08897095216592" lon="9.15254559899995"><ele>717.0</ele><time>2026-04-26T15:32:44.83Z</time></trkpt><trkpt lat="40.08878984751305" lon="9.152757401239958"><ele>717.0</ele><time>2026-04-26T15:32:45.83Z</time></trkpt><trkpt lat="40.08862137868059" lon="9.152977612603225"><ele>717.0</ele><time>2026-04-26T15:32:46.83Z</time></trkpt><trkpt lat="40.08849085703093" lon="9.153156001377784"><ele>717.0</ele><time>2026-04-26T15:32:47.83Z</time></trkpt><trkpt lat="40.088392627278864" lon="9.153337034437785"><ele>712.0</ele><time>2026-04-26T15:32:48.83Z</time></trkpt><trkpt lat="40.08835414737312" lon="9.153576649233006"><ele>707.0</ele><time>2026-04-26T15:32:49.83Z</time></trkpt><trkpt lat="40.09457653207551" lon="9.158315912466648"><ele>707.0</ele><time>2026-04-26T15:33:50.828Z</time></trkpt><trkpt lat="40.09455671331268" lon="9.158484704284472"><ele>707.0</ele><time>2026-04-26T15:33:51.828Z</time></trkpt><trkpt lat="40.094535176920154" lon="9.158648362924925"><ele>707.0</ele><time>2026-04-26T15:33:52.828Z</time></trkpt><trkpt lat="40.094506435362945" lon="9.158792415027495"><ele>707.0</ele><time>2026-04-26T15:33:53.828Z</time></trkpt><trkpt lat="40.09448435980639" lon="9.158916379822688"><ele>707.0</ele><time>2026-04-26T15:33:54.828Z</time></trkpt><trkpt lat="40.09447518986587" lon="9.15901758292942"><ele>707.0</ele><time>2026-04-26T15:33:55.828Z</time></trkpt><trkpt lat="40.09447670116488" lon="9.159115620540177"><ele>707.0</ele><time>2026-04-26T15:33:56.828Z</time></trkpt><trkpt lat="40.094485467030914" lon="9.159205774735682"><ele>707.0</ele><time>2026-04-26T15:33:57.827Z</time></trkpt><trkpt lat="40.09451277453668" lon="9.159299340581091"><ele>707.0</ele><time>2026-04-26T15:33:58.827Z</time></trkpt><trkpt lat="40.094547062484125" lon="9.159381508434052"><ele>707.0</ele><time>2026-04-26T15:33:59.827Z</time></trkpt><trkpt lat="40.094578256761906" lon="9.159463512930309"><ele>707.0</ele><time>2026-04-26T15:34:00.827Z</time></trkpt><trkpt lat="40.094623681997795" lon="9.159570403469475"><ele>707.3333333333333</ele><time>2026-04-26T15:34:02.827Z</time></trkpt><trkpt lat="40.094658128518454" lon="9.159671414136675"><ele>707.6666666666666</ele><time>2026-04-26T15:35:20.823Z</time></trkpt><trkpt lat="40.09469080553931" lon="9.159746072708737"><ele>708.0</ele><time>2026-04-26T15:35:22.824Z</time></trkpt><trkpt lat="40.094742910401436" lon="9.159864495649176"><ele>708.3333333333334</ele><time>2026-04-26T15:35:24.824Z</time></trkpt><trkpt lat="40.09477495558662" lon="9.159937025992658"><ele>708.6666666666667</ele><time>2026-04-26T15:35:25.824Z</time></trkpt><trkpt lat="40.0948170933116" lon="9.160003552603882"><ele>709.0</ele><time>2026-04-26T15:35:26.824Z</time></trkpt><trkpt lat="40.09484824046007" lon="9.160079098904951"><ele>709.3333333333334</ele><time>2026-04-26T15:35:27.824Z</time></trkpt><trkpt lat="40.09488299989619" lon="9.160155956491407"><ele>709.6666666666667</ele><time>2026-04-26T15:35:28.824Z</time></trkpt><trkpt lat="40.09490316261516" lon="9.160246899107099"><ele>710.0</ele><time>2026-04-26T15:35:29.824Z</time></trkpt><trkpt lat="40.09493411930798" lon="9.160345026129223"><ele>710.3333333333334</ele><time>2026-04-26T15:35:30.824Z</time></trkpt><trkpt lat="40.09495698126002" lon="9.16044636945523"><ele>710.6666666666666</ele><time>2026-04-26T15:35:31.823Z</time></trkpt><trkpt lat="40.09497188003404" lon="9.160537366400733"><ele>711.0</ele><time>2026-04-26T15:35:32.823Z</time></trkpt><trkpt lat="40.09498363529039" lon="9.160637869186434"><ele>711.6666666666666</ele><time>2026-04-26T15:35:33.824Z</time></trkpt><trkpt lat="40.094990962322136" lon="9.160721113787218"><ele>712.3333333333334</ele><time>2026-04-26T15:35:34.824Z</time></trkpt><trkpt lat="40.09498954073617" lon="9.160807228596223"><ele>713.0</ele><time>2026-04-26T15:35:35.824Z</time></trkpt><trkpt lat="40.0949540021147" lon="9.160958441676302"><ele>713.6666666666667</ele><time>2026-04-26T15:35:37.824Z</time></trkpt><trkpt lat="40.094935472025334" lon="9.161045293387913"><ele>714.3333333333334</ele><time>2026-04-26T15:35:38.824Z</time></trkpt><trkpt lat="40.09491550022376" lon="9.161124686127208"><ele>715.0</ele><time>2026-04-26T15:35:39.824Z</time></trkpt><trkpt lat="40.09487749922113" lon="9.161242069206686"><ele>715.0</ele><time>2026-04-26T15:35:41.824Z</time></trkpt><trkpt lat="40.09485147571968" lon="9.161326581925204"><ele>715.0</ele><time>2026-04-26T15:35:42.824Z</time></trkpt><trkpt lat="40.09481485113458" lon="9.161474059168084"><ele>715.0</ele><time>2026-04-26T15:35:44.824Z</time></trkpt><trkpt lat="40.09479383397244" lon="9.161557820907019"><ele>715.0</ele><time>2026-04-26T15:35:45.824Z</time></trkpt><trkpt lat="40.094769495601184" lon="9.161655627344695"><ele>715.0</ele><time>2026-04-26T15:35:46.823Z</time></trkpt><trkpt lat="40.09474949054232" lon="9.16174818034134"><ele>715.0</ele><time>2026-04-26T15:35:47.823Z</time></trkpt><trkpt lat="40.0947361285727" lon="9.161852946712086"><ele>716.0</ele><time>2026-04-26T15:35:48.823Z</time></trkpt><trkpt lat="40.09472918881457" lon="9.161963801170812"><ele>717.0</ele><time>2026-04-26T15:35:49.823Z</time></trkpt><trkpt lat="40.09454769452423" lon="9.170916926352223"><ele>732.6666666666666</ele><time>2026-04-26T15:36:50.821Z</time></trkpt><trkpt lat="40.09473205248077" lon="9.171053599243068"><ele>748.3333333333333</ele><time>2026-04-26T15:36:51.821Z</time></trkpt><trkpt lat="40.09491751588376" lon="9.17115587657475"><ele>764.0</ele><time>2026-04-26T15:36:52.821Z</time></trkpt><trkpt lat="40.095125640330906" lon="9.171207290869196"><ele>769.3333333333333</ele><time>2026-04-26T15:36:53.821Z</time></trkpt><trkpt lat="40.0953395071033" lon="9.171236340688123"><ele>774.6666666666666</ele><time>2026-04-26T15:36:54.821Z</time></trkpt><trkpt lat="40.09554574869485" lon="9.171296087124523"><ele>780.0</ele><time>2026-04-26T15:36:55.821Z</time></trkpt><trkpt lat="40.095733414558396" lon="9.171412182176509"><ele>780.6666666666667</ele><time>2026-04-26T15:36:56.821Z</time></trkpt><trkpt lat="40.095908169499324" lon="9.171555807591526"><ele>781.3333333333334</ele><time>2026-04-26T15:36:57.821Z</time></trkpt><trkpt lat="40.09607203983152" lon="9.17170876708579"><ele>782.0</ele><time>2026-04-26T15:36:58.821Z</time></trkpt><trkpt lat="40.096224358851295" lon="9.171851801982372"><ele>782.0</ele><time>2026-04-26T15:36:59.821Z</time></trkpt><trkpt lat="40.096337742498676" lon="9.172022177747897"><ele>782.0</ele><time>2026-04-26T15:37:00.821Z</time></trkpt><trkpt lat="40.09639992640158" lon="9.17221660885726"><ele>782.0</ele><time>2026-04-26T15:37:01.821Z</time></trkpt><trkpt lat="40.096463820789225" lon="9.172415047567998"><ele>780.6666666666667</ele><time>2026-04-26T15:37:02.821Z</time></trkpt><trkpt lat="40.096581587564394" lon="9.172597886890998"><ele>779.3333333333333</ele><time>2026-04-26T15:37:03.821Z</time></trkpt><trkpt lat="40.096695924068385" lon="9.17277955472304"><ele>778.0</ele><time>2026-04-26T15:37:04.821Z</time></trkpt><trkpt lat="40.096737089960456" lon="9.173007718836619"><ele>779.0</ele><time>2026-04-26T15:37:05.821Z</time></trkpt><trkpt lat="40.09669964627497" lon="9.17327030517448"><ele>780.0</ele><time>2026-04-26T15:37:06.821Z</time></trkpt><trkpt lat="40.09662347955445" lon="9.173532613503872"><ele>781.0</ele><time>2026-04-26T15:37:07.821Z</time></trkpt><trkpt lat="40.09655068474729" lon="9.173793379156455"><ele>781.0</ele><time>2026-04-26T15:37:08.821Z</time></trkpt><trkpt lat="40.09647658460653" lon="9.174007405685975"><ele>781.0</ele><time>2026-04-26T15:37:09.821Z</time></trkpt><trkpt lat="40.09636864655727" lon="9.174183652645315"><ele>781.0</ele><time>2026-04-26T15:37:10.821Z</time></trkpt><trkpt lat="40.09626606394142" lon="9.174299342991587"><ele>782.75</ele><time>2026-04-26T15:37:11.821Z</time></trkpt><trkpt lat="40.096215669029085" lon="9.174392550353646"><ele>784.5</ele><time>2026-04-26T15:37:12.821Z</time></trkpt><trkpt lat="40.09622743173486" lon="9.174548925129383"><ele>786.25</ele><time>2026-04-26T15:37:13.821Z</time></trkpt><trkpt lat="40.096306967776464" lon="9.174733391116986"><ele>788.0</ele><time>2026-04-26T15:37:14.821Z</time></trkpt><trkpt lat="40.09645561755765" lon="9.174891259433098"><ele>791.6666666666667</ele><time>2026-04-26T15:37:15.821Z</time></trkpt><trkpt lat="40.0966319273981" lon="9.174998620305598"><ele>795.3333333333333</ele><time>2026-04-26T15:37:16.821Z</time></trkpt><trkpt lat="40.096794562252335" lon="9.175088870254214"><ele>799.0</ele><time>2026-04-26T15:37:17.821Z</time></trkpt><trkpt lat="40.096882086832785" lon="9.175236413615934"><ele>799.0</ele><time>2026-04-26T15:37:18.821Z</time></trkpt><trkpt lat="40.0969214192446" lon="9.17541948632718"><ele>799.0</ele><time>2026-04-26T15:37:19.821Z</time></trkpt><trkpt lat="40.09692467319484" lon="9.17564922106139"><ele>799.0</ele><time>2026-04-26T15:37:20.821Z</time></trkpt><trkpt lat="40.09693407188157" lon="9.175857549329821"><ele>799.6666666666666</ele><time>2026-04-26T15:37:21.821Z</time></trkpt><trkpt lat="40.097016386060076" lon="9.175999721060176"><ele>800.3333333333333</ele><time>2026-04-26T15:37:22.82Z</time></trkpt><trkpt lat="40.09716673950619" lon="9.176093282654753"><ele>801.0</ele><time>2026-04-26T15:37:23.82Z</time></trkpt><trkpt lat="40.09736471301614" lon="9.176143351528976"><ele>804.0</ele><time>2026-04-26T15:37:24.82Z</time></trkpt><trkpt lat="40.09757104897743" lon="9.176218359402727"><ele>807.0</ele><time>2026-04-26T15:37:25.82Z</time></trkpt><trkpt lat="40.09779094834076" lon="9.176284669274873"><ele>810.0</ele><time>2026-04-26T15:37:26.82Z</time></trkpt><trkpt lat="40.098000123071174" lon="9.176347744315112"><ele>810.0</ele><time>2026-04-26T15:37:27.82Z</time></trkpt><trkpt lat="40.09819774341824" lon="9.176400862447043"><ele>810.0</ele><time>2026-04-26T15:37:28.82Z</time></trkpt><trkpt lat="40.09836265828091" lon="9.176546523135618"><ele>810.0</ele><time>2026-04-26T15:37:29.82Z</time></trkpt><trkpt lat="40.098510907005654" lon="9.176698131398853"><ele>811.0</ele><time>2026-04-26T15:37:30.82Z</time></trkpt><trkpt lat="40.09868197232178" lon="9.176788331209167"><ele>812.0</ele><time>2026-04-26T15:37:31.82Z</time></trkpt><trkpt lat="40.098870591284204" lon="9.176854470759569"><ele>813.0</ele><time>2026-04-26T15:37:32.82Z</time></trkpt><trkpt lat="40.0990694844119" lon="9.176848460571177"><ele>814.6666666666667</ele><time>2026-04-26T15:37:33.82Z</time></trkpt><trkpt lat="40.09925224990457" lon="9.176937654816866"><ele>816.3333333333334</ele><time>2026-04-26T15:37:34.821Z</time></trkpt><trkpt lat="40.09942359466864" lon="9.177027768781857"><ele>818.0</ele><time>2026-04-26T15:37:35.82Z</time></trkpt><trkpt lat="40.09956944045468" lon="9.17711170939451"><ele>818.0</ele><time>2026-04-26T15:37:36.82Z</time></trkpt><trkpt lat="40.099739057623594" lon="9.17706714170716"><ele>818.0</ele><time>2026-04-26T15:37:37.82Z</time></trkpt><trkpt lat="40.09990365582828" lon="9.176970901008753"><ele>818.0</ele><time>2026-04-26T15:37:38.82Z</time></trkpt><trkpt lat="40.10005947873639" lon="9.176931368308123"><ele>816.0</ele><time>2026-04-26T15:37:39.82Z</time></trkpt><trkpt lat="40.10020266654747" lon="9.17700849026753"><ele>814.0</ele><time>2026-04-26T15:37:40.82Z</time></trkpt><trkpt lat="40.10035043748478" lon="9.177127869471155"><ele>812.0</ele><time>2026-04-26T15:37:41.82Z</time></trkpt><trkpt lat="40.10053855353258" lon="9.177199002360869"><ele>812.0</ele><time>2026-04-26T15:37:42.82Z</time></trkpt><trkpt lat="40.10075719764703" lon="9.177198601257366"><ele>812.0</ele><time>2026-04-26T15:37:43.82Z</time></trkpt><trkpt lat="40.100970665051186" lon="9.177187763778171"><ele>812.0</ele><time>2026-04-26T15:37:44.82Z</time></trkpt><trkpt lat="40.101162709871915" lon="9.177193856020805"><ele>812.0</ele><time>2026-04-26T15:37:45.82Z</time></trkpt><trkpt lat="40.10133130187176" lon="9.177280960296786"><ele>812.0</ele><time>2026-04-26T15:37:46.82Z</time></trkpt><trkpt lat="40.10148470952532" lon="9.177469845073041"><ele>812.0</ele><time>2026-04-26T15:37:47.82Z</time></trkpt><trkpt lat="40.10163942868061" lon="9.177679082344705"><ele>814.5</ele><time>2026-04-26T15:37:48.82Z</time></trkpt><trkpt lat="40.10177791752817" lon="9.177849073352066"><ele>817.0</ele><time>2026-04-26T15:37:49.82Z</time></trkpt><trkpt lat="40.110373131282806" lon="9.178705498362195"><ele>818.0</ele><time>2026-04-26T15:38:50.818Z</time></trkpt><trkpt lat="40.11049930036094" lon="9.178645637698228"><ele>819.0</ele><time>2026-04-26T15:38:51.818Z</time></trkpt><trkpt lat="40.11062912213225" lon="9.178596429971117"><ele>820.0</ele><time>2026-04-26T15:38:52.818Z</time></trkpt><trkpt lat="40.11074221818058" lon="9.17855584549539"><ele>821.0</ele><time>2026-04-26T15:38:53.818Z</time></trkpt><trkpt lat="40.11082349658858" lon="9.178526649112838"><ele>821.0000000000001</ele><time>2026-04-26T15:38:54.818Z</time></trkpt><trkpt lat="40.110885343555395" lon="9.178504432773506"><ele>821.0</ele><time>2026-04-26T15:38:55.818Z</time></trkpt><trkpt lat="40.11096869845504" lon="9.178468257194453"><ele>821.0</ele><time>2026-04-26T15:38:57.818Z</time></trkpt><trkpt lat="40.11103095850201" lon="9.178454216384537"><ele>821.0</ele><time>2026-04-26T15:38:59.818Z</time></trkpt><trkpt lat="40.11108924987597" lon="9.178420089428627"><ele>821.0</ele><time>2026-04-26T15:39:23.817Z</time></trkpt><trkpt lat="40.1111571377333" lon="9.17839157246601"><ele>821.0000000000001</ele><time>2026-04-26T15:39:25.817Z</time></trkpt><trkpt lat="40.11122046554807" lon="9.178392888277997"><ele>821.0</ele><time>2026-04-26T15:39:27.817Z</time></trkpt><trkpt lat="40.11134790302763" lon="9.178378169446228"><ele>821.0</ele><time>2026-04-26T15:39:29.817Z</time></trkpt><trkpt lat="40.111440010541216" lon="9.178377815926753"><ele>821.0</ele><time>2026-04-26T15:39:30.817Z</time></trkpt><trkpt lat="40.11153604251135" lon="9.178380633757609"><ele>821.0</ele><time>2026-04-26T15:39:31.817Z</time></trkpt><trkpt lat="40.11162540567316" lon="9.178450000779037"><ele>821.0</ele><time>2026-04-26T15:39:32.817Z</time></trkpt><trkpt lat="40.111684209722334" lon="9.17859508559929"><ele>821.0</ele><time>2026-04-26T15:39:33.816Z</time></trkpt><trkpt lat="40.1117003427331" lon="9.178787925859245"><ele>821.6666666666667</ele><time>2026-04-26T15:39:34.816Z</time></trkpt><trkpt lat="40.11172188523832" lon="9.178995808689693"><ele>822.3333333333333</ele><time>2026-04-26T15:39:35.817Z</time></trkpt><trkpt lat="40.111768027417014" lon="9.179236884488903"><ele>823.0</ele><time>2026-04-26T15:39:36.817Z</time></trkpt><trkpt lat="40.111853606005944" lon="9.179463679341636"><ele>824.3333333333333</ele><time>2026-04-26T15:39:37.817Z</time></trkpt><trkpt lat="40.11198315245856" lon="9.179694550956965"><ele>825.6666666666667</ele><time>2026-04-26T15:39:38.817Z</time></trkpt><trkpt lat="40.11210763076381" lon="9.17991639184741"><ele>827.0</ele><time>2026-04-26T15:39:39.817Z</time></trkpt><trkpt lat="40.11223441356883" lon="9.180076489988792"><ele>827.3333333333334</ele><time>2026-04-26T15:39:40.817Z</time></trkpt><trkpt lat="40.11240906778753" lon="9.180157434530592"><ele>827.6666666666667</ele><time>2026-04-26T15:39:41.817Z</time></trkpt><trkpt lat="40.11261683041135" lon="9.18017046205849"><ele>828.0</ele><time>2026-04-26T15:39:42.816Z</time></trkpt><trkpt lat="40.1128116264093" lon="9.180195470017058"><ele>828.0</ele><time>2026-04-26T15:39:43.816Z</time></trkpt><trkpt lat="40.11295310824143" lon="9.180300021335128"><ele>828.0</ele><time>2026-04-26T15:39:44.817Z</time></trkpt><trkpt lat="40.11307287699183" lon="9.180477603937517"><ele>828.0</ele><time>2026-04-26T15:39:45.816Z</time></trkpt><trkpt lat="40.11319691134821" lon="9.180682203671529"><ele>827.3333333333333</ele><time>2026-04-26T15:39:46.816Z</time></trkpt><trkpt lat="40.113283481496616" lon="9.180872542278262"><ele>826.6666666666666</ele><time>2026-04-26T15:39:47.816Z</time></trkpt><trkpt lat="40.11330294855011" lon="9.181075570468847"><ele>826.0</ele><time>2026-04-26T15:39:48.816Z</time></trkpt><trkpt lat="40.11325137461103" lon="9.181297517154752"><ele>803.0</ele><time>2026-04-26T15:39:49.816Z</time></trkpt><trkpt lat="40.120407808654114" lon="9.176806883554015"><ele>803.0</ele><time>2026-04-26T15:40:50.814Z</time></trkpt><trkpt lat="40.12040624561018" lon="9.176548889690004"><ele>803.0</ele><time>2026-04-26T15:40:51.814Z</time></trkpt><trkpt lat="40.1204159036887" lon="9.176347363066768"><ele>803.0</ele><time>2026-04-26T15:40:52.814Z</time></trkpt><trkpt lat="40.12049814748501" lon="9.176200165504119"><ele>803.3333333333334</ele><time>2026-04-26T15:40:53.814Z</time></trkpt><trkpt lat="40.12067484819354" lon="9.176128779332757"><ele>803.6666666666667</ele><time>2026-04-26T15:40:54.814Z</time></trkpt><trkpt lat="40.120886151113545" lon="9.176014636779385"><ele>804.0</ele><time>2026-04-26T15:40:55.814Z</time></trkpt><trkpt lat="40.12113469024812" lon="9.175899256269652"><ele>804.0</ele><time>2026-04-26T15:40:56.814Z</time></trkpt><trkpt lat="40.121382210051095" lon="9.175748714217645"><ele>804.0</ele><time>2026-04-26T15:40:57.814Z</time></trkpt><trkpt lat="40.12157861677064" lon="9.175576286341649"><ele>802.5</ele><time>2026-04-26T15:40:58.814Z</time></trkpt><trkpt lat="40.12174885974884" lon="9.175488823648502"><ele>801.0</ele><time>2026-04-26T15:40:59.814Z</time></trkpt><trkpt lat="40.121878538164644" lon="9.17549619648962"><ele>799.5</ele><time>2026-04-26T15:41:00.814Z</time></trkpt><trkpt lat="40.1219955277893" lon="9.175554413261223"><ele>798.0</ele><time>2026-04-26T15:41:01.814Z</time></trkpt><trkpt lat="40.12203436110442" lon="9.17570150783691"><ele>802.0</ele><time>2026-04-26T15:41:02.814Z</time></trkpt><trkpt lat="40.12199952027842" lon="9.175864117361739"><ele>806.0</ele><time>2026-04-26T15:41:03.814Z</time></trkpt><trkpt lat="40.121982494437624" lon="9.176183303375103"><ele>810.0</ele><time>2026-04-26T15:41:04.814Z</time></trkpt><trkpt lat="40.1220321007421" lon="9.176434568039955"><ele>812.3333333333333</ele><time>2026-04-26T15:41:05.814Z</time></trkpt><trkpt lat="40.122147625460165" lon="9.176621815765918"><ele>814.6666666666666</ele><time>2026-04-26T15:41:06.814Z</time></trkpt><trkpt lat="40.12233435447779" lon="9.176793605351815"><ele>817.0</ele><time>2026-04-26T15:41:07.814Z</time></trkpt><trkpt lat="40.12252839982488" lon="9.176997074622713"><ele>813.5</ele><time>2026-04-26T15:41:08.814Z</time></trkpt><trkpt lat="40.12268600273256" lon="9.177222636815197"><ele>810.0</ele><time>2026-04-26T15:41:09.814Z</time></trkpt><trkpt lat="40.12279156963654" lon="9.177477663964059"><ele>810.0</ele><time>2026-04-26T15:41:10.814Z</time></trkpt><trkpt lat="40.12289842281395" lon="9.177780659941865"><ele>810.0</ele><time>2026-04-26T15:41:11.814Z</time></trkpt><trkpt lat="40.123016885975" lon="9.178075044255843"><ele>812.3333333333333</ele><time>2026-04-26T15:41:12.814Z</time></trkpt><trkpt lat="40.123129509147724" lon="9.178314735507325"><ele>814.6666666666666</ele><time>2026-04-26T15:41:13.814Z</time></trkpt><trkpt lat="40.12323260899016" lon="9.178564378373663"><ele>817.0</ele><time>2026-04-26T15:41:14.814Z</time></trkpt><trkpt lat="40.12328541890697" lon="9.178787468121806"><ele>816.3333333333333</ele><time>2026-04-26T15:41:15.814Z</time></trkpt><trkpt lat="40.12326192684971" lon="9.178981432796904"><ele>815.6666666666667</ele><time>2026-04-26T15:41:16.813Z</time></trkpt><trkpt lat="40.12319054327478" lon="9.179200427189683"><ele>815.0</ele><time>2026-04-26T15:41:17.813Z</time></trkpt><trkpt lat="40.12315257644743" lon="9.179439485352255"><ele>815.0</ele><time>2026-04-26T15:41:18.813Z</time></trkpt><trkpt lat="40.12316677636486" lon="9.17971253909364"><ele>815.0</ele><time>2026-04-26T15:41:19.813Z</time></trkpt><trkpt lat="40.12323577841647" lon="9.179935299786766"><ele>815.0</ele><time>2026-04-26T15:41:20.813Z</time></trkpt><trkpt lat="40.123358679243765" lon="9.180115538526149"><ele>805.3333333333334</ele><time>2026-04-26T15:41:21.813Z</time></trkpt><trkpt lat="40.123549470567546" lon="9.180218150779908"><ele>795.6666666666667</ele><time>2026-04-26T15:41:22.813Z</time></trkpt><trkpt lat="40.12378876596901" lon="9.18026484581297"><ele>786.0</ele><time>2026-04-26T15:41:23.813Z</time></trkpt><trkpt lat="40.124001922246926" lon="9.180338489720793"><ele>787.0</ele><time>2026-04-26T15:41:24.813Z</time></trkpt><trkpt lat="40.12417887501878" lon="9.180427442662113"><ele>788.0</ele><time>2026-04-26T15:41:25.813Z</time></trkpt><trkpt lat="40.12435462293357" lon="9.180601730485433"><ele>789.0</ele><time>2026-04-26T15:41:26.813Z</time></trkpt><trkpt lat="40.12456524721013" lon="9.180779848355964"><ele>789.0</ele><time>2026-04-26T15:41:27.813Z</time></trkpt><trkpt lat="40.12476790123411" lon="9.18092130260405"><ele>789.0</ele><time>2026-04-26T15:41:28.813Z</time></trkpt><trkpt lat="40.124939485780516" lon="9.181110011826416"><ele>787.0</ele><time>2026-04-26T15:41:29.813Z</time></trkpt><trkpt lat="40.12511449916279" lon="9.181368187115948"><ele>785.0</ele><time>2026-04-26T15:41:30.813Z</time></trkpt><trkpt lat="40.12532406920507" lon="9.181608653723101"><ele>785.0</ele><time>2026-04-26T15:41:31.813Z</time></trkpt><trkpt lat="40.125563665998236" lon="9.181820006935055"><ele>785.0</ele><time>2026-04-26T15:41:32.813Z</time></trkpt><trkpt lat="40.1258417169154" lon="9.182000729812259"><ele>784.5</ele><time>2026-04-26T15:41:33.813Z</time></trkpt><trkpt lat="40.126128106491116" lon="9.18216683989467"><ele>784.0</ele><time>2026-04-26T15:41:34.813Z</time></trkpt><trkpt lat="40.12635431131359" lon="9.18237768877408"><ele>769.0</ele><time>2026-04-26T15:41:35.813Z</time></trkpt><trkpt lat="40.126585357816836" lon="9.182572790744514"><ele>754.0</ele><time>2026-04-26T15:41:36.813Z</time></trkpt><trkpt lat="40.12681962501327" lon="9.182694863459709"><ele>754.0</ele><time>2026-04-26T15:41:37.813Z</time></trkpt><trkpt lat="40.12704091254642" lon="9.182811644836127"><ele>754.0</ele><time>2026-04-26T15:41:38.813Z</time></trkpt><trkpt lat="40.127215769206494" lon="9.18297930200553"><ele>752.5</ele><time>2026-04-26T15:41:39.813Z</time></trkpt><trkpt lat="40.127381692197204" lon="9.18321524436001"><ele>751.0</ele><time>2026-04-26T15:41:40.813Z</time></trkpt><trkpt lat="40.127530368126145" lon="9.183474391934576"><ele>751.0</ele><time>2026-04-26T15:41:41.813Z</time></trkpt><trkpt lat="40.12765595720725" lon="9.18369890104254"><ele>751.0</ele><time>2026-04-26T15:41:42.813Z</time></trkpt><trkpt lat="40.127735599674146" lon="9.183914523019261"><ele>751.0</ele><time>2026-04-26T15:41:43.813Z</time></trkpt><trkpt lat="40.12773755425226" lon="9.184157374561282"><ele>754.5</ele><time>2026-04-26T15:41:44.814Z</time></trkpt><trkpt lat="40.12773369688716" lon="9.184456878516437"><ele>758.0</ele><time>2026-04-26T15:41:45.813Z</time></trkpt><trkpt lat="40.127698008115374" lon="9.184746897954158"><ele>756.6666666666666</ele><time>2026-04-26T15:41:46.813Z</time></trkpt><trkpt lat="40.12772030827159" lon="9.185007644827792"><ele>755.3333333333334</ele><time>2026-04-26T15:41:47.813Z</time></trkpt><trkpt lat="40.12781783325869" lon="9.185250277309978"><ele>754.0</ele><time>2026-04-26T15:41:48.813Z</time></trkpt><trkpt lat="40.12790527023305" lon="9.185468860317465"><ele>683.0</ele><time>2026-04-26T15:41:49.813Z</time></trkpt><trkpt lat="40.13028715203993" lon="9.201141788343127"><ele>683.0</ele><time>2026-04-26T15:42:50.81Z</time></trkpt><trkpt lat="40.13018566008465" lon="9.201361824916805"><ele>683.0</ele><time>2026-04-26T15:42:51.81Z</time></trkpt><trkpt lat="40.130030088019524" lon="9.201555346642376"><ele>683.0</ele><time>2026-04-26T15:42:52.81Z</time></trkpt><trkpt lat="40.129823137067625" lon="9.201677977419147"><ele>681.5</ele><time>2026-04-26T15:42:53.81Z</time></trkpt><trkpt lat="40.129558558634045" lon="9.20178314651841"><ele>680.0</ele><time>2026-04-26T15:42:54.81Z</time></trkpt><trkpt lat="40.129269470796984" lon="9.201918737309017"><ele>686.0</ele><time>2026-04-26T15:42:55.81Z</time></trkpt><trkpt lat="40.12895380795381" lon="9.202031532274859"><ele>692.0</ele><time>2026-04-26T15:42:56.81Z</time></trkpt><trkpt lat="40.12862840783663" lon="9.202161305281267"><ele>692.0</ele><time>2026-04-26T15:42:57.81Z</time></trkpt><trkpt lat="40.128320217357484" lon="9.202278417610422"><ele>692.0</ele><time>2026-04-26T15:42:58.81Z</time></trkpt><trkpt lat="40.12802800992015" lon="9.202350690316283"><ele>681.5</ele><time>2026-04-26T15:42:59.81Z</time></trkpt><trkpt lat="40.12774900705055" lon="9.202420853483268"><ele>671.0</ele><time>2026-04-26T15:43:00.81Z</time></trkpt><trkpt lat="40.12748551968303" lon="9.202495602757962"><ele>673.0</ele><time>2026-04-26T15:43:01.81Z</time></trkpt><trkpt lat="40.12724576216658" lon="9.202552998340675"><ele>675.0</ele><time>2026-04-26T15:43:02.81Z</time></trkpt><trkpt lat="40.127031030244645" lon="9.202616288833362"><ele>675.0</ele><time>2026-04-26T15:43:03.81Z</time></trkpt><trkpt lat="40.12684649569465" lon="9.202660218528854"><ele>675.0</ele><time>2026-04-26T15:43:04.81Z</time></trkpt><trkpt lat="40.12668779492717" lon="9.202705786194482"><ele>675.0</ele><time>2026-04-26T15:43:05.81Z</time></trkpt><trkpt lat="40.12653388765442" lon="9.202741539476534"><ele>674.6666666666666</ele><time>2026-04-26T15:43:06.81Z</time></trkpt><trkpt lat="40.126389928439565" lon="9.202761540358287"><ele>674.3333333333333</ele><time>2026-04-26T15:43:07.81Z</time></trkpt><trkpt lat="40.12622961680783" lon="9.202737818169023"><ele>674.0</ele><time>2026-04-26T15:43:08.81Z</time></trkpt><trkpt lat="40.126048072450054" lon="9.202690264040893"><ele>674.0</ele><time>2026-04-26T15:43:09.81Z</time></trkpt><trkpt lat="40.125838720122935" lon="9.202607522171803"><ele>674.0</ele><time>2026-04-26T15:43:10.81Z</time></trkpt><trkpt lat="40.12562500646617" lon="9.20253503499096"><ele>674.0</ele><time>2026-04-26T15:43:11.81Z</time></trkpt><trkpt lat="40.12542350499672" lon="9.20244749516645"><ele>671.6666666666666</ele><time>2026-04-26T15:43:12.81Z</time></trkpt><trkpt lat="40.125243192654686" lon="9.202360437625662"><ele>669.3333333333334</ele><time>2026-04-26T15:43:13.81Z</time></trkpt><trkpt lat="40.12507185809652" lon="9.20229117163026"><ele>667.0</ele><time>2026-04-26T15:43:14.81Z</time></trkpt><trkpt lat="40.1249114300153" lon="9.202228993001597"><ele>670.3333333333334</ele><time>2026-04-26T15:43:15.81Z</time></trkpt><trkpt lat="40.12475442366962" lon="9.202189898777567"><ele>673.6666666666666</ele><time>2026-04-26T15:43:16.81Z</time></trkpt><trkpt lat="40.1245855397733" lon="9.20219852207958"><ele>677.0</ele><time>2026-04-26T15:43:17.81Z</time></trkpt><trkpt lat="40.12439384664645" lon="9.202209367449013"><ele>677.0</ele><time>2026-04-26T15:43:18.81Z</time></trkpt><trkpt lat="40.12418817769675" lon="9.202254119454924"><ele>677.0</ele><time>2026-04-26T15:43:19.81Z</time></trkpt><trkpt lat="40.12397798601229" lon="9.202302920839266"><ele>677.0</ele><time>2026-04-26T15:43:20.81Z</time></trkpt><trkpt lat="40.1237565673805" lon="9.20235432879556"><ele>672.0</ele><time>2026-04-26T15:43:21.809Z</time></trkpt><trkpt lat="40.12353458335832" lon="9.202427808512036"><ele>667.0</ele><time>2026-04-26T15:43:22.809Z</time></trkpt><trkpt lat="40.12331090626553" lon="9.202471028708237"><ele>667.3333333333334</ele><time>2026-04-26T15:43:23.809Z</time></trkpt><trkpt lat="40.12309105768994" lon="9.20248340630383"><ele>667.6666666666666</ele><time>2026-04-26T15:43:24.809Z</time></trkpt><trkpt lat="40.12289726226199" lon="9.202458806791887"><ele>668.0</ele><time>2026-04-26T15:43:25.809Z</time></trkpt><trkpt lat="40.122714511950804" lon="9.20242703292854"><ele>668.0</ele><time>2026-04-26T15:43:26.809Z</time></trkpt><trkpt lat="40.12253063388856" lon="9.202386735153434"><ele>668.0</ele><time>2026-04-26T15:43:27.809Z</time></trkpt><trkpt lat="40.12231227722133" lon="9.202390677963429"><ele>668.0</ele><time>2026-04-26T15:43:28.809Z</time></trkpt><trkpt lat="40.12208870891445" lon="9.202461620791292"><ele>668.6666666666666</ele><time>2026-04-26T15:43:29.809Z</time></trkpt><trkpt lat="40.12189828315651" lon="9.202534929465878"><ele>669.3333333333334</ele><time>2026-04-26T15:43:30.809Z</time></trkpt><trkpt lat="40.121741400674395" lon="9.202589842534845"><ele>670.0</ele><time>2026-04-26T15:43:31.809Z</time></trkpt><trkpt lat="40.121599794867834" lon="9.202610329138224"><ele>669.3333333333334</ele><time>2026-04-26T15:43:32.809Z</time></trkpt><trkpt lat="40.12143743726053" lon="9.202596035307556"><ele>668.6666666666666</ele><time>2026-04-26T15:43:33.809Z</time></trkpt><trkpt lat="40.12123116931672" lon="9.202554915539771"><ele>668.0</ele><time>2026-04-26T15:43:34.809Z</time></trkpt><trkpt lat="40.121021875504425" lon="9.20246834014373"><ele>668.0</ele><time>2026-04-26T15:43:35.809Z</time></trkpt><trkpt lat="40.12079942034333" lon="9.202402771347558"><ele>668.0</ele><time>2026-04-26T15:43:36.809Z</time></trkpt><trkpt lat="40.12056040011534" lon="9.202395431240792"><ele>671.0</ele><time>2026-04-26T15:43:37.809Z</time></trkpt><trkpt lat="40.1203108635257" lon="9.202461977690694"><ele>674.0</ele><time>2026-04-26T15:43:38.809Z</time></trkpt><trkpt lat="40.12006249519484" lon="9.202567639552141"><ele>680.5</ele><time>2026-04-26T15:43:39.809Z</time></trkpt><trkpt lat="40.11980069160617" lon="9.202696965974491"><ele>687.0</ele><time>2026-04-26T15:43:40.809Z</time></trkpt><trkpt lat="40.119538731962365" lon="9.202876578506437"><ele>687.0</ele><time>2026-04-26T15:43:41.809Z</time></trkpt><trkpt lat="40.11929599017755" lon="9.203062236697328"><ele>687.0</ele><time>2026-04-26T15:43:42.809Z</time></trkpt><trkpt lat="40.119057075227985" lon="9.203192904314125"><ele>675.0</ele><time>2026-04-26T15:43:43.809Z</time></trkpt><trkpt lat="40.118825453348045" lon="9.203313210500202"><ele>663.0</ele><time>2026-04-26T15:43:44.811Z</time></trkpt><trkpt lat="40.11857177429164" lon="9.20331979147663"><ele>663.0</ele><time>2026-04-26T15:43:45.81Z</time></trkpt><trkpt lat="40.11832313939727" lon="9.203330869505844"><ele>663.0</ele><time>2026-04-26T15:43:46.81Z</time></trkpt><trkpt lat="40.11809764439297" lon="9.203338217987751"><ele>664.0</ele><time>2026-04-26T15:43:47.81Z</time></trkpt><trkpt lat="40.11790436438243" lon="9.203357496095379"><ele>665.0</ele><time>2026-04-26T15:43:48.81Z</time></trkpt><trkpt lat="40.11773710415686" lon="9.20343704015505"><ele>666.0</ele><time>2026-04-26T15:43:49.81Z</time></trkpt><trkpt lat="40.12782805670231" lon="9.208965915735389"><ele>668.0</ele><time>2026-04-26T15:44:50.809Z</time></trkpt><trkpt lat="40.12807613223088" lon="9.209092583488857"><ele>670.0</ele><time>2026-04-26T15:44:51.809Z</time></trkpt><trkpt lat="40.128341567134385" lon="9.20926027357548"><ele>664.5</ele><time>2026-04-26T15:44:52.809Z</time></trkpt><trkpt lat="40.12858939095786" lon="9.209398856054527"><ele>659.0</ele><time>2026-04-26T15:44:53.809Z</time></trkpt><trkpt lat="40.12882004576377" lon="9.2095036529231"><ele>659.0</ele><time>2026-04-26T15:44:54.809Z</time></trkpt><trkpt lat="40.12900357972968" lon="9.209644367585788"><ele>659.0</ele><time>2026-04-26T15:44:55.809Z</time></trkpt><trkpt lat="40.129141170075336" lon="9.209826971848463"><ele>659.0</ele><time>2026-04-26T15:44:56.809Z</time></trkpt><trkpt lat="40.12921453512468" lon="9.210095897224436"><ele>659.0</ele><time>2026-04-26T15:44:57.809Z</time></trkpt><trkpt lat="40.12921941518826" lon="9.21039403503723"><ele>659.0</ele><time>2026-04-26T15:44:58.809Z</time></trkpt><trkpt lat="40.129185802583194" lon="9.210712405756079"><ele>661.3333333333333</ele><time>2026-04-26T15:44:59.809Z</time></trkpt><trkpt lat="40.129173881207855" lon="9.211008299619344"><ele>663.6666666666666</ele><time>2026-04-26T15:45:00.808Z</time></trkpt><trkpt lat="40.129222989137844" lon="9.211231783637727"><ele>666.0</ele><time>2026-04-26T15:45:01.808Z</time></trkpt><trkpt lat="40.12931229363604" lon="9.211480188219996"><ele>668.3333333333334</ele><time>2026-04-26T15:45:02.808Z</time></trkpt><trkpt lat="40.12943995289709" lon="9.211702263937495"><ele>670.6666666666667</ele><time>2026-04-26T15:45:03.808Z</time></trkpt><trkpt lat="40.129590161670365" lon="9.211899623177352"><ele>673.0</ele><time>2026-04-26T15:45:04.808Z</time></trkpt><trkpt lat="40.129749520764406" lon="9.212058696913026"><ele>666.6666666666667</ele><time>2026-04-26T15:45:05.808Z</time></trkpt><trkpt lat="40.12993424530961" lon="9.212125050348188"><ele>660.3333333333334</ele><time>2026-04-26T15:45:06.808Z</time></trkpt><trkpt lat="40.13014551270587" lon="9.212111723267746"><ele>654.0</ele><time>2026-04-26T15:45:07.808Z</time></trkpt><trkpt lat="40.13037849167857" lon="9.212030167625713"><ele>654.0</ele><time>2026-04-26T15:45:08.808Z</time></trkpt><trkpt lat="40.13063036276954" lon="9.211971964180776"><ele>654.0</ele><time>2026-04-26T15:45:09.808Z</time></trkpt><trkpt lat="40.13087281103814" lon="9.212010296780043"><ele>653.5</ele><time>2026-04-26T15:45:10.808Z</time></trkpt><trkpt lat="40.131090919078396" lon="9.212123708630417"><ele>653.0</ele><time>2026-04-26T15:45:11.808Z</time></trkpt><trkpt lat="40.131268881131504" lon="9.212288345784588"><ele>654.0</ele><time>2026-04-26T15:45:12.808Z</time></trkpt><trkpt lat="40.13142117281826" lon="9.212500051655251"><ele>655.0</ele><time>2026-04-26T15:45:13.808Z</time></trkpt><trkpt lat="40.131578064532135" lon="9.212738805002566"><ele>655.0</ele><time>2026-04-26T15:45:14.808Z</time></trkpt><trkpt lat="40.131720532875676" lon="9.212945995025393"><ele>655.0</ele><time>2026-04-26T15:45:15.808Z</time></trkpt><trkpt lat="40.131850173589" lon="9.213101314591096"><ele>655.0</ele><time>2026-04-26T15:45:16.808Z</time></trkpt><trkpt lat="40.1319858884308" lon="9.213209408571199"><ele>657.6666666666667</ele><time>2026-04-26T15:45:17.808Z</time></trkpt><trkpt lat="40.13213459821076" lon="9.21331130306376"><ele>660.3333333333334</ele><time>2026-04-26T15:45:18.808Z</time></trkpt><trkpt lat="40.13229418472633" lon="9.213420650189182"><ele>663.0</ele><time>2026-04-26T15:45:19.808Z</time></trkpt><trkpt lat="40.132557617135305" lon="9.213270996827008"><ele>655.3333333333334</ele><time>2026-04-26T15:45:20.808Z</time></trkpt><trkpt lat="40.1327482820469" lon="9.213299975792252"><ele>647.6666666666667</ele><time>2026-04-26T15:45:21.808Z</time></trkpt><trkpt lat="40.1329363027935" lon="9.213325597474965"><ele>640.0</ele><time>2026-04-26T15:45:22.808Z</time></trkpt><trkpt lat="40.13312521922283" lon="9.21335477744799"><ele>639.6666666666667</ele><time>2026-04-26T15:45:23.808Z</time></trkpt><trkpt lat="40.133315300814274" lon="9.213385891502583"><ele>639.3333333333334</ele><time>2026-04-26T15:45:24.808Z</time></trkpt><trkpt lat="40.13350286361851" lon="9.213417829753443"><ele>639.0</ele><time>2026-04-26T15:45:25.808Z</time></trkpt><trkpt lat="40.13366587507464" lon="9.213433964713316"><ele>639.0</ele><time>2026-04-26T15:45:26.808Z</time></trkpt><trkpt lat="40.13381536708569" lon="9.213412798110436"><ele>639.0</ele><time>2026-04-26T15:45:27.808Z</time></trkpt><trkpt lat="40.13394915001798" lon="9.213309440148143"><ele>639.0</ele><time>2026-04-26T15:45:28.808Z</time></trkpt><trkpt lat="40.134062277857595" lon="9.213120836811182"><ele>648.0</ele><time>2026-04-26T15:45:29.808Z</time></trkpt><trkpt lat="40.13413345839561" lon="9.212834342350055"><ele>657.0</ele><time>2026-04-26T15:45:30.808Z</time></trkpt><trkpt lat="40.134203751964336" lon="9.212528054458113"><ele>652.5</ele><time>2026-04-26T15:45:31.808Z</time></trkpt><trkpt lat="40.13430560941057" lon="9.212214852956372"><ele>648.0</ele><time>2026-04-26T15:45:32.808Z</time></trkpt><trkpt lat="40.13446295304477" lon="9.211936414999615"><ele>648.0</ele><time>2026-04-26T15:45:33.808Z</time></trkpt><trkpt lat="40.134623662380875" lon="9.211701788690338"><ele>648.0</ele><time>2026-04-26T15:45:34.807Z</time></trkpt><trkpt lat="40.13476250210856" lon="9.211504238601695"><ele>648.0</ele><time>2026-04-26T15:45:35.807Z</time></trkpt><trkpt lat="40.13488181810345" lon="9.21131699677008"><ele>654.3333333333334</ele><time>2026-04-26T15:45:36.807Z</time></trkpt><trkpt lat="40.13496049476425" lon="9.211121414021024"><ele>660.6666666666667</ele><time>2026-04-26T15:45:37.807Z</time></trkpt><trkpt lat="40.13497403391362" lon="9.210921425485095"><ele>667.0</ele><time>2026-04-26T15:45:38.807Z</time></trkpt><trkpt lat="40.134941369137856" lon="9.210702998457508"><ele>660.6666666666667</ele><time>2026-04-26T15:45:39.807Z</time></trkpt><trkpt lat="40.134814756432036" lon="9.210473922476433"><ele>654.3333333333334</ele><time>2026-04-26T15:45:40.807Z</time></trkpt><trkpt lat="40.134695471549975" lon="9.210226841994668"><ele>648.0</ele><time>2026-04-26T15:45:41.807Z</time></trkpt><trkpt lat="40.13456680517217" lon="9.209947032990785"><ele>651.5</ele><time>2026-04-26T15:45:42.807Z</time></trkpt><trkpt lat="40.13447336040345" lon="9.209655956445845"><ele>655.0</ele><time>2026-04-26T15:45:43.807Z</time></trkpt><trkpt lat="40.13438704372639" lon="9.209345802508674"><ele>655.0</ele><time>2026-04-26T15:45:44.807Z</time></trkpt><trkpt lat="40.1343062191788" lon="9.209054895487203"><ele>655.0</ele><time>2026-04-26T15:45:45.807Z</time></trkpt><trkpt lat="40.13422910932312" lon="9.208799795568483"><ele>655.0</ele><time>2026-04-26T15:45:46.807Z</time></trkpt><trkpt lat="40.134209788570544" lon="9.208547635413435"><ele>654.3333333333334</ele><time>2026-04-26T15:45:47.807Z</time></trkpt><trkpt lat="40.13424760414982" lon="9.208343889887342"><ele>653.6666666666666</ele><time>2026-04-26T15:45:48.807Z</time></trkpt><trkpt lat="40.13433286840518" lon="9.20816062102938"><ele>653.0</ele><time>2026-04-26T15:45:49.807Z</time></trkpt><trkpt lat="40.14548622637266" lon="9.199817027916241"><ele>652.6666666666666</ele><time>2026-04-26T15:46:50.806Z</time></trkpt><trkpt lat="40.14558353419436" lon="9.199690827551082"><ele>652.3333333333334</ele><time>2026-04-26T15:46:51.806Z</time></trkpt><trkpt lat="40.145747364002865" lon="9.199651636086733"><ele>652.0</ele><time>2026-04-26T15:46:52.806Z</time></trkpt><trkpt lat="40.145976443751074" lon="9.19954948030346"><ele>656.5</ele><time>2026-04-26T15:46:53.806Z</time></trkpt><trkpt lat="40.146214688065655" lon="9.19946630462497"><ele>661.0</ele><time>2026-04-26T15:46:54.806Z</time></trkpt><trkpt lat="40.14642384036134" lon="9.199463825854906"><ele>662.0</ele><time>2026-04-26T15:46:55.806Z</time></trkpt><trkpt lat="40.146646649952864" lon="9.199515719127955"><ele>663.0</ele><time>2026-04-26T15:46:56.806Z</time></trkpt><trkpt lat="40.146853957117465" lon="9.19952102155066"><ele>664.0</ele><time>2026-04-26T15:46:57.806Z</time></trkpt><trkpt lat="40.14706185349762" lon="9.199478219612436"><ele>664.0</ele><time>2026-04-26T15:46:58.806Z</time></trkpt><trkpt lat="40.14724320296766" lon="9.199381675815495"><ele>664.0</ele><time>2026-04-26T15:46:59.806Z</time></trkpt><trkpt lat="40.147370903813396" lon="9.199331775078853"><ele>664.0</ele><time>2026-04-26T15:47:00.806Z</time></trkpt><trkpt lat="40.14742455851962" lon="9.199198045062701"><ele>664.0</ele><time>2026-04-26T15:47:01.806Z</time></trkpt><trkpt lat="40.147402973110275" lon="9.199013301701546"><ele>669.3333333333334</ele><time>2026-04-26T15:47:02.806Z</time></trkpt><trkpt lat="40.14731775556185" lon="9.198807319257092"><ele>674.6666666666666</ele><time>2026-04-26T15:47:03.806Z</time></trkpt><trkpt lat="40.147253892733026" lon="9.198588481186022"><ele>680.0</ele><time>2026-04-26T15:47:04.806Z</time></trkpt><trkpt lat="40.14724706328673" lon="9.19840454663379"><ele>680.0</ele><time>2026-04-26T15:47:05.806Z</time></trkpt><trkpt lat="40.14732975268912" lon="9.198309101296276"><ele>680.0</ele><time>2026-04-26T15:47:06.806Z</time></trkpt><trkpt lat="40.14743759848578" lon="9.198182114054855"><ele>680.0</ele><time>2026-04-26T15:47:07.806Z</time></trkpt><trkpt lat="40.147484818428616" lon="9.197996312621019"><ele>680.0</ele><time>2026-04-26T15:47:08.806Z</time></trkpt><trkpt lat="40.14746887604002" lon="9.197808204748448"><ele>682.0</ele><time>2026-04-26T15:47:09.806Z</time></trkpt><trkpt lat="40.14743303564378" lon="9.1976333316225"><ele>684.0</ele><time>2026-04-26T15:47:10.806Z</time></trkpt><trkpt lat="40.14751421704445" lon="9.19759266611859"><ele>686.0</ele><time>2026-04-26T15:47:11.806Z</time></trkpt><trkpt lat="40.14763058067439" lon="9.197615425619526"><ele>688.0</ele><time>2026-04-26T15:47:12.806Z</time></trkpt><trkpt lat="40.14779362732074" lon="9.197604753298902"><ele>688.0</ele><time>2026-04-26T15:47:13.806Z</time></trkpt><trkpt lat="40.147972651550255" lon="9.19756101730818"><ele>688.0</ele><time>2026-04-26T15:47:14.806Z</time></trkpt><trkpt lat="40.14812884984709" lon="9.197460945427883"><ele>688.0</ele><time>2026-04-26T15:47:15.806Z</time></trkpt><trkpt lat="40.14827553122168" lon="9.197476402831267"><ele>686.6666666666667</ele><time>2026-04-26T15:47:16.806Z</time></trkpt><trkpt lat="40.14846785122756" lon="9.197499676342344"><ele>685.3333333333334</ele><time>2026-04-26T15:47:17.806Z</time></trkpt><trkpt lat="40.14868799471826" lon="9.197535276704965"><ele>684.0</ele><time>2026-04-26T15:47:18.806Z</time></trkpt><trkpt lat="40.14893719355492" lon="9.197459819266717"><ele>684.0</ele><time>2026-04-26T15:47:19.806Z</time></trkpt><trkpt lat="40.1491560171874" lon="9.197355349568115"><ele>684.0</ele><time>2026-04-26T15:47:20.805Z</time></trkpt><trkpt lat="40.14932561064107" lon="9.197252702235579"><ele>684.0</ele><time>2026-04-26T15:47:21.805Z</time></trkpt><trkpt lat="40.149425896251564" lon="9.19713764209159"><ele>688.6666666666666</ele><time>2026-04-26T15:47:22.805Z</time></trkpt><trkpt lat="40.14947550950281" lon="9.196997743638464"><ele>693.3333333333333</ele><time>2026-04-26T15:47:23.805Z</time></trkpt><trkpt lat="40.14947444818874" lon="9.196785152257796"><ele>698.0</ele><time>2026-04-26T15:47:24.805Z</time></trkpt><trkpt lat="40.14942055646771" lon="9.196527917686295"><ele>700.6666666666666</ele><time>2026-04-26T15:47:25.805Z</time></trkpt><trkpt lat="40.14941568884279" lon="9.196276078863164"><ele>703.3333333333334</ele><time>2026-04-26T15:47:26.805Z</time></trkpt><trkpt lat="40.14947296075236" lon="9.196085750022311"><ele>706.0</ele><time>2026-04-26T15:47:27.805Z</time></trkpt><trkpt lat="40.149586759195415" lon="9.195944846587123"><ele>706.0</ele><time>2026-04-26T15:47:28.805Z</time></trkpt><trkpt lat="40.14973489202244" lon="9.195840458006977"><ele>706.0</ele><time>2026-04-26T15:47:29.805Z</time></trkpt><trkpt lat="40.14991346826803" lon="9.195794996454259"><ele>706.0</ele><time>2026-04-26T15:47:30.805Z</time></trkpt><trkpt lat="40.15006946255144" lon="9.195795632938543"><ele>703.0</ele><time>2026-04-26T15:47:31.805Z</time></trkpt><trkpt lat="40.1501933146581" lon="9.195911803675278"><ele>700.0</ele><time>2026-04-26T15:47:32.805Z</time></trkpt><trkpt lat="40.150356178158475" lon="9.19601312617732"><ele>697.0</ele><time>2026-04-26T15:47:33.805Z</time></trkpt><trkpt lat="40.1505165344753" lon="9.196025235765681"><ele>697.0</ele><time>2026-04-26T15:47:34.805Z</time></trkpt><trkpt lat="40.15066630028353" lon="9.19592828229632"><ele>697.0</ele><time>2026-04-26T15:47:35.805Z</time></trkpt><trkpt lat="40.15081484865371" lon="9.195786967175028"><ele>697.0</ele><time>2026-04-26T15:47:36.805Z</time></trkpt><trkpt lat="40.15098767118438" lon="9.19575243555275"><ele>698.0</ele><time>2026-04-26T15:47:37.805Z</time></trkpt><trkpt lat="40.151148989576456" lon="9.195691341445166"><ele>699.0</ele><time>2026-04-26T15:47:38.805Z</time></trkpt><trkpt lat="40.15126118194382" lon="9.19553840900029"><ele>700.0</ele><time>2026-04-26T15:47:39.805Z</time></trkpt><trkpt lat="40.151362295698256" lon="9.19542077766443"><ele>702.0</ele><time>2026-04-26T15:47:40.805Z</time></trkpt><trkpt lat="40.15147293132057" lon="9.19539960765983"><ele>704.0</ele><time>2026-04-26T15:47:41.805Z</time></trkpt><trkpt lat="40.151583197113396" lon="9.195449467657754"><ele>706.0</ele><time>2026-04-26T15:47:42.805Z</time></trkpt><trkpt lat="40.15167737172509" lon="9.195589631094188"><ele>708.0</ele><time>2026-04-26T15:47:43.805Z</time></trkpt><trkpt lat="40.15170866365343" lon="9.195791708037587"><ele>708.0</ele><time>2026-04-26T15:47:44.805Z</time></trkpt><trkpt lat="40.15172604207338" lon="9.196006058750838"><ele>708.0</ele><time>2026-04-26T15:47:45.805Z</time></trkpt><trkpt lat="40.151748154520256" lon="9.196232452230959"><ele>708.0</ele><time>2026-04-26T15:47:46.805Z</time></trkpt><trkpt lat="40.15177703692171" lon="9.196445689708355"><ele>706.3333333333334</ele><time>2026-04-26T15:47:47.805Z</time></trkpt><trkpt lat="40.151816881600006" lon="9.19661686403286"><ele>704.6666666666667</ele><time>2026-04-26T15:47:48.805Z</time></trkpt><trkpt lat="40.15190737569931" lon="9.196746329004213"><ele>703.0</ele><time>2026-04-26T15:47:49.805Z</time></trkpt><trkpt lat="40.15831176385986" lon="9.193339727674406"><ele>715.8</ele><time>2026-04-26T15:48:50.805Z</time></trkpt><trkpt lat="40.158381189455895" lon="9.193397516205751"><ele>728.5999999999999</ele><time>2026-04-26T15:48:51.804Z</time></trkpt><trkpt lat="40.158426616254125" lon="9.193488634570835"><ele>741.4000000000001</ele><time>2026-04-26T15:48:52.804Z</time></trkpt><trkpt lat="40.15849431159146" lon="9.193569327481427"><ele>754.2</ele><time>2026-04-26T15:48:53.804Z</time></trkpt><trkpt lat="40.15852358463119" lon="9.19370487663137"><ele>767.0</ele><time>2026-04-26T15:48:54.804Z</time></trkpt><trkpt lat="40.158567296668316" lon="9.193801475337105"><ele>767.0</ele><time>2026-04-26T15:48:55.804Z</time></trkpt><trkpt lat="40.15860668868137" lon="9.19389597751671"><ele>767.0</ele><time>2026-04-26T15:48:56.804Z</time></trkpt><trkpt lat="40.158637335191955" lon="9.194000235106705"><ele>767.0</ele><time>2026-04-26T15:48:57.804Z</time></trkpt><trkpt lat="40.15865575438501" lon="9.194103123322032"><ele>767.0</ele><time>2026-04-26T15:48:58.804Z</time></trkpt><trkpt lat="40.158671259335634" lon="9.19421606581948"><ele>767.0</ele><time>2026-04-26T15:48:59.804Z</time></trkpt><trkpt lat="40.158674771429716" lon="9.194346281185169"><ele>767.0</ele><time>2026-04-26T15:49:00.804Z</time></trkpt><trkpt lat="40.1586848295258" lon="9.194472518423044"><ele>765.6666666666666</ele><time>2026-04-26T15:49:01.804Z</time></trkpt><trkpt lat="40.158654185202735" lon="9.194587717053148"><ele>764.3333333333333</ele><time>2026-04-26T15:49:02.804Z</time></trkpt><trkpt lat="40.158648313469016" lon="9.194694671616508"><ele>763.0</ele><time>2026-04-26T15:49:03.804Z</time></trkpt><trkpt lat="40.158652288756514" lon="9.194790583479625"><ele>761.6666666666666</ele><time>2026-04-26T15:49:04.804Z</time></trkpt><trkpt lat="40.15866354025618" lon="9.19489176569771"><ele>760.3333333333334</ele><time>2026-04-26T15:49:05.804Z</time></trkpt><trkpt lat="40.15865911294118" lon="9.194997535446543"><ele>759.0</ele><time>2026-04-26T15:49:06.804Z</time></trkpt><trkpt lat="40.15866510787067" lon="9.195094383061958"><ele>759.0</ele><time>2026-04-26T15:49:07.804Z</time></trkpt><trkpt lat="40.15867003433742" lon="9.195179980339118"><ele>759.0</ele><time>2026-04-26T15:49:10.804Z</time></trkpt><trkpt lat="40.15881150646112" lon="9.195175475131444"><ele>759.0</ele><time>2026-04-26T15:49:13.804Z</time></trkpt><trkpt lat="40.158950480913155" lon="9.195142217823363"><ele>759.0</ele><time>2026-04-26T15:49:15.804Z</time></trkpt><trkpt lat="40.15901711791115" lon="9.195094138046949"><ele>759.0</ele><time>2026-04-26T15:49:16.804Z</time></trkpt><trkpt lat="40.15910050228941" lon="9.195064013933738"><ele>762.0</ele><time>2026-04-26T15:49:17.804Z</time></trkpt><trkpt lat="40.159163114808855" lon="9.19502576090594"><ele>765.0</ele><time>2026-04-26T15:49:18.804Z</time></trkpt><trkpt lat="40.15927078712279" lon="9.194959164731078"><ele>768.0</ele><time>2026-04-26T15:49:20.804Z</time></trkpt><trkpt lat="40.15933766358873" lon="9.194830392217826"><ele>771.0</ele><time>2026-04-26T15:49:22.804Z</time></trkpt><trkpt lat="40.15939986337287" lon="9.194720321213488"><ele>774.0</ele><time>2026-04-26T15:49:24.803Z</time></trkpt><trkpt lat="40.15944060973103" lon="9.19458727506795"><ele>780.0</ele><time>2026-04-26T15:49:26.803Z</time></trkpt><trkpt lat="40.159379468685714" lon="9.194498204773177"><ele>780.0</ele><time>2026-04-26T15:49:28.803Z</time></trkpt><trkpt lat="40.159335822996596" lon="9.194430132270567"><ele>780.0</ele><time>2026-04-26T15:49:35.803Z</time></trkpt></trkseg></trk></gpx>